<?xml version="1.0" encoding="UTF-8" standalone="no" ?>
<gpx xmlns="http://www.topografix.com/GPX/1/1" xmlns:xsi="http://www.w3.org/2001/XMLSchema-instance" xsi:schemaLocation="http://www.topografix.com/GPX/1/1 http://www.topografix.com/GPX/1/1/gpx.xsd" version="1.1" creator="VisuGPX - https://www.visugpx.com">
  <metadata>
    <name>la baie de l'Orne</name>
    <desc><![CDATA[Ranville, Sallenelles, Merville-Franceville-plage]]></desc>
  </metadata>
  <trk>
    <name><![CDATA[la baie de l'Orne_1]]></name>
    <trkseg>
      <trkpt lat="49.23588" lon="-0.25764">
        <ele>12.9</ele>
        <time>2022-05-31T13:34:49Z</time>
      </trkpt>
      <trkpt lat="49.23588" lon="-0.25764">
        <ele>12.9</ele>
        <time>2022-05-31T13:34:50Z</time>
      </trkpt>
      <trkpt lat="49.23588" lon="-0.25764">
        <ele>12.9</ele>
        <time>2022-05-31T13:34:51Z</time>
      </trkpt>
      <trkpt lat="49.23588" lon="-0.25764">
        <ele>12.9</ele>
        <time>2022-05-31T13:34:52Z</time>
      </trkpt>
      <trkpt lat="49.23588" lon="-0.25764">
        <ele>12.9</ele>
        <time>2022-05-31T13:34:53Z</time>
      </trkpt>
      <trkpt lat="49.23588" lon="-0.25764">
        <ele>12.9</ele>
        <time>2022-05-31T13:34:54Z</time>
      </trkpt>
      <trkpt lat="49.23588" lon="-0.25764">
        <ele>12.9</ele>
        <time>2022-05-31T13:34:55Z</time>
      </trkpt>
      <trkpt lat="49.23588" lon="-0.25764">
        <ele>12.9</ele>
        <time>2022-05-31T13:34:56Z</time>
      </trkpt>
      <trkpt lat="49.23588" lon="-0.25764">
        <ele>12.9</ele>
        <time>2022-05-31T13:34:57Z</time>
      </trkpt>
      <trkpt lat="49.23587" lon="-0.25764">
        <ele>12.9</ele>
        <time>2022-05-31T13:34:58Z</time>
      </trkpt>
      <trkpt lat="49.23587" lon="-0.25764">
        <ele>12.9</ele>
        <time>2022-05-31T13:34:59Z</time>
      </trkpt>
      <trkpt lat="49.23586" lon="-0.25765">
        <ele>12.8</ele>
        <time>2022-05-31T13:35:00Z</time>
      </trkpt>
      <trkpt lat="49.23585" lon="-0.25766">
        <ele>12.8</ele>
        <time>2022-05-31T13:35:01Z</time>
      </trkpt>
      <trkpt lat="49.23584" lon="-0.25769">
        <ele>12.7</ele>
        <time>2022-05-31T13:35:03Z</time>
      </trkpt>
      <trkpt lat="49.23583" lon="-0.2577">
        <ele>12.7</ele>
        <time>2022-05-31T13:35:04Z</time>
      </trkpt>
      <trkpt lat="49.23582" lon="-0.25772">
        <ele>12.7</ele>
        <time>2022-05-31T13:35:06Z</time>
      </trkpt>
      <trkpt lat="49.23581" lon="-0.25773">
        <ele>12.7</ele>
        <time>2022-05-31T13:35:07Z</time>
      </trkpt>
      <trkpt lat="49.2358" lon="-0.25774">
        <ele>12.6</ele>
        <time>2022-05-31T13:35:08Z</time>
      </trkpt>
      <trkpt lat="49.23579" lon="-0.25775">
        <ele>12.6</ele>
        <time>2022-05-31T13:35:09Z</time>
      </trkpt>
      <trkpt lat="49.23578" lon="-0.25776">
        <ele>12.6</ele>
        <time>2022-05-31T13:35:11Z</time>
      </trkpt>
      <trkpt lat="49.23578" lon="-0.25776">
        <ele>12.6</ele>
        <time>2022-05-31T13:35:12Z</time>
      </trkpt>
      <trkpt lat="49.23577" lon="-0.25776">
        <ele>12.6</ele>
        <time>2022-05-31T13:35:13Z</time>
      </trkpt>
      <trkpt lat="49.23577" lon="-0.25777">
        <ele>12.6</ele>
        <time>2022-05-31T13:35:14Z</time>
      </trkpt>
      <trkpt lat="49.23576" lon="-0.25778">
        <ele>12.6</ele>
        <time>2022-05-31T13:35:15Z</time>
      </trkpt>
      <trkpt lat="49.23576" lon="-0.25778">
        <ele>12.5</ele>
        <time>2022-05-31T13:35:16Z</time>
      </trkpt>
      <trkpt lat="49.23576" lon="-0.25778">
        <ele>12.5</ele>
        <time>2022-05-31T13:35:18Z</time>
      </trkpt>
      <trkpt lat="49.23576" lon="-0.25778">
        <ele>12.5</ele>
        <time>2022-05-31T13:35:19Z</time>
      </trkpt>
      <trkpt lat="49.23576" lon="-0.25778">
        <ele>12.5</ele>
        <time>2022-05-31T13:35:20Z</time>
      </trkpt>
      <trkpt lat="49.23576" lon="-0.25778">
        <ele>12.5</ele>
        <time>2022-05-31T13:35:21Z</time>
      </trkpt>
      <trkpt lat="49.23576" lon="-0.25778">
        <ele>12.5</ele>
        <time>2022-05-31T13:35:22Z</time>
      </trkpt>
      <trkpt lat="49.23576" lon="-0.25778">
        <ele>12.5</ele>
        <time>2022-05-31T13:35:23Z</time>
      </trkpt>
      <trkpt lat="49.23577" lon="-0.25778">
        <ele>12.5</ele>
        <time>2022-05-31T13:35:24Z</time>
      </trkpt>
      <trkpt lat="49.23577" lon="-0.25778">
        <ele>12.5</ele>
        <time>2022-05-31T13:35:25Z</time>
      </trkpt>
      <trkpt lat="49.23577" lon="-0.25777">
        <ele>12.5</ele>
        <time>2022-05-31T13:35:26Z</time>
      </trkpt>
      <trkpt lat="49.23576" lon="-0.25777">
        <ele>12.5</ele>
        <time>2022-05-31T13:35:27Z</time>
      </trkpt>
      <trkpt lat="49.23576" lon="-0.25777">
        <ele>12.5</ele>
        <time>2022-05-31T13:35:29Z</time>
      </trkpt>
      <trkpt lat="49.23576" lon="-0.25778">
        <ele>12.5</ele>
        <time>2022-05-31T13:35:30Z</time>
      </trkpt>
      <trkpt lat="49.23576" lon="-0.25778">
        <ele>12.5</ele>
        <time>2022-05-31T13:35:31Z</time>
      </trkpt>
      <trkpt lat="49.23576" lon="-0.25778">
        <ele>12.5</ele>
        <time>2022-05-31T13:35:32Z</time>
      </trkpt>
      <trkpt lat="49.23577" lon="-0.25777">
        <ele>12.5</ele>
        <time>2022-05-31T13:35:33Z</time>
      </trkpt>
      <trkpt lat="49.23578" lon="-0.25776">
        <ele>12.5</ele>
        <time>2022-05-31T13:35:34Z</time>
      </trkpt>
      <trkpt lat="49.23578" lon="-0.25776">
        <ele>12.5</ele>
        <time>2022-05-31T13:35:35Z</time>
      </trkpt>
      <trkpt lat="49.23578" lon="-0.25776">
        <ele>12.5</ele>
        <time>2022-05-31T13:35:36Z</time>
      </trkpt>
      <trkpt lat="49.23578" lon="-0.25776">
        <ele>12.5</ele>
        <time>2022-05-31T13:35:37Z</time>
      </trkpt>
      <trkpt lat="49.23578" lon="-0.25776">
        <ele>12.5</ele>
        <time>2022-05-31T13:35:38Z</time>
      </trkpt>
      <trkpt lat="49.23578" lon="-0.25776">
        <ele>12.5</ele>
        <time>2022-05-31T13:35:39Z</time>
      </trkpt>
      <trkpt lat="49.23578" lon="-0.25776">
        <ele>12.5</ele>
        <time>2022-05-31T13:35:40Z</time>
      </trkpt>
      <trkpt lat="49.23578" lon="-0.25776">
        <ele>12.5</ele>
        <time>2022-05-31T13:35:41Z</time>
      </trkpt>
      <trkpt lat="49.23578" lon="-0.25776">
        <ele>12.5</ele>
        <time>2022-05-31T13:35:42Z</time>
      </trkpt>
      <trkpt lat="49.23578" lon="-0.25776">
        <ele>12.5</ele>
        <time>2022-05-31T13:35:43Z</time>
      </trkpt>
      <trkpt lat="49.23578" lon="-0.25776">
        <ele>12.5</ele>
        <time>2022-05-31T13:35:44Z</time>
      </trkpt>
      <trkpt lat="49.23578" lon="-0.25776">
        <ele>12.5</ele>
        <time>2022-05-31T13:35:45Z</time>
      </trkpt>
      <trkpt lat="49.23578" lon="-0.25776">
        <ele>12.5</ele>
        <time>2022-05-31T13:35:46Z</time>
      </trkpt>
      <trkpt lat="49.23578" lon="-0.25776">
        <ele>12.5</ele>
        <time>2022-05-31T13:35:47Z</time>
      </trkpt>
      <trkpt lat="49.23578" lon="-0.25776">
        <ele>12.5</ele>
        <time>2022-05-31T13:35:48Z</time>
      </trkpt>
      <trkpt lat="49.23578" lon="-0.25776">
        <ele>12.5</ele>
        <time>2022-05-31T13:35:49Z</time>
      </trkpt>
      <trkpt lat="49.23578" lon="-0.25776">
        <ele>12.5</ele>
        <time>2022-05-31T13:35:50Z</time>
      </trkpt>
      <trkpt lat="49.23578" lon="-0.25776">
        <ele>12.5</ele>
        <time>2022-05-31T13:35:51Z</time>
      </trkpt>
      <trkpt lat="49.23578" lon="-0.25776">
        <ele>12.5</ele>
        <time>2022-05-31T13:35:52Z</time>
      </trkpt>
      <trkpt lat="49.23578" lon="-0.25776">
        <ele>12.5</ele>
        <time>2022-05-31T13:35:53Z</time>
      </trkpt>
      <trkpt lat="49.23578" lon="-0.25776">
        <ele>12.5</ele>
        <time>2022-05-31T13:35:54Z</time>
      </trkpt>
      <trkpt lat="49.23578" lon="-0.25776">
        <ele>12.5</ele>
        <time>2022-05-31T13:35:55Z</time>
      </trkpt>
      <trkpt lat="49.23578" lon="-0.25776">
        <ele>12.5</ele>
        <time>2022-05-31T13:35:56Z</time>
      </trkpt>
      <trkpt lat="49.23578" lon="-0.25776">
        <ele>12.5</ele>
        <time>2022-05-31T13:35:57Z</time>
      </trkpt>
      <trkpt lat="49.23578" lon="-0.25776">
        <ele>12.5</ele>
        <time>2022-05-31T13:35:58Z</time>
      </trkpt>
      <trkpt lat="49.23578" lon="-0.25776">
        <ele>12.5</ele>
        <time>2022-05-31T13:35:59Z</time>
      </trkpt>
      <trkpt lat="49.23578" lon="-0.25776">
        <ele>12.5</ele>
        <time>2022-05-31T13:36:00Z</time>
      </trkpt>
      <trkpt lat="49.23578" lon="-0.25776">
        <ele>12.5</ele>
        <time>2022-05-31T13:36:01Z</time>
      </trkpt>
      <trkpt lat="49.23578" lon="-0.25776">
        <ele>12.5</ele>
        <time>2022-05-31T13:36:02Z</time>
      </trkpt>
      <trkpt lat="49.23578" lon="-0.25776">
        <ele>12.5</ele>
        <time>2022-05-31T13:36:03Z</time>
      </trkpt>
      <trkpt lat="49.23578" lon="-0.25776">
        <ele>12.5</ele>
        <time>2022-05-31T13:36:04Z</time>
      </trkpt>
      <trkpt lat="49.23578" lon="-0.25776">
        <ele>12.5</ele>
        <time>2022-05-31T13:36:05Z</time>
      </trkpt>
      <trkpt lat="49.23577" lon="-0.25776">
        <ele>12.5</ele>
        <time>2022-05-31T13:36:06Z</time>
      </trkpt>
      <trkpt lat="49.23575" lon="-0.25777">
        <ele>12.4</ele>
        <time>2022-05-31T13:36:07Z</time>
      </trkpt>
      <trkpt lat="49.23575" lon="-0.25778">
        <ele>12.4</ele>
        <time>2022-05-31T13:36:08Z</time>
      </trkpt>
      <trkpt lat="49.23575" lon="-0.25779">
        <ele>12.4</ele>
        <time>2022-05-31T13:36:09Z</time>
      </trkpt>
      <trkpt lat="49.23572" lon="-0.25779">
        <ele>12.4</ele>
        <time>2022-05-31T13:36:10Z</time>
      </trkpt>
      <trkpt lat="49.23572" lon="-0.25779">
        <ele>12.4</ele>
        <time>2022-05-31T13:36:11Z</time>
      </trkpt>
      <trkpt lat="49.23571" lon="-0.2578">
        <ele>12.4</ele>
        <time>2022-05-31T13:36:13Z</time>
      </trkpt>
      <trkpt lat="49.2357" lon="-0.25782">
        <ele>12.3</ele>
        <time>2022-05-31T13:36:14Z</time>
      </trkpt>
      <trkpt lat="49.23569" lon="-0.25782">
        <ele>12.3</ele>
        <time>2022-05-31T13:36:15Z</time>
      </trkpt>
      <trkpt lat="49.23567" lon="-0.25783">
        <ele>12.3</ele>
        <time>2022-05-31T13:36:16Z</time>
      </trkpt>
      <trkpt lat="49.23566" lon="-0.25783">
        <ele>12.3</ele>
        <time>2022-05-31T13:36:17Z</time>
      </trkpt>
      <trkpt lat="49.23564" lon="-0.25783">
        <ele>12.3</ele>
        <time>2022-05-31T13:36:18Z</time>
      </trkpt>
      <trkpt lat="49.23563" lon="-0.25783">
        <ele>12.3</ele>
        <time>2022-05-31T13:36:19Z</time>
      </trkpt>
      <trkpt lat="49.23562" lon="-0.25783">
        <ele>12.3</ele>
        <time>2022-05-31T13:36:20Z</time>
      </trkpt>
      <trkpt lat="49.23562" lon="-0.25786">
        <ele>12.3</ele>
        <time>2022-05-31T13:36:21Z</time>
      </trkpt>
      <trkpt lat="49.23561" lon="-0.25788">
        <ele>12.2</ele>
        <time>2022-05-31T13:36:22Z</time>
      </trkpt>
      <trkpt lat="49.23561" lon="-0.25789">
        <ele>12.2</ele>
        <time>2022-05-31T13:36:23Z</time>
      </trkpt>
      <trkpt lat="49.2356" lon="-0.25791">
        <ele>12.2</ele>
        <time>2022-05-31T13:36:24Z</time>
      </trkpt>
      <trkpt lat="49.23559" lon="-0.25792">
        <ele>12.2</ele>
        <time>2022-05-31T13:36:25Z</time>
      </trkpt>
      <trkpt lat="49.23558" lon="-0.25793">
        <ele>12.2</ele>
        <time>2022-05-31T13:36:27Z</time>
      </trkpt>
      <trkpt lat="49.23557" lon="-0.25795">
        <ele>12.2</ele>
        <time>2022-05-31T13:36:28Z</time>
      </trkpt>
      <trkpt lat="49.23556" lon="-0.25797">
        <ele>12.2</ele>
        <time>2022-05-31T13:36:29Z</time>
      </trkpt>
      <trkpt lat="49.23555" lon="-0.25798">
        <ele>12.2</ele>
        <time>2022-05-31T13:36:30Z</time>
      </trkpt>
      <trkpt lat="49.23555" lon="-0.25799">
        <ele>12.2</ele>
        <time>2022-05-31T13:36:31Z</time>
      </trkpt>
      <trkpt lat="49.23554" lon="-0.25799">
        <ele>12.2</ele>
        <time>2022-05-31T13:36:33Z</time>
      </trkpt>
      <trkpt lat="49.23554" lon="-0.258">
        <ele>12.2</ele>
        <time>2022-05-31T13:36:34Z</time>
      </trkpt>
      <trkpt lat="49.23553" lon="-0.25801">
        <ele>12.2</ele>
        <time>2022-05-31T13:36:35Z</time>
      </trkpt>
      <trkpt lat="49.23552" lon="-0.25802">
        <ele>12.2</ele>
        <time>2022-05-31T13:36:36Z</time>
      </trkpt>
      <trkpt lat="49.2355" lon="-0.25804">
        <ele>12.2</ele>
        <time>2022-05-31T13:36:37Z</time>
      </trkpt>
      <trkpt lat="49.2355" lon="-0.25805">
        <ele>12.2</ele>
        <time>2022-05-31T13:36:38Z</time>
      </trkpt>
      <trkpt lat="49.23549" lon="-0.25806">
        <ele>12.1</ele>
        <time>2022-05-31T13:36:39Z</time>
      </trkpt>
      <trkpt lat="49.23548" lon="-0.25808">
        <ele>12.1</ele>
        <time>2022-05-31T13:36:40Z</time>
      </trkpt>
      <trkpt lat="49.23547" lon="-0.25809">
        <ele>12.1</ele>
        <time>2022-05-31T13:36:42Z</time>
      </trkpt>
      <trkpt lat="49.23546" lon="-0.2581">
        <ele>12.1</ele>
        <time>2022-05-31T13:36:43Z</time>
      </trkpt>
      <trkpt lat="49.23545" lon="-0.25812">
        <ele>12.1</ele>
        <time>2022-05-31T13:36:44Z</time>
      </trkpt>
      <trkpt lat="49.23544" lon="-0.25814">
        <ele>12.1</ele>
        <time>2022-05-31T13:36:45Z</time>
      </trkpt>
      <trkpt lat="49.23542" lon="-0.25815">
        <ele>12.1</ele>
        <time>2022-05-31T13:36:46Z</time>
      </trkpt>
      <trkpt lat="49.23541" lon="-0.25817">
        <ele>12.1</ele>
        <time>2022-05-31T13:36:47Z</time>
      </trkpt>
      <trkpt lat="49.2354" lon="-0.25819">
        <ele>12.2</ele>
        <time>2022-05-31T13:36:48Z</time>
      </trkpt>
      <trkpt lat="49.23538" lon="-0.2582">
        <ele>12.2</ele>
        <time>2022-05-31T13:36:49Z</time>
      </trkpt>
      <trkpt lat="49.23536" lon="-0.25822">
        <ele>12.2</ele>
        <time>2022-05-31T13:36:50Z</time>
      </trkpt>
      <trkpt lat="49.23535" lon="-0.25822">
        <ele>12.2</ele>
        <time>2022-05-31T13:36:52Z</time>
      </trkpt>
      <trkpt lat="49.23534" lon="-0.25822">
        <ele>12.2</ele>
        <time>2022-05-31T13:36:53Z</time>
      </trkpt>
      <trkpt lat="49.23533" lon="-0.25823">
        <ele>12.2</ele>
        <time>2022-05-31T13:36:54Z</time>
      </trkpt>
      <trkpt lat="49.23532" lon="-0.25823">
        <ele>12.2</ele>
        <time>2022-05-31T13:36:55Z</time>
      </trkpt>
      <trkpt lat="49.2353" lon="-0.25824">
        <ele>12.2</ele>
        <time>2022-05-31T13:36:56Z</time>
      </trkpt>
      <trkpt lat="49.23529" lon="-0.25825">
        <ele>12.2</ele>
        <time>2022-05-31T13:36:59Z</time>
      </trkpt>
      <trkpt lat="49.23528" lon="-0.25825">
        <ele>12.2</ele>
        <time>2022-05-31T13:37:00Z</time>
      </trkpt>
      <trkpt lat="49.23527" lon="-0.25826">
        <ele>12.2</ele>
        <time>2022-05-31T13:37:01Z</time>
      </trkpt>
      <trkpt lat="49.23527" lon="-0.25827">
        <ele>12.2</ele>
        <time>2022-05-31T13:37:02Z</time>
      </trkpt>
      <trkpt lat="49.23526" lon="-0.25827">
        <ele>12.2</ele>
        <time>2022-05-31T13:37:04Z</time>
      </trkpt>
      <trkpt lat="49.23525" lon="-0.25829">
        <ele>12.2</ele>
        <time>2022-05-31T13:37:05Z</time>
      </trkpt>
      <trkpt lat="49.23525" lon="-0.2583">
        <ele>12.2</ele>
        <time>2022-05-31T13:37:06Z</time>
      </trkpt>
      <trkpt lat="49.23524" lon="-0.25832">
        <ele>12.2</ele>
        <time>2022-05-31T13:37:07Z</time>
      </trkpt>
      <trkpt lat="49.23525" lon="-0.25832">
        <ele>12.2</ele>
        <time>2022-05-31T13:37:08Z</time>
      </trkpt>
      <trkpt lat="49.23525" lon="-0.25833">
        <ele>12.2</ele>
        <time>2022-05-31T13:37:09Z</time>
      </trkpt>
      <trkpt lat="49.23525" lon="-0.25833">
        <ele>12.2</ele>
        <time>2022-05-31T13:37:10Z</time>
      </trkpt>
      <trkpt lat="49.23526" lon="-0.25832">
        <ele>12.2</ele>
        <time>2022-05-31T13:37:11Z</time>
      </trkpt>
      <trkpt lat="49.23527" lon="-0.25832">
        <ele>12.2</ele>
        <time>2022-05-31T13:37:12Z</time>
      </trkpt>
      <trkpt lat="49.23527" lon="-0.25831">
        <ele>12.2</ele>
        <time>2022-05-31T13:37:13Z</time>
      </trkpt>
      <trkpt lat="49.23527" lon="-0.2583">
        <ele>12.2</ele>
        <time>2022-05-31T13:37:16Z</time>
      </trkpt>
      <trkpt lat="49.23527" lon="-0.2583">
        <ele>12.2</ele>
        <time>2022-05-31T13:37:17Z</time>
      </trkpt>
      <trkpt lat="49.23527" lon="-0.2583">
        <ele>12.2</ele>
        <time>2022-05-31T13:37:18Z</time>
      </trkpt>
      <trkpt lat="49.23527" lon="-0.25831">
        <ele>12.2</ele>
        <time>2022-05-31T13:37:19Z</time>
      </trkpt>
      <trkpt lat="49.23527" lon="-0.25831">
        <ele>12.2</ele>
        <time>2022-05-31T13:37:20Z</time>
      </trkpt>
      <trkpt lat="49.23528" lon="-0.25831">
        <ele>12.2</ele>
        <time>2022-05-31T13:37:21Z</time>
      </trkpt>
      <trkpt lat="49.23528" lon="-0.25831">
        <ele>12.2</ele>
        <time>2022-05-31T13:37:22Z</time>
      </trkpt>
      <trkpt lat="49.23528" lon="-0.25832">
        <ele>12.2</ele>
        <time>2022-05-31T13:37:23Z</time>
      </trkpt>
      <trkpt lat="49.23528" lon="-0.25832">
        <ele>12.2</ele>
        <time>2022-05-31T13:37:24Z</time>
      </trkpt>
      <trkpt lat="49.23529" lon="-0.25832">
        <ele>12.2</ele>
        <time>2022-05-31T13:37:26Z</time>
      </trkpt>
      <trkpt lat="49.23529" lon="-0.25833">
        <ele>12.2</ele>
        <time>2022-05-31T13:37:27Z</time>
      </trkpt>
      <trkpt lat="49.23529" lon="-0.25833">
        <ele>12.2</ele>
        <time>2022-05-31T13:37:28Z</time>
      </trkpt>
      <trkpt lat="49.23529" lon="-0.25833">
        <ele>12.2</ele>
        <time>2022-05-31T13:37:29Z</time>
      </trkpt>
      <trkpt lat="49.2353" lon="-0.25834">
        <ele>12.2</ele>
        <time>2022-05-31T13:37:30Z</time>
      </trkpt>
      <trkpt lat="49.23531" lon="-0.25835">
        <ele>12.2</ele>
        <time>2022-05-31T13:37:31Z</time>
      </trkpt>
      <trkpt lat="49.23532" lon="-0.25836">
        <ele>12.2</ele>
        <time>2022-05-31T13:37:32Z</time>
      </trkpt>
      <trkpt lat="49.23533" lon="-0.25838">
        <ele>12.2</ele>
        <time>2022-05-31T13:37:33Z</time>
      </trkpt>
      <trkpt lat="49.23534" lon="-0.25839">
        <ele>12.2</ele>
        <time>2022-05-31T13:37:34Z</time>
      </trkpt>
      <trkpt lat="49.23535" lon="-0.25842">
        <ele>12.2</ele>
        <time>2022-05-31T13:37:36Z</time>
      </trkpt>
      <trkpt lat="49.23536" lon="-0.25844">
        <ele>12.2</ele>
        <time>2022-05-31T13:37:37Z</time>
      </trkpt>
      <trkpt lat="49.23536" lon="-0.25846">
        <ele>12.2</ele>
        <time>2022-05-31T13:37:38Z</time>
      </trkpt>
      <trkpt lat="49.23537" lon="-0.25847">
        <ele>12.2</ele>
        <time>2022-05-31T13:37:39Z</time>
      </trkpt>
      <trkpt lat="49.23537" lon="-0.25848">
        <ele>12.2</ele>
        <time>2022-05-31T13:37:41Z</time>
      </trkpt>
      <trkpt lat="49.23537" lon="-0.25849">
        <ele>12.2</ele>
        <time>2022-05-31T13:37:42Z</time>
      </trkpt>
      <trkpt lat="49.23538" lon="-0.25851">
        <ele>12.2</ele>
        <time>2022-05-31T13:37:44Z</time>
      </trkpt>
      <trkpt lat="49.23538" lon="-0.25851">
        <ele>12.2</ele>
        <time>2022-05-31T13:37:45Z</time>
      </trkpt>
      <trkpt lat="49.23539" lon="-0.25852">
        <ele>12.2</ele>
        <time>2022-05-31T13:37:46Z</time>
      </trkpt>
      <trkpt lat="49.23539" lon="-0.25852">
        <ele>12.2</ele>
        <time>2022-05-31T13:37:47Z</time>
      </trkpt>
      <trkpt lat="49.2354" lon="-0.25853">
        <ele>12.2</ele>
        <time>2022-05-31T13:37:48Z</time>
      </trkpt>
      <trkpt lat="49.2354" lon="-0.25853">
        <ele>12.2</ele>
        <time>2022-05-31T13:37:49Z</time>
      </trkpt>
      <trkpt lat="49.23541" lon="-0.25856">
        <ele>12.2</ele>
        <time>2022-05-31T13:37:50Z</time>
      </trkpt>
      <trkpt lat="49.23542" lon="-0.25857">
        <ele>12.2</ele>
        <time>2022-05-31T13:37:51Z</time>
      </trkpt>
      <trkpt lat="49.23542" lon="-0.25858">
        <ele>12.2</ele>
        <time>2022-05-31T13:37:53Z</time>
      </trkpt>
      <trkpt lat="49.23543" lon="-0.2586">
        <ele>12.2</ele>
        <time>2022-05-31T13:37:54Z</time>
      </trkpt>
      <trkpt lat="49.23544" lon="-0.25862">
        <ele>12.2</ele>
        <time>2022-05-31T13:37:55Z</time>
      </trkpt>
      <trkpt lat="49.23545" lon="-0.25863">
        <ele>12.2</ele>
        <time>2022-05-31T13:37:56Z</time>
      </trkpt>
      <trkpt lat="49.23545" lon="-0.25864">
        <ele>12.2</ele>
        <time>2022-05-31T13:37:57Z</time>
      </trkpt>
      <trkpt lat="49.23546" lon="-0.25865">
        <ele>12.2</ele>
        <time>2022-05-31T13:37:58Z</time>
      </trkpt>
      <trkpt lat="49.23547" lon="-0.25867">
        <ele>12.2</ele>
        <time>2022-05-31T13:37:59Z</time>
      </trkpt>
      <trkpt lat="49.23547" lon="-0.25868">
        <ele>12.2</ele>
        <time>2022-05-31T13:38:00Z</time>
      </trkpt>
      <trkpt lat="49.23547" lon="-0.25869">
        <ele>12.2</ele>
        <time>2022-05-31T13:38:02Z</time>
      </trkpt>
      <trkpt lat="49.23548" lon="-0.2587">
        <ele>12.2</ele>
        <time>2022-05-31T13:38:03Z</time>
      </trkpt>
      <trkpt lat="49.23549" lon="-0.25871">
        <ele>12.2</ele>
        <time>2022-05-31T13:38:04Z</time>
      </trkpt>
      <trkpt lat="49.2355" lon="-0.25872">
        <ele>12.2</ele>
        <time>2022-05-31T13:38:05Z</time>
      </trkpt>
      <trkpt lat="49.23552" lon="-0.25873">
        <ele>12.2</ele>
        <time>2022-05-31T13:38:07Z</time>
      </trkpt>
      <trkpt lat="49.23553" lon="-0.25874">
        <ele>12.3</ele>
        <time>2022-05-31T13:38:08Z</time>
      </trkpt>
      <trkpt lat="49.23554" lon="-0.25874">
        <ele>12.3</ele>
        <time>2022-05-31T13:38:09Z</time>
      </trkpt>
      <trkpt lat="49.23555" lon="-0.25874">
        <ele>12.3</ele>
        <time>2022-05-31T13:38:10Z</time>
      </trkpt>
      <trkpt lat="49.23557" lon="-0.25876">
        <ele>12.3</ele>
        <time>2022-05-31T13:38:11Z</time>
      </trkpt>
      <trkpt lat="49.23558" lon="-0.25876">
        <ele>12.3</ele>
        <time>2022-05-31T13:38:12Z</time>
      </trkpt>
      <trkpt lat="49.23559" lon="-0.25877">
        <ele>12.3</ele>
        <time>2022-05-31T13:38:13Z</time>
      </trkpt>
      <trkpt lat="49.2356" lon="-0.25877">
        <ele>12.3</ele>
        <time>2022-05-31T13:38:15Z</time>
      </trkpt>
      <trkpt lat="49.23561" lon="-0.25877">
        <ele>12.3</ele>
        <time>2022-05-31T13:38:16Z</time>
      </trkpt>
      <trkpt lat="49.23562" lon="-0.25877">
        <ele>12.3</ele>
        <time>2022-05-31T13:38:17Z</time>
      </trkpt>
      <trkpt lat="49.23564" lon="-0.25878">
        <ele>12.3</ele>
        <time>2022-05-31T13:38:18Z</time>
      </trkpt>
      <trkpt lat="49.23565" lon="-0.25879">
        <ele>12.3</ele>
        <time>2022-05-31T13:38:19Z</time>
      </trkpt>
      <trkpt lat="49.23566" lon="-0.2588">
        <ele>12.3</ele>
        <time>2022-05-31T13:38:20Z</time>
      </trkpt>
      <trkpt lat="49.23567" lon="-0.25881">
        <ele>12.3</ele>
        <time>2022-05-31T13:38:21Z</time>
      </trkpt>
      <trkpt lat="49.23568" lon="-0.25882">
        <ele>12.3</ele>
        <time>2022-05-31T13:38:23Z</time>
      </trkpt>
      <trkpt lat="49.23569" lon="-0.25882">
        <ele>12.4</ele>
        <time>2022-05-31T13:38:24Z</time>
      </trkpt>
      <trkpt lat="49.23569" lon="-0.25881">
        <ele>12.4</ele>
        <time>2022-05-31T13:38:25Z</time>
      </trkpt>
      <trkpt lat="49.2357" lon="-0.25882">
        <ele>12.4</ele>
        <time>2022-05-31T13:38:26Z</time>
      </trkpt>
      <trkpt lat="49.23571" lon="-0.25883">
        <ele>12.4</ele>
        <time>2022-05-31T13:38:27Z</time>
      </trkpt>
      <trkpt lat="49.23572" lon="-0.25884">
        <ele>12.4</ele>
        <time>2022-05-31T13:38:28Z</time>
      </trkpt>
      <trkpt lat="49.23573" lon="-0.25884">
        <ele>12.4</ele>
        <time>2022-05-31T13:38:29Z</time>
      </trkpt>
      <trkpt lat="49.23574" lon="-0.25885">
        <ele>12.4</ele>
        <time>2022-05-31T13:38:31Z</time>
      </trkpt>
      <trkpt lat="49.23575" lon="-0.25885">
        <ele>12.4</ele>
        <time>2022-05-31T13:38:32Z</time>
      </trkpt>
      <trkpt lat="49.23576" lon="-0.25886">
        <ele>12.4</ele>
        <time>2022-05-31T13:38:33Z</time>
      </trkpt>
      <trkpt lat="49.23577" lon="-0.25886">
        <ele>12.5</ele>
        <time>2022-05-31T13:38:34Z</time>
      </trkpt>
      <trkpt lat="49.23579" lon="-0.25887">
        <ele>12.5</ele>
        <time>2022-05-31T13:38:35Z</time>
      </trkpt>
      <trkpt lat="49.2358" lon="-0.25888">
        <ele>12.5</ele>
        <time>2022-05-31T13:38:37Z</time>
      </trkpt>
      <trkpt lat="49.2358" lon="-0.25888">
        <ele>12.5</ele>
        <time>2022-05-31T13:38:38Z</time>
      </trkpt>
      <trkpt lat="49.23581" lon="-0.25889">
        <ele>12.5</ele>
        <time>2022-05-31T13:38:39Z</time>
      </trkpt>
      <trkpt lat="49.23583" lon="-0.2589">
        <ele>12.5</ele>
        <time>2022-05-31T13:38:40Z</time>
      </trkpt>
      <trkpt lat="49.23584" lon="-0.25891">
        <ele>12.6</ele>
        <time>2022-05-31T13:38:41Z</time>
      </trkpt>
      <trkpt lat="49.23585" lon="-0.25891">
        <ele>12.6</ele>
        <time>2022-05-31T13:38:42Z</time>
      </trkpt>
      <trkpt lat="49.23586" lon="-0.25892">
        <ele>12.6</ele>
        <time>2022-05-31T13:38:43Z</time>
      </trkpt>
      <trkpt lat="49.23588" lon="-0.25893">
        <ele>12.6</ele>
        <time>2022-05-31T13:38:44Z</time>
      </trkpt>
      <trkpt lat="49.2359" lon="-0.25894">
        <ele>12.7</ele>
        <time>2022-05-31T13:38:45Z</time>
      </trkpt>
      <trkpt lat="49.23592" lon="-0.25895">
        <ele>12.7</ele>
        <time>2022-05-31T13:38:46Z</time>
      </trkpt>
      <trkpt lat="49.23593" lon="-0.25896">
        <ele>12.7</ele>
        <time>2022-05-31T13:38:48Z</time>
      </trkpt>
      <trkpt lat="49.23595" lon="-0.25896">
        <ele>12.8</ele>
        <time>2022-05-31T13:38:49Z</time>
      </trkpt>
      <trkpt lat="49.23596" lon="-0.25897">
        <ele>12.8</ele>
        <time>2022-05-31T13:38:50Z</time>
      </trkpt>
      <trkpt lat="49.23598" lon="-0.25898">
        <ele>12.8</ele>
        <time>2022-05-31T13:38:51Z</time>
      </trkpt>
      <trkpt lat="49.23599" lon="-0.25899">
        <ele>12.9</ele>
        <time>2022-05-31T13:38:52Z</time>
      </trkpt>
      <trkpt lat="49.23601" lon="-0.259">
        <ele>12.9</ele>
        <time>2022-05-31T13:38:53Z</time>
      </trkpt>
      <trkpt lat="49.23602" lon="-0.25901">
        <ele>12.9</ele>
        <time>2022-05-31T13:38:54Z</time>
      </trkpt>
      <trkpt lat="49.23603" lon="-0.25901">
        <ele>12.9</ele>
        <time>2022-05-31T13:38:55Z</time>
      </trkpt>
      <trkpt lat="49.23604" lon="-0.25901">
        <ele>13</ele>
        <time>2022-05-31T13:38:56Z</time>
      </trkpt>
      <trkpt lat="49.23605" lon="-0.25902">
        <ele>13</ele>
        <time>2022-05-31T13:38:57Z</time>
      </trkpt>
      <trkpt lat="49.23607" lon="-0.25903">
        <ele>13</ele>
        <time>2022-05-31T13:38:59Z</time>
      </trkpt>
      <trkpt lat="49.23608" lon="-0.25904">
        <ele>13</ele>
        <time>2022-05-31T13:39:00Z</time>
      </trkpt>
      <trkpt lat="49.23609" lon="-0.25904">
        <ele>13</ele>
        <time>2022-05-31T13:39:01Z</time>
      </trkpt>
      <trkpt lat="49.2361" lon="-0.25906">
        <ele>13.1</ele>
        <time>2022-05-31T13:39:02Z</time>
      </trkpt>
      <trkpt lat="49.23611" lon="-0.25906">
        <ele>13.1</ele>
        <time>2022-05-31T13:39:03Z</time>
      </trkpt>
      <trkpt lat="49.23612" lon="-0.25907">
        <ele>13.1</ele>
        <time>2022-05-31T13:39:04Z</time>
      </trkpt>
      <trkpt lat="49.23614" lon="-0.25909">
        <ele>13.2</ele>
        <time>2022-05-31T13:39:05Z</time>
      </trkpt>
      <trkpt lat="49.23615" lon="-0.25909">
        <ele>13.2</ele>
        <time>2022-05-31T13:39:06Z</time>
      </trkpt>
      <trkpt lat="49.23616" lon="-0.2591">
        <ele>13.2</ele>
        <time>2022-05-31T13:39:07Z</time>
      </trkpt>
      <trkpt lat="49.23617" lon="-0.25911">
        <ele>13.2</ele>
        <time>2022-05-31T13:39:08Z</time>
      </trkpt>
      <trkpt lat="49.23619" lon="-0.25913">
        <ele>13.3</ele>
        <time>2022-05-31T13:39:10Z</time>
      </trkpt>
      <trkpt lat="49.2362" lon="-0.25913">
        <ele>13.3</ele>
        <time>2022-05-31T13:39:11Z</time>
      </trkpt>
      <trkpt lat="49.23621" lon="-0.25913">
        <ele>13.3</ele>
        <time>2022-05-31T13:39:12Z</time>
      </trkpt>
      <trkpt lat="49.23622" lon="-0.25913">
        <ele>13.4</ele>
        <time>2022-05-31T13:39:13Z</time>
      </trkpt>
      <trkpt lat="49.23624" lon="-0.25913">
        <ele>13.4</ele>
        <time>2022-05-31T13:39:14Z</time>
      </trkpt>
      <trkpt lat="49.23625" lon="-0.25914">
        <ele>13.4</ele>
        <time>2022-05-31T13:39:15Z</time>
      </trkpt>
      <trkpt lat="49.23625" lon="-0.25914">
        <ele>13.4</ele>
        <time>2022-05-31T13:39:16Z</time>
      </trkpt>
      <trkpt lat="49.23627" lon="-0.25916">
        <ele>13.5</ele>
        <time>2022-05-31T13:39:17Z</time>
      </trkpt>
      <trkpt lat="49.23628" lon="-0.25917">
        <ele>13.5</ele>
        <time>2022-05-31T13:39:19Z</time>
      </trkpt>
      <trkpt lat="49.23629" lon="-0.25917">
        <ele>13.5</ele>
        <time>2022-05-31T13:39:20Z</time>
      </trkpt>
      <trkpt lat="49.23629" lon="-0.25918">
        <ele>13.6</ele>
        <time>2022-05-31T13:39:21Z</time>
      </trkpt>
      <trkpt lat="49.2363" lon="-0.25919">
        <ele>13.6</ele>
        <time>2022-05-31T13:39:22Z</time>
      </trkpt>
      <trkpt lat="49.23631" lon="-0.2592">
        <ele>13.6</ele>
        <time>2022-05-31T13:39:23Z</time>
      </trkpt>
      <trkpt lat="49.23632" lon="-0.25922">
        <ele>13.6</ele>
        <time>2022-05-31T13:39:24Z</time>
      </trkpt>
      <trkpt lat="49.23634" lon="-0.25923">
        <ele>13.7</ele>
        <time>2022-05-31T13:39:25Z</time>
      </trkpt>
      <trkpt lat="49.23635" lon="-0.25924">
        <ele>13.7</ele>
        <time>2022-05-31T13:39:26Z</time>
      </trkpt>
      <trkpt lat="49.23636" lon="-0.25925">
        <ele>13.8</ele>
        <time>2022-05-31T13:39:27Z</time>
      </trkpt>
      <trkpt lat="49.23637" lon="-0.25926">
        <ele>13.8</ele>
        <time>2022-05-31T13:39:28Z</time>
      </trkpt>
      <trkpt lat="49.23639" lon="-0.25927">
        <ele>13.9</ele>
        <time>2022-05-31T13:39:29Z</time>
      </trkpt>
      <trkpt lat="49.23639" lon="-0.25928">
        <ele>13.9</ele>
        <time>2022-05-31T13:39:30Z</time>
      </trkpt>
      <trkpt lat="49.2364" lon="-0.25929">
        <ele>13.9</ele>
        <time>2022-05-31T13:39:31Z</time>
      </trkpt>
      <trkpt lat="49.23642" lon="-0.2593">
        <ele>14</ele>
        <time>2022-05-31T13:39:33Z</time>
      </trkpt>
      <trkpt lat="49.23643" lon="-0.25931">
        <ele>14</ele>
        <time>2022-05-31T13:39:34Z</time>
      </trkpt>
      <trkpt lat="49.23643" lon="-0.25931">
        <ele>14</ele>
        <time>2022-05-31T13:39:35Z</time>
      </trkpt>
      <trkpt lat="49.23645" lon="-0.25933">
        <ele>14.1</ele>
        <time>2022-05-31T13:39:36Z</time>
      </trkpt>
      <trkpt lat="49.23646" lon="-0.25933">
        <ele>14.1</ele>
        <time>2022-05-31T13:39:37Z</time>
      </trkpt>
      <trkpt lat="49.23647" lon="-0.25934">
        <ele>14.1</ele>
        <time>2022-05-31T13:39:38Z</time>
      </trkpt>
      <trkpt lat="49.23649" lon="-0.25934">
        <ele>14.2</ele>
        <time>2022-05-31T13:39:39Z</time>
      </trkpt>
      <trkpt lat="49.2365" lon="-0.25935">
        <ele>14.2</ele>
        <time>2022-05-31T13:39:40Z</time>
      </trkpt>
      <trkpt lat="49.23651" lon="-0.25935">
        <ele>14.2</ele>
        <time>2022-05-31T13:39:42Z</time>
      </trkpt>
      <trkpt lat="49.23652" lon="-0.25936">
        <ele>14.3</ele>
        <time>2022-05-31T13:39:43Z</time>
      </trkpt>
      <trkpt lat="49.23653" lon="-0.25937">
        <ele>14.3</ele>
        <time>2022-05-31T13:39:44Z</time>
      </trkpt>
      <trkpt lat="49.23655" lon="-0.25938">
        <ele>14.3</ele>
        <time>2022-05-31T13:39:45Z</time>
      </trkpt>
      <trkpt lat="49.23656" lon="-0.25939">
        <ele>14.4</ele>
        <time>2022-05-31T13:39:46Z</time>
      </trkpt>
      <trkpt lat="49.23657" lon="-0.25939">
        <ele>14.4</ele>
        <time>2022-05-31T13:39:47Z</time>
      </trkpt>
      <trkpt lat="49.23658" lon="-0.2594">
        <ele>14.4</ele>
        <time>2022-05-31T13:39:48Z</time>
      </trkpt>
      <trkpt lat="49.23659" lon="-0.2594">
        <ele>14.4</ele>
        <time>2022-05-31T13:39:49Z</time>
      </trkpt>
      <trkpt lat="49.23661" lon="-0.25942">
        <ele>14.5</ele>
        <time>2022-05-31T13:39:50Z</time>
      </trkpt>
      <trkpt lat="49.23661" lon="-0.25942">
        <ele>14.5</ele>
        <time>2022-05-31T13:39:51Z</time>
      </trkpt>
      <trkpt lat="49.23662" lon="-0.25942">
        <ele>14.5</ele>
        <time>2022-05-31T13:39:52Z</time>
      </trkpt>
      <trkpt lat="49.23663" lon="-0.25943">
        <ele>14.6</ele>
        <time>2022-05-31T13:39:54Z</time>
      </trkpt>
      <trkpt lat="49.23664" lon="-0.25944">
        <ele>14.6</ele>
        <time>2022-05-31T13:39:55Z</time>
      </trkpt>
      <trkpt lat="49.23665" lon="-0.25945">
        <ele>14.6</ele>
        <time>2022-05-31T13:39:56Z</time>
      </trkpt>
      <trkpt lat="49.23666" lon="-0.25945">
        <ele>14.6</ele>
        <time>2022-05-31T13:39:57Z</time>
      </trkpt>
      <trkpt lat="49.23666" lon="-0.25946">
        <ele>14.6</ele>
        <time>2022-05-31T13:39:58Z</time>
      </trkpt>
      <trkpt lat="49.23668" lon="-0.25947">
        <ele>14.7</ele>
        <time>2022-05-31T13:39:59Z</time>
      </trkpt>
      <trkpt lat="49.23669" lon="-0.25947">
        <ele>14.7</ele>
        <time>2022-05-31T13:40:00Z</time>
      </trkpt>
      <trkpt lat="49.2367" lon="-0.25948">
        <ele>14.7</ele>
        <time>2022-05-31T13:40:01Z</time>
      </trkpt>
      <trkpt lat="49.23671" lon="-0.25948">
        <ele>14.7</ele>
        <time>2022-05-31T13:40:03Z</time>
      </trkpt>
      <trkpt lat="49.23672" lon="-0.25949">
        <ele>14.8</ele>
        <time>2022-05-31T13:40:04Z</time>
      </trkpt>
      <trkpt lat="49.23673" lon="-0.25949">
        <ele>14.8</ele>
        <time>2022-05-31T13:40:05Z</time>
      </trkpt>
      <trkpt lat="49.23675" lon="-0.2595">
        <ele>14.8</ele>
        <time>2022-05-31T13:40:06Z</time>
      </trkpt>
      <trkpt lat="49.23676" lon="-0.25951">
        <ele>14.8</ele>
        <time>2022-05-31T13:40:07Z</time>
      </trkpt>
      <trkpt lat="49.23677" lon="-0.25952">
        <ele>14.8</ele>
        <time>2022-05-31T13:40:08Z</time>
      </trkpt>
      <trkpt lat="49.23678" lon="-0.25953">
        <ele>14.9</ele>
        <time>2022-05-31T13:40:09Z</time>
      </trkpt>
      <trkpt lat="49.23679" lon="-0.25953">
        <ele>14.9</ele>
        <time>2022-05-31T13:40:10Z</time>
      </trkpt>
      <trkpt lat="49.2368" lon="-0.25954">
        <ele>14.9</ele>
        <time>2022-05-31T13:40:11Z</time>
      </trkpt>
      <trkpt lat="49.23681" lon="-0.25955">
        <ele>14.9</ele>
        <time>2022-05-31T13:40:12Z</time>
      </trkpt>
      <trkpt lat="49.23682" lon="-0.25956">
        <ele>15</ele>
        <time>2022-05-31T13:40:14Z</time>
      </trkpt>
      <trkpt lat="49.23682" lon="-0.25957">
        <ele>15</ele>
        <time>2022-05-31T13:40:15Z</time>
      </trkpt>
      <trkpt lat="49.23684" lon="-0.25958">
        <ele>15</ele>
        <time>2022-05-31T13:40:16Z</time>
      </trkpt>
      <trkpt lat="49.23685" lon="-0.25959">
        <ele>15</ele>
        <time>2022-05-31T13:40:17Z</time>
      </trkpt>
      <trkpt lat="49.23686" lon="-0.2596">
        <ele>15.1</ele>
        <time>2022-05-31T13:40:18Z</time>
      </trkpt>
      <trkpt lat="49.23688" lon="-0.25962">
        <ele>15.1</ele>
        <time>2022-05-31T13:40:20Z</time>
      </trkpt>
      <trkpt lat="49.23688" lon="-0.25963">
        <ele>15.1</ele>
        <time>2022-05-31T13:40:21Z</time>
      </trkpt>
      <trkpt lat="49.2369" lon="-0.25966">
        <ele>15.2</ele>
        <time>2022-05-31T13:40:22Z</time>
      </trkpt>
      <trkpt lat="49.23691" lon="-0.25966">
        <ele>15.2</ele>
        <time>2022-05-31T13:40:23Z</time>
      </trkpt>
      <trkpt lat="49.23691" lon="-0.25967">
        <ele>15.2</ele>
        <time>2022-05-31T13:40:24Z</time>
      </trkpt>
      <trkpt lat="49.23693" lon="-0.25969">
        <ele>15.2</ele>
        <time>2022-05-31T13:40:26Z</time>
      </trkpt>
      <trkpt lat="49.23694" lon="-0.2597">
        <ele>15.3</ele>
        <time>2022-05-31T13:40:27Z</time>
      </trkpt>
      <trkpt lat="49.23695" lon="-0.2597">
        <ele>15.3</ele>
        <time>2022-05-31T13:40:28Z</time>
      </trkpt>
      <trkpt lat="49.23696" lon="-0.25971">
        <ele>15.3</ele>
        <time>2022-05-31T13:40:29Z</time>
      </trkpt>
      <trkpt lat="49.23697" lon="-0.25972">
        <ele>15.3</ele>
        <time>2022-05-31T13:40:31Z</time>
      </trkpt>
      <trkpt lat="49.23698" lon="-0.25973">
        <ele>15.4</ele>
        <time>2022-05-31T13:40:32Z</time>
      </trkpt>
      <trkpt lat="49.23698" lon="-0.25974">
        <ele>15.4</ele>
        <time>2022-05-31T13:40:33Z</time>
      </trkpt>
      <trkpt lat="49.23699" lon="-0.25975">
        <ele>15.4</ele>
        <time>2022-05-31T13:40:34Z</time>
      </trkpt>
      <trkpt lat="49.23701" lon="-0.25975">
        <ele>15.4</ele>
        <time>2022-05-31T13:40:35Z</time>
      </trkpt>
      <trkpt lat="49.23702" lon="-0.25976">
        <ele>15.4</ele>
        <time>2022-05-31T13:40:36Z</time>
      </trkpt>
      <trkpt lat="49.23703" lon="-0.25977">
        <ele>15.4</ele>
        <time>2022-05-31T13:40:37Z</time>
      </trkpt>
      <trkpt lat="49.23704" lon="-0.25978">
        <ele>15.5</ele>
        <time>2022-05-31T13:40:39Z</time>
      </trkpt>
      <trkpt lat="49.23706" lon="-0.25979">
        <ele>15.5</ele>
        <time>2022-05-31T13:40:40Z</time>
      </trkpt>
      <trkpt lat="49.23707" lon="-0.25979">
        <ele>15.5</ele>
        <time>2022-05-31T13:40:41Z</time>
      </trkpt>
      <trkpt lat="49.23707" lon="-0.25979">
        <ele>15.5</ele>
        <time>2022-05-31T13:40:42Z</time>
      </trkpt>
      <trkpt lat="49.2371" lon="-0.25981">
        <ele>15.6</ele>
        <time>2022-05-31T13:40:43Z</time>
      </trkpt>
      <trkpt lat="49.2371" lon="-0.25982">
        <ele>15.6</ele>
        <time>2022-05-31T13:40:44Z</time>
      </trkpt>
      <trkpt lat="49.23711" lon="-0.25983">
        <ele>15.6</ele>
        <time>2022-05-31T13:40:45Z</time>
      </trkpt>
      <trkpt lat="49.23712" lon="-0.25984">
        <ele>15.6</ele>
        <time>2022-05-31T13:40:46Z</time>
      </trkpt>
      <trkpt lat="49.23713" lon="-0.25985">
        <ele>15.6</ele>
        <time>2022-05-31T13:40:47Z</time>
      </trkpt>
      <trkpt lat="49.23714" lon="-0.25985">
        <ele>15.6</ele>
        <time>2022-05-31T13:40:48Z</time>
      </trkpt>
      <trkpt lat="49.23716" lon="-0.25987">
        <ele>15.6</ele>
        <time>2022-05-31T13:40:50Z</time>
      </trkpt>
      <trkpt lat="49.23717" lon="-0.25988">
        <ele>15.6</ele>
        <time>2022-05-31T13:40:51Z</time>
      </trkpt>
      <trkpt lat="49.23717" lon="-0.25988">
        <ele>15.6</ele>
        <time>2022-05-31T13:40:52Z</time>
      </trkpt>
      <trkpt lat="49.23719" lon="-0.25989">
        <ele>15.6</ele>
        <time>2022-05-31T13:40:53Z</time>
      </trkpt>
      <trkpt lat="49.2372" lon="-0.2599">
        <ele>15.6</ele>
        <time>2022-05-31T13:40:54Z</time>
      </trkpt>
      <trkpt lat="49.23722" lon="-0.25991">
        <ele>15.5</ele>
        <time>2022-05-31T13:40:55Z</time>
      </trkpt>
      <trkpt lat="49.23722" lon="-0.25992">
        <ele>15.5</ele>
        <time>2022-05-31T13:40:56Z</time>
      </trkpt>
      <trkpt lat="49.23723" lon="-0.25993">
        <ele>15.5</ele>
        <time>2022-05-31T13:40:58Z</time>
      </trkpt>
      <trkpt lat="49.23724" lon="-0.25994">
        <ele>15.5</ele>
        <time>2022-05-31T13:40:59Z</time>
      </trkpt>
      <trkpt lat="49.23725" lon="-0.25995">
        <ele>15.5</ele>
        <time>2022-05-31T13:41:00Z</time>
      </trkpt>
      <trkpt lat="49.23726" lon="-0.25997">
        <ele>15.5</ele>
        <time>2022-05-31T13:41:01Z</time>
      </trkpt>
      <trkpt lat="49.23727" lon="-0.25997">
        <ele>15.5</ele>
        <time>2022-05-31T13:41:02Z</time>
      </trkpt>
      <trkpt lat="49.23727" lon="-0.25998">
        <ele>15.5</ele>
        <time>2022-05-31T13:41:03Z</time>
      </trkpt>
      <trkpt lat="49.23729" lon="-0.26">
        <ele>15.4</ele>
        <time>2022-05-31T13:41:04Z</time>
      </trkpt>
      <trkpt lat="49.2373" lon="-0.26001">
        <ele>15.4</ele>
        <time>2022-05-31T13:41:05Z</time>
      </trkpt>
      <trkpt lat="49.23731" lon="-0.26002">
        <ele>15.4</ele>
        <time>2022-05-31T13:41:06Z</time>
      </trkpt>
      <trkpt lat="49.23732" lon="-0.26003">
        <ele>15.4</ele>
        <time>2022-05-31T13:41:07Z</time>
      </trkpt>
      <trkpt lat="49.23732" lon="-0.26004">
        <ele>15.4</ele>
        <time>2022-05-31T13:41:08Z</time>
      </trkpt>
      <trkpt lat="49.23733" lon="-0.26005">
        <ele>15.4</ele>
        <time>2022-05-31T13:41:10Z</time>
      </trkpt>
      <trkpt lat="49.23734" lon="-0.26006">
        <ele>15.4</ele>
        <time>2022-05-31T13:41:11Z</time>
      </trkpt>
      <trkpt lat="49.23734" lon="-0.26007">
        <ele>15.4</ele>
        <time>2022-05-31T13:41:12Z</time>
      </trkpt>
      <trkpt lat="49.23734" lon="-0.26006">
        <ele>15.4</ele>
        <time>2022-05-31T13:41:14Z</time>
      </trkpt>
      <trkpt lat="49.23734" lon="-0.26006">
        <ele>15.3</ele>
        <time>2022-05-31T13:41:15Z</time>
      </trkpt>
      <trkpt lat="49.23733" lon="-0.26005">
        <ele>15.3</ele>
        <time>2022-05-31T13:41:17Z</time>
      </trkpt>
      <trkpt lat="49.23733" lon="-0.26005">
        <ele>15.3</ele>
        <time>2022-05-31T13:41:18Z</time>
      </trkpt>
      <trkpt lat="49.23733" lon="-0.26006">
        <ele>15.3</ele>
        <time>2022-05-31T13:41:19Z</time>
      </trkpt>
      <trkpt lat="49.23732" lon="-0.26006">
        <ele>15.3</ele>
        <time>2022-05-31T13:41:20Z</time>
      </trkpt>
      <trkpt lat="49.23732" lon="-0.26006">
        <ele>15.3</ele>
        <time>2022-05-31T13:41:21Z</time>
      </trkpt>
      <trkpt lat="49.23732" lon="-0.26006">
        <ele>15.3</ele>
        <time>2022-05-31T13:41:22Z</time>
      </trkpt>
      <trkpt lat="49.23732" lon="-0.26006">
        <ele>15.3</ele>
        <time>2022-05-31T13:41:23Z</time>
      </trkpt>
      <trkpt lat="49.23732" lon="-0.26006">
        <ele>15.3</ele>
        <time>2022-05-31T13:41:24Z</time>
      </trkpt>
      <trkpt lat="49.23732" lon="-0.26006">
        <ele>15.3</ele>
        <time>2022-05-31T13:41:25Z</time>
      </trkpt>
      <trkpt lat="49.23732" lon="-0.26006">
        <ele>15.3</ele>
        <time>2022-05-31T13:41:26Z</time>
      </trkpt>
      <trkpt lat="49.23732" lon="-0.26006">
        <ele>15.3</ele>
        <time>2022-05-31T13:41:27Z</time>
      </trkpt>
      <trkpt lat="49.23732" lon="-0.26006">
        <ele>15.3</ele>
        <time>2022-05-31T13:41:28Z</time>
      </trkpt>
      <trkpt lat="49.23731" lon="-0.26006">
        <ele>15.3</ele>
        <time>2022-05-31T13:41:29Z</time>
      </trkpt>
      <trkpt lat="49.23731" lon="-0.26006">
        <ele>15.3</ele>
        <time>2022-05-31T13:41:30Z</time>
      </trkpt>
      <trkpt lat="49.23731" lon="-0.26005">
        <ele>15.3</ele>
        <time>2022-05-31T13:41:31Z</time>
      </trkpt>
      <trkpt lat="49.23731" lon="-0.26005">
        <ele>15.3</ele>
        <time>2022-05-31T13:41:32Z</time>
      </trkpt>
      <trkpt lat="49.23731" lon="-0.26005">
        <ele>15.3</ele>
        <time>2022-05-31T13:41:33Z</time>
      </trkpt>
      <trkpt lat="49.23731" lon="-0.26005">
        <ele>15.3</ele>
        <time>2022-05-31T13:41:34Z</time>
      </trkpt>
      <trkpt lat="49.23731" lon="-0.26005">
        <ele>15.3</ele>
        <time>2022-05-31T13:41:35Z</time>
      </trkpt>
      <trkpt lat="49.23731" lon="-0.26005">
        <ele>15.3</ele>
        <time>2022-05-31T13:41:36Z</time>
      </trkpt>
      <trkpt lat="49.23731" lon="-0.26005">
        <ele>15.3</ele>
        <time>2022-05-31T13:41:37Z</time>
      </trkpt>
      <trkpt lat="49.23731" lon="-0.26005">
        <ele>15.3</ele>
        <time>2022-05-31T13:41:38Z</time>
      </trkpt>
      <trkpt lat="49.23731" lon="-0.26005">
        <ele>15.3</ele>
        <time>2022-05-31T13:41:39Z</time>
      </trkpt>
      <trkpt lat="49.23731" lon="-0.26005">
        <ele>15.3</ele>
        <time>2022-05-31T13:41:40Z</time>
      </trkpt>
      <trkpt lat="49.23731" lon="-0.26005">
        <ele>15.3</ele>
        <time>2022-05-31T13:41:41Z</time>
      </trkpt>
      <trkpt lat="49.23731" lon="-0.26005">
        <ele>15.3</ele>
        <time>2022-05-31T13:41:42Z</time>
      </trkpt>
      <trkpt lat="49.23731" lon="-0.26005">
        <ele>15.3</ele>
        <time>2022-05-31T13:41:43Z</time>
      </trkpt>
      <trkpt lat="49.23731" lon="-0.26005">
        <ele>15.3</ele>
        <time>2022-05-31T13:41:44Z</time>
      </trkpt>
      <trkpt lat="49.23731" lon="-0.26005">
        <ele>15.3</ele>
        <time>2022-05-31T13:41:45Z</time>
      </trkpt>
      <trkpt lat="49.23731" lon="-0.26005">
        <ele>15.3</ele>
        <time>2022-05-31T13:41:46Z</time>
      </trkpt>
      <trkpt lat="49.23731" lon="-0.26005">
        <ele>15.3</ele>
        <time>2022-05-31T13:41:47Z</time>
      </trkpt>
      <trkpt lat="49.23731" lon="-0.26005">
        <ele>15.3</ele>
        <time>2022-05-31T13:41:48Z</time>
      </trkpt>
      <trkpt lat="49.23731" lon="-0.26005">
        <ele>15.3</ele>
        <time>2022-05-31T13:41:49Z</time>
      </trkpt>
      <trkpt lat="49.23731" lon="-0.26005">
        <ele>15.3</ele>
        <time>2022-05-31T13:41:50Z</time>
      </trkpt>
      <trkpt lat="49.23731" lon="-0.26005">
        <ele>15.3</ele>
        <time>2022-05-31T13:41:51Z</time>
      </trkpt>
      <trkpt lat="49.23731" lon="-0.26005">
        <ele>15.3</ele>
        <time>2022-05-31T13:41:52Z</time>
      </trkpt>
      <trkpt lat="49.23731" lon="-0.26005">
        <ele>15.3</ele>
        <time>2022-05-31T13:41:53Z</time>
      </trkpt>
      <trkpt lat="49.23731" lon="-0.26005">
        <ele>15.3</ele>
        <time>2022-05-31T13:41:54Z</time>
      </trkpt>
      <trkpt lat="49.23731" lon="-0.26005">
        <ele>15.3</ele>
        <time>2022-05-31T13:41:55Z</time>
      </trkpt>
      <trkpt lat="49.23731" lon="-0.26005">
        <ele>15.3</ele>
        <time>2022-05-31T13:41:56Z</time>
      </trkpt>
      <trkpt lat="49.23731" lon="-0.26005">
        <ele>15.3</ele>
        <time>2022-05-31T13:41:57Z</time>
      </trkpt>
      <trkpt lat="49.23731" lon="-0.26005">
        <ele>15.3</ele>
        <time>2022-05-31T13:41:58Z</time>
      </trkpt>
      <trkpt lat="49.2373" lon="-0.26004">
        <ele>15.3</ele>
        <time>2022-05-31T13:41:59Z</time>
      </trkpt>
      <trkpt lat="49.23729" lon="-0.26003">
        <ele>15.3</ele>
        <time>2022-05-31T13:42:00Z</time>
      </trkpt>
      <trkpt lat="49.23729" lon="-0.26003">
        <ele>15.3</ele>
        <time>2022-05-31T13:42:01Z</time>
      </trkpt>
      <trkpt lat="49.2373" lon="-0.26003">
        <ele>15.3</ele>
        <time>2022-05-31T13:42:02Z</time>
      </trkpt>
      <trkpt lat="49.23731" lon="-0.26004">
        <ele>15.2</ele>
        <time>2022-05-31T13:42:03Z</time>
      </trkpt>
      <trkpt lat="49.23731" lon="-0.26005">
        <ele>15.2</ele>
        <time>2022-05-31T13:42:04Z</time>
      </trkpt>
      <trkpt lat="49.23733" lon="-0.26005">
        <ele>15.2</ele>
        <time>2022-05-31T13:42:06Z</time>
      </trkpt>
      <trkpt lat="49.23733" lon="-0.26006">
        <ele>15.2</ele>
        <time>2022-05-31T13:42:07Z</time>
      </trkpt>
      <trkpt lat="49.23733" lon="-0.26007">
        <ele>15.2</ele>
        <time>2022-05-31T13:42:08Z</time>
      </trkpt>
      <trkpt lat="49.23734" lon="-0.26009">
        <ele>15.2</ele>
        <time>2022-05-31T13:42:09Z</time>
      </trkpt>
      <trkpt lat="49.23735" lon="-0.26011">
        <ele>15.1</ele>
        <time>2022-05-31T13:42:10Z</time>
      </trkpt>
      <trkpt lat="49.23736" lon="-0.26012">
        <ele>15.1</ele>
        <time>2022-05-31T13:42:11Z</time>
      </trkpt>
      <trkpt lat="49.23737" lon="-0.26013">
        <ele>15.1</ele>
        <time>2022-05-31T13:42:13Z</time>
      </trkpt>
      <trkpt lat="49.23738" lon="-0.26013">
        <ele>15.1</ele>
        <time>2022-05-31T13:42:14Z</time>
      </trkpt>
      <trkpt lat="49.23739" lon="-0.26012">
        <ele>15.1</ele>
        <time>2022-05-31T13:42:15Z</time>
      </trkpt>
      <trkpt lat="49.23739" lon="-0.26012">
        <ele>15</ele>
        <time>2022-05-31T13:42:16Z</time>
      </trkpt>
      <trkpt lat="49.23738" lon="-0.26012">
        <ele>15</ele>
        <time>2022-05-31T13:42:17Z</time>
      </trkpt>
      <trkpt lat="49.23738" lon="-0.26012">
        <ele>15</ele>
        <time>2022-05-31T13:42:18Z</time>
      </trkpt>
      <trkpt lat="49.23737" lon="-0.26012">
        <ele>15</ele>
        <time>2022-05-31T13:42:19Z</time>
      </trkpt>
      <trkpt lat="49.23737" lon="-0.26012">
        <ele>15</ele>
        <time>2022-05-31T13:42:20Z</time>
      </trkpt>
      <trkpt lat="49.23738" lon="-0.26013">
        <ele>15</ele>
        <time>2022-05-31T13:42:21Z</time>
      </trkpt>
      <trkpt lat="49.23738" lon="-0.26013">
        <ele>15</ele>
        <time>2022-05-31T13:42:23Z</time>
      </trkpt>
      <trkpt lat="49.23738" lon="-0.26014">
        <ele>15</ele>
        <time>2022-05-31T13:42:24Z</time>
      </trkpt>
      <trkpt lat="49.23739" lon="-0.26015">
        <ele>15</ele>
        <time>2022-05-31T13:42:25Z</time>
      </trkpt>
      <trkpt lat="49.2374" lon="-0.26018">
        <ele>14.9</ele>
        <time>2022-05-31T13:42:26Z</time>
      </trkpt>
      <trkpt lat="49.23741" lon="-0.26019">
        <ele>14.9</ele>
        <time>2022-05-31T13:42:27Z</time>
      </trkpt>
      <trkpt lat="49.23741" lon="-0.2602">
        <ele>14.9</ele>
        <time>2022-05-31T13:42:28Z</time>
      </trkpt>
      <trkpt lat="49.23743" lon="-0.26024">
        <ele>14.8</ele>
        <time>2022-05-31T13:42:29Z</time>
      </trkpt>
      <trkpt lat="49.23743" lon="-0.26024">
        <ele>14.8</ele>
        <time>2022-05-31T13:42:30Z</time>
      </trkpt>
      <trkpt lat="49.23745" lon="-0.26028">
        <ele>14.8</ele>
        <time>2022-05-31T13:42:31Z</time>
      </trkpt>
      <trkpt lat="49.23746" lon="-0.26029">
        <ele>14.7</ele>
        <time>2022-05-31T13:42:33Z</time>
      </trkpt>
      <trkpt lat="49.23746" lon="-0.2603">
        <ele>14.7</ele>
        <time>2022-05-31T13:42:34Z</time>
      </trkpt>
      <trkpt lat="49.23747" lon="-0.26031">
        <ele>14.7</ele>
        <time>2022-05-31T13:42:35Z</time>
      </trkpt>
      <trkpt lat="49.23748" lon="-0.26033">
        <ele>14.7</ele>
        <time>2022-05-31T13:42:36Z</time>
      </trkpt>
      <trkpt lat="49.23749" lon="-0.26033">
        <ele>14.7</ele>
        <time>2022-05-31T13:42:37Z</time>
      </trkpt>
      <trkpt lat="49.23749" lon="-0.26034">
        <ele>14.6</ele>
        <time>2022-05-31T13:42:39Z</time>
      </trkpt>
      <trkpt lat="49.23749" lon="-0.26034">
        <ele>14.6</ele>
        <time>2022-05-31T13:42:40Z</time>
      </trkpt>
      <trkpt lat="49.23751" lon="-0.26037">
        <ele>14.6</ele>
        <time>2022-05-31T13:42:41Z</time>
      </trkpt>
      <trkpt lat="49.23751" lon="-0.26038">
        <ele>14.6</ele>
        <time>2022-05-31T13:42:42Z</time>
      </trkpt>
      <trkpt lat="49.23752" lon="-0.26039">
        <ele>14.5</ele>
        <time>2022-05-31T13:42:43Z</time>
      </trkpt>
      <trkpt lat="49.23753" lon="-0.26041">
        <ele>14.5</ele>
        <time>2022-05-31T13:42:44Z</time>
      </trkpt>
      <trkpt lat="49.23754" lon="-0.26042">
        <ele>14.5</ele>
        <time>2022-05-31T13:42:45Z</time>
      </trkpt>
      <trkpt lat="49.23755" lon="-0.26044">
        <ele>14.5</ele>
        <time>2022-05-31T13:42:46Z</time>
      </trkpt>
      <trkpt lat="49.23757" lon="-0.26046">
        <ele>14.4</ele>
        <time>2022-05-31T13:42:48Z</time>
      </trkpt>
      <trkpt lat="49.23758" lon="-0.26048">
        <ele>14.4</ele>
        <time>2022-05-31T13:42:49Z</time>
      </trkpt>
      <trkpt lat="49.23759" lon="-0.2605">
        <ele>14.3</ele>
        <time>2022-05-31T13:42:50Z</time>
      </trkpt>
      <trkpt lat="49.23759" lon="-0.26053">
        <ele>14.3</ele>
        <time>2022-05-31T13:42:51Z</time>
      </trkpt>
      <trkpt lat="49.2376" lon="-0.26055">
        <ele>14.3</ele>
        <time>2022-05-31T13:42:52Z</time>
      </trkpt>
      <trkpt lat="49.23761" lon="-0.26057">
        <ele>14.2</ele>
        <time>2022-05-31T13:42:53Z</time>
      </trkpt>
      <trkpt lat="49.23761" lon="-0.26058">
        <ele>14.2</ele>
        <time>2022-05-31T13:42:55Z</time>
      </trkpt>
      <trkpt lat="49.23762" lon="-0.2606">
        <ele>14.2</ele>
        <time>2022-05-31T13:42:56Z</time>
      </trkpt>
      <trkpt lat="49.23764" lon="-0.26062">
        <ele>14.1</ele>
        <time>2022-05-31T13:42:57Z</time>
      </trkpt>
      <trkpt lat="49.23765" lon="-0.26064">
        <ele>14.1</ele>
        <time>2022-05-31T13:42:58Z</time>
      </trkpt>
      <trkpt lat="49.23765" lon="-0.26066">
        <ele>14.1</ele>
        <time>2022-05-31T13:43:00Z</time>
      </trkpt>
      <trkpt lat="49.23766" lon="-0.26067">
        <ele>14</ele>
        <time>2022-05-31T13:43:01Z</time>
      </trkpt>
      <trkpt lat="49.23767" lon="-0.26069">
        <ele>14</ele>
        <time>2022-05-31T13:43:02Z</time>
      </trkpt>
      <trkpt lat="49.23769" lon="-0.26071">
        <ele>14</ele>
        <time>2022-05-31T13:43:03Z</time>
      </trkpt>
      <trkpt lat="49.23769" lon="-0.26072">
        <ele>13.9</ele>
        <time>2022-05-31T13:43:04Z</time>
      </trkpt>
      <trkpt lat="49.2377" lon="-0.26073">
        <ele>13.9</ele>
        <time>2022-05-31T13:43:05Z</time>
      </trkpt>
      <trkpt lat="49.23771" lon="-0.26075">
        <ele>13.9</ele>
        <time>2022-05-31T13:43:06Z</time>
      </trkpt>
      <trkpt lat="49.23772" lon="-0.26077">
        <ele>13.9</ele>
        <time>2022-05-31T13:43:07Z</time>
      </trkpt>
      <trkpt lat="49.23774" lon="-0.26079">
        <ele>13.8</ele>
        <time>2022-05-31T13:43:08Z</time>
      </trkpt>
      <trkpt lat="49.23774" lon="-0.26079">
        <ele>13.8</ele>
        <time>2022-05-31T13:43:09Z</time>
      </trkpt>
      <trkpt lat="49.23775" lon="-0.2608">
        <ele>13.8</ele>
        <time>2022-05-31T13:43:10Z</time>
      </trkpt>
      <trkpt lat="49.23776" lon="-0.26081">
        <ele>13.8</ele>
        <time>2022-05-31T13:43:11Z</time>
      </trkpt>
      <trkpt lat="49.23776" lon="-0.26083">
        <ele>13.7</ele>
        <time>2022-05-31T13:43:13Z</time>
      </trkpt>
      <trkpt lat="49.23777" lon="-0.26084">
        <ele>13.7</ele>
        <time>2022-05-31T13:43:14Z</time>
      </trkpt>
      <trkpt lat="49.23778" lon="-0.26084">
        <ele>13.7</ele>
        <time>2022-05-31T13:43:15Z</time>
      </trkpt>
      <trkpt lat="49.23778" lon="-0.26085">
        <ele>13.7</ele>
        <time>2022-05-31T13:43:16Z</time>
      </trkpt>
      <trkpt lat="49.23779" lon="-0.26087">
        <ele>13.6</ele>
        <time>2022-05-31T13:43:17Z</time>
      </trkpt>
      <trkpt lat="49.2378" lon="-0.26089">
        <ele>13.6</ele>
        <time>2022-05-31T13:43:18Z</time>
      </trkpt>
      <trkpt lat="49.23781" lon="-0.26089">
        <ele>13.6</ele>
        <time>2022-05-31T13:43:19Z</time>
      </trkpt>
      <trkpt lat="49.23781" lon="-0.2609">
        <ele>13.6</ele>
        <time>2022-05-31T13:43:20Z</time>
      </trkpt>
      <trkpt lat="49.23782" lon="-0.26091">
        <ele>13.6</ele>
        <time>2022-05-31T13:43:22Z</time>
      </trkpt>
      <trkpt lat="49.23782" lon="-0.26092">
        <ele>13.5</ele>
        <time>2022-05-31T13:43:23Z</time>
      </trkpt>
      <trkpt lat="49.23783" lon="-0.26093">
        <ele>13.5</ele>
        <time>2022-05-31T13:43:24Z</time>
      </trkpt>
      <trkpt lat="49.23783" lon="-0.26094">
        <ele>13.5</ele>
        <time>2022-05-31T13:43:25Z</time>
      </trkpt>
      <trkpt lat="49.23785" lon="-0.26095">
        <ele>13.4</ele>
        <time>2022-05-31T13:43:26Z</time>
      </trkpt>
      <trkpt lat="49.23786" lon="-0.26096">
        <ele>13.4</ele>
        <time>2022-05-31T13:43:27Z</time>
      </trkpt>
      <trkpt lat="49.23786" lon="-0.26097">
        <ele>13.4</ele>
        <time>2022-05-31T13:43:28Z</time>
      </trkpt>
      <trkpt lat="49.23787" lon="-0.26097">
        <ele>13.3</ele>
        <time>2022-05-31T13:43:29Z</time>
      </trkpt>
      <trkpt lat="49.23789" lon="-0.26099">
        <ele>13.3</ele>
        <time>2022-05-31T13:43:30Z</time>
      </trkpt>
      <trkpt lat="49.2379" lon="-0.261">
        <ele>13.2</ele>
        <time>2022-05-31T13:43:31Z</time>
      </trkpt>
      <trkpt lat="49.23791" lon="-0.26101">
        <ele>13.2</ele>
        <time>2022-05-31T13:43:32Z</time>
      </trkpt>
      <trkpt lat="49.23792" lon="-0.26102">
        <ele>13.1</ele>
        <time>2022-05-31T13:43:33Z</time>
      </trkpt>
      <trkpt lat="49.23793" lon="-0.26103">
        <ele>13.1</ele>
        <time>2022-05-31T13:43:35Z</time>
      </trkpt>
      <trkpt lat="49.23794" lon="-0.26105">
        <ele>13</ele>
        <time>2022-05-31T13:43:36Z</time>
      </trkpt>
      <trkpt lat="49.23796" lon="-0.26106">
        <ele>13</ele>
        <time>2022-05-31T13:43:37Z</time>
      </trkpt>
      <trkpt lat="49.23797" lon="-0.26107">
        <ele>12.9</ele>
        <time>2022-05-31T13:43:38Z</time>
      </trkpt>
      <trkpt lat="49.23798" lon="-0.26109">
        <ele>12.9</ele>
        <time>2022-05-31T13:43:39Z</time>
      </trkpt>
      <trkpt lat="49.238" lon="-0.26111">
        <ele>12.8</ele>
        <time>2022-05-31T13:43:40Z</time>
      </trkpt>
      <trkpt lat="49.23801" lon="-0.26112">
        <ele>12.8</ele>
        <time>2022-05-31T13:43:41Z</time>
      </trkpt>
      <trkpt lat="49.23801" lon="-0.26113">
        <ele>12.8</ele>
        <time>2022-05-31T13:43:42Z</time>
      </trkpt>
      <trkpt lat="49.23803" lon="-0.26115">
        <ele>12.7</ele>
        <time>2022-05-31T13:43:44Z</time>
      </trkpt>
      <trkpt lat="49.23804" lon="-0.26116">
        <ele>12.7</ele>
        <time>2022-05-31T13:43:45Z</time>
      </trkpt>
      <trkpt lat="49.23805" lon="-0.26117">
        <ele>12.6</ele>
        <time>2022-05-31T13:43:46Z</time>
      </trkpt>
      <trkpt lat="49.23806" lon="-0.26118">
        <ele>12.6</ele>
        <time>2022-05-31T13:43:47Z</time>
      </trkpt>
      <trkpt lat="49.23807" lon="-0.26119">
        <ele>12.5</ele>
        <time>2022-05-31T13:43:48Z</time>
      </trkpt>
      <trkpt lat="49.23809" lon="-0.2612">
        <ele>12.5</ele>
        <time>2022-05-31T13:43:49Z</time>
      </trkpt>
      <trkpt lat="49.2381" lon="-0.2612">
        <ele>12.4</ele>
        <time>2022-05-31T13:43:50Z</time>
      </trkpt>
      <trkpt lat="49.23811" lon="-0.2612">
        <ele>12.4</ele>
        <time>2022-05-31T13:43:52Z</time>
      </trkpt>
      <trkpt lat="49.23812" lon="-0.2612">
        <ele>12.4</ele>
        <time>2022-05-31T13:43:53Z</time>
      </trkpt>
      <trkpt lat="49.23813" lon="-0.26123">
        <ele>12.3</ele>
        <time>2022-05-31T13:43:55Z</time>
      </trkpt>
      <trkpt lat="49.23813" lon="-0.26128">
        <ele>12.3</ele>
        <time>2022-05-31T13:43:56Z</time>
      </trkpt>
      <trkpt lat="49.23813" lon="-0.2613">
        <ele>12.2</ele>
        <time>2022-05-31T13:43:57Z</time>
      </trkpt>
      <trkpt lat="49.23813" lon="-0.26132">
        <ele>12.2</ele>
        <time>2022-05-31T13:43:58Z</time>
      </trkpt>
      <trkpt lat="49.23813" lon="-0.26134">
        <ele>12.2</ele>
        <time>2022-05-31T13:44:00Z</time>
      </trkpt>
      <trkpt lat="49.23812" lon="-0.26136">
        <ele>12.2</ele>
        <time>2022-05-31T13:44:01Z</time>
      </trkpt>
      <trkpt lat="49.23812" lon="-0.26138">
        <ele>12.2</ele>
        <time>2022-05-31T13:44:02Z</time>
      </trkpt>
      <trkpt lat="49.23812" lon="-0.2614">
        <ele>12.2</ele>
        <time>2022-05-31T13:44:03Z</time>
      </trkpt>
      <trkpt lat="49.23812" lon="-0.26142">
        <ele>12.2</ele>
        <time>2022-05-31T13:44:04Z</time>
      </trkpt>
      <trkpt lat="49.23812" lon="-0.26144">
        <ele>12.3</ele>
        <time>2022-05-31T13:44:05Z</time>
      </trkpt>
      <trkpt lat="49.23813" lon="-0.26145">
        <ele>12.3</ele>
        <time>2022-05-31T13:44:06Z</time>
      </trkpt>
      <trkpt lat="49.23813" lon="-0.26146">
        <ele>12.3</ele>
        <time>2022-05-31T13:44:08Z</time>
      </trkpt>
      <trkpt lat="49.23813" lon="-0.26147">
        <ele>12.3</ele>
        <time>2022-05-31T13:44:09Z</time>
      </trkpt>
      <trkpt lat="49.23813" lon="-0.26148">
        <ele>12.3</ele>
        <time>2022-05-31T13:44:10Z</time>
      </trkpt>
      <trkpt lat="49.23813" lon="-0.26149">
        <ele>12.3</ele>
        <time>2022-05-31T13:44:11Z</time>
      </trkpt>
      <trkpt lat="49.23812" lon="-0.2615">
        <ele>12.3</ele>
        <time>2022-05-31T13:44:12Z</time>
      </trkpt>
      <trkpt lat="49.23812" lon="-0.26151">
        <ele>12.3</ele>
        <time>2022-05-31T13:44:13Z</time>
      </trkpt>
      <trkpt lat="49.23812" lon="-0.26152">
        <ele>12.3</ele>
        <time>2022-05-31T13:44:14Z</time>
      </trkpt>
      <trkpt lat="49.23812" lon="-0.26152">
        <ele>12.3</ele>
        <time>2022-05-31T13:44:15Z</time>
      </trkpt>
      <trkpt lat="49.23811" lon="-0.26153">
        <ele>12.3</ele>
        <time>2022-05-31T13:44:16Z</time>
      </trkpt>
      <trkpt lat="49.2381" lon="-0.26154">
        <ele>12.4</ele>
        <time>2022-05-31T13:44:18Z</time>
      </trkpt>
      <trkpt lat="49.23809" lon="-0.26153">
        <ele>12.4</ele>
        <time>2022-05-31T13:44:19Z</time>
      </trkpt>
      <trkpt lat="49.23808" lon="-0.26153">
        <ele>12.4</ele>
        <time>2022-05-31T13:44:20Z</time>
      </trkpt>
      <trkpt lat="49.23807" lon="-0.26153">
        <ele>12.4</ele>
        <time>2022-05-31T13:44:21Z</time>
      </trkpt>
      <trkpt lat="49.23806" lon="-0.26153">
        <ele>12.4</ele>
        <time>2022-05-31T13:44:22Z</time>
      </trkpt>
      <trkpt lat="49.23804" lon="-0.26153">
        <ele>12.4</ele>
        <time>2022-05-31T13:44:23Z</time>
      </trkpt>
      <trkpt lat="49.23803" lon="-0.26153">
        <ele>12.4</ele>
        <time>2022-05-31T13:44:25Z</time>
      </trkpt>
      <trkpt lat="49.23801" lon="-0.26152">
        <ele>12.5</ele>
        <time>2022-05-31T13:44:26Z</time>
      </trkpt>
      <trkpt lat="49.23801" lon="-0.26151">
        <ele>12.5</ele>
        <time>2022-05-31T13:44:27Z</time>
      </trkpt>
      <trkpt lat="49.238" lon="-0.2615">
        <ele>12.5</ele>
        <time>2022-05-31T13:44:29Z</time>
      </trkpt>
      <trkpt lat="49.23799" lon="-0.26149">
        <ele>12.5</ele>
        <time>2022-05-31T13:44:30Z</time>
      </trkpt>
      <trkpt lat="49.23799" lon="-0.26148">
        <ele>12.5</ele>
        <time>2022-05-31T13:44:31Z</time>
      </trkpt>
      <trkpt lat="49.23797" lon="-0.26146">
        <ele>12.5</ele>
        <time>2022-05-31T13:44:32Z</time>
      </trkpt>
      <trkpt lat="49.23796" lon="-0.26144">
        <ele>12.6</ele>
        <time>2022-05-31T13:44:34Z</time>
      </trkpt>
      <trkpt lat="49.23795" lon="-0.26142">
        <ele>12.6</ele>
        <time>2022-05-31T13:44:35Z</time>
      </trkpt>
      <trkpt lat="49.23794" lon="-0.2614">
        <ele>12.6</ele>
        <time>2022-05-31T13:44:36Z</time>
      </trkpt>
      <trkpt lat="49.23792" lon="-0.26137">
        <ele>12.6</ele>
        <time>2022-05-31T13:44:37Z</time>
      </trkpt>
      <trkpt lat="49.23791" lon="-0.26136">
        <ele>12.6</ele>
        <time>2022-05-31T13:44:38Z</time>
      </trkpt>
      <trkpt lat="49.2379" lon="-0.26134">
        <ele>12.6</ele>
        <time>2022-05-31T13:44:40Z</time>
      </trkpt>
      <trkpt lat="49.2379" lon="-0.26133">
        <ele>12.6</ele>
        <time>2022-05-31T13:44:41Z</time>
      </trkpt>
      <trkpt lat="49.23788" lon="-0.26131">
        <ele>12.7</ele>
        <time>2022-05-31T13:44:42Z</time>
      </trkpt>
      <trkpt lat="49.23787" lon="-0.26131">
        <ele>12.7</ele>
        <time>2022-05-31T13:44:43Z</time>
      </trkpt>
      <trkpt lat="49.23785" lon="-0.2613">
        <ele>12.7</ele>
        <time>2022-05-31T13:44:44Z</time>
      </trkpt>
      <trkpt lat="49.23784" lon="-0.26129">
        <ele>12.7</ele>
        <time>2022-05-31T13:44:45Z</time>
      </trkpt>
      <trkpt lat="49.23783" lon="-0.26129">
        <ele>12.7</ele>
        <time>2022-05-31T13:44:46Z</time>
      </trkpt>
      <trkpt lat="49.23782" lon="-0.26127">
        <ele>12.7</ele>
        <time>2022-05-31T13:44:47Z</time>
      </trkpt>
      <trkpt lat="49.23781" lon="-0.26127">
        <ele>12.7</ele>
        <time>2022-05-31T13:44:49Z</time>
      </trkpt>
      <trkpt lat="49.2378" lon="-0.26127">
        <ele>12.7</ele>
        <time>2022-05-31T13:44:50Z</time>
      </trkpt>
      <trkpt lat="49.2378" lon="-0.26127">
        <ele>12.7</ele>
        <time>2022-05-31T13:44:51Z</time>
      </trkpt>
      <trkpt lat="49.23778" lon="-0.26126">
        <ele>12.7</ele>
        <time>2022-05-31T13:44:52Z</time>
      </trkpt>
      <trkpt lat="49.23778" lon="-0.26125">
        <ele>12.7</ele>
        <time>2022-05-31T13:44:53Z</time>
      </trkpt>
      <trkpt lat="49.23777" lon="-0.26124">
        <ele>12.7</ele>
        <time>2022-05-31T13:44:55Z</time>
      </trkpt>
      <trkpt lat="49.23777" lon="-0.26124">
        <ele>12.7</ele>
        <time>2022-05-31T13:44:56Z</time>
      </trkpt>
      <trkpt lat="49.23776" lon="-0.26124">
        <ele>12.7</ele>
        <time>2022-05-31T13:44:57Z</time>
      </trkpt>
      <trkpt lat="49.23775" lon="-0.26124">
        <ele>12.7</ele>
        <time>2022-05-31T13:44:58Z</time>
      </trkpt>
      <trkpt lat="49.23775" lon="-0.26124">
        <ele>12.7</ele>
        <time>2022-05-31T13:44:59Z</time>
      </trkpt>
      <trkpt lat="49.23774" lon="-0.26124">
        <ele>12.7</ele>
        <time>2022-05-31T13:45:00Z</time>
      </trkpt>
      <trkpt lat="49.23774" lon="-0.26124">
        <ele>12.7</ele>
        <time>2022-05-31T13:45:01Z</time>
      </trkpt>
      <trkpt lat="49.23774" lon="-0.26124">
        <ele>12.7</ele>
        <time>2022-05-31T13:45:02Z</time>
      </trkpt>
      <trkpt lat="49.23774" lon="-0.26126">
        <ele>12.7</ele>
        <time>2022-05-31T13:45:03Z</time>
      </trkpt>
      <trkpt lat="49.23775" lon="-0.26127">
        <ele>12.7</ele>
        <time>2022-05-31T13:45:04Z</time>
      </trkpt>
      <trkpt lat="49.23775" lon="-0.26128">
        <ele>12.7</ele>
        <time>2022-05-31T13:45:05Z</time>
      </trkpt>
      <trkpt lat="49.23776" lon="-0.26128">
        <ele>12.7</ele>
        <time>2022-05-31T13:45:06Z</time>
      </trkpt>
      <trkpt lat="49.23777" lon="-0.26129">
        <ele>12.7</ele>
        <time>2022-05-31T13:45:07Z</time>
      </trkpt>
      <trkpt lat="49.23778" lon="-0.2613">
        <ele>12.7</ele>
        <time>2022-05-31T13:45:08Z</time>
      </trkpt>
      <trkpt lat="49.23778" lon="-0.2613">
        <ele>12.7</ele>
        <time>2022-05-31T13:45:09Z</time>
      </trkpt>
      <trkpt lat="49.23778" lon="-0.26131">
        <ele>12.7</ele>
        <time>2022-05-31T13:45:10Z</time>
      </trkpt>
      <trkpt lat="49.23778" lon="-0.26131">
        <ele>12.7</ele>
        <time>2022-05-31T13:45:11Z</time>
      </trkpt>
      <trkpt lat="49.23778" lon="-0.26131">
        <ele>12.7</ele>
        <time>2022-05-31T13:45:12Z</time>
      </trkpt>
      <trkpt lat="49.23779" lon="-0.26132">
        <ele>12.7</ele>
        <time>2022-05-31T13:45:13Z</time>
      </trkpt>
      <trkpt lat="49.23779" lon="-0.26131">
        <ele>12.7</ele>
        <time>2022-05-31T13:45:14Z</time>
      </trkpt>
      <trkpt lat="49.23779" lon="-0.26131">
        <ele>12.7</ele>
        <time>2022-05-31T13:45:15Z</time>
      </trkpt>
      <trkpt lat="49.23779" lon="-0.26131">
        <ele>12.7</ele>
        <time>2022-05-31T13:45:17Z</time>
      </trkpt>
      <trkpt lat="49.23779" lon="-0.26131">
        <ele>12.7</ele>
        <time>2022-05-31T13:45:18Z</time>
      </trkpt>
      <trkpt lat="49.23779" lon="-0.26131">
        <ele>12.7</ele>
        <time>2022-05-31T13:45:19Z</time>
      </trkpt>
      <trkpt lat="49.23779" lon="-0.26131">
        <ele>12.7</ele>
        <time>2022-05-31T13:45:20Z</time>
      </trkpt>
      <trkpt lat="49.23779" lon="-0.2613">
        <ele>12.7</ele>
        <time>2022-05-31T13:45:21Z</time>
      </trkpt>
      <trkpt lat="49.23779" lon="-0.26129">
        <ele>12.7</ele>
        <time>2022-05-31T13:45:22Z</time>
      </trkpt>
      <trkpt lat="49.23779" lon="-0.26129">
        <ele>12.7</ele>
        <time>2022-05-31T13:45:23Z</time>
      </trkpt>
      <trkpt lat="49.23779" lon="-0.26128">
        <ele>12.7</ele>
        <time>2022-05-31T13:45:24Z</time>
      </trkpt>
      <trkpt lat="49.23779" lon="-0.26128">
        <ele>12.7</ele>
        <time>2022-05-31T13:45:25Z</time>
      </trkpt>
      <trkpt lat="49.23779" lon="-0.26128">
        <ele>12.7</ele>
        <time>2022-05-31T13:45:26Z</time>
      </trkpt>
      <trkpt lat="49.23779" lon="-0.26128">
        <ele>12.7</ele>
        <time>2022-05-31T13:45:27Z</time>
      </trkpt>
      <trkpt lat="49.23779" lon="-0.26128">
        <ele>12.7</ele>
        <time>2022-05-31T13:45:28Z</time>
      </trkpt>
      <trkpt lat="49.23779" lon="-0.26127">
        <ele>12.7</ele>
        <time>2022-05-31T13:45:29Z</time>
      </trkpt>
      <trkpt lat="49.23779" lon="-0.26127">
        <ele>12.7</ele>
        <time>2022-05-31T13:45:30Z</time>
      </trkpt>
      <trkpt lat="49.2378" lon="-0.26127">
        <ele>12.7</ele>
        <time>2022-05-31T13:45:31Z</time>
      </trkpt>
      <trkpt lat="49.2378" lon="-0.26127">
        <ele>12.7</ele>
        <time>2022-05-31T13:45:32Z</time>
      </trkpt>
      <trkpt lat="49.2378" lon="-0.26127">
        <ele>12.7</ele>
        <time>2022-05-31T13:45:33Z</time>
      </trkpt>
      <trkpt lat="49.2378" lon="-0.26127">
        <ele>12.7</ele>
        <time>2022-05-31T13:45:34Z</time>
      </trkpt>
      <trkpt lat="49.2378" lon="-0.26127">
        <ele>12.7</ele>
        <time>2022-05-31T13:45:35Z</time>
      </trkpt>
      <trkpt lat="49.2378" lon="-0.26126">
        <ele>12.7</ele>
        <time>2022-05-31T13:45:36Z</time>
      </trkpt>
      <trkpt lat="49.2378" lon="-0.26125">
        <ele>12.7</ele>
        <time>2022-05-31T13:45:37Z</time>
      </trkpt>
      <trkpt lat="49.2378" lon="-0.26125">
        <ele>12.7</ele>
        <time>2022-05-31T13:45:38Z</time>
      </trkpt>
      <trkpt lat="49.2378" lon="-0.26125">
        <ele>12.7</ele>
        <time>2022-05-31T13:45:39Z</time>
      </trkpt>
      <trkpt lat="49.2378" lon="-0.26125">
        <ele>12.7</ele>
        <time>2022-05-31T13:45:40Z</time>
      </trkpt>
      <trkpt lat="49.2378" lon="-0.26125">
        <ele>12.7</ele>
        <time>2022-05-31T13:45:41Z</time>
      </trkpt>
      <trkpt lat="49.2378" lon="-0.26125">
        <ele>12.7</ele>
        <time>2022-05-31T13:45:42Z</time>
      </trkpt>
      <trkpt lat="49.2378" lon="-0.26125">
        <ele>12.7</ele>
        <time>2022-05-31T13:45:43Z</time>
      </trkpt>
      <trkpt lat="49.2378" lon="-0.26125">
        <ele>12.7</ele>
        <time>2022-05-31T13:45:44Z</time>
      </trkpt>
      <trkpt lat="49.2378" lon="-0.26125">
        <ele>12.7</ele>
        <time>2022-05-31T13:45:45Z</time>
      </trkpt>
      <trkpt lat="49.2378" lon="-0.26125">
        <ele>12.7</ele>
        <time>2022-05-31T13:45:46Z</time>
      </trkpt>
      <trkpt lat="49.2378" lon="-0.26125">
        <ele>12.7</ele>
        <time>2022-05-31T13:45:47Z</time>
      </trkpt>
      <trkpt lat="49.2378" lon="-0.26125">
        <ele>12.7</ele>
        <time>2022-05-31T13:45:48Z</time>
      </trkpt>
      <trkpt lat="49.2378" lon="-0.26125">
        <ele>12.7</ele>
        <time>2022-05-31T13:45:49Z</time>
      </trkpt>
      <trkpt lat="49.2378" lon="-0.26125">
        <ele>12.7</ele>
        <time>2022-05-31T13:45:50Z</time>
      </trkpt>
      <trkpt lat="49.2378" lon="-0.26125">
        <ele>12.7</ele>
        <time>2022-05-31T13:45:51Z</time>
      </trkpt>
      <trkpt lat="49.2378" lon="-0.26125">
        <ele>12.7</ele>
        <time>2022-05-31T13:45:52Z</time>
      </trkpt>
      <trkpt lat="49.2378" lon="-0.26125">
        <ele>12.7</ele>
        <time>2022-05-31T13:45:53Z</time>
      </trkpt>
      <trkpt lat="49.2378" lon="-0.26125">
        <ele>12.7</ele>
        <time>2022-05-31T13:45:54Z</time>
      </trkpt>
      <trkpt lat="49.2378" lon="-0.26125">
        <ele>12.7</ele>
        <time>2022-05-31T13:45:55Z</time>
      </trkpt>
      <trkpt lat="49.2378" lon="-0.26125">
        <ele>12.7</ele>
        <time>2022-05-31T13:45:56Z</time>
      </trkpt>
      <trkpt lat="49.2378" lon="-0.26125">
        <ele>12.7</ele>
        <time>2022-05-31T13:45:57Z</time>
      </trkpt>
      <trkpt lat="49.2378" lon="-0.26125">
        <ele>12.7</ele>
        <time>2022-05-31T13:45:58Z</time>
      </trkpt>
      <trkpt lat="49.2378" lon="-0.26125">
        <ele>12.7</ele>
        <time>2022-05-31T13:45:59Z</time>
      </trkpt>
      <trkpt lat="49.2378" lon="-0.26125">
        <ele>12.7</ele>
        <time>2022-05-31T13:46:00Z</time>
      </trkpt>
      <trkpt lat="49.2378" lon="-0.26125">
        <ele>12.7</ele>
        <time>2022-05-31T13:46:01Z</time>
      </trkpt>
      <trkpt lat="49.2378" lon="-0.26125">
        <ele>12.8</ele>
        <time>2022-05-31T13:46:02Z</time>
      </trkpt>
      <trkpt lat="49.2378" lon="-0.26125">
        <ele>12.8</ele>
        <time>2022-05-31T13:46:03Z</time>
      </trkpt>
      <trkpt lat="49.2378" lon="-0.26125">
        <ele>12.8</ele>
        <time>2022-05-31T13:46:04Z</time>
      </trkpt>
      <trkpt lat="49.2378" lon="-0.26125">
        <ele>12.8</ele>
        <time>2022-05-31T13:46:05Z</time>
      </trkpt>
      <trkpt lat="49.2378" lon="-0.26125">
        <ele>12.8</ele>
        <time>2022-05-31T13:46:06Z</time>
      </trkpt>
      <trkpt lat="49.23781" lon="-0.26125">
        <ele>12.8</ele>
        <time>2022-05-31T13:46:07Z</time>
      </trkpt>
      <trkpt lat="49.2378" lon="-0.26125">
        <ele>12.8</ele>
        <time>2022-05-31T13:46:08Z</time>
      </trkpt>
      <trkpt lat="49.2378" lon="-0.26126">
        <ele>12.8</ele>
        <time>2022-05-31T13:46:10Z</time>
      </trkpt>
      <trkpt lat="49.2378" lon="-0.26126">
        <ele>12.8</ele>
        <time>2022-05-31T13:46:11Z</time>
      </trkpt>
      <trkpt lat="49.2378" lon="-0.26126">
        <ele>12.8</ele>
        <time>2022-05-31T13:46:12Z</time>
      </trkpt>
      <trkpt lat="49.23781" lon="-0.26126">
        <ele>12.8</ele>
        <time>2022-05-31T13:46:13Z</time>
      </trkpt>
      <trkpt lat="49.23781" lon="-0.26126">
        <ele>12.8</ele>
        <time>2022-05-31T13:46:14Z</time>
      </trkpt>
      <trkpt lat="49.23781" lon="-0.26125">
        <ele>12.8</ele>
        <time>2022-05-31T13:46:15Z</time>
      </trkpt>
      <trkpt lat="49.23781" lon="-0.26124">
        <ele>12.8</ele>
        <time>2022-05-31T13:46:17Z</time>
      </trkpt>
      <trkpt lat="49.23781" lon="-0.26124">
        <ele>12.8</ele>
        <time>2022-05-31T13:46:18Z</time>
      </trkpt>
      <trkpt lat="49.23781" lon="-0.26124">
        <ele>12.8</ele>
        <time>2022-05-31T13:46:19Z</time>
      </trkpt>
      <trkpt lat="49.23781" lon="-0.26124">
        <ele>12.8</ele>
        <time>2022-05-31T13:46:20Z</time>
      </trkpt>
      <trkpt lat="49.23781" lon="-0.26124">
        <ele>12.8</ele>
        <time>2022-05-31T13:46:21Z</time>
      </trkpt>
      <trkpt lat="49.23781" lon="-0.26123">
        <ele>12.8</ele>
        <time>2022-05-31T13:46:22Z</time>
      </trkpt>
      <trkpt lat="49.23781" lon="-0.26124">
        <ele>12.8</ele>
        <time>2022-05-31T13:46:24Z</time>
      </trkpt>
      <trkpt lat="49.23781" lon="-0.26124">
        <ele>12.8</ele>
        <time>2022-05-31T13:46:25Z</time>
      </trkpt>
      <trkpt lat="49.23781" lon="-0.26125">
        <ele>12.8</ele>
        <time>2022-05-31T13:46:26Z</time>
      </trkpt>
      <trkpt lat="49.23781" lon="-0.26125">
        <ele>12.8</ele>
        <time>2022-05-31T13:46:27Z</time>
      </trkpt>
      <trkpt lat="49.23781" lon="-0.26125">
        <ele>12.8</ele>
        <time>2022-05-31T13:46:29Z</time>
      </trkpt>
      <trkpt lat="49.2378" lon="-0.26126">
        <ele>12.8</ele>
        <time>2022-05-31T13:46:30Z</time>
      </trkpt>
      <trkpt lat="49.2378" lon="-0.26126">
        <ele>12.8</ele>
        <time>2022-05-31T13:46:31Z</time>
      </trkpt>
      <trkpt lat="49.2378" lon="-0.26126">
        <ele>12.8</ele>
        <time>2022-05-31T13:46:32Z</time>
      </trkpt>
      <trkpt lat="49.2378" lon="-0.26126">
        <ele>12.8</ele>
        <time>2022-05-31T13:46:33Z</time>
      </trkpt>
      <trkpt lat="49.2378" lon="-0.26126">
        <ele>12.8</ele>
        <time>2022-05-31T13:46:34Z</time>
      </trkpt>
      <trkpt lat="49.2378" lon="-0.26126">
        <ele>12.8</ele>
        <time>2022-05-31T13:46:35Z</time>
      </trkpt>
      <trkpt lat="49.2378" lon="-0.26126">
        <ele>12.8</ele>
        <time>2022-05-31T13:46:36Z</time>
      </trkpt>
      <trkpt lat="49.2378" lon="-0.26126">
        <ele>12.8</ele>
        <time>2022-05-31T13:46:38Z</time>
      </trkpt>
      <trkpt lat="49.2378" lon="-0.26126">
        <ele>12.8</ele>
        <time>2022-05-31T13:46:39Z</time>
      </trkpt>
      <trkpt lat="49.2378" lon="-0.26126">
        <ele>12.8</ele>
        <time>2022-05-31T13:46:40Z</time>
      </trkpt>
      <trkpt lat="49.2378" lon="-0.26126">
        <ele>12.8</ele>
        <time>2022-05-31T13:46:41Z</time>
      </trkpt>
      <trkpt lat="49.2378" lon="-0.26126">
        <ele>12.8</ele>
        <time>2022-05-31T13:46:42Z</time>
      </trkpt>
      <trkpt lat="49.2378" lon="-0.26126">
        <ele>12.8</ele>
        <time>2022-05-31T13:46:43Z</time>
      </trkpt>
      <trkpt lat="49.2378" lon="-0.26126">
        <ele>12.8</ele>
        <time>2022-05-31T13:46:44Z</time>
      </trkpt>
      <trkpt lat="49.2378" lon="-0.26126">
        <ele>12.8</ele>
        <time>2022-05-31T13:46:45Z</time>
      </trkpt>
      <trkpt lat="49.2378" lon="-0.26125">
        <ele>12.8</ele>
        <time>2022-05-31T13:46:46Z</time>
      </trkpt>
      <trkpt lat="49.2378" lon="-0.26125">
        <ele>12.8</ele>
        <time>2022-05-31T13:46:47Z</time>
      </trkpt>
      <trkpt lat="49.2378" lon="-0.26125">
        <ele>12.8</ele>
        <time>2022-05-31T13:46:48Z</time>
      </trkpt>
      <trkpt lat="49.2378" lon="-0.26125">
        <ele>12.8</ele>
        <time>2022-05-31T13:46:49Z</time>
      </trkpt>
      <trkpt lat="49.2378" lon="-0.26125">
        <ele>12.8</ele>
        <time>2022-05-31T13:46:50Z</time>
      </trkpt>
      <trkpt lat="49.2378" lon="-0.26125">
        <ele>12.8</ele>
        <time>2022-05-31T13:46:51Z</time>
      </trkpt>
      <trkpt lat="49.2378" lon="-0.26125">
        <ele>12.8</ele>
        <time>2022-05-31T13:46:52Z</time>
      </trkpt>
      <trkpt lat="49.2378" lon="-0.26125">
        <ele>12.8</ele>
        <time>2022-05-31T13:46:54Z</time>
      </trkpt>
      <trkpt lat="49.2378" lon="-0.26125">
        <ele>12.8</ele>
        <time>2022-05-31T13:46:55Z</time>
      </trkpt>
      <trkpt lat="49.2378" lon="-0.26125">
        <ele>12.8</ele>
        <time>2022-05-31T13:46:56Z</time>
      </trkpt>
      <trkpt lat="49.23781" lon="-0.26125">
        <ele>12.8</ele>
        <time>2022-05-31T13:46:57Z</time>
      </trkpt>
      <trkpt lat="49.23782" lon="-0.26125">
        <ele>12.8</ele>
        <time>2022-05-31T13:46:59Z</time>
      </trkpt>
      <trkpt lat="49.23782" lon="-0.26125">
        <ele>12.8</ele>
        <time>2022-05-31T13:47:00Z</time>
      </trkpt>
      <trkpt lat="49.23783" lon="-0.26126">
        <ele>12.8</ele>
        <time>2022-05-31T13:47:01Z</time>
      </trkpt>
      <trkpt lat="49.23784" lon="-0.26126">
        <ele>12.8</ele>
        <time>2022-05-31T13:47:02Z</time>
      </trkpt>
      <trkpt lat="49.23787" lon="-0.26127">
        <ele>12.8</ele>
        <time>2022-05-31T13:47:03Z</time>
      </trkpt>
      <trkpt lat="49.23788" lon="-0.26127">
        <ele>12.8</ele>
        <time>2022-05-31T13:47:04Z</time>
      </trkpt>
      <trkpt lat="49.2379" lon="-0.26128">
        <ele>12.8</ele>
        <time>2022-05-31T13:47:05Z</time>
      </trkpt>
      <trkpt lat="49.23791" lon="-0.26129">
        <ele>12.8</ele>
        <time>2022-05-31T13:47:07Z</time>
      </trkpt>
      <trkpt lat="49.23792" lon="-0.26131">
        <ele>12.7</ele>
        <time>2022-05-31T13:47:08Z</time>
      </trkpt>
      <trkpt lat="49.23794" lon="-0.26132">
        <ele>12.7</ele>
        <time>2022-05-31T13:47:09Z</time>
      </trkpt>
      <trkpt lat="49.23795" lon="-0.26133">
        <ele>12.6</ele>
        <time>2022-05-31T13:47:10Z</time>
      </trkpt>
      <trkpt lat="49.23796" lon="-0.26134">
        <ele>12.6</ele>
        <time>2022-05-31T13:47:12Z</time>
      </trkpt>
      <trkpt lat="49.23797" lon="-0.26134">
        <ele>12.6</ele>
        <time>2022-05-31T13:47:13Z</time>
      </trkpt>
      <trkpt lat="49.23799" lon="-0.26136">
        <ele>12.5</ele>
        <time>2022-05-31T13:47:14Z</time>
      </trkpt>
      <trkpt lat="49.23799" lon="-0.26136">
        <ele>12.5</ele>
        <time>2022-05-31T13:47:15Z</time>
      </trkpt>
      <trkpt lat="49.238" lon="-0.26137">
        <ele>12.5</ele>
        <time>2022-05-31T13:47:16Z</time>
      </trkpt>
      <trkpt lat="49.23801" lon="-0.26138">
        <ele>12.4</ele>
        <time>2022-05-31T13:47:17Z</time>
      </trkpt>
      <trkpt lat="49.23802" lon="-0.26138">
        <ele>12.4</ele>
        <time>2022-05-31T13:47:18Z</time>
      </trkpt>
      <trkpt lat="49.23803" lon="-0.26137">
        <ele>12.4</ele>
        <time>2022-05-31T13:47:20Z</time>
      </trkpt>
      <trkpt lat="49.23804" lon="-0.26137">
        <ele>12.4</ele>
        <time>2022-05-31T13:47:21Z</time>
      </trkpt>
      <trkpt lat="49.23805" lon="-0.26138">
        <ele>12.3</ele>
        <time>2022-05-31T13:47:22Z</time>
      </trkpt>
      <trkpt lat="49.23806" lon="-0.26138">
        <ele>12.3</ele>
        <time>2022-05-31T13:47:23Z</time>
      </trkpt>
      <trkpt lat="49.23807" lon="-0.2614">
        <ele>12.2</ele>
        <time>2022-05-31T13:47:24Z</time>
      </trkpt>
      <trkpt lat="49.23808" lon="-0.2614">
        <ele>12.2</ele>
        <time>2022-05-31T13:47:25Z</time>
      </trkpt>
      <trkpt lat="49.23808" lon="-0.26141">
        <ele>12.2</ele>
        <time>2022-05-31T13:47:26Z</time>
      </trkpt>
      <trkpt lat="49.23809" lon="-0.26142">
        <ele>12.2</ele>
        <time>2022-05-31T13:47:28Z</time>
      </trkpt>
      <trkpt lat="49.23811" lon="-0.26143">
        <ele>12.1</ele>
        <time>2022-05-31T13:47:29Z</time>
      </trkpt>
      <trkpt lat="49.23812" lon="-0.26144">
        <ele>12.1</ele>
        <time>2022-05-31T13:47:30Z</time>
      </trkpt>
      <trkpt lat="49.23813" lon="-0.26144">
        <ele>12</ele>
        <time>2022-05-31T13:47:31Z</time>
      </trkpt>
      <trkpt lat="49.23813" lon="-0.26145">
        <ele>12</ele>
        <time>2022-05-31T13:47:32Z</time>
      </trkpt>
      <trkpt lat="49.23814" lon="-0.26146">
        <ele>12</ele>
        <time>2022-05-31T13:47:33Z</time>
      </trkpt>
      <trkpt lat="49.23815" lon="-0.26146">
        <ele>12</ele>
        <time>2022-05-31T13:47:35Z</time>
      </trkpt>
      <trkpt lat="49.23817" lon="-0.26147">
        <ele>11.9</ele>
        <time>2022-05-31T13:47:36Z</time>
      </trkpt>
      <trkpt lat="49.23818" lon="-0.26147">
        <ele>11.9</ele>
        <time>2022-05-31T13:47:37Z</time>
      </trkpt>
      <trkpt lat="49.2382" lon="-0.26147">
        <ele>11.8</ele>
        <time>2022-05-31T13:47:38Z</time>
      </trkpt>
      <trkpt lat="49.23821" lon="-0.26148">
        <ele>11.8</ele>
        <time>2022-05-31T13:47:39Z</time>
      </trkpt>
      <trkpt lat="49.23823" lon="-0.26149">
        <ele>11.7</ele>
        <time>2022-05-31T13:47:40Z</time>
      </trkpt>
      <trkpt lat="49.23824" lon="-0.2615">
        <ele>11.7</ele>
        <time>2022-05-31T13:47:41Z</time>
      </trkpt>
      <trkpt lat="49.23826" lon="-0.26151">
        <ele>11.6</ele>
        <time>2022-05-31T13:47:42Z</time>
      </trkpt>
      <trkpt lat="49.23827" lon="-0.26153">
        <ele>11.5</ele>
        <time>2022-05-31T13:47:43Z</time>
      </trkpt>
      <trkpt lat="49.23828" lon="-0.26154">
        <ele>11.5</ele>
        <time>2022-05-31T13:47:45Z</time>
      </trkpt>
      <trkpt lat="49.23829" lon="-0.26154">
        <ele>11.5</ele>
        <time>2022-05-31T13:47:46Z</time>
      </trkpt>
      <trkpt lat="49.2383" lon="-0.26156">
        <ele>11.4</ele>
        <time>2022-05-31T13:47:47Z</time>
      </trkpt>
      <trkpt lat="49.23831" lon="-0.26157">
        <ele>11.4</ele>
        <time>2022-05-31T13:47:48Z</time>
      </trkpt>
      <trkpt lat="49.23832" lon="-0.26159">
        <ele>11.3</ele>
        <time>2022-05-31T13:47:50Z</time>
      </trkpt>
      <trkpt lat="49.23833" lon="-0.2616">
        <ele>11.2</ele>
        <time>2022-05-31T13:47:51Z</time>
      </trkpt>
      <trkpt lat="49.23834" lon="-0.26161">
        <ele>11.2</ele>
        <time>2022-05-31T13:47:52Z</time>
      </trkpt>
      <trkpt lat="49.23836" lon="-0.26163">
        <ele>11.1</ele>
        <time>2022-05-31T13:47:53Z</time>
      </trkpt>
      <trkpt lat="49.23837" lon="-0.26163">
        <ele>11.1</ele>
        <time>2022-05-31T13:47:54Z</time>
      </trkpt>
      <trkpt lat="49.23838" lon="-0.26164">
        <ele>11</ele>
        <time>2022-05-31T13:47:55Z</time>
      </trkpt>
      <trkpt lat="49.23839" lon="-0.26165">
        <ele>11</ele>
        <time>2022-05-31T13:47:56Z</time>
      </trkpt>
      <trkpt lat="49.2384" lon="-0.26166">
        <ele>10.9</ele>
        <time>2022-05-31T13:47:57Z</time>
      </trkpt>
      <trkpt lat="49.23841" lon="-0.26167">
        <ele>10.9</ele>
        <time>2022-05-31T13:47:58Z</time>
      </trkpt>
      <trkpt lat="49.23842" lon="-0.26167">
        <ele>10.8</ele>
        <time>2022-05-31T13:47:59Z</time>
      </trkpt>
      <trkpt lat="49.23844" lon="-0.26169">
        <ele>10.7</ele>
        <time>2022-05-31T13:48:01Z</time>
      </trkpt>
      <trkpt lat="49.23845" lon="-0.2617">
        <ele>10.7</ele>
        <time>2022-05-31T13:48:02Z</time>
      </trkpt>
      <trkpt lat="49.23845" lon="-0.2617">
        <ele>10.6</ele>
        <time>2022-05-31T13:48:03Z</time>
      </trkpt>
      <trkpt lat="49.23846" lon="-0.26171">
        <ele>10.6</ele>
        <time>2022-05-31T13:48:04Z</time>
      </trkpt>
      <trkpt lat="49.23848" lon="-0.26172">
        <ele>10.5</ele>
        <time>2022-05-31T13:48:05Z</time>
      </trkpt>
      <trkpt lat="49.23849" lon="-0.26172">
        <ele>10.5</ele>
        <time>2022-05-31T13:48:06Z</time>
      </trkpt>
      <trkpt lat="49.23851" lon="-0.26173">
        <ele>10.4</ele>
        <time>2022-05-31T13:48:07Z</time>
      </trkpt>
      <trkpt lat="49.23852" lon="-0.26174">
        <ele>10.3</ele>
        <time>2022-05-31T13:48:08Z</time>
      </trkpt>
      <trkpt lat="49.23852" lon="-0.26174">
        <ele>10.3</ele>
        <time>2022-05-31T13:48:09Z</time>
      </trkpt>
      <trkpt lat="49.23854" lon="-0.26175">
        <ele>10.2</ele>
        <time>2022-05-31T13:48:10Z</time>
      </trkpt>
      <trkpt lat="49.23855" lon="-0.26176">
        <ele>10.2</ele>
        <time>2022-05-31T13:48:11Z</time>
      </trkpt>
      <trkpt lat="49.23856" lon="-0.26176">
        <ele>10.1</ele>
        <time>2022-05-31T13:48:13Z</time>
      </trkpt>
      <trkpt lat="49.23857" lon="-0.26177">
        <ele>10.1</ele>
        <time>2022-05-31T13:48:14Z</time>
      </trkpt>
      <trkpt lat="49.23858" lon="-0.26177">
        <ele>10</ele>
        <time>2022-05-31T13:48:15Z</time>
      </trkpt>
      <trkpt lat="49.23859" lon="-0.26178">
        <ele>9.9</ele>
        <time>2022-05-31T13:48:16Z</time>
      </trkpt>
      <trkpt lat="49.2386" lon="-0.26179">
        <ele>9.9</ele>
        <time>2022-05-31T13:48:17Z</time>
      </trkpt>
      <trkpt lat="49.23862" lon="-0.2618">
        <ele>9.8</ele>
        <time>2022-05-31T13:48:18Z</time>
      </trkpt>
      <trkpt lat="49.23863" lon="-0.26181">
        <ele>9.7</ele>
        <time>2022-05-31T13:48:19Z</time>
      </trkpt>
      <trkpt lat="49.23864" lon="-0.26182">
        <ele>9.7</ele>
        <time>2022-05-31T13:48:20Z</time>
      </trkpt>
      <trkpt lat="49.23866" lon="-0.26184">
        <ele>9.6</ele>
        <time>2022-05-31T13:48:21Z</time>
      </trkpt>
      <trkpt lat="49.23866" lon="-0.26185">
        <ele>9.5</ele>
        <time>2022-05-31T13:48:22Z</time>
      </trkpt>
      <trkpt lat="49.23867" lon="-0.26186">
        <ele>9.5</ele>
        <time>2022-05-31T13:48:23Z</time>
      </trkpt>
      <trkpt lat="49.23869" lon="-0.26187">
        <ele>9.4</ele>
        <time>2022-05-31T13:48:24Z</time>
      </trkpt>
      <trkpt lat="49.2387" lon="-0.26187">
        <ele>9.3</ele>
        <time>2022-05-31T13:48:26Z</time>
      </trkpt>
      <trkpt lat="49.2387" lon="-0.26188">
        <ele>9.3</ele>
        <time>2022-05-31T13:48:27Z</time>
      </trkpt>
      <trkpt lat="49.23872" lon="-0.26189">
        <ele>9.2</ele>
        <time>2022-05-31T13:48:28Z</time>
      </trkpt>
      <trkpt lat="49.23873" lon="-0.2619">
        <ele>9.2</ele>
        <time>2022-05-31T13:48:29Z</time>
      </trkpt>
      <trkpt lat="49.23875" lon="-0.2619">
        <ele>9.1</ele>
        <time>2022-05-31T13:48:30Z</time>
      </trkpt>
      <trkpt lat="49.23876" lon="-0.26191">
        <ele>9</ele>
        <time>2022-05-31T13:48:32Z</time>
      </trkpt>
      <trkpt lat="49.23877" lon="-0.26191">
        <ele>9</ele>
        <time>2022-05-31T13:48:33Z</time>
      </trkpt>
      <trkpt lat="49.23878" lon="-0.26191">
        <ele>8.9</ele>
        <time>2022-05-31T13:48:34Z</time>
      </trkpt>
      <trkpt lat="49.23879" lon="-0.26191">
        <ele>8.9</ele>
        <time>2022-05-31T13:48:35Z</time>
      </trkpt>
      <trkpt lat="49.23882" lon="-0.26193">
        <ele>8.7</ele>
        <time>2022-05-31T13:48:36Z</time>
      </trkpt>
      <trkpt lat="49.23883" lon="-0.26194">
        <ele>8.7</ele>
        <time>2022-05-31T13:48:37Z</time>
      </trkpt>
      <trkpt lat="49.23884" lon="-0.26195">
        <ele>8.7</ele>
        <time>2022-05-31T13:48:38Z</time>
      </trkpt>
      <trkpt lat="49.23885" lon="-0.26196">
        <ele>8.6</ele>
        <time>2022-05-31T13:48:40Z</time>
      </trkpt>
      <trkpt lat="49.23886" lon="-0.26197">
        <ele>8.6</ele>
        <time>2022-05-31T13:48:41Z</time>
      </trkpt>
      <trkpt lat="49.23888" lon="-0.26199">
        <ele>8.5</ele>
        <time>2022-05-31T13:48:42Z</time>
      </trkpt>
      <trkpt lat="49.23888" lon="-0.262">
        <ele>8.5</ele>
        <time>2022-05-31T13:48:43Z</time>
      </trkpt>
      <trkpt lat="49.23889" lon="-0.26201">
        <ele>8.4</ele>
        <time>2022-05-31T13:48:44Z</time>
      </trkpt>
      <trkpt lat="49.23891" lon="-0.26203">
        <ele>8.3</ele>
        <time>2022-05-31T13:48:45Z</time>
      </trkpt>
      <trkpt lat="49.23891" lon="-0.26204">
        <ele>8.3</ele>
        <time>2022-05-31T13:48:46Z</time>
      </trkpt>
      <trkpt lat="49.23892" lon="-0.26205">
        <ele>8.3</ele>
        <time>2022-05-31T13:48:47Z</time>
      </trkpt>
      <trkpt lat="49.23893" lon="-0.26208">
        <ele>8.2</ele>
        <time>2022-05-31T13:48:48Z</time>
      </trkpt>
      <trkpt lat="49.23893" lon="-0.26209">
        <ele>8.2</ele>
        <time>2022-05-31T13:48:49Z</time>
      </trkpt>
      <trkpt lat="49.23894" lon="-0.2621">
        <ele>8.1</ele>
        <time>2022-05-31T13:48:50Z</time>
      </trkpt>
      <trkpt lat="49.23895" lon="-0.26212">
        <ele>8.1</ele>
        <time>2022-05-31T13:48:51Z</time>
      </trkpt>
      <trkpt lat="49.23895" lon="-0.26214">
        <ele>8</ele>
        <time>2022-05-31T13:48:52Z</time>
      </trkpt>
      <trkpt lat="49.23896" lon="-0.26217">
        <ele>8</ele>
        <time>2022-05-31T13:48:54Z</time>
      </trkpt>
      <trkpt lat="49.23897" lon="-0.26218">
        <ele>7.9</ele>
        <time>2022-05-31T13:48:55Z</time>
      </trkpt>
      <trkpt lat="49.23898" lon="-0.2622">
        <ele>7.9</ele>
        <time>2022-05-31T13:48:56Z</time>
      </trkpt>
      <trkpt lat="49.23898" lon="-0.26222">
        <ele>7.8</ele>
        <time>2022-05-31T13:48:57Z</time>
      </trkpt>
      <trkpt lat="49.23899" lon="-0.26224">
        <ele>7.8</ele>
        <time>2022-05-31T13:48:58Z</time>
      </trkpt>
      <trkpt lat="49.239" lon="-0.26226">
        <ele>7.7</ele>
        <time>2022-05-31T13:48:59Z</time>
      </trkpt>
      <trkpt lat="49.23901" lon="-0.26228">
        <ele>7.6</ele>
        <time>2022-05-31T13:49:00Z</time>
      </trkpt>
      <trkpt lat="49.23902" lon="-0.2623">
        <ele>7.6</ele>
        <time>2022-05-31T13:49:01Z</time>
      </trkpt>
      <trkpt lat="49.23902" lon="-0.26231">
        <ele>7.6</ele>
        <time>2022-05-31T13:49:02Z</time>
      </trkpt>
      <trkpt lat="49.23903" lon="-0.26232">
        <ele>7.5</ele>
        <time>2022-05-31T13:49:03Z</time>
      </trkpt>
      <trkpt lat="49.23902" lon="-0.26234">
        <ele>7.5</ele>
        <time>2022-05-31T13:49:05Z</time>
      </trkpt>
      <trkpt lat="49.23902" lon="-0.26236">
        <ele>7.4</ele>
        <time>2022-05-31T13:49:06Z</time>
      </trkpt>
      <trkpt lat="49.23903" lon="-0.26238">
        <ele>7.4</ele>
        <time>2022-05-31T13:49:07Z</time>
      </trkpt>
      <trkpt lat="49.23903" lon="-0.26241">
        <ele>7.4</ele>
        <time>2022-05-31T13:49:08Z</time>
      </trkpt>
      <trkpt lat="49.23903" lon="-0.26244">
        <ele>7.3</ele>
        <time>2022-05-31T13:49:09Z</time>
      </trkpt>
      <trkpt lat="49.23903" lon="-0.26245">
        <ele>7.3</ele>
        <time>2022-05-31T13:49:11Z</time>
      </trkpt>
      <trkpt lat="49.23903" lon="-0.26247">
        <ele>7.2</ele>
        <time>2022-05-31T13:49:12Z</time>
      </trkpt>
      <trkpt lat="49.23903" lon="-0.26249">
        <ele>7.2</ele>
        <time>2022-05-31T13:49:13Z</time>
      </trkpt>
      <trkpt lat="49.23903" lon="-0.26251">
        <ele>7.2</ele>
        <time>2022-05-31T13:49:14Z</time>
      </trkpt>
      <trkpt lat="49.23903" lon="-0.26253">
        <ele>7.1</ele>
        <time>2022-05-31T13:49:15Z</time>
      </trkpt>
      <trkpt lat="49.23903" lon="-0.26255">
        <ele>7.1</ele>
        <time>2022-05-31T13:49:16Z</time>
      </trkpt>
      <trkpt lat="49.23903" lon="-0.26257">
        <ele>7.1</ele>
        <time>2022-05-31T13:49:17Z</time>
      </trkpt>
      <trkpt lat="49.23903" lon="-0.2626">
        <ele>7</ele>
        <time>2022-05-31T13:49:18Z</time>
      </trkpt>
      <trkpt lat="49.23903" lon="-0.26263">
        <ele>7</ele>
        <time>2022-05-31T13:49:19Z</time>
      </trkpt>
      <trkpt lat="49.23903" lon="-0.26265">
        <ele>7</ele>
        <time>2022-05-31T13:49:20Z</time>
      </trkpt>
      <trkpt lat="49.23903" lon="-0.26266">
        <ele>7</ele>
        <time>2022-05-31T13:49:21Z</time>
      </trkpt>
      <trkpt lat="49.23903" lon="-0.26269">
        <ele>6.9</ele>
        <time>2022-05-31T13:49:23Z</time>
      </trkpt>
      <trkpt lat="49.23902" lon="-0.2627">
        <ele>6.9</ele>
        <time>2022-05-31T13:49:24Z</time>
      </trkpt>
      <trkpt lat="49.23902" lon="-0.26273">
        <ele>6.9</ele>
        <time>2022-05-31T13:49:25Z</time>
      </trkpt>
      <trkpt lat="49.23901" lon="-0.26274">
        <ele>6.9</ele>
        <time>2022-05-31T13:49:26Z</time>
      </trkpt>
      <trkpt lat="49.23901" lon="-0.26276">
        <ele>6.9</ele>
        <time>2022-05-31T13:49:27Z</time>
      </trkpt>
      <trkpt lat="49.239" lon="-0.26279">
        <ele>6.8</ele>
        <time>2022-05-31T13:49:29Z</time>
      </trkpt>
      <trkpt lat="49.239" lon="-0.2628">
        <ele>6.8</ele>
        <time>2022-05-31T13:49:30Z</time>
      </trkpt>
      <trkpt lat="49.239" lon="-0.26281">
        <ele>6.8</ele>
        <time>2022-05-31T13:49:31Z</time>
      </trkpt>
      <trkpt lat="49.23899" lon="-0.26283">
        <ele>6.8</ele>
        <time>2022-05-31T13:49:32Z</time>
      </trkpt>
      <trkpt lat="49.23899" lon="-0.26286">
        <ele>6.8</ele>
        <time>2022-05-31T13:49:33Z</time>
      </trkpt>
      <trkpt lat="49.23898" lon="-0.26289">
        <ele>6.8</ele>
        <time>2022-05-31T13:49:34Z</time>
      </trkpt>
      <trkpt lat="49.23898" lon="-0.2629">
        <ele>6.8</ele>
        <time>2022-05-31T13:49:35Z</time>
      </trkpt>
      <trkpt lat="49.23897" lon="-0.26291">
        <ele>6.8</ele>
        <time>2022-05-31T13:49:36Z</time>
      </trkpt>
      <trkpt lat="49.23897" lon="-0.26294">
        <ele>6.7</ele>
        <time>2022-05-31T13:49:37Z</time>
      </trkpt>
      <trkpt lat="49.23897" lon="-0.26295">
        <ele>6.7</ele>
        <time>2022-05-31T13:49:38Z</time>
      </trkpt>
      <trkpt lat="49.23897" lon="-0.26297">
        <ele>6.7</ele>
        <time>2022-05-31T13:49:39Z</time>
      </trkpt>
      <trkpt lat="49.23896" lon="-0.263">
        <ele>6.7</ele>
        <time>2022-05-31T13:49:41Z</time>
      </trkpt>
      <trkpt lat="49.23896" lon="-0.26302">
        <ele>6.7</ele>
        <time>2022-05-31T13:49:42Z</time>
      </trkpt>
      <trkpt lat="49.23896" lon="-0.26303">
        <ele>6.7</ele>
        <time>2022-05-31T13:49:43Z</time>
      </trkpt>
      <trkpt lat="49.23896" lon="-0.26305">
        <ele>6.7</ele>
        <time>2022-05-31T13:49:44Z</time>
      </trkpt>
      <trkpt lat="49.23896" lon="-0.26307">
        <ele>6.7</ele>
        <time>2022-05-31T13:49:45Z</time>
      </trkpt>
      <trkpt lat="49.23896" lon="-0.26309">
        <ele>6.7</ele>
        <time>2022-05-31T13:49:46Z</time>
      </trkpt>
      <trkpt lat="49.23896" lon="-0.26312">
        <ele>6.7</ele>
        <time>2022-05-31T13:49:48Z</time>
      </trkpt>
      <trkpt lat="49.23897" lon="-0.26314">
        <ele>6.7</ele>
        <time>2022-05-31T13:49:49Z</time>
      </trkpt>
      <trkpt lat="49.23897" lon="-0.26315">
        <ele>6.7</ele>
        <time>2022-05-31T13:49:50Z</time>
      </trkpt>
      <trkpt lat="49.23897" lon="-0.26317">
        <ele>6.7</ele>
        <time>2022-05-31T13:49:51Z</time>
      </trkpt>
      <trkpt lat="49.23898" lon="-0.2632">
        <ele>6.7</ele>
        <time>2022-05-31T13:49:52Z</time>
      </trkpt>
      <trkpt lat="49.23898" lon="-0.26322">
        <ele>6.7</ele>
        <time>2022-05-31T13:49:53Z</time>
      </trkpt>
      <trkpt lat="49.23898" lon="-0.26323">
        <ele>6.7</ele>
        <time>2022-05-31T13:49:54Z</time>
      </trkpt>
      <trkpt lat="49.23899" lon="-0.26324">
        <ele>6.7</ele>
        <time>2022-05-31T13:49:55Z</time>
      </trkpt>
      <trkpt lat="49.239" lon="-0.26326">
        <ele>6.7</ele>
        <time>2022-05-31T13:49:57Z</time>
      </trkpt>
      <trkpt lat="49.239" lon="-0.26327">
        <ele>6.7</ele>
        <time>2022-05-31T13:49:58Z</time>
      </trkpt>
      <trkpt lat="49.23901" lon="-0.2633">
        <ele>6.7</ele>
        <time>2022-05-31T13:49:59Z</time>
      </trkpt>
      <trkpt lat="49.23901" lon="-0.26331">
        <ele>6.7</ele>
        <time>2022-05-31T13:50:00Z</time>
      </trkpt>
      <trkpt lat="49.23901" lon="-0.26332">
        <ele>6.7</ele>
        <time>2022-05-31T13:50:01Z</time>
      </trkpt>
      <trkpt lat="49.23901" lon="-0.26333">
        <ele>6.7</ele>
        <time>2022-05-31T13:50:02Z</time>
      </trkpt>
      <trkpt lat="49.23901" lon="-0.26335">
        <ele>6.7</ele>
        <time>2022-05-31T13:50:03Z</time>
      </trkpt>
      <trkpt lat="49.23901" lon="-0.26337">
        <ele>6.7</ele>
        <time>2022-05-31T13:50:05Z</time>
      </trkpt>
      <trkpt lat="49.239" lon="-0.26338">
        <ele>6.7</ele>
        <time>2022-05-31T13:50:06Z</time>
      </trkpt>
      <trkpt lat="49.23899" lon="-0.2634">
        <ele>6.7</ele>
        <time>2022-05-31T13:50:07Z</time>
      </trkpt>
      <trkpt lat="49.23898" lon="-0.26341">
        <ele>6.7</ele>
        <time>2022-05-31T13:50:08Z</time>
      </trkpt>
      <trkpt lat="49.23898" lon="-0.26342">
        <ele>6.7</ele>
        <time>2022-05-31T13:50:09Z</time>
      </trkpt>
      <trkpt lat="49.23897" lon="-0.26342">
        <ele>6.7</ele>
        <time>2022-05-31T13:50:11Z</time>
      </trkpt>
      <trkpt lat="49.23896" lon="-0.26343">
        <ele>6.7</ele>
        <time>2022-05-31T13:50:12Z</time>
      </trkpt>
      <trkpt lat="49.23895" lon="-0.26343">
        <ele>6.8</ele>
        <time>2022-05-31T13:50:13Z</time>
      </trkpt>
      <trkpt lat="49.23894" lon="-0.26342">
        <ele>6.8</ele>
        <time>2022-05-31T13:50:14Z</time>
      </trkpt>
      <trkpt lat="49.23894" lon="-0.26342">
        <ele>6.8</ele>
        <time>2022-05-31T13:50:15Z</time>
      </trkpt>
      <trkpt lat="49.23894" lon="-0.26341">
        <ele>6.8</ele>
        <time>2022-05-31T13:50:16Z</time>
      </trkpt>
      <trkpt lat="49.23894" lon="-0.26341">
        <ele>6.8</ele>
        <time>2022-05-31T13:50:17Z</time>
      </trkpt>
      <trkpt lat="49.23894" lon="-0.26341">
        <ele>6.8</ele>
        <time>2022-05-31T13:50:18Z</time>
      </trkpt>
      <trkpt lat="49.23894" lon="-0.26341">
        <ele>6.8</ele>
        <time>2022-05-31T13:50:19Z</time>
      </trkpt>
      <trkpt lat="49.23894" lon="-0.26341">
        <ele>6.8</ele>
        <time>2022-05-31T13:50:20Z</time>
      </trkpt>
      <trkpt lat="49.23895" lon="-0.26341">
        <ele>6.8</ele>
        <time>2022-05-31T13:50:21Z</time>
      </trkpt>
      <trkpt lat="49.23895" lon="-0.26341">
        <ele>6.8</ele>
        <time>2022-05-31T13:50:22Z</time>
      </trkpt>
      <trkpt lat="49.23895" lon="-0.26341">
        <ele>6.8</ele>
        <time>2022-05-31T13:50:23Z</time>
      </trkpt>
      <trkpt lat="49.23896" lon="-0.26341">
        <ele>6.8</ele>
        <time>2022-05-31T13:50:24Z</time>
      </trkpt>
      <trkpt lat="49.23897" lon="-0.26341">
        <ele>6.8</ele>
        <time>2022-05-31T13:50:26Z</time>
      </trkpt>
      <trkpt lat="49.23898" lon="-0.26341">
        <ele>6.8</ele>
        <time>2022-05-31T13:50:27Z</time>
      </trkpt>
      <trkpt lat="49.23898" lon="-0.26341">
        <ele>6.8</ele>
        <time>2022-05-31T13:50:29Z</time>
      </trkpt>
      <trkpt lat="49.23898" lon="-0.26341">
        <ele>6.8</ele>
        <time>2022-05-31T13:50:30Z</time>
      </trkpt>
      <trkpt lat="49.23899" lon="-0.26341">
        <ele>6.8</ele>
        <time>2022-05-31T13:50:31Z</time>
      </trkpt>
      <trkpt lat="49.23899" lon="-0.2634">
        <ele>6.8</ele>
        <time>2022-05-31T13:50:32Z</time>
      </trkpt>
      <trkpt lat="49.23899" lon="-0.26339">
        <ele>6.8</ele>
        <time>2022-05-31T13:50:33Z</time>
      </trkpt>
      <trkpt lat="49.23898" lon="-0.26339">
        <ele>6.8</ele>
        <time>2022-05-31T13:50:34Z</time>
      </trkpt>
      <trkpt lat="49.23898" lon="-0.26339">
        <ele>6.8</ele>
        <time>2022-05-31T13:50:35Z</time>
      </trkpt>
      <trkpt lat="49.23898" lon="-0.26338">
        <ele>6.8</ele>
        <time>2022-05-31T13:50:36Z</time>
      </trkpt>
      <trkpt lat="49.23898" lon="-0.26338">
        <ele>6.8</ele>
        <time>2022-05-31T13:50:37Z</time>
      </trkpt>
      <trkpt lat="49.23899" lon="-0.26338">
        <ele>6.8</ele>
        <time>2022-05-31T13:50:38Z</time>
      </trkpt>
      <trkpt lat="49.23899" lon="-0.26339">
        <ele>6.8</ele>
        <time>2022-05-31T13:50:40Z</time>
      </trkpt>
      <trkpt lat="49.239" lon="-0.26339">
        <ele>6.8</ele>
        <time>2022-05-31T13:50:41Z</time>
      </trkpt>
      <trkpt lat="49.23902" lon="-0.2634">
        <ele>6.8</ele>
        <time>2022-05-31T13:50:42Z</time>
      </trkpt>
      <trkpt lat="49.23903" lon="-0.2634">
        <ele>6.8</ele>
        <time>2022-05-31T13:50:43Z</time>
      </trkpt>
      <trkpt lat="49.23904" lon="-0.26341">
        <ele>6.8</ele>
        <time>2022-05-31T13:50:44Z</time>
      </trkpt>
      <trkpt lat="49.23906" lon="-0.26343">
        <ele>6.8</ele>
        <time>2022-05-31T13:50:45Z</time>
      </trkpt>
      <trkpt lat="49.23907" lon="-0.26344">
        <ele>6.8</ele>
        <time>2022-05-31T13:50:46Z</time>
      </trkpt>
      <trkpt lat="49.23908" lon="-0.26346">
        <ele>6.9</ele>
        <time>2022-05-31T13:50:48Z</time>
      </trkpt>
      <trkpt lat="49.23909" lon="-0.26347">
        <ele>6.9</ele>
        <time>2022-05-31T13:50:49Z</time>
      </trkpt>
      <trkpt lat="49.2391" lon="-0.26348">
        <ele>6.9</ele>
        <time>2022-05-31T13:50:50Z</time>
      </trkpt>
      <trkpt lat="49.2391" lon="-0.26349">
        <ele>6.9</ele>
        <time>2022-05-31T13:50:51Z</time>
      </trkpt>
      <trkpt lat="49.2391" lon="-0.2635">
        <ele>6.9</ele>
        <time>2022-05-31T13:50:52Z</time>
      </trkpt>
      <trkpt lat="49.23911" lon="-0.26353">
        <ele>6.9</ele>
        <time>2022-05-31T13:50:54Z</time>
      </trkpt>
      <trkpt lat="49.23911" lon="-0.26354">
        <ele>6.9</ele>
        <time>2022-05-31T13:50:55Z</time>
      </trkpt>
      <trkpt lat="49.23911" lon="-0.26355">
        <ele>6.9</ele>
        <time>2022-05-31T13:50:56Z</time>
      </trkpt>
      <trkpt lat="49.23911" lon="-0.26355">
        <ele>6.9</ele>
        <time>2022-05-31T13:50:57Z</time>
      </trkpt>
      <trkpt lat="49.2391" lon="-0.26354">
        <ele>6.9</ele>
        <time>2022-05-31T13:50:58Z</time>
      </trkpt>
      <trkpt lat="49.23909" lon="-0.26353">
        <ele>6.9</ele>
        <time>2022-05-31T13:50:59Z</time>
      </trkpt>
      <trkpt lat="49.23909" lon="-0.26353">
        <ele>6.9</ele>
        <time>2022-05-31T13:51:00Z</time>
      </trkpt>
      <trkpt lat="49.23909" lon="-0.26352">
        <ele>6.9</ele>
        <time>2022-05-31T13:51:01Z</time>
      </trkpt>
      <trkpt lat="49.23909" lon="-0.26353">
        <ele>6.9</ele>
        <time>2022-05-31T13:51:03Z</time>
      </trkpt>
      <trkpt lat="49.23909" lon="-0.26353">
        <ele>6.9</ele>
        <time>2022-05-31T13:51:04Z</time>
      </trkpt>
      <trkpt lat="49.23909" lon="-0.26354">
        <ele>6.9</ele>
        <time>2022-05-31T13:51:05Z</time>
      </trkpt>
      <trkpt lat="49.23909" lon="-0.26354">
        <ele>6.9</ele>
        <time>2022-05-31T13:51:06Z</time>
      </trkpt>
      <trkpt lat="49.2391" lon="-0.26355">
        <ele>6.9</ele>
        <time>2022-05-31T13:51:07Z</time>
      </trkpt>
      <trkpt lat="49.2391" lon="-0.26355">
        <ele>6.9</ele>
        <time>2022-05-31T13:51:08Z</time>
      </trkpt>
      <trkpt lat="49.2391" lon="-0.26355">
        <ele>6.9</ele>
        <time>2022-05-31T13:51:09Z</time>
      </trkpt>
      <trkpt lat="49.2391" lon="-0.26355">
        <ele>6.9</ele>
        <time>2022-05-31T13:51:10Z</time>
      </trkpt>
      <trkpt lat="49.2391" lon="-0.26355">
        <ele>6.9</ele>
        <time>2022-05-31T13:51:11Z</time>
      </trkpt>
      <trkpt lat="49.2391" lon="-0.26355">
        <ele>6.9</ele>
        <time>2022-05-31T13:51:12Z</time>
      </trkpt>
      <trkpt lat="49.2391" lon="-0.26355">
        <ele>6.9</ele>
        <time>2022-05-31T13:51:13Z</time>
      </trkpt>
      <trkpt lat="49.2391" lon="-0.26356">
        <ele>6.9</ele>
        <time>2022-05-31T13:51:14Z</time>
      </trkpt>
      <trkpt lat="49.2391" lon="-0.26355">
        <ele>6.9</ele>
        <time>2022-05-31T13:51:15Z</time>
      </trkpt>
      <trkpt lat="49.2391" lon="-0.26355">
        <ele>6.9</ele>
        <time>2022-05-31T13:51:16Z</time>
      </trkpt>
      <trkpt lat="49.2391" lon="-0.26355">
        <ele>6.9</ele>
        <time>2022-05-31T13:51:17Z</time>
      </trkpt>
      <trkpt lat="49.2391" lon="-0.26355">
        <ele>6.9</ele>
        <time>2022-05-31T13:51:18Z</time>
      </trkpt>
      <trkpt lat="49.2391" lon="-0.26355">
        <ele>6.9</ele>
        <time>2022-05-31T13:51:19Z</time>
      </trkpt>
      <trkpt lat="49.2391" lon="-0.26355">
        <ele>6.9</ele>
        <time>2022-05-31T13:51:20Z</time>
      </trkpt>
      <trkpt lat="49.2391" lon="-0.26355">
        <ele>6.9</ele>
        <time>2022-05-31T13:51:21Z</time>
      </trkpt>
      <trkpt lat="49.2391" lon="-0.26355">
        <ele>6.9</ele>
        <time>2022-05-31T13:51:22Z</time>
      </trkpt>
      <trkpt lat="49.2391" lon="-0.26355">
        <ele>6.9</ele>
        <time>2022-05-31T13:51:23Z</time>
      </trkpt>
      <trkpt lat="49.2391" lon="-0.26355">
        <ele>6.9</ele>
        <time>2022-05-31T13:51:24Z</time>
      </trkpt>
      <trkpt lat="49.2391" lon="-0.26355">
        <ele>6.9</ele>
        <time>2022-05-31T13:51:25Z</time>
      </trkpt>
      <trkpt lat="49.2391" lon="-0.26355">
        <ele>6.9</ele>
        <time>2022-05-31T13:51:26Z</time>
      </trkpt>
      <trkpt lat="49.2391" lon="-0.26355">
        <ele>6.9</ele>
        <time>2022-05-31T13:51:27Z</time>
      </trkpt>
      <trkpt lat="49.2391" lon="-0.26355">
        <ele>6.9</ele>
        <time>2022-05-31T13:51:28Z</time>
      </trkpt>
      <trkpt lat="49.2391" lon="-0.26355">
        <ele>6.9</ele>
        <time>2022-05-31T13:51:29Z</time>
      </trkpt>
      <trkpt lat="49.2391" lon="-0.26355">
        <ele>6.9</ele>
        <time>2022-05-31T13:51:30Z</time>
      </trkpt>
      <trkpt lat="49.2391" lon="-0.26355">
        <ele>6.9</ele>
        <time>2022-05-31T13:51:31Z</time>
      </trkpt>
      <trkpt lat="49.2391" lon="-0.26355">
        <ele>6.9</ele>
        <time>2022-05-31T13:51:32Z</time>
      </trkpt>
      <trkpt lat="49.2391" lon="-0.26355">
        <ele>6.9</ele>
        <time>2022-05-31T13:51:33Z</time>
      </trkpt>
      <trkpt lat="49.2391" lon="-0.26355">
        <ele>6.9</ele>
        <time>2022-05-31T13:51:34Z</time>
      </trkpt>
      <trkpt lat="49.2391" lon="-0.26355">
        <ele>6.9</ele>
        <time>2022-05-31T13:51:35Z</time>
      </trkpt>
      <trkpt lat="49.2391" lon="-0.26355">
        <ele>6.9</ele>
        <time>2022-05-31T13:51:36Z</time>
      </trkpt>
      <trkpt lat="49.2391" lon="-0.26355">
        <ele>6.9</ele>
        <time>2022-05-31T13:51:37Z</time>
      </trkpt>
      <trkpt lat="49.2391" lon="-0.26355">
        <ele>6.9</ele>
        <time>2022-05-31T13:51:38Z</time>
      </trkpt>
      <trkpt lat="49.2391" lon="-0.26355">
        <ele>6.9</ele>
        <time>2022-05-31T13:51:39Z</time>
      </trkpt>
      <trkpt lat="49.2391" lon="-0.26355">
        <ele>6.9</ele>
        <time>2022-05-31T13:51:40Z</time>
      </trkpt>
      <trkpt lat="49.2391" lon="-0.26355">
        <ele>6.9</ele>
        <time>2022-05-31T13:51:41Z</time>
      </trkpt>
      <trkpt lat="49.2391" lon="-0.26355">
        <ele>6.9</ele>
        <time>2022-05-31T13:51:42Z</time>
      </trkpt>
      <trkpt lat="49.2391" lon="-0.26355">
        <ele>6.9</ele>
        <time>2022-05-31T13:51:43Z</time>
      </trkpt>
      <trkpt lat="49.2391" lon="-0.26355">
        <ele>6.9</ele>
        <time>2022-05-31T13:51:44Z</time>
      </trkpt>
      <trkpt lat="49.2391" lon="-0.26355">
        <ele>6.9</ele>
        <time>2022-05-31T13:51:45Z</time>
      </trkpt>
      <trkpt lat="49.2391" lon="-0.26355">
        <ele>6.9</ele>
        <time>2022-05-31T13:51:46Z</time>
      </trkpt>
      <trkpt lat="49.2391" lon="-0.26355">
        <ele>6.9</ele>
        <time>2022-05-31T13:51:47Z</time>
      </trkpt>
      <trkpt lat="49.2391" lon="-0.26355">
        <ele>6.9</ele>
        <time>2022-05-31T13:51:48Z</time>
      </trkpt>
      <trkpt lat="49.2391" lon="-0.26355">
        <ele>6.9</ele>
        <time>2022-05-31T13:51:49Z</time>
      </trkpt>
      <trkpt lat="49.2391" lon="-0.26355">
        <ele>6.9</ele>
        <time>2022-05-31T13:51:50Z</time>
      </trkpt>
      <trkpt lat="49.2391" lon="-0.26355">
        <ele>6.9</ele>
        <time>2022-05-31T13:51:51Z</time>
      </trkpt>
      <trkpt lat="49.2391" lon="-0.26355">
        <ele>6.9</ele>
        <time>2022-05-31T13:51:52Z</time>
      </trkpt>
      <trkpt lat="49.2391" lon="-0.26355">
        <ele>6.9</ele>
        <time>2022-05-31T13:51:53Z</time>
      </trkpt>
      <trkpt lat="49.2391" lon="-0.26355">
        <ele>6.9</ele>
        <time>2022-05-31T13:51:54Z</time>
      </trkpt>
      <trkpt lat="49.2391" lon="-0.26355">
        <ele>6.9</ele>
        <time>2022-05-31T13:51:55Z</time>
      </trkpt>
      <trkpt lat="49.2391" lon="-0.26355">
        <ele>6.9</ele>
        <time>2022-05-31T13:51:56Z</time>
      </trkpt>
      <trkpt lat="49.2391" lon="-0.26355">
        <ele>6.9</ele>
        <time>2022-05-31T13:51:57Z</time>
      </trkpt>
      <trkpt lat="49.2391" lon="-0.26355">
        <ele>6.9</ele>
        <time>2022-05-31T13:51:58Z</time>
      </trkpt>
      <trkpt lat="49.2391" lon="-0.26355">
        <ele>6.9</ele>
        <time>2022-05-31T13:51:59Z</time>
      </trkpt>
      <trkpt lat="49.2391" lon="-0.26355">
        <ele>6.9</ele>
        <time>2022-05-31T13:52:00Z</time>
      </trkpt>
      <trkpt lat="49.2391" lon="-0.26355">
        <ele>6.9</ele>
        <time>2022-05-31T13:52:01Z</time>
      </trkpt>
      <trkpt lat="49.2391" lon="-0.26357">
        <ele>6.9</ele>
        <time>2022-05-31T13:52:02Z</time>
      </trkpt>
      <trkpt lat="49.23909" lon="-0.26359">
        <ele>6.9</ele>
        <time>2022-05-31T13:52:03Z</time>
      </trkpt>
      <trkpt lat="49.23909" lon="-0.2636">
        <ele>6.9</ele>
        <time>2022-05-31T13:52:04Z</time>
      </trkpt>
      <trkpt lat="49.23909" lon="-0.26361">
        <ele>6.9</ele>
        <time>2022-05-31T13:52:05Z</time>
      </trkpt>
      <trkpt lat="49.23909" lon="-0.2636">
        <ele>6.9</ele>
        <time>2022-05-31T13:52:06Z</time>
      </trkpt>
      <trkpt lat="49.23908" lon="-0.2636">
        <ele>6.9</ele>
        <time>2022-05-31T13:52:07Z</time>
      </trkpt>
      <trkpt lat="49.23908" lon="-0.2636">
        <ele>6.9</ele>
        <time>2022-05-31T13:52:08Z</time>
      </trkpt>
      <trkpt lat="49.23908" lon="-0.2636">
        <ele>6.9</ele>
        <time>2022-05-31T13:52:09Z</time>
      </trkpt>
      <trkpt lat="49.23908" lon="-0.2636">
        <ele>7</ele>
        <time>2022-05-31T13:52:10Z</time>
      </trkpt>
      <trkpt lat="49.23908" lon="-0.2636">
        <ele>7</ele>
        <time>2022-05-31T13:52:11Z</time>
      </trkpt>
      <trkpt lat="49.23908" lon="-0.26361">
        <ele>7</ele>
        <time>2022-05-31T13:52:12Z</time>
      </trkpt>
      <trkpt lat="49.23908" lon="-0.26361">
        <ele>7</ele>
        <time>2022-05-31T13:52:13Z</time>
      </trkpt>
      <trkpt lat="49.23908" lon="-0.26361">
        <ele>7</ele>
        <time>2022-05-31T13:52:14Z</time>
      </trkpt>
      <trkpt lat="49.23908" lon="-0.26361">
        <ele>7</ele>
        <time>2022-05-31T13:52:15Z</time>
      </trkpt>
      <trkpt lat="49.23908" lon="-0.26361">
        <ele>7</ele>
        <time>2022-05-31T13:52:16Z</time>
      </trkpt>
      <trkpt lat="49.23908" lon="-0.26361">
        <ele>7</ele>
        <time>2022-05-31T13:52:17Z</time>
      </trkpt>
      <trkpt lat="49.23908" lon="-0.26361">
        <ele>7</ele>
        <time>2022-05-31T13:52:18Z</time>
      </trkpt>
      <trkpt lat="49.23908" lon="-0.26361">
        <ele>7</ele>
        <time>2022-05-31T13:52:19Z</time>
      </trkpt>
      <trkpt lat="49.23908" lon="-0.26361">
        <ele>7</ele>
        <time>2022-05-31T13:52:20Z</time>
      </trkpt>
      <trkpt lat="49.23908" lon="-0.26361">
        <ele>7</ele>
        <time>2022-05-31T13:52:21Z</time>
      </trkpt>
      <trkpt lat="49.23908" lon="-0.26361">
        <ele>7</ele>
        <time>2022-05-31T13:52:22Z</time>
      </trkpt>
      <trkpt lat="49.23908" lon="-0.26361">
        <ele>7</ele>
        <time>2022-05-31T13:52:23Z</time>
      </trkpt>
      <trkpt lat="49.23908" lon="-0.26361">
        <ele>7</ele>
        <time>2022-05-31T13:52:24Z</time>
      </trkpt>
      <trkpt lat="49.23908" lon="-0.26361">
        <ele>7</ele>
        <time>2022-05-31T13:52:25Z</time>
      </trkpt>
      <trkpt lat="49.23908" lon="-0.26361">
        <ele>7</ele>
        <time>2022-05-31T13:52:26Z</time>
      </trkpt>
      <trkpt lat="49.23908" lon="-0.26361">
        <ele>7</ele>
        <time>2022-05-31T13:52:27Z</time>
      </trkpt>
      <trkpt lat="49.23908" lon="-0.26361">
        <ele>7</ele>
        <time>2022-05-31T13:52:28Z</time>
      </trkpt>
      <trkpt lat="49.23908" lon="-0.26361">
        <ele>7</ele>
        <time>2022-05-31T13:52:29Z</time>
      </trkpt>
      <trkpt lat="49.23908" lon="-0.26361">
        <ele>7</ele>
        <time>2022-05-31T13:52:30Z</time>
      </trkpt>
      <trkpt lat="49.23908" lon="-0.26361">
        <ele>7</ele>
        <time>2022-05-31T13:52:31Z</time>
      </trkpt>
      <trkpt lat="49.23908" lon="-0.26361">
        <ele>7</ele>
        <time>2022-05-31T13:52:32Z</time>
      </trkpt>
      <trkpt lat="49.23908" lon="-0.26361">
        <ele>7</ele>
        <time>2022-05-31T13:52:33Z</time>
      </trkpt>
      <trkpt lat="49.23908" lon="-0.26361">
        <ele>7</ele>
        <time>2022-05-31T13:52:34Z</time>
      </trkpt>
      <trkpt lat="49.23908" lon="-0.26361">
        <ele>7</ele>
        <time>2022-05-31T13:52:35Z</time>
      </trkpt>
      <trkpt lat="49.23908" lon="-0.26361">
        <ele>7</ele>
        <time>2022-05-31T13:52:36Z</time>
      </trkpt>
      <trkpt lat="49.23908" lon="-0.26361">
        <ele>7</ele>
        <time>2022-05-31T13:52:37Z</time>
      </trkpt>
      <trkpt lat="49.23908" lon="-0.26361">
        <ele>7</ele>
        <time>2022-05-31T13:52:38Z</time>
      </trkpt>
      <trkpt lat="49.23908" lon="-0.26361">
        <ele>7</ele>
        <time>2022-05-31T13:52:39Z</time>
      </trkpt>
      <trkpt lat="49.23908" lon="-0.26361">
        <ele>7</ele>
        <time>2022-05-31T13:52:40Z</time>
      </trkpt>
      <trkpt lat="49.23908" lon="-0.26361">
        <ele>7</ele>
        <time>2022-05-31T13:52:41Z</time>
      </trkpt>
      <trkpt lat="49.23908" lon="-0.26361">
        <ele>7</ele>
        <time>2022-05-31T13:52:42Z</time>
      </trkpt>
      <trkpt lat="49.23908" lon="-0.26361">
        <ele>7</ele>
        <time>2022-05-31T13:52:43Z</time>
      </trkpt>
      <trkpt lat="49.23908" lon="-0.26361">
        <ele>7</ele>
        <time>2022-05-31T13:52:44Z</time>
      </trkpt>
      <trkpt lat="49.23908" lon="-0.26361">
        <ele>7</ele>
        <time>2022-05-31T13:52:45Z</time>
      </trkpt>
      <trkpt lat="49.23908" lon="-0.26361">
        <ele>7</ele>
        <time>2022-05-31T13:52:46Z</time>
      </trkpt>
      <trkpt lat="49.23908" lon="-0.26361">
        <ele>7</ele>
        <time>2022-05-31T13:52:47Z</time>
      </trkpt>
      <trkpt lat="49.23908" lon="-0.26361">
        <ele>7</ele>
        <time>2022-05-31T13:52:48Z</time>
      </trkpt>
      <trkpt lat="49.23908" lon="-0.26361">
        <ele>7</ele>
        <time>2022-05-31T13:52:49Z</time>
      </trkpt>
      <trkpt lat="49.23908" lon="-0.26361">
        <ele>7</ele>
        <time>2022-05-31T13:52:50Z</time>
      </trkpt>
      <trkpt lat="49.23908" lon="-0.26361">
        <ele>7</ele>
        <time>2022-05-31T13:52:51Z</time>
      </trkpt>
      <trkpt lat="49.23908" lon="-0.26361">
        <ele>7</ele>
        <time>2022-05-31T13:52:52Z</time>
      </trkpt>
      <trkpt lat="49.23908" lon="-0.26361">
        <ele>7</ele>
        <time>2022-05-31T13:52:53Z</time>
      </trkpt>
      <trkpt lat="49.23908" lon="-0.26361">
        <ele>7</ele>
        <time>2022-05-31T13:52:54Z</time>
      </trkpt>
      <trkpt lat="49.23908" lon="-0.26361">
        <ele>7</ele>
        <time>2022-05-31T13:52:55Z</time>
      </trkpt>
      <trkpt lat="49.23908" lon="-0.26361">
        <ele>7</ele>
        <time>2022-05-31T13:52:56Z</time>
      </trkpt>
      <trkpt lat="49.23908" lon="-0.26361">
        <ele>7</ele>
        <time>2022-05-31T13:52:57Z</time>
      </trkpt>
      <trkpt lat="49.23908" lon="-0.26361">
        <ele>7</ele>
        <time>2022-05-31T13:52:58Z</time>
      </trkpt>
      <trkpt lat="49.23908" lon="-0.26361">
        <ele>7</ele>
        <time>2022-05-31T13:52:59Z</time>
      </trkpt>
      <trkpt lat="49.23908" lon="-0.26361">
        <ele>7</ele>
        <time>2022-05-31T13:53:00Z</time>
      </trkpt>
      <trkpt lat="49.23908" lon="-0.26361">
        <ele>7</ele>
        <time>2022-05-31T13:53:01Z</time>
      </trkpt>
      <trkpt lat="49.23908" lon="-0.26361">
        <ele>7</ele>
        <time>2022-05-31T13:53:02Z</time>
      </trkpt>
      <trkpt lat="49.23908" lon="-0.26361">
        <ele>7</ele>
        <time>2022-05-31T13:53:03Z</time>
      </trkpt>
      <trkpt lat="49.23908" lon="-0.26361">
        <ele>7</ele>
        <time>2022-05-31T13:53:04Z</time>
      </trkpt>
      <trkpt lat="49.23908" lon="-0.26361">
        <ele>7</ele>
        <time>2022-05-31T13:53:05Z</time>
      </trkpt>
      <trkpt lat="49.23908" lon="-0.26362">
        <ele>7</ele>
        <time>2022-05-31T13:53:06Z</time>
      </trkpt>
      <trkpt lat="49.23908" lon="-0.26363">
        <ele>7</ele>
        <time>2022-05-31T13:53:07Z</time>
      </trkpt>
      <trkpt lat="49.23909" lon="-0.26363">
        <ele>7</ele>
        <time>2022-05-31T13:53:08Z</time>
      </trkpt>
      <trkpt lat="49.23908" lon="-0.26364">
        <ele>7</ele>
        <time>2022-05-31T13:53:09Z</time>
      </trkpt>
      <trkpt lat="49.23908" lon="-0.26366">
        <ele>7</ele>
        <time>2022-05-31T13:53:10Z</time>
      </trkpt>
      <trkpt lat="49.23909" lon="-0.26367">
        <ele>7</ele>
        <time>2022-05-31T13:53:12Z</time>
      </trkpt>
      <trkpt lat="49.23909" lon="-0.26369">
        <ele>7</ele>
        <time>2022-05-31T13:53:13Z</time>
      </trkpt>
      <trkpt lat="49.2391" lon="-0.26371">
        <ele>7</ele>
        <time>2022-05-31T13:53:14Z</time>
      </trkpt>
      <trkpt lat="49.2391" lon="-0.26375">
        <ele>7</ele>
        <time>2022-05-31T13:53:15Z</time>
      </trkpt>
      <trkpt lat="49.2391" lon="-0.26376">
        <ele>7</ele>
        <time>2022-05-31T13:53:16Z</time>
      </trkpt>
      <trkpt lat="49.2391" lon="-0.26378">
        <ele>7</ele>
        <time>2022-05-31T13:53:17Z</time>
      </trkpt>
      <trkpt lat="49.2391" lon="-0.2638">
        <ele>7.1</ele>
        <time>2022-05-31T13:53:18Z</time>
      </trkpt>
      <trkpt lat="49.23911" lon="-0.26382">
        <ele>7.1</ele>
        <time>2022-05-31T13:53:19Z</time>
      </trkpt>
      <trkpt lat="49.23912" lon="-0.26383">
        <ele>7.1</ele>
        <time>2022-05-31T13:53:20Z</time>
      </trkpt>
      <trkpt lat="49.23912" lon="-0.26385">
        <ele>7.1</ele>
        <time>2022-05-31T13:53:22Z</time>
      </trkpt>
      <trkpt lat="49.23912" lon="-0.26385">
        <ele>7.1</ele>
        <time>2022-05-31T13:53:23Z</time>
      </trkpt>
      <trkpt lat="49.23913" lon="-0.26386">
        <ele>7.1</ele>
        <time>2022-05-31T13:53:24Z</time>
      </trkpt>
      <trkpt lat="49.23912" lon="-0.26384">
        <ele>7.1</ele>
        <time>2022-05-31T13:53:25Z</time>
      </trkpt>
      <trkpt lat="49.23911" lon="-0.26384">
        <ele>7.1</ele>
        <time>2022-05-31T13:53:26Z</time>
      </trkpt>
      <trkpt lat="49.23911" lon="-0.26383">
        <ele>7.1</ele>
        <time>2022-05-31T13:53:27Z</time>
      </trkpt>
      <trkpt lat="49.23911" lon="-0.26383">
        <ele>7.1</ele>
        <time>2022-05-31T13:53:28Z</time>
      </trkpt>
      <trkpt lat="49.23911" lon="-0.26383">
        <ele>7.1</ele>
        <time>2022-05-31T13:53:29Z</time>
      </trkpt>
      <trkpt lat="49.23911" lon="-0.26382">
        <ele>7.1</ele>
        <time>2022-05-31T13:53:30Z</time>
      </trkpt>
      <trkpt lat="49.23911" lon="-0.26382">
        <ele>7.1</ele>
        <time>2022-05-31T13:53:31Z</time>
      </trkpt>
      <trkpt lat="49.23911" lon="-0.26383">
        <ele>7.1</ele>
        <time>2022-05-31T13:53:32Z</time>
      </trkpt>
      <trkpt lat="49.23911" lon="-0.26383">
        <ele>7.1</ele>
        <time>2022-05-31T13:53:33Z</time>
      </trkpt>
      <trkpt lat="49.23911" lon="-0.26383">
        <ele>7.1</ele>
        <time>2022-05-31T13:53:34Z</time>
      </trkpt>
      <trkpt lat="49.23911" lon="-0.26384">
        <ele>7.1</ele>
        <time>2022-05-31T13:53:35Z</time>
      </trkpt>
      <trkpt lat="49.23911" lon="-0.26384">
        <ele>7.1</ele>
        <time>2022-05-31T13:53:36Z</time>
      </trkpt>
      <trkpt lat="49.23911" lon="-0.26384">
        <ele>7.1</ele>
        <time>2022-05-31T13:53:37Z</time>
      </trkpt>
      <trkpt lat="49.23911" lon="-0.26384">
        <ele>7.1</ele>
        <time>2022-05-31T13:53:38Z</time>
      </trkpt>
      <trkpt lat="49.23912" lon="-0.26384">
        <ele>7.1</ele>
        <time>2022-05-31T13:53:39Z</time>
      </trkpt>
      <trkpt lat="49.23912" lon="-0.26384">
        <ele>7.1</ele>
        <time>2022-05-31T13:53:40Z</time>
      </trkpt>
      <trkpt lat="49.23912" lon="-0.26384">
        <ele>7.1</ele>
        <time>2022-05-31T13:53:41Z</time>
      </trkpt>
      <trkpt lat="49.23912" lon="-0.26384">
        <ele>7.1</ele>
        <time>2022-05-31T13:53:42Z</time>
      </trkpt>
      <trkpt lat="49.23912" lon="-0.26385">
        <ele>7.1</ele>
        <time>2022-05-31T13:53:43Z</time>
      </trkpt>
      <trkpt lat="49.23913" lon="-0.26384">
        <ele>7.1</ele>
        <time>2022-05-31T13:53:44Z</time>
      </trkpt>
      <trkpt lat="49.23913" lon="-0.26384">
        <ele>7.1</ele>
        <time>2022-05-31T13:53:45Z</time>
      </trkpt>
      <trkpt lat="49.23913" lon="-0.26384">
        <ele>7.1</ele>
        <time>2022-05-31T13:53:46Z</time>
      </trkpt>
      <trkpt lat="49.23913" lon="-0.26384">
        <ele>7.1</ele>
        <time>2022-05-31T13:53:47Z</time>
      </trkpt>
      <trkpt lat="49.23913" lon="-0.26384">
        <ele>7.1</ele>
        <time>2022-05-31T13:53:48Z</time>
      </trkpt>
      <trkpt lat="49.23913" lon="-0.26384">
        <ele>7.1</ele>
        <time>2022-05-31T13:53:49Z</time>
      </trkpt>
      <trkpt lat="49.23913" lon="-0.26384">
        <ele>7.1</ele>
        <time>2022-05-31T13:53:50Z</time>
      </trkpt>
      <trkpt lat="49.23913" lon="-0.26384">
        <ele>7.1</ele>
        <time>2022-05-31T13:53:51Z</time>
      </trkpt>
      <trkpt lat="49.23913" lon="-0.26384">
        <ele>7.1</ele>
        <time>2022-05-31T13:53:52Z</time>
      </trkpt>
      <trkpt lat="49.23913" lon="-0.26384">
        <ele>7.1</ele>
        <time>2022-05-31T13:53:53Z</time>
      </trkpt>
      <trkpt lat="49.23913" lon="-0.26384">
        <ele>7.1</ele>
        <time>2022-05-31T13:53:54Z</time>
      </trkpt>
      <trkpt lat="49.23913" lon="-0.26384">
        <ele>7.1</ele>
        <time>2022-05-31T13:53:55Z</time>
      </trkpt>
      <trkpt lat="49.23913" lon="-0.26384">
        <ele>7.1</ele>
        <time>2022-05-31T13:53:56Z</time>
      </trkpt>
      <trkpt lat="49.23913" lon="-0.26384">
        <ele>7.1</ele>
        <time>2022-05-31T13:53:57Z</time>
      </trkpt>
      <trkpt lat="49.23913" lon="-0.26384">
        <ele>7.1</ele>
        <time>2022-05-31T13:53:58Z</time>
      </trkpt>
      <trkpt lat="49.23913" lon="-0.26384">
        <ele>7.1</ele>
        <time>2022-05-31T13:53:59Z</time>
      </trkpt>
      <trkpt lat="49.23914" lon="-0.26385">
        <ele>7.1</ele>
        <time>2022-05-31T13:54:00Z</time>
      </trkpt>
      <trkpt lat="49.23914" lon="-0.26385">
        <ele>7.1</ele>
        <time>2022-05-31T13:54:02Z</time>
      </trkpt>
      <trkpt lat="49.23914" lon="-0.26385">
        <ele>7.1</ele>
        <time>2022-05-31T13:54:03Z</time>
      </trkpt>
      <trkpt lat="49.23915" lon="-0.26386">
        <ele>7.1</ele>
        <time>2022-05-31T13:54:04Z</time>
      </trkpt>
      <trkpt lat="49.23915" lon="-0.26387">
        <ele>7.1</ele>
        <time>2022-05-31T13:54:05Z</time>
      </trkpt>
      <trkpt lat="49.23916" lon="-0.26389">
        <ele>7.1</ele>
        <time>2022-05-31T13:54:07Z</time>
      </trkpt>
      <trkpt lat="49.23917" lon="-0.2639">
        <ele>7.1</ele>
        <time>2022-05-31T13:54:08Z</time>
      </trkpt>
      <trkpt lat="49.23917" lon="-0.26392">
        <ele>7.1</ele>
        <time>2022-05-31T13:54:09Z</time>
      </trkpt>
      <trkpt lat="49.23917" lon="-0.26394">
        <ele>7.1</ele>
        <time>2022-05-31T13:54:11Z</time>
      </trkpt>
      <trkpt lat="49.23916" lon="-0.26398">
        <ele>7.1</ele>
        <time>2022-05-31T13:54:13Z</time>
      </trkpt>
      <trkpt lat="49.23917" lon="-0.264">
        <ele>7.1</ele>
        <time>2022-05-31T13:54:14Z</time>
      </trkpt>
      <trkpt lat="49.23917" lon="-0.26401">
        <ele>7.1</ele>
        <time>2022-05-31T13:54:15Z</time>
      </trkpt>
      <trkpt lat="49.23918" lon="-0.26402">
        <ele>7.1</ele>
        <time>2022-05-31T13:54:16Z</time>
      </trkpt>
      <trkpt lat="49.23919" lon="-0.26402">
        <ele>7.1</ele>
        <time>2022-05-31T13:54:17Z</time>
      </trkpt>
      <trkpt lat="49.2392" lon="-0.26403">
        <ele>7.1</ele>
        <time>2022-05-31T13:54:18Z</time>
      </trkpt>
      <trkpt lat="49.2392" lon="-0.26404">
        <ele>7.1</ele>
        <time>2022-05-31T13:54:19Z</time>
      </trkpt>
      <trkpt lat="49.23921" lon="-0.26405">
        <ele>7.1</ele>
        <time>2022-05-31T13:54:20Z</time>
      </trkpt>
      <trkpt lat="49.23922" lon="-0.26407">
        <ele>7.1</ele>
        <time>2022-05-31T13:54:21Z</time>
      </trkpt>
      <trkpt lat="49.23923" lon="-0.26409">
        <ele>7.1</ele>
        <time>2022-05-31T13:54:22Z</time>
      </trkpt>
      <trkpt lat="49.23924" lon="-0.26411">
        <ele>7.1</ele>
        <time>2022-05-31T13:54:23Z</time>
      </trkpt>
      <trkpt lat="49.23925" lon="-0.26413">
        <ele>7.1</ele>
        <time>2022-05-31T13:54:24Z</time>
      </trkpt>
      <trkpt lat="49.23925" lon="-0.26414">
        <ele>7.1</ele>
        <time>2022-05-31T13:54:25Z</time>
      </trkpt>
      <trkpt lat="49.23926" lon="-0.26415">
        <ele>7.1</ele>
        <time>2022-05-31T13:54:26Z</time>
      </trkpt>
      <trkpt lat="49.23927" lon="-0.26416">
        <ele>7.1</ele>
        <time>2022-05-31T13:54:27Z</time>
      </trkpt>
      <trkpt lat="49.23928" lon="-0.26417">
        <ele>7.1</ele>
        <time>2022-05-31T13:54:28Z</time>
      </trkpt>
      <trkpt lat="49.23929" lon="-0.26418">
        <ele>7.1</ele>
        <time>2022-05-31T13:54:29Z</time>
      </trkpt>
      <trkpt lat="49.2393" lon="-0.26418">
        <ele>7.1</ele>
        <time>2022-05-31T13:54:30Z</time>
      </trkpt>
      <trkpt lat="49.23931" lon="-0.26418">
        <ele>7.1</ele>
        <time>2022-05-31T13:54:32Z</time>
      </trkpt>
      <trkpt lat="49.23931" lon="-0.26418">
        <ele>7.1</ele>
        <time>2022-05-31T13:54:33Z</time>
      </trkpt>
      <trkpt lat="49.23933" lon="-0.26417">
        <ele>7.1</ele>
        <time>2022-05-31T13:54:34Z</time>
      </trkpt>
      <trkpt lat="49.23934" lon="-0.26417">
        <ele>7.1</ele>
        <time>2022-05-31T13:54:35Z</time>
      </trkpt>
      <trkpt lat="49.23935" lon="-0.26416">
        <ele>7.1</ele>
        <time>2022-05-31T13:54:36Z</time>
      </trkpt>
      <trkpt lat="49.23937" lon="-0.26416">
        <ele>7.1</ele>
        <time>2022-05-31T13:54:37Z</time>
      </trkpt>
      <trkpt lat="49.23938" lon="-0.26414">
        <ele>7.1</ele>
        <time>2022-05-31T13:54:38Z</time>
      </trkpt>
      <trkpt lat="49.2394" lon="-0.26414">
        <ele>7.1</ele>
        <time>2022-05-31T13:54:39Z</time>
      </trkpt>
      <trkpt lat="49.23941" lon="-0.26413">
        <ele>7.1</ele>
        <time>2022-05-31T13:54:40Z</time>
      </trkpt>
      <trkpt lat="49.23942" lon="-0.26413">
        <ele>7.1</ele>
        <time>2022-05-31T13:54:41Z</time>
      </trkpt>
      <trkpt lat="49.23944" lon="-0.26414">
        <ele>7.1</ele>
        <time>2022-05-31T13:54:42Z</time>
      </trkpt>
      <trkpt lat="49.23945" lon="-0.26414">
        <ele>7.1</ele>
        <time>2022-05-31T13:54:44Z</time>
      </trkpt>
      <trkpt lat="49.23946" lon="-0.26414">
        <ele>7.1</ele>
        <time>2022-05-31T13:54:45Z</time>
      </trkpt>
      <trkpt lat="49.23948" lon="-0.26413">
        <ele>7.1</ele>
        <time>2022-05-31T13:54:46Z</time>
      </trkpt>
      <trkpt lat="49.23949" lon="-0.26413">
        <ele>7.1</ele>
        <time>2022-05-31T13:54:47Z</time>
      </trkpt>
      <trkpt lat="49.2395" lon="-0.26413">
        <ele>7.1</ele>
        <time>2022-05-31T13:54:48Z</time>
      </trkpt>
      <trkpt lat="49.23951" lon="-0.26413">
        <ele>7.1</ele>
        <time>2022-05-31T13:54:49Z</time>
      </trkpt>
      <trkpt lat="49.23952" lon="-0.26413">
        <ele>7.1</ele>
        <time>2022-05-31T13:54:50Z</time>
      </trkpt>
      <trkpt lat="49.23953" lon="-0.26413">
        <ele>7.1</ele>
        <time>2022-05-31T13:54:51Z</time>
      </trkpt>
      <trkpt lat="49.23954" lon="-0.26413">
        <ele>7.1</ele>
        <time>2022-05-31T13:54:52Z</time>
      </trkpt>
      <trkpt lat="49.23955" lon="-0.26414">
        <ele>7.1</ele>
        <time>2022-05-31T13:54:54Z</time>
      </trkpt>
      <trkpt lat="49.23956" lon="-0.26415">
        <ele>7.1</ele>
        <time>2022-05-31T13:54:55Z</time>
      </trkpt>
      <trkpt lat="49.23958" lon="-0.26416">
        <ele>7.1</ele>
        <time>2022-05-31T13:54:56Z</time>
      </trkpt>
      <trkpt lat="49.23959" lon="-0.26417">
        <ele>7.1</ele>
        <time>2022-05-31T13:54:57Z</time>
      </trkpt>
      <trkpt lat="49.23959" lon="-0.26417">
        <ele>7.1</ele>
        <time>2022-05-31T13:54:58Z</time>
      </trkpt>
      <trkpt lat="49.2396" lon="-0.26418">
        <ele>7.1</ele>
        <time>2022-05-31T13:54:59Z</time>
      </trkpt>
      <trkpt lat="49.23961" lon="-0.26419">
        <ele>7.1</ele>
        <time>2022-05-31T13:55:00Z</time>
      </trkpt>
      <trkpt lat="49.23961" lon="-0.26421">
        <ele>7.1</ele>
        <time>2022-05-31T13:55:01Z</time>
      </trkpt>
      <trkpt lat="49.23962" lon="-0.26422">
        <ele>7.1</ele>
        <time>2022-05-31T13:55:03Z</time>
      </trkpt>
      <trkpt lat="49.23963" lon="-0.26424">
        <ele>7.1</ele>
        <time>2022-05-31T13:55:04Z</time>
      </trkpt>
      <trkpt lat="49.23963" lon="-0.26425">
        <ele>7.1</ele>
        <time>2022-05-31T13:55:05Z</time>
      </trkpt>
      <trkpt lat="49.23964" lon="-0.26426">
        <ele>7.1</ele>
        <time>2022-05-31T13:55:06Z</time>
      </trkpt>
      <trkpt lat="49.23965" lon="-0.26428">
        <ele>7.1</ele>
        <time>2022-05-31T13:55:07Z</time>
      </trkpt>
      <trkpt lat="49.23965" lon="-0.26429">
        <ele>7.1</ele>
        <time>2022-05-31T13:55:08Z</time>
      </trkpt>
      <trkpt lat="49.23966" lon="-0.2643">
        <ele>7.1</ele>
        <time>2022-05-31T13:55:09Z</time>
      </trkpt>
      <trkpt lat="49.23967" lon="-0.26431">
        <ele>7.1</ele>
        <time>2022-05-31T13:55:10Z</time>
      </trkpt>
      <trkpt lat="49.23968" lon="-0.26433">
        <ele>7.1</ele>
        <time>2022-05-31T13:55:11Z</time>
      </trkpt>
      <trkpt lat="49.23969" lon="-0.26434">
        <ele>7.1</ele>
        <time>2022-05-31T13:55:13Z</time>
      </trkpt>
      <trkpt lat="49.23969" lon="-0.26435">
        <ele>7.1</ele>
        <time>2022-05-31T13:55:14Z</time>
      </trkpt>
      <trkpt lat="49.2397" lon="-0.26436">
        <ele>7.1</ele>
        <time>2022-05-31T13:55:15Z</time>
      </trkpt>
      <trkpt lat="49.2397" lon="-0.26437">
        <ele>7.1</ele>
        <time>2022-05-31T13:55:16Z</time>
      </trkpt>
      <trkpt lat="49.23971" lon="-0.26438">
        <ele>7.1</ele>
        <time>2022-05-31T13:55:17Z</time>
      </trkpt>
      <trkpt lat="49.23971" lon="-0.26439">
        <ele>7.1</ele>
        <time>2022-05-31T13:55:18Z</time>
      </trkpt>
      <trkpt lat="49.23972" lon="-0.2644">
        <ele>7.1</ele>
        <time>2022-05-31T13:55:19Z</time>
      </trkpt>
      <trkpt lat="49.23973" lon="-0.26442">
        <ele>7.1</ele>
        <time>2022-05-31T13:55:20Z</time>
      </trkpt>
      <trkpt lat="49.23973" lon="-0.26443">
        <ele>7.1</ele>
        <time>2022-05-31T13:55:21Z</time>
      </trkpt>
      <trkpt lat="49.23973" lon="-0.26445">
        <ele>7.1</ele>
        <time>2022-05-31T13:55:22Z</time>
      </trkpt>
      <trkpt lat="49.23973" lon="-0.26446">
        <ele>7.1</ele>
        <time>2022-05-31T13:55:23Z</time>
      </trkpt>
      <trkpt lat="49.23974" lon="-0.26448">
        <ele>7.1</ele>
        <time>2022-05-31T13:55:24Z</time>
      </trkpt>
      <trkpt lat="49.23974" lon="-0.2645">
        <ele>6.9</ele>
        <time>2022-05-31T13:55:25Z</time>
      </trkpt>
      <trkpt lat="49.23974" lon="-0.26451">
        <ele>6.9</ele>
        <time>2022-05-31T13:55:26Z</time>
      </trkpt>
      <trkpt lat="49.23974" lon="-0.26453">
        <ele>6.8</ele>
        <time>2022-05-31T13:55:27Z</time>
      </trkpt>
      <trkpt lat="49.23974" lon="-0.26455">
        <ele>6.7</ele>
        <time>2022-05-31T13:55:28Z</time>
      </trkpt>
      <trkpt lat="49.23974" lon="-0.26457">
        <ele>6.6</ele>
        <time>2022-05-31T13:55:29Z</time>
      </trkpt>
      <trkpt lat="49.23972" lon="-0.26459">
        <ele>6.5</ele>
        <time>2022-05-31T13:55:30Z</time>
      </trkpt>
      <trkpt lat="49.2397" lon="-0.26461">
        <ele>6.3</ele>
        <time>2022-05-31T13:55:31Z</time>
      </trkpt>
      <trkpt lat="49.2397" lon="-0.26462">
        <ele>6.3</ele>
        <time>2022-05-31T13:55:32Z</time>
      </trkpt>
      <trkpt lat="49.23969" lon="-0.26463">
        <ele>6.2</ele>
        <time>2022-05-31T13:55:33Z</time>
      </trkpt>
      <trkpt lat="49.23968" lon="-0.26465">
        <ele>6.1</ele>
        <time>2022-05-31T13:55:34Z</time>
      </trkpt>
      <trkpt lat="49.23968" lon="-0.26466">
        <ele>6</ele>
        <time>2022-05-31T13:55:35Z</time>
      </trkpt>
      <trkpt lat="49.23967" lon="-0.26468">
        <ele>5.9</ele>
        <time>2022-05-31T13:55:37Z</time>
      </trkpt>
      <trkpt lat="49.23966" lon="-0.26471">
        <ele>5.8</ele>
        <time>2022-05-31T13:55:38Z</time>
      </trkpt>
      <trkpt lat="49.23966" lon="-0.26472">
        <ele>5.7</ele>
        <time>2022-05-31T13:55:39Z</time>
      </trkpt>
      <trkpt lat="49.23966" lon="-0.26474">
        <ele>5.6</ele>
        <time>2022-05-31T13:55:40Z</time>
      </trkpt>
      <trkpt lat="49.23966" lon="-0.26476">
        <ele>5.5</ele>
        <time>2022-05-31T13:55:41Z</time>
      </trkpt>
      <trkpt lat="49.23966" lon="-0.26479">
        <ele>5.4</ele>
        <time>2022-05-31T13:55:42Z</time>
      </trkpt>
      <trkpt lat="49.23967" lon="-0.26482">
        <ele>5.3</ele>
        <time>2022-05-31T13:55:44Z</time>
      </trkpt>
      <trkpt lat="49.23967" lon="-0.26483">
        <ele>5.2</ele>
        <time>2022-05-31T13:55:45Z</time>
      </trkpt>
      <trkpt lat="49.23967" lon="-0.26484">
        <ele>5.2</ele>
        <time>2022-05-31T13:55:46Z</time>
      </trkpt>
      <trkpt lat="49.23968" lon="-0.26487">
        <ele>5.1</ele>
        <time>2022-05-31T13:55:47Z</time>
      </trkpt>
      <trkpt lat="49.23968" lon="-0.26488">
        <ele>5</ele>
        <time>2022-05-31T13:55:48Z</time>
      </trkpt>
      <trkpt lat="49.23968" lon="-0.2649">
        <ele>5</ele>
        <time>2022-05-31T13:55:49Z</time>
      </trkpt>
      <trkpt lat="49.23968" lon="-0.26493">
        <ele>4.9</ele>
        <time>2022-05-31T13:55:50Z</time>
      </trkpt>
      <trkpt lat="49.23968" lon="-0.26494">
        <ele>4.8</ele>
        <time>2022-05-31T13:55:51Z</time>
      </trkpt>
      <trkpt lat="49.23968" lon="-0.26495">
        <ele>4.8</ele>
        <time>2022-05-31T13:55:52Z</time>
      </trkpt>
      <trkpt lat="49.23968" lon="-0.26497">
        <ele>4.7</ele>
        <time>2022-05-31T13:55:53Z</time>
      </trkpt>
      <trkpt lat="49.23968" lon="-0.26501">
        <ele>4.6</ele>
        <time>2022-05-31T13:55:54Z</time>
      </trkpt>
      <trkpt lat="49.23968" lon="-0.26502">
        <ele>4.6</ele>
        <time>2022-05-31T13:55:55Z</time>
      </trkpt>
      <trkpt lat="49.23968" lon="-0.26503">
        <ele>4.6</ele>
        <time>2022-05-31T13:55:56Z</time>
      </trkpt>
      <trkpt lat="49.23968" lon="-0.26505">
        <ele>4.5</ele>
        <time>2022-05-31T13:55:57Z</time>
      </trkpt>
      <trkpt lat="49.23967" lon="-0.26509">
        <ele>4.4</ele>
        <time>2022-05-31T13:55:59Z</time>
      </trkpt>
      <trkpt lat="49.23966" lon="-0.2651">
        <ele>4.4</ele>
        <time>2022-05-31T13:56:00Z</time>
      </trkpt>
      <trkpt lat="49.23966" lon="-0.26511">
        <ele>4.3</ele>
        <time>2022-05-31T13:56:01Z</time>
      </trkpt>
      <trkpt lat="49.23965" lon="-0.26513">
        <ele>4.3</ele>
        <time>2022-05-31T13:56:02Z</time>
      </trkpt>
      <trkpt lat="49.23965" lon="-0.26514">
        <ele>4.2</ele>
        <time>2022-05-31T13:56:03Z</time>
      </trkpt>
      <trkpt lat="49.23964" lon="-0.26516">
        <ele>4.2</ele>
        <time>2022-05-31T13:56:04Z</time>
      </trkpt>
      <trkpt lat="49.23964" lon="-0.26518">
        <ele>4.1</ele>
        <time>2022-05-31T13:56:05Z</time>
      </trkpt>
      <trkpt lat="49.23963" lon="-0.26522">
        <ele>4.1</ele>
        <time>2022-05-31T13:56:06Z</time>
      </trkpt>
      <trkpt lat="49.23963" lon="-0.26523">
        <ele>4.1</ele>
        <time>2022-05-31T13:56:07Z</time>
      </trkpt>
      <trkpt lat="49.23963" lon="-0.26524">
        <ele>4</ele>
        <time>2022-05-31T13:56:08Z</time>
      </trkpt>
      <trkpt lat="49.23962" lon="-0.26526">
        <ele>4</ele>
        <time>2022-05-31T13:56:10Z</time>
      </trkpt>
      <trkpt lat="49.23962" lon="-0.26527">
        <ele>4</ele>
        <time>2022-05-31T13:56:11Z</time>
      </trkpt>
      <trkpt lat="49.23961" lon="-0.26528">
        <ele>3.9</ele>
        <time>2022-05-31T13:56:12Z</time>
      </trkpt>
      <trkpt lat="49.23961" lon="-0.26532">
        <ele>3.9</ele>
        <time>2022-05-31T13:56:13Z</time>
      </trkpt>
      <trkpt lat="49.2396" lon="-0.26533">
        <ele>3.6</ele>
        <time>2022-05-31T13:56:14Z</time>
      </trkpt>
      <trkpt lat="49.2396" lon="-0.26534">
        <ele>3.6</ele>
        <time>2022-05-31T13:56:15Z</time>
      </trkpt>
      <trkpt lat="49.2396" lon="-0.26536">
        <ele>3.6</ele>
        <time>2022-05-31T13:56:16Z</time>
      </trkpt>
      <trkpt lat="49.23959" lon="-0.26537">
        <ele>3.6</ele>
        <time>2022-05-31T13:56:17Z</time>
      </trkpt>
      <trkpt lat="49.23959" lon="-0.26539">
        <ele>3.6</ele>
        <time>2022-05-31T13:56:18Z</time>
      </trkpt>
      <trkpt lat="49.23959" lon="-0.26542">
        <ele>3.6</ele>
        <time>2022-05-31T13:56:20Z</time>
      </trkpt>
      <trkpt lat="49.23959" lon="-0.26543">
        <ele>3.5</ele>
        <time>2022-05-31T13:56:21Z</time>
      </trkpt>
      <trkpt lat="49.23959" lon="-0.26544">
        <ele>3.5</ele>
        <time>2022-05-31T13:56:22Z</time>
      </trkpt>
      <trkpt lat="49.2396" lon="-0.26546">
        <ele>3.5</ele>
        <time>2022-05-31T13:56:23Z</time>
      </trkpt>
      <trkpt lat="49.23961" lon="-0.26547">
        <ele>3.5</ele>
        <time>2022-05-31T13:56:24Z</time>
      </trkpt>
      <trkpt lat="49.23961" lon="-0.26548">
        <ele>3.5</ele>
        <time>2022-05-31T13:56:25Z</time>
      </trkpt>
      <trkpt lat="49.23962" lon="-0.2655">
        <ele>3.5</ele>
        <time>2022-05-31T13:56:26Z</time>
      </trkpt>
      <trkpt lat="49.23963" lon="-0.26551">
        <ele>3.5</ele>
        <time>2022-05-31T13:56:27Z</time>
      </trkpt>
      <trkpt lat="49.23964" lon="-0.26552">
        <ele>3.5</ele>
        <time>2022-05-31T13:56:28Z</time>
      </trkpt>
      <trkpt lat="49.23965" lon="-0.26553">
        <ele>3.5</ele>
        <time>2022-05-31T13:56:29Z</time>
      </trkpt>
      <trkpt lat="49.23965" lon="-0.26554">
        <ele>3.5</ele>
        <time>2022-05-31T13:56:30Z</time>
      </trkpt>
      <trkpt lat="49.23966" lon="-0.26555">
        <ele>3.5</ele>
        <time>2022-05-31T13:56:31Z</time>
      </trkpt>
      <trkpt lat="49.23966" lon="-0.26556">
        <ele>3.5</ele>
        <time>2022-05-31T13:56:33Z</time>
      </trkpt>
      <trkpt lat="49.23967" lon="-0.26557">
        <ele>3.5</ele>
        <time>2022-05-31T13:56:34Z</time>
      </trkpt>
      <trkpt lat="49.23967" lon="-0.26557">
        <ele>3.5</ele>
        <time>2022-05-31T13:56:35Z</time>
      </trkpt>
      <trkpt lat="49.23967" lon="-0.26558">
        <ele>3.5</ele>
        <time>2022-05-31T13:56:36Z</time>
      </trkpt>
      <trkpt lat="49.23967" lon="-0.26559">
        <ele>3.5</ele>
        <time>2022-05-31T13:56:37Z</time>
      </trkpt>
      <trkpt lat="49.23968" lon="-0.2656">
        <ele>3.5</ele>
        <time>2022-05-31T13:56:38Z</time>
      </trkpt>
      <trkpt lat="49.23968" lon="-0.26563">
        <ele>3.6</ele>
        <time>2022-05-31T13:56:39Z</time>
      </trkpt>
      <trkpt lat="49.23969" lon="-0.26564">
        <ele>3.6</ele>
        <time>2022-05-31T13:56:40Z</time>
      </trkpt>
      <trkpt lat="49.23969" lon="-0.26565">
        <ele>3.6</ele>
        <time>2022-05-31T13:56:41Z</time>
      </trkpt>
      <trkpt lat="49.23969" lon="-0.26566">
        <ele>3.6</ele>
        <time>2022-05-31T13:56:42Z</time>
      </trkpt>
      <trkpt lat="49.23969" lon="-0.26568">
        <ele>3.6</ele>
        <time>2022-05-31T13:56:44Z</time>
      </trkpt>
      <trkpt lat="49.23969" lon="-0.26569">
        <ele>3.6</ele>
        <time>2022-05-31T13:56:45Z</time>
      </trkpt>
      <trkpt lat="49.2397" lon="-0.26571">
        <ele>3.6</ele>
        <time>2022-05-31T13:56:46Z</time>
      </trkpt>
      <trkpt lat="49.2397" lon="-0.26572">
        <ele>3.6</ele>
        <time>2022-05-31T13:56:47Z</time>
      </trkpt>
      <trkpt lat="49.23971" lon="-0.26573">
        <ele>3.6</ele>
        <time>2022-05-31T13:56:48Z</time>
      </trkpt>
      <trkpt lat="49.23972" lon="-0.26575">
        <ele>3.7</ele>
        <time>2022-05-31T13:56:50Z</time>
      </trkpt>
      <trkpt lat="49.23974" lon="-0.26578">
        <ele>3.7</ele>
        <time>2022-05-31T13:56:51Z</time>
      </trkpt>
      <trkpt lat="49.23973" lon="-0.26579">
        <ele>3.7</ele>
        <time>2022-05-31T13:56:52Z</time>
      </trkpt>
      <trkpt lat="49.23974" lon="-0.2658">
        <ele>3.7</ele>
        <time>2022-05-31T13:56:53Z</time>
      </trkpt>
      <trkpt lat="49.23974" lon="-0.26582">
        <ele>3.8</ele>
        <time>2022-05-31T13:56:54Z</time>
      </trkpt>
      <trkpt lat="49.23974" lon="-0.26583">
        <ele>3.8</ele>
        <time>2022-05-31T13:56:55Z</time>
      </trkpt>
      <trkpt lat="49.23975" lon="-0.26584">
        <ele>3.8</ele>
        <time>2022-05-31T13:56:56Z</time>
      </trkpt>
      <trkpt lat="49.23975" lon="-0.26585">
        <ele>3.8</ele>
        <time>2022-05-31T13:56:57Z</time>
      </trkpt>
      <trkpt lat="49.23975" lon="-0.26587">
        <ele>3.8</ele>
        <time>2022-05-31T13:56:59Z</time>
      </trkpt>
      <trkpt lat="49.23975" lon="-0.26589">
        <ele>3.9</ele>
        <time>2022-05-31T13:57:00Z</time>
      </trkpt>
      <trkpt lat="49.23975" lon="-0.26591">
        <ele>3.9</ele>
        <time>2022-05-31T13:57:01Z</time>
      </trkpt>
      <trkpt lat="49.23976" lon="-0.26593">
        <ele>3.9</ele>
        <time>2022-05-31T13:57:02Z</time>
      </trkpt>
      <trkpt lat="49.23976" lon="-0.26595">
        <ele>4</ele>
        <time>2022-05-31T13:57:04Z</time>
      </trkpt>
      <trkpt lat="49.23977" lon="-0.26597">
        <ele>4.1</ele>
        <time>2022-05-31T13:57:05Z</time>
      </trkpt>
      <trkpt lat="49.23977" lon="-0.26599">
        <ele>4.1</ele>
        <time>2022-05-31T13:57:06Z</time>
      </trkpt>
      <trkpt lat="49.23977" lon="-0.266">
        <ele>4.1</ele>
        <time>2022-05-31T13:57:07Z</time>
      </trkpt>
      <trkpt lat="49.23978" lon="-0.26603">
        <ele>4.2</ele>
        <time>2022-05-31T13:57:08Z</time>
      </trkpt>
      <trkpt lat="49.23978" lon="-0.26605">
        <ele>4.2</ele>
        <time>2022-05-31T13:57:09Z</time>
      </trkpt>
      <trkpt lat="49.23978" lon="-0.26606">
        <ele>4.3</ele>
        <time>2022-05-31T13:57:10Z</time>
      </trkpt>
      <trkpt lat="49.23978" lon="-0.26608">
        <ele>4.3</ele>
        <time>2022-05-31T13:57:11Z</time>
      </trkpt>
      <trkpt lat="49.23978" lon="-0.2661">
        <ele>4.4</ele>
        <time>2022-05-31T13:57:12Z</time>
      </trkpt>
      <trkpt lat="49.23979" lon="-0.26612">
        <ele>4.4</ele>
        <time>2022-05-31T13:57:14Z</time>
      </trkpt>
      <trkpt lat="49.23979" lon="-0.26613">
        <ele>4.5</ele>
        <time>2022-05-31T13:57:15Z</time>
      </trkpt>
      <trkpt lat="49.2398" lon="-0.26615">
        <ele>4.5</ele>
        <time>2022-05-31T13:57:16Z</time>
      </trkpt>
      <trkpt lat="49.2398" lon="-0.26616">
        <ele>4.6</ele>
        <time>2022-05-31T13:57:17Z</time>
      </trkpt>
      <trkpt lat="49.23981" lon="-0.26619">
        <ele>4.7</ele>
        <time>2022-05-31T13:57:18Z</time>
      </trkpt>
      <trkpt lat="49.23982" lon="-0.2662">
        <ele>4.7</ele>
        <time>2022-05-31T13:57:19Z</time>
      </trkpt>
      <trkpt lat="49.23982" lon="-0.26622">
        <ele>4.7</ele>
        <time>2022-05-31T13:57:20Z</time>
      </trkpt>
      <trkpt lat="49.23982" lon="-0.26624">
        <ele>4.8</ele>
        <time>2022-05-31T13:57:21Z</time>
      </trkpt>
      <trkpt lat="49.23983" lon="-0.26625">
        <ele>4.8</ele>
        <time>2022-05-31T13:57:23Z</time>
      </trkpt>
      <trkpt lat="49.23983" lon="-0.26627">
        <ele>4.9</ele>
        <time>2022-05-31T13:57:24Z</time>
      </trkpt>
      <trkpt lat="49.23983" lon="-0.26629">
        <ele>4.9</ele>
        <time>2022-05-31T13:57:25Z</time>
      </trkpt>
      <trkpt lat="49.23983" lon="-0.26631">
        <ele>5</ele>
        <time>2022-05-31T13:57:26Z</time>
      </trkpt>
      <trkpt lat="49.23982" lon="-0.26632">
        <ele>5.1</ele>
        <time>2022-05-31T13:57:27Z</time>
      </trkpt>
      <trkpt lat="49.23981" lon="-0.26634">
        <ele>5.1</ele>
        <time>2022-05-31T13:57:28Z</time>
      </trkpt>
      <trkpt lat="49.2398" lon="-0.26635">
        <ele>5.1</ele>
        <time>2022-05-31T13:57:30Z</time>
      </trkpt>
      <trkpt lat="49.23978" lon="-0.26636">
        <ele>5.1</ele>
        <time>2022-05-31T13:57:31Z</time>
      </trkpt>
      <trkpt lat="49.23977" lon="-0.26636">
        <ele>5.1</ele>
        <time>2022-05-31T13:57:32Z</time>
      </trkpt>
      <trkpt lat="49.23976" lon="-0.26637">
        <ele>5.1</ele>
        <time>2022-05-31T13:57:33Z</time>
      </trkpt>
      <trkpt lat="49.23975" lon="-0.26638">
        <ele>5.1</ele>
        <time>2022-05-31T13:57:34Z</time>
      </trkpt>
      <trkpt lat="49.23974" lon="-0.26639">
        <ele>5.1</ele>
        <time>2022-05-31T13:57:35Z</time>
      </trkpt>
      <trkpt lat="49.23973" lon="-0.2664">
        <ele>5.1</ele>
        <time>2022-05-31T13:57:37Z</time>
      </trkpt>
      <trkpt lat="49.23972" lon="-0.26641">
        <ele>5.1</ele>
        <time>2022-05-31T13:57:38Z</time>
      </trkpt>
      <trkpt lat="49.23972" lon="-0.26643">
        <ele>5.1</ele>
        <time>2022-05-31T13:57:39Z</time>
      </trkpt>
      <trkpt lat="49.23972" lon="-0.26644">
        <ele>5.1</ele>
        <time>2022-05-31T13:57:40Z</time>
      </trkpt>
      <trkpt lat="49.23973" lon="-0.26647">
        <ele>5.1</ele>
        <time>2022-05-31T13:57:41Z</time>
      </trkpt>
      <trkpt lat="49.23974" lon="-0.26648">
        <ele>5.1</ele>
        <time>2022-05-31T13:57:42Z</time>
      </trkpt>
      <trkpt lat="49.23974" lon="-0.2665">
        <ele>5.1</ele>
        <time>2022-05-31T13:57:44Z</time>
      </trkpt>
      <trkpt lat="49.23974" lon="-0.26651">
        <ele>5.1</ele>
        <time>2022-05-31T13:57:45Z</time>
      </trkpt>
      <trkpt lat="49.23974" lon="-0.26653">
        <ele>5.1</ele>
        <time>2022-05-31T13:57:47Z</time>
      </trkpt>
      <trkpt lat="49.23974" lon="-0.26653">
        <ele>5.1</ele>
        <time>2022-05-31T13:57:48Z</time>
      </trkpt>
      <trkpt lat="49.23975" lon="-0.26653">
        <ele>5.1</ele>
        <time>2022-05-31T13:57:49Z</time>
      </trkpt>
      <trkpt lat="49.23975" lon="-0.26653">
        <ele>5.1</ele>
        <time>2022-05-31T13:57:50Z</time>
      </trkpt>
      <trkpt lat="49.23975" lon="-0.26653">
        <ele>5.1</ele>
        <time>2022-05-31T13:57:51Z</time>
      </trkpt>
      <trkpt lat="49.23975" lon="-0.26653">
        <ele>5.1</ele>
        <time>2022-05-31T13:57:52Z</time>
      </trkpt>
      <trkpt lat="49.23975" lon="-0.26653">
        <ele>5.1</ele>
        <time>2022-05-31T13:57:53Z</time>
      </trkpt>
      <trkpt lat="49.23975" lon="-0.26652">
        <ele>5.1</ele>
        <time>2022-05-31T13:57:54Z</time>
      </trkpt>
      <trkpt lat="49.23975" lon="-0.26652">
        <ele>5.1</ele>
        <time>2022-05-31T13:57:56Z</time>
      </trkpt>
      <trkpt lat="49.23976" lon="-0.26651">
        <ele>5.1</ele>
        <time>2022-05-31T13:57:57Z</time>
      </trkpt>
      <trkpt lat="49.23976" lon="-0.26651">
        <ele>5.1</ele>
        <time>2022-05-31T13:57:58Z</time>
      </trkpt>
      <trkpt lat="49.23976" lon="-0.26651">
        <ele>5.1</ele>
        <time>2022-05-31T13:57:59Z</time>
      </trkpt>
      <trkpt lat="49.23976" lon="-0.26651">
        <ele>5.1</ele>
        <time>2022-05-31T13:58:00Z</time>
      </trkpt>
      <trkpt lat="49.23976" lon="-0.26651">
        <ele>5.1</ele>
        <time>2022-05-31T13:58:01Z</time>
      </trkpt>
      <trkpt lat="49.23976" lon="-0.26651">
        <ele>5.1</ele>
        <time>2022-05-31T13:58:02Z</time>
      </trkpt>
      <trkpt lat="49.23976" lon="-0.26651">
        <ele>5.1</ele>
        <time>2022-05-31T13:58:03Z</time>
      </trkpt>
      <trkpt lat="49.23976" lon="-0.26651">
        <ele>5.1</ele>
        <time>2022-05-31T13:58:04Z</time>
      </trkpt>
      <trkpt lat="49.23976" lon="-0.26651">
        <ele>5.1</ele>
        <time>2022-05-31T13:58:05Z</time>
      </trkpt>
      <trkpt lat="49.23975" lon="-0.2665">
        <ele>5.1</ele>
        <time>2022-05-31T13:58:06Z</time>
      </trkpt>
      <trkpt lat="49.23975" lon="-0.2665">
        <ele>5.1</ele>
        <time>2022-05-31T13:58:07Z</time>
      </trkpt>
      <trkpt lat="49.23975" lon="-0.2665">
        <ele>5.1</ele>
        <time>2022-05-31T13:58:08Z</time>
      </trkpt>
      <trkpt lat="49.23975" lon="-0.2665">
        <ele>5.1</ele>
        <time>2022-05-31T13:58:09Z</time>
      </trkpt>
      <trkpt lat="49.23975" lon="-0.26651">
        <ele>5.1</ele>
        <time>2022-05-31T13:58:10Z</time>
      </trkpt>
      <trkpt lat="49.23975" lon="-0.26651">
        <ele>5.1</ele>
        <time>2022-05-31T13:58:11Z</time>
      </trkpt>
      <trkpt lat="49.23975" lon="-0.2665">
        <ele>5.1</ele>
        <time>2022-05-31T13:58:13Z</time>
      </trkpt>
      <trkpt lat="49.23974" lon="-0.26649">
        <ele>5.1</ele>
        <time>2022-05-31T13:58:14Z</time>
      </trkpt>
      <trkpt lat="49.23973" lon="-0.26648">
        <ele>5.1</ele>
        <time>2022-05-31T13:58:15Z</time>
      </trkpt>
      <trkpt lat="49.23972" lon="-0.26647">
        <ele>5.1</ele>
        <time>2022-05-31T13:58:17Z</time>
      </trkpt>
      <trkpt lat="49.2397" lon="-0.26646">
        <ele>5.1</ele>
        <time>2022-05-31T13:58:18Z</time>
      </trkpt>
      <trkpt lat="49.23969" lon="-0.26646">
        <ele>5.1</ele>
        <time>2022-05-31T13:58:19Z</time>
      </trkpt>
      <trkpt lat="49.23968" lon="-0.26646">
        <ele>5.1</ele>
        <time>2022-05-31T13:58:21Z</time>
      </trkpt>
      <trkpt lat="49.23967" lon="-0.26647">
        <ele>5.1</ele>
        <time>2022-05-31T13:58:22Z</time>
      </trkpt>
      <trkpt lat="49.23965" lon="-0.26647">
        <ele>5.1</ele>
        <time>2022-05-31T13:58:23Z</time>
      </trkpt>
      <trkpt lat="49.23964" lon="-0.26648">
        <ele>5.1</ele>
        <time>2022-05-31T13:58:24Z</time>
      </trkpt>
      <trkpt lat="49.23963" lon="-0.26649">
        <ele>5</ele>
        <time>2022-05-31T13:58:25Z</time>
      </trkpt>
      <trkpt lat="49.23962" lon="-0.26649">
        <ele>5</ele>
        <time>2022-05-31T13:58:27Z</time>
      </trkpt>
      <trkpt lat="49.23961" lon="-0.2665">
        <ele>5</ele>
        <time>2022-05-31T13:58:28Z</time>
      </trkpt>
      <trkpt lat="49.23961" lon="-0.26651">
        <ele>5</ele>
        <time>2022-05-31T13:58:29Z</time>
      </trkpt>
      <trkpt lat="49.23962" lon="-0.26652">
        <ele>5</ele>
        <time>2022-05-31T13:58:30Z</time>
      </trkpt>
      <trkpt lat="49.23962" lon="-0.26652">
        <ele>5</ele>
        <time>2022-05-31T13:58:31Z</time>
      </trkpt>
      <trkpt lat="49.23963" lon="-0.26652">
        <ele>5</ele>
        <time>2022-05-31T13:58:32Z</time>
      </trkpt>
      <trkpt lat="49.23964" lon="-0.26652">
        <ele>5</ele>
        <time>2022-05-31T13:58:34Z</time>
      </trkpt>
      <trkpt lat="49.23965" lon="-0.26652">
        <ele>5</ele>
        <time>2022-05-31T13:58:35Z</time>
      </trkpt>
      <trkpt lat="49.23965" lon="-0.26652">
        <ele>5</ele>
        <time>2022-05-31T13:58:36Z</time>
      </trkpt>
      <trkpt lat="49.23966" lon="-0.26652">
        <ele>5</ele>
        <time>2022-05-31T13:58:37Z</time>
      </trkpt>
      <trkpt lat="49.23967" lon="-0.26652">
        <ele>5</ele>
        <time>2022-05-31T13:58:39Z</time>
      </trkpt>
      <trkpt lat="49.23967" lon="-0.26652">
        <ele>5</ele>
        <time>2022-05-31T13:58:40Z</time>
      </trkpt>
      <trkpt lat="49.23968" lon="-0.26652">
        <ele>5</ele>
        <time>2022-05-31T13:58:41Z</time>
      </trkpt>
      <trkpt lat="49.23968" lon="-0.26651">
        <ele>5</ele>
        <time>2022-05-31T13:58:42Z</time>
      </trkpt>
      <trkpt lat="49.23969" lon="-0.2665">
        <ele>5</ele>
        <time>2022-05-31T13:58:43Z</time>
      </trkpt>
      <trkpt lat="49.2397" lon="-0.26649">
        <ele>5</ele>
        <time>2022-05-31T13:58:44Z</time>
      </trkpt>
      <trkpt lat="49.23972" lon="-0.26648">
        <ele>5</ele>
        <time>2022-05-31T13:58:45Z</time>
      </trkpt>
      <trkpt lat="49.23973" lon="-0.26646">
        <ele>5</ele>
        <time>2022-05-31T13:58:47Z</time>
      </trkpt>
      <trkpt lat="49.23974" lon="-0.26644">
        <ele>5</ele>
        <time>2022-05-31T13:58:48Z</time>
      </trkpt>
      <trkpt lat="49.23975" lon="-0.26642">
        <ele>5.1</ele>
        <time>2022-05-31T13:58:49Z</time>
      </trkpt>
      <trkpt lat="49.23976" lon="-0.2664">
        <ele>5.1</ele>
        <time>2022-05-31T13:58:50Z</time>
      </trkpt>
      <trkpt lat="49.23977" lon="-0.26639">
        <ele>5.1</ele>
        <time>2022-05-31T13:58:51Z</time>
      </trkpt>
      <trkpt lat="49.23979" lon="-0.26637">
        <ele>5.1</ele>
        <time>2022-05-31T13:58:52Z</time>
      </trkpt>
      <trkpt lat="49.23979" lon="-0.26636">
        <ele>5.1</ele>
        <time>2022-05-31T13:58:53Z</time>
      </trkpt>
      <trkpt lat="49.2398" lon="-0.26636">
        <ele>5.2</ele>
        <time>2022-05-31T13:58:54Z</time>
      </trkpt>
      <trkpt lat="49.23981" lon="-0.26635">
        <ele>5.2</ele>
        <time>2022-05-31T13:58:56Z</time>
      </trkpt>
      <trkpt lat="49.23982" lon="-0.26634">
        <ele>5.2</ele>
        <time>2022-05-31T13:58:57Z</time>
      </trkpt>
      <trkpt lat="49.23982" lon="-0.26632">
        <ele>5.3</ele>
        <time>2022-05-31T13:58:58Z</time>
      </trkpt>
      <trkpt lat="49.23984" lon="-0.26631">
        <ele>5.4</ele>
        <time>2022-05-31T13:58:59Z</time>
      </trkpt>
      <trkpt lat="49.23985" lon="-0.2663">
        <ele>5.4</ele>
        <time>2022-05-31T13:59:00Z</time>
      </trkpt>
      <trkpt lat="49.23987" lon="-0.26628">
        <ele>5.5</ele>
        <time>2022-05-31T13:59:01Z</time>
      </trkpt>
      <trkpt lat="49.23988" lon="-0.26627">
        <ele>5.6</ele>
        <time>2022-05-31T13:59:02Z</time>
      </trkpt>
      <trkpt lat="49.23989" lon="-0.26625">
        <ele>5.7</ele>
        <time>2022-05-31T13:59:03Z</time>
      </trkpt>
      <trkpt lat="49.23991" lon="-0.26623">
        <ele>5.8</ele>
        <time>2022-05-31T13:59:05Z</time>
      </trkpt>
      <trkpt lat="49.23992" lon="-0.26621">
        <ele>5.8</ele>
        <time>2022-05-31T13:59:06Z</time>
      </trkpt>
      <trkpt lat="49.23993" lon="-0.2662">
        <ele>5.9</ele>
        <time>2022-05-31T13:59:07Z</time>
      </trkpt>
      <trkpt lat="49.23994" lon="-0.26619">
        <ele>6</ele>
        <time>2022-05-31T13:59:08Z</time>
      </trkpt>
      <trkpt lat="49.23995" lon="-0.26617">
        <ele>6</ele>
        <time>2022-05-31T13:59:09Z</time>
      </trkpt>
      <trkpt lat="49.23996" lon="-0.26616">
        <ele>6.1</ele>
        <time>2022-05-31T13:59:10Z</time>
      </trkpt>
      <trkpt lat="49.23997" lon="-0.26615">
        <ele>6.1</ele>
        <time>2022-05-31T13:59:11Z</time>
      </trkpt>
      <trkpt lat="49.23998" lon="-0.26614">
        <ele>6.2</ele>
        <time>2022-05-31T13:59:13Z</time>
      </trkpt>
      <trkpt lat="49.23999" lon="-0.26613">
        <ele>6.3</ele>
        <time>2022-05-31T13:59:14Z</time>
      </trkpt>
      <trkpt lat="49.24001" lon="-0.26613">
        <ele>6.3</ele>
        <time>2022-05-31T13:59:15Z</time>
      </trkpt>
      <trkpt lat="49.24002" lon="-0.26613">
        <ele>6.4</ele>
        <time>2022-05-31T13:59:16Z</time>
      </trkpt>
      <trkpt lat="49.24003" lon="-0.26613">
        <ele>6.4</ele>
        <time>2022-05-31T13:59:17Z</time>
      </trkpt>
      <trkpt lat="49.24004" lon="-0.26613">
        <ele>6.5</ele>
        <time>2022-05-31T13:59:18Z</time>
      </trkpt>
      <trkpt lat="49.24005" lon="-0.26613">
        <ele>6.5</ele>
        <time>2022-05-31T13:59:20Z</time>
      </trkpt>
      <trkpt lat="49.24006" lon="-0.26613">
        <ele>6.6</ele>
        <time>2022-05-31T13:59:21Z</time>
      </trkpt>
      <trkpt lat="49.24007" lon="-0.26614">
        <ele>6.6</ele>
        <time>2022-05-31T13:59:22Z</time>
      </trkpt>
      <trkpt lat="49.24009" lon="-0.26614">
        <ele>6.6</ele>
        <time>2022-05-31T13:59:23Z</time>
      </trkpt>
      <trkpt lat="49.24011" lon="-0.26614">
        <ele>6.7</ele>
        <time>2022-05-31T13:59:24Z</time>
      </trkpt>
      <trkpt lat="49.24012" lon="-0.26614">
        <ele>6.8</ele>
        <time>2022-05-31T13:59:25Z</time>
      </trkpt>
      <trkpt lat="49.24012" lon="-0.26615">
        <ele>6.9</ele>
        <time>2022-05-31T13:59:26Z</time>
      </trkpt>
      <trkpt lat="49.24014" lon="-0.26616">
        <ele>6.9</ele>
        <time>2022-05-31T13:59:28Z</time>
      </trkpt>
      <trkpt lat="49.24015" lon="-0.26617">
        <ele>6.9</ele>
        <time>2022-05-31T13:59:29Z</time>
      </trkpt>
      <trkpt lat="49.24015" lon="-0.26618">
        <ele>6.9</ele>
        <time>2022-05-31T13:59:30Z</time>
      </trkpt>
      <trkpt lat="49.24016" lon="-0.26619">
        <ele>6.9</ele>
        <time>2022-05-31T13:59:31Z</time>
      </trkpt>
      <trkpt lat="49.24017" lon="-0.2662">
        <ele>6.9</ele>
        <time>2022-05-31T13:59:32Z</time>
      </trkpt>
      <trkpt lat="49.24017" lon="-0.26622">
        <ele>6.9</ele>
        <time>2022-05-31T13:59:33Z</time>
      </trkpt>
      <trkpt lat="49.24017" lon="-0.26625">
        <ele>6.9</ele>
        <time>2022-05-31T13:59:34Z</time>
      </trkpt>
      <trkpt lat="49.24017" lon="-0.26627">
        <ele>6.9</ele>
        <time>2022-05-31T13:59:36Z</time>
      </trkpt>
      <trkpt lat="49.24017" lon="-0.26628">
        <ele>6.9</ele>
        <time>2022-05-31T13:59:37Z</time>
      </trkpt>
      <trkpt lat="49.24017" lon="-0.26632">
        <ele>6.9</ele>
        <time>2022-05-31T13:59:38Z</time>
      </trkpt>
      <trkpt lat="49.24017" lon="-0.26633">
        <ele>6.9</ele>
        <time>2022-05-31T13:59:39Z</time>
      </trkpt>
      <trkpt lat="49.24017" lon="-0.26634">
        <ele>6.9</ele>
        <time>2022-05-31T13:59:40Z</time>
      </trkpt>
      <trkpt lat="49.24018" lon="-0.26636">
        <ele>6.9</ele>
        <time>2022-05-31T13:59:41Z</time>
      </trkpt>
      <trkpt lat="49.24018" lon="-0.26638">
        <ele>6.9</ele>
        <time>2022-05-31T13:59:42Z</time>
      </trkpt>
      <trkpt lat="49.24018" lon="-0.26639">
        <ele>6.9</ele>
        <time>2022-05-31T13:59:43Z</time>
      </trkpt>
      <trkpt lat="49.24019" lon="-0.26641">
        <ele>6.9</ele>
        <time>2022-05-31T13:59:45Z</time>
      </trkpt>
      <trkpt lat="49.24019" lon="-0.26643">
        <ele>6.9</ele>
        <time>2022-05-31T13:59:46Z</time>
      </trkpt>
      <trkpt lat="49.24019" lon="-0.26646">
        <ele>6.9</ele>
        <time>2022-05-31T13:59:47Z</time>
      </trkpt>
      <trkpt lat="49.2402" lon="-0.26647">
        <ele>6.9</ele>
        <time>2022-05-31T13:59:48Z</time>
      </trkpt>
      <trkpt lat="49.2402" lon="-0.26648">
        <ele>6.9</ele>
        <time>2022-05-31T13:59:49Z</time>
      </trkpt>
      <trkpt lat="49.24021" lon="-0.26651">
        <ele>6.9</ele>
        <time>2022-05-31T13:59:50Z</time>
      </trkpt>
      <trkpt lat="49.24021" lon="-0.26652">
        <ele>6.9</ele>
        <time>2022-05-31T13:59:51Z</time>
      </trkpt>
      <trkpt lat="49.24022" lon="-0.26653">
        <ele>6.9</ele>
        <time>2022-05-31T13:59:52Z</time>
      </trkpt>
      <trkpt lat="49.24022" lon="-0.26655">
        <ele>6.9</ele>
        <time>2022-05-31T13:59:54Z</time>
      </trkpt>
      <trkpt lat="49.24022" lon="-0.26656">
        <ele>6.9</ele>
        <time>2022-05-31T13:59:55Z</time>
      </trkpt>
      <trkpt lat="49.24022" lon="-0.26658">
        <ele>6.9</ele>
        <time>2022-05-31T13:59:56Z</time>
      </trkpt>
      <trkpt lat="49.24023" lon="-0.2666">
        <ele>6.9</ele>
        <time>2022-05-31T13:59:57Z</time>
      </trkpt>
      <trkpt lat="49.24023" lon="-0.26661">
        <ele>6.9</ele>
        <time>2022-05-31T13:59:58Z</time>
      </trkpt>
      <trkpt lat="49.24023" lon="-0.26663">
        <ele>6.9</ele>
        <time>2022-05-31T13:59:59Z</time>
      </trkpt>
      <trkpt lat="49.24024" lon="-0.26665">
        <ele>6.9</ele>
        <time>2022-05-31T14:00:00Z</time>
      </trkpt>
      <trkpt lat="49.24024" lon="-0.26667">
        <ele>6.8</ele>
        <time>2022-05-31T14:00:01Z</time>
      </trkpt>
      <trkpt lat="49.24024" lon="-0.26668">
        <ele>6.8</ele>
        <time>2022-05-31T14:00:02Z</time>
      </trkpt>
      <trkpt lat="49.24025" lon="-0.26669">
        <ele>6.8</ele>
        <time>2022-05-31T14:00:04Z</time>
      </trkpt>
      <trkpt lat="49.24025" lon="-0.26671">
        <ele>6.8</ele>
        <time>2022-05-31T14:00:05Z</time>
      </trkpt>
      <trkpt lat="49.24026" lon="-0.26673">
        <ele>6.8</ele>
        <time>2022-05-31T14:00:06Z</time>
      </trkpt>
      <trkpt lat="49.24026" lon="-0.26675">
        <ele>6.8</ele>
        <time>2022-05-31T14:00:07Z</time>
      </trkpt>
      <trkpt lat="49.24027" lon="-0.26677">
        <ele>6.8</ele>
        <time>2022-05-31T14:00:08Z</time>
      </trkpt>
      <trkpt lat="49.24027" lon="-0.26678">
        <ele>6.8</ele>
        <time>2022-05-31T14:00:09Z</time>
      </trkpt>
      <trkpt lat="49.24028" lon="-0.2668">
        <ele>6.8</ele>
        <time>2022-05-31T14:00:10Z</time>
      </trkpt>
      <trkpt lat="49.24028" lon="-0.26681">
        <ele>6.8</ele>
        <time>2022-05-31T14:00:11Z</time>
      </trkpt>
      <trkpt lat="49.24028" lon="-0.26684">
        <ele>6.8</ele>
        <time>2022-05-31T14:00:12Z</time>
      </trkpt>
      <trkpt lat="49.24029" lon="-0.26686">
        <ele>6.8</ele>
        <time>2022-05-31T14:00:13Z</time>
      </trkpt>
      <trkpt lat="49.24029" lon="-0.26689">
        <ele>6.8</ele>
        <time>2022-05-31T14:00:15Z</time>
      </trkpt>
      <trkpt lat="49.2403" lon="-0.2669">
        <ele>6.8</ele>
        <time>2022-05-31T14:00:16Z</time>
      </trkpt>
      <trkpt lat="49.2403" lon="-0.26691">
        <ele>6.8</ele>
        <time>2022-05-31T14:00:17Z</time>
      </trkpt>
      <trkpt lat="49.24031" lon="-0.26694">
        <ele>6.8</ele>
        <time>2022-05-31T14:00:18Z</time>
      </trkpt>
      <trkpt lat="49.24031" lon="-0.26695">
        <ele>6.8</ele>
        <time>2022-05-31T14:00:19Z</time>
      </trkpt>
      <trkpt lat="49.24032" lon="-0.26696">
        <ele>6.8</ele>
        <time>2022-05-31T14:00:20Z</time>
      </trkpt>
      <trkpt lat="49.24032" lon="-0.26698">
        <ele>6.8</ele>
        <time>2022-05-31T14:00:21Z</time>
      </trkpt>
      <trkpt lat="49.24032" lon="-0.26698">
        <ele>6.8</ele>
        <time>2022-05-31T14:00:22Z</time>
      </trkpt>
      <trkpt lat="49.24033" lon="-0.26699">
        <ele>6.8</ele>
        <time>2022-05-31T14:00:23Z</time>
      </trkpt>
      <trkpt lat="49.24033" lon="-0.26702">
        <ele>6.8</ele>
        <time>2022-05-31T14:00:25Z</time>
      </trkpt>
      <trkpt lat="49.24033" lon="-0.26703">
        <ele>6.8</ele>
        <time>2022-05-31T14:00:26Z</time>
      </trkpt>
      <trkpt lat="49.24034" lon="-0.26704">
        <ele>6.8</ele>
        <time>2022-05-31T14:00:27Z</time>
      </trkpt>
      <trkpt lat="49.24034" lon="-0.26706">
        <ele>6.8</ele>
        <time>2022-05-31T14:00:28Z</time>
      </trkpt>
      <trkpt lat="49.24035" lon="-0.26708">
        <ele>6.8</ele>
        <time>2022-05-31T14:00:29Z</time>
      </trkpt>
      <trkpt lat="49.24035" lon="-0.26709">
        <ele>6.8</ele>
        <time>2022-05-31T14:00:31Z</time>
      </trkpt>
      <trkpt lat="49.24035" lon="-0.26711">
        <ele>6.8</ele>
        <time>2022-05-31T14:00:32Z</time>
      </trkpt>
      <trkpt lat="49.24035" lon="-0.26712">
        <ele>6.8</ele>
        <time>2022-05-31T14:00:33Z</time>
      </trkpt>
      <trkpt lat="49.24034" lon="-0.26714">
        <ele>6.8</ele>
        <time>2022-05-31T14:00:34Z</time>
      </trkpt>
      <trkpt lat="49.24034" lon="-0.26715">
        <ele>6.8</ele>
        <time>2022-05-31T14:00:35Z</time>
      </trkpt>
      <trkpt lat="49.24033" lon="-0.26716">
        <ele>6.8</ele>
        <time>2022-05-31T14:00:36Z</time>
      </trkpt>
      <trkpt lat="49.24033" lon="-0.26716">
        <ele>6.8</ele>
        <time>2022-05-31T14:00:37Z</time>
      </trkpt>
      <trkpt lat="49.24032" lon="-0.26716">
        <ele>6.8</ele>
        <time>2022-05-31T14:00:38Z</time>
      </trkpt>
      <trkpt lat="49.24032" lon="-0.26716">
        <ele>6.8</ele>
        <time>2022-05-31T14:00:39Z</time>
      </trkpt>
      <trkpt lat="49.24032" lon="-0.26716">
        <ele>6.8</ele>
        <time>2022-05-31T14:00:40Z</time>
      </trkpt>
      <trkpt lat="49.24032" lon="-0.26716">
        <ele>6.8</ele>
        <time>2022-05-31T14:00:41Z</time>
      </trkpt>
      <trkpt lat="49.24032" lon="-0.26716">
        <ele>6.8</ele>
        <time>2022-05-31T14:00:42Z</time>
      </trkpt>
      <trkpt lat="49.24032" lon="-0.26716">
        <ele>6.8</ele>
        <time>2022-05-31T14:00:43Z</time>
      </trkpt>
      <trkpt lat="49.24032" lon="-0.26716">
        <ele>6.8</ele>
        <time>2022-05-31T14:00:44Z</time>
      </trkpt>
      <trkpt lat="49.24032" lon="-0.26716">
        <ele>6.8</ele>
        <time>2022-05-31T14:00:46Z</time>
      </trkpt>
      <trkpt lat="49.24032" lon="-0.26716">
        <ele>6.8</ele>
        <time>2022-05-31T14:00:47Z</time>
      </trkpt>
      <trkpt lat="49.24031" lon="-0.26716">
        <ele>6.8</ele>
        <time>2022-05-31T14:00:48Z</time>
      </trkpt>
      <trkpt lat="49.24031" lon="-0.26716">
        <ele>6.8</ele>
        <time>2022-05-31T14:00:49Z</time>
      </trkpt>
      <trkpt lat="49.24031" lon="-0.26716">
        <ele>6.8</ele>
        <time>2022-05-31T14:00:50Z</time>
      </trkpt>
      <trkpt lat="49.24031" lon="-0.26716">
        <ele>6.8</ele>
        <time>2022-05-31T14:00:51Z</time>
      </trkpt>
      <trkpt lat="49.24031" lon="-0.26715">
        <ele>6.8</ele>
        <time>2022-05-31T14:00:52Z</time>
      </trkpt>
      <trkpt lat="49.24031" lon="-0.26715">
        <ele>6.8</ele>
        <time>2022-05-31T14:00:53Z</time>
      </trkpt>
      <trkpt lat="49.24032" lon="-0.26714">
        <ele>6.8</ele>
        <time>2022-05-31T14:00:54Z</time>
      </trkpt>
      <trkpt lat="49.24032" lon="-0.26714">
        <ele>6.8</ele>
        <time>2022-05-31T14:00:55Z</time>
      </trkpt>
      <trkpt lat="49.24032" lon="-0.26714">
        <ele>6.8</ele>
        <time>2022-05-31T14:00:56Z</time>
      </trkpt>
      <trkpt lat="49.24032" lon="-0.26713">
        <ele>6.8</ele>
        <time>2022-05-31T14:00:57Z</time>
      </trkpt>
      <trkpt lat="49.24032" lon="-0.26712">
        <ele>6.8</ele>
        <time>2022-05-31T14:00:58Z</time>
      </trkpt>
      <trkpt lat="49.24032" lon="-0.26712">
        <ele>6.8</ele>
        <time>2022-05-31T14:00:59Z</time>
      </trkpt>
      <trkpt lat="49.24032" lon="-0.26713">
        <ele>6.8</ele>
        <time>2022-05-31T14:01:00Z</time>
      </trkpt>
      <trkpt lat="49.24032" lon="-0.26715">
        <ele>6.8</ele>
        <time>2022-05-31T14:01:01Z</time>
      </trkpt>
      <trkpt lat="49.24032" lon="-0.26716">
        <ele>6.8</ele>
        <time>2022-05-31T14:01:02Z</time>
      </trkpt>
      <trkpt lat="49.24033" lon="-0.26716">
        <ele>6.8</ele>
        <time>2022-05-31T14:01:03Z</time>
      </trkpt>
      <trkpt lat="49.24034" lon="-0.26717">
        <ele>6.8</ele>
        <time>2022-05-31T14:01:04Z</time>
      </trkpt>
      <trkpt lat="49.24034" lon="-0.26718">
        <ele>6.8</ele>
        <time>2022-05-31T14:01:06Z</time>
      </trkpt>
      <trkpt lat="49.24035" lon="-0.2672">
        <ele>6.8</ele>
        <time>2022-05-31T14:01:07Z</time>
      </trkpt>
      <trkpt lat="49.24036" lon="-0.26722">
        <ele>6.7</ele>
        <time>2022-05-31T14:01:08Z</time>
      </trkpt>
      <trkpt lat="49.24037" lon="-0.26723">
        <ele>6.7</ele>
        <time>2022-05-31T14:01:09Z</time>
      </trkpt>
      <trkpt lat="49.24038" lon="-0.26726">
        <ele>6.7</ele>
        <time>2022-05-31T14:01:10Z</time>
      </trkpt>
      <trkpt lat="49.24038" lon="-0.26727">
        <ele>6.7</ele>
        <time>2022-05-31T14:01:11Z</time>
      </trkpt>
      <trkpt lat="49.24038" lon="-0.26728">
        <ele>6.7</ele>
        <time>2022-05-31T14:01:12Z</time>
      </trkpt>
      <trkpt lat="49.24039" lon="-0.26731">
        <ele>6.7</ele>
        <time>2022-05-31T14:01:13Z</time>
      </trkpt>
      <trkpt lat="49.24039" lon="-0.26733">
        <ele>6.7</ele>
        <time>2022-05-31T14:01:14Z</time>
      </trkpt>
      <trkpt lat="49.2404" lon="-0.26736">
        <ele>6.7</ele>
        <time>2022-05-31T14:01:16Z</time>
      </trkpt>
      <trkpt lat="49.2404" lon="-0.26738">
        <ele>6.7</ele>
        <time>2022-05-31T14:01:17Z</time>
      </trkpt>
      <trkpt lat="49.24041" lon="-0.26739">
        <ele>6.7</ele>
        <time>2022-05-31T14:01:18Z</time>
      </trkpt>
      <trkpt lat="49.24041" lon="-0.26741">
        <ele>6.6</ele>
        <time>2022-05-31T14:01:19Z</time>
      </trkpt>
      <trkpt lat="49.24042" lon="-0.26743">
        <ele>6.6</ele>
        <time>2022-05-31T14:01:20Z</time>
      </trkpt>
      <trkpt lat="49.24043" lon="-0.26746">
        <ele>6.6</ele>
        <time>2022-05-31T14:01:21Z</time>
      </trkpt>
      <trkpt lat="49.24043" lon="-0.26748">
        <ele>6.6</ele>
        <time>2022-05-31T14:01:22Z</time>
      </trkpt>
      <trkpt lat="49.24043" lon="-0.26749">
        <ele>6.6</ele>
        <time>2022-05-31T14:01:23Z</time>
      </trkpt>
      <trkpt lat="49.24044" lon="-0.26751">
        <ele>6.5</ele>
        <time>2022-05-31T14:01:24Z</time>
      </trkpt>
      <trkpt lat="49.24045" lon="-0.26754">
        <ele>6.5</ele>
        <time>2022-05-31T14:01:26Z</time>
      </trkpt>
      <trkpt lat="49.24045" lon="-0.26757">
        <ele>6.5</ele>
        <time>2022-05-31T14:01:27Z</time>
      </trkpt>
      <trkpt lat="49.24046" lon="-0.26759">
        <ele>6.5</ele>
        <time>2022-05-31T14:01:28Z</time>
      </trkpt>
      <trkpt lat="49.24047" lon="-0.26763">
        <ele>6.4</ele>
        <time>2022-05-31T14:01:29Z</time>
      </trkpt>
      <trkpt lat="49.24047" lon="-0.26764">
        <ele>6.4</ele>
        <time>2022-05-31T14:01:30Z</time>
      </trkpt>
      <trkpt lat="49.24048" lon="-0.26766">
        <ele>6.4</ele>
        <time>2022-05-31T14:01:31Z</time>
      </trkpt>
      <trkpt lat="49.24049" lon="-0.26768">
        <ele>6.4</ele>
        <time>2022-05-31T14:01:32Z</time>
      </trkpt>
      <trkpt lat="49.2405" lon="-0.26771">
        <ele>6.4</ele>
        <time>2022-05-31T14:01:33Z</time>
      </trkpt>
      <trkpt lat="49.2405" lon="-0.26772">
        <ele>6.3</ele>
        <time>2022-05-31T14:01:34Z</time>
      </trkpt>
      <trkpt lat="49.2405" lon="-0.26773">
        <ele>6.3</ele>
        <time>2022-05-31T14:01:35Z</time>
      </trkpt>
      <trkpt lat="49.2405" lon="-0.26773">
        <ele>6.3</ele>
        <time>2022-05-31T14:01:36Z</time>
      </trkpt>
      <trkpt lat="49.24051" lon="-0.26775">
        <ele>6.3</ele>
        <time>2022-05-31T14:01:38Z</time>
      </trkpt>
      <trkpt lat="49.24052" lon="-0.26777">
        <ele>6.3</ele>
        <time>2022-05-31T14:01:39Z</time>
      </trkpt>
      <trkpt lat="49.24052" lon="-0.26779">
        <ele>6.3</ele>
        <time>2022-05-31T14:01:40Z</time>
      </trkpt>
      <trkpt lat="49.24053" lon="-0.26781">
        <ele>6.3</ele>
        <time>2022-05-31T14:01:41Z</time>
      </trkpt>
      <trkpt lat="49.24053" lon="-0.26783">
        <ele>6.2</ele>
        <time>2022-05-31T14:01:42Z</time>
      </trkpt>
      <trkpt lat="49.24054" lon="-0.26784">
        <ele>6.2</ele>
        <time>2022-05-31T14:01:43Z</time>
      </trkpt>
      <trkpt lat="49.24054" lon="-0.26786">
        <ele>6.2</ele>
        <time>2022-05-31T14:01:44Z</time>
      </trkpt>
      <trkpt lat="49.24054" lon="-0.26787">
        <ele>6.2</ele>
        <time>2022-05-31T14:01:45Z</time>
      </trkpt>
      <trkpt lat="49.24054" lon="-0.26789">
        <ele>6.2</ele>
        <time>2022-05-31T14:01:46Z</time>
      </trkpt>
      <trkpt lat="49.24055" lon="-0.26791">
        <ele>6.2</ele>
        <time>2022-05-31T14:01:47Z</time>
      </trkpt>
      <trkpt lat="49.24055" lon="-0.26792">
        <ele>6.2</ele>
        <time>2022-05-31T14:01:49Z</time>
      </trkpt>
      <trkpt lat="49.24055" lon="-0.26794">
        <ele>6.1</ele>
        <time>2022-05-31T14:01:50Z</time>
      </trkpt>
      <trkpt lat="49.24056" lon="-0.26796">
        <ele>6.1</ele>
        <time>2022-05-31T14:01:51Z</time>
      </trkpt>
      <trkpt lat="49.24057" lon="-0.26799">
        <ele>6.1</ele>
        <time>2022-05-31T14:01:52Z</time>
      </trkpt>
      <trkpt lat="49.24057" lon="-0.268">
        <ele>6.1</ele>
        <time>2022-05-31T14:01:53Z</time>
      </trkpt>
      <trkpt lat="49.24057" lon="-0.26801">
        <ele>6.1</ele>
        <time>2022-05-31T14:01:54Z</time>
      </trkpt>
      <trkpt lat="49.24058" lon="-0.26804">
        <ele>6</ele>
        <time>2022-05-31T14:01:55Z</time>
      </trkpt>
      <trkpt lat="49.24058" lon="-0.26805">
        <ele>6</ele>
        <time>2022-05-31T14:01:56Z</time>
      </trkpt>
      <trkpt lat="49.24058" lon="-0.26806">
        <ele>6</ele>
        <time>2022-05-31T14:01:57Z</time>
      </trkpt>
      <trkpt lat="49.24058" lon="-0.26807">
        <ele>6</ele>
        <time>2022-05-31T14:01:58Z</time>
      </trkpt>
      <trkpt lat="49.24059" lon="-0.26808">
        <ele>6</ele>
        <time>2022-05-31T14:01:59Z</time>
      </trkpt>
      <trkpt lat="49.2406" lon="-0.2681">
        <ele>6</ele>
        <time>2022-05-31T14:02:00Z</time>
      </trkpt>
      <trkpt lat="49.2406" lon="-0.26812">
        <ele>6</ele>
        <time>2022-05-31T14:02:02Z</time>
      </trkpt>
      <trkpt lat="49.24061" lon="-0.26815">
        <ele>5.9</ele>
        <time>2022-05-31T14:02:03Z</time>
      </trkpt>
      <trkpt lat="49.24061" lon="-0.26816">
        <ele>5.9</ele>
        <time>2022-05-31T14:02:04Z</time>
      </trkpt>
      <trkpt lat="49.24062" lon="-0.26817">
        <ele>5.9</ele>
        <time>2022-05-31T14:02:05Z</time>
      </trkpt>
      <trkpt lat="49.24062" lon="-0.26819">
        <ele>5.9</ele>
        <time>2022-05-31T14:02:06Z</time>
      </trkpt>
      <trkpt lat="49.24063" lon="-0.26821">
        <ele>5.9</ele>
        <time>2022-05-31T14:02:07Z</time>
      </trkpt>
      <trkpt lat="49.24063" lon="-0.26823">
        <ele>5.8</ele>
        <time>2022-05-31T14:02:08Z</time>
      </trkpt>
      <trkpt lat="49.24064" lon="-0.26825">
        <ele>5.8</ele>
        <time>2022-05-31T14:02:09Z</time>
      </trkpt>
      <trkpt lat="49.24065" lon="-0.26827">
        <ele>5.8</ele>
        <time>2022-05-31T14:02:10Z</time>
      </trkpt>
      <trkpt lat="49.24065" lon="-0.26829">
        <ele>5.8</ele>
        <time>2022-05-31T14:02:11Z</time>
      </trkpt>
      <trkpt lat="49.24065" lon="-0.26831">
        <ele>5.8</ele>
        <time>2022-05-31T14:02:12Z</time>
      </trkpt>
      <trkpt lat="49.24066" lon="-0.26832">
        <ele>5.7</ele>
        <time>2022-05-31T14:02:13Z</time>
      </trkpt>
      <trkpt lat="49.24066" lon="-0.26834">
        <ele>5.7</ele>
        <time>2022-05-31T14:02:15Z</time>
      </trkpt>
      <trkpt lat="49.24066" lon="-0.26836">
        <ele>5.7</ele>
        <time>2022-05-31T14:02:16Z</time>
      </trkpt>
      <trkpt lat="49.24065" lon="-0.26837">
        <ele>5.7</ele>
        <time>2022-05-31T14:02:17Z</time>
      </trkpt>
      <trkpt lat="49.24065" lon="-0.26838">
        <ele>5.7</ele>
        <time>2022-05-31T14:02:18Z</time>
      </trkpt>
      <trkpt lat="49.24066" lon="-0.26841">
        <ele>5.7</ele>
        <time>2022-05-31T14:02:19Z</time>
      </trkpt>
      <trkpt lat="49.24066" lon="-0.26842">
        <ele>5.6</ele>
        <time>2022-05-31T14:02:20Z</time>
      </trkpt>
      <trkpt lat="49.24067" lon="-0.26844">
        <ele>5.6</ele>
        <time>2022-05-31T14:02:21Z</time>
      </trkpt>
      <trkpt lat="49.24068" lon="-0.26847">
        <ele>5.6</ele>
        <time>2022-05-31T14:02:22Z</time>
      </trkpt>
      <trkpt lat="49.24068" lon="-0.26848">
        <ele>5.6</ele>
        <time>2022-05-31T14:02:23Z</time>
      </trkpt>
      <trkpt lat="49.24068" lon="-0.26849">
        <ele>5.6</ele>
        <time>2022-05-31T14:02:24Z</time>
      </trkpt>
      <trkpt lat="49.24069" lon="-0.26851">
        <ele>5.6</ele>
        <time>2022-05-31T14:02:25Z</time>
      </trkpt>
      <trkpt lat="49.24069" lon="-0.26853">
        <ele>5.5</ele>
        <time>2022-05-31T14:02:27Z</time>
      </trkpt>
      <trkpt lat="49.2407" lon="-0.26856">
        <ele>5.5</ele>
        <time>2022-05-31T14:02:28Z</time>
      </trkpt>
      <trkpt lat="49.24071" lon="-0.26858">
        <ele>5.5</ele>
        <time>2022-05-31T14:02:29Z</time>
      </trkpt>
      <trkpt lat="49.24071" lon="-0.2686">
        <ele>5.5</ele>
        <time>2022-05-31T14:02:30Z</time>
      </trkpt>
      <trkpt lat="49.24072" lon="-0.26863">
        <ele>5.5</ele>
        <time>2022-05-31T14:02:31Z</time>
      </trkpt>
      <trkpt lat="49.24072" lon="-0.26865">
        <ele>5.5</ele>
        <time>2022-05-31T14:02:32Z</time>
      </trkpt>
      <trkpt lat="49.24073" lon="-0.26867">
        <ele>5.4</ele>
        <time>2022-05-31T14:02:33Z</time>
      </trkpt>
      <trkpt lat="49.24074" lon="-0.2687">
        <ele>5.4</ele>
        <time>2022-05-31T14:02:34Z</time>
      </trkpt>
      <trkpt lat="49.24074" lon="-0.26871">
        <ele>5.4</ele>
        <time>2022-05-31T14:02:35Z</time>
      </trkpt>
      <trkpt lat="49.24074" lon="-0.26872">
        <ele>5.4</ele>
        <time>2022-05-31T14:02:36Z</time>
      </trkpt>
      <trkpt lat="49.24075" lon="-0.26874">
        <ele>5.4</ele>
        <time>2022-05-31T14:02:38Z</time>
      </trkpt>
      <trkpt lat="49.24075" lon="-0.26875">
        <ele>5.4</ele>
        <time>2022-05-31T14:02:39Z</time>
      </trkpt>
      <trkpt lat="49.24075" lon="-0.26877">
        <ele>5.4</ele>
        <time>2022-05-31T14:02:40Z</time>
      </trkpt>
      <trkpt lat="49.24076" lon="-0.26878">
        <ele>5.4</ele>
        <time>2022-05-31T14:02:41Z</time>
      </trkpt>
      <trkpt lat="49.24076" lon="-0.26879">
        <ele>5.4</ele>
        <time>2022-05-31T14:02:42Z</time>
      </trkpt>
      <trkpt lat="49.24076" lon="-0.26881">
        <ele>5.4</ele>
        <time>2022-05-31T14:02:43Z</time>
      </trkpt>
      <trkpt lat="49.24076" lon="-0.26883">
        <ele>5.3</ele>
        <time>2022-05-31T14:02:44Z</time>
      </trkpt>
      <trkpt lat="49.24076" lon="-0.26885">
        <ele>5.3</ele>
        <time>2022-05-31T14:02:45Z</time>
      </trkpt>
      <trkpt lat="49.24077" lon="-0.26886">
        <ele>5.3</ele>
        <time>2022-05-31T14:02:46Z</time>
      </trkpt>
      <trkpt lat="49.24077" lon="-0.26888">
        <ele>5.3</ele>
        <time>2022-05-31T14:02:47Z</time>
      </trkpt>
      <trkpt lat="49.24077" lon="-0.2689">
        <ele>5.3</ele>
        <time>2022-05-31T14:02:48Z</time>
      </trkpt>
      <trkpt lat="49.24077" lon="-0.26892">
        <ele>5.3</ele>
        <time>2022-05-31T14:02:50Z</time>
      </trkpt>
      <trkpt lat="49.24077" lon="-0.26895">
        <ele>5.3</ele>
        <time>2022-05-31T14:02:51Z</time>
      </trkpt>
      <trkpt lat="49.24077" lon="-0.26896">
        <ele>5.3</ele>
        <time>2022-05-31T14:02:52Z</time>
      </trkpt>
      <trkpt lat="49.24077" lon="-0.26898">
        <ele>5.3</ele>
        <time>2022-05-31T14:02:53Z</time>
      </trkpt>
      <trkpt lat="49.24077" lon="-0.269">
        <ele>5.1</ele>
        <time>2022-05-31T14:02:54Z</time>
      </trkpt>
      <trkpt lat="49.24077" lon="-0.26901">
        <ele>5.1</ele>
        <time>2022-05-31T14:02:55Z</time>
      </trkpt>
      <trkpt lat="49.24077" lon="-0.26901">
        <ele>5.1</ele>
        <time>2022-05-31T14:02:56Z</time>
      </trkpt>
      <trkpt lat="49.24077" lon="-0.26903">
        <ele>5.1</ele>
        <time>2022-05-31T14:02:57Z</time>
      </trkpt>
      <trkpt lat="49.24077" lon="-0.26905">
        <ele>5.1</ele>
        <time>2022-05-31T14:02:59Z</time>
      </trkpt>
      <trkpt lat="49.24077" lon="-0.26906">
        <ele>5</ele>
        <time>2022-05-31T14:03:00Z</time>
      </trkpt>
      <trkpt lat="49.24077" lon="-0.26907">
        <ele>4.9</ele>
        <time>2022-05-31T14:03:01Z</time>
      </trkpt>
      <trkpt lat="49.24077" lon="-0.26909">
        <ele>4.9</ele>
        <time>2022-05-31T14:03:02Z</time>
      </trkpt>
      <trkpt lat="49.24077" lon="-0.2691">
        <ele>4.9</ele>
        <time>2022-05-31T14:03:03Z</time>
      </trkpt>
      <trkpt lat="49.24077" lon="-0.26911">
        <ele>4.9</ele>
        <time>2022-05-31T14:03:04Z</time>
      </trkpt>
      <trkpt lat="49.24078" lon="-0.26911">
        <ele>4.9</ele>
        <time>2022-05-31T14:03:06Z</time>
      </trkpt>
      <trkpt lat="49.24078" lon="-0.2691">
        <ele>4.9</ele>
        <time>2022-05-31T14:03:07Z</time>
      </trkpt>
      <trkpt lat="49.24078" lon="-0.2691">
        <ele>4.9</ele>
        <time>2022-05-31T14:03:08Z</time>
      </trkpt>
      <trkpt lat="49.24078" lon="-0.2691">
        <ele>4.9</ele>
        <time>2022-05-31T14:03:09Z</time>
      </trkpt>
      <trkpt lat="49.24077" lon="-0.2691">
        <ele>4.9</ele>
        <time>2022-05-31T14:03:10Z</time>
      </trkpt>
      <trkpt lat="49.24077" lon="-0.2691">
        <ele>4.9</ele>
        <time>2022-05-31T14:03:11Z</time>
      </trkpt>
      <trkpt lat="49.24076" lon="-0.2691">
        <ele>4.9</ele>
        <time>2022-05-31T14:03:12Z</time>
      </trkpt>
      <trkpt lat="49.24076" lon="-0.2691">
        <ele>4.9</ele>
        <time>2022-05-31T14:03:13Z</time>
      </trkpt>
      <trkpt lat="49.24076" lon="-0.2691">
        <ele>4.9</ele>
        <time>2022-05-31T14:03:14Z</time>
      </trkpt>
      <trkpt lat="49.24076" lon="-0.26911">
        <ele>4.9</ele>
        <time>2022-05-31T14:03:15Z</time>
      </trkpt>
      <trkpt lat="49.24076" lon="-0.26911">
        <ele>4.9</ele>
        <time>2022-05-31T14:03:16Z</time>
      </trkpt>
      <trkpt lat="49.24076" lon="-0.26912">
        <ele>4.9</ele>
        <time>2022-05-31T14:03:17Z</time>
      </trkpt>
      <trkpt lat="49.24076" lon="-0.26913">
        <ele>4.9</ele>
        <time>2022-05-31T14:03:19Z</time>
      </trkpt>
      <trkpt lat="49.24075" lon="-0.26916">
        <ele>4.9</ele>
        <time>2022-05-31T14:03:20Z</time>
      </trkpt>
      <trkpt lat="49.24075" lon="-0.26918">
        <ele>4.9</ele>
        <time>2022-05-31T14:03:21Z</time>
      </trkpt>
      <trkpt lat="49.24075" lon="-0.26919">
        <ele>4.9</ele>
        <time>2022-05-31T14:03:23Z</time>
      </trkpt>
      <trkpt lat="49.24075" lon="-0.26921">
        <ele>4.8</ele>
        <time>2022-05-31T14:03:24Z</time>
      </trkpt>
      <trkpt lat="49.24075" lon="-0.26924">
        <ele>4.8</ele>
        <time>2022-05-31T14:03:25Z</time>
      </trkpt>
      <trkpt lat="49.24075" lon="-0.26926">
        <ele>4.8</ele>
        <time>2022-05-31T14:03:26Z</time>
      </trkpt>
      <trkpt lat="49.24075" lon="-0.26927">
        <ele>4.8</ele>
        <time>2022-05-31T14:03:27Z</time>
      </trkpt>
      <trkpt lat="49.24075" lon="-0.26929">
        <ele>4.8</ele>
        <time>2022-05-31T14:03:28Z</time>
      </trkpt>
      <trkpt lat="49.24075" lon="-0.26931">
        <ele>4.8</ele>
        <time>2022-05-31T14:03:29Z</time>
      </trkpt>
      <trkpt lat="49.24076" lon="-0.26934">
        <ele>4.7</ele>
        <time>2022-05-31T14:03:31Z</time>
      </trkpt>
      <trkpt lat="49.24076" lon="-0.26935">
        <ele>4.7</ele>
        <time>2022-05-31T14:03:32Z</time>
      </trkpt>
      <trkpt lat="49.24077" lon="-0.26937">
        <ele>4.7</ele>
        <time>2022-05-31T14:03:33Z</time>
      </trkpt>
      <trkpt lat="49.24077" lon="-0.26939">
        <ele>4.7</ele>
        <time>2022-05-31T14:03:34Z</time>
      </trkpt>
      <trkpt lat="49.24077" lon="-0.26941">
        <ele>4.7</ele>
        <time>2022-05-31T14:03:36Z</time>
      </trkpt>
      <trkpt lat="49.24078" lon="-0.26941">
        <ele>4.7</ele>
        <time>2022-05-31T14:03:37Z</time>
      </trkpt>
      <trkpt lat="49.24079" lon="-0.26942">
        <ele>4.7</ele>
        <time>2022-05-31T14:03:38Z</time>
      </trkpt>
      <trkpt lat="49.24079" lon="-0.26942">
        <ele>4.6</ele>
        <time>2022-05-31T14:03:39Z</time>
      </trkpt>
      <trkpt lat="49.2408" lon="-0.26943">
        <ele>4.6</ele>
        <time>2022-05-31T14:03:40Z</time>
      </trkpt>
      <trkpt lat="49.24081" lon="-0.26944">
        <ele>4.6</ele>
        <time>2022-05-31T14:03:41Z</time>
      </trkpt>
      <trkpt lat="49.24082" lon="-0.26945">
        <ele>4.6</ele>
        <time>2022-05-31T14:03:42Z</time>
      </trkpt>
      <trkpt lat="49.24083" lon="-0.26947">
        <ele>4.6</ele>
        <time>2022-05-31T14:03:43Z</time>
      </trkpt>
      <trkpt lat="49.24085" lon="-0.26948">
        <ele>4.5</ele>
        <time>2022-05-31T14:03:44Z</time>
      </trkpt>
      <trkpt lat="49.24086" lon="-0.2695">
        <ele>4.5</ele>
        <time>2022-05-31T14:03:45Z</time>
      </trkpt>
      <trkpt lat="49.24087" lon="-0.26951">
        <ele>4.5</ele>
        <time>2022-05-31T14:03:46Z</time>
      </trkpt>
      <trkpt lat="49.24088" lon="-0.26954">
        <ele>4.5</ele>
        <time>2022-05-31T14:03:48Z</time>
      </trkpt>
      <trkpt lat="49.24089" lon="-0.26955">
        <ele>4.4</ele>
        <time>2022-05-31T14:03:49Z</time>
      </trkpt>
      <trkpt lat="49.24089" lon="-0.26956">
        <ele>4.4</ele>
        <time>2022-05-31T14:03:50Z</time>
      </trkpt>
      <trkpt lat="49.2409" lon="-0.26959">
        <ele>4.4</ele>
        <time>2022-05-31T14:03:51Z</time>
      </trkpt>
      <trkpt lat="49.2409" lon="-0.2696">
        <ele>4.4</ele>
        <time>2022-05-31T14:03:52Z</time>
      </trkpt>
      <trkpt lat="49.24091" lon="-0.26962">
        <ele>4.4</ele>
        <time>2022-05-31T14:03:53Z</time>
      </trkpt>
      <trkpt lat="49.24091" lon="-0.26964">
        <ele>4.3</ele>
        <time>2022-05-31T14:03:55Z</time>
      </trkpt>
      <trkpt lat="49.24092" lon="-0.26966">
        <ele>4.3</ele>
        <time>2022-05-31T14:03:56Z</time>
      </trkpt>
      <trkpt lat="49.24093" lon="-0.26968">
        <ele>4.3</ele>
        <time>2022-05-31T14:03:57Z</time>
      </trkpt>
      <trkpt lat="49.24093" lon="-0.2697">
        <ele>4.3</ele>
        <time>2022-05-31T14:03:58Z</time>
      </trkpt>
      <trkpt lat="49.24094" lon="-0.26972">
        <ele>4.3</ele>
        <time>2022-05-31T14:03:59Z</time>
      </trkpt>
      <trkpt lat="49.24095" lon="-0.26975">
        <ele>4.2</ele>
        <time>2022-05-31T14:04:00Z</time>
      </trkpt>
      <trkpt lat="49.24096" lon="-0.26976">
        <ele>4.2</ele>
        <time>2022-05-31T14:04:02Z</time>
      </trkpt>
      <trkpt lat="49.24096" lon="-0.26977">
        <ele>4.2</ele>
        <time>2022-05-31T14:04:03Z</time>
      </trkpt>
      <trkpt lat="49.24097" lon="-0.26978">
        <ele>4.2</ele>
        <time>2022-05-31T14:04:04Z</time>
      </trkpt>
      <trkpt lat="49.24097" lon="-0.26979">
        <ele>4.2</ele>
        <time>2022-05-31T14:04:05Z</time>
      </trkpt>
      <trkpt lat="49.24098" lon="-0.2698">
        <ele>4.2</ele>
        <time>2022-05-31T14:04:06Z</time>
      </trkpt>
      <trkpt lat="49.24098" lon="-0.26983">
        <ele>4.2</ele>
        <time>2022-05-31T14:04:07Z</time>
      </trkpt>
      <trkpt lat="49.24099" lon="-0.26984">
        <ele>4.2</ele>
        <time>2022-05-31T14:04:08Z</time>
      </trkpt>
      <trkpt lat="49.24099" lon="-0.26986">
        <ele>4.2</ele>
        <time>2022-05-31T14:04:09Z</time>
      </trkpt>
      <trkpt lat="49.241" lon="-0.26988">
        <ele>4.1</ele>
        <time>2022-05-31T14:04:10Z</time>
      </trkpt>
      <trkpt lat="49.241" lon="-0.2699">
        <ele>4.1</ele>
        <time>2022-05-31T14:04:11Z</time>
      </trkpt>
      <trkpt lat="49.24101" lon="-0.26992">
        <ele>4.1</ele>
        <time>2022-05-31T14:04:13Z</time>
      </trkpt>
      <trkpt lat="49.24101" lon="-0.26994">
        <ele>4.1</ele>
        <time>2022-05-31T14:04:14Z</time>
      </trkpt>
      <trkpt lat="49.24101" lon="-0.26995">
        <ele>4.1</ele>
        <time>2022-05-31T14:04:15Z</time>
      </trkpt>
      <trkpt lat="49.24102" lon="-0.26997">
        <ele>4.1</ele>
        <time>2022-05-31T14:04:16Z</time>
      </trkpt>
      <trkpt lat="49.24103" lon="-0.27">
        <ele>4.1</ele>
        <time>2022-05-31T14:04:17Z</time>
      </trkpt>
      <trkpt lat="49.24103" lon="-0.27002">
        <ele>4.1</ele>
        <time>2022-05-31T14:04:19Z</time>
      </trkpt>
      <trkpt lat="49.24103" lon="-0.27003">
        <ele>4.1</ele>
        <time>2022-05-31T14:04:20Z</time>
      </trkpt>
      <trkpt lat="49.24104" lon="-0.27005">
        <ele>4.1</ele>
        <time>2022-05-31T14:04:21Z</time>
      </trkpt>
      <trkpt lat="49.24104" lon="-0.27007">
        <ele>4</ele>
        <time>2022-05-31T14:04:22Z</time>
      </trkpt>
      <trkpt lat="49.24105" lon="-0.2701">
        <ele>4</ele>
        <time>2022-05-31T14:04:23Z</time>
      </trkpt>
      <trkpt lat="49.24105" lon="-0.27011">
        <ele>4</ele>
        <time>2022-05-31T14:04:24Z</time>
      </trkpt>
      <trkpt lat="49.24105" lon="-0.27013">
        <ele>4</ele>
        <time>2022-05-31T14:04:25Z</time>
      </trkpt>
      <trkpt lat="49.24105" lon="-0.27015">
        <ele>4</ele>
        <time>2022-05-31T14:04:26Z</time>
      </trkpt>
      <trkpt lat="49.24106" lon="-0.27017">
        <ele>4</ele>
        <time>2022-05-31T14:04:27Z</time>
      </trkpt>
      <trkpt lat="49.24106" lon="-0.27018">
        <ele>4</ele>
        <time>2022-05-31T14:04:28Z</time>
      </trkpt>
      <trkpt lat="49.24106" lon="-0.2702">
        <ele>4</ele>
        <time>2022-05-31T14:04:29Z</time>
      </trkpt>
      <trkpt lat="49.24107" lon="-0.27022">
        <ele>4</ele>
        <time>2022-05-31T14:04:30Z</time>
      </trkpt>
      <trkpt lat="49.24107" lon="-0.27023">
        <ele>4</ele>
        <time>2022-05-31T14:04:31Z</time>
      </trkpt>
      <trkpt lat="49.24107" lon="-0.27025">
        <ele>4</ele>
        <time>2022-05-31T14:04:32Z</time>
      </trkpt>
      <trkpt lat="49.24107" lon="-0.27027">
        <ele>3.9</ele>
        <time>2022-05-31T14:04:34Z</time>
      </trkpt>
      <trkpt lat="49.24107" lon="-0.2703">
        <ele>3.9</ele>
        <time>2022-05-31T14:04:35Z</time>
      </trkpt>
      <trkpt lat="49.24107" lon="-0.27031">
        <ele>3.9</ele>
        <time>2022-05-31T14:04:36Z</time>
      </trkpt>
      <trkpt lat="49.24107" lon="-0.27033">
        <ele>3.9</ele>
        <time>2022-05-31T14:04:37Z</time>
      </trkpt>
      <trkpt lat="49.24108" lon="-0.27036">
        <ele>3.9</ele>
        <time>2022-05-31T14:04:38Z</time>
      </trkpt>
      <trkpt lat="49.24108" lon="-0.27037">
        <ele>3.9</ele>
        <time>2022-05-31T14:04:39Z</time>
      </trkpt>
      <trkpt lat="49.24109" lon="-0.27038">
        <ele>3.9</ele>
        <time>2022-05-31T14:04:40Z</time>
      </trkpt>
      <trkpt lat="49.24109" lon="-0.27041">
        <ele>3.9</ele>
        <time>2022-05-31T14:04:41Z</time>
      </trkpt>
      <trkpt lat="49.2411" lon="-0.27042">
        <ele>3.9</ele>
        <time>2022-05-31T14:04:42Z</time>
      </trkpt>
      <trkpt lat="49.2411" lon="-0.27043">
        <ele>3.9</ele>
        <time>2022-05-31T14:04:43Z</time>
      </trkpt>
      <trkpt lat="49.2411" lon="-0.27045">
        <ele>3.9</ele>
        <time>2022-05-31T14:04:44Z</time>
      </trkpt>
      <trkpt lat="49.24111" lon="-0.27046">
        <ele>3.9</ele>
        <time>2022-05-31T14:04:45Z</time>
      </trkpt>
      <trkpt lat="49.24111" lon="-0.27048">
        <ele>3.8</ele>
        <time>2022-05-31T14:04:46Z</time>
      </trkpt>
      <trkpt lat="49.24112" lon="-0.27051">
        <ele>3.8</ele>
        <time>2022-05-31T14:04:47Z</time>
      </trkpt>
      <trkpt lat="49.24112" lon="-0.27052">
        <ele>3.8</ele>
        <time>2022-05-31T14:04:48Z</time>
      </trkpt>
      <trkpt lat="49.24113" lon="-0.27055">
        <ele>3.8</ele>
        <time>2022-05-31T14:04:50Z</time>
      </trkpt>
      <trkpt lat="49.24114" lon="-0.27056">
        <ele>3.8</ele>
        <time>2022-05-31T14:04:51Z</time>
      </trkpt>
      <trkpt lat="49.24114" lon="-0.27057">
        <ele>3.8</ele>
        <time>2022-05-31T14:04:52Z</time>
      </trkpt>
      <trkpt lat="49.24115" lon="-0.27059">
        <ele>3.8</ele>
        <time>2022-05-31T14:04:53Z</time>
      </trkpt>
      <trkpt lat="49.24115" lon="-0.27061">
        <ele>3.8</ele>
        <time>2022-05-31T14:04:54Z</time>
      </trkpt>
      <trkpt lat="49.24115" lon="-0.27062">
        <ele>3.8</ele>
        <time>2022-05-31T14:04:55Z</time>
      </trkpt>
      <trkpt lat="49.24116" lon="-0.27064">
        <ele>3.8</ele>
        <time>2022-05-31T14:04:56Z</time>
      </trkpt>
      <trkpt lat="49.24116" lon="-0.27066">
        <ele>3.8</ele>
        <time>2022-05-31T14:04:57Z</time>
      </trkpt>
      <trkpt lat="49.24117" lon="-0.27068">
        <ele>3.8</ele>
        <time>2022-05-31T14:04:58Z</time>
      </trkpt>
      <trkpt lat="49.24117" lon="-0.2707">
        <ele>3.8</ele>
        <time>2022-05-31T14:04:59Z</time>
      </trkpt>
      <trkpt lat="49.24117" lon="-0.27071">
        <ele>3.8</ele>
        <time>2022-05-31T14:05:00Z</time>
      </trkpt>
      <trkpt lat="49.24118" lon="-0.27073">
        <ele>3.8</ele>
        <time>2022-05-31T14:05:01Z</time>
      </trkpt>
      <trkpt lat="49.24118" lon="-0.27074">
        <ele>3.8</ele>
        <time>2022-05-31T14:05:02Z</time>
      </trkpt>
      <trkpt lat="49.24119" lon="-0.27076">
        <ele>3.7</ele>
        <time>2022-05-31T14:05:03Z</time>
      </trkpt>
      <trkpt lat="49.24119" lon="-0.27078">
        <ele>3.7</ele>
        <time>2022-05-31T14:05:04Z</time>
      </trkpt>
      <trkpt lat="49.2412" lon="-0.2708">
        <ele>3.7</ele>
        <time>2022-05-31T14:05:05Z</time>
      </trkpt>
      <trkpt lat="49.24121" lon="-0.27082">
        <ele>3.7</ele>
        <time>2022-05-31T14:05:07Z</time>
      </trkpt>
      <trkpt lat="49.24122" lon="-0.27084">
        <ele>3.7</ele>
        <time>2022-05-31T14:05:08Z</time>
      </trkpt>
      <trkpt lat="49.24122" lon="-0.27085">
        <ele>3.7</ele>
        <time>2022-05-31T14:05:09Z</time>
      </trkpt>
      <trkpt lat="49.24123" lon="-0.27088">
        <ele>3.7</ele>
        <time>2022-05-31T14:05:10Z</time>
      </trkpt>
      <trkpt lat="49.24124" lon="-0.27089">
        <ele>3.7</ele>
        <time>2022-05-31T14:05:11Z</time>
      </trkpt>
      <trkpt lat="49.24124" lon="-0.2709">
        <ele>3.7</ele>
        <time>2022-05-31T14:05:12Z</time>
      </trkpt>
      <trkpt lat="49.24125" lon="-0.27093">
        <ele>3.7</ele>
        <time>2022-05-31T14:05:13Z</time>
      </trkpt>
      <trkpt lat="49.24126" lon="-0.27094">
        <ele>3.7</ele>
        <time>2022-05-31T14:05:14Z</time>
      </trkpt>
      <trkpt lat="49.24126" lon="-0.27095">
        <ele>3.7</ele>
        <time>2022-05-31T14:05:15Z</time>
      </trkpt>
      <trkpt lat="49.24127" lon="-0.27097">
        <ele>3.7</ele>
        <time>2022-05-31T14:05:16Z</time>
      </trkpt>
      <trkpt lat="49.24128" lon="-0.27099">
        <ele>3.7</ele>
        <time>2022-05-31T14:05:17Z</time>
      </trkpt>
      <trkpt lat="49.24128" lon="-0.271">
        <ele>3.7</ele>
        <time>2022-05-31T14:05:18Z</time>
      </trkpt>
      <trkpt lat="49.24129" lon="-0.27102">
        <ele>3.7</ele>
        <time>2022-05-31T14:05:19Z</time>
      </trkpt>
      <trkpt lat="49.24129" lon="-0.27104">
        <ele>3.7</ele>
        <time>2022-05-31T14:05:21Z</time>
      </trkpt>
      <trkpt lat="49.2413" lon="-0.27106">
        <ele>3.7</ele>
        <time>2022-05-31T14:05:22Z</time>
      </trkpt>
      <trkpt lat="49.2413" lon="-0.27108">
        <ele>3.7</ele>
        <time>2022-05-31T14:05:23Z</time>
      </trkpt>
      <trkpt lat="49.24131" lon="-0.27111">
        <ele>3.7</ele>
        <time>2022-05-31T14:05:24Z</time>
      </trkpt>
      <trkpt lat="49.24131" lon="-0.27112">
        <ele>3.7</ele>
        <time>2022-05-31T14:05:25Z</time>
      </trkpt>
      <trkpt lat="49.24132" lon="-0.27113">
        <ele>3.7</ele>
        <time>2022-05-31T14:05:26Z</time>
      </trkpt>
      <trkpt lat="49.24133" lon="-0.27116">
        <ele>3.7</ele>
        <time>2022-05-31T14:05:27Z</time>
      </trkpt>
      <trkpt lat="49.24133" lon="-0.27117">
        <ele>3.7</ele>
        <time>2022-05-31T14:05:28Z</time>
      </trkpt>
      <trkpt lat="49.24133" lon="-0.27119">
        <ele>3.7</ele>
        <time>2022-05-31T14:05:29Z</time>
      </trkpt>
      <trkpt lat="49.24133" lon="-0.27121">
        <ele>3.7</ele>
        <time>2022-05-31T14:05:30Z</time>
      </trkpt>
      <trkpt lat="49.24133" lon="-0.27122">
        <ele>3.7</ele>
        <time>2022-05-31T14:05:31Z</time>
      </trkpt>
      <trkpt lat="49.24134" lon="-0.27124">
        <ele>3.7</ele>
        <time>2022-05-31T14:05:32Z</time>
      </trkpt>
      <trkpt lat="49.24134" lon="-0.27126">
        <ele>3.7</ele>
        <time>2022-05-31T14:05:33Z</time>
      </trkpt>
      <trkpt lat="49.24135" lon="-0.27128">
        <ele>3.7</ele>
        <time>2022-05-31T14:05:35Z</time>
      </trkpt>
      <trkpt lat="49.24135" lon="-0.27131">
        <ele>3.7</ele>
        <time>2022-05-31T14:05:36Z</time>
      </trkpt>
      <trkpt lat="49.24136" lon="-0.27132">
        <ele>3.7</ele>
        <time>2022-05-31T14:05:37Z</time>
      </trkpt>
      <trkpt lat="49.24136" lon="-0.27134">
        <ele>3.7</ele>
        <time>2022-05-31T14:05:38Z</time>
      </trkpt>
      <trkpt lat="49.24136" lon="-0.27136">
        <ele>3.7</ele>
        <time>2022-05-31T14:05:39Z</time>
      </trkpt>
      <trkpt lat="49.24137" lon="-0.27138">
        <ele>3.7</ele>
        <time>2022-05-31T14:05:40Z</time>
      </trkpt>
      <trkpt lat="49.24137" lon="-0.2714">
        <ele>3.7</ele>
        <time>2022-05-31T14:05:41Z</time>
      </trkpt>
      <trkpt lat="49.24138" lon="-0.27141">
        <ele>3.7</ele>
        <time>2022-05-31T14:05:42Z</time>
      </trkpt>
      <trkpt lat="49.24139" lon="-0.27145">
        <ele>3.7</ele>
        <time>2022-05-31T14:05:43Z</time>
      </trkpt>
      <trkpt lat="49.24139" lon="-0.27146">
        <ele>3.7</ele>
        <time>2022-05-31T14:05:44Z</time>
      </trkpt>
      <trkpt lat="49.24139" lon="-0.27147">
        <ele>3.7</ele>
        <time>2022-05-31T14:05:45Z</time>
      </trkpt>
      <trkpt lat="49.2414" lon="-0.27149">
        <ele>3.7</ele>
        <time>2022-05-31T14:05:46Z</time>
      </trkpt>
      <trkpt lat="49.2414" lon="-0.27153">
        <ele>3.7</ele>
        <time>2022-05-31T14:05:48Z</time>
      </trkpt>
      <trkpt lat="49.2414" lon="-0.27153">
        <ele>3.7</ele>
        <time>2022-05-31T14:05:49Z</time>
      </trkpt>
      <trkpt lat="49.2414" lon="-0.27155">
        <ele>3.7</ele>
        <time>2022-05-31T14:05:50Z</time>
      </trkpt>
      <trkpt lat="49.24141" lon="-0.27156">
        <ele>3.7</ele>
        <time>2022-05-31T14:05:51Z</time>
      </trkpt>
      <trkpt lat="49.24141" lon="-0.27158">
        <ele>3.7</ele>
        <time>2022-05-31T14:05:52Z</time>
      </trkpt>
      <trkpt lat="49.24141" lon="-0.2716">
        <ele>3.7</ele>
        <time>2022-05-31T14:05:53Z</time>
      </trkpt>
      <trkpt lat="49.24141" lon="-0.27161">
        <ele>3.7</ele>
        <time>2022-05-31T14:05:54Z</time>
      </trkpt>
      <trkpt lat="49.2414" lon="-0.27162">
        <ele>3.8</ele>
        <time>2022-05-31T14:05:55Z</time>
      </trkpt>
      <trkpt lat="49.2414" lon="-0.27162">
        <ele>3.8</ele>
        <time>2022-05-31T14:05:56Z</time>
      </trkpt>
      <trkpt lat="49.24141" lon="-0.27166">
        <ele>3.8</ele>
        <time>2022-05-31T14:05:57Z</time>
      </trkpt>
      <trkpt lat="49.24141" lon="-0.27167">
        <ele>3.8</ele>
        <time>2022-05-31T14:05:58Z</time>
      </trkpt>
      <trkpt lat="49.24142" lon="-0.27169">
        <ele>3.8</ele>
        <time>2022-05-31T14:06:00Z</time>
      </trkpt>
      <trkpt lat="49.24142" lon="-0.2717">
        <ele>3.8</ele>
        <time>2022-05-31T14:06:01Z</time>
      </trkpt>
      <trkpt lat="49.24143" lon="-0.27171">
        <ele>3.8</ele>
        <time>2022-05-31T14:06:02Z</time>
      </trkpt>
      <trkpt lat="49.24143" lon="-0.27173">
        <ele>3.8</ele>
        <time>2022-05-31T14:06:03Z</time>
      </trkpt>
      <trkpt lat="49.24144" lon="-0.27176">
        <ele>3.8</ele>
        <time>2022-05-31T14:06:04Z</time>
      </trkpt>
      <trkpt lat="49.24144" lon="-0.27177">
        <ele>3.8</ele>
        <time>2022-05-31T14:06:05Z</time>
      </trkpt>
      <trkpt lat="49.24145" lon="-0.27178">
        <ele>3.8</ele>
        <time>2022-05-31T14:06:06Z</time>
      </trkpt>
      <trkpt lat="49.24146" lon="-0.2718">
        <ele>3.8</ele>
        <time>2022-05-31T14:06:07Z</time>
      </trkpt>
      <trkpt lat="49.24146" lon="-0.27181">
        <ele>3.8</ele>
        <time>2022-05-31T14:06:08Z</time>
      </trkpt>
      <trkpt lat="49.24147" lon="-0.27183">
        <ele>3.9</ele>
        <time>2022-05-31T14:06:09Z</time>
      </trkpt>
      <trkpt lat="49.24148" lon="-0.27186">
        <ele>3.9</ele>
        <time>2022-05-31T14:06:10Z</time>
      </trkpt>
      <trkpt lat="49.24148" lon="-0.27187">
        <ele>3.9</ele>
        <time>2022-05-31T14:06:12Z</time>
      </trkpt>
      <trkpt lat="49.24149" lon="-0.27188">
        <ele>3.9</ele>
        <time>2022-05-31T14:06:13Z</time>
      </trkpt>
      <trkpt lat="49.24149" lon="-0.27189">
        <ele>3.9</ele>
        <time>2022-05-31T14:06:14Z</time>
      </trkpt>
      <trkpt lat="49.24149" lon="-0.2719">
        <ele>3.9</ele>
        <time>2022-05-31T14:06:15Z</time>
      </trkpt>
      <trkpt lat="49.2415" lon="-0.27191">
        <ele>3.9</ele>
        <time>2022-05-31T14:06:16Z</time>
      </trkpt>
      <trkpt lat="49.24151" lon="-0.2719">
        <ele>3.9</ele>
        <time>2022-05-31T14:06:17Z</time>
      </trkpt>
      <trkpt lat="49.24152" lon="-0.27187">
        <ele>3.9</ele>
        <time>2022-05-31T14:06:19Z</time>
      </trkpt>
      <trkpt lat="49.24152" lon="-0.27186">
        <ele>3.9</ele>
        <time>2022-05-31T14:06:20Z</time>
      </trkpt>
      <trkpt lat="49.24152" lon="-0.27185">
        <ele>3.9</ele>
        <time>2022-05-31T14:06:21Z</time>
      </trkpt>
      <trkpt lat="49.24152" lon="-0.27185">
        <ele>3.9</ele>
        <time>2022-05-31T14:06:22Z</time>
      </trkpt>
      <trkpt lat="49.24152" lon="-0.27183">
        <ele>4</ele>
        <time>2022-05-31T14:06:24Z</time>
      </trkpt>
      <trkpt lat="49.24152" lon="-0.27182">
        <ele>4</ele>
        <time>2022-05-31T14:06:25Z</time>
      </trkpt>
      <trkpt lat="49.24151" lon="-0.27182">
        <ele>4</ele>
        <time>2022-05-31T14:06:26Z</time>
      </trkpt>
      <trkpt lat="49.24151" lon="-0.27182">
        <ele>4</ele>
        <time>2022-05-31T14:06:27Z</time>
      </trkpt>
      <trkpt lat="49.24151" lon="-0.27182">
        <ele>4</ele>
        <time>2022-05-31T14:06:28Z</time>
      </trkpt>
      <trkpt lat="49.24151" lon="-0.27181">
        <ele>4</ele>
        <time>2022-05-31T14:06:29Z</time>
      </trkpt>
      <trkpt lat="49.24151" lon="-0.27181">
        <ele>4</ele>
        <time>2022-05-31T14:06:30Z</time>
      </trkpt>
      <trkpt lat="49.24151" lon="-0.27181">
        <ele>4</ele>
        <time>2022-05-31T14:06:31Z</time>
      </trkpt>
      <trkpt lat="49.24151" lon="-0.27181">
        <ele>4</ele>
        <time>2022-05-31T14:06:32Z</time>
      </trkpt>
      <trkpt lat="49.24151" lon="-0.27181">
        <ele>4</ele>
        <time>2022-05-31T14:06:33Z</time>
      </trkpt>
      <trkpt lat="49.24151" lon="-0.27181">
        <ele>4</ele>
        <time>2022-05-31T14:06:34Z</time>
      </trkpt>
      <trkpt lat="49.24151" lon="-0.27182">
        <ele>4</ele>
        <time>2022-05-31T14:06:35Z</time>
      </trkpt>
      <trkpt lat="49.24151" lon="-0.27182">
        <ele>4</ele>
        <time>2022-05-31T14:06:36Z</time>
      </trkpt>
      <trkpt lat="49.24151" lon="-0.27182">
        <ele>4</ele>
        <time>2022-05-31T14:06:37Z</time>
      </trkpt>
      <trkpt lat="49.24151" lon="-0.27183">
        <ele>4</ele>
        <time>2022-05-31T14:06:39Z</time>
      </trkpt>
      <trkpt lat="49.24151" lon="-0.27184">
        <ele>4</ele>
        <time>2022-05-31T14:06:40Z</time>
      </trkpt>
      <trkpt lat="49.24151" lon="-0.27187">
        <ele>4</ele>
        <time>2022-05-31T14:06:41Z</time>
      </trkpt>
      <trkpt lat="49.24152" lon="-0.2719">
        <ele>4</ele>
        <time>2022-05-31T14:06:42Z</time>
      </trkpt>
      <trkpt lat="49.24152" lon="-0.27193">
        <ele>4</ele>
        <time>2022-05-31T14:06:43Z</time>
      </trkpt>
      <trkpt lat="49.24151" lon="-0.27197">
        <ele>4.1</ele>
        <time>2022-05-31T14:06:45Z</time>
      </trkpt>
      <trkpt lat="49.24151" lon="-0.27199">
        <ele>4.1</ele>
        <time>2022-05-31T14:06:46Z</time>
      </trkpt>
      <trkpt lat="49.2415" lon="-0.27201">
        <ele>4.1</ele>
        <time>2022-05-31T14:06:47Z</time>
      </trkpt>
      <trkpt lat="49.2415" lon="-0.27202">
        <ele>4.1</ele>
        <time>2022-05-31T14:06:48Z</time>
      </trkpt>
      <trkpt lat="49.2415" lon="-0.27204">
        <ele>4.1</ele>
        <time>2022-05-31T14:06:50Z</time>
      </trkpt>
      <trkpt lat="49.2415" lon="-0.27206">
        <ele>4.1</ele>
        <time>2022-05-31T14:06:51Z</time>
      </trkpt>
      <trkpt lat="49.2415" lon="-0.27207">
        <ele>4.1</ele>
        <time>2022-05-31T14:06:52Z</time>
      </trkpt>
      <trkpt lat="49.24151" lon="-0.27208">
        <ele>4.1</ele>
        <time>2022-05-31T14:06:53Z</time>
      </trkpt>
      <trkpt lat="49.24152" lon="-0.27211">
        <ele>4.1</ele>
        <time>2022-05-31T14:06:54Z</time>
      </trkpt>
      <trkpt lat="49.24153" lon="-0.27212">
        <ele>4.2</ele>
        <time>2022-05-31T14:06:55Z</time>
      </trkpt>
      <trkpt lat="49.24154" lon="-0.27213">
        <ele>4.2</ele>
        <time>2022-05-31T14:06:56Z</time>
      </trkpt>
      <trkpt lat="49.24155" lon="-0.27215">
        <ele>4.2</ele>
        <time>2022-05-31T14:06:57Z</time>
      </trkpt>
      <trkpt lat="49.24156" lon="-0.27216">
        <ele>4.2</ele>
        <time>2022-05-31T14:06:58Z</time>
      </trkpt>
      <trkpt lat="49.24157" lon="-0.27217">
        <ele>4.2</ele>
        <time>2022-05-31T14:06:59Z</time>
      </trkpt>
      <trkpt lat="49.24158" lon="-0.2722">
        <ele>4.2</ele>
        <time>2022-05-31T14:07:01Z</time>
      </trkpt>
      <trkpt lat="49.24158" lon="-0.2722">
        <ele>4.2</ele>
        <time>2022-05-31T14:07:02Z</time>
      </trkpt>
      <trkpt lat="49.24159" lon="-0.27221">
        <ele>4.2</ele>
        <time>2022-05-31T14:07:03Z</time>
      </trkpt>
      <trkpt lat="49.2416" lon="-0.27223">
        <ele>4.2</ele>
        <time>2022-05-31T14:07:04Z</time>
      </trkpt>
      <trkpt lat="49.24161" lon="-0.27224">
        <ele>4.3</ele>
        <time>2022-05-31T14:07:05Z</time>
      </trkpt>
      <trkpt lat="49.24162" lon="-0.27227">
        <ele>4.3</ele>
        <time>2022-05-31T14:07:06Z</time>
      </trkpt>
      <trkpt lat="49.24163" lon="-0.27229">
        <ele>4.3</ele>
        <time>2022-05-31T14:07:08Z</time>
      </trkpt>
      <trkpt lat="49.24164" lon="-0.27232">
        <ele>4.3</ele>
        <time>2022-05-31T14:07:09Z</time>
      </trkpt>
      <trkpt lat="49.24165" lon="-0.27234">
        <ele>4.3</ele>
        <time>2022-05-31T14:07:10Z</time>
      </trkpt>
      <trkpt lat="49.24165" lon="-0.27236">
        <ele>4.4</ele>
        <time>2022-05-31T14:07:11Z</time>
      </trkpt>
      <trkpt lat="49.24166" lon="-0.27238">
        <ele>4.4</ele>
        <time>2022-05-31T14:07:12Z</time>
      </trkpt>
      <trkpt lat="49.24167" lon="-0.2724">
        <ele>4.4</ele>
        <time>2022-05-31T14:07:14Z</time>
      </trkpt>
      <trkpt lat="49.24168" lon="-0.27242">
        <ele>4.4</ele>
        <time>2022-05-31T14:07:15Z</time>
      </trkpt>
      <trkpt lat="49.24168" lon="-0.27243">
        <ele>4.4</ele>
        <time>2022-05-31T14:07:16Z</time>
      </trkpt>
      <trkpt lat="49.24169" lon="-0.27246">
        <ele>4.4</ele>
        <time>2022-05-31T14:07:17Z</time>
      </trkpt>
      <trkpt lat="49.24169" lon="-0.27247">
        <ele>4.5</ele>
        <time>2022-05-31T14:07:18Z</time>
      </trkpt>
      <trkpt lat="49.2417" lon="-0.27248">
        <ele>4.5</ele>
        <time>2022-05-31T14:07:19Z</time>
      </trkpt>
      <trkpt lat="49.24171" lon="-0.27251">
        <ele>4.5</ele>
        <time>2022-05-31T14:07:20Z</time>
      </trkpt>
      <trkpt lat="49.24171" lon="-0.27252">
        <ele>4.5</ele>
        <time>2022-05-31T14:07:21Z</time>
      </trkpt>
      <trkpt lat="49.24171" lon="-0.27254">
        <ele>4.5</ele>
        <time>2022-05-31T14:07:22Z</time>
      </trkpt>
      <trkpt lat="49.24171" lon="-0.27255">
        <ele>4.5</ele>
        <time>2022-05-31T14:07:24Z</time>
      </trkpt>
      <trkpt lat="49.24172" lon="-0.27257">
        <ele>4.5</ele>
        <time>2022-05-31T14:07:25Z</time>
      </trkpt>
      <trkpt lat="49.24172" lon="-0.27259">
        <ele>4.6</ele>
        <time>2022-05-31T14:07:26Z</time>
      </trkpt>
      <trkpt lat="49.24172" lon="-0.27262">
        <ele>4.6</ele>
        <time>2022-05-31T14:07:27Z</time>
      </trkpt>
      <trkpt lat="49.24173" lon="-0.27263">
        <ele>4.6</ele>
        <time>2022-05-31T14:07:28Z</time>
      </trkpt>
      <trkpt lat="49.24173" lon="-0.27264">
        <ele>4.6</ele>
        <time>2022-05-31T14:07:29Z</time>
      </trkpt>
      <trkpt lat="49.24174" lon="-0.27266">
        <ele>4.6</ele>
        <time>2022-05-31T14:07:30Z</time>
      </trkpt>
      <trkpt lat="49.24174" lon="-0.27268">
        <ele>4.6</ele>
        <time>2022-05-31T14:07:31Z</time>
      </trkpt>
      <trkpt lat="49.24176" lon="-0.27271">
        <ele>4.7</ele>
        <time>2022-05-31T14:07:32Z</time>
      </trkpt>
      <trkpt lat="49.24176" lon="-0.27273">
        <ele>4.7</ele>
        <time>2022-05-31T14:07:34Z</time>
      </trkpt>
      <trkpt lat="49.24177" lon="-0.27274">
        <ele>4.7</ele>
        <time>2022-05-31T14:07:35Z</time>
      </trkpt>
      <trkpt lat="49.24177" lon="-0.27276">
        <ele>4.7</ele>
        <time>2022-05-31T14:07:36Z</time>
      </trkpt>
      <trkpt lat="49.24177" lon="-0.27277">
        <ele>4.7</ele>
        <time>2022-05-31T14:07:37Z</time>
      </trkpt>
      <trkpt lat="49.24178" lon="-0.27279">
        <ele>4.7</ele>
        <time>2022-05-31T14:07:38Z</time>
      </trkpt>
      <trkpt lat="49.24179" lon="-0.27281">
        <ele>4.8</ele>
        <time>2022-05-31T14:07:39Z</time>
      </trkpt>
      <trkpt lat="49.24179" lon="-0.27282">
        <ele>4.8</ele>
        <time>2022-05-31T14:07:40Z</time>
      </trkpt>
      <trkpt lat="49.2418" lon="-0.27284">
        <ele>4.8</ele>
        <time>2022-05-31T14:07:42Z</time>
      </trkpt>
      <trkpt lat="49.2418" lon="-0.27286">
        <ele>4.8</ele>
        <time>2022-05-31T14:07:43Z</time>
      </trkpt>
      <trkpt lat="49.24181" lon="-0.27287">
        <ele>4.8</ele>
        <time>2022-05-31T14:07:44Z</time>
      </trkpt>
      <trkpt lat="49.24181" lon="-0.27289">
        <ele>4.8</ele>
        <time>2022-05-31T14:07:45Z</time>
      </trkpt>
      <trkpt lat="49.24181" lon="-0.2729">
        <ele>4.8</ele>
        <time>2022-05-31T14:07:46Z</time>
      </trkpt>
      <trkpt lat="49.24182" lon="-0.27294">
        <ele>4.9</ele>
        <time>2022-05-31T14:07:47Z</time>
      </trkpt>
      <trkpt lat="49.24182" lon="-0.27295">
        <ele>4.9</ele>
        <time>2022-05-31T14:07:48Z</time>
      </trkpt>
      <trkpt lat="49.24182" lon="-0.27296">
        <ele>4.9</ele>
        <time>2022-05-31T14:07:49Z</time>
      </trkpt>
      <trkpt lat="49.24183" lon="-0.27297">
        <ele>4.9</ele>
        <time>2022-05-31T14:07:50Z</time>
      </trkpt>
      <trkpt lat="49.24184" lon="-0.27299">
        <ele>4.9</ele>
        <time>2022-05-31T14:07:51Z</time>
      </trkpt>
      <trkpt lat="49.24184" lon="-0.27301">
        <ele>5</ele>
        <time>2022-05-31T14:07:53Z</time>
      </trkpt>
      <trkpt lat="49.24184" lon="-0.27302">
        <ele>5</ele>
        <time>2022-05-31T14:07:54Z</time>
      </trkpt>
      <trkpt lat="49.24185" lon="-0.27303">
        <ele>5</ele>
        <time>2022-05-31T14:07:55Z</time>
      </trkpt>
      <trkpt lat="49.24185" lon="-0.27305">
        <ele>5</ele>
        <time>2022-05-31T14:07:56Z</time>
      </trkpt>
      <trkpt lat="49.24186" lon="-0.27306">
        <ele>5</ele>
        <time>2022-05-31T14:07:57Z</time>
      </trkpt>
      <trkpt lat="49.24187" lon="-0.27308">
        <ele>5.1</ele>
        <time>2022-05-31T14:07:58Z</time>
      </trkpt>
      <trkpt lat="49.24187" lon="-0.27309">
        <ele>5.1</ele>
        <time>2022-05-31T14:07:59Z</time>
      </trkpt>
      <trkpt lat="49.24188" lon="-0.2731">
        <ele>5.1</ele>
        <time>2022-05-31T14:08:00Z</time>
      </trkpt>
      <trkpt lat="49.24189" lon="-0.27312">
        <ele>5.1</ele>
        <time>2022-05-31T14:08:01Z</time>
      </trkpt>
      <trkpt lat="49.2419" lon="-0.27313">
        <ele>5.1</ele>
        <time>2022-05-31T14:08:03Z</time>
      </trkpt>
      <trkpt lat="49.24191" lon="-0.27313">
        <ele>5.2</ele>
        <time>2022-05-31T14:08:04Z</time>
      </trkpt>
      <trkpt lat="49.24192" lon="-0.27314">
        <ele>5.2</ele>
        <time>2022-05-31T14:08:05Z</time>
      </trkpt>
      <trkpt lat="49.24193" lon="-0.27315">
        <ele>5.2</ele>
        <time>2022-05-31T14:08:06Z</time>
      </trkpt>
      <trkpt lat="49.24195" lon="-0.27317">
        <ele>5.2</ele>
        <time>2022-05-31T14:08:07Z</time>
      </trkpt>
      <trkpt lat="49.24196" lon="-0.27318">
        <ele>5.2</ele>
        <time>2022-05-31T14:08:08Z</time>
      </trkpt>
      <trkpt lat="49.24196" lon="-0.27318">
        <ele>5.3</ele>
        <time>2022-05-31T14:08:09Z</time>
      </trkpt>
      <trkpt lat="49.24197" lon="-0.27321">
        <ele>5.3</ele>
        <time>2022-05-31T14:08:10Z</time>
      </trkpt>
      <trkpt lat="49.24198" lon="-0.27322">
        <ele>5.3</ele>
        <time>2022-05-31T14:08:12Z</time>
      </trkpt>
      <trkpt lat="49.24198" lon="-0.27323">
        <ele>5.3</ele>
        <time>2022-05-31T14:08:13Z</time>
      </trkpt>
      <trkpt lat="49.24199" lon="-0.27325">
        <ele>5.3</ele>
        <time>2022-05-31T14:08:14Z</time>
      </trkpt>
      <trkpt lat="49.242" lon="-0.27327">
        <ele>5.4</ele>
        <time>2022-05-31T14:08:15Z</time>
      </trkpt>
      <trkpt lat="49.242" lon="-0.27329">
        <ele>5.4</ele>
        <time>2022-05-31T14:08:16Z</time>
      </trkpt>
      <trkpt lat="49.242" lon="-0.27332">
        <ele>5.4</ele>
        <time>2022-05-31T14:08:17Z</time>
      </trkpt>
      <trkpt lat="49.24201" lon="-0.27334">
        <ele>5.4</ele>
        <time>2022-05-31T14:08:19Z</time>
      </trkpt>
      <trkpt lat="49.24201" lon="-0.27336">
        <ele>5.5</ele>
        <time>2022-05-31T14:08:20Z</time>
      </trkpt>
      <trkpt lat="49.24201" lon="-0.27338">
        <ele>5.5</ele>
        <time>2022-05-31T14:08:21Z</time>
      </trkpt>
      <trkpt lat="49.24202" lon="-0.2734">
        <ele>5.5</ele>
        <time>2022-05-31T14:08:22Z</time>
      </trkpt>
      <trkpt lat="49.24202" lon="-0.27341">
        <ele>5.5</ele>
        <time>2022-05-31T14:08:23Z</time>
      </trkpt>
      <trkpt lat="49.24204" lon="-0.27344">
        <ele>5.6</ele>
        <time>2022-05-31T14:08:24Z</time>
      </trkpt>
      <trkpt lat="49.24205" lon="-0.27345">
        <ele>5.6</ele>
        <time>2022-05-31T14:08:26Z</time>
      </trkpt>
      <trkpt lat="49.24206" lon="-0.27347">
        <ele>5.6</ele>
        <time>2022-05-31T14:08:27Z</time>
      </trkpt>
      <trkpt lat="49.24206" lon="-0.27349">
        <ele>5.6</ele>
        <time>2022-05-31T14:08:28Z</time>
      </trkpt>
      <trkpt lat="49.24207" lon="-0.27351">
        <ele>5.6</ele>
        <time>2022-05-31T14:08:29Z</time>
      </trkpt>
      <trkpt lat="49.24208" lon="-0.27353">
        <ele>5.7</ele>
        <time>2022-05-31T14:08:30Z</time>
      </trkpt>
      <trkpt lat="49.24208" lon="-0.27354">
        <ele>5.7</ele>
        <time>2022-05-31T14:08:32Z</time>
      </trkpt>
      <trkpt lat="49.24208" lon="-0.27355">
        <ele>5.7</ele>
        <time>2022-05-31T14:08:33Z</time>
      </trkpt>
      <trkpt lat="49.24208" lon="-0.27355">
        <ele>5.7</ele>
        <time>2022-05-31T14:08:34Z</time>
      </trkpt>
      <trkpt lat="49.24208" lon="-0.27356">
        <ele>5.7</ele>
        <time>2022-05-31T14:08:35Z</time>
      </trkpt>
      <trkpt lat="49.24209" lon="-0.27358">
        <ele>5.7</ele>
        <time>2022-05-31T14:08:36Z</time>
      </trkpt>
      <trkpt lat="49.24209" lon="-0.27359">
        <ele>5.7</ele>
        <time>2022-05-31T14:08:37Z</time>
      </trkpt>
      <trkpt lat="49.24209" lon="-0.27361">
        <ele>5.7</ele>
        <time>2022-05-31T14:08:38Z</time>
      </trkpt>
      <trkpt lat="49.24209" lon="-0.27362">
        <ele>5.8</ele>
        <time>2022-05-31T14:08:40Z</time>
      </trkpt>
      <trkpt lat="49.24209" lon="-0.27364">
        <ele>5.8</ele>
        <time>2022-05-31T14:08:41Z</time>
      </trkpt>
      <trkpt lat="49.24209" lon="-0.27365">
        <ele>5.8</ele>
        <time>2022-05-31T14:08:42Z</time>
      </trkpt>
      <trkpt lat="49.24208" lon="-0.27366">
        <ele>5.8</ele>
        <time>2022-05-31T14:08:43Z</time>
      </trkpt>
      <trkpt lat="49.24207" lon="-0.27367">
        <ele>5.8</ele>
        <time>2022-05-31T14:08:44Z</time>
      </trkpt>
      <trkpt lat="49.24205" lon="-0.27368">
        <ele>5.8</ele>
        <time>2022-05-31T14:08:45Z</time>
      </trkpt>
      <trkpt lat="49.24205" lon="-0.27369">
        <ele>5.8</ele>
        <time>2022-05-31T14:08:47Z</time>
      </trkpt>
      <trkpt lat="49.24204" lon="-0.27369">
        <ele>5.8</ele>
        <time>2022-05-31T14:08:48Z</time>
      </trkpt>
      <trkpt lat="49.24203" lon="-0.2737">
        <ele>5.8</ele>
        <time>2022-05-31T14:08:49Z</time>
      </trkpt>
      <trkpt lat="49.24202" lon="-0.2737">
        <ele>5.8</ele>
        <time>2022-05-31T14:08:50Z</time>
      </trkpt>
      <trkpt lat="49.24202" lon="-0.2737">
        <ele>5.8</ele>
        <time>2022-05-31T14:08:51Z</time>
      </trkpt>
      <trkpt lat="49.24201" lon="-0.2737">
        <ele>5.8</ele>
        <time>2022-05-31T14:08:52Z</time>
      </trkpt>
      <trkpt lat="49.24201" lon="-0.2737">
        <ele>5.8</ele>
        <time>2022-05-31T14:08:53Z</time>
      </trkpt>
      <trkpt lat="49.24201" lon="-0.2737">
        <ele>5.8</ele>
        <time>2022-05-31T14:08:54Z</time>
      </trkpt>
      <trkpt lat="49.24201" lon="-0.27369">
        <ele>5.8</ele>
        <time>2022-05-31T14:08:55Z</time>
      </trkpt>
      <trkpt lat="49.24201" lon="-0.27369">
        <ele>5.8</ele>
        <time>2022-05-31T14:08:57Z</time>
      </trkpt>
      <trkpt lat="49.24201" lon="-0.27368">
        <ele>5.8</ele>
        <time>2022-05-31T14:08:58Z</time>
      </trkpt>
      <trkpt lat="49.24201" lon="-0.27368">
        <ele>5.8</ele>
        <time>2022-05-31T14:08:59Z</time>
      </trkpt>
      <trkpt lat="49.242" lon="-0.27367">
        <ele>5.8</ele>
        <time>2022-05-31T14:09:00Z</time>
      </trkpt>
      <trkpt lat="49.242" lon="-0.27367">
        <ele>5.8</ele>
        <time>2022-05-31T14:09:01Z</time>
      </trkpt>
      <trkpt lat="49.242" lon="-0.27367">
        <ele>5.8</ele>
        <time>2022-05-31T14:09:02Z</time>
      </trkpt>
      <trkpt lat="49.24199" lon="-0.27367">
        <ele>5.8</ele>
        <time>2022-05-31T14:09:03Z</time>
      </trkpt>
      <trkpt lat="49.24199" lon="-0.27366">
        <ele>5.8</ele>
        <time>2022-05-31T14:09:04Z</time>
      </trkpt>
      <trkpt lat="49.24199" lon="-0.27365">
        <ele>5.8</ele>
        <time>2022-05-31T14:09:05Z</time>
      </trkpt>
      <trkpt lat="49.242" lon="-0.27364">
        <ele>5.8</ele>
        <time>2022-05-31T14:09:06Z</time>
      </trkpt>
      <trkpt lat="49.242" lon="-0.27362">
        <ele>5.8</ele>
        <time>2022-05-31T14:09:07Z</time>
      </trkpt>
      <trkpt lat="49.24201" lon="-0.27361">
        <ele>5.8</ele>
        <time>2022-05-31T14:09:08Z</time>
      </trkpt>
      <trkpt lat="49.24201" lon="-0.2736">
        <ele>5.8</ele>
        <time>2022-05-31T14:09:09Z</time>
      </trkpt>
      <trkpt lat="49.24202" lon="-0.27359">
        <ele>5.8</ele>
        <time>2022-05-31T14:09:10Z</time>
      </trkpt>
      <trkpt lat="49.24203" lon="-0.27358">
        <ele>5.8</ele>
        <time>2022-05-31T14:09:12Z</time>
      </trkpt>
      <trkpt lat="49.24204" lon="-0.27358">
        <ele>5.8</ele>
        <time>2022-05-31T14:09:13Z</time>
      </trkpt>
      <trkpt lat="49.24205" lon="-0.27358">
        <ele>5.8</ele>
        <time>2022-05-31T14:09:14Z</time>
      </trkpt>
      <trkpt lat="49.24205" lon="-0.27359">
        <ele>5.8</ele>
        <time>2022-05-31T14:09:15Z</time>
      </trkpt>
      <trkpt lat="49.24205" lon="-0.27359">
        <ele>5.8</ele>
        <time>2022-05-31T14:09:16Z</time>
      </trkpt>
      <trkpt lat="49.24205" lon="-0.27359">
        <ele>5.8</ele>
        <time>2022-05-31T14:09:17Z</time>
      </trkpt>
      <trkpt lat="49.24206" lon="-0.27359">
        <ele>5.8</ele>
        <time>2022-05-31T14:09:18Z</time>
      </trkpt>
      <trkpt lat="49.24206" lon="-0.27359">
        <ele>5.8</ele>
        <time>2022-05-31T14:09:19Z</time>
      </trkpt>
      <trkpt lat="49.24206" lon="-0.2736">
        <ele>5.8</ele>
        <time>2022-05-31T14:09:20Z</time>
      </trkpt>
      <trkpt lat="49.24205" lon="-0.2736">
        <ele>5.8</ele>
        <time>2022-05-31T14:09:21Z</time>
      </trkpt>
      <trkpt lat="49.24205" lon="-0.2736">
        <ele>5.8</ele>
        <time>2022-05-31T14:09:22Z</time>
      </trkpt>
      <trkpt lat="49.24205" lon="-0.2736">
        <ele>5.8</ele>
        <time>2022-05-31T14:09:23Z</time>
      </trkpt>
      <trkpt lat="49.24205" lon="-0.2736">
        <ele>5.8</ele>
        <time>2022-05-31T14:09:24Z</time>
      </trkpt>
      <trkpt lat="49.24205" lon="-0.2736">
        <ele>5.8</ele>
        <time>2022-05-31T14:09:25Z</time>
      </trkpt>
      <trkpt lat="49.24204" lon="-0.2736">
        <ele>5.8</ele>
        <time>2022-05-31T14:09:26Z</time>
      </trkpt>
      <trkpt lat="49.24204" lon="-0.2736">
        <ele>5.8</ele>
        <time>2022-05-31T14:09:27Z</time>
      </trkpt>
      <trkpt lat="49.24204" lon="-0.2736">
        <ele>5.8</ele>
        <time>2022-05-31T14:09:29Z</time>
      </trkpt>
      <trkpt lat="49.24203" lon="-0.2736">
        <ele>5.8</ele>
        <time>2022-05-31T14:09:30Z</time>
      </trkpt>
      <trkpt lat="49.24203" lon="-0.2736">
        <ele>5.8</ele>
        <time>2022-05-31T14:09:31Z</time>
      </trkpt>
      <trkpt lat="49.24202" lon="-0.2736">
        <ele>5.8</ele>
        <time>2022-05-31T14:09:32Z</time>
      </trkpt>
      <trkpt lat="49.24201" lon="-0.27361">
        <ele>5.8</ele>
        <time>2022-05-31T14:09:33Z</time>
      </trkpt>
      <trkpt lat="49.24201" lon="-0.27362">
        <ele>5.8</ele>
        <time>2022-05-31T14:09:35Z</time>
      </trkpt>
      <trkpt lat="49.24201" lon="-0.27364">
        <ele>5.8</ele>
        <time>2022-05-31T14:09:36Z</time>
      </trkpt>
      <trkpt lat="49.242" lon="-0.27365">
        <ele>5.8</ele>
        <time>2022-05-31T14:09:37Z</time>
      </trkpt>
      <trkpt lat="49.242" lon="-0.27366">
        <ele>5.8</ele>
        <time>2022-05-31T14:09:38Z</time>
      </trkpt>
      <trkpt lat="49.24201" lon="-0.27367">
        <ele>5.8</ele>
        <time>2022-05-31T14:09:39Z</time>
      </trkpt>
      <trkpt lat="49.24201" lon="-0.27368">
        <ele>5.8</ele>
        <time>2022-05-31T14:09:40Z</time>
      </trkpt>
      <trkpt lat="49.24201" lon="-0.27368">
        <ele>5.8</ele>
        <time>2022-05-31T14:09:41Z</time>
      </trkpt>
      <trkpt lat="49.24201" lon="-0.27368">
        <ele>5.8</ele>
        <time>2022-05-31T14:09:42Z</time>
      </trkpt>
      <trkpt lat="49.24201" lon="-0.27369">
        <ele>5.8</ele>
        <time>2022-05-31T14:09:43Z</time>
      </trkpt>
      <trkpt lat="49.24201" lon="-0.27369">
        <ele>5.8</ele>
        <time>2022-05-31T14:09:44Z</time>
      </trkpt>
      <trkpt lat="49.24202" lon="-0.27369">
        <ele>5.8</ele>
        <time>2022-05-31T14:09:45Z</time>
      </trkpt>
      <trkpt lat="49.24202" lon="-0.27369">
        <ele>5.8</ele>
        <time>2022-05-31T14:09:46Z</time>
      </trkpt>
      <trkpt lat="49.24202" lon="-0.27369">
        <ele>5.8</ele>
        <time>2022-05-31T14:09:47Z</time>
      </trkpt>
      <trkpt lat="49.24202" lon="-0.27369">
        <ele>5.8</ele>
        <time>2022-05-31T14:09:48Z</time>
      </trkpt>
      <trkpt lat="49.24202" lon="-0.27369">
        <ele>5.8</ele>
        <time>2022-05-31T14:09:49Z</time>
      </trkpt>
      <trkpt lat="49.24202" lon="-0.2737">
        <ele>5.8</ele>
        <time>2022-05-31T14:09:50Z</time>
      </trkpt>
      <trkpt lat="49.24202" lon="-0.2737">
        <ele>5.8</ele>
        <time>2022-05-31T14:09:51Z</time>
      </trkpt>
      <trkpt lat="49.24203" lon="-0.2737">
        <ele>5.8</ele>
        <time>2022-05-31T14:09:52Z</time>
      </trkpt>
      <trkpt lat="49.24203" lon="-0.27369">
        <ele>5.8</ele>
        <time>2022-05-31T14:09:53Z</time>
      </trkpt>
      <trkpt lat="49.24203" lon="-0.27369">
        <ele>5.8</ele>
        <time>2022-05-31T14:09:55Z</time>
      </trkpt>
      <trkpt lat="49.24204" lon="-0.2737">
        <ele>5.8</ele>
        <time>2022-05-31T14:09:56Z</time>
      </trkpt>
      <trkpt lat="49.24204" lon="-0.2737">
        <ele>5.8</ele>
        <time>2022-05-31T14:09:57Z</time>
      </trkpt>
      <trkpt lat="49.24205" lon="-0.27371">
        <ele>5.8</ele>
        <time>2022-05-31T14:09:59Z</time>
      </trkpt>
      <trkpt lat="49.24206" lon="-0.27371">
        <ele>5.8</ele>
        <time>2022-05-31T14:10:00Z</time>
      </trkpt>
      <trkpt lat="49.24207" lon="-0.27371">
        <ele>5.8</ele>
        <time>2022-05-31T14:10:02Z</time>
      </trkpt>
      <trkpt lat="49.24208" lon="-0.27372">
        <ele>5.8</ele>
        <time>2022-05-31T14:10:03Z</time>
      </trkpt>
      <trkpt lat="49.24209" lon="-0.27372">
        <ele>5.8</ele>
        <time>2022-05-31T14:10:04Z</time>
      </trkpt>
      <trkpt lat="49.2421" lon="-0.27373">
        <ele>5.8</ele>
        <time>2022-05-31T14:10:05Z</time>
      </trkpt>
      <trkpt lat="49.24211" lon="-0.27373">
        <ele>5.8</ele>
        <time>2022-05-31T14:10:06Z</time>
      </trkpt>
      <trkpt lat="49.24212" lon="-0.27374">
        <ele>5.8</ele>
        <time>2022-05-31T14:10:07Z</time>
      </trkpt>
      <trkpt lat="49.24212" lon="-0.27374">
        <ele>5.8</ele>
        <time>2022-05-31T14:10:08Z</time>
      </trkpt>
      <trkpt lat="49.24213" lon="-0.27375">
        <ele>5.8</ele>
        <time>2022-05-31T14:10:09Z</time>
      </trkpt>
      <trkpt lat="49.24214" lon="-0.27377">
        <ele>5.8</ele>
        <time>2022-05-31T14:10:11Z</time>
      </trkpt>
      <trkpt lat="49.24215" lon="-0.27378">
        <ele>5.8</ele>
        <time>2022-05-31T14:10:12Z</time>
      </trkpt>
      <trkpt lat="49.24215" lon="-0.27378">
        <ele>5.8</ele>
        <time>2022-05-31T14:10:13Z</time>
      </trkpt>
      <trkpt lat="49.24216" lon="-0.27379">
        <ele>5.8</ele>
        <time>2022-05-31T14:10:14Z</time>
      </trkpt>
      <trkpt lat="49.24217" lon="-0.27379">
        <ele>5.8</ele>
        <time>2022-05-31T14:10:15Z</time>
      </trkpt>
      <trkpt lat="49.24218" lon="-0.27379">
        <ele>5.8</ele>
        <time>2022-05-31T14:10:17Z</time>
      </trkpt>
      <trkpt lat="49.24219" lon="-0.2738">
        <ele>5.8</ele>
        <time>2022-05-31T14:10:18Z</time>
      </trkpt>
      <trkpt lat="49.24219" lon="-0.2738">
        <ele>5.8</ele>
        <time>2022-05-31T14:10:19Z</time>
      </trkpt>
      <trkpt lat="49.24219" lon="-0.2738">
        <ele>5.8</ele>
        <time>2022-05-31T14:10:20Z</time>
      </trkpt>
      <trkpt lat="49.24218" lon="-0.2738">
        <ele>5.8</ele>
        <time>2022-05-31T14:10:21Z</time>
      </trkpt>
      <trkpt lat="49.24218" lon="-0.2738">
        <ele>5.8</ele>
        <time>2022-05-31T14:10:22Z</time>
      </trkpt>
      <trkpt lat="49.24218" lon="-0.27381">
        <ele>5.8</ele>
        <time>2022-05-31T14:10:23Z</time>
      </trkpt>
      <trkpt lat="49.24218" lon="-0.27381">
        <ele>5.8</ele>
        <time>2022-05-31T14:10:24Z</time>
      </trkpt>
      <trkpt lat="49.24218" lon="-0.27382">
        <ele>5.8</ele>
        <time>2022-05-31T14:10:25Z</time>
      </trkpt>
      <trkpt lat="49.24217" lon="-0.27382">
        <ele>5.8</ele>
        <time>2022-05-31T14:10:27Z</time>
      </trkpt>
      <trkpt lat="49.24217" lon="-0.27383">
        <ele>5.8</ele>
        <time>2022-05-31T14:10:28Z</time>
      </trkpt>
      <trkpt lat="49.24217" lon="-0.27383">
        <ele>5.8</ele>
        <time>2022-05-31T14:10:29Z</time>
      </trkpt>
      <trkpt lat="49.24217" lon="-0.27383">
        <ele>5.8</ele>
        <time>2022-05-31T14:10:30Z</time>
      </trkpt>
      <trkpt lat="49.24217" lon="-0.27382">
        <ele>5.8</ele>
        <time>2022-05-31T14:10:31Z</time>
      </trkpt>
      <trkpt lat="49.24217" lon="-0.27383">
        <ele>5.8</ele>
        <time>2022-05-31T14:10:32Z</time>
      </trkpt>
      <trkpt lat="49.24217" lon="-0.27383">
        <ele>5.8</ele>
        <time>2022-05-31T14:10:33Z</time>
      </trkpt>
      <trkpt lat="49.24218" lon="-0.27385">
        <ele>5.9</ele>
        <time>2022-05-31T14:10:34Z</time>
      </trkpt>
      <trkpt lat="49.24219" lon="-0.27386">
        <ele>5.9</ele>
        <time>2022-05-31T14:10:35Z</time>
      </trkpt>
      <trkpt lat="49.24219" lon="-0.27387">
        <ele>5.9</ele>
        <time>2022-05-31T14:10:37Z</time>
      </trkpt>
      <trkpt lat="49.24219" lon="-0.27388">
        <ele>5.9</ele>
        <time>2022-05-31T14:10:38Z</time>
      </trkpt>
      <trkpt lat="49.24221" lon="-0.27392">
        <ele>5.9</ele>
        <time>2022-05-31T14:10:39Z</time>
      </trkpt>
      <trkpt lat="49.24221" lon="-0.27394">
        <ele>5.9</ele>
        <time>2022-05-31T14:10:40Z</time>
      </trkpt>
      <trkpt lat="49.24222" lon="-0.27398">
        <ele>6</ele>
        <time>2022-05-31T14:10:41Z</time>
      </trkpt>
      <trkpt lat="49.24222" lon="-0.27399">
        <ele>6</ele>
        <time>2022-05-31T14:10:42Z</time>
      </trkpt>
      <trkpt lat="49.24223" lon="-0.27402">
        <ele>6</ele>
        <time>2022-05-31T14:10:43Z</time>
      </trkpt>
      <trkpt lat="49.24224" lon="-0.27404">
        <ele>6</ele>
        <time>2022-05-31T14:10:45Z</time>
      </trkpt>
      <trkpt lat="49.24225" lon="-0.27407">
        <ele>6</ele>
        <time>2022-05-31T14:10:46Z</time>
      </trkpt>
      <trkpt lat="49.24225" lon="-0.27409">
        <ele>6</ele>
        <time>2022-05-31T14:10:47Z</time>
      </trkpt>
      <trkpt lat="49.24227" lon="-0.27412">
        <ele>6.1</ele>
        <time>2022-05-31T14:10:48Z</time>
      </trkpt>
      <trkpt lat="49.24228" lon="-0.27413">
        <ele>6.1</ele>
        <time>2022-05-31T14:10:49Z</time>
      </trkpt>
      <trkpt lat="49.24229" lon="-0.27415">
        <ele>6.1</ele>
        <time>2022-05-31T14:10:50Z</time>
      </trkpt>
      <trkpt lat="49.24231" lon="-0.27417">
        <ele>6.1</ele>
        <time>2022-05-31T14:10:52Z</time>
      </trkpt>
      <trkpt lat="49.24234" lon="-0.2742">
        <ele>6.1</ele>
        <time>2022-05-31T14:10:53Z</time>
      </trkpt>
      <trkpt lat="49.24234" lon="-0.27421">
        <ele>6.1</ele>
        <time>2022-05-31T14:10:54Z</time>
      </trkpt>
      <trkpt lat="49.24237" lon="-0.27424">
        <ele>6.1</ele>
        <time>2022-05-31T14:10:55Z</time>
      </trkpt>
      <trkpt lat="49.24237" lon="-0.27426">
        <ele>6.1</ele>
        <time>2022-05-31T14:10:56Z</time>
      </trkpt>
      <trkpt lat="49.24238" lon="-0.27428">
        <ele>6.1</ele>
        <time>2022-05-31T14:10:57Z</time>
      </trkpt>
      <trkpt lat="49.24239" lon="-0.2743">
        <ele>6.1</ele>
        <time>2022-05-31T14:10:58Z</time>
      </trkpt>
      <trkpt lat="49.24239" lon="-0.27432">
        <ele>6.1</ele>
        <time>2022-05-31T14:10:59Z</time>
      </trkpt>
      <trkpt lat="49.2424" lon="-0.27434">
        <ele>6.1</ele>
        <time>2022-05-31T14:11:00Z</time>
      </trkpt>
      <trkpt lat="49.24241" lon="-0.27437">
        <ele>6.1</ele>
        <time>2022-05-31T14:11:02Z</time>
      </trkpt>
      <trkpt lat="49.24241" lon="-0.27438">
        <ele>6.1</ele>
        <time>2022-05-31T14:11:03Z</time>
      </trkpt>
      <trkpt lat="49.24242" lon="-0.27439">
        <ele>6.1</ele>
        <time>2022-05-31T14:11:04Z</time>
      </trkpt>
      <trkpt lat="49.24243" lon="-0.27441">
        <ele>6</ele>
        <time>2022-05-31T14:11:05Z</time>
      </trkpt>
      <trkpt lat="49.24243" lon="-0.27442">
        <ele>6</ele>
        <time>2022-05-31T14:11:06Z</time>
      </trkpt>
      <trkpt lat="49.24243" lon="-0.27442">
        <ele>6</ele>
        <time>2022-05-31T14:11:07Z</time>
      </trkpt>
      <trkpt lat="49.24244" lon="-0.27443">
        <ele>6</ele>
        <time>2022-05-31T14:11:08Z</time>
      </trkpt>
      <trkpt lat="49.24244" lon="-0.27445">
        <ele>6</ele>
        <time>2022-05-31T14:11:09Z</time>
      </trkpt>
      <trkpt lat="49.24245" lon="-0.27447">
        <ele>6</ele>
        <time>2022-05-31T14:11:11Z</time>
      </trkpt>
      <trkpt lat="49.24246" lon="-0.27449">
        <ele>6</ele>
        <time>2022-05-31T14:11:12Z</time>
      </trkpt>
      <trkpt lat="49.24246" lon="-0.27451">
        <ele>6</ele>
        <time>2022-05-31T14:11:13Z</time>
      </trkpt>
      <trkpt lat="49.24247" lon="-0.27453">
        <ele>6</ele>
        <time>2022-05-31T14:11:14Z</time>
      </trkpt>
      <trkpt lat="49.24247" lon="-0.27454">
        <ele>6</ele>
        <time>2022-05-31T14:11:15Z</time>
      </trkpt>
      <trkpt lat="49.24248" lon="-0.27455">
        <ele>6</ele>
        <time>2022-05-31T14:11:16Z</time>
      </trkpt>
      <trkpt lat="49.24249" lon="-0.27457">
        <ele>6</ele>
        <time>2022-05-31T14:11:17Z</time>
      </trkpt>
      <trkpt lat="49.24249" lon="-0.27459">
        <ele>5.9</ele>
        <time>2022-05-31T14:11:19Z</time>
      </trkpt>
      <trkpt lat="49.2425" lon="-0.2746">
        <ele>5.9</ele>
        <time>2022-05-31T14:11:20Z</time>
      </trkpt>
      <trkpt lat="49.24251" lon="-0.27463">
        <ele>5.9</ele>
        <time>2022-05-31T14:11:21Z</time>
      </trkpt>
      <trkpt lat="49.24251" lon="-0.27464">
        <ele>5.9</ele>
        <time>2022-05-31T14:11:22Z</time>
      </trkpt>
      <trkpt lat="49.24251" lon="-0.27465">
        <ele>5.9</ele>
        <time>2022-05-31T14:11:23Z</time>
      </trkpt>
      <trkpt lat="49.24251" lon="-0.27468">
        <ele>5.9</ele>
        <time>2022-05-31T14:11:24Z</time>
      </trkpt>
      <trkpt lat="49.24252" lon="-0.2747">
        <ele>5.9</ele>
        <time>2022-05-31T14:11:25Z</time>
      </trkpt>
      <trkpt lat="49.24252" lon="-0.27472">
        <ele>5.9</ele>
        <time>2022-05-31T14:11:27Z</time>
      </trkpt>
      <trkpt lat="49.24252" lon="-0.27473">
        <ele>5.9</ele>
        <time>2022-05-31T14:11:28Z</time>
      </trkpt>
      <trkpt lat="49.24252" lon="-0.27474">
        <ele>5.9</ele>
        <time>2022-05-31T14:11:29Z</time>
      </trkpt>
      <trkpt lat="49.24252" lon="-0.27475">
        <ele>5.9</ele>
        <time>2022-05-31T14:11:30Z</time>
      </trkpt>
      <trkpt lat="49.24251" lon="-0.27476">
        <ele>5.9</ele>
        <time>2022-05-31T14:11:31Z</time>
      </trkpt>
      <trkpt lat="49.2425" lon="-0.27477">
        <ele>5.9</ele>
        <time>2022-05-31T14:11:32Z</time>
      </trkpt>
      <trkpt lat="49.2425" lon="-0.27477">
        <ele>5.9</ele>
        <time>2022-05-31T14:11:33Z</time>
      </trkpt>
      <trkpt lat="49.24249" lon="-0.27477">
        <ele>5.9</ele>
        <time>2022-05-31T14:11:34Z</time>
      </trkpt>
      <trkpt lat="49.24249" lon="-0.27477">
        <ele>5.9</ele>
        <time>2022-05-31T14:11:35Z</time>
      </trkpt>
      <trkpt lat="49.24249" lon="-0.27476">
        <ele>5.9</ele>
        <time>2022-05-31T14:11:36Z</time>
      </trkpt>
      <trkpt lat="49.24249" lon="-0.27476">
        <ele>5.9</ele>
        <time>2022-05-31T14:11:37Z</time>
      </trkpt>
      <trkpt lat="49.24248" lon="-0.27475">
        <ele>5.9</ele>
        <time>2022-05-31T14:11:38Z</time>
      </trkpt>
      <trkpt lat="49.24248" lon="-0.27474">
        <ele>5.9</ele>
        <time>2022-05-31T14:11:39Z</time>
      </trkpt>
      <trkpt lat="49.24248" lon="-0.27473">
        <ele>5.9</ele>
        <time>2022-05-31T14:11:40Z</time>
      </trkpt>
      <trkpt lat="49.24248" lon="-0.27472">
        <ele>5.9</ele>
        <time>2022-05-31T14:11:41Z</time>
      </trkpt>
      <trkpt lat="49.24248" lon="-0.27472">
        <ele>5.9</ele>
        <time>2022-05-31T14:11:43Z</time>
      </trkpt>
      <trkpt lat="49.24248" lon="-0.27472">
        <ele>5.9</ele>
        <time>2022-05-31T14:11:44Z</time>
      </trkpt>
      <trkpt lat="49.24248" lon="-0.27471">
        <ele>5.9</ele>
        <time>2022-05-31T14:11:45Z</time>
      </trkpt>
      <trkpt lat="49.24248" lon="-0.27471">
        <ele>5.9</ele>
        <time>2022-05-31T14:11:46Z</time>
      </trkpt>
      <trkpt lat="49.24248" lon="-0.27471">
        <ele>5.9</ele>
        <time>2022-05-31T14:11:47Z</time>
      </trkpt>
      <trkpt lat="49.24248" lon="-0.27471">
        <ele>5.9</ele>
        <time>2022-05-31T14:11:48Z</time>
      </trkpt>
      <trkpt lat="49.24248" lon="-0.27471">
        <ele>5.9</ele>
        <time>2022-05-31T14:11:49Z</time>
      </trkpt>
      <trkpt lat="49.24248" lon="-0.27471">
        <ele>5.9</ele>
        <time>2022-05-31T14:11:50Z</time>
      </trkpt>
      <trkpt lat="49.24248" lon="-0.27471">
        <ele>5.9</ele>
        <time>2022-05-31T14:11:51Z</time>
      </trkpt>
      <trkpt lat="49.24248" lon="-0.27471">
        <ele>5.9</ele>
        <time>2022-05-31T14:11:52Z</time>
      </trkpt>
      <trkpt lat="49.24248" lon="-0.27471">
        <ele>5.9</ele>
        <time>2022-05-31T14:11:53Z</time>
      </trkpt>
      <trkpt lat="49.24249" lon="-0.27471">
        <ele>5.9</ele>
        <time>2022-05-31T14:11:55Z</time>
      </trkpt>
      <trkpt lat="49.24249" lon="-0.27472">
        <ele>5.9</ele>
        <time>2022-05-31T14:11:56Z</time>
      </trkpt>
      <trkpt lat="49.2425" lon="-0.27474">
        <ele>5.9</ele>
        <time>2022-05-31T14:11:57Z</time>
      </trkpt>
      <trkpt lat="49.2425" lon="-0.27475">
        <ele>5.9</ele>
        <time>2022-05-31T14:11:58Z</time>
      </trkpt>
      <trkpt lat="49.24251" lon="-0.27476">
        <ele>5.9</ele>
        <time>2022-05-31T14:11:59Z</time>
      </trkpt>
      <trkpt lat="49.24251" lon="-0.27477">
        <ele>5.9</ele>
        <time>2022-05-31T14:12:00Z</time>
      </trkpt>
      <trkpt lat="49.24251" lon="-0.27478">
        <ele>5.9</ele>
        <time>2022-05-31T14:12:01Z</time>
      </trkpt>
      <trkpt lat="49.2425" lon="-0.27478">
        <ele>5.9</ele>
        <time>2022-05-31T14:12:02Z</time>
      </trkpt>
      <trkpt lat="49.2425" lon="-0.27478">
        <ele>5.9</ele>
        <time>2022-05-31T14:12:03Z</time>
      </trkpt>
      <trkpt lat="49.24251" lon="-0.27478">
        <ele>5.9</ele>
        <time>2022-05-31T14:12:04Z</time>
      </trkpt>
      <trkpt lat="49.24251" lon="-0.27478">
        <ele>5.9</ele>
        <time>2022-05-31T14:12:05Z</time>
      </trkpt>
      <trkpt lat="49.24251" lon="-0.27477">
        <ele>5.9</ele>
        <time>2022-05-31T14:12:06Z</time>
      </trkpt>
      <trkpt lat="49.24251" lon="-0.27477">
        <ele>5.9</ele>
        <time>2022-05-31T14:12:07Z</time>
      </trkpt>
      <trkpt lat="49.24251" lon="-0.27476">
        <ele>5.9</ele>
        <time>2022-05-31T14:12:08Z</time>
      </trkpt>
      <trkpt lat="49.24251" lon="-0.27476">
        <ele>5.9</ele>
        <time>2022-05-31T14:12:09Z</time>
      </trkpt>
      <trkpt lat="49.24251" lon="-0.27476">
        <ele>5.9</ele>
        <time>2022-05-31T14:12:10Z</time>
      </trkpt>
      <trkpt lat="49.2425" lon="-0.27476">
        <ele>5.9</ele>
        <time>2022-05-31T14:12:11Z</time>
      </trkpt>
      <trkpt lat="49.2425" lon="-0.27476">
        <ele>5.9</ele>
        <time>2022-05-31T14:12:12Z</time>
      </trkpt>
      <trkpt lat="49.2425" lon="-0.27476">
        <ele>5.9</ele>
        <time>2022-05-31T14:12:13Z</time>
      </trkpt>
      <trkpt lat="49.24251" lon="-0.27476">
        <ele>5.9</ele>
        <time>2022-05-31T14:12:15Z</time>
      </trkpt>
      <trkpt lat="49.24251" lon="-0.27476">
        <ele>5.9</ele>
        <time>2022-05-31T14:12:16Z</time>
      </trkpt>
      <trkpt lat="49.24253" lon="-0.27476">
        <ele>5.9</ele>
        <time>2022-05-31T14:12:17Z</time>
      </trkpt>
      <trkpt lat="49.24255" lon="-0.27476">
        <ele>6</ele>
        <time>2022-05-31T14:12:18Z</time>
      </trkpt>
      <trkpt lat="49.24256" lon="-0.27475">
        <ele>6</ele>
        <time>2022-05-31T14:12:19Z</time>
      </trkpt>
      <trkpt lat="49.24258" lon="-0.27475">
        <ele>6</ele>
        <time>2022-05-31T14:12:20Z</time>
      </trkpt>
      <trkpt lat="49.24259" lon="-0.27474">
        <ele>6</ele>
        <time>2022-05-31T14:12:21Z</time>
      </trkpt>
      <trkpt lat="49.24261" lon="-0.27472">
        <ele>6</ele>
        <time>2022-05-31T14:12:23Z</time>
      </trkpt>
      <trkpt lat="49.24262" lon="-0.27471">
        <ele>6</ele>
        <time>2022-05-31T14:12:24Z</time>
      </trkpt>
      <trkpt lat="49.24263" lon="-0.2747">
        <ele>6</ele>
        <time>2022-05-31T14:12:25Z</time>
      </trkpt>
      <trkpt lat="49.24263" lon="-0.27469">
        <ele>6</ele>
        <time>2022-05-31T14:12:26Z</time>
      </trkpt>
      <trkpt lat="49.24265" lon="-0.27468">
        <ele>6</ele>
        <time>2022-05-31T14:12:27Z</time>
      </trkpt>
      <trkpt lat="49.24265" lon="-0.27467">
        <ele>6</ele>
        <time>2022-05-31T14:12:28Z</time>
      </trkpt>
      <trkpt lat="49.24266" lon="-0.27466">
        <ele>6</ele>
        <time>2022-05-31T14:12:29Z</time>
      </trkpt>
      <trkpt lat="49.24267" lon="-0.27466">
        <ele>6</ele>
        <time>2022-05-31T14:12:30Z</time>
      </trkpt>
      <trkpt lat="49.24268" lon="-0.27465">
        <ele>6</ele>
        <time>2022-05-31T14:12:31Z</time>
      </trkpt>
      <trkpt lat="49.24267" lon="-0.27466">
        <ele>6</ele>
        <time>2022-05-31T14:12:33Z</time>
      </trkpt>
      <trkpt lat="49.24267" lon="-0.27466">
        <ele>6</ele>
        <time>2022-05-31T14:12:34Z</time>
      </trkpt>
      <trkpt lat="49.24266" lon="-0.27467">
        <ele>6</ele>
        <time>2022-05-31T14:12:35Z</time>
      </trkpt>
      <trkpt lat="49.24266" lon="-0.27467">
        <ele>6</ele>
        <time>2022-05-31T14:12:36Z</time>
      </trkpt>
      <trkpt lat="49.24266" lon="-0.27467">
        <ele>6</ele>
        <time>2022-05-31T14:12:37Z</time>
      </trkpt>
      <trkpt lat="49.24265" lon="-0.27468">
        <ele>6</ele>
        <time>2022-05-31T14:12:38Z</time>
      </trkpt>
      <trkpt lat="49.24264" lon="-0.27468">
        <ele>6</ele>
        <time>2022-05-31T14:12:39Z</time>
      </trkpt>
      <trkpt lat="49.24264" lon="-0.27469">
        <ele>6</ele>
        <time>2022-05-31T14:12:40Z</time>
      </trkpt>
      <trkpt lat="49.24264" lon="-0.27469">
        <ele>6</ele>
        <time>2022-05-31T14:12:41Z</time>
      </trkpt>
      <trkpt lat="49.24264" lon="-0.27469">
        <ele>6</ele>
        <time>2022-05-31T14:12:42Z</time>
      </trkpt>
      <trkpt lat="49.24264" lon="-0.27469">
        <ele>6</ele>
        <time>2022-05-31T14:12:43Z</time>
      </trkpt>
      <trkpt lat="49.24264" lon="-0.27469">
        <ele>6</ele>
        <time>2022-05-31T14:12:44Z</time>
      </trkpt>
      <trkpt lat="49.24263" lon="-0.27469">
        <ele>6</ele>
        <time>2022-05-31T14:12:45Z</time>
      </trkpt>
      <trkpt lat="49.24264" lon="-0.27469">
        <ele>6</ele>
        <time>2022-05-31T14:12:46Z</time>
      </trkpt>
      <trkpt lat="49.24264" lon="-0.27469">
        <ele>6</ele>
        <time>2022-05-31T14:12:47Z</time>
      </trkpt>
      <trkpt lat="49.24264" lon="-0.2747">
        <ele>6</ele>
        <time>2022-05-31T14:12:49Z</time>
      </trkpt>
      <trkpt lat="49.24264" lon="-0.2747">
        <ele>6</ele>
        <time>2022-05-31T14:12:50Z</time>
      </trkpt>
      <trkpt lat="49.24264" lon="-0.2747">
        <ele>6</ele>
        <time>2022-05-31T14:12:51Z</time>
      </trkpt>
      <trkpt lat="49.24265" lon="-0.2747">
        <ele>6</ele>
        <time>2022-05-31T14:12:52Z</time>
      </trkpt>
      <trkpt lat="49.24264" lon="-0.2747">
        <ele>6</ele>
        <time>2022-05-31T14:12:53Z</time>
      </trkpt>
      <trkpt lat="49.24264" lon="-0.27471">
        <ele>6</ele>
        <time>2022-05-31T14:12:54Z</time>
      </trkpt>
      <trkpt lat="49.24265" lon="-0.27473">
        <ele>6</ele>
        <time>2022-05-31T14:12:56Z</time>
      </trkpt>
      <trkpt lat="49.24265" lon="-0.27474">
        <ele>6</ele>
        <time>2022-05-31T14:12:57Z</time>
      </trkpt>
      <trkpt lat="49.24266" lon="-0.27474">
        <ele>6</ele>
        <time>2022-05-31T14:12:58Z</time>
      </trkpt>
      <trkpt lat="49.24266" lon="-0.27474">
        <ele>6</ele>
        <time>2022-05-31T14:12:59Z</time>
      </trkpt>
      <trkpt lat="49.24266" lon="-0.27474">
        <ele>6</ele>
        <time>2022-05-31T14:13:00Z</time>
      </trkpt>
      <trkpt lat="49.24267" lon="-0.27474">
        <ele>6</ele>
        <time>2022-05-31T14:13:01Z</time>
      </trkpt>
      <trkpt lat="49.24267" lon="-0.27474">
        <ele>6</ele>
        <time>2022-05-31T14:13:02Z</time>
      </trkpt>
      <trkpt lat="49.24267" lon="-0.27475">
        <ele>6</ele>
        <time>2022-05-31T14:13:03Z</time>
      </trkpt>
      <trkpt lat="49.24267" lon="-0.27475">
        <ele>6</ele>
        <time>2022-05-31T14:13:04Z</time>
      </trkpt>
      <trkpt lat="49.24267" lon="-0.27475">
        <ele>6</ele>
        <time>2022-05-31T14:13:05Z</time>
      </trkpt>
      <trkpt lat="49.24267" lon="-0.27475">
        <ele>6</ele>
        <time>2022-05-31T14:13:06Z</time>
      </trkpt>
      <trkpt lat="49.24267" lon="-0.27475">
        <ele>6</ele>
        <time>2022-05-31T14:13:07Z</time>
      </trkpt>
      <trkpt lat="49.24267" lon="-0.27475">
        <ele>6</ele>
        <time>2022-05-31T14:13:08Z</time>
      </trkpt>
      <trkpt lat="49.24267" lon="-0.27475">
        <ele>6</ele>
        <time>2022-05-31T14:13:09Z</time>
      </trkpt>
      <trkpt lat="49.24267" lon="-0.27475">
        <ele>6</ele>
        <time>2022-05-31T14:13:10Z</time>
      </trkpt>
      <trkpt lat="49.24267" lon="-0.27475">
        <ele>6</ele>
        <time>2022-05-31T14:13:11Z</time>
      </trkpt>
      <trkpt lat="49.24267" lon="-0.27475">
        <ele>6</ele>
        <time>2022-05-31T14:13:12Z</time>
      </trkpt>
      <trkpt lat="49.24267" lon="-0.27475">
        <ele>6</ele>
        <time>2022-05-31T14:13:13Z</time>
      </trkpt>
      <trkpt lat="49.24267" lon="-0.27475">
        <ele>6</ele>
        <time>2022-05-31T14:13:14Z</time>
      </trkpt>
      <trkpt lat="49.24267" lon="-0.27475">
        <ele>6</ele>
        <time>2022-05-31T14:13:15Z</time>
      </trkpt>
      <trkpt lat="49.24266" lon="-0.27475">
        <ele>6</ele>
        <time>2022-05-31T14:13:16Z</time>
      </trkpt>
      <trkpt lat="49.24266" lon="-0.27475">
        <ele>6</ele>
        <time>2022-05-31T14:13:17Z</time>
      </trkpt>
      <trkpt lat="49.24266" lon="-0.27475">
        <ele>6</ele>
        <time>2022-05-31T14:13:18Z</time>
      </trkpt>
      <trkpt lat="49.24266" lon="-0.27475">
        <ele>6</ele>
        <time>2022-05-31T14:13:19Z</time>
      </trkpt>
      <trkpt lat="49.24266" lon="-0.27475">
        <ele>6</ele>
        <time>2022-05-31T14:13:20Z</time>
      </trkpt>
      <trkpt lat="49.24266" lon="-0.27476">
        <ele>6</ele>
        <time>2022-05-31T14:13:21Z</time>
      </trkpt>
      <trkpt lat="49.24266" lon="-0.27476">
        <ele>6</ele>
        <time>2022-05-31T14:13:22Z</time>
      </trkpt>
      <trkpt lat="49.24266" lon="-0.27476">
        <ele>6</ele>
        <time>2022-05-31T14:13:23Z</time>
      </trkpt>
      <trkpt lat="49.24266" lon="-0.27476">
        <ele>6</ele>
        <time>2022-05-31T14:13:24Z</time>
      </trkpt>
      <trkpt lat="49.24266" lon="-0.27476">
        <ele>6</ele>
        <time>2022-05-31T14:13:25Z</time>
      </trkpt>
      <trkpt lat="49.24266" lon="-0.27476">
        <ele>6</ele>
        <time>2022-05-31T14:13:26Z</time>
      </trkpt>
      <trkpt lat="49.24266" lon="-0.27476">
        <ele>6</ele>
        <time>2022-05-31T14:13:27Z</time>
      </trkpt>
      <trkpt lat="49.24266" lon="-0.27476">
        <ele>6</ele>
        <time>2022-05-31T14:13:28Z</time>
      </trkpt>
      <trkpt lat="49.24266" lon="-0.27476">
        <ele>6</ele>
        <time>2022-05-31T14:13:29Z</time>
      </trkpt>
      <trkpt lat="49.24266" lon="-0.27476">
        <ele>6</ele>
        <time>2022-05-31T14:13:30Z</time>
      </trkpt>
      <trkpt lat="49.24266" lon="-0.27476">
        <ele>6</ele>
        <time>2022-05-31T14:13:31Z</time>
      </trkpt>
      <trkpt lat="49.24266" lon="-0.27476">
        <ele>6</ele>
        <time>2022-05-31T14:13:32Z</time>
      </trkpt>
      <trkpt lat="49.24266" lon="-0.27476">
        <ele>6</ele>
        <time>2022-05-31T14:13:33Z</time>
      </trkpt>
      <trkpt lat="49.24266" lon="-0.27476">
        <ele>6</ele>
        <time>2022-05-31T14:13:34Z</time>
      </trkpt>
      <trkpt lat="49.24266" lon="-0.27476">
        <ele>6</ele>
        <time>2022-05-31T14:13:35Z</time>
      </trkpt>
      <trkpt lat="49.24266" lon="-0.27476">
        <ele>6</ele>
        <time>2022-05-31T14:13:36Z</time>
      </trkpt>
      <trkpt lat="49.24266" lon="-0.27476">
        <ele>6</ele>
        <time>2022-05-31T14:13:37Z</time>
      </trkpt>
      <trkpt lat="49.24266" lon="-0.27476">
        <ele>6</ele>
        <time>2022-05-31T14:13:38Z</time>
      </trkpt>
      <trkpt lat="49.24266" lon="-0.27476">
        <ele>6</ele>
        <time>2022-05-31T14:13:39Z</time>
      </trkpt>
      <trkpt lat="49.24266" lon="-0.27476">
        <ele>6</ele>
        <time>2022-05-31T14:13:40Z</time>
      </trkpt>
      <trkpt lat="49.24266" lon="-0.27476">
        <ele>6</ele>
        <time>2022-05-31T14:13:41Z</time>
      </trkpt>
      <trkpt lat="49.24266" lon="-0.27476">
        <ele>6</ele>
        <time>2022-05-31T14:13:42Z</time>
      </trkpt>
      <trkpt lat="49.24266" lon="-0.27476">
        <ele>6</ele>
        <time>2022-05-31T14:13:43Z</time>
      </trkpt>
      <trkpt lat="49.24266" lon="-0.27476">
        <ele>6</ele>
        <time>2022-05-31T14:13:44Z</time>
      </trkpt>
      <trkpt lat="49.24266" lon="-0.27476">
        <ele>6</ele>
        <time>2022-05-31T14:13:45Z</time>
      </trkpt>
      <trkpt lat="49.24266" lon="-0.27476">
        <ele>6</ele>
        <time>2022-05-31T14:13:46Z</time>
      </trkpt>
      <trkpt lat="49.24266" lon="-0.27476">
        <ele>6</ele>
        <time>2022-05-31T14:13:47Z</time>
      </trkpt>
      <trkpt lat="49.24266" lon="-0.27476">
        <ele>6</ele>
        <time>2022-05-31T14:13:48Z</time>
      </trkpt>
      <trkpt lat="49.24266" lon="-0.27476">
        <ele>6</ele>
        <time>2022-05-31T14:13:49Z</time>
      </trkpt>
      <trkpt lat="49.24266" lon="-0.27476">
        <ele>6</ele>
        <time>2022-05-31T14:13:50Z</time>
      </trkpt>
      <trkpt lat="49.24266" lon="-0.27476">
        <ele>6</ele>
        <time>2022-05-31T14:13:51Z</time>
      </trkpt>
      <trkpt lat="49.24266" lon="-0.27476">
        <ele>6</ele>
        <time>2022-05-31T14:13:52Z</time>
      </trkpt>
      <trkpt lat="49.24266" lon="-0.27476">
        <ele>6</ele>
        <time>2022-05-31T14:13:53Z</time>
      </trkpt>
      <trkpt lat="49.24266" lon="-0.27476">
        <ele>6</ele>
        <time>2022-05-31T14:13:54Z</time>
      </trkpt>
      <trkpt lat="49.24266" lon="-0.27476">
        <ele>6</ele>
        <time>2022-05-31T14:13:55Z</time>
      </trkpt>
      <trkpt lat="49.24266" lon="-0.27476">
        <ele>6</ele>
        <time>2022-05-31T14:13:56Z</time>
      </trkpt>
      <trkpt lat="49.24266" lon="-0.27476">
        <ele>6</ele>
        <time>2022-05-31T14:13:57Z</time>
      </trkpt>
      <trkpt lat="49.24266" lon="-0.27476">
        <ele>6</ele>
        <time>2022-05-31T14:13:58Z</time>
      </trkpt>
      <trkpt lat="49.24266" lon="-0.27476">
        <ele>6</ele>
        <time>2022-05-31T14:13:59Z</time>
      </trkpt>
      <trkpt lat="49.24266" lon="-0.27476">
        <ele>6</ele>
        <time>2022-05-31T14:14:00Z</time>
      </trkpt>
      <trkpt lat="49.24266" lon="-0.27476">
        <ele>6</ele>
        <time>2022-05-31T14:14:01Z</time>
      </trkpt>
      <trkpt lat="49.24266" lon="-0.27476">
        <ele>6</ele>
        <time>2022-05-31T14:14:02Z</time>
      </trkpt>
      <trkpt lat="49.24266" lon="-0.27476">
        <ele>6</ele>
        <time>2022-05-31T14:14:03Z</time>
      </trkpt>
      <trkpt lat="49.24266" lon="-0.27476">
        <ele>6</ele>
        <time>2022-05-31T14:14:04Z</time>
      </trkpt>
      <trkpt lat="49.24266" lon="-0.27476">
        <ele>6</ele>
        <time>2022-05-31T14:14:05Z</time>
      </trkpt>
      <trkpt lat="49.24266" lon="-0.27476">
        <ele>6</ele>
        <time>2022-05-31T14:14:06Z</time>
      </trkpt>
      <trkpt lat="49.24266" lon="-0.27476">
        <ele>6</ele>
        <time>2022-05-31T14:14:07Z</time>
      </trkpt>
      <trkpt lat="49.24266" lon="-0.27476">
        <ele>6</ele>
        <time>2022-05-31T14:14:08Z</time>
      </trkpt>
      <trkpt lat="49.24266" lon="-0.27476">
        <ele>6</ele>
        <time>2022-05-31T14:14:09Z</time>
      </trkpt>
      <trkpt lat="49.24266" lon="-0.27476">
        <ele>6</ele>
        <time>2022-05-31T14:14:10Z</time>
      </trkpt>
      <trkpt lat="49.24266" lon="-0.27476">
        <ele>6</ele>
        <time>2022-05-31T14:14:11Z</time>
      </trkpt>
      <trkpt lat="49.24266" lon="-0.27476">
        <ele>6</ele>
        <time>2022-05-31T14:14:12Z</time>
      </trkpt>
      <trkpt lat="49.24266" lon="-0.27476">
        <ele>6</ele>
        <time>2022-05-31T14:14:13Z</time>
      </trkpt>
      <trkpt lat="49.24266" lon="-0.27476">
        <ele>6</ele>
        <time>2022-05-31T14:14:14Z</time>
      </trkpt>
      <trkpt lat="49.24266" lon="-0.27476">
        <ele>6</ele>
        <time>2022-05-31T14:14:15Z</time>
      </trkpt>
      <trkpt lat="49.24266" lon="-0.27476">
        <ele>6</ele>
        <time>2022-05-31T14:14:16Z</time>
      </trkpt>
      <trkpt lat="49.24266" lon="-0.27476">
        <ele>6</ele>
        <time>2022-05-31T14:14:17Z</time>
      </trkpt>
      <trkpt lat="49.24266" lon="-0.27476">
        <ele>6</ele>
        <time>2022-05-31T14:14:18Z</time>
      </trkpt>
      <trkpt lat="49.24266" lon="-0.27476">
        <ele>6</ele>
        <time>2022-05-31T14:14:19Z</time>
      </trkpt>
      <trkpt lat="49.24266" lon="-0.27476">
        <ele>6</ele>
        <time>2022-05-31T14:14:20Z</time>
      </trkpt>
      <trkpt lat="49.24266" lon="-0.27476">
        <ele>6</ele>
        <time>2022-05-31T14:14:21Z</time>
      </trkpt>
      <trkpt lat="49.24266" lon="-0.27476">
        <ele>6</ele>
        <time>2022-05-31T14:14:22Z</time>
      </trkpt>
      <trkpt lat="49.24266" lon="-0.27476">
        <ele>6</ele>
        <time>2022-05-31T14:14:23Z</time>
      </trkpt>
      <trkpt lat="49.24266" lon="-0.27476">
        <ele>6</ele>
        <time>2022-05-31T14:14:24Z</time>
      </trkpt>
      <trkpt lat="49.24266" lon="-0.27476">
        <ele>6</ele>
        <time>2022-05-31T14:14:25Z</time>
      </trkpt>
      <trkpt lat="49.24266" lon="-0.27476">
        <ele>6</ele>
        <time>2022-05-31T14:14:26Z</time>
      </trkpt>
      <trkpt lat="49.24266" lon="-0.27476">
        <ele>6</ele>
        <time>2022-05-31T14:14:27Z</time>
      </trkpt>
      <trkpt lat="49.24266" lon="-0.27476">
        <ele>6</ele>
        <time>2022-05-31T14:14:28Z</time>
      </trkpt>
      <trkpt lat="49.24266" lon="-0.27476">
        <ele>6</ele>
        <time>2022-05-31T14:14:29Z</time>
      </trkpt>
      <trkpt lat="49.24266" lon="-0.27476">
        <ele>6</ele>
        <time>2022-05-31T14:14:30Z</time>
      </trkpt>
      <trkpt lat="49.24266" lon="-0.27476">
        <ele>6</ele>
        <time>2022-05-31T14:14:31Z</time>
      </trkpt>
      <trkpt lat="49.24266" lon="-0.27476">
        <ele>6</ele>
        <time>2022-05-31T14:14:32Z</time>
      </trkpt>
      <trkpt lat="49.24266" lon="-0.27476">
        <ele>6</ele>
        <time>2022-05-31T14:14:33Z</time>
      </trkpt>
      <trkpt lat="49.24266" lon="-0.27476">
        <ele>6</ele>
        <time>2022-05-31T14:14:34Z</time>
      </trkpt>
      <trkpt lat="49.24266" lon="-0.27476">
        <ele>6</ele>
        <time>2022-05-31T14:14:35Z</time>
      </trkpt>
      <trkpt lat="49.24266" lon="-0.27476">
        <ele>6</ele>
        <time>2022-05-31T14:14:36Z</time>
      </trkpt>
      <trkpt lat="49.24266" lon="-0.27476">
        <ele>6</ele>
        <time>2022-05-31T14:14:37Z</time>
      </trkpt>
      <trkpt lat="49.24266" lon="-0.27476">
        <ele>6</ele>
        <time>2022-05-31T14:14:38Z</time>
      </trkpt>
      <trkpt lat="49.24266" lon="-0.27476">
        <ele>6</ele>
        <time>2022-05-31T14:14:39Z</time>
      </trkpt>
      <trkpt lat="49.24266" lon="-0.27476">
        <ele>6</ele>
        <time>2022-05-31T14:14:40Z</time>
      </trkpt>
      <trkpt lat="49.24266" lon="-0.27476">
        <ele>6</ele>
        <time>2022-05-31T14:14:41Z</time>
      </trkpt>
      <trkpt lat="49.24266" lon="-0.27476">
        <ele>6</ele>
        <time>2022-05-31T14:14:42Z</time>
      </trkpt>
      <trkpt lat="49.24266" lon="-0.27476">
        <ele>6</ele>
        <time>2022-05-31T14:14:43Z</time>
      </trkpt>
      <trkpt lat="49.24266" lon="-0.27476">
        <ele>6</ele>
        <time>2022-05-31T14:14:44Z</time>
      </trkpt>
      <trkpt lat="49.24266" lon="-0.27476">
        <ele>6</ele>
        <time>2022-05-31T14:14:45Z</time>
      </trkpt>
      <trkpt lat="49.24266" lon="-0.27476">
        <ele>6</ele>
        <time>2022-05-31T14:14:46Z</time>
      </trkpt>
      <trkpt lat="49.24266" lon="-0.27476">
        <ele>6</ele>
        <time>2022-05-31T14:14:47Z</time>
      </trkpt>
      <trkpt lat="49.24266" lon="-0.27476">
        <ele>6</ele>
        <time>2022-05-31T14:14:48Z</time>
      </trkpt>
      <trkpt lat="49.24266" lon="-0.27476">
        <ele>6</ele>
        <time>2022-05-31T14:14:49Z</time>
      </trkpt>
      <trkpt lat="49.24266" lon="-0.27476">
        <ele>6</ele>
        <time>2022-05-31T14:14:50Z</time>
      </trkpt>
      <trkpt lat="49.24266" lon="-0.27476">
        <ele>6</ele>
        <time>2022-05-31T14:14:51Z</time>
      </trkpt>
      <trkpt lat="49.24266" lon="-0.27476">
        <ele>6</ele>
        <time>2022-05-31T14:14:52Z</time>
      </trkpt>
      <trkpt lat="49.24266" lon="-0.27476">
        <ele>6</ele>
        <time>2022-05-31T14:14:53Z</time>
      </trkpt>
      <trkpt lat="49.24266" lon="-0.27476">
        <ele>6</ele>
        <time>2022-05-31T14:14:54Z</time>
      </trkpt>
      <trkpt lat="49.24266" lon="-0.27476">
        <ele>6</ele>
        <time>2022-05-31T14:14:55Z</time>
      </trkpt>
      <trkpt lat="49.24266" lon="-0.27476">
        <ele>6</ele>
        <time>2022-05-31T14:14:56Z</time>
      </trkpt>
      <trkpt lat="49.24266" lon="-0.27476">
        <ele>6</ele>
        <time>2022-05-31T14:14:57Z</time>
      </trkpt>
      <trkpt lat="49.24266" lon="-0.27476">
        <ele>6</ele>
        <time>2022-05-31T14:14:58Z</time>
      </trkpt>
      <trkpt lat="49.24266" lon="-0.27476">
        <ele>6</ele>
        <time>2022-05-31T14:14:59Z</time>
      </trkpt>
      <trkpt lat="49.24266" lon="-0.27476">
        <ele>6</ele>
        <time>2022-05-31T14:15:00Z</time>
      </trkpt>
      <trkpt lat="49.24266" lon="-0.27476">
        <ele>6</ele>
        <time>2022-05-31T14:15:01Z</time>
      </trkpt>
      <trkpt lat="49.24266" lon="-0.27476">
        <ele>6</ele>
        <time>2022-05-31T14:15:02Z</time>
      </trkpt>
      <trkpt lat="49.24266" lon="-0.27476">
        <ele>6</ele>
        <time>2022-05-31T14:15:03Z</time>
      </trkpt>
      <trkpt lat="49.24266" lon="-0.27476">
        <ele>6</ele>
        <time>2022-05-31T14:15:04Z</time>
      </trkpt>
      <trkpt lat="49.24266" lon="-0.27476">
        <ele>6</ele>
        <time>2022-05-31T14:15:05Z</time>
      </trkpt>
      <trkpt lat="49.24266" lon="-0.27476">
        <ele>6</ele>
        <time>2022-05-31T14:15:06Z</time>
      </trkpt>
      <trkpt lat="49.24266" lon="-0.27476">
        <ele>6</ele>
        <time>2022-05-31T14:15:07Z</time>
      </trkpt>
      <trkpt lat="49.24266" lon="-0.27476">
        <ele>6</ele>
        <time>2022-05-31T14:15:08Z</time>
      </trkpt>
      <trkpt lat="49.24266" lon="-0.27476">
        <ele>6</ele>
        <time>2022-05-31T14:15:09Z</time>
      </trkpt>
      <trkpt lat="49.24266" lon="-0.27476">
        <ele>6</ele>
        <time>2022-05-31T14:15:10Z</time>
      </trkpt>
      <trkpt lat="49.24266" lon="-0.27476">
        <ele>6</ele>
        <time>2022-05-31T14:15:11Z</time>
      </trkpt>
      <trkpt lat="49.24266" lon="-0.27476">
        <ele>6</ele>
        <time>2022-05-31T14:15:12Z</time>
      </trkpt>
      <trkpt lat="49.24266" lon="-0.27476">
        <ele>6</ele>
        <time>2022-05-31T14:15:13Z</time>
      </trkpt>
      <trkpt lat="49.24266" lon="-0.27476">
        <ele>6</ele>
        <time>2022-05-31T14:15:14Z</time>
      </trkpt>
      <trkpt lat="49.24266" lon="-0.27476">
        <ele>6</ele>
        <time>2022-05-31T14:15:15Z</time>
      </trkpt>
      <trkpt lat="49.24266" lon="-0.27476">
        <ele>6</ele>
        <time>2022-05-31T14:15:16Z</time>
      </trkpt>
      <trkpt lat="49.24266" lon="-0.27476">
        <ele>6</ele>
        <time>2022-05-31T14:15:17Z</time>
      </trkpt>
      <trkpt lat="49.24266" lon="-0.27476">
        <ele>6</ele>
        <time>2022-05-31T14:15:18Z</time>
      </trkpt>
      <trkpt lat="49.24266" lon="-0.27476">
        <ele>6</ele>
        <time>2022-05-31T14:15:19Z</time>
      </trkpt>
      <trkpt lat="49.24266" lon="-0.27476">
        <ele>6</ele>
        <time>2022-05-31T14:15:20Z</time>
      </trkpt>
      <trkpt lat="49.24266" lon="-0.27477">
        <ele>6</ele>
        <time>2022-05-31T14:15:21Z</time>
      </trkpt>
      <trkpt lat="49.24266" lon="-0.27477">
        <ele>6</ele>
        <time>2022-05-31T14:15:22Z</time>
      </trkpt>
      <trkpt lat="49.24267" lon="-0.27477">
        <ele>6</ele>
        <time>2022-05-31T14:15:23Z</time>
      </trkpt>
      <trkpt lat="49.24267" lon="-0.27477">
        <ele>6</ele>
        <time>2022-05-31T14:15:24Z</time>
      </trkpt>
      <trkpt lat="49.24267" lon="-0.27477">
        <ele>6</ele>
        <time>2022-05-31T14:15:25Z</time>
      </trkpt>
      <trkpt lat="49.24267" lon="-0.27477">
        <ele>6</ele>
        <time>2022-05-31T14:15:26Z</time>
      </trkpt>
      <trkpt lat="49.24266" lon="-0.27477">
        <ele>6</ele>
        <time>2022-05-31T14:15:27Z</time>
      </trkpt>
      <trkpt lat="49.24266" lon="-0.27477">
        <ele>6</ele>
        <time>2022-05-31T14:15:29Z</time>
      </trkpt>
      <trkpt lat="49.24266" lon="-0.27477">
        <ele>6</ele>
        <time>2022-05-31T14:15:30Z</time>
      </trkpt>
      <trkpt lat="49.24266" lon="-0.27477">
        <ele>6</ele>
        <time>2022-05-31T14:15:31Z</time>
      </trkpt>
      <trkpt lat="49.24266" lon="-0.27477">
        <ele>6</ele>
        <time>2022-05-31T14:15:32Z</time>
      </trkpt>
      <trkpt lat="49.24266" lon="-0.27477">
        <ele>6</ele>
        <time>2022-05-31T14:15:33Z</time>
      </trkpt>
      <trkpt lat="49.24266" lon="-0.27477">
        <ele>6</ele>
        <time>2022-05-31T14:15:34Z</time>
      </trkpt>
      <trkpt lat="49.24267" lon="-0.27477">
        <ele>6</ele>
        <time>2022-05-31T14:15:35Z</time>
      </trkpt>
      <trkpt lat="49.24267" lon="-0.27477">
        <ele>6</ele>
        <time>2022-05-31T14:15:36Z</time>
      </trkpt>
      <trkpt lat="49.24267" lon="-0.27478">
        <ele>6</ele>
        <time>2022-05-31T14:15:37Z</time>
      </trkpt>
      <trkpt lat="49.24267" lon="-0.27478">
        <ele>6</ele>
        <time>2022-05-31T14:15:38Z</time>
      </trkpt>
      <trkpt lat="49.24267" lon="-0.27478">
        <ele>6</ele>
        <time>2022-05-31T14:15:39Z</time>
      </trkpt>
      <trkpt lat="49.24267" lon="-0.27478">
        <ele>6</ele>
        <time>2022-05-31T14:15:40Z</time>
      </trkpt>
      <trkpt lat="49.24266" lon="-0.27478">
        <ele>6</ele>
        <time>2022-05-31T14:15:41Z</time>
      </trkpt>
      <trkpt lat="49.24266" lon="-0.27478">
        <ele>6</ele>
        <time>2022-05-31T14:15:42Z</time>
      </trkpt>
      <trkpt lat="49.24266" lon="-0.27478">
        <ele>6</ele>
        <time>2022-05-31T14:15:43Z</time>
      </trkpt>
      <trkpt lat="49.24266" lon="-0.27478">
        <ele>6</ele>
        <time>2022-05-31T14:15:44Z</time>
      </trkpt>
      <trkpt lat="49.24266" lon="-0.27478">
        <ele>6</ele>
        <time>2022-05-31T14:15:45Z</time>
      </trkpt>
      <trkpt lat="49.24266" lon="-0.27478">
        <ele>6</ele>
        <time>2022-05-31T14:15:46Z</time>
      </trkpt>
      <trkpt lat="49.24266" lon="-0.27478">
        <ele>6</ele>
        <time>2022-05-31T14:15:47Z</time>
      </trkpt>
      <trkpt lat="49.24266" lon="-0.27478">
        <ele>6</ele>
        <time>2022-05-31T14:15:48Z</time>
      </trkpt>
      <trkpt lat="49.24266" lon="-0.27478">
        <ele>6</ele>
        <time>2022-05-31T14:15:49Z</time>
      </trkpt>
      <trkpt lat="49.24266" lon="-0.27478">
        <ele>6</ele>
        <time>2022-05-31T14:15:50Z</time>
      </trkpt>
      <trkpt lat="49.24266" lon="-0.27478">
        <ele>6</ele>
        <time>2022-05-31T14:15:51Z</time>
      </trkpt>
      <trkpt lat="49.24267" lon="-0.27478">
        <ele>6</ele>
        <time>2022-05-31T14:15:52Z</time>
      </trkpt>
      <trkpt lat="49.24267" lon="-0.27478">
        <ele>6</ele>
        <time>2022-05-31T14:15:54Z</time>
      </trkpt>
      <trkpt lat="49.24267" lon="-0.27478">
        <ele>6</ele>
        <time>2022-05-31T14:15:55Z</time>
      </trkpt>
      <trkpt lat="49.24268" lon="-0.27478">
        <ele>6</ele>
        <time>2022-05-31T14:15:56Z</time>
      </trkpt>
      <trkpt lat="49.24268" lon="-0.27478">
        <ele>6</ele>
        <time>2022-05-31T14:15:57Z</time>
      </trkpt>
      <trkpt lat="49.24269" lon="-0.27478">
        <ele>6</ele>
        <time>2022-05-31T14:15:58Z</time>
      </trkpt>
      <trkpt lat="49.24269" lon="-0.27478">
        <ele>6</ele>
        <time>2022-05-31T14:15:59Z</time>
      </trkpt>
      <trkpt lat="49.2427" lon="-0.27478">
        <ele>6</ele>
        <time>2022-05-31T14:16:00Z</time>
      </trkpt>
      <trkpt lat="49.2427" lon="-0.27478">
        <ele>6</ele>
        <time>2022-05-31T14:16:01Z</time>
      </trkpt>
      <trkpt lat="49.2427" lon="-0.27479">
        <ele>6</ele>
        <time>2022-05-31T14:16:02Z</time>
      </trkpt>
      <trkpt lat="49.2427" lon="-0.27479">
        <ele>6</ele>
        <time>2022-05-31T14:16:03Z</time>
      </trkpt>
      <trkpt lat="49.2427" lon="-0.2748">
        <ele>6</ele>
        <time>2022-05-31T14:16:05Z</time>
      </trkpt>
      <trkpt lat="49.2427" lon="-0.27481">
        <ele>6</ele>
        <time>2022-05-31T14:16:06Z</time>
      </trkpt>
      <trkpt lat="49.24269" lon="-0.27481">
        <ele>6</ele>
        <time>2022-05-31T14:16:07Z</time>
      </trkpt>
      <trkpt lat="49.24269" lon="-0.27481">
        <ele>6</ele>
        <time>2022-05-31T14:16:08Z</time>
      </trkpt>
      <trkpt lat="49.24269" lon="-0.2748">
        <ele>6</ele>
        <time>2022-05-31T14:16:09Z</time>
      </trkpt>
      <trkpt lat="49.24269" lon="-0.2748">
        <ele>6</ele>
        <time>2022-05-31T14:16:10Z</time>
      </trkpt>
      <trkpt lat="49.24269" lon="-0.2748">
        <ele>6</ele>
        <time>2022-05-31T14:16:11Z</time>
      </trkpt>
      <trkpt lat="49.24269" lon="-0.2748">
        <ele>6</ele>
        <time>2022-05-31T14:16:12Z</time>
      </trkpt>
      <trkpt lat="49.24269" lon="-0.2748">
        <ele>6</ele>
        <time>2022-05-31T14:16:13Z</time>
      </trkpt>
      <trkpt lat="49.24269" lon="-0.2748">
        <ele>6</ele>
        <time>2022-05-31T14:16:14Z</time>
      </trkpt>
      <trkpt lat="49.24269" lon="-0.2748">
        <ele>6</ele>
        <time>2022-05-31T14:16:15Z</time>
      </trkpt>
      <trkpt lat="49.24268" lon="-0.2748">
        <ele>6</ele>
        <time>2022-05-31T14:16:16Z</time>
      </trkpt>
      <trkpt lat="49.24269" lon="-0.2748">
        <ele>6.1</ele>
        <time>2022-05-31T14:16:17Z</time>
      </trkpt>
      <trkpt lat="49.24269" lon="-0.2748">
        <ele>6.1</ele>
        <time>2022-05-31T14:16:18Z</time>
      </trkpt>
      <trkpt lat="49.24269" lon="-0.2748">
        <ele>6.1</ele>
        <time>2022-05-31T14:16:19Z</time>
      </trkpt>
      <trkpt lat="49.24269" lon="-0.27479">
        <ele>6.1</ele>
        <time>2022-05-31T14:16:20Z</time>
      </trkpt>
      <trkpt lat="49.24268" lon="-0.27479">
        <ele>6.1</ele>
        <time>2022-05-31T14:16:22Z</time>
      </trkpt>
      <trkpt lat="49.24269" lon="-0.27479">
        <ele>6.1</ele>
        <time>2022-05-31T14:16:23Z</time>
      </trkpt>
      <trkpt lat="49.24268" lon="-0.27477">
        <ele>6.1</ele>
        <time>2022-05-31T14:16:24Z</time>
      </trkpt>
      <trkpt lat="49.24269" lon="-0.27477">
        <ele>6.1</ele>
        <time>2022-05-31T14:16:25Z</time>
      </trkpt>
      <trkpt lat="49.2427" lon="-0.27477">
        <ele>6.1</ele>
        <time>2022-05-31T14:16:26Z</time>
      </trkpt>
      <trkpt lat="49.24271" lon="-0.27476">
        <ele>6.1</ele>
        <time>2022-05-31T14:16:28Z</time>
      </trkpt>
      <trkpt lat="49.24271" lon="-0.27475">
        <ele>6.1</ele>
        <time>2022-05-31T14:16:29Z</time>
      </trkpt>
      <trkpt lat="49.24271" lon="-0.27475">
        <ele>6.1</ele>
        <time>2022-05-31T14:16:30Z</time>
      </trkpt>
      <trkpt lat="49.24272" lon="-0.27474">
        <ele>6.1</ele>
        <time>2022-05-31T14:16:31Z</time>
      </trkpt>
      <trkpt lat="49.24272" lon="-0.27472">
        <ele>6.1</ele>
        <time>2022-05-31T14:16:32Z</time>
      </trkpt>
      <trkpt lat="49.24272" lon="-0.27471">
        <ele>6.1</ele>
        <time>2022-05-31T14:16:33Z</time>
      </trkpt>
      <trkpt lat="49.24272" lon="-0.2747">
        <ele>6.1</ele>
        <time>2022-05-31T14:16:34Z</time>
      </trkpt>
      <trkpt lat="49.24271" lon="-0.27469">
        <ele>6.1</ele>
        <time>2022-05-31T14:16:35Z</time>
      </trkpt>
      <trkpt lat="49.2427" lon="-0.27468">
        <ele>6.1</ele>
        <time>2022-05-31T14:16:36Z</time>
      </trkpt>
      <trkpt lat="49.24269" lon="-0.27469">
        <ele>6.1</ele>
        <time>2022-05-31T14:16:37Z</time>
      </trkpt>
      <trkpt lat="49.24268" lon="-0.2747">
        <ele>6.1</ele>
        <time>2022-05-31T14:16:39Z</time>
      </trkpt>
      <trkpt lat="49.24268" lon="-0.2747">
        <ele>6.1</ele>
        <time>2022-05-31T14:16:40Z</time>
      </trkpt>
      <trkpt lat="49.24268" lon="-0.2747">
        <ele>6.1</ele>
        <time>2022-05-31T14:16:42Z</time>
      </trkpt>
      <trkpt lat="49.24268" lon="-0.2747">
        <ele>6.1</ele>
        <time>2022-05-31T14:16:43Z</time>
      </trkpt>
      <trkpt lat="49.24268" lon="-0.2747">
        <ele>6.1</ele>
        <time>2022-05-31T14:16:44Z</time>
      </trkpt>
      <trkpt lat="49.24268" lon="-0.2747">
        <ele>6.1</ele>
        <time>2022-05-31T14:16:45Z</time>
      </trkpt>
      <trkpt lat="49.24268" lon="-0.2747">
        <ele>6.1</ele>
        <time>2022-05-31T14:16:47Z</time>
      </trkpt>
      <trkpt lat="49.24268" lon="-0.2747">
        <ele>6.1</ele>
        <time>2022-05-31T14:16:48Z</time>
      </trkpt>
      <trkpt lat="49.24268" lon="-0.2747">
        <ele>6.1</ele>
        <time>2022-05-31T14:16:49Z</time>
      </trkpt>
      <trkpt lat="49.24268" lon="-0.2747">
        <ele>6.1</ele>
        <time>2022-05-31T14:16:50Z</time>
      </trkpt>
      <trkpt lat="49.24268" lon="-0.2747">
        <ele>6.1</ele>
        <time>2022-05-31T14:16:51Z</time>
      </trkpt>
      <trkpt lat="49.24268" lon="-0.27469">
        <ele>6.1</ele>
        <time>2022-05-31T14:16:52Z</time>
      </trkpt>
      <trkpt lat="49.24268" lon="-0.27469">
        <ele>6.1</ele>
        <time>2022-05-31T14:16:53Z</time>
      </trkpt>
      <trkpt lat="49.24268" lon="-0.27469">
        <ele>6.1</ele>
        <time>2022-05-31T14:16:54Z</time>
      </trkpt>
      <trkpt lat="49.24269" lon="-0.27468">
        <ele>6.1</ele>
        <time>2022-05-31T14:16:55Z</time>
      </trkpt>
      <trkpt lat="49.24269" lon="-0.27468">
        <ele>6.1</ele>
        <time>2022-05-31T14:16:56Z</time>
      </trkpt>
      <trkpt lat="49.24269" lon="-0.27468">
        <ele>6.1</ele>
        <time>2022-05-31T14:16:57Z</time>
      </trkpt>
      <trkpt lat="49.24269" lon="-0.27468">
        <ele>6.1</ele>
        <time>2022-05-31T14:16:58Z</time>
      </trkpt>
      <trkpt lat="49.24269" lon="-0.27468">
        <ele>6.1</ele>
        <time>2022-05-31T14:16:59Z</time>
      </trkpt>
      <trkpt lat="49.24269" lon="-0.27467">
        <ele>6.1</ele>
        <time>2022-05-31T14:17:00Z</time>
      </trkpt>
      <trkpt lat="49.24269" lon="-0.27467">
        <ele>6.1</ele>
        <time>2022-05-31T14:17:01Z</time>
      </trkpt>
      <trkpt lat="49.24269" lon="-0.27467">
        <ele>6.1</ele>
        <time>2022-05-31T14:17:02Z</time>
      </trkpt>
      <trkpt lat="49.24269" lon="-0.27467">
        <ele>6.1</ele>
        <time>2022-05-31T14:17:03Z</time>
      </trkpt>
      <trkpt lat="49.24269" lon="-0.27467">
        <ele>6.1</ele>
        <time>2022-05-31T14:17:04Z</time>
      </trkpt>
      <trkpt lat="49.24269" lon="-0.27467">
        <ele>6.1</ele>
        <time>2022-05-31T14:17:05Z</time>
      </trkpt>
      <trkpt lat="49.24269" lon="-0.27467">
        <ele>6.1</ele>
        <time>2022-05-31T14:17:06Z</time>
      </trkpt>
      <trkpt lat="49.24269" lon="-0.27467">
        <ele>6.1</ele>
        <time>2022-05-31T14:17:07Z</time>
      </trkpt>
      <trkpt lat="49.24269" lon="-0.27467">
        <ele>6.1</ele>
        <time>2022-05-31T14:17:08Z</time>
      </trkpt>
      <trkpt lat="49.24269" lon="-0.27467">
        <ele>6.1</ele>
        <time>2022-05-31T14:17:09Z</time>
      </trkpt>
      <trkpt lat="49.24269" lon="-0.27467">
        <ele>6.1</ele>
        <time>2022-05-31T14:17:10Z</time>
      </trkpt>
      <trkpt lat="49.24269" lon="-0.27467">
        <ele>6.1</ele>
        <time>2022-05-31T14:17:11Z</time>
      </trkpt>
      <trkpt lat="49.24269" lon="-0.27467">
        <ele>6.1</ele>
        <time>2022-05-31T14:17:12Z</time>
      </trkpt>
      <trkpt lat="49.24269" lon="-0.27467">
        <ele>6.1</ele>
        <time>2022-05-31T14:17:13Z</time>
      </trkpt>
      <trkpt lat="49.24269" lon="-0.27467">
        <ele>6.1</ele>
        <time>2022-05-31T14:17:14Z</time>
      </trkpt>
      <trkpt lat="49.24269" lon="-0.27467">
        <ele>6.1</ele>
        <time>2022-05-31T14:17:15Z</time>
      </trkpt>
      <trkpt lat="49.24269" lon="-0.27467">
        <ele>6.1</ele>
        <time>2022-05-31T14:17:16Z</time>
      </trkpt>
      <trkpt lat="49.2427" lon="-0.27466">
        <ele>6.1</ele>
        <time>2022-05-31T14:17:17Z</time>
      </trkpt>
      <trkpt lat="49.2427" lon="-0.27465">
        <ele>6.1</ele>
        <time>2022-05-31T14:17:18Z</time>
      </trkpt>
      <trkpt lat="49.24271" lon="-0.27465">
        <ele>6.1</ele>
        <time>2022-05-31T14:17:19Z</time>
      </trkpt>
      <trkpt lat="49.24271" lon="-0.27465">
        <ele>6.1</ele>
        <time>2022-05-31T14:17:20Z</time>
      </trkpt>
      <trkpt lat="49.2427" lon="-0.27465">
        <ele>6.1</ele>
        <time>2022-05-31T14:17:21Z</time>
      </trkpt>
      <trkpt lat="49.2427" lon="-0.27465">
        <ele>6.1</ele>
        <time>2022-05-31T14:17:22Z</time>
      </trkpt>
      <trkpt lat="49.2427" lon="-0.27465">
        <ele>6.1</ele>
        <time>2022-05-31T14:17:23Z</time>
      </trkpt>
      <trkpt lat="49.2427" lon="-0.27465">
        <ele>6.1</ele>
        <time>2022-05-31T14:17:24Z</time>
      </trkpt>
      <trkpt lat="49.2427" lon="-0.27466">
        <ele>6.1</ele>
        <time>2022-05-31T14:17:25Z</time>
      </trkpt>
      <trkpt lat="49.2427" lon="-0.27466">
        <ele>6.1</ele>
        <time>2022-05-31T14:17:26Z</time>
      </trkpt>
      <trkpt lat="49.2427" lon="-0.27466">
        <ele>6.1</ele>
        <time>2022-05-31T14:17:27Z</time>
      </trkpt>
      <trkpt lat="49.24269" lon="-0.27466">
        <ele>6.1</ele>
        <time>2022-05-31T14:17:28Z</time>
      </trkpt>
      <trkpt lat="49.24269" lon="-0.27466">
        <ele>6.1</ele>
        <time>2022-05-31T14:17:29Z</time>
      </trkpt>
      <trkpt lat="49.24269" lon="-0.27466">
        <ele>6.1</ele>
        <time>2022-05-31T14:17:30Z</time>
      </trkpt>
      <trkpt lat="49.24269" lon="-0.27466">
        <ele>6.1</ele>
        <time>2022-05-31T14:17:31Z</time>
      </trkpt>
      <trkpt lat="49.24269" lon="-0.27466">
        <ele>6.1</ele>
        <time>2022-05-31T14:17:32Z</time>
      </trkpt>
      <trkpt lat="49.24269" lon="-0.27466">
        <ele>6.1</ele>
        <time>2022-05-31T14:17:33Z</time>
      </trkpt>
      <trkpt lat="49.24269" lon="-0.27466">
        <ele>6.1</ele>
        <time>2022-05-31T14:17:34Z</time>
      </trkpt>
      <trkpt lat="49.24269" lon="-0.27466">
        <ele>6.1</ele>
        <time>2022-05-31T14:17:35Z</time>
      </trkpt>
      <trkpt lat="49.24269" lon="-0.27467">
        <ele>6.1</ele>
        <time>2022-05-31T14:17:36Z</time>
      </trkpt>
      <trkpt lat="49.24269" lon="-0.27467">
        <ele>6.1</ele>
        <time>2022-05-31T14:17:38Z</time>
      </trkpt>
      <trkpt lat="49.24269" lon="-0.27467">
        <ele>6.1</ele>
        <time>2022-05-31T14:17:39Z</time>
      </trkpt>
      <trkpt lat="49.24269" lon="-0.27467">
        <ele>6.1</ele>
        <time>2022-05-31T14:17:40Z</time>
      </trkpt>
      <trkpt lat="49.24269" lon="-0.27467">
        <ele>6.1</ele>
        <time>2022-05-31T14:17:41Z</time>
      </trkpt>
      <trkpt lat="49.24269" lon="-0.27467">
        <ele>6.1</ele>
        <time>2022-05-31T14:17:42Z</time>
      </trkpt>
      <trkpt lat="49.24269" lon="-0.27467">
        <ele>6.1</ele>
        <time>2022-05-31T14:17:43Z</time>
      </trkpt>
      <trkpt lat="49.24269" lon="-0.27467">
        <ele>6.1</ele>
        <time>2022-05-31T14:17:44Z</time>
      </trkpt>
      <trkpt lat="49.24269" lon="-0.27467">
        <ele>6.1</ele>
        <time>2022-05-31T14:17:45Z</time>
      </trkpt>
      <trkpt lat="49.24269" lon="-0.27467">
        <ele>6.1</ele>
        <time>2022-05-31T14:17:46Z</time>
      </trkpt>
      <trkpt lat="49.24269" lon="-0.27467">
        <ele>6.1</ele>
        <time>2022-05-31T14:17:47Z</time>
      </trkpt>
      <trkpt lat="49.24269" lon="-0.27467">
        <ele>6.1</ele>
        <time>2022-05-31T14:17:48Z</time>
      </trkpt>
      <trkpt lat="49.24269" lon="-0.27467">
        <ele>6.1</ele>
        <time>2022-05-31T14:17:49Z</time>
      </trkpt>
      <trkpt lat="49.24269" lon="-0.27467">
        <ele>6.1</ele>
        <time>2022-05-31T14:17:50Z</time>
      </trkpt>
      <trkpt lat="49.24269" lon="-0.27468">
        <ele>6.1</ele>
        <time>2022-05-31T14:17:51Z</time>
      </trkpt>
      <trkpt lat="49.24269" lon="-0.27468">
        <ele>6.1</ele>
        <time>2022-05-31T14:17:52Z</time>
      </trkpt>
      <trkpt lat="49.24269" lon="-0.27468">
        <ele>6.1</ele>
        <time>2022-05-31T14:17:53Z</time>
      </trkpt>
      <trkpt lat="49.24268" lon="-0.27469">
        <ele>6.1</ele>
        <time>2022-05-31T14:17:54Z</time>
      </trkpt>
      <trkpt lat="49.24268" lon="-0.2747">
        <ele>6.1</ele>
        <time>2022-05-31T14:17:56Z</time>
      </trkpt>
      <trkpt lat="49.24267" lon="-0.27472">
        <ele>6.1</ele>
        <time>2022-05-31T14:17:57Z</time>
      </trkpt>
      <trkpt lat="49.24267" lon="-0.27474">
        <ele>6.2</ele>
        <time>2022-05-31T14:17:58Z</time>
      </trkpt>
      <trkpt lat="49.24267" lon="-0.27477">
        <ele>6.2</ele>
        <time>2022-05-31T14:18:00Z</time>
      </trkpt>
      <trkpt lat="49.24266" lon="-0.27479">
        <ele>6.2</ele>
        <time>2022-05-31T14:18:01Z</time>
      </trkpt>
      <trkpt lat="49.24266" lon="-0.27481">
        <ele>6.2</ele>
        <time>2022-05-31T14:18:02Z</time>
      </trkpt>
      <trkpt lat="49.24266" lon="-0.27484">
        <ele>6.2</ele>
        <time>2022-05-31T14:18:03Z</time>
      </trkpt>
      <trkpt lat="49.24266" lon="-0.27486">
        <ele>6.2</ele>
        <time>2022-05-31T14:18:04Z</time>
      </trkpt>
      <trkpt lat="49.24266" lon="-0.27488">
        <ele>6.2</ele>
        <time>2022-05-31T14:18:06Z</time>
      </trkpt>
      <trkpt lat="49.24264" lon="-0.27491">
        <ele>6.2</ele>
        <time>2022-05-31T14:18:08Z</time>
      </trkpt>
      <trkpt lat="49.24264" lon="-0.27492">
        <ele>6.2</ele>
        <time>2022-05-31T14:18:09Z</time>
      </trkpt>
      <trkpt lat="49.24264" lon="-0.27493">
        <ele>6.2</ele>
        <time>2022-05-31T14:18:10Z</time>
      </trkpt>
      <trkpt lat="49.24264" lon="-0.27493">
        <ele>6.2</ele>
        <time>2022-05-31T14:18:11Z</time>
      </trkpt>
      <trkpt lat="49.24264" lon="-0.27491">
        <ele>6.2</ele>
        <time>2022-05-31T14:18:13Z</time>
      </trkpt>
      <trkpt lat="49.24264" lon="-0.2749">
        <ele>6.2</ele>
        <time>2022-05-31T14:18:14Z</time>
      </trkpt>
      <trkpt lat="49.24263" lon="-0.27491">
        <ele>6.2</ele>
        <time>2022-05-31T14:18:16Z</time>
      </trkpt>
      <trkpt lat="49.24263" lon="-0.27492">
        <ele>6.2</ele>
        <time>2022-05-31T14:18:17Z</time>
      </trkpt>
      <trkpt lat="49.24263" lon="-0.27491">
        <ele>6.2</ele>
        <time>2022-05-31T14:18:18Z</time>
      </trkpt>
      <trkpt lat="49.24263" lon="-0.27491">
        <ele>6.2</ele>
        <time>2022-05-31T14:18:19Z</time>
      </trkpt>
      <trkpt lat="49.24263" lon="-0.27491">
        <ele>6.2</ele>
        <time>2022-05-31T14:18:20Z</time>
      </trkpt>
      <trkpt lat="49.24263" lon="-0.2749">
        <ele>6.2</ele>
        <time>2022-05-31T14:18:21Z</time>
      </trkpt>
      <trkpt lat="49.24263" lon="-0.2749">
        <ele>6.2</ele>
        <time>2022-05-31T14:18:22Z</time>
      </trkpt>
      <trkpt lat="49.24263" lon="-0.2749">
        <ele>6.2</ele>
        <time>2022-05-31T14:18:23Z</time>
      </trkpt>
      <trkpt lat="49.24263" lon="-0.2749">
        <ele>6.2</ele>
        <time>2022-05-31T14:18:24Z</time>
      </trkpt>
      <trkpt lat="49.24263" lon="-0.2749">
        <ele>6.2</ele>
        <time>2022-05-31T14:18:25Z</time>
      </trkpt>
      <trkpt lat="49.24263" lon="-0.2749">
        <ele>6.2</ele>
        <time>2022-05-31T14:18:26Z</time>
      </trkpt>
      <trkpt lat="49.24263" lon="-0.27491">
        <ele>6.2</ele>
        <time>2022-05-31T14:18:27Z</time>
      </trkpt>
      <trkpt lat="49.24263" lon="-0.27495">
        <ele>6.2</ele>
        <time>2022-05-31T14:18:29Z</time>
      </trkpt>
      <trkpt lat="49.24262" lon="-0.27497">
        <ele>6.2</ele>
        <time>2022-05-31T14:18:30Z</time>
      </trkpt>
      <trkpt lat="49.24261" lon="-0.27498">
        <ele>6.2</ele>
        <time>2022-05-31T14:18:31Z</time>
      </trkpt>
      <trkpt lat="49.24261" lon="-0.275">
        <ele>6.2</ele>
        <time>2022-05-31T14:18:32Z</time>
      </trkpt>
      <trkpt lat="49.24262" lon="-0.27503">
        <ele>6.3</ele>
        <time>2022-05-31T14:18:33Z</time>
      </trkpt>
      <trkpt lat="49.24263" lon="-0.27504">
        <ele>6.3</ele>
        <time>2022-05-31T14:18:35Z</time>
      </trkpt>
      <trkpt lat="49.24265" lon="-0.27505">
        <ele>6.3</ele>
        <time>2022-05-31T14:18:36Z</time>
      </trkpt>
      <trkpt lat="49.24266" lon="-0.27506">
        <ele>6.3</ele>
        <time>2022-05-31T14:18:37Z</time>
      </trkpt>
      <trkpt lat="49.24267" lon="-0.27508">
        <ele>6.3</ele>
        <time>2022-05-31T14:18:38Z</time>
      </trkpt>
      <trkpt lat="49.24267" lon="-0.27509">
        <ele>6.3</ele>
        <time>2022-05-31T14:18:39Z</time>
      </trkpt>
      <trkpt lat="49.24268" lon="-0.2751">
        <ele>6.3</ele>
        <time>2022-05-31T14:18:40Z</time>
      </trkpt>
      <trkpt lat="49.24268" lon="-0.27511">
        <ele>6.3</ele>
        <time>2022-05-31T14:18:41Z</time>
      </trkpt>
      <trkpt lat="49.24269" lon="-0.27513">
        <ele>6.3</ele>
        <time>2022-05-31T14:18:42Z</time>
      </trkpt>
      <trkpt lat="49.24269" lon="-0.27513">
        <ele>6.3</ele>
        <time>2022-05-31T14:18:43Z</time>
      </trkpt>
      <trkpt lat="49.24269" lon="-0.27514">
        <ele>6.3</ele>
        <time>2022-05-31T14:18:44Z</time>
      </trkpt>
      <trkpt lat="49.2427" lon="-0.27515">
        <ele>6.3</ele>
        <time>2022-05-31T14:18:45Z</time>
      </trkpt>
      <trkpt lat="49.24271" lon="-0.27516">
        <ele>6.3</ele>
        <time>2022-05-31T14:18:47Z</time>
      </trkpt>
      <trkpt lat="49.24271" lon="-0.27518">
        <ele>6.3</ele>
        <time>2022-05-31T14:18:48Z</time>
      </trkpt>
      <trkpt lat="49.24272" lon="-0.27519">
        <ele>6.3</ele>
        <time>2022-05-31T14:18:49Z</time>
      </trkpt>
      <trkpt lat="49.24272" lon="-0.27521">
        <ele>6.4</ele>
        <time>2022-05-31T14:18:50Z</time>
      </trkpt>
      <trkpt lat="49.24272" lon="-0.27522">
        <ele>6.4</ele>
        <time>2022-05-31T14:18:51Z</time>
      </trkpt>
      <trkpt lat="49.24273" lon="-0.27524">
        <ele>6.4</ele>
        <time>2022-05-31T14:18:52Z</time>
      </trkpt>
      <trkpt lat="49.24273" lon="-0.27526">
        <ele>6.4</ele>
        <time>2022-05-31T14:18:53Z</time>
      </trkpt>
      <trkpt lat="49.24273" lon="-0.27527">
        <ele>6.4</ele>
        <time>2022-05-31T14:18:54Z</time>
      </trkpt>
      <trkpt lat="49.24273" lon="-0.27529">
        <ele>6.4</ele>
        <time>2022-05-31T14:18:55Z</time>
      </trkpt>
      <trkpt lat="49.24274" lon="-0.27531">
        <ele>6.4</ele>
        <time>2022-05-31T14:18:56Z</time>
      </trkpt>
      <trkpt lat="49.24274" lon="-0.27533">
        <ele>6.4</ele>
        <time>2022-05-31T14:18:58Z</time>
      </trkpt>
      <trkpt lat="49.24274" lon="-0.27535">
        <ele>6.4</ele>
        <time>2022-05-31T14:18:59Z</time>
      </trkpt>
      <trkpt lat="49.24274" lon="-0.27538">
        <ele>6.4</ele>
        <time>2022-05-31T14:19:00Z</time>
      </trkpt>
      <trkpt lat="49.24275" lon="-0.2754">
        <ele>6.5</ele>
        <time>2022-05-31T14:19:01Z</time>
      </trkpt>
      <trkpt lat="49.24275" lon="-0.27542">
        <ele>6.5</ele>
        <time>2022-05-31T14:19:02Z</time>
      </trkpt>
      <trkpt lat="49.24275" lon="-0.27544">
        <ele>6.5</ele>
        <time>2022-05-31T14:19:03Z</time>
      </trkpt>
      <trkpt lat="49.24275" lon="-0.27546">
        <ele>6.5</ele>
        <time>2022-05-31T14:19:04Z</time>
      </trkpt>
      <trkpt lat="49.24275" lon="-0.27548">
        <ele>6.5</ele>
        <time>2022-05-31T14:19:05Z</time>
      </trkpt>
      <trkpt lat="49.24273" lon="-0.2755">
        <ele>6.5</ele>
        <time>2022-05-31T14:19:07Z</time>
      </trkpt>
      <trkpt lat="49.24272" lon="-0.27551">
        <ele>6.5</ele>
        <time>2022-05-31T14:19:08Z</time>
      </trkpt>
      <trkpt lat="49.24271" lon="-0.27552">
        <ele>6.5</ele>
        <time>2022-05-31T14:19:09Z</time>
      </trkpt>
      <trkpt lat="49.2427" lon="-0.27553">
        <ele>6.5</ele>
        <time>2022-05-31T14:19:10Z</time>
      </trkpt>
      <trkpt lat="49.24268" lon="-0.27554">
        <ele>6.5</ele>
        <time>2022-05-31T14:19:11Z</time>
      </trkpt>
      <trkpt lat="49.24267" lon="-0.27555">
        <ele>6.5</ele>
        <time>2022-05-31T14:19:12Z</time>
      </trkpt>
      <trkpt lat="49.24266" lon="-0.27555">
        <ele>6.5</ele>
        <time>2022-05-31T14:19:13Z</time>
      </trkpt>
      <trkpt lat="49.24265" lon="-0.27556">
        <ele>6.5</ele>
        <time>2022-05-31T14:19:14Z</time>
      </trkpt>
      <trkpt lat="49.24263" lon="-0.27556">
        <ele>6.5</ele>
        <time>2022-05-31T14:19:16Z</time>
      </trkpt>
      <trkpt lat="49.24262" lon="-0.27556">
        <ele>6.5</ele>
        <time>2022-05-31T14:19:17Z</time>
      </trkpt>
      <trkpt lat="49.24261" lon="-0.27556">
        <ele>6.5</ele>
        <time>2022-05-31T14:19:18Z</time>
      </trkpt>
      <trkpt lat="49.2426" lon="-0.27555">
        <ele>6.5</ele>
        <time>2022-05-31T14:19:20Z</time>
      </trkpt>
      <trkpt lat="49.24259" lon="-0.27554">
        <ele>6.5</ele>
        <time>2022-05-31T14:19:21Z</time>
      </trkpt>
      <trkpt lat="49.24259" lon="-0.27555">
        <ele>6.5</ele>
        <time>2022-05-31T14:19:22Z</time>
      </trkpt>
      <trkpt lat="49.24259" lon="-0.27556">
        <ele>6.5</ele>
        <time>2022-05-31T14:19:23Z</time>
      </trkpt>
      <trkpt lat="49.24259" lon="-0.27556">
        <ele>6.5</ele>
        <time>2022-05-31T14:19:24Z</time>
      </trkpt>
      <trkpt lat="49.24259" lon="-0.27555">
        <ele>6.5</ele>
        <time>2022-05-31T14:19:25Z</time>
      </trkpt>
      <trkpt lat="49.24259" lon="-0.27554">
        <ele>6.5</ele>
        <time>2022-05-31T14:19:26Z</time>
      </trkpt>
      <trkpt lat="49.2426" lon="-0.27554">
        <ele>6.5</ele>
        <time>2022-05-31T14:19:27Z</time>
      </trkpt>
      <trkpt lat="49.24261" lon="-0.27552">
        <ele>6.5</ele>
        <time>2022-05-31T14:19:28Z</time>
      </trkpt>
      <trkpt lat="49.24261" lon="-0.27553">
        <ele>6.5</ele>
        <time>2022-05-31T14:19:29Z</time>
      </trkpt>
      <trkpt lat="49.24261" lon="-0.27553">
        <ele>6.5</ele>
        <time>2022-05-31T14:19:30Z</time>
      </trkpt>
      <trkpt lat="49.24261" lon="-0.27553">
        <ele>6.5</ele>
        <time>2022-05-31T14:19:31Z</time>
      </trkpt>
      <trkpt lat="49.24261" lon="-0.27553">
        <ele>6.5</ele>
        <time>2022-05-31T14:19:32Z</time>
      </trkpt>
      <trkpt lat="49.24261" lon="-0.27553">
        <ele>6.5</ele>
        <time>2022-05-31T14:19:33Z</time>
      </trkpt>
      <trkpt lat="49.24261" lon="-0.27553">
        <ele>6.5</ele>
        <time>2022-05-31T14:19:34Z</time>
      </trkpt>
      <trkpt lat="49.24261" lon="-0.27552">
        <ele>6.5</ele>
        <time>2022-05-31T14:19:35Z</time>
      </trkpt>
      <trkpt lat="49.24261" lon="-0.27552">
        <ele>6.5</ele>
        <time>2022-05-31T14:19:36Z</time>
      </trkpt>
      <trkpt lat="49.24261" lon="-0.27552">
        <ele>6.5</ele>
        <time>2022-05-31T14:19:38Z</time>
      </trkpt>
      <trkpt lat="49.24261" lon="-0.27552">
        <ele>6.5</ele>
        <time>2022-05-31T14:19:39Z</time>
      </trkpt>
      <trkpt lat="49.24261" lon="-0.27552">
        <ele>6.5</ele>
        <time>2022-05-31T14:19:40Z</time>
      </trkpt>
      <trkpt lat="49.24261" lon="-0.27552">
        <ele>6.5</ele>
        <time>2022-05-31T14:19:41Z</time>
      </trkpt>
      <trkpt lat="49.24262" lon="-0.27552">
        <ele>6.5</ele>
        <time>2022-05-31T14:19:42Z</time>
      </trkpt>
      <trkpt lat="49.24263" lon="-0.27552">
        <ele>6.5</ele>
        <time>2022-05-31T14:19:43Z</time>
      </trkpt>
      <trkpt lat="49.24264" lon="-0.27552">
        <ele>6.5</ele>
        <time>2022-05-31T14:19:45Z</time>
      </trkpt>
      <trkpt lat="49.24264" lon="-0.27552">
        <ele>6.5</ele>
        <time>2022-05-31T14:19:46Z</time>
      </trkpt>
      <trkpt lat="49.24265" lon="-0.27552">
        <ele>6.5</ele>
        <time>2022-05-31T14:19:47Z</time>
      </trkpt>
      <trkpt lat="49.24265" lon="-0.27553">
        <ele>6.5</ele>
        <time>2022-05-31T14:19:48Z</time>
      </trkpt>
      <trkpt lat="49.24266" lon="-0.27553">
        <ele>6.5</ele>
        <time>2022-05-31T14:19:49Z</time>
      </trkpt>
      <trkpt lat="49.24266" lon="-0.27554">
        <ele>6.5</ele>
        <time>2022-05-31T14:19:50Z</time>
      </trkpt>
      <trkpt lat="49.24266" lon="-0.27554">
        <ele>6.5</ele>
        <time>2022-05-31T14:19:51Z</time>
      </trkpt>
      <trkpt lat="49.24266" lon="-0.27554">
        <ele>6.5</ele>
        <time>2022-05-31T14:19:52Z</time>
      </trkpt>
      <trkpt lat="49.24266" lon="-0.27555">
        <ele>6.5</ele>
        <time>2022-05-31T14:19:53Z</time>
      </trkpt>
      <trkpt lat="49.24267" lon="-0.27555">
        <ele>6.5</ele>
        <time>2022-05-31T14:19:54Z</time>
      </trkpt>
      <trkpt lat="49.24267" lon="-0.27555">
        <ele>6.5</ele>
        <time>2022-05-31T14:19:55Z</time>
      </trkpt>
      <trkpt lat="49.24267" lon="-0.27555">
        <ele>6.5</ele>
        <time>2022-05-31T14:19:56Z</time>
      </trkpt>
      <trkpt lat="49.24267" lon="-0.27555">
        <ele>6.5</ele>
        <time>2022-05-31T14:19:57Z</time>
      </trkpt>
      <trkpt lat="49.24267" lon="-0.27555">
        <ele>6.5</ele>
        <time>2022-05-31T14:19:58Z</time>
      </trkpt>
      <trkpt lat="49.24267" lon="-0.27555">
        <ele>6.5</ele>
        <time>2022-05-31T14:19:59Z</time>
      </trkpt>
      <trkpt lat="49.24267" lon="-0.27555">
        <ele>6.5</ele>
        <time>2022-05-31T14:20:00Z</time>
      </trkpt>
      <trkpt lat="49.24267" lon="-0.27556">
        <ele>6.5</ele>
        <time>2022-05-31T14:20:01Z</time>
      </trkpt>
      <trkpt lat="49.24267" lon="-0.27556">
        <ele>6.5</ele>
        <time>2022-05-31T14:20:02Z</time>
      </trkpt>
      <trkpt lat="49.24267" lon="-0.27556">
        <ele>6.5</ele>
        <time>2022-05-31T14:20:03Z</time>
      </trkpt>
      <trkpt lat="49.24267" lon="-0.27556">
        <ele>6.5</ele>
        <time>2022-05-31T14:20:04Z</time>
      </trkpt>
      <trkpt lat="49.24267" lon="-0.27556">
        <ele>6.5</ele>
        <time>2022-05-31T14:20:05Z</time>
      </trkpt>
      <trkpt lat="49.24267" lon="-0.27556">
        <ele>6.5</ele>
        <time>2022-05-31T14:20:06Z</time>
      </trkpt>
      <trkpt lat="49.24267" lon="-0.27556">
        <ele>6.5</ele>
        <time>2022-05-31T14:20:07Z</time>
      </trkpt>
      <trkpt lat="49.24267" lon="-0.27556">
        <ele>6.5</ele>
        <time>2022-05-31T14:20:08Z</time>
      </trkpt>
      <trkpt lat="49.24267" lon="-0.27556">
        <ele>6.5</ele>
        <time>2022-05-31T14:20:09Z</time>
      </trkpt>
      <trkpt lat="49.24267" lon="-0.27556">
        <ele>6.5</ele>
        <time>2022-05-31T14:20:10Z</time>
      </trkpt>
      <trkpt lat="49.24267" lon="-0.27556">
        <ele>6.5</ele>
        <time>2022-05-31T14:20:11Z</time>
      </trkpt>
      <trkpt lat="49.24267" lon="-0.27556">
        <ele>6.5</ele>
        <time>2022-05-31T14:20:12Z</time>
      </trkpt>
      <trkpt lat="49.24267" lon="-0.27556">
        <ele>6.5</ele>
        <time>2022-05-31T14:20:13Z</time>
      </trkpt>
      <trkpt lat="49.24267" lon="-0.27556">
        <ele>6.5</ele>
        <time>2022-05-31T14:20:14Z</time>
      </trkpt>
      <trkpt lat="49.24267" lon="-0.27556">
        <ele>6.5</ele>
        <time>2022-05-31T14:20:15Z</time>
      </trkpt>
      <trkpt lat="49.24267" lon="-0.27556">
        <ele>6.5</ele>
        <time>2022-05-31T14:20:16Z</time>
      </trkpt>
      <trkpt lat="49.24267" lon="-0.27556">
        <ele>6.5</ele>
        <time>2022-05-31T14:20:17Z</time>
      </trkpt>
      <trkpt lat="49.24267" lon="-0.27556">
        <ele>6.5</ele>
        <time>2022-05-31T14:20:18Z</time>
      </trkpt>
      <trkpt lat="49.24267" lon="-0.27556">
        <ele>6.5</ele>
        <time>2022-05-31T14:20:19Z</time>
      </trkpt>
      <trkpt lat="49.24267" lon="-0.27556">
        <ele>6.5</ele>
        <time>2022-05-31T14:20:20Z</time>
      </trkpt>
      <trkpt lat="49.24267" lon="-0.27556">
        <ele>6.5</ele>
        <time>2022-05-31T14:20:21Z</time>
      </trkpt>
      <trkpt lat="49.24267" lon="-0.27556">
        <ele>6.5</ele>
        <time>2022-05-31T14:20:22Z</time>
      </trkpt>
      <trkpt lat="49.24267" lon="-0.27556">
        <ele>6.5</ele>
        <time>2022-05-31T14:20:23Z</time>
      </trkpt>
      <trkpt lat="49.24267" lon="-0.27556">
        <ele>6.5</ele>
        <time>2022-05-31T14:20:24Z</time>
      </trkpt>
      <trkpt lat="49.24267" lon="-0.27556">
        <ele>6.5</ele>
        <time>2022-05-31T14:20:25Z</time>
      </trkpt>
      <trkpt lat="49.24267" lon="-0.27556">
        <ele>6.5</ele>
        <time>2022-05-31T14:20:26Z</time>
      </trkpt>
      <trkpt lat="49.24267" lon="-0.27556">
        <ele>6.5</ele>
        <time>2022-05-31T14:20:27Z</time>
      </trkpt>
      <trkpt lat="49.24267" lon="-0.27556">
        <ele>6.5</ele>
        <time>2022-05-31T14:20:28Z</time>
      </trkpt>
      <trkpt lat="49.24267" lon="-0.27556">
        <ele>6.5</ele>
        <time>2022-05-31T14:20:29Z</time>
      </trkpt>
      <trkpt lat="49.24267" lon="-0.27556">
        <ele>6.5</ele>
        <time>2022-05-31T14:20:30Z</time>
      </trkpt>
      <trkpt lat="49.24267" lon="-0.27556">
        <ele>6.5</ele>
        <time>2022-05-31T14:20:31Z</time>
      </trkpt>
      <trkpt lat="49.24267" lon="-0.27556">
        <ele>6.5</ele>
        <time>2022-05-31T14:20:32Z</time>
      </trkpt>
      <trkpt lat="49.24267" lon="-0.27556">
        <ele>6.5</ele>
        <time>2022-05-31T14:20:33Z</time>
      </trkpt>
      <trkpt lat="49.24267" lon="-0.27556">
        <ele>6.5</ele>
        <time>2022-05-31T14:20:34Z</time>
      </trkpt>
      <trkpt lat="49.24267" lon="-0.27556">
        <ele>6.5</ele>
        <time>2022-05-31T14:20:35Z</time>
      </trkpt>
      <trkpt lat="49.24267" lon="-0.27556">
        <ele>6.5</ele>
        <time>2022-05-31T14:20:36Z</time>
      </trkpt>
      <trkpt lat="49.24267" lon="-0.27556">
        <ele>6.5</ele>
        <time>2022-05-31T14:20:37Z</time>
      </trkpt>
      <trkpt lat="49.24267" lon="-0.27556">
        <ele>6.5</ele>
        <time>2022-05-31T14:20:38Z</time>
      </trkpt>
      <trkpt lat="49.24267" lon="-0.27556">
        <ele>6.5</ele>
        <time>2022-05-31T14:20:39Z</time>
      </trkpt>
      <trkpt lat="49.24267" lon="-0.27556">
        <ele>6.5</ele>
        <time>2022-05-31T14:20:40Z</time>
      </trkpt>
      <trkpt lat="49.24267" lon="-0.27556">
        <ele>6.5</ele>
        <time>2022-05-31T14:20:41Z</time>
      </trkpt>
      <trkpt lat="49.24267" lon="-0.27556">
        <ele>6.5</ele>
        <time>2022-05-31T14:20:42Z</time>
      </trkpt>
      <trkpt lat="49.24267" lon="-0.27556">
        <ele>6.5</ele>
        <time>2022-05-31T14:20:43Z</time>
      </trkpt>
      <trkpt lat="49.24267" lon="-0.27556">
        <ele>6.5</ele>
        <time>2022-05-31T14:20:44Z</time>
      </trkpt>
      <trkpt lat="49.24267" lon="-0.27556">
        <ele>6.5</ele>
        <time>2022-05-31T14:20:45Z</time>
      </trkpt>
      <trkpt lat="49.24267" lon="-0.27556">
        <ele>6.5</ele>
        <time>2022-05-31T14:20:46Z</time>
      </trkpt>
      <trkpt lat="49.24267" lon="-0.27556">
        <ele>6.5</ele>
        <time>2022-05-31T14:20:47Z</time>
      </trkpt>
      <trkpt lat="49.24267" lon="-0.27556">
        <ele>6.5</ele>
        <time>2022-05-31T14:20:48Z</time>
      </trkpt>
      <trkpt lat="49.24267" lon="-0.27556">
        <ele>6.5</ele>
        <time>2022-05-31T14:20:49Z</time>
      </trkpt>
      <trkpt lat="49.24267" lon="-0.27556">
        <ele>6.5</ele>
        <time>2022-05-31T14:20:50Z</time>
      </trkpt>
      <trkpt lat="49.24267" lon="-0.27556">
        <ele>6.5</ele>
        <time>2022-05-31T14:20:51Z</time>
      </trkpt>
      <trkpt lat="49.24267" lon="-0.27556">
        <ele>6.5</ele>
        <time>2022-05-31T14:20:52Z</time>
      </trkpt>
      <trkpt lat="49.24267" lon="-0.27556">
        <ele>6.5</ele>
        <time>2022-05-31T14:20:53Z</time>
      </trkpt>
      <trkpt lat="49.24267" lon="-0.27556">
        <ele>6.5</ele>
        <time>2022-05-31T14:20:54Z</time>
      </trkpt>
      <trkpt lat="49.24267" lon="-0.27556">
        <ele>6.5</ele>
        <time>2022-05-31T14:20:55Z</time>
      </trkpt>
      <trkpt lat="49.24267" lon="-0.27556">
        <ele>6.5</ele>
        <time>2022-05-31T14:20:56Z</time>
      </trkpt>
      <trkpt lat="49.24267" lon="-0.27556">
        <ele>6.5</ele>
        <time>2022-05-31T14:20:57Z</time>
      </trkpt>
      <trkpt lat="49.24267" lon="-0.27556">
        <ele>6.5</ele>
        <time>2022-05-31T14:20:58Z</time>
      </trkpt>
      <trkpt lat="49.24267" lon="-0.27556">
        <ele>6.5</ele>
        <time>2022-05-31T14:20:59Z</time>
      </trkpt>
      <trkpt lat="49.24267" lon="-0.27556">
        <ele>6.5</ele>
        <time>2022-05-31T14:21:00Z</time>
      </trkpt>
      <trkpt lat="49.24267" lon="-0.27556">
        <ele>6.5</ele>
        <time>2022-05-31T14:21:01Z</time>
      </trkpt>
      <trkpt lat="49.24267" lon="-0.27556">
        <ele>6.5</ele>
        <time>2022-05-31T14:21:02Z</time>
      </trkpt>
      <trkpt lat="49.24267" lon="-0.27556">
        <ele>6.5</ele>
        <time>2022-05-31T14:21:03Z</time>
      </trkpt>
      <trkpt lat="49.24267" lon="-0.27556">
        <ele>6.5</ele>
        <time>2022-05-31T14:21:04Z</time>
      </trkpt>
      <trkpt lat="49.24267" lon="-0.27556">
        <ele>6.5</ele>
        <time>2022-05-31T14:21:05Z</time>
      </trkpt>
      <trkpt lat="49.24267" lon="-0.27556">
        <ele>6.5</ele>
        <time>2022-05-31T14:21:06Z</time>
      </trkpt>
      <trkpt lat="49.24267" lon="-0.27556">
        <ele>6.5</ele>
        <time>2022-05-31T14:21:07Z</time>
      </trkpt>
      <trkpt lat="49.24267" lon="-0.27556">
        <ele>6.5</ele>
        <time>2022-05-31T14:21:08Z</time>
      </trkpt>
      <trkpt lat="49.24267" lon="-0.27556">
        <ele>6.5</ele>
        <time>2022-05-31T14:21:09Z</time>
      </trkpt>
      <trkpt lat="49.24267" lon="-0.27556">
        <ele>6.5</ele>
        <time>2022-05-31T14:21:10Z</time>
      </trkpt>
      <trkpt lat="49.24267" lon="-0.27556">
        <ele>6.5</ele>
        <time>2022-05-31T14:21:11Z</time>
      </trkpt>
      <trkpt lat="49.24267" lon="-0.27556">
        <ele>6.5</ele>
        <time>2022-05-31T14:21:12Z</time>
      </trkpt>
      <trkpt lat="49.24267" lon="-0.27556">
        <ele>6.5</ele>
        <time>2022-05-31T14:21:13Z</time>
      </trkpt>
      <trkpt lat="49.24267" lon="-0.27556">
        <ele>6.5</ele>
        <time>2022-05-31T14:21:14Z</time>
      </trkpt>
      <trkpt lat="49.24267" lon="-0.27556">
        <ele>6.5</ele>
        <time>2022-05-31T14:21:15Z</time>
      </trkpt>
      <trkpt lat="49.24267" lon="-0.27556">
        <ele>6.5</ele>
        <time>2022-05-31T14:21:16Z</time>
      </trkpt>
      <trkpt lat="49.24267" lon="-0.27556">
        <ele>6.5</ele>
        <time>2022-05-31T14:21:17Z</time>
      </trkpt>
      <trkpt lat="49.24267" lon="-0.27556">
        <ele>6.5</ele>
        <time>2022-05-31T14:21:18Z</time>
      </trkpt>
      <trkpt lat="49.24267" lon="-0.27556">
        <ele>6.5</ele>
        <time>2022-05-31T14:21:19Z</time>
      </trkpt>
      <trkpt lat="49.24267" lon="-0.27556">
        <ele>6.5</ele>
        <time>2022-05-31T14:21:20Z</time>
      </trkpt>
      <trkpt lat="49.24267" lon="-0.27556">
        <ele>6.5</ele>
        <time>2022-05-31T14:21:21Z</time>
      </trkpt>
      <trkpt lat="49.24267" lon="-0.27556">
        <ele>6.5</ele>
        <time>2022-05-31T14:21:22Z</time>
      </trkpt>
      <trkpt lat="49.24267" lon="-0.27556">
        <ele>6.5</ele>
        <time>2022-05-31T14:21:23Z</time>
      </trkpt>
      <trkpt lat="49.24267" lon="-0.27556">
        <ele>6.5</ele>
        <time>2022-05-31T14:21:24Z</time>
      </trkpt>
      <trkpt lat="49.24267" lon="-0.27556">
        <ele>6.5</ele>
        <time>2022-05-31T14:21:25Z</time>
      </trkpt>
      <trkpt lat="49.24267" lon="-0.27556">
        <ele>6.5</ele>
        <time>2022-05-31T14:21:26Z</time>
      </trkpt>
      <trkpt lat="49.24267" lon="-0.27556">
        <ele>6.5</ele>
        <time>2022-05-31T14:21:27Z</time>
      </trkpt>
      <trkpt lat="49.24267" lon="-0.27556">
        <ele>6.5</ele>
        <time>2022-05-31T14:21:28Z</time>
      </trkpt>
      <trkpt lat="49.24267" lon="-0.27556">
        <ele>6.5</ele>
        <time>2022-05-31T14:21:29Z</time>
      </trkpt>
      <trkpt lat="49.24267" lon="-0.27556">
        <ele>6.5</ele>
        <time>2022-05-31T14:21:30Z</time>
      </trkpt>
      <trkpt lat="49.24267" lon="-0.27556">
        <ele>6.5</ele>
        <time>2022-05-31T14:21:31Z</time>
      </trkpt>
      <trkpt lat="49.24267" lon="-0.27556">
        <ele>6.5</ele>
        <time>2022-05-31T14:21:32Z</time>
      </trkpt>
      <trkpt lat="49.24267" lon="-0.27556">
        <ele>6.5</ele>
        <time>2022-05-31T14:21:33Z</time>
      </trkpt>
      <trkpt lat="49.24267" lon="-0.27556">
        <ele>6.5</ele>
        <time>2022-05-31T14:21:34Z</time>
      </trkpt>
      <trkpt lat="49.24267" lon="-0.27556">
        <ele>6.5</ele>
        <time>2022-05-31T14:21:35Z</time>
      </trkpt>
      <trkpt lat="49.24267" lon="-0.27556">
        <ele>6.5</ele>
        <time>2022-05-31T14:21:36Z</time>
      </trkpt>
      <trkpt lat="49.24267" lon="-0.27556">
        <ele>6.5</ele>
        <time>2022-05-31T14:21:37Z</time>
      </trkpt>
      <trkpt lat="49.24267" lon="-0.27556">
        <ele>6.5</ele>
        <time>2022-05-31T14:21:38Z</time>
      </trkpt>
      <trkpt lat="49.24267" lon="-0.27556">
        <ele>6.5</ele>
        <time>2022-05-31T14:21:39Z</time>
      </trkpt>
      <trkpt lat="49.24267" lon="-0.27556">
        <ele>6.5</ele>
        <time>2022-05-31T14:21:40Z</time>
      </trkpt>
      <trkpt lat="49.24267" lon="-0.27556">
        <ele>6.5</ele>
        <time>2022-05-31T14:21:41Z</time>
      </trkpt>
      <trkpt lat="49.24267" lon="-0.27556">
        <ele>6.5</ele>
        <time>2022-05-31T14:21:42Z</time>
      </trkpt>
      <trkpt lat="49.24267" lon="-0.27556">
        <ele>6.5</ele>
        <time>2022-05-31T14:21:43Z</time>
      </trkpt>
      <trkpt lat="49.24267" lon="-0.27556">
        <ele>6.5</ele>
        <time>2022-05-31T14:21:44Z</time>
      </trkpt>
      <trkpt lat="49.24267" lon="-0.27556">
        <ele>6.5</ele>
        <time>2022-05-31T14:21:45Z</time>
      </trkpt>
      <trkpt lat="49.24267" lon="-0.27556">
        <ele>6.5</ele>
        <time>2022-05-31T14:21:46Z</time>
      </trkpt>
      <trkpt lat="49.24267" lon="-0.27556">
        <ele>6.5</ele>
        <time>2022-05-31T14:21:47Z</time>
      </trkpt>
      <trkpt lat="49.24267" lon="-0.27556">
        <ele>6.5</ele>
        <time>2022-05-31T14:21:48Z</time>
      </trkpt>
      <trkpt lat="49.24267" lon="-0.27556">
        <ele>6.5</ele>
        <time>2022-05-31T14:21:49Z</time>
      </trkpt>
      <trkpt lat="49.24267" lon="-0.27556">
        <ele>6.5</ele>
        <time>2022-05-31T14:21:50Z</time>
      </trkpt>
      <trkpt lat="49.24267" lon="-0.27556">
        <ele>6.5</ele>
        <time>2022-05-31T14:21:51Z</time>
      </trkpt>
      <trkpt lat="49.24267" lon="-0.27556">
        <ele>6.5</ele>
        <time>2022-05-31T14:21:52Z</time>
      </trkpt>
      <trkpt lat="49.24267" lon="-0.27556">
        <ele>6.5</ele>
        <time>2022-05-31T14:21:53Z</time>
      </trkpt>
      <trkpt lat="49.24267" lon="-0.27556">
        <ele>6.5</ele>
        <time>2022-05-31T14:21:54Z</time>
      </trkpt>
      <trkpt lat="49.24267" lon="-0.27556">
        <ele>6.5</ele>
        <time>2022-05-31T14:21:55Z</time>
      </trkpt>
      <trkpt lat="49.24267" lon="-0.27556">
        <ele>6.5</ele>
        <time>2022-05-31T14:21:56Z</time>
      </trkpt>
      <trkpt lat="49.24267" lon="-0.27556">
        <ele>6.5</ele>
        <time>2022-05-31T14:21:57Z</time>
      </trkpt>
      <trkpt lat="49.24267" lon="-0.27556">
        <ele>6.5</ele>
        <time>2022-05-31T14:21:58Z</time>
      </trkpt>
      <trkpt lat="49.24267" lon="-0.27556">
        <ele>6.5</ele>
        <time>2022-05-31T14:21:59Z</time>
      </trkpt>
      <trkpt lat="49.24267" lon="-0.27556">
        <ele>6.5</ele>
        <time>2022-05-31T14:22:00Z</time>
      </trkpt>
      <trkpt lat="49.24267" lon="-0.27556">
        <ele>6.5</ele>
        <time>2022-05-31T14:22:01Z</time>
      </trkpt>
      <trkpt lat="49.24267" lon="-0.27556">
        <ele>6.5</ele>
        <time>2022-05-31T14:22:02Z</time>
      </trkpt>
      <trkpt lat="49.24267" lon="-0.27556">
        <ele>6.5</ele>
        <time>2022-05-31T14:22:03Z</time>
      </trkpt>
      <trkpt lat="49.24267" lon="-0.27556">
        <ele>6.5</ele>
        <time>2022-05-31T14:22:04Z</time>
      </trkpt>
      <trkpt lat="49.24267" lon="-0.27556">
        <ele>6.5</ele>
        <time>2022-05-31T14:22:05Z</time>
      </trkpt>
      <trkpt lat="49.24267" lon="-0.27556">
        <ele>6.5</ele>
        <time>2022-05-31T14:22:06Z</time>
      </trkpt>
      <trkpt lat="49.24267" lon="-0.27556">
        <ele>6.5</ele>
        <time>2022-05-31T14:22:07Z</time>
      </trkpt>
      <trkpt lat="49.24267" lon="-0.27556">
        <ele>6.5</ele>
        <time>2022-05-31T14:22:08Z</time>
      </trkpt>
      <trkpt lat="49.24267" lon="-0.27556">
        <ele>6.5</ele>
        <time>2022-05-31T14:22:09Z</time>
      </trkpt>
      <trkpt lat="49.24267" lon="-0.27556">
        <ele>6.5</ele>
        <time>2022-05-31T14:22:10Z</time>
      </trkpt>
      <trkpt lat="49.24267" lon="-0.27556">
        <ele>6.5</ele>
        <time>2022-05-31T14:22:11Z</time>
      </trkpt>
      <trkpt lat="49.24267" lon="-0.27556">
        <ele>6.5</ele>
        <time>2022-05-31T14:22:12Z</time>
      </trkpt>
      <trkpt lat="49.24267" lon="-0.27556">
        <ele>6.5</ele>
        <time>2022-05-31T14:22:13Z</time>
      </trkpt>
      <trkpt lat="49.24267" lon="-0.27556">
        <ele>6.5</ele>
        <time>2022-05-31T14:22:14Z</time>
      </trkpt>
      <trkpt lat="49.24267" lon="-0.27556">
        <ele>6.5</ele>
        <time>2022-05-31T14:22:15Z</time>
      </trkpt>
      <trkpt lat="49.24267" lon="-0.27556">
        <ele>6.5</ele>
        <time>2022-05-31T14:22:16Z</time>
      </trkpt>
      <trkpt lat="49.24267" lon="-0.27556">
        <ele>6.5</ele>
        <time>2022-05-31T14:22:17Z</time>
      </trkpt>
      <trkpt lat="49.24267" lon="-0.27556">
        <ele>6.5</ele>
        <time>2022-05-31T14:22:18Z</time>
      </trkpt>
      <trkpt lat="49.24267" lon="-0.27556">
        <ele>6.5</ele>
        <time>2022-05-31T14:22:19Z</time>
      </trkpt>
      <trkpt lat="49.24267" lon="-0.27556">
        <ele>6.5</ele>
        <time>2022-05-31T14:22:20Z</time>
      </trkpt>
      <trkpt lat="49.24267" lon="-0.27556">
        <ele>6.5</ele>
        <time>2022-05-31T14:22:21Z</time>
      </trkpt>
      <trkpt lat="49.24267" lon="-0.27556">
        <ele>6.5</ele>
        <time>2022-05-31T14:22:22Z</time>
      </trkpt>
      <trkpt lat="49.24267" lon="-0.27556">
        <ele>6.5</ele>
        <time>2022-05-31T14:22:23Z</time>
      </trkpt>
      <trkpt lat="49.24267" lon="-0.27556">
        <ele>6.5</ele>
        <time>2022-05-31T14:22:24Z</time>
      </trkpt>
      <trkpt lat="49.24267" lon="-0.27556">
        <ele>6.5</ele>
        <time>2022-05-31T14:22:25Z</time>
      </trkpt>
      <trkpt lat="49.24267" lon="-0.27556">
        <ele>6.5</ele>
        <time>2022-05-31T14:22:26Z</time>
      </trkpt>
      <trkpt lat="49.24267" lon="-0.27556">
        <ele>6.5</ele>
        <time>2022-05-31T14:22:27Z</time>
      </trkpt>
      <trkpt lat="49.24267" lon="-0.27556">
        <ele>6.5</ele>
        <time>2022-05-31T14:22:28Z</time>
      </trkpt>
      <trkpt lat="49.24267" lon="-0.27556">
        <ele>6.5</ele>
        <time>2022-05-31T14:22:29Z</time>
      </trkpt>
      <trkpt lat="49.24267" lon="-0.27556">
        <ele>6.5</ele>
        <time>2022-05-31T14:22:30Z</time>
      </trkpt>
      <trkpt lat="49.24267" lon="-0.27556">
        <ele>6.5</ele>
        <time>2022-05-31T14:22:31Z</time>
      </trkpt>
      <trkpt lat="49.24267" lon="-0.27556">
        <ele>6.5</ele>
        <time>2022-05-31T14:22:32Z</time>
      </trkpt>
      <trkpt lat="49.24268" lon="-0.27556">
        <ele>6.5</ele>
        <time>2022-05-31T14:22:33Z</time>
      </trkpt>
      <trkpt lat="49.24269" lon="-0.27556">
        <ele>6.5</ele>
        <time>2022-05-31T14:22:34Z</time>
      </trkpt>
      <trkpt lat="49.24269" lon="-0.27556">
        <ele>6.5</ele>
        <time>2022-05-31T14:22:35Z</time>
      </trkpt>
      <trkpt lat="49.24269" lon="-0.27556">
        <ele>6.5</ele>
        <time>2022-05-31T14:22:36Z</time>
      </trkpt>
      <trkpt lat="49.24269" lon="-0.27556">
        <ele>6.5</ele>
        <time>2022-05-31T14:22:37Z</time>
      </trkpt>
      <trkpt lat="49.24268" lon="-0.27557">
        <ele>6.5</ele>
        <time>2022-05-31T14:22:38Z</time>
      </trkpt>
      <trkpt lat="49.24268" lon="-0.27556">
        <ele>6.5</ele>
        <time>2022-05-31T14:22:39Z</time>
      </trkpt>
      <trkpt lat="49.24268" lon="-0.27555">
        <ele>6.5</ele>
        <time>2022-05-31T14:22:40Z</time>
      </trkpt>
      <trkpt lat="49.24268" lon="-0.27555">
        <ele>6.5</ele>
        <time>2022-05-31T14:22:41Z</time>
      </trkpt>
      <trkpt lat="49.24268" lon="-0.27554">
        <ele>6.5</ele>
        <time>2022-05-31T14:22:42Z</time>
      </trkpt>
      <trkpt lat="49.24268" lon="-0.27554">
        <ele>6.5</ele>
        <time>2022-05-31T14:22:43Z</time>
      </trkpt>
      <trkpt lat="49.24268" lon="-0.27554">
        <ele>6.5</ele>
        <time>2022-05-31T14:22:44Z</time>
      </trkpt>
      <trkpt lat="49.24268" lon="-0.27555">
        <ele>6.5</ele>
        <time>2022-05-31T14:22:45Z</time>
      </trkpt>
      <trkpt lat="49.24268" lon="-0.27556">
        <ele>6.5</ele>
        <time>2022-05-31T14:22:46Z</time>
      </trkpt>
      <trkpt lat="49.24268" lon="-0.27556">
        <ele>6.5</ele>
        <time>2022-05-31T14:22:47Z</time>
      </trkpt>
      <trkpt lat="49.24268" lon="-0.27555">
        <ele>6.5</ele>
        <time>2022-05-31T14:22:48Z</time>
      </trkpt>
      <trkpt lat="49.24268" lon="-0.27555">
        <ele>6.5</ele>
        <time>2022-05-31T14:22:49Z</time>
      </trkpt>
      <trkpt lat="49.24269" lon="-0.27553">
        <ele>6.5</ele>
        <time>2022-05-31T14:22:50Z</time>
      </trkpt>
      <trkpt lat="49.2427" lon="-0.27553">
        <ele>6.5</ele>
        <time>2022-05-31T14:22:51Z</time>
      </trkpt>
      <trkpt lat="49.24271" lon="-0.27552">
        <ele>6.5</ele>
        <time>2022-05-31T14:22:52Z</time>
      </trkpt>
      <trkpt lat="49.24271" lon="-0.27554">
        <ele>6.5</ele>
        <time>2022-05-31T14:22:54Z</time>
      </trkpt>
      <trkpt lat="49.24271" lon="-0.27556">
        <ele>6.5</ele>
        <time>2022-05-31T14:22:55Z</time>
      </trkpt>
      <trkpt lat="49.2427" lon="-0.27557">
        <ele>6.5</ele>
        <time>2022-05-31T14:22:56Z</time>
      </trkpt>
      <trkpt lat="49.24271" lon="-0.27557">
        <ele>6.5</ele>
        <time>2022-05-31T14:22:57Z</time>
      </trkpt>
      <trkpt lat="49.24271" lon="-0.27556">
        <ele>6.5</ele>
        <time>2022-05-31T14:22:59Z</time>
      </trkpt>
      <trkpt lat="49.24271" lon="-0.27556">
        <ele>6.5</ele>
        <time>2022-05-31T14:23:00Z</time>
      </trkpt>
      <trkpt lat="49.24271" lon="-0.27555">
        <ele>6.5</ele>
        <time>2022-05-31T14:23:01Z</time>
      </trkpt>
      <trkpt lat="49.24271" lon="-0.27555">
        <ele>6.5</ele>
        <time>2022-05-31T14:23:02Z</time>
      </trkpt>
      <trkpt lat="49.2427" lon="-0.27555">
        <ele>6.5</ele>
        <time>2022-05-31T14:23:04Z</time>
      </trkpt>
      <trkpt lat="49.2427" lon="-0.27554">
        <ele>6.5</ele>
        <time>2022-05-31T14:23:05Z</time>
      </trkpt>
      <trkpt lat="49.2427" lon="-0.27554">
        <ele>6.5</ele>
        <time>2022-05-31T14:23:06Z</time>
      </trkpt>
      <trkpt lat="49.2427" lon="-0.27554">
        <ele>6.5</ele>
        <time>2022-05-31T14:23:07Z</time>
      </trkpt>
      <trkpt lat="49.2427" lon="-0.27554">
        <ele>6.5</ele>
        <time>2022-05-31T14:23:08Z</time>
      </trkpt>
      <trkpt lat="49.24269" lon="-0.27554">
        <ele>6.5</ele>
        <time>2022-05-31T14:23:09Z</time>
      </trkpt>
      <trkpt lat="49.24269" lon="-0.27554">
        <ele>6.5</ele>
        <time>2022-05-31T14:23:10Z</time>
      </trkpt>
      <trkpt lat="49.24269" lon="-0.27554">
        <ele>6.5</ele>
        <time>2022-05-31T14:23:11Z</time>
      </trkpt>
      <trkpt lat="49.24269" lon="-0.27554">
        <ele>6.5</ele>
        <time>2022-05-31T14:23:12Z</time>
      </trkpt>
      <trkpt lat="49.2427" lon="-0.27553">
        <ele>6.5</ele>
        <time>2022-05-31T14:23:14Z</time>
      </trkpt>
      <trkpt lat="49.2427" lon="-0.27552">
        <ele>6.5</ele>
        <time>2022-05-31T14:23:15Z</time>
      </trkpt>
      <trkpt lat="49.24271" lon="-0.27553">
        <ele>6.5</ele>
        <time>2022-05-31T14:23:16Z</time>
      </trkpt>
      <trkpt lat="49.24271" lon="-0.27554">
        <ele>6.5</ele>
        <time>2022-05-31T14:23:17Z</time>
      </trkpt>
      <trkpt lat="49.24272" lon="-0.27554">
        <ele>6.5</ele>
        <time>2022-05-31T14:23:18Z</time>
      </trkpt>
      <trkpt lat="49.24271" lon="-0.27553">
        <ele>6.5</ele>
        <time>2022-05-31T14:23:19Z</time>
      </trkpt>
      <trkpt lat="49.24272" lon="-0.27551">
        <ele>6.5</ele>
        <time>2022-05-31T14:23:20Z</time>
      </trkpt>
      <trkpt lat="49.24272" lon="-0.27551">
        <ele>6.5</ele>
        <time>2022-05-31T14:23:22Z</time>
      </trkpt>
      <trkpt lat="49.24272" lon="-0.27549">
        <ele>6.5</ele>
        <time>2022-05-31T14:23:23Z</time>
      </trkpt>
      <trkpt lat="49.24272" lon="-0.27546">
        <ele>6.5</ele>
        <time>2022-05-31T14:23:24Z</time>
      </trkpt>
      <trkpt lat="49.24272" lon="-0.27545">
        <ele>6.5</ele>
        <time>2022-05-31T14:23:25Z</time>
      </trkpt>
      <trkpt lat="49.24272" lon="-0.27543">
        <ele>6.5</ele>
        <time>2022-05-31T14:23:26Z</time>
      </trkpt>
      <trkpt lat="49.24272" lon="-0.2754">
        <ele>6.4</ele>
        <time>2022-05-31T14:23:28Z</time>
      </trkpt>
      <trkpt lat="49.24271" lon="-0.27539">
        <ele>6.4</ele>
        <time>2022-05-31T14:23:29Z</time>
      </trkpt>
      <trkpt lat="49.24271" lon="-0.27538">
        <ele>6.4</ele>
        <time>2022-05-31T14:23:30Z</time>
      </trkpt>
      <trkpt lat="49.2427" lon="-0.27534">
        <ele>6.4</ele>
        <time>2022-05-31T14:23:31Z</time>
      </trkpt>
      <trkpt lat="49.24269" lon="-0.27532">
        <ele>6.4</ele>
        <time>2022-05-31T14:23:32Z</time>
      </trkpt>
      <trkpt lat="49.24267" lon="-0.27528">
        <ele>6.3</ele>
        <time>2022-05-31T14:23:34Z</time>
      </trkpt>
      <trkpt lat="49.24266" lon="-0.27527">
        <ele>6.3</ele>
        <time>2022-05-31T14:23:35Z</time>
      </trkpt>
      <trkpt lat="49.24266" lon="-0.27525">
        <ele>6.3</ele>
        <time>2022-05-31T14:23:36Z</time>
      </trkpt>
      <trkpt lat="49.24266" lon="-0.27523">
        <ele>6.3</ele>
        <time>2022-05-31T14:23:37Z</time>
      </trkpt>
      <trkpt lat="49.24266" lon="-0.2752">
        <ele>6.3</ele>
        <time>2022-05-31T14:23:38Z</time>
      </trkpt>
      <trkpt lat="49.24266" lon="-0.27518">
        <ele>6.2</ele>
        <time>2022-05-31T14:23:40Z</time>
      </trkpt>
      <trkpt lat="49.24267" lon="-0.27517">
        <ele>6.2</ele>
        <time>2022-05-31T14:23:41Z</time>
      </trkpt>
      <trkpt lat="49.24267" lon="-0.27517">
        <ele>6.2</ele>
        <time>2022-05-31T14:23:42Z</time>
      </trkpt>
      <trkpt lat="49.24268" lon="-0.27516">
        <ele>6.2</ele>
        <time>2022-05-31T14:23:43Z</time>
      </trkpt>
      <trkpt lat="49.24268" lon="-0.27516">
        <ele>6.2</ele>
        <time>2022-05-31T14:23:44Z</time>
      </trkpt>
      <trkpt lat="49.24268" lon="-0.27516">
        <ele>6.2</ele>
        <time>2022-05-31T14:23:45Z</time>
      </trkpt>
      <trkpt lat="49.24267" lon="-0.27516">
        <ele>6.2</ele>
        <time>2022-05-31T14:23:46Z</time>
      </trkpt>
      <trkpt lat="49.24267" lon="-0.27517">
        <ele>6.2</ele>
        <time>2022-05-31T14:23:48Z</time>
      </trkpt>
      <trkpt lat="49.24266" lon="-0.27517">
        <ele>6.2</ele>
        <time>2022-05-31T14:23:49Z</time>
      </trkpt>
      <trkpt lat="49.24266" lon="-0.27517">
        <ele>6.2</ele>
        <time>2022-05-31T14:23:50Z</time>
      </trkpt>
      <trkpt lat="49.24265" lon="-0.27517">
        <ele>6.2</ele>
        <time>2022-05-31T14:23:51Z</time>
      </trkpt>
      <trkpt lat="49.24265" lon="-0.27516">
        <ele>6.2</ele>
        <time>2022-05-31T14:23:52Z</time>
      </trkpt>
      <trkpt lat="49.24265" lon="-0.27516">
        <ele>6.2</ele>
        <time>2022-05-31T14:23:53Z</time>
      </trkpt>
      <trkpt lat="49.24265" lon="-0.27516">
        <ele>6.2</ele>
        <time>2022-05-31T14:23:54Z</time>
      </trkpt>
      <trkpt lat="49.24265" lon="-0.27516">
        <ele>6.2</ele>
        <time>2022-05-31T14:23:55Z</time>
      </trkpt>
      <trkpt lat="49.24265" lon="-0.27516">
        <ele>6.2</ele>
        <time>2022-05-31T14:23:56Z</time>
      </trkpt>
      <trkpt lat="49.24264" lon="-0.27516">
        <ele>6.2</ele>
        <time>2022-05-31T14:23:58Z</time>
      </trkpt>
      <trkpt lat="49.24264" lon="-0.27515">
        <ele>6.2</ele>
        <time>2022-05-31T14:23:59Z</time>
      </trkpt>
      <trkpt lat="49.24263" lon="-0.27515">
        <ele>6.2</ele>
        <time>2022-05-31T14:24:00Z</time>
      </trkpt>
      <trkpt lat="49.24263" lon="-0.27515">
        <ele>6.2</ele>
        <time>2022-05-31T14:24:01Z</time>
      </trkpt>
      <trkpt lat="49.24263" lon="-0.27514">
        <ele>6.2</ele>
        <time>2022-05-31T14:24:03Z</time>
      </trkpt>
      <trkpt lat="49.24263" lon="-0.27514">
        <ele>6.2</ele>
        <time>2022-05-31T14:24:04Z</time>
      </trkpt>
      <trkpt lat="49.24262" lon="-0.27514">
        <ele>6.2</ele>
        <time>2022-05-31T14:24:05Z</time>
      </trkpt>
      <trkpt lat="49.24262" lon="-0.27514">
        <ele>6.2</ele>
        <time>2022-05-31T14:24:07Z</time>
      </trkpt>
      <trkpt lat="49.24262" lon="-0.27513">
        <ele>6.2</ele>
        <time>2022-05-31T14:24:08Z</time>
      </trkpt>
      <trkpt lat="49.24262" lon="-0.27513">
        <ele>6.1</ele>
        <time>2022-05-31T14:24:09Z</time>
      </trkpt>
      <trkpt lat="49.24262" lon="-0.27513">
        <ele>6.1</ele>
        <time>2022-05-31T14:24:10Z</time>
      </trkpt>
      <trkpt lat="49.24262" lon="-0.27512">
        <ele>6.1</ele>
        <time>2022-05-31T14:24:11Z</time>
      </trkpt>
      <trkpt lat="49.24262" lon="-0.27512">
        <ele>6.1</ele>
        <time>2022-05-31T14:24:12Z</time>
      </trkpt>
      <trkpt lat="49.24261" lon="-0.27512">
        <ele>6.1</ele>
        <time>2022-05-31T14:24:13Z</time>
      </trkpt>
      <trkpt lat="49.24261" lon="-0.27512">
        <ele>6.1</ele>
        <time>2022-05-31T14:24:14Z</time>
      </trkpt>
      <trkpt lat="49.24261" lon="-0.27511">
        <ele>6.1</ele>
        <time>2022-05-31T14:24:15Z</time>
      </trkpt>
      <trkpt lat="49.24261" lon="-0.2751">
        <ele>6.1</ele>
        <time>2022-05-31T14:24:16Z</time>
      </trkpt>
      <trkpt lat="49.2426" lon="-0.27508">
        <ele>6.1</ele>
        <time>2022-05-31T14:24:17Z</time>
      </trkpt>
      <trkpt lat="49.24259" lon="-0.27507">
        <ele>6.1</ele>
        <time>2022-05-31T14:24:19Z</time>
      </trkpt>
      <trkpt lat="49.24259" lon="-0.27505">
        <ele>6.1</ele>
        <time>2022-05-31T14:24:20Z</time>
      </trkpt>
      <trkpt lat="49.24258" lon="-0.27504">
        <ele>6.1</ele>
        <time>2022-05-31T14:24:21Z</time>
      </trkpt>
      <trkpt lat="49.24259" lon="-0.27502">
        <ele>6.1</ele>
        <time>2022-05-31T14:24:22Z</time>
      </trkpt>
      <trkpt lat="49.24259" lon="-0.275">
        <ele>6.1</ele>
        <time>2022-05-31T14:24:23Z</time>
      </trkpt>
      <trkpt lat="49.24259" lon="-0.27499">
        <ele>6.1</ele>
        <time>2022-05-31T14:24:24Z</time>
      </trkpt>
      <trkpt lat="49.24258" lon="-0.27497">
        <ele>6.1</ele>
        <time>2022-05-31T14:24:25Z</time>
      </trkpt>
      <trkpt lat="49.24258" lon="-0.27495">
        <ele>6</ele>
        <time>2022-05-31T14:24:26Z</time>
      </trkpt>
      <trkpt lat="49.24258" lon="-0.27494">
        <ele>6</ele>
        <time>2022-05-31T14:24:27Z</time>
      </trkpt>
      <trkpt lat="49.24258" lon="-0.27493">
        <ele>6</ele>
        <time>2022-05-31T14:24:28Z</time>
      </trkpt>
      <trkpt lat="49.24257" lon="-0.27493">
        <ele>6</ele>
        <time>2022-05-31T14:24:30Z</time>
      </trkpt>
      <trkpt lat="49.24257" lon="-0.27493">
        <ele>6</ele>
        <time>2022-05-31T14:24:31Z</time>
      </trkpt>
      <trkpt lat="49.24257" lon="-0.27493">
        <ele>6</ele>
        <time>2022-05-31T14:24:32Z</time>
      </trkpt>
      <trkpt lat="49.24257" lon="-0.27493">
        <ele>6</ele>
        <time>2022-05-31T14:24:33Z</time>
      </trkpt>
      <trkpt lat="49.24257" lon="-0.27493">
        <ele>6</ele>
        <time>2022-05-31T14:24:34Z</time>
      </trkpt>
      <trkpt lat="49.24258" lon="-0.27493">
        <ele>6</ele>
        <time>2022-05-31T14:24:35Z</time>
      </trkpt>
      <trkpt lat="49.24257" lon="-0.27492">
        <ele>6</ele>
        <time>2022-05-31T14:24:36Z</time>
      </trkpt>
      <trkpt lat="49.24257" lon="-0.27491">
        <ele>6</ele>
        <time>2022-05-31T14:24:37Z</time>
      </trkpt>
      <trkpt lat="49.24257" lon="-0.27489">
        <ele>6</ele>
        <time>2022-05-31T14:24:38Z</time>
      </trkpt>
      <trkpt lat="49.24256" lon="-0.27487">
        <ele>6</ele>
        <time>2022-05-31T14:24:40Z</time>
      </trkpt>
      <trkpt lat="49.24255" lon="-0.27484">
        <ele>6</ele>
        <time>2022-05-31T14:24:41Z</time>
      </trkpt>
      <trkpt lat="49.24255" lon="-0.27483">
        <ele>6</ele>
        <time>2022-05-31T14:24:42Z</time>
      </trkpt>
      <trkpt lat="49.24254" lon="-0.27482">
        <ele>6</ele>
        <time>2022-05-31T14:24:43Z</time>
      </trkpt>
      <trkpt lat="49.24254" lon="-0.2748">
        <ele>6</ele>
        <time>2022-05-31T14:24:44Z</time>
      </trkpt>
      <trkpt lat="49.24253" lon="-0.27479">
        <ele>6</ele>
        <time>2022-05-31T14:24:46Z</time>
      </trkpt>
      <trkpt lat="49.24253" lon="-0.27478">
        <ele>6</ele>
        <time>2022-05-31T14:24:47Z</time>
      </trkpt>
      <trkpt lat="49.24253" lon="-0.27476">
        <ele>6</ele>
        <time>2022-05-31T14:24:48Z</time>
      </trkpt>
      <trkpt lat="49.24252" lon="-0.27474">
        <ele>6</ele>
        <time>2022-05-31T14:24:49Z</time>
      </trkpt>
      <trkpt lat="49.24252" lon="-0.27472">
        <ele>6</ele>
        <time>2022-05-31T14:24:51Z</time>
      </trkpt>
      <trkpt lat="49.24252" lon="-0.27471">
        <ele>6</ele>
        <time>2022-05-31T14:24:52Z</time>
      </trkpt>
      <trkpt lat="49.24251" lon="-0.27469">
        <ele>6</ele>
        <time>2022-05-31T14:24:53Z</time>
      </trkpt>
      <trkpt lat="49.24251" lon="-0.27468">
        <ele>6</ele>
        <time>2022-05-31T14:24:54Z</time>
      </trkpt>
      <trkpt lat="49.24251" lon="-0.27466">
        <ele>6</ele>
        <time>2022-05-31T14:24:56Z</time>
      </trkpt>
      <trkpt lat="49.24252" lon="-0.27465">
        <ele>6</ele>
        <time>2022-05-31T14:24:57Z</time>
      </trkpt>
      <trkpt lat="49.24252" lon="-0.27465">
        <ele>6</ele>
        <time>2022-05-31T14:24:58Z</time>
      </trkpt>
      <trkpt lat="49.24252" lon="-0.27465">
        <ele>6</ele>
        <time>2022-05-31T14:24:59Z</time>
      </trkpt>
      <trkpt lat="49.24252" lon="-0.27465">
        <ele>6</ele>
        <time>2022-05-31T14:25:00Z</time>
      </trkpt>
      <trkpt lat="49.24252" lon="-0.27465">
        <ele>6</ele>
        <time>2022-05-31T14:25:01Z</time>
      </trkpt>
      <trkpt lat="49.24252" lon="-0.27466">
        <ele>6</ele>
        <time>2022-05-31T14:25:02Z</time>
      </trkpt>
      <trkpt lat="49.24252" lon="-0.27466">
        <ele>6</ele>
        <time>2022-05-31T14:25:03Z</time>
      </trkpt>
      <trkpt lat="49.24252" lon="-0.27466">
        <ele>6</ele>
        <time>2022-05-31T14:25:04Z</time>
      </trkpt>
      <trkpt lat="49.24252" lon="-0.27465">
        <ele>6</ele>
        <time>2022-05-31T14:25:05Z</time>
      </trkpt>
      <trkpt lat="49.24252" lon="-0.27465">
        <ele>6</ele>
        <time>2022-05-31T14:25:07Z</time>
      </trkpt>
      <trkpt lat="49.24252" lon="-0.27464">
        <ele>6</ele>
        <time>2022-05-31T14:25:08Z</time>
      </trkpt>
      <trkpt lat="49.24252" lon="-0.27463">
        <ele>6</ele>
        <time>2022-05-31T14:25:09Z</time>
      </trkpt>
      <trkpt lat="49.24252" lon="-0.27461">
        <ele>6</ele>
        <time>2022-05-31T14:25:10Z</time>
      </trkpt>
      <trkpt lat="49.24251" lon="-0.2746">
        <ele>6</ele>
        <time>2022-05-31T14:25:11Z</time>
      </trkpt>
      <trkpt lat="49.24251" lon="-0.27459">
        <ele>6</ele>
        <time>2022-05-31T14:25:13Z</time>
      </trkpt>
      <trkpt lat="49.2425" lon="-0.27458">
        <ele>6</ele>
        <time>2022-05-31T14:25:14Z</time>
      </trkpt>
      <trkpt lat="49.2425" lon="-0.27458">
        <ele>6</ele>
        <time>2022-05-31T14:25:15Z</time>
      </trkpt>
      <trkpt lat="49.24249" lon="-0.27457">
        <ele>6</ele>
        <time>2022-05-31T14:25:16Z</time>
      </trkpt>
      <trkpt lat="49.24249" lon="-0.27456">
        <ele>6</ele>
        <time>2022-05-31T14:25:17Z</time>
      </trkpt>
      <trkpt lat="49.24248" lon="-0.27455">
        <ele>6</ele>
        <time>2022-05-31T14:25:18Z</time>
      </trkpt>
      <trkpt lat="49.24247" lon="-0.27452">
        <ele>6</ele>
        <time>2022-05-31T14:25:19Z</time>
      </trkpt>
      <trkpt lat="49.24247" lon="-0.27451">
        <ele>6</ele>
        <time>2022-05-31T14:25:21Z</time>
      </trkpt>
      <trkpt lat="49.24246" lon="-0.2745">
        <ele>6</ele>
        <time>2022-05-31T14:25:22Z</time>
      </trkpt>
      <trkpt lat="49.24246" lon="-0.2745">
        <ele>6</ele>
        <time>2022-05-31T14:25:23Z</time>
      </trkpt>
      <trkpt lat="49.24245" lon="-0.27448">
        <ele>6</ele>
        <time>2022-05-31T14:25:24Z</time>
      </trkpt>
      <trkpt lat="49.24245" lon="-0.27447">
        <ele>6</ele>
        <time>2022-05-31T14:25:25Z</time>
      </trkpt>
      <trkpt lat="49.24245" lon="-0.27445">
        <ele>6</ele>
        <time>2022-05-31T14:25:26Z</time>
      </trkpt>
      <trkpt lat="49.24245" lon="-0.27444">
        <ele>6</ele>
        <time>2022-05-31T14:25:27Z</time>
      </trkpt>
      <trkpt lat="49.24246" lon="-0.27443">
        <ele>6</ele>
        <time>2022-05-31T14:25:28Z</time>
      </trkpt>
      <trkpt lat="49.24246" lon="-0.27443">
        <ele>6</ele>
        <time>2022-05-31T14:25:29Z</time>
      </trkpt>
      <trkpt lat="49.24247" lon="-0.27442">
        <ele>6</ele>
        <time>2022-05-31T14:25:31Z</time>
      </trkpt>
      <trkpt lat="49.24246" lon="-0.27442">
        <ele>6</ele>
        <time>2022-05-31T14:25:32Z</time>
      </trkpt>
      <trkpt lat="49.24246" lon="-0.27441">
        <ele>6</ele>
        <time>2022-05-31T14:25:33Z</time>
      </trkpt>
      <trkpt lat="49.24245" lon="-0.27441">
        <ele>6</ele>
        <time>2022-05-31T14:25:34Z</time>
      </trkpt>
      <trkpt lat="49.24246" lon="-0.27443">
        <ele>6</ele>
        <time>2022-05-31T14:25:35Z</time>
      </trkpt>
      <trkpt lat="49.24246" lon="-0.27443">
        <ele>6</ele>
        <time>2022-05-31T14:25:36Z</time>
      </trkpt>
      <trkpt lat="49.24246" lon="-0.27443">
        <ele>6</ele>
        <time>2022-05-31T14:25:37Z</time>
      </trkpt>
      <trkpt lat="49.24246" lon="-0.27443">
        <ele>6</ele>
        <time>2022-05-31T14:25:39Z</time>
      </trkpt>
      <trkpt lat="49.24246" lon="-0.27442">
        <ele>6</ele>
        <time>2022-05-31T14:25:40Z</time>
      </trkpt>
      <trkpt lat="49.24246" lon="-0.2744">
        <ele>6</ele>
        <time>2022-05-31T14:25:41Z</time>
      </trkpt>
      <trkpt lat="49.24245" lon="-0.27438">
        <ele>6</ele>
        <time>2022-05-31T14:25:42Z</time>
      </trkpt>
      <trkpt lat="49.24244" lon="-0.27434">
        <ele>6</ele>
        <time>2022-05-31T14:25:43Z</time>
      </trkpt>
      <trkpt lat="49.24243" lon="-0.27433">
        <ele>6</ele>
        <time>2022-05-31T14:25:44Z</time>
      </trkpt>
      <trkpt lat="49.24242" lon="-0.27431">
        <ele>6</ele>
        <time>2022-05-31T14:25:45Z</time>
      </trkpt>
      <trkpt lat="49.24241" lon="-0.27429">
        <ele>6</ele>
        <time>2022-05-31T14:25:46Z</time>
      </trkpt>
      <trkpt lat="49.2424" lon="-0.27427">
        <ele>6</ele>
        <time>2022-05-31T14:25:48Z</time>
      </trkpt>
      <trkpt lat="49.24239" lon="-0.27426">
        <ele>6</ele>
        <time>2022-05-31T14:25:49Z</time>
      </trkpt>
      <trkpt lat="49.24239" lon="-0.27425">
        <ele>6</ele>
        <time>2022-05-31T14:25:50Z</time>
      </trkpt>
      <trkpt lat="49.24238" lon="-0.27424">
        <ele>6</ele>
        <time>2022-05-31T14:25:51Z</time>
      </trkpt>
      <trkpt lat="49.24238" lon="-0.27423">
        <ele>6</ele>
        <time>2022-05-31T14:25:52Z</time>
      </trkpt>
      <trkpt lat="49.24237" lon="-0.2742">
        <ele>6</ele>
        <time>2022-05-31T14:25:53Z</time>
      </trkpt>
      <trkpt lat="49.24236" lon="-0.27418">
        <ele>6</ele>
        <time>2022-05-31T14:25:54Z</time>
      </trkpt>
      <trkpt lat="49.24235" lon="-0.27413">
        <ele>6</ele>
        <time>2022-05-31T14:25:55Z</time>
      </trkpt>
      <trkpt lat="49.24234" lon="-0.27412">
        <ele>6</ele>
        <time>2022-05-31T14:25:56Z</time>
      </trkpt>
      <trkpt lat="49.24233" lon="-0.27409">
        <ele>6</ele>
        <time>2022-05-31T14:25:57Z</time>
      </trkpt>
      <trkpt lat="49.24232" lon="-0.27406">
        <ele>6</ele>
        <time>2022-05-31T14:25:59Z</time>
      </trkpt>
      <trkpt lat="49.24231" lon="-0.27404">
        <ele>5.9</ele>
        <time>2022-05-31T14:26:00Z</time>
      </trkpt>
      <trkpt lat="49.2423" lon="-0.27401">
        <ele>5.9</ele>
        <time>2022-05-31T14:26:01Z</time>
      </trkpt>
      <trkpt lat="49.24229" lon="-0.27397">
        <ele>5.9</ele>
        <time>2022-05-31T14:26:02Z</time>
      </trkpt>
      <trkpt lat="49.24229" lon="-0.27395">
        <ele>5.9</ele>
        <time>2022-05-31T14:26:03Z</time>
      </trkpt>
      <trkpt lat="49.24228" lon="-0.27392">
        <ele>5.9</ele>
        <time>2022-05-31T14:26:04Z</time>
      </trkpt>
      <trkpt lat="49.24227" lon="-0.27391">
        <ele>5.9</ele>
        <time>2022-05-31T14:26:06Z</time>
      </trkpt>
      <trkpt lat="49.24227" lon="-0.2739">
        <ele>5.9</ele>
        <time>2022-05-31T14:26:07Z</time>
      </trkpt>
      <trkpt lat="49.24226" lon="-0.27387">
        <ele>5.9</ele>
        <time>2022-05-31T14:26:08Z</time>
      </trkpt>
      <trkpt lat="49.24225" lon="-0.27386">
        <ele>5.9</ele>
        <time>2022-05-31T14:26:09Z</time>
      </trkpt>
      <trkpt lat="49.24225" lon="-0.27385">
        <ele>5.9</ele>
        <time>2022-05-31T14:26:10Z</time>
      </trkpt>
      <trkpt lat="49.24224" lon="-0.27383">
        <ele>5.9</ele>
        <time>2022-05-31T14:26:11Z</time>
      </trkpt>
      <trkpt lat="49.24223" lon="-0.27381">
        <ele>5.9</ele>
        <time>2022-05-31T14:26:12Z</time>
      </trkpt>
      <trkpt lat="49.24222" lon="-0.27379">
        <ele>5.9</ele>
        <time>2022-05-31T14:26:13Z</time>
      </trkpt>
      <trkpt lat="49.24222" lon="-0.27377">
        <ele>5.9</ele>
        <time>2022-05-31T14:26:15Z</time>
      </trkpt>
      <trkpt lat="49.24221" lon="-0.27375">
        <ele>5.8</ele>
        <time>2022-05-31T14:26:16Z</time>
      </trkpt>
      <trkpt lat="49.2422" lon="-0.27373">
        <ele>5.8</ele>
        <time>2022-05-31T14:26:17Z</time>
      </trkpt>
      <trkpt lat="49.2422" lon="-0.27372">
        <ele>5.8</ele>
        <time>2022-05-31T14:26:18Z</time>
      </trkpt>
      <trkpt lat="49.24219" lon="-0.27371">
        <ele>5.8</ele>
        <time>2022-05-31T14:26:19Z</time>
      </trkpt>
      <trkpt lat="49.24218" lon="-0.27369">
        <ele>5.8</ele>
        <time>2022-05-31T14:26:21Z</time>
      </trkpt>
      <trkpt lat="49.24218" lon="-0.27368">
        <ele>5.8</ele>
        <time>2022-05-31T14:26:22Z</time>
      </trkpt>
      <trkpt lat="49.24216" lon="-0.27365">
        <ele>5.8</ele>
        <time>2022-05-31T14:26:23Z</time>
      </trkpt>
      <trkpt lat="49.24215" lon="-0.27364">
        <ele>5.8</ele>
        <time>2022-05-31T14:26:24Z</time>
      </trkpt>
      <trkpt lat="49.24215" lon="-0.27363">
        <ele>5.8</ele>
        <time>2022-05-31T14:26:25Z</time>
      </trkpt>
      <trkpt lat="49.24214" lon="-0.27362">
        <ele>5.8</ele>
        <time>2022-05-31T14:26:27Z</time>
      </trkpt>
      <trkpt lat="49.24214" lon="-0.2736">
        <ele>5.7</ele>
        <time>2022-05-31T14:26:28Z</time>
      </trkpt>
      <trkpt lat="49.24214" lon="-0.27359">
        <ele>5.7</ele>
        <time>2022-05-31T14:26:29Z</time>
      </trkpt>
      <trkpt lat="49.24214" lon="-0.27358">
        <ele>5.7</ele>
        <time>2022-05-31T14:26:30Z</time>
      </trkpt>
      <trkpt lat="49.24214" lon="-0.27357">
        <ele>5.7</ele>
        <time>2022-05-31T14:26:31Z</time>
      </trkpt>
      <trkpt lat="49.24215" lon="-0.27355">
        <ele>5.7</ele>
        <time>2022-05-31T14:26:33Z</time>
      </trkpt>
      <trkpt lat="49.24215" lon="-0.27354">
        <ele>5.7</ele>
        <time>2022-05-31T14:26:34Z</time>
      </trkpt>
      <trkpt lat="49.24215" lon="-0.27353">
        <ele>5.7</ele>
        <time>2022-05-31T14:26:35Z</time>
      </trkpt>
      <trkpt lat="49.24215" lon="-0.27351">
        <ele>5.7</ele>
        <time>2022-05-31T14:26:36Z</time>
      </trkpt>
      <trkpt lat="49.24215" lon="-0.27349">
        <ele>5.7</ele>
        <time>2022-05-31T14:26:37Z</time>
      </trkpt>
      <trkpt lat="49.24214" lon="-0.27348">
        <ele>5.7</ele>
        <time>2022-05-31T14:26:39Z</time>
      </trkpt>
      <trkpt lat="49.24214" lon="-0.27347">
        <ele>5.7</ele>
        <time>2022-05-31T14:26:40Z</time>
      </trkpt>
      <trkpt lat="49.24213" lon="-0.27345">
        <ele>5.7</ele>
        <time>2022-05-31T14:26:41Z</time>
      </trkpt>
      <trkpt lat="49.24213" lon="-0.27344">
        <ele>5.7</ele>
        <time>2022-05-31T14:26:42Z</time>
      </trkpt>
      <trkpt lat="49.24212" lon="-0.27342">
        <ele>5.6</ele>
        <time>2022-05-31T14:26:44Z</time>
      </trkpt>
      <trkpt lat="49.24212" lon="-0.27341">
        <ele>5.6</ele>
        <time>2022-05-31T14:26:45Z</time>
      </trkpt>
      <trkpt lat="49.24212" lon="-0.27341">
        <ele>5.6</ele>
        <time>2022-05-31T14:26:46Z</time>
      </trkpt>
      <trkpt lat="49.24211" lon="-0.2734">
        <ele>5.6</ele>
        <time>2022-05-31T14:26:47Z</time>
      </trkpt>
      <trkpt lat="49.24211" lon="-0.27339">
        <ele>5.6</ele>
        <time>2022-05-31T14:26:48Z</time>
      </trkpt>
      <trkpt lat="49.24211" lon="-0.27339">
        <ele>5.6</ele>
        <time>2022-05-31T14:26:49Z</time>
      </trkpt>
      <trkpt lat="49.24211" lon="-0.27338">
        <ele>5.6</ele>
        <time>2022-05-31T14:26:50Z</time>
      </trkpt>
      <trkpt lat="49.24211" lon="-0.27338">
        <ele>5.6</ele>
        <time>2022-05-31T14:26:52Z</time>
      </trkpt>
      <trkpt lat="49.24211" lon="-0.27337">
        <ele>5.6</ele>
        <time>2022-05-31T14:26:53Z</time>
      </trkpt>
      <trkpt lat="49.2421" lon="-0.27337">
        <ele>5.6</ele>
        <time>2022-05-31T14:26:54Z</time>
      </trkpt>
      <trkpt lat="49.2421" lon="-0.27335">
        <ele>5.6</ele>
        <time>2022-05-31T14:26:55Z</time>
      </trkpt>
      <trkpt lat="49.24209" lon="-0.27333">
        <ele>5.6</ele>
        <time>2022-05-31T14:26:56Z</time>
      </trkpt>
      <trkpt lat="49.24208" lon="-0.27331">
        <ele>5.6</ele>
        <time>2022-05-31T14:26:57Z</time>
      </trkpt>
      <trkpt lat="49.24208" lon="-0.2733">
        <ele>5.6</ele>
        <time>2022-05-31T14:26:58Z</time>
      </trkpt>
      <trkpt lat="49.24207" lon="-0.27328">
        <ele>5.5</ele>
        <time>2022-05-31T14:27:00Z</time>
      </trkpt>
      <trkpt lat="49.24206" lon="-0.27327">
        <ele>5.5</ele>
        <time>2022-05-31T14:27:01Z</time>
      </trkpt>
      <trkpt lat="49.24206" lon="-0.27326">
        <ele>5.5</ele>
        <time>2022-05-31T14:27:02Z</time>
      </trkpt>
      <trkpt lat="49.24205" lon="-0.27324">
        <ele>5.5</ele>
        <time>2022-05-31T14:27:03Z</time>
      </trkpt>
      <trkpt lat="49.24204" lon="-0.27323">
        <ele>5.5</ele>
        <time>2022-05-31T14:27:04Z</time>
      </trkpt>
      <trkpt lat="49.24203" lon="-0.27322">
        <ele>5.5</ele>
        <time>2022-05-31T14:27:05Z</time>
      </trkpt>
      <trkpt lat="49.24203" lon="-0.27322">
        <ele>5.5</ele>
        <time>2022-05-31T14:27:06Z</time>
      </trkpt>
      <trkpt lat="49.24202" lon="-0.27321">
        <ele>5.5</ele>
        <time>2022-05-31T14:27:07Z</time>
      </trkpt>
      <trkpt lat="49.24202" lon="-0.2732">
        <ele>5.5</ele>
        <time>2022-05-31T14:27:08Z</time>
      </trkpt>
      <trkpt lat="49.24201" lon="-0.27319">
        <ele>5.5</ele>
        <time>2022-05-31T14:27:09Z</time>
      </trkpt>
      <trkpt lat="49.242" lon="-0.27317">
        <ele>5.4</ele>
        <time>2022-05-31T14:27:10Z</time>
      </trkpt>
      <trkpt lat="49.24198" lon="-0.27315">
        <ele>5.4</ele>
        <time>2022-05-31T14:27:11Z</time>
      </trkpt>
      <trkpt lat="49.24197" lon="-0.27315">
        <ele>5.4</ele>
        <time>2022-05-31T14:27:13Z</time>
      </trkpt>
      <trkpt lat="49.24196" lon="-0.27314">
        <ele>5.4</ele>
        <time>2022-05-31T14:27:14Z</time>
      </trkpt>
      <trkpt lat="49.24195" lon="-0.27312">
        <ele>5.4</ele>
        <time>2022-05-31T14:27:15Z</time>
      </trkpt>
      <trkpt lat="49.24194" lon="-0.27311">
        <ele>5.4</ele>
        <time>2022-05-31T14:27:16Z</time>
      </trkpt>
      <trkpt lat="49.24194" lon="-0.2731">
        <ele>5.4</ele>
        <time>2022-05-31T14:27:17Z</time>
      </trkpt>
      <trkpt lat="49.24192" lon="-0.27308">
        <ele>5.3</ele>
        <time>2022-05-31T14:27:18Z</time>
      </trkpt>
      <trkpt lat="49.24191" lon="-0.27308">
        <ele>5.3</ele>
        <time>2022-05-31T14:27:19Z</time>
      </trkpt>
      <trkpt lat="49.24191" lon="-0.27307">
        <ele>5.3</ele>
        <time>2022-05-31T14:27:20Z</time>
      </trkpt>
      <trkpt lat="49.2419" lon="-0.27305">
        <ele>5.3</ele>
        <time>2022-05-31T14:27:21Z</time>
      </trkpt>
      <trkpt lat="49.24189" lon="-0.27304">
        <ele>5.3</ele>
        <time>2022-05-31T14:27:22Z</time>
      </trkpt>
      <trkpt lat="49.24188" lon="-0.27302">
        <ele>5.3</ele>
        <time>2022-05-31T14:27:23Z</time>
      </trkpt>
      <trkpt lat="49.24187" lon="-0.27301">
        <ele>5.3</ele>
        <time>2022-05-31T14:27:24Z</time>
      </trkpt>
      <trkpt lat="49.24186" lon="-0.27298">
        <ele>5.3</ele>
        <time>2022-05-31T14:27:26Z</time>
      </trkpt>
      <trkpt lat="49.24185" lon="-0.27297">
        <ele>5.2</ele>
        <time>2022-05-31T14:27:27Z</time>
      </trkpt>
      <trkpt lat="49.24184" lon="-0.27295">
        <ele>5.2</ele>
        <time>2022-05-31T14:27:28Z</time>
      </trkpt>
      <trkpt lat="49.24183" lon="-0.27293">
        <ele>5.2</ele>
        <time>2022-05-31T14:27:29Z</time>
      </trkpt>
      <trkpt lat="49.24182" lon="-0.27291">
        <ele>5.2</ele>
        <time>2022-05-31T14:27:30Z</time>
      </trkpt>
      <trkpt lat="49.24182" lon="-0.27288">
        <ele>5.2</ele>
        <time>2022-05-31T14:27:31Z</time>
      </trkpt>
      <trkpt lat="49.24181" lon="-0.27285">
        <ele>5.2</ele>
        <time>2022-05-31T14:27:32Z</time>
      </trkpt>
      <trkpt lat="49.2418" lon="-0.27284">
        <ele>5.1</ele>
        <time>2022-05-31T14:27:33Z</time>
      </trkpt>
      <trkpt lat="49.2418" lon="-0.27283">
        <ele>5.1</ele>
        <time>2022-05-31T14:27:34Z</time>
      </trkpt>
      <trkpt lat="49.24179" lon="-0.27282">
        <ele>5.1</ele>
        <time>2022-05-31T14:27:35Z</time>
      </trkpt>
      <trkpt lat="49.24179" lon="-0.2728">
        <ele>5.1</ele>
        <time>2022-05-31T14:27:36Z</time>
      </trkpt>
      <trkpt lat="49.24179" lon="-0.27279">
        <ele>5.1</ele>
        <time>2022-05-31T14:27:37Z</time>
      </trkpt>
      <trkpt lat="49.24179" lon="-0.27277">
        <ele>5.1</ele>
        <time>2022-05-31T14:27:38Z</time>
      </trkpt>
      <trkpt lat="49.24178" lon="-0.27276">
        <ele>5.1</ele>
        <time>2022-05-31T14:27:40Z</time>
      </trkpt>
      <trkpt lat="49.24178" lon="-0.27274">
        <ele>5.1</ele>
        <time>2022-05-31T14:27:41Z</time>
      </trkpt>
      <trkpt lat="49.24177" lon="-0.27271">
        <ele>5.1</ele>
        <time>2022-05-31T14:27:42Z</time>
      </trkpt>
      <trkpt lat="49.24177" lon="-0.2727">
        <ele>5</ele>
        <time>2022-05-31T14:27:43Z</time>
      </trkpt>
      <trkpt lat="49.24177" lon="-0.27268">
        <ele>5</ele>
        <time>2022-05-31T14:27:44Z</time>
      </trkpt>
      <trkpt lat="49.24176" lon="-0.27267">
        <ele>5</ele>
        <time>2022-05-31T14:27:45Z</time>
      </trkpt>
      <trkpt lat="49.24176" lon="-0.27265">
        <ele>5</ele>
        <time>2022-05-31T14:27:46Z</time>
      </trkpt>
      <trkpt lat="49.24175" lon="-0.27264">
        <ele>4.9</ele>
        <time>2022-05-31T14:27:47Z</time>
      </trkpt>
      <trkpt lat="49.24174" lon="-0.27262">
        <ele>4.9</ele>
        <time>2022-05-31T14:27:48Z</time>
      </trkpt>
      <trkpt lat="49.24174" lon="-0.27261">
        <ele>4.9</ele>
        <time>2022-05-31T14:27:49Z</time>
      </trkpt>
      <trkpt lat="49.24173" lon="-0.27259">
        <ele>4.9</ele>
        <time>2022-05-31T14:27:51Z</time>
      </trkpt>
      <trkpt lat="49.24172" lon="-0.27257">
        <ele>4.8</ele>
        <time>2022-05-31T14:27:52Z</time>
      </trkpt>
      <trkpt lat="49.24171" lon="-0.27255">
        <ele>4.8</ele>
        <time>2022-05-31T14:27:53Z</time>
      </trkpt>
      <trkpt lat="49.2417" lon="-0.27253">
        <ele>4.8</ele>
        <time>2022-05-31T14:27:54Z</time>
      </trkpt>
      <trkpt lat="49.24169" lon="-0.27252">
        <ele>4.8</ele>
        <time>2022-05-31T14:27:55Z</time>
      </trkpt>
      <trkpt lat="49.24169" lon="-0.27251">
        <ele>4.8</ele>
        <time>2022-05-31T14:27:56Z</time>
      </trkpt>
      <trkpt lat="49.24168" lon="-0.27249">
        <ele>4.7</ele>
        <time>2022-05-31T14:27:57Z</time>
      </trkpt>
      <trkpt lat="49.24167" lon="-0.27247">
        <ele>4.7</ele>
        <time>2022-05-31T14:27:59Z</time>
      </trkpt>
      <trkpt lat="49.24167" lon="-0.27245">
        <ele>4.7</ele>
        <time>2022-05-31T14:28:00Z</time>
      </trkpt>
      <trkpt lat="49.24167" lon="-0.27244">
        <ele>4.7</ele>
        <time>2022-05-31T14:28:01Z</time>
      </trkpt>
      <trkpt lat="49.24166" lon="-0.27242">
        <ele>4.7</ele>
        <time>2022-05-31T14:28:02Z</time>
      </trkpt>
      <trkpt lat="49.24165" lon="-0.27239">
        <ele>4.7</ele>
        <time>2022-05-31T14:28:03Z</time>
      </trkpt>
      <trkpt lat="49.24165" lon="-0.27238">
        <ele>4.7</ele>
        <time>2022-05-31T14:28:04Z</time>
      </trkpt>
      <trkpt lat="49.24165" lon="-0.27237">
        <ele>4.6</ele>
        <time>2022-05-31T14:28:05Z</time>
      </trkpt>
      <trkpt lat="49.24164" lon="-0.27234">
        <ele>4.6</ele>
        <time>2022-05-31T14:28:07Z</time>
      </trkpt>
      <trkpt lat="49.24163" lon="-0.27232">
        <ele>4.6</ele>
        <time>2022-05-31T14:28:08Z</time>
      </trkpt>
      <trkpt lat="49.24162" lon="-0.27231">
        <ele>4.6</ele>
        <time>2022-05-31T14:28:09Z</time>
      </trkpt>
      <trkpt lat="49.24162" lon="-0.27229">
        <ele>4.6</ele>
        <time>2022-05-31T14:28:11Z</time>
      </trkpt>
      <trkpt lat="49.24163" lon="-0.27227">
        <ele>4.6</ele>
        <time>2022-05-31T14:28:12Z</time>
      </trkpt>
      <trkpt lat="49.24163" lon="-0.27226">
        <ele>4.5</ele>
        <time>2022-05-31T14:28:13Z</time>
      </trkpt>
      <trkpt lat="49.24162" lon="-0.27225">
        <ele>4.5</ele>
        <time>2022-05-31T14:28:14Z</time>
      </trkpt>
      <trkpt lat="49.24162" lon="-0.27224">
        <ele>4.5</ele>
        <time>2022-05-31T14:28:15Z</time>
      </trkpt>
      <trkpt lat="49.24161" lon="-0.27222">
        <ele>4.5</ele>
        <time>2022-05-31T14:28:16Z</time>
      </trkpt>
      <trkpt lat="49.24159" lon="-0.27221">
        <ele>4.5</ele>
        <time>2022-05-31T14:28:18Z</time>
      </trkpt>
      <trkpt lat="49.24158" lon="-0.27219">
        <ele>4.5</ele>
        <time>2022-05-31T14:28:19Z</time>
      </trkpt>
      <trkpt lat="49.24157" lon="-0.27217">
        <ele>4.4</ele>
        <time>2022-05-31T14:28:20Z</time>
      </trkpt>
      <trkpt lat="49.24156" lon="-0.27215">
        <ele>4.4</ele>
        <time>2022-05-31T14:28:21Z</time>
      </trkpt>
      <trkpt lat="49.24155" lon="-0.27214">
        <ele>4.4</ele>
        <time>2022-05-31T14:28:22Z</time>
      </trkpt>
      <trkpt lat="49.24155" lon="-0.27213">
        <ele>4.4</ele>
        <time>2022-05-31T14:28:23Z</time>
      </trkpt>
      <trkpt lat="49.24154" lon="-0.27211">
        <ele>4.4</ele>
        <time>2022-05-31T14:28:24Z</time>
      </trkpt>
      <trkpt lat="49.24154" lon="-0.2721">
        <ele>4.4</ele>
        <time>2022-05-31T14:28:25Z</time>
      </trkpt>
      <trkpt lat="49.24153" lon="-0.27208">
        <ele>4.4</ele>
        <time>2022-05-31T14:28:26Z</time>
      </trkpt>
      <trkpt lat="49.24152" lon="-0.27204">
        <ele>4.3</ele>
        <time>2022-05-31T14:28:27Z</time>
      </trkpt>
      <trkpt lat="49.24152" lon="-0.27203">
        <ele>4.3</ele>
        <time>2022-05-31T14:28:29Z</time>
      </trkpt>
      <trkpt lat="49.24151" lon="-0.27201">
        <ele>4.3</ele>
        <time>2022-05-31T14:28:30Z</time>
      </trkpt>
      <trkpt lat="49.24151" lon="-0.272">
        <ele>4.3</ele>
        <time>2022-05-31T14:28:31Z</time>
      </trkpt>
      <trkpt lat="49.2415" lon="-0.27199">
        <ele>4.3</ele>
        <time>2022-05-31T14:28:32Z</time>
      </trkpt>
      <trkpt lat="49.24149" lon="-0.27195">
        <ele>4.2</ele>
        <time>2022-05-31T14:28:33Z</time>
      </trkpt>
      <trkpt lat="49.24149" lon="-0.27194">
        <ele>4.2</ele>
        <time>2022-05-31T14:28:34Z</time>
      </trkpt>
      <trkpt lat="49.24148" lon="-0.27192">
        <ele>4.2</ele>
        <time>2022-05-31T14:28:35Z</time>
      </trkpt>
      <trkpt lat="49.24148" lon="-0.27191">
        <ele>4.2</ele>
        <time>2022-05-31T14:28:36Z</time>
      </trkpt>
      <trkpt lat="49.24147" lon="-0.27189">
        <ele>4.2</ele>
        <time>2022-05-31T14:28:37Z</time>
      </trkpt>
      <trkpt lat="49.24147" lon="-0.27187">
        <ele>4.2</ele>
        <time>2022-05-31T14:28:38Z</time>
      </trkpt>
      <trkpt lat="49.24147" lon="-0.27186">
        <ele>4.2</ele>
        <time>2022-05-31T14:28:39Z</time>
      </trkpt>
      <trkpt lat="49.24146" lon="-0.27184">
        <ele>4.2</ele>
        <time>2022-05-31T14:28:40Z</time>
      </trkpt>
      <trkpt lat="49.24146" lon="-0.27183">
        <ele>4.2</ele>
        <time>2022-05-31T14:28:41Z</time>
      </trkpt>
      <trkpt lat="49.24145" lon="-0.27181">
        <ele>4.2</ele>
        <time>2022-05-31T14:28:42Z</time>
      </trkpt>
      <trkpt lat="49.24145" lon="-0.27179">
        <ele>4.2</ele>
        <time>2022-05-31T14:28:43Z</time>
      </trkpt>
      <trkpt lat="49.24145" lon="-0.27177">
        <ele>4.1</ele>
        <time>2022-05-31T14:28:45Z</time>
      </trkpt>
      <trkpt lat="49.24144" lon="-0.27175">
        <ele>4.1</ele>
        <time>2022-05-31T14:28:46Z</time>
      </trkpt>
      <trkpt lat="49.24144" lon="-0.27173">
        <ele>4.1</ele>
        <time>2022-05-31T14:28:47Z</time>
      </trkpt>
      <trkpt lat="49.24143" lon="-0.27172">
        <ele>4.1</ele>
        <time>2022-05-31T14:28:48Z</time>
      </trkpt>
      <trkpt lat="49.24143" lon="-0.27169">
        <ele>4.1</ele>
        <time>2022-05-31T14:28:49Z</time>
      </trkpt>
      <trkpt lat="49.24143" lon="-0.27168">
        <ele>4.1</ele>
        <time>2022-05-31T14:28:50Z</time>
      </trkpt>
      <trkpt lat="49.24143" lon="-0.27166">
        <ele>4.1</ele>
        <time>2022-05-31T14:28:51Z</time>
      </trkpt>
      <trkpt lat="49.24142" lon="-0.27164">
        <ele>4.1</ele>
        <time>2022-05-31T14:28:52Z</time>
      </trkpt>
      <trkpt lat="49.24141" lon="-0.27161">
        <ele>4.1</ele>
        <time>2022-05-31T14:28:54Z</time>
      </trkpt>
      <trkpt lat="49.24141" lon="-0.2716">
        <ele>4.1</ele>
        <time>2022-05-31T14:28:55Z</time>
      </trkpt>
      <trkpt lat="49.24141" lon="-0.27158">
        <ele>4</ele>
        <time>2022-05-31T14:28:56Z</time>
      </trkpt>
      <trkpt lat="49.24141" lon="-0.27157">
        <ele>4</ele>
        <time>2022-05-31T14:28:57Z</time>
      </trkpt>
      <trkpt lat="49.2414" lon="-0.27155">
        <ele>4</ele>
        <time>2022-05-31T14:28:58Z</time>
      </trkpt>
      <trkpt lat="49.2414" lon="-0.27154">
        <ele>4</ele>
        <time>2022-05-31T14:28:59Z</time>
      </trkpt>
      <trkpt lat="49.24139" lon="-0.27152">
        <ele>4</ele>
        <time>2022-05-31T14:29:00Z</time>
      </trkpt>
      <trkpt lat="49.24138" lon="-0.27151">
        <ele>4</ele>
        <time>2022-05-31T14:29:01Z</time>
      </trkpt>
      <trkpt lat="49.24138" lon="-0.27149">
        <ele>4</ele>
        <time>2022-05-31T14:29:02Z</time>
      </trkpt>
      <trkpt lat="49.24137" lon="-0.27147">
        <ele>4</ele>
        <time>2022-05-31T14:29:04Z</time>
      </trkpt>
      <trkpt lat="49.24137" lon="-0.27145">
        <ele>4</ele>
        <time>2022-05-31T14:29:05Z</time>
      </trkpt>
      <trkpt lat="49.24136" lon="-0.27143">
        <ele>4</ele>
        <time>2022-05-31T14:29:06Z</time>
      </trkpt>
      <trkpt lat="49.24136" lon="-0.2714">
        <ele>4</ele>
        <time>2022-05-31T14:29:07Z</time>
      </trkpt>
      <trkpt lat="49.24135" lon="-0.27137">
        <ele>3.9</ele>
        <time>2022-05-31T14:29:08Z</time>
      </trkpt>
      <trkpt lat="49.24134" lon="-0.27135">
        <ele>3.9</ele>
        <time>2022-05-31T14:29:10Z</time>
      </trkpt>
      <trkpt lat="49.24134" lon="-0.27133">
        <ele>3.9</ele>
        <time>2022-05-31T14:29:11Z</time>
      </trkpt>
      <trkpt lat="49.24133" lon="-0.27131">
        <ele>3.9</ele>
        <time>2022-05-31T14:29:12Z</time>
      </trkpt>
      <trkpt lat="49.24132" lon="-0.27128">
        <ele>3.9</ele>
        <time>2022-05-31T14:29:13Z</time>
      </trkpt>
      <trkpt lat="49.24132" lon="-0.27126">
        <ele>3.9</ele>
        <time>2022-05-31T14:29:14Z</time>
      </trkpt>
      <trkpt lat="49.24131" lon="-0.27123">
        <ele>3.9</ele>
        <time>2022-05-31T14:29:15Z</time>
      </trkpt>
      <trkpt lat="49.2413" lon="-0.2712">
        <ele>3.9</ele>
        <time>2022-05-31T14:29:17Z</time>
      </trkpt>
      <trkpt lat="49.2413" lon="-0.27117">
        <ele>3.9</ele>
        <time>2022-05-31T14:29:18Z</time>
      </trkpt>
      <trkpt lat="49.2413" lon="-0.27116">
        <ele>3.9</ele>
        <time>2022-05-31T14:29:19Z</time>
      </trkpt>
      <trkpt lat="49.24129" lon="-0.27115">
        <ele>3.9</ele>
        <time>2022-05-31T14:29:20Z</time>
      </trkpt>
      <trkpt lat="49.24129" lon="-0.27113">
        <ele>3.9</ele>
        <time>2022-05-31T14:29:21Z</time>
      </trkpt>
      <trkpt lat="49.24128" lon="-0.2711">
        <ele>3.9</ele>
        <time>2022-05-31T14:29:22Z</time>
      </trkpt>
      <trkpt lat="49.24127" lon="-0.27106">
        <ele>3.9</ele>
        <time>2022-05-31T14:29:23Z</time>
      </trkpt>
      <trkpt lat="49.24127" lon="-0.27105">
        <ele>3.9</ele>
        <time>2022-05-31T14:29:24Z</time>
      </trkpt>
      <trkpt lat="49.24127" lon="-0.27102">
        <ele>3.9</ele>
        <time>2022-05-31T14:29:26Z</time>
      </trkpt>
      <trkpt lat="49.24126" lon="-0.271">
        <ele>3.9</ele>
        <time>2022-05-31T14:29:27Z</time>
      </trkpt>
      <trkpt lat="49.24126" lon="-0.27098">
        <ele>3.9</ele>
        <time>2022-05-31T14:29:28Z</time>
      </trkpt>
      <trkpt lat="49.24125" lon="-0.27096">
        <ele>3.9</ele>
        <time>2022-05-31T14:29:29Z</time>
      </trkpt>
      <trkpt lat="49.24125" lon="-0.27093">
        <ele>3.9</ele>
        <time>2022-05-31T14:29:30Z</time>
      </trkpt>
      <trkpt lat="49.24124" lon="-0.27091">
        <ele>3.9</ele>
        <time>2022-05-31T14:29:31Z</time>
      </trkpt>
      <trkpt lat="49.24124" lon="-0.27089">
        <ele>3.9</ele>
        <time>2022-05-31T14:29:32Z</time>
      </trkpt>
      <trkpt lat="49.24123" lon="-0.27086">
        <ele>3.9</ele>
        <time>2022-05-31T14:29:34Z</time>
      </trkpt>
      <trkpt lat="49.24122" lon="-0.27083">
        <ele>4</ele>
        <time>2022-05-31T14:29:35Z</time>
      </trkpt>
      <trkpt lat="49.24122" lon="-0.27082">
        <ele>4</ele>
        <time>2022-05-31T14:29:36Z</time>
      </trkpt>
      <trkpt lat="49.24121" lon="-0.2708">
        <ele>4</ele>
        <time>2022-05-31T14:29:37Z</time>
      </trkpt>
      <trkpt lat="49.2412" lon="-0.27078">
        <ele>4</ele>
        <time>2022-05-31T14:29:38Z</time>
      </trkpt>
      <trkpt lat="49.2412" lon="-0.27077">
        <ele>4</ele>
        <time>2022-05-31T14:29:39Z</time>
      </trkpt>
      <trkpt lat="49.24119" lon="-0.27076">
        <ele>4</ele>
        <time>2022-05-31T14:29:40Z</time>
      </trkpt>
      <trkpt lat="49.24119" lon="-0.27074">
        <ele>4</ele>
        <time>2022-05-31T14:29:41Z</time>
      </trkpt>
      <trkpt lat="49.24118" lon="-0.27074">
        <ele>4</ele>
        <time>2022-05-31T14:29:42Z</time>
      </trkpt>
      <trkpt lat="49.24118" lon="-0.27072">
        <ele>4</ele>
        <time>2022-05-31T14:29:43Z</time>
      </trkpt>
      <trkpt lat="49.24117" lon="-0.27071">
        <ele>4</ele>
        <time>2022-05-31T14:29:44Z</time>
      </trkpt>
      <trkpt lat="49.24117" lon="-0.2707">
        <ele>4</ele>
        <time>2022-05-31T14:29:45Z</time>
      </trkpt>
      <trkpt lat="49.24116" lon="-0.27069">
        <ele>4</ele>
        <time>2022-05-31T14:29:47Z</time>
      </trkpt>
      <trkpt lat="49.24115" lon="-0.27067">
        <ele>4</ele>
        <time>2022-05-31T14:29:48Z</time>
      </trkpt>
      <trkpt lat="49.24115" lon="-0.27066">
        <ele>4</ele>
        <time>2022-05-31T14:29:49Z</time>
      </trkpt>
      <trkpt lat="49.24114" lon="-0.27064">
        <ele>4</ele>
        <time>2022-05-31T14:29:50Z</time>
      </trkpt>
      <trkpt lat="49.24114" lon="-0.27062">
        <ele>4</ele>
        <time>2022-05-31T14:29:51Z</time>
      </trkpt>
      <trkpt lat="49.24113" lon="-0.27061">
        <ele>4</ele>
        <time>2022-05-31T14:29:52Z</time>
      </trkpt>
      <trkpt lat="49.24113" lon="-0.27059">
        <ele>4</ele>
        <time>2022-05-31T14:29:53Z</time>
      </trkpt>
      <trkpt lat="49.24112" lon="-0.27058">
        <ele>4</ele>
        <time>2022-05-31T14:29:54Z</time>
      </trkpt>
      <trkpt lat="49.24112" lon="-0.27056">
        <ele>4</ele>
        <time>2022-05-31T14:29:55Z</time>
      </trkpt>
      <trkpt lat="49.24112" lon="-0.27054">
        <ele>4.1</ele>
        <time>2022-05-31T14:29:56Z</time>
      </trkpt>
      <trkpt lat="49.24111" lon="-0.27053">
        <ele>4.1</ele>
        <time>2022-05-31T14:29:57Z</time>
      </trkpt>
      <trkpt lat="49.24111" lon="-0.27051">
        <ele>4.1</ele>
        <time>2022-05-31T14:29:58Z</time>
      </trkpt>
      <trkpt lat="49.2411" lon="-0.2705">
        <ele>4.1</ele>
        <time>2022-05-31T14:30:00Z</time>
      </trkpt>
      <trkpt lat="49.2411" lon="-0.27048">
        <ele>4.1</ele>
        <time>2022-05-31T14:30:01Z</time>
      </trkpt>
      <trkpt lat="49.24109" lon="-0.27046">
        <ele>4.1</ele>
        <time>2022-05-31T14:30:02Z</time>
      </trkpt>
      <trkpt lat="49.24109" lon="-0.27045">
        <ele>4.1</ele>
        <time>2022-05-31T14:30:03Z</time>
      </trkpt>
      <trkpt lat="49.24109" lon="-0.27043">
        <ele>4.1</ele>
        <time>2022-05-31T14:30:04Z</time>
      </trkpt>
      <trkpt lat="49.24108" lon="-0.27041">
        <ele>4.1</ele>
        <time>2022-05-31T14:30:05Z</time>
      </trkpt>
      <trkpt lat="49.24107" lon="-0.27039">
        <ele>4.1</ele>
        <time>2022-05-31T14:30:07Z</time>
      </trkpt>
      <trkpt lat="49.24107" lon="-0.27038">
        <ele>4.1</ele>
        <time>2022-05-31T14:30:08Z</time>
      </trkpt>
      <trkpt lat="49.24108" lon="-0.2704">
        <ele>4.1</ele>
        <time>2022-05-31T14:30:09Z</time>
      </trkpt>
      <trkpt lat="49.24108" lon="-0.27039">
        <ele>4.1</ele>
        <time>2022-05-31T14:30:10Z</time>
      </trkpt>
      <trkpt lat="49.24108" lon="-0.27039">
        <ele>4.1</ele>
        <time>2022-05-31T14:30:11Z</time>
      </trkpt>
      <trkpt lat="49.24109" lon="-0.2704">
        <ele>4.1</ele>
        <time>2022-05-31T14:30:12Z</time>
      </trkpt>
      <trkpt lat="49.24109" lon="-0.2704">
        <ele>4.1</ele>
        <time>2022-05-31T14:30:13Z</time>
      </trkpt>
      <trkpt lat="49.2411" lon="-0.2704">
        <ele>4.1</ele>
        <time>2022-05-31T14:30:14Z</time>
      </trkpt>
      <trkpt lat="49.2411" lon="-0.2704">
        <ele>4.1</ele>
        <time>2022-05-31T14:30:15Z</time>
      </trkpt>
      <trkpt lat="49.2411" lon="-0.27039">
        <ele>4.2</ele>
        <time>2022-05-31T14:30:17Z</time>
      </trkpt>
      <trkpt lat="49.2411" lon="-0.27038">
        <ele>4.2</ele>
        <time>2022-05-31T14:30:18Z</time>
      </trkpt>
      <trkpt lat="49.2411" lon="-0.27037">
        <ele>4.2</ele>
        <time>2022-05-31T14:30:19Z</time>
      </trkpt>
      <trkpt lat="49.24108" lon="-0.27035">
        <ele>4.2</ele>
        <time>2022-05-31T14:30:20Z</time>
      </trkpt>
      <trkpt lat="49.24108" lon="-0.27034">
        <ele>4.2</ele>
        <time>2022-05-31T14:30:21Z</time>
      </trkpt>
      <trkpt lat="49.24108" lon="-0.27033">
        <ele>4.2</ele>
        <time>2022-05-31T14:30:22Z</time>
      </trkpt>
      <trkpt lat="49.24108" lon="-0.27031">
        <ele>4.2</ele>
        <time>2022-05-31T14:30:23Z</time>
      </trkpt>
      <trkpt lat="49.24108" lon="-0.2703">
        <ele>4.2</ele>
        <time>2022-05-31T14:30:25Z</time>
      </trkpt>
      <trkpt lat="49.24108" lon="-0.27028">
        <ele>4.2</ele>
        <time>2022-05-31T14:30:26Z</time>
      </trkpt>
      <trkpt lat="49.24108" lon="-0.27027">
        <ele>4.2</ele>
        <time>2022-05-31T14:30:27Z</time>
      </trkpt>
      <trkpt lat="49.24108" lon="-0.27026">
        <ele>4.2</ele>
        <time>2022-05-31T14:30:28Z</time>
      </trkpt>
      <trkpt lat="49.24108" lon="-0.27025">
        <ele>4.2</ele>
        <time>2022-05-31T14:30:29Z</time>
      </trkpt>
      <trkpt lat="49.24107" lon="-0.27023">
        <ele>4.2</ele>
        <time>2022-05-31T14:30:30Z</time>
      </trkpt>
      <trkpt lat="49.24107" lon="-0.27021">
        <ele>4.3</ele>
        <time>2022-05-31T14:30:32Z</time>
      </trkpt>
      <trkpt lat="49.24107" lon="-0.27019">
        <ele>4.3</ele>
        <time>2022-05-31T14:30:33Z</time>
      </trkpt>
      <trkpt lat="49.24106" lon="-0.27017">
        <ele>4.3</ele>
        <time>2022-05-31T14:30:34Z</time>
      </trkpt>
      <trkpt lat="49.24106" lon="-0.27014">
        <ele>4.3</ele>
        <time>2022-05-31T14:30:35Z</time>
      </trkpt>
      <trkpt lat="49.24105" lon="-0.27012">
        <ele>4.3</ele>
        <time>2022-05-31T14:30:36Z</time>
      </trkpt>
      <trkpt lat="49.24104" lon="-0.2701">
        <ele>4.3</ele>
        <time>2022-05-31T14:30:37Z</time>
      </trkpt>
      <trkpt lat="49.24104" lon="-0.27007">
        <ele>4.4</ele>
        <time>2022-05-31T14:30:38Z</time>
      </trkpt>
      <trkpt lat="49.24103" lon="-0.27004">
        <ele>4.4</ele>
        <time>2022-05-31T14:30:39Z</time>
      </trkpt>
      <trkpt lat="49.24103" lon="-0.27002">
        <ele>4.4</ele>
        <time>2022-05-31T14:30:40Z</time>
      </trkpt>
      <trkpt lat="49.24103" lon="-0.27">
        <ele>4.4</ele>
        <time>2022-05-31T14:30:41Z</time>
      </trkpt>
      <trkpt lat="49.24102" lon="-0.26998">
        <ele>4.4</ele>
        <time>2022-05-31T14:30:42Z</time>
      </trkpt>
      <trkpt lat="49.24102" lon="-0.26996">
        <ele>4.4</ele>
        <time>2022-05-31T14:30:44Z</time>
      </trkpt>
      <trkpt lat="49.24101" lon="-0.26993">
        <ele>4.5</ele>
        <time>2022-05-31T14:30:45Z</time>
      </trkpt>
      <trkpt lat="49.24101" lon="-0.26991">
        <ele>4.5</ele>
        <time>2022-05-31T14:30:46Z</time>
      </trkpt>
      <trkpt lat="49.241" lon="-0.26986">
        <ele>4.5</ele>
        <time>2022-05-31T14:30:47Z</time>
      </trkpt>
      <trkpt lat="49.241" lon="-0.26985">
        <ele>4.5</ele>
        <time>2022-05-31T14:30:48Z</time>
      </trkpt>
      <trkpt lat="49.24099" lon="-0.26981">
        <ele>4.6</ele>
        <time>2022-05-31T14:30:49Z</time>
      </trkpt>
      <trkpt lat="49.24099" lon="-0.2698">
        <ele>4.6</ele>
        <time>2022-05-31T14:30:50Z</time>
      </trkpt>
      <trkpt lat="49.24098" lon="-0.26976">
        <ele>4.6</ele>
        <time>2022-05-31T14:30:52Z</time>
      </trkpt>
      <trkpt lat="49.24098" lon="-0.26973">
        <ele>4.6</ele>
        <time>2022-05-31T14:30:53Z</time>
      </trkpt>
      <trkpt lat="49.24097" lon="-0.2697">
        <ele>4.7</ele>
        <time>2022-05-31T14:30:54Z</time>
      </trkpt>
      <trkpt lat="49.24097" lon="-0.26968">
        <ele>4.7</ele>
        <time>2022-05-31T14:30:55Z</time>
      </trkpt>
      <trkpt lat="49.24096" lon="-0.26966">
        <ele>4.7</ele>
        <time>2022-05-31T14:30:56Z</time>
      </trkpt>
      <trkpt lat="49.24096" lon="-0.26964">
        <ele>4.7</ele>
        <time>2022-05-31T14:30:57Z</time>
      </trkpt>
      <trkpt lat="49.24095" lon="-0.26961">
        <ele>4.8</ele>
        <time>2022-05-31T14:30:58Z</time>
      </trkpt>
      <trkpt lat="49.24095" lon="-0.2696">
        <ele>4.8</ele>
        <time>2022-05-31T14:31:00Z</time>
      </trkpt>
      <trkpt lat="49.24094" lon="-0.26958">
        <ele>4.8</ele>
        <time>2022-05-31T14:31:01Z</time>
      </trkpt>
      <trkpt lat="49.24094" lon="-0.26957">
        <ele>4.8</ele>
        <time>2022-05-31T14:31:02Z</time>
      </trkpt>
      <trkpt lat="49.24094" lon="-0.26956">
        <ele>4.8</ele>
        <time>2022-05-31T14:31:03Z</time>
      </trkpt>
      <trkpt lat="49.24093" lon="-0.26955">
        <ele>4.8</ele>
        <time>2022-05-31T14:31:04Z</time>
      </trkpt>
      <trkpt lat="49.24093" lon="-0.26953">
        <ele>4.8</ele>
        <time>2022-05-31T14:31:05Z</time>
      </trkpt>
      <trkpt lat="49.24093" lon="-0.26952">
        <ele>4.9</ele>
        <time>2022-05-31T14:31:06Z</time>
      </trkpt>
      <trkpt lat="49.24092" lon="-0.2695">
        <ele>4.9</ele>
        <time>2022-05-31T14:31:07Z</time>
      </trkpt>
      <trkpt lat="49.24092" lon="-0.26949">
        <ele>4.9</ele>
        <time>2022-05-31T14:31:09Z</time>
      </trkpt>
      <trkpt lat="49.24092" lon="-0.26948">
        <ele>4.9</ele>
        <time>2022-05-31T14:31:10Z</time>
      </trkpt>
      <trkpt lat="49.24091" lon="-0.26948">
        <ele>4.9</ele>
        <time>2022-05-31T14:31:11Z</time>
      </trkpt>
      <trkpt lat="49.24091" lon="-0.26947">
        <ele>4.9</ele>
        <time>2022-05-31T14:31:12Z</time>
      </trkpt>
      <trkpt lat="49.2409" lon="-0.26945">
        <ele>5</ele>
        <time>2022-05-31T14:31:13Z</time>
      </trkpt>
      <trkpt lat="49.24089" lon="-0.26943">
        <ele>5</ele>
        <time>2022-05-31T14:31:15Z</time>
      </trkpt>
      <trkpt lat="49.24088" lon="-0.26941">
        <ele>5</ele>
        <time>2022-05-31T14:31:16Z</time>
      </trkpt>
      <trkpt lat="49.24087" lon="-0.2694">
        <ele>5</ele>
        <time>2022-05-31T14:31:17Z</time>
      </trkpt>
      <trkpt lat="49.24086" lon="-0.26939">
        <ele>5</ele>
        <time>2022-05-31T14:31:18Z</time>
      </trkpt>
      <trkpt lat="49.24085" lon="-0.26938">
        <ele>5</ele>
        <time>2022-05-31T14:31:19Z</time>
      </trkpt>
      <trkpt lat="49.24083" lon="-0.26937">
        <ele>5</ele>
        <time>2022-05-31T14:31:20Z</time>
      </trkpt>
      <trkpt lat="49.24082" lon="-0.26937">
        <ele>5</ele>
        <time>2022-05-31T14:31:21Z</time>
      </trkpt>
      <trkpt lat="49.24082" lon="-0.26936">
        <ele>5</ele>
        <time>2022-05-31T14:31:22Z</time>
      </trkpt>
      <trkpt lat="49.2408" lon="-0.26936">
        <ele>4.9</ele>
        <time>2022-05-31T14:31:23Z</time>
      </trkpt>
      <trkpt lat="49.24079" lon="-0.26937">
        <ele>4.9</ele>
        <time>2022-05-31T14:31:24Z</time>
      </trkpt>
      <trkpt lat="49.24078" lon="-0.26936">
        <ele>4.9</ele>
        <time>2022-05-31T14:31:25Z</time>
      </trkpt>
      <trkpt lat="49.24077" lon="-0.26935">
        <ele>4.9</ele>
        <time>2022-05-31T14:31:26Z</time>
      </trkpt>
      <trkpt lat="49.24077" lon="-0.26933">
        <ele>4.9</ele>
        <time>2022-05-31T14:31:27Z</time>
      </trkpt>
      <trkpt lat="49.24077" lon="-0.26932">
        <ele>4.9</ele>
        <time>2022-05-31T14:31:28Z</time>
      </trkpt>
      <trkpt lat="49.24076" lon="-0.26929">
        <ele>4.9</ele>
        <time>2022-05-31T14:31:29Z</time>
      </trkpt>
      <trkpt lat="49.24076" lon="-0.26927">
        <ele>4.9</ele>
        <time>2022-05-31T14:31:30Z</time>
      </trkpt>
      <trkpt lat="49.24075" lon="-0.26925">
        <ele>4.9</ele>
        <time>2022-05-31T14:31:32Z</time>
      </trkpt>
      <trkpt lat="49.24075" lon="-0.26923">
        <ele>4.9</ele>
        <time>2022-05-31T14:31:33Z</time>
      </trkpt>
      <trkpt lat="49.24074" lon="-0.26921">
        <ele>5</ele>
        <time>2022-05-31T14:31:34Z</time>
      </trkpt>
      <trkpt lat="49.24073" lon="-0.26918">
        <ele>5</ele>
        <time>2022-05-31T14:31:35Z</time>
      </trkpt>
      <trkpt lat="49.24073" lon="-0.26916">
        <ele>5</ele>
        <time>2022-05-31T14:31:36Z</time>
      </trkpt>
      <trkpt lat="49.24072" lon="-0.26914">
        <ele>5</ele>
        <time>2022-05-31T14:31:37Z</time>
      </trkpt>
      <trkpt lat="49.24072" lon="-0.26911">
        <ele>5</ele>
        <time>2022-05-31T14:31:39Z</time>
      </trkpt>
      <trkpt lat="49.24072" lon="-0.2691">
        <ele>5</ele>
        <time>2022-05-31T14:31:40Z</time>
      </trkpt>
      <trkpt lat="49.24072" lon="-0.26908">
        <ele>5.1</ele>
        <time>2022-05-31T14:31:41Z</time>
      </trkpt>
      <trkpt lat="49.24073" lon="-0.26908">
        <ele>5.1</ele>
        <time>2022-05-31T14:31:42Z</time>
      </trkpt>
      <trkpt lat="49.24074" lon="-0.26906">
        <ele>5.1</ele>
        <time>2022-05-31T14:31:43Z</time>
      </trkpt>
      <trkpt lat="49.24074" lon="-0.26905">
        <ele>5.1</ele>
        <time>2022-05-31T14:31:44Z</time>
      </trkpt>
      <trkpt lat="49.24075" lon="-0.26903">
        <ele>5.3</ele>
        <time>2022-05-31T14:31:45Z</time>
      </trkpt>
      <trkpt lat="49.24076" lon="-0.26901">
        <ele>5.3</ele>
        <time>2022-05-31T14:31:46Z</time>
      </trkpt>
      <trkpt lat="49.24077" lon="-0.26899">
        <ele>5.3</ele>
        <time>2022-05-31T14:31:48Z</time>
      </trkpt>
      <trkpt lat="49.24077" lon="-0.26897">
        <ele>5.3</ele>
        <time>2022-05-31T14:31:49Z</time>
      </trkpt>
      <trkpt lat="49.24077" lon="-0.26896">
        <ele>5.3</ele>
        <time>2022-05-31T14:31:50Z</time>
      </trkpt>
      <trkpt lat="49.24077" lon="-0.26893">
        <ele>5.3</ele>
        <time>2022-05-31T14:31:51Z</time>
      </trkpt>
      <trkpt lat="49.24076" lon="-0.26891">
        <ele>5.3</ele>
        <time>2022-05-31T14:31:52Z</time>
      </trkpt>
      <trkpt lat="49.24076" lon="-0.26888">
        <ele>5.3</ele>
        <time>2022-05-31T14:31:53Z</time>
      </trkpt>
      <trkpt lat="49.24076" lon="-0.26887">
        <ele>5.3</ele>
        <time>2022-05-31T14:31:54Z</time>
      </trkpt>
      <trkpt lat="49.24075" lon="-0.26886">
        <ele>5.3</ele>
        <time>2022-05-31T14:31:55Z</time>
      </trkpt>
      <trkpt lat="49.24075" lon="-0.26884">
        <ele>5.3</ele>
        <time>2022-05-31T14:31:56Z</time>
      </trkpt>
      <trkpt lat="49.24074" lon="-0.26883">
        <ele>5.4</ele>
        <time>2022-05-31T14:31:57Z</time>
      </trkpt>
      <trkpt lat="49.24074" lon="-0.26881">
        <ele>5.4</ele>
        <time>2022-05-31T14:31:58Z</time>
      </trkpt>
      <trkpt lat="49.24074" lon="-0.26879">
        <ele>5.4</ele>
        <time>2022-05-31T14:31:59Z</time>
      </trkpt>
      <trkpt lat="49.24074" lon="-0.26877">
        <ele>5.4</ele>
        <time>2022-05-31T14:32:00Z</time>
      </trkpt>
      <trkpt lat="49.24073" lon="-0.26875">
        <ele>5.4</ele>
        <time>2022-05-31T14:32:02Z</time>
      </trkpt>
      <trkpt lat="49.24073" lon="-0.26874">
        <ele>5.4</ele>
        <time>2022-05-31T14:32:03Z</time>
      </trkpt>
      <trkpt lat="49.24073" lon="-0.26872">
        <ele>5.4</ele>
        <time>2022-05-31T14:32:04Z</time>
      </trkpt>
      <trkpt lat="49.24073" lon="-0.2687">
        <ele>5.4</ele>
        <time>2022-05-31T14:32:05Z</time>
      </trkpt>
      <trkpt lat="49.24072" lon="-0.26867">
        <ele>5.4</ele>
        <time>2022-05-31T14:32:06Z</time>
      </trkpt>
      <trkpt lat="49.24072" lon="-0.26866">
        <ele>5.5</ele>
        <time>2022-05-31T14:32:07Z</time>
      </trkpt>
      <trkpt lat="49.24071" lon="-0.26864">
        <ele>5.5</ele>
        <time>2022-05-31T14:32:08Z</time>
      </trkpt>
      <trkpt lat="49.24071" lon="-0.26863">
        <ele>5.5</ele>
        <time>2022-05-31T14:32:09Z</time>
      </trkpt>
      <trkpt lat="49.24071" lon="-0.26861">
        <ele>5.5</ele>
        <time>2022-05-31T14:32:10Z</time>
      </trkpt>
      <trkpt lat="49.24071" lon="-0.26859">
        <ele>5.5</ele>
        <time>2022-05-31T14:32:11Z</time>
      </trkpt>
      <trkpt lat="49.2407" lon="-0.26858">
        <ele>5.5</ele>
        <time>2022-05-31T14:32:12Z</time>
      </trkpt>
      <trkpt lat="49.2407" lon="-0.26856">
        <ele>5.5</ele>
        <time>2022-05-31T14:32:13Z</time>
      </trkpt>
      <trkpt lat="49.2407" lon="-0.26853">
        <ele>5.5</ele>
        <time>2022-05-31T14:32:14Z</time>
      </trkpt>
      <trkpt lat="49.2407" lon="-0.26852">
        <ele>5.5</ele>
        <time>2022-05-31T14:32:16Z</time>
      </trkpt>
      <trkpt lat="49.24069" lon="-0.26851">
        <ele>5.6</ele>
        <time>2022-05-31T14:32:17Z</time>
      </trkpt>
      <trkpt lat="49.24069" lon="-0.26848">
        <ele>5.6</ele>
        <time>2022-05-31T14:32:18Z</time>
      </trkpt>
      <trkpt lat="49.24068" lon="-0.26847">
        <ele>5.6</ele>
        <time>2022-05-31T14:32:19Z</time>
      </trkpt>
      <trkpt lat="49.24068" lon="-0.26845">
        <ele>5.6</ele>
        <time>2022-05-31T14:32:20Z</time>
      </trkpt>
      <trkpt lat="49.24067" lon="-0.26843">
        <ele>5.6</ele>
        <time>2022-05-31T14:32:22Z</time>
      </trkpt>
      <trkpt lat="49.24067" lon="-0.26842">
        <ele>5.6</ele>
        <time>2022-05-31T14:32:23Z</time>
      </trkpt>
      <trkpt lat="49.24066" lon="-0.26841">
        <ele>5.7</ele>
        <time>2022-05-31T14:32:24Z</time>
      </trkpt>
      <trkpt lat="49.24066" lon="-0.26839">
        <ele>5.7</ele>
        <time>2022-05-31T14:32:25Z</time>
      </trkpt>
      <trkpt lat="49.24065" lon="-0.26838">
        <ele>5.7</ele>
        <time>2022-05-31T14:32:26Z</time>
      </trkpt>
      <trkpt lat="49.24065" lon="-0.26836">
        <ele>5.7</ele>
        <time>2022-05-31T14:32:27Z</time>
      </trkpt>
      <trkpt lat="49.24064" lon="-0.26833">
        <ele>5.7</ele>
        <time>2022-05-31T14:32:29Z</time>
      </trkpt>
      <trkpt lat="49.24064" lon="-0.26832">
        <ele>5.7</ele>
        <time>2022-05-31T14:32:30Z</time>
      </trkpt>
      <trkpt lat="49.24064" lon="-0.2683">
        <ele>5.8</ele>
        <time>2022-05-31T14:32:31Z</time>
      </trkpt>
      <trkpt lat="49.24063" lon="-0.26829">
        <ele>5.8</ele>
        <time>2022-05-31T14:32:32Z</time>
      </trkpt>
      <trkpt lat="49.24063" lon="-0.26827">
        <ele>5.8</ele>
        <time>2022-05-31T14:32:33Z</time>
      </trkpt>
      <trkpt lat="49.24062" lon="-0.26826">
        <ele>5.8</ele>
        <time>2022-05-31T14:32:34Z</time>
      </trkpt>
      <trkpt lat="49.24061" lon="-0.26824">
        <ele>5.8</ele>
        <time>2022-05-31T14:32:35Z</time>
      </trkpt>
      <trkpt lat="49.24061" lon="-0.26823">
        <ele>5.8</ele>
        <time>2022-05-31T14:32:36Z</time>
      </trkpt>
      <trkpt lat="49.2406" lon="-0.2682">
        <ele>5.9</ele>
        <time>2022-05-31T14:32:37Z</time>
      </trkpt>
      <trkpt lat="49.2406" lon="-0.26819">
        <ele>5.9</ele>
        <time>2022-05-31T14:32:38Z</time>
      </trkpt>
      <trkpt lat="49.2406" lon="-0.26817">
        <ele>5.9</ele>
        <time>2022-05-31T14:32:39Z</time>
      </trkpt>
      <trkpt lat="49.24059" lon="-0.26815">
        <ele>5.9</ele>
        <time>2022-05-31T14:32:40Z</time>
      </trkpt>
      <trkpt lat="49.24059" lon="-0.26813">
        <ele>5.9</ele>
        <time>2022-05-31T14:32:42Z</time>
      </trkpt>
      <trkpt lat="49.24059" lon="-0.26811">
        <ele>6</ele>
        <time>2022-05-31T14:32:43Z</time>
      </trkpt>
      <trkpt lat="49.24058" lon="-0.2681">
        <ele>6</ele>
        <time>2022-05-31T14:32:44Z</time>
      </trkpt>
      <trkpt lat="49.24058" lon="-0.26809">
        <ele>6</ele>
        <time>2022-05-31T14:32:45Z</time>
      </trkpt>
      <trkpt lat="49.24058" lon="-0.26807">
        <ele>6</ele>
        <time>2022-05-31T14:32:46Z</time>
      </trkpt>
      <trkpt lat="49.24057" lon="-0.26805">
        <ele>6</ele>
        <time>2022-05-31T14:32:47Z</time>
      </trkpt>
      <trkpt lat="49.24056" lon="-0.26802">
        <ele>6.1</ele>
        <time>2022-05-31T14:32:49Z</time>
      </trkpt>
      <trkpt lat="49.24055" lon="-0.26801">
        <ele>6.1</ele>
        <time>2022-05-31T14:32:50Z</time>
      </trkpt>
      <trkpt lat="49.24055" lon="-0.268">
        <ele>6.1</ele>
        <time>2022-05-31T14:32:51Z</time>
      </trkpt>
      <trkpt lat="49.24053" lon="-0.26796">
        <ele>6.1</ele>
        <time>2022-05-31T14:32:52Z</time>
      </trkpt>
      <trkpt lat="49.24053" lon="-0.26795">
        <ele>6.1</ele>
        <time>2022-05-31T14:32:53Z</time>
      </trkpt>
      <trkpt lat="49.24052" lon="-0.26793">
        <ele>6.2</ele>
        <time>2022-05-31T14:32:54Z</time>
      </trkpt>
      <trkpt lat="49.24051" lon="-0.26791">
        <ele>6.2</ele>
        <time>2022-05-31T14:32:56Z</time>
      </trkpt>
      <trkpt lat="49.2405" lon="-0.26788">
        <ele>6.2</ele>
        <time>2022-05-31T14:32:57Z</time>
      </trkpt>
      <trkpt lat="49.2405" lon="-0.26786">
        <ele>6.2</ele>
        <time>2022-05-31T14:32:58Z</time>
      </trkpt>
      <trkpt lat="49.24049" lon="-0.26784">
        <ele>6.2</ele>
        <time>2022-05-31T14:32:59Z</time>
      </trkpt>
      <trkpt lat="49.24049" lon="-0.26782">
        <ele>6.3</ele>
        <time>2022-05-31T14:33:00Z</time>
      </trkpt>
      <trkpt lat="49.24048" lon="-0.2678">
        <ele>6.3</ele>
        <time>2022-05-31T14:33:01Z</time>
      </trkpt>
      <trkpt lat="49.24048" lon="-0.26778">
        <ele>6.3</ele>
        <time>2022-05-31T14:33:02Z</time>
      </trkpt>
      <trkpt lat="49.24047" lon="-0.26775">
        <ele>6.3</ele>
        <time>2022-05-31T14:33:03Z</time>
      </trkpt>
      <trkpt lat="49.24047" lon="-0.26773">
        <ele>6.3</ele>
        <time>2022-05-31T14:33:04Z</time>
      </trkpt>
      <trkpt lat="49.24046" lon="-0.2677">
        <ele>6.4</ele>
        <time>2022-05-31T14:33:05Z</time>
      </trkpt>
      <trkpt lat="49.24046" lon="-0.26769">
        <ele>6.4</ele>
        <time>2022-05-31T14:33:06Z</time>
      </trkpt>
      <trkpt lat="49.24046" lon="-0.26768">
        <ele>6.4</ele>
        <time>2022-05-31T14:33:07Z</time>
      </trkpt>
      <trkpt lat="49.24045" lon="-0.26765">
        <ele>6.4</ele>
        <time>2022-05-31T14:33:09Z</time>
      </trkpt>
      <trkpt lat="49.24045" lon="-0.26764">
        <ele>6.4</ele>
        <time>2022-05-31T14:33:10Z</time>
      </trkpt>
      <trkpt lat="49.24045" lon="-0.26764">
        <ele>6.4</ele>
        <time>2022-05-31T14:33:11Z</time>
      </trkpt>
      <trkpt lat="49.24045" lon="-0.26763">
        <ele>6.4</ele>
        <time>2022-05-31T14:33:12Z</time>
      </trkpt>
      <trkpt lat="49.24045" lon="-0.26762">
        <ele>6.4</ele>
        <time>2022-05-31T14:33:13Z</time>
      </trkpt>
      <trkpt lat="49.24045" lon="-0.2676">
        <ele>6.5</ele>
        <time>2022-05-31T14:33:14Z</time>
      </trkpt>
      <trkpt lat="49.24044" lon="-0.26758">
        <ele>6.5</ele>
        <time>2022-05-31T14:33:15Z</time>
      </trkpt>
      <trkpt lat="49.24044" lon="-0.26756">
        <ele>6.5</ele>
        <time>2022-05-31T14:33:16Z</time>
      </trkpt>
      <trkpt lat="49.24044" lon="-0.26754">
        <ele>6.5</ele>
        <time>2022-05-31T14:33:17Z</time>
      </trkpt>
      <trkpt lat="49.24043" lon="-0.26752">
        <ele>6.5</ele>
        <time>2022-05-31T14:33:18Z</time>
      </trkpt>
      <trkpt lat="49.24043" lon="-0.2675">
        <ele>6.6</ele>
        <time>2022-05-31T14:33:19Z</time>
      </trkpt>
      <trkpt lat="49.24043" lon="-0.26748">
        <ele>6.6</ele>
        <time>2022-05-31T14:33:20Z</time>
      </trkpt>
      <trkpt lat="49.24043" lon="-0.26746">
        <ele>6.6</ele>
        <time>2022-05-31T14:33:21Z</time>
      </trkpt>
      <trkpt lat="49.24042" lon="-0.26745">
        <ele>6.6</ele>
        <time>2022-05-31T14:33:23Z</time>
      </trkpt>
      <trkpt lat="49.24042" lon="-0.26743">
        <ele>6.6</ele>
        <time>2022-05-31T14:33:24Z</time>
      </trkpt>
      <trkpt lat="49.24042" lon="-0.26742">
        <ele>6.6</ele>
        <time>2022-05-31T14:33:25Z</time>
      </trkpt>
      <trkpt lat="49.24043" lon="-0.26741">
        <ele>6.6</ele>
        <time>2022-05-31T14:33:26Z</time>
      </trkpt>
      <trkpt lat="49.24042" lon="-0.26739">
        <ele>6.6</ele>
        <time>2022-05-31T14:33:27Z</time>
      </trkpt>
      <trkpt lat="49.24042" lon="-0.26737">
        <ele>6.7</ele>
        <time>2022-05-31T14:33:28Z</time>
      </trkpt>
      <trkpt lat="49.24042" lon="-0.26735">
        <ele>6.7</ele>
        <time>2022-05-31T14:33:29Z</time>
      </trkpt>
      <trkpt lat="49.24042" lon="-0.26732">
        <ele>6.7</ele>
        <time>2022-05-31T14:33:30Z</time>
      </trkpt>
      <trkpt lat="49.24042" lon="-0.26731">
        <ele>6.7</ele>
        <time>2022-05-31T14:33:31Z</time>
      </trkpt>
      <trkpt lat="49.24042" lon="-0.26729">
        <ele>6.7</ele>
        <time>2022-05-31T14:33:32Z</time>
      </trkpt>
      <trkpt lat="49.24041" lon="-0.26728">
        <ele>6.7</ele>
        <time>2022-05-31T14:33:33Z</time>
      </trkpt>
      <trkpt lat="49.24041" lon="-0.26726">
        <ele>6.7</ele>
        <time>2022-05-31T14:33:35Z</time>
      </trkpt>
      <trkpt lat="49.2404" lon="-0.26725">
        <ele>6.7</ele>
        <time>2022-05-31T14:33:36Z</time>
      </trkpt>
      <trkpt lat="49.2404" lon="-0.26723">
        <ele>6.7</ele>
        <time>2022-05-31T14:33:37Z</time>
      </trkpt>
      <trkpt lat="49.2404" lon="-0.26722">
        <ele>6.7</ele>
        <time>2022-05-31T14:33:38Z</time>
      </trkpt>
      <trkpt lat="49.2404" lon="-0.26721">
        <ele>6.7</ele>
        <time>2022-05-31T14:33:39Z</time>
      </trkpt>
      <trkpt lat="49.24039" lon="-0.26719">
        <ele>6.8</ele>
        <time>2022-05-31T14:33:40Z</time>
      </trkpt>
      <trkpt lat="49.24039" lon="-0.26718">
        <ele>6.8</ele>
        <time>2022-05-31T14:33:41Z</time>
      </trkpt>
      <trkpt lat="49.24039" lon="-0.26716">
        <ele>6.8</ele>
        <time>2022-05-31T14:33:42Z</time>
      </trkpt>
      <trkpt lat="49.24039" lon="-0.26715">
        <ele>6.8</ele>
        <time>2022-05-31T14:33:43Z</time>
      </trkpt>
      <trkpt lat="49.24039" lon="-0.26713">
        <ele>6.8</ele>
        <time>2022-05-31T14:33:44Z</time>
      </trkpt>
      <trkpt lat="49.24039" lon="-0.26711">
        <ele>6.8</ele>
        <time>2022-05-31T14:33:46Z</time>
      </trkpt>
      <trkpt lat="49.2404" lon="-0.2671">
        <ele>6.8</ele>
        <time>2022-05-31T14:33:47Z</time>
      </trkpt>
      <trkpt lat="49.2404" lon="-0.2671">
        <ele>6.8</ele>
        <time>2022-05-31T14:33:48Z</time>
      </trkpt>
      <trkpt lat="49.24041" lon="-0.2671">
        <ele>6.8</ele>
        <time>2022-05-31T14:33:49Z</time>
      </trkpt>
      <trkpt lat="49.24041" lon="-0.2671">
        <ele>6.8</ele>
        <time>2022-05-31T14:33:50Z</time>
      </trkpt>
      <trkpt lat="49.24041" lon="-0.26709">
        <ele>6.8</ele>
        <time>2022-05-31T14:33:51Z</time>
      </trkpt>
      <trkpt lat="49.2404" lon="-0.26709">
        <ele>6.8</ele>
        <time>2022-05-31T14:33:52Z</time>
      </trkpt>
      <trkpt lat="49.2404" lon="-0.26708">
        <ele>6.8</ele>
        <time>2022-05-31T14:33:54Z</time>
      </trkpt>
      <trkpt lat="49.2404" lon="-0.26707">
        <ele>6.8</ele>
        <time>2022-05-31T14:33:55Z</time>
      </trkpt>
      <trkpt lat="49.24039" lon="-0.26706">
        <ele>6.8</ele>
        <time>2022-05-31T14:33:57Z</time>
      </trkpt>
      <trkpt lat="49.24039" lon="-0.26706">
        <ele>6.8</ele>
        <time>2022-05-31T14:33:58Z</time>
      </trkpt>
      <trkpt lat="49.24039" lon="-0.26706">
        <ele>6.8</ele>
        <time>2022-05-31T14:33:59Z</time>
      </trkpt>
      <trkpt lat="49.24039" lon="-0.26706">
        <ele>6.8</ele>
        <time>2022-05-31T14:34:00Z</time>
      </trkpt>
      <trkpt lat="49.24039" lon="-0.26706">
        <ele>6.8</ele>
        <time>2022-05-31T14:34:01Z</time>
      </trkpt>
      <trkpt lat="49.24039" lon="-0.26707">
        <ele>6.8</ele>
        <time>2022-05-31T14:34:02Z</time>
      </trkpt>
      <trkpt lat="49.24039" lon="-0.26707">
        <ele>6.8</ele>
        <time>2022-05-31T14:34:03Z</time>
      </trkpt>
      <trkpt lat="49.24039" lon="-0.26707">
        <ele>6.8</ele>
        <time>2022-05-31T14:34:04Z</time>
      </trkpt>
      <trkpt lat="49.24038" lon="-0.26707">
        <ele>6.8</ele>
        <time>2022-05-31T14:34:05Z</time>
      </trkpt>
      <trkpt lat="49.24038" lon="-0.26707">
        <ele>6.8</ele>
        <time>2022-05-31T14:34:06Z</time>
      </trkpt>
      <trkpt lat="49.24038" lon="-0.26707">
        <ele>6.8</ele>
        <time>2022-05-31T14:34:07Z</time>
      </trkpt>
      <trkpt lat="49.24038" lon="-0.26707">
        <ele>6.8</ele>
        <time>2022-05-31T14:34:08Z</time>
      </trkpt>
      <trkpt lat="49.24038" lon="-0.26707">
        <ele>6.8</ele>
        <time>2022-05-31T14:34:09Z</time>
      </trkpt>
      <trkpt lat="49.24039" lon="-0.26708">
        <ele>6.8</ele>
        <time>2022-05-31T14:34:10Z</time>
      </trkpt>
      <trkpt lat="49.24039" lon="-0.26708">
        <ele>6.8</ele>
        <time>2022-05-31T14:34:11Z</time>
      </trkpt>
      <trkpt lat="49.24039" lon="-0.26707">
        <ele>6.8</ele>
        <time>2022-05-31T14:34:12Z</time>
      </trkpt>
      <trkpt lat="49.24039" lon="-0.26708">
        <ele>6.8</ele>
        <time>2022-05-31T14:34:13Z</time>
      </trkpt>
      <trkpt lat="49.24038" lon="-0.26708">
        <ele>6.8</ele>
        <time>2022-05-31T14:34:14Z</time>
      </trkpt>
      <trkpt lat="49.24038" lon="-0.26707">
        <ele>6.8</ele>
        <time>2022-05-31T14:34:16Z</time>
      </trkpt>
      <trkpt lat="49.24037" lon="-0.26707">
        <ele>6.8</ele>
        <time>2022-05-31T14:34:17Z</time>
      </trkpt>
      <trkpt lat="49.24036" lon="-0.26706">
        <ele>6.8</ele>
        <time>2022-05-31T14:34:18Z</time>
      </trkpt>
      <trkpt lat="49.24036" lon="-0.26703">
        <ele>6.8</ele>
        <time>2022-05-31T14:34:19Z</time>
      </trkpt>
      <trkpt lat="49.24035" lon="-0.26701">
        <ele>6.8</ele>
        <time>2022-05-31T14:34:21Z</time>
      </trkpt>
      <trkpt lat="49.24035" lon="-0.267">
        <ele>6.8</ele>
        <time>2022-05-31T14:34:22Z</time>
      </trkpt>
      <trkpt lat="49.24034" lon="-0.26699">
        <ele>6.8</ele>
        <time>2022-05-31T14:34:23Z</time>
      </trkpt>
      <trkpt lat="49.24033" lon="-0.26698">
        <ele>6.8</ele>
        <time>2022-05-31T14:34:24Z</time>
      </trkpt>
      <trkpt lat="49.24033" lon="-0.26696">
        <ele>6.8</ele>
        <time>2022-05-31T14:34:25Z</time>
      </trkpt>
      <trkpt lat="49.24032" lon="-0.26693">
        <ele>6.8</ele>
        <time>2022-05-31T14:34:26Z</time>
      </trkpt>
      <trkpt lat="49.24031" lon="-0.26692">
        <ele>6.8</ele>
        <time>2022-05-31T14:34:27Z</time>
      </trkpt>
      <trkpt lat="49.24031" lon="-0.26691">
        <ele>6.8</ele>
        <time>2022-05-31T14:34:28Z</time>
      </trkpt>
      <trkpt lat="49.24031" lon="-0.26689">
        <ele>6.8</ele>
        <time>2022-05-31T14:34:29Z</time>
      </trkpt>
      <trkpt lat="49.2403" lon="-0.26688">
        <ele>6.8</ele>
        <time>2022-05-31T14:34:30Z</time>
      </trkpt>
      <trkpt lat="49.2403" lon="-0.26687">
        <ele>6.8</ele>
        <time>2022-05-31T14:34:32Z</time>
      </trkpt>
      <trkpt lat="49.2403" lon="-0.26686">
        <ele>6.8</ele>
        <time>2022-05-31T14:34:33Z</time>
      </trkpt>
      <trkpt lat="49.24029" lon="-0.26684">
        <ele>6.8</ele>
        <time>2022-05-31T14:34:34Z</time>
      </trkpt>
      <trkpt lat="49.24029" lon="-0.26683">
        <ele>6.8</ele>
        <time>2022-05-31T14:34:35Z</time>
      </trkpt>
      <trkpt lat="49.24029" lon="-0.2668">
        <ele>6.8</ele>
        <time>2022-05-31T14:34:37Z</time>
      </trkpt>
      <trkpt lat="49.24028" lon="-0.26677">
        <ele>6.8</ele>
        <time>2022-05-31T14:34:38Z</time>
      </trkpt>
      <trkpt lat="49.24028" lon="-0.26675">
        <ele>6.8</ele>
        <time>2022-05-31T14:34:39Z</time>
      </trkpt>
      <trkpt lat="49.24027" lon="-0.26673">
        <ele>6.8</ele>
        <time>2022-05-31T14:34:40Z</time>
      </trkpt>
      <trkpt lat="49.24027" lon="-0.26671">
        <ele>6.8</ele>
        <time>2022-05-31T14:34:41Z</time>
      </trkpt>
      <trkpt lat="49.24026" lon="-0.26666">
        <ele>6.8</ele>
        <time>2022-05-31T14:34:42Z</time>
      </trkpt>
      <trkpt lat="49.24026" lon="-0.26665">
        <ele>6.8</ele>
        <time>2022-05-31T14:34:43Z</time>
      </trkpt>
      <trkpt lat="49.24025" lon="-0.26663">
        <ele>6.9</ele>
        <time>2022-05-31T14:34:44Z</time>
      </trkpt>
      <trkpt lat="49.24025" lon="-0.26661">
        <ele>6.9</ele>
        <time>2022-05-31T14:34:45Z</time>
      </trkpt>
      <trkpt lat="49.24024" lon="-0.26658">
        <ele>6.9</ele>
        <time>2022-05-31T14:34:46Z</time>
      </trkpt>
      <trkpt lat="49.24024" lon="-0.26656">
        <ele>6.9</ele>
        <time>2022-05-31T14:34:47Z</time>
      </trkpt>
      <trkpt lat="49.24023" lon="-0.26655">
        <ele>6.9</ele>
        <time>2022-05-31T14:34:48Z</time>
      </trkpt>
      <trkpt lat="49.24023" lon="-0.26653">
        <ele>6.9</ele>
        <time>2022-05-31T14:34:50Z</time>
      </trkpt>
      <trkpt lat="49.24023" lon="-0.2665">
        <ele>6.9</ele>
        <time>2022-05-31T14:34:51Z</time>
      </trkpt>
      <trkpt lat="49.24022" lon="-0.26648">
        <ele>6.9</ele>
        <time>2022-05-31T14:34:52Z</time>
      </trkpt>
      <trkpt lat="49.24022" lon="-0.26645">
        <ele>6.9</ele>
        <time>2022-05-31T14:34:53Z</time>
      </trkpt>
      <trkpt lat="49.24022" lon="-0.26643">
        <ele>6.9</ele>
        <time>2022-05-31T14:34:54Z</time>
      </trkpt>
      <trkpt lat="49.24021" lon="-0.2664">
        <ele>6.9</ele>
        <time>2022-05-31T14:34:56Z</time>
      </trkpt>
      <trkpt lat="49.24021" lon="-0.26639">
        <ele>6.9</ele>
        <time>2022-05-31T14:34:57Z</time>
      </trkpt>
      <trkpt lat="49.24021" lon="-0.26638">
        <ele>6.9</ele>
        <time>2022-05-31T14:34:58Z</time>
      </trkpt>
      <trkpt lat="49.2402" lon="-0.26636">
        <ele>6.9</ele>
        <time>2022-05-31T14:34:59Z</time>
      </trkpt>
      <trkpt lat="49.2402" lon="-0.26634">
        <ele>6.9</ele>
        <time>2022-05-31T14:35:00Z</time>
      </trkpt>
      <trkpt lat="49.2402" lon="-0.26632">
        <ele>6.9</ele>
        <time>2022-05-31T14:35:01Z</time>
      </trkpt>
      <trkpt lat="49.24019" lon="-0.26631">
        <ele>6.9</ele>
        <time>2022-05-31T14:35:02Z</time>
      </trkpt>
      <trkpt lat="49.24019" lon="-0.26629">
        <ele>6.9</ele>
        <time>2022-05-31T14:35:03Z</time>
      </trkpt>
      <trkpt lat="49.24019" lon="-0.26628">
        <ele>6.9</ele>
        <time>2022-05-31T14:35:04Z</time>
      </trkpt>
      <trkpt lat="49.24018" lon="-0.26626">
        <ele>6.9</ele>
        <time>2022-05-31T14:35:05Z</time>
      </trkpt>
      <trkpt lat="49.24018" lon="-0.26624">
        <ele>6.9</ele>
        <time>2022-05-31T14:35:07Z</time>
      </trkpt>
      <trkpt lat="49.24018" lon="-0.26623">
        <ele>6.9</ele>
        <time>2022-05-31T14:35:08Z</time>
      </trkpt>
      <trkpt lat="49.24017" lon="-0.26622">
        <ele>6.9</ele>
        <time>2022-05-31T14:35:09Z</time>
      </trkpt>
      <trkpt lat="49.24017" lon="-0.2662">
        <ele>6.9</ele>
        <time>2022-05-31T14:35:10Z</time>
      </trkpt>
      <trkpt lat="49.24016" lon="-0.26618">
        <ele>6.9</ele>
        <time>2022-05-31T14:35:12Z</time>
      </trkpt>
      <trkpt lat="49.24016" lon="-0.26617">
        <ele>6.9</ele>
        <time>2022-05-31T14:35:13Z</time>
      </trkpt>
      <trkpt lat="49.24015" lon="-0.26615">
        <ele>6.9</ele>
        <time>2022-05-31T14:35:14Z</time>
      </trkpt>
      <trkpt lat="49.24015" lon="-0.26615">
        <ele>6.9</ele>
        <time>2022-05-31T14:35:15Z</time>
      </trkpt>
      <trkpt lat="49.24015" lon="-0.26614">
        <ele>6.9</ele>
        <time>2022-05-31T14:35:16Z</time>
      </trkpt>
      <trkpt lat="49.24015" lon="-0.26614">
        <ele>6.9</ele>
        <time>2022-05-31T14:35:17Z</time>
      </trkpt>
      <trkpt lat="49.24015" lon="-0.26614">
        <ele>6.9</ele>
        <time>2022-05-31T14:35:18Z</time>
      </trkpt>
      <trkpt lat="49.24016" lon="-0.26613">
        <ele>6.9</ele>
        <time>2022-05-31T14:35:19Z</time>
      </trkpt>
      <trkpt lat="49.24016" lon="-0.26613">
        <ele>6.9</ele>
        <time>2022-05-31T14:35:20Z</time>
      </trkpt>
      <trkpt lat="49.24017" lon="-0.26612">
        <ele>6.9</ele>
        <time>2022-05-31T14:35:21Z</time>
      </trkpt>
      <trkpt lat="49.24017" lon="-0.26612">
        <ele>6.8</ele>
        <time>2022-05-31T14:35:22Z</time>
      </trkpt>
      <trkpt lat="49.24018" lon="-0.26612">
        <ele>6.8</ele>
        <time>2022-05-31T14:35:23Z</time>
      </trkpt>
      <trkpt lat="49.24018" lon="-0.26611">
        <ele>6.8</ele>
        <time>2022-05-31T14:35:25Z</time>
      </trkpt>
      <trkpt lat="49.24018" lon="-0.26611">
        <ele>6.7</ele>
        <time>2022-05-31T14:35:26Z</time>
      </trkpt>
      <trkpt lat="49.2402" lon="-0.2661">
        <ele>6.7</ele>
        <time>2022-05-31T14:35:27Z</time>
      </trkpt>
      <trkpt lat="49.24021" lon="-0.26609">
        <ele>6.7</ele>
        <time>2022-05-31T14:35:28Z</time>
      </trkpt>
      <trkpt lat="49.24022" lon="-0.26608">
        <ele>6.6</ele>
        <time>2022-05-31T14:35:30Z</time>
      </trkpt>
      <trkpt lat="49.24022" lon="-0.26606">
        <ele>6.6</ele>
        <time>2022-05-31T14:35:31Z</time>
      </trkpt>
      <trkpt lat="49.24023" lon="-0.26605">
        <ele>6.6</ele>
        <time>2022-05-31T14:35:32Z</time>
      </trkpt>
      <trkpt lat="49.24023" lon="-0.26603">
        <ele>6.5</ele>
        <time>2022-05-31T14:35:33Z</time>
      </trkpt>
      <trkpt lat="49.24024" lon="-0.26601">
        <ele>6.5</ele>
        <time>2022-05-31T14:35:35Z</time>
      </trkpt>
      <trkpt lat="49.24025" lon="-0.266">
        <ele>6.4</ele>
        <time>2022-05-31T14:35:37Z</time>
      </trkpt>
      <trkpt lat="49.24026" lon="-0.266">
        <ele>6.4</ele>
        <time>2022-05-31T14:35:38Z</time>
      </trkpt>
      <trkpt lat="49.24026" lon="-0.26599">
        <ele>6.4</ele>
        <time>2022-05-31T14:35:39Z</time>
      </trkpt>
      <trkpt lat="49.24026" lon="-0.26599">
        <ele>6.4</ele>
        <time>2022-05-31T14:35:40Z</time>
      </trkpt>
      <trkpt lat="49.24026" lon="-0.26599">
        <ele>6.4</ele>
        <time>2022-05-31T14:35:42Z</time>
      </trkpt>
      <trkpt lat="49.24026" lon="-0.26599">
        <ele>6.4</ele>
        <time>2022-05-31T14:35:43Z</time>
      </trkpt>
      <trkpt lat="49.24026" lon="-0.26599">
        <ele>6.4</ele>
        <time>2022-05-31T14:35:44Z</time>
      </trkpt>
      <trkpt lat="49.24026" lon="-0.26599">
        <ele>6.4</ele>
        <time>2022-05-31T14:35:45Z</time>
      </trkpt>
      <trkpt lat="49.24026" lon="-0.266">
        <ele>6.4</ele>
        <time>2022-05-31T14:35:47Z</time>
      </trkpt>
      <trkpt lat="49.24026" lon="-0.266">
        <ele>6.4</ele>
        <time>2022-05-31T14:35:48Z</time>
      </trkpt>
      <trkpt lat="49.24026" lon="-0.266">
        <ele>6.4</ele>
        <time>2022-05-31T14:35:49Z</time>
      </trkpt>
      <trkpt lat="49.24026" lon="-0.266">
        <ele>6.4</ele>
        <time>2022-05-31T14:35:51Z</time>
      </trkpt>
      <trkpt lat="49.24026" lon="-0.266">
        <ele>6.4</ele>
        <time>2022-05-31T14:35:52Z</time>
      </trkpt>
      <trkpt lat="49.24026" lon="-0.266">
        <ele>6.4</ele>
        <time>2022-05-31T14:35:53Z</time>
      </trkpt>
      <trkpt lat="49.24026" lon="-0.266">
        <ele>6.4</ele>
        <time>2022-05-31T14:35:54Z</time>
      </trkpt>
      <trkpt lat="49.24026" lon="-0.266">
        <ele>6.4</ele>
        <time>2022-05-31T14:35:55Z</time>
      </trkpt>
      <trkpt lat="49.24025" lon="-0.266">
        <ele>6.4</ele>
        <time>2022-05-31T14:35:56Z</time>
      </trkpt>
      <trkpt lat="49.24025" lon="-0.266">
        <ele>6.4</ele>
        <time>2022-05-31T14:35:57Z</time>
      </trkpt>
      <trkpt lat="49.24025" lon="-0.266">
        <ele>6.4</ele>
        <time>2022-05-31T14:35:58Z</time>
      </trkpt>
      <trkpt lat="49.24025" lon="-0.266">
        <ele>6.4</ele>
        <time>2022-05-31T14:35:59Z</time>
      </trkpt>
      <trkpt lat="49.24025" lon="-0.266">
        <ele>6.4</ele>
        <time>2022-05-31T14:36:00Z</time>
      </trkpt>
      <trkpt lat="49.24025" lon="-0.266">
        <ele>6.4</ele>
        <time>2022-05-31T14:36:01Z</time>
      </trkpt>
      <trkpt lat="49.24025" lon="-0.266">
        <ele>6.4</ele>
        <time>2022-05-31T14:36:02Z</time>
      </trkpt>
      <trkpt lat="49.24025" lon="-0.266">
        <ele>6.4</ele>
        <time>2022-05-31T14:36:03Z</time>
      </trkpt>
      <trkpt lat="49.24025" lon="-0.266">
        <ele>6.4</ele>
        <time>2022-05-31T14:36:04Z</time>
      </trkpt>
      <trkpt lat="49.24025" lon="-0.266">
        <ele>6.4</ele>
        <time>2022-05-31T14:36:05Z</time>
      </trkpt>
      <trkpt lat="49.24025" lon="-0.266">
        <ele>6.4</ele>
        <time>2022-05-31T14:36:06Z</time>
      </trkpt>
      <trkpt lat="49.24025" lon="-0.266">
        <ele>6.4</ele>
        <time>2022-05-31T14:36:07Z</time>
      </trkpt>
      <trkpt lat="49.24025" lon="-0.266">
        <ele>6.4</ele>
        <time>2022-05-31T14:36:08Z</time>
      </trkpt>
      <trkpt lat="49.24025" lon="-0.266">
        <ele>6.4</ele>
        <time>2022-05-31T14:36:09Z</time>
      </trkpt>
      <trkpt lat="49.24025" lon="-0.266">
        <ele>6.4</ele>
        <time>2022-05-31T14:36:10Z</time>
      </trkpt>
      <trkpt lat="49.24025" lon="-0.266">
        <ele>6.4</ele>
        <time>2022-05-31T14:36:11Z</time>
      </trkpt>
      <trkpt lat="49.24025" lon="-0.266">
        <ele>6.3</ele>
        <time>2022-05-31T14:36:12Z</time>
      </trkpt>
      <trkpt lat="49.24025" lon="-0.266">
        <ele>6.3</ele>
        <time>2022-05-31T14:36:13Z</time>
      </trkpt>
      <trkpt lat="49.24025" lon="-0.266">
        <ele>6.3</ele>
        <time>2022-05-31T14:36:14Z</time>
      </trkpt>
      <trkpt lat="49.24025" lon="-0.266">
        <ele>6.3</ele>
        <time>2022-05-31T14:36:15Z</time>
      </trkpt>
      <trkpt lat="49.24025" lon="-0.266">
        <ele>6.3</ele>
        <time>2022-05-31T14:36:16Z</time>
      </trkpt>
      <trkpt lat="49.24025" lon="-0.266">
        <ele>6.3</ele>
        <time>2022-05-31T14:36:17Z</time>
      </trkpt>
      <trkpt lat="49.24024" lon="-0.266">
        <ele>6.3</ele>
        <time>2022-05-31T14:36:18Z</time>
      </trkpt>
      <trkpt lat="49.24024" lon="-0.266">
        <ele>6.3</ele>
        <time>2022-05-31T14:36:19Z</time>
      </trkpt>
      <trkpt lat="49.24024" lon="-0.266">
        <ele>6.3</ele>
        <time>2022-05-31T14:36:20Z</time>
      </trkpt>
      <trkpt lat="49.24024" lon="-0.266">
        <ele>6.3</ele>
        <time>2022-05-31T14:36:21Z</time>
      </trkpt>
      <trkpt lat="49.24024" lon="-0.266">
        <ele>6.3</ele>
        <time>2022-05-31T14:36:22Z</time>
      </trkpt>
      <trkpt lat="49.24024" lon="-0.26601">
        <ele>6.3</ele>
        <time>2022-05-31T14:36:23Z</time>
      </trkpt>
      <trkpt lat="49.24024" lon="-0.26601">
        <ele>6.3</ele>
        <time>2022-05-31T14:36:24Z</time>
      </trkpt>
      <trkpt lat="49.24024" lon="-0.26601">
        <ele>6.3</ele>
        <time>2022-05-31T14:36:25Z</time>
      </trkpt>
      <trkpt lat="49.24024" lon="-0.26601">
        <ele>6.3</ele>
        <time>2022-05-31T14:36:26Z</time>
      </trkpt>
      <trkpt lat="49.24024" lon="-0.26601">
        <ele>6.3</ele>
        <time>2022-05-31T14:36:27Z</time>
      </trkpt>
      <trkpt lat="49.24024" lon="-0.26601">
        <ele>6.3</ele>
        <time>2022-05-31T14:36:28Z</time>
      </trkpt>
      <trkpt lat="49.24024" lon="-0.26601">
        <ele>6.3</ele>
        <time>2022-05-31T14:36:29Z</time>
      </trkpt>
      <trkpt lat="49.24024" lon="-0.26601">
        <ele>6.3</ele>
        <time>2022-05-31T14:36:30Z</time>
      </trkpt>
      <trkpt lat="49.24024" lon="-0.26601">
        <ele>6.3</ele>
        <time>2022-05-31T14:36:31Z</time>
      </trkpt>
      <trkpt lat="49.24024" lon="-0.26601">
        <ele>6.3</ele>
        <time>2022-05-31T14:36:32Z</time>
      </trkpt>
      <trkpt lat="49.24024" lon="-0.26601">
        <ele>6.3</ele>
        <time>2022-05-31T14:36:33Z</time>
      </trkpt>
      <trkpt lat="49.24024" lon="-0.26601">
        <ele>6.3</ele>
        <time>2022-05-31T14:36:34Z</time>
      </trkpt>
      <trkpt lat="49.24024" lon="-0.26603">
        <ele>6.3</ele>
        <time>2022-05-31T14:36:35Z</time>
      </trkpt>
      <trkpt lat="49.24024" lon="-0.26603">
        <ele>6.3</ele>
        <time>2022-05-31T14:36:36Z</time>
      </trkpt>
      <trkpt lat="49.24024" lon="-0.26603">
        <ele>6.3</ele>
        <time>2022-05-31T14:36:37Z</time>
      </trkpt>
      <trkpt lat="49.24024" lon="-0.26603">
        <ele>6.3</ele>
        <time>2022-05-31T14:36:38Z</time>
      </trkpt>
      <trkpt lat="49.24024" lon="-0.26602">
        <ele>6.2</ele>
        <time>2022-05-31T14:36:39Z</time>
      </trkpt>
      <trkpt lat="49.24024" lon="-0.26602">
        <ele>6.2</ele>
        <time>2022-05-31T14:36:40Z</time>
      </trkpt>
      <trkpt lat="49.24024" lon="-0.26601">
        <ele>6.2</ele>
        <time>2022-05-31T14:36:41Z</time>
      </trkpt>
      <trkpt lat="49.24024" lon="-0.26602">
        <ele>6.2</ele>
        <time>2022-05-31T14:36:42Z</time>
      </trkpt>
      <trkpt lat="49.24025" lon="-0.26602">
        <ele>6.2</ele>
        <time>2022-05-31T14:36:44Z</time>
      </trkpt>
      <trkpt lat="49.24025" lon="-0.26603">
        <ele>6.2</ele>
        <time>2022-05-31T14:36:45Z</time>
      </trkpt>
      <trkpt lat="49.24025" lon="-0.26603">
        <ele>6.2</ele>
        <time>2022-05-31T14:36:46Z</time>
      </trkpt>
      <trkpt lat="49.24025" lon="-0.26602">
        <ele>6.2</ele>
        <time>2022-05-31T14:36:47Z</time>
      </trkpt>
      <trkpt lat="49.24025" lon="-0.26602">
        <ele>6.2</ele>
        <time>2022-05-31T14:36:48Z</time>
      </trkpt>
      <trkpt lat="49.24025" lon="-0.26601">
        <ele>6.2</ele>
        <time>2022-05-31T14:36:49Z</time>
      </trkpt>
      <trkpt lat="49.24025" lon="-0.26601">
        <ele>6.2</ele>
        <time>2022-05-31T14:36:50Z</time>
      </trkpt>
      <trkpt lat="49.24025" lon="-0.26601">
        <ele>6.1</ele>
        <time>2022-05-31T14:36:51Z</time>
      </trkpt>
      <trkpt lat="49.24025" lon="-0.26601">
        <ele>6.1</ele>
        <time>2022-05-31T14:36:52Z</time>
      </trkpt>
      <trkpt lat="49.24025" lon="-0.266">
        <ele>6.1</ele>
        <time>2022-05-31T14:36:53Z</time>
      </trkpt>
      <trkpt lat="49.24025" lon="-0.266">
        <ele>6.1</ele>
        <time>2022-05-31T14:36:54Z</time>
      </trkpt>
      <trkpt lat="49.24025" lon="-0.266">
        <ele>6.1</ele>
        <time>2022-05-31T14:36:55Z</time>
      </trkpt>
      <trkpt lat="49.24026" lon="-0.266">
        <ele>6.1</ele>
        <time>2022-05-31T14:36:56Z</time>
      </trkpt>
      <trkpt lat="49.24026" lon="-0.266">
        <ele>6.1</ele>
        <time>2022-05-31T14:36:57Z</time>
      </trkpt>
      <trkpt lat="49.24027" lon="-0.266">
        <ele>6.1</ele>
        <time>2022-05-31T14:36:58Z</time>
      </trkpt>
      <trkpt lat="49.24028" lon="-0.266">
        <ele>6.1</ele>
        <time>2022-05-31T14:36:59Z</time>
      </trkpt>
      <trkpt lat="49.2403" lon="-0.26599">
        <ele>6</ele>
        <time>2022-05-31T14:37:01Z</time>
      </trkpt>
      <trkpt lat="49.24031" lon="-0.26598">
        <ele>5.9</ele>
        <time>2022-05-31T14:37:02Z</time>
      </trkpt>
      <trkpt lat="49.24033" lon="-0.26597">
        <ele>5.9</ele>
        <time>2022-05-31T14:37:03Z</time>
      </trkpt>
      <trkpt lat="49.24034" lon="-0.26595">
        <ele>5.8</ele>
        <time>2022-05-31T14:37:04Z</time>
      </trkpt>
      <trkpt lat="49.24035" lon="-0.26593">
        <ele>5.8</ele>
        <time>2022-05-31T14:37:06Z</time>
      </trkpt>
      <trkpt lat="49.24035" lon="-0.26592">
        <ele>5.8</ele>
        <time>2022-05-31T14:37:07Z</time>
      </trkpt>
      <trkpt lat="49.24035" lon="-0.26591">
        <ele>5.7</ele>
        <time>2022-05-31T14:37:08Z</time>
      </trkpt>
      <trkpt lat="49.24034" lon="-0.2659">
        <ele>5.7</ele>
        <time>2022-05-31T14:37:09Z</time>
      </trkpt>
      <trkpt lat="49.24035" lon="-0.2659">
        <ele>5.7</ele>
        <time>2022-05-31T14:37:10Z</time>
      </trkpt>
      <trkpt lat="49.24037" lon="-0.2659">
        <ele>5.7</ele>
        <time>2022-05-31T14:37:11Z</time>
      </trkpt>
      <trkpt lat="49.24038" lon="-0.2659">
        <ele>5.6</ele>
        <time>2022-05-31T14:37:12Z</time>
      </trkpt>
      <trkpt lat="49.24039" lon="-0.2659">
        <ele>5.6</ele>
        <time>2022-05-31T14:37:13Z</time>
      </trkpt>
      <trkpt lat="49.2404" lon="-0.26589">
        <ele>5.6</ele>
        <time>2022-05-31T14:37:14Z</time>
      </trkpt>
      <trkpt lat="49.24043" lon="-0.26586">
        <ele>5.5</ele>
        <time>2022-05-31T14:37:16Z</time>
      </trkpt>
      <trkpt lat="49.24043" lon="-0.26586">
        <ele>5.5</ele>
        <time>2022-05-31T14:37:17Z</time>
      </trkpt>
      <trkpt lat="49.24044" lon="-0.26583">
        <ele>5.4</ele>
        <time>2022-05-31T14:37:18Z</time>
      </trkpt>
      <trkpt lat="49.24046" lon="-0.26582">
        <ele>5.4</ele>
        <time>2022-05-31T14:37:19Z</time>
      </trkpt>
      <trkpt lat="49.24047" lon="-0.2658">
        <ele>5.3</ele>
        <time>2022-05-31T14:37:20Z</time>
      </trkpt>
      <trkpt lat="49.24048" lon="-0.26579">
        <ele>5.3</ele>
        <time>2022-05-31T14:37:22Z</time>
      </trkpt>
      <trkpt lat="49.24049" lon="-0.26577">
        <ele>5.2</ele>
        <time>2022-05-31T14:37:23Z</time>
      </trkpt>
      <trkpt lat="49.24051" lon="-0.26576">
        <ele>5.2</ele>
        <time>2022-05-31T14:37:25Z</time>
      </trkpt>
      <trkpt lat="49.24052" lon="-0.26575">
        <ele>5.1</ele>
        <time>2022-05-31T14:37:26Z</time>
      </trkpt>
      <trkpt lat="49.24052" lon="-0.26574">
        <ele>5.1</ele>
        <time>2022-05-31T14:37:27Z</time>
      </trkpt>
      <trkpt lat="49.24053" lon="-0.26574">
        <ele>5.1</ele>
        <time>2022-05-31T14:37:28Z</time>
      </trkpt>
      <trkpt lat="49.24052" lon="-0.26573">
        <ele>5.1</ele>
        <time>2022-05-31T14:37:29Z</time>
      </trkpt>
      <trkpt lat="49.24052" lon="-0.26573">
        <ele>5.1</ele>
        <time>2022-05-31T14:37:30Z</time>
      </trkpt>
      <trkpt lat="49.24053" lon="-0.26571">
        <ele>5</ele>
        <time>2022-05-31T14:37:32Z</time>
      </trkpt>
      <trkpt lat="49.24054" lon="-0.2657">
        <ele>5</ele>
        <time>2022-05-31T14:37:33Z</time>
      </trkpt>
      <trkpt lat="49.24055" lon="-0.26568">
        <ele>4.9</ele>
        <time>2022-05-31T14:37:34Z</time>
      </trkpt>
      <trkpt lat="49.24056" lon="-0.26567">
        <ele>4.9</ele>
        <time>2022-05-31T14:37:35Z</time>
      </trkpt>
      <trkpt lat="49.24056" lon="-0.26567">
        <ele>4.9</ele>
        <time>2022-05-31T14:37:37Z</time>
      </trkpt>
      <trkpt lat="49.24056" lon="-0.26566">
        <ele>4.9</ele>
        <time>2022-05-31T14:37:38Z</time>
      </trkpt>
      <trkpt lat="49.24057" lon="-0.26566">
        <ele>4.8</ele>
        <time>2022-05-31T14:37:39Z</time>
      </trkpt>
      <trkpt lat="49.24057" lon="-0.26565">
        <ele>4.8</ele>
        <time>2022-05-31T14:37:40Z</time>
      </trkpt>
      <trkpt lat="49.24057" lon="-0.26565">
        <ele>4.8</ele>
        <time>2022-05-31T14:37:41Z</time>
      </trkpt>
      <trkpt lat="49.24057" lon="-0.26564">
        <ele>4.8</ele>
        <time>2022-05-31T14:37:43Z</time>
      </trkpt>
      <trkpt lat="49.24057" lon="-0.26565">
        <ele>4.8</ele>
        <time>2022-05-31T14:37:44Z</time>
      </trkpt>
      <trkpt lat="49.24056" lon="-0.26565">
        <ele>4.8</ele>
        <time>2022-05-31T14:37:45Z</time>
      </trkpt>
      <trkpt lat="49.24056" lon="-0.26565">
        <ele>4.8</ele>
        <time>2022-05-31T14:37:46Z</time>
      </trkpt>
      <trkpt lat="49.24056" lon="-0.26566">
        <ele>4.8</ele>
        <time>2022-05-31T14:37:47Z</time>
      </trkpt>
      <trkpt lat="49.24056" lon="-0.26566">
        <ele>4.8</ele>
        <time>2022-05-31T14:37:48Z</time>
      </trkpt>
      <trkpt lat="49.24056" lon="-0.26566">
        <ele>4.8</ele>
        <time>2022-05-31T14:37:49Z</time>
      </trkpt>
      <trkpt lat="49.24056" lon="-0.26566">
        <ele>4.8</ele>
        <time>2022-05-31T14:37:50Z</time>
      </trkpt>
      <trkpt lat="49.24056" lon="-0.26566">
        <ele>4.7</ele>
        <time>2022-05-31T14:37:51Z</time>
      </trkpt>
      <trkpt lat="49.24056" lon="-0.26566">
        <ele>4.7</ele>
        <time>2022-05-31T14:37:52Z</time>
      </trkpt>
      <trkpt lat="49.24055" lon="-0.26566">
        <ele>4.7</ele>
        <time>2022-05-31T14:37:53Z</time>
      </trkpt>
      <trkpt lat="49.24056" lon="-0.26566">
        <ele>4.7</ele>
        <time>2022-05-31T14:37:54Z</time>
      </trkpt>
      <trkpt lat="49.24055" lon="-0.26567">
        <ele>4.7</ele>
        <time>2022-05-31T14:37:55Z</time>
      </trkpt>
      <trkpt lat="49.24055" lon="-0.26567">
        <ele>4.7</ele>
        <time>2022-05-31T14:37:56Z</time>
      </trkpt>
      <trkpt lat="49.24055" lon="-0.26567">
        <ele>4.7</ele>
        <time>2022-05-31T14:37:57Z</time>
      </trkpt>
      <trkpt lat="49.24055" lon="-0.26567">
        <ele>4.7</ele>
        <time>2022-05-31T14:37:58Z</time>
      </trkpt>
      <trkpt lat="49.24054" lon="-0.26567">
        <ele>4.7</ele>
        <time>2022-05-31T14:37:59Z</time>
      </trkpt>
      <trkpt lat="49.24054" lon="-0.26567">
        <ele>4.7</ele>
        <time>2022-05-31T14:38:00Z</time>
      </trkpt>
      <trkpt lat="49.24054" lon="-0.26567">
        <ele>4.7</ele>
        <time>2022-05-31T14:38:01Z</time>
      </trkpt>
      <trkpt lat="49.24054" lon="-0.26567">
        <ele>4.7</ele>
        <time>2022-05-31T14:38:02Z</time>
      </trkpt>
      <trkpt lat="49.24054" lon="-0.26567">
        <ele>4.7</ele>
        <time>2022-05-31T14:38:03Z</time>
      </trkpt>
      <trkpt lat="49.24054" lon="-0.26567">
        <ele>4.7</ele>
        <time>2022-05-31T14:38:04Z</time>
      </trkpt>
      <trkpt lat="49.24054" lon="-0.26567">
        <ele>4.7</ele>
        <time>2022-05-31T14:38:05Z</time>
      </trkpt>
      <trkpt lat="49.24054" lon="-0.26567">
        <ele>4.7</ele>
        <time>2022-05-31T14:38:06Z</time>
      </trkpt>
      <trkpt lat="49.24054" lon="-0.26567">
        <ele>4.7</ele>
        <time>2022-05-31T14:38:07Z</time>
      </trkpt>
      <trkpt lat="49.24054" lon="-0.26567">
        <ele>4.7</ele>
        <time>2022-05-31T14:38:08Z</time>
      </trkpt>
      <trkpt lat="49.24054" lon="-0.26567">
        <ele>4.7</ele>
        <time>2022-05-31T14:38:09Z</time>
      </trkpt>
      <trkpt lat="49.24054" lon="-0.26567">
        <ele>4.7</ele>
        <time>2022-05-31T14:38:10Z</time>
      </trkpt>
      <trkpt lat="49.24054" lon="-0.26567">
        <ele>4.7</ele>
        <time>2022-05-31T14:38:11Z</time>
      </trkpt>
      <trkpt lat="49.24054" lon="-0.26567">
        <ele>4.7</ele>
        <time>2022-05-31T14:38:12Z</time>
      </trkpt>
      <trkpt lat="49.24055" lon="-0.26567">
        <ele>4.7</ele>
        <time>2022-05-31T14:38:13Z</time>
      </trkpt>
      <trkpt lat="49.24055" lon="-0.26567">
        <ele>4.7</ele>
        <time>2022-05-31T14:38:14Z</time>
      </trkpt>
      <trkpt lat="49.24054" lon="-0.26566">
        <ele>4.7</ele>
        <time>2022-05-31T14:38:15Z</time>
      </trkpt>
      <trkpt lat="49.24054" lon="-0.26567">
        <ele>4.7</ele>
        <time>2022-05-31T14:38:16Z</time>
      </trkpt>
      <trkpt lat="49.24054" lon="-0.26567">
        <ele>4.6</ele>
        <time>2022-05-31T14:38:17Z</time>
      </trkpt>
      <trkpt lat="49.24054" lon="-0.26567">
        <ele>4.6</ele>
        <time>2022-05-31T14:38:18Z</time>
      </trkpt>
      <trkpt lat="49.24054" lon="-0.26567">
        <ele>4.6</ele>
        <time>2022-05-31T14:38:19Z</time>
      </trkpt>
      <trkpt lat="49.24054" lon="-0.26567">
        <ele>4.6</ele>
        <time>2022-05-31T14:38:20Z</time>
      </trkpt>
      <trkpt lat="49.24054" lon="-0.26567">
        <ele>4.6</ele>
        <time>2022-05-31T14:38:21Z</time>
      </trkpt>
      <trkpt lat="49.24054" lon="-0.26567">
        <ele>4.6</ele>
        <time>2022-05-31T14:38:22Z</time>
      </trkpt>
      <trkpt lat="49.24054" lon="-0.26567">
        <ele>4.6</ele>
        <time>2022-05-31T14:38:23Z</time>
      </trkpt>
      <trkpt lat="49.24054" lon="-0.26567">
        <ele>4.6</ele>
        <time>2022-05-31T14:38:24Z</time>
      </trkpt>
      <trkpt lat="49.24054" lon="-0.26567">
        <ele>4.6</ele>
        <time>2022-05-31T14:38:25Z</time>
      </trkpt>
      <trkpt lat="49.24054" lon="-0.26567">
        <ele>4.6</ele>
        <time>2022-05-31T14:38:26Z</time>
      </trkpt>
      <trkpt lat="49.24054" lon="-0.26567">
        <ele>4.6</ele>
        <time>2022-05-31T14:38:27Z</time>
      </trkpt>
      <trkpt lat="49.24054" lon="-0.26568">
        <ele>4.6</ele>
        <time>2022-05-31T14:38:28Z</time>
      </trkpt>
      <trkpt lat="49.24054" lon="-0.26568">
        <ele>4.6</ele>
        <time>2022-05-31T14:38:29Z</time>
      </trkpt>
      <trkpt lat="49.24054" lon="-0.26568">
        <ele>4.6</ele>
        <time>2022-05-31T14:38:30Z</time>
      </trkpt>
      <trkpt lat="49.24054" lon="-0.26567">
        <ele>4.6</ele>
        <time>2022-05-31T14:38:31Z</time>
      </trkpt>
      <trkpt lat="49.24054" lon="-0.26567">
        <ele>4.6</ele>
        <time>2022-05-31T14:38:32Z</time>
      </trkpt>
      <trkpt lat="49.24054" lon="-0.26567">
        <ele>4.6</ele>
        <time>2022-05-31T14:38:33Z</time>
      </trkpt>
      <trkpt lat="49.24054" lon="-0.26567">
        <ele>4.6</ele>
        <time>2022-05-31T14:38:34Z</time>
      </trkpt>
      <trkpt lat="49.24054" lon="-0.26567">
        <ele>4.6</ele>
        <time>2022-05-31T14:38:35Z</time>
      </trkpt>
      <trkpt lat="49.24054" lon="-0.26567">
        <ele>4.6</ele>
        <time>2022-05-31T14:38:36Z</time>
      </trkpt>
      <trkpt lat="49.24054" lon="-0.26567">
        <ele>4.6</ele>
        <time>2022-05-31T14:38:37Z</time>
      </trkpt>
      <trkpt lat="49.24054" lon="-0.26567">
        <ele>4.6</ele>
        <time>2022-05-31T14:38:38Z</time>
      </trkpt>
      <trkpt lat="49.24054" lon="-0.26567">
        <ele>4.6</ele>
        <time>2022-05-31T14:38:39Z</time>
      </trkpt>
      <trkpt lat="49.24054" lon="-0.26567">
        <ele>4.6</ele>
        <time>2022-05-31T14:38:40Z</time>
      </trkpt>
      <trkpt lat="49.24054" lon="-0.26567">
        <ele>4.6</ele>
        <time>2022-05-31T14:38:41Z</time>
      </trkpt>
      <trkpt lat="49.24054" lon="-0.26567">
        <ele>4.6</ele>
        <time>2022-05-31T14:38:42Z</time>
      </trkpt>
      <trkpt lat="49.24054" lon="-0.26568">
        <ele>4.6</ele>
        <time>2022-05-31T14:38:43Z</time>
      </trkpt>
      <trkpt lat="49.24054" lon="-0.26567">
        <ele>4.6</ele>
        <time>2022-05-31T14:38:44Z</time>
      </trkpt>
      <trkpt lat="49.24054" lon="-0.26567">
        <ele>4.6</ele>
        <time>2022-05-31T14:38:45Z</time>
      </trkpt>
      <trkpt lat="49.24054" lon="-0.26567">
        <ele>4.6</ele>
        <time>2022-05-31T14:38:46Z</time>
      </trkpt>
      <trkpt lat="49.24054" lon="-0.26567">
        <ele>4.6</ele>
        <time>2022-05-31T14:38:47Z</time>
      </trkpt>
      <trkpt lat="49.24054" lon="-0.26567">
        <ele>4.6</ele>
        <time>2022-05-31T14:38:48Z</time>
      </trkpt>
      <trkpt lat="49.24054" lon="-0.26567">
        <ele>4.6</ele>
        <time>2022-05-31T14:38:49Z</time>
      </trkpt>
      <trkpt lat="49.24054" lon="-0.26567">
        <ele>4.6</ele>
        <time>2022-05-31T14:38:50Z</time>
      </trkpt>
      <trkpt lat="49.24054" lon="-0.26567">
        <ele>4.6</ele>
        <time>2022-05-31T14:38:51Z</time>
      </trkpt>
      <trkpt lat="49.24054" lon="-0.26567">
        <ele>4.6</ele>
        <time>2022-05-31T14:38:52Z</time>
      </trkpt>
      <trkpt lat="49.24054" lon="-0.26567">
        <ele>4.6</ele>
        <time>2022-05-31T14:38:53Z</time>
      </trkpt>
      <trkpt lat="49.24054" lon="-0.26567">
        <ele>4.6</ele>
        <time>2022-05-31T14:38:54Z</time>
      </trkpt>
      <trkpt lat="49.24054" lon="-0.26567">
        <ele>4.6</ele>
        <time>2022-05-31T14:38:55Z</time>
      </trkpt>
      <trkpt lat="49.24054" lon="-0.26567">
        <ele>4.6</ele>
        <time>2022-05-31T14:38:56Z</time>
      </trkpt>
      <trkpt lat="49.24054" lon="-0.26567">
        <ele>4.6</ele>
        <time>2022-05-31T14:38:57Z</time>
      </trkpt>
      <trkpt lat="49.24054" lon="-0.26567">
        <ele>4.6</ele>
        <time>2022-05-31T14:38:58Z</time>
      </trkpt>
      <trkpt lat="49.24054" lon="-0.26567">
        <ele>4.6</ele>
        <time>2022-05-31T14:38:59Z</time>
      </trkpt>
      <trkpt lat="49.24054" lon="-0.26567">
        <ele>4.6</ele>
        <time>2022-05-31T14:39:00Z</time>
      </trkpt>
      <trkpt lat="49.24054" lon="-0.26567">
        <ele>4.6</ele>
        <time>2022-05-31T14:39:01Z</time>
      </trkpt>
      <trkpt lat="49.24054" lon="-0.26567">
        <ele>4.6</ele>
        <time>2022-05-31T14:39:02Z</time>
      </trkpt>
      <trkpt lat="49.24054" lon="-0.26567">
        <ele>4.6</ele>
        <time>2022-05-31T14:39:03Z</time>
      </trkpt>
      <trkpt lat="49.24054" lon="-0.26567">
        <ele>4.6</ele>
        <time>2022-05-31T14:39:04Z</time>
      </trkpt>
      <trkpt lat="49.24054" lon="-0.26567">
        <ele>4.6</ele>
        <time>2022-05-31T14:39:05Z</time>
      </trkpt>
      <trkpt lat="49.24054" lon="-0.26567">
        <ele>4.5</ele>
        <time>2022-05-31T14:39:06Z</time>
      </trkpt>
      <trkpt lat="49.24054" lon="-0.26567">
        <ele>4.5</ele>
        <time>2022-05-31T14:39:07Z</time>
      </trkpt>
      <trkpt lat="49.24054" lon="-0.26567">
        <ele>4.5</ele>
        <time>2022-05-31T14:39:08Z</time>
      </trkpt>
      <trkpt lat="49.24054" lon="-0.26567">
        <ele>4.5</ele>
        <time>2022-05-31T14:39:09Z</time>
      </trkpt>
      <trkpt lat="49.24054" lon="-0.26567">
        <ele>4.5</ele>
        <time>2022-05-31T14:39:10Z</time>
      </trkpt>
      <trkpt lat="49.24054" lon="-0.26567">
        <ele>4.5</ele>
        <time>2022-05-31T14:39:11Z</time>
      </trkpt>
      <trkpt lat="49.24054" lon="-0.26567">
        <ele>4.5</ele>
        <time>2022-05-31T14:39:12Z</time>
      </trkpt>
      <trkpt lat="49.24054" lon="-0.26567">
        <ele>4.5</ele>
        <time>2022-05-31T14:39:13Z</time>
      </trkpt>
      <trkpt lat="49.24054" lon="-0.26567">
        <ele>4.5</ele>
        <time>2022-05-31T14:39:14Z</time>
      </trkpt>
      <trkpt lat="49.24054" lon="-0.26567">
        <ele>4.5</ele>
        <time>2022-05-31T14:39:15Z</time>
      </trkpt>
      <trkpt lat="49.24054" lon="-0.26567">
        <ele>4.5</ele>
        <time>2022-05-31T14:39:16Z</time>
      </trkpt>
      <trkpt lat="49.24054" lon="-0.26567">
        <ele>4.5</ele>
        <time>2022-05-31T14:39:17Z</time>
      </trkpt>
      <trkpt lat="49.24054" lon="-0.26567">
        <ele>4.5</ele>
        <time>2022-05-31T14:39:18Z</time>
      </trkpt>
      <trkpt lat="49.24054" lon="-0.26567">
        <ele>4.5</ele>
        <time>2022-05-31T14:39:19Z</time>
      </trkpt>
      <trkpt lat="49.24054" lon="-0.26567">
        <ele>4.5</ele>
        <time>2022-05-31T14:39:20Z</time>
      </trkpt>
      <trkpt lat="49.24054" lon="-0.26567">
        <ele>4.5</ele>
        <time>2022-05-31T14:39:21Z</time>
      </trkpt>
      <trkpt lat="49.24054" lon="-0.26567">
        <ele>4.5</ele>
        <time>2022-05-31T14:39:22Z</time>
      </trkpt>
      <trkpt lat="49.24054" lon="-0.26567">
        <ele>4.5</ele>
        <time>2022-05-31T14:39:23Z</time>
      </trkpt>
      <trkpt lat="49.24054" lon="-0.26567">
        <ele>4.5</ele>
        <time>2022-05-31T14:39:24Z</time>
      </trkpt>
      <trkpt lat="49.24054" lon="-0.26567">
        <ele>4.5</ele>
        <time>2022-05-31T14:39:25Z</time>
      </trkpt>
      <trkpt lat="49.24054" lon="-0.26567">
        <ele>4.5</ele>
        <time>2022-05-31T14:39:26Z</time>
      </trkpt>
      <trkpt lat="49.24054" lon="-0.26567">
        <ele>4.5</ele>
        <time>2022-05-31T14:39:27Z</time>
      </trkpt>
      <trkpt lat="49.24054" lon="-0.26567">
        <ele>4.5</ele>
        <time>2022-05-31T14:39:28Z</time>
      </trkpt>
      <trkpt lat="49.24054" lon="-0.26567">
        <ele>4.5</ele>
        <time>2022-05-31T14:39:29Z</time>
      </trkpt>
      <trkpt lat="49.24054" lon="-0.26567">
        <ele>4.5</ele>
        <time>2022-05-31T14:39:30Z</time>
      </trkpt>
      <trkpt lat="49.24054" lon="-0.26567">
        <ele>4.5</ele>
        <time>2022-05-31T14:39:31Z</time>
      </trkpt>
      <trkpt lat="49.24054" lon="-0.26567">
        <ele>4.5</ele>
        <time>2022-05-31T14:39:32Z</time>
      </trkpt>
      <trkpt lat="49.24054" lon="-0.26567">
        <ele>4.5</ele>
        <time>2022-05-31T14:39:33Z</time>
      </trkpt>
      <trkpt lat="49.24054" lon="-0.26567">
        <ele>4.5</ele>
        <time>2022-05-31T14:39:34Z</time>
      </trkpt>
      <trkpt lat="49.24054" lon="-0.26567">
        <ele>4.5</ele>
        <time>2022-05-31T14:39:35Z</time>
      </trkpt>
      <trkpt lat="49.24054" lon="-0.26567">
        <ele>4.5</ele>
        <time>2022-05-31T14:39:36Z</time>
      </trkpt>
      <trkpt lat="49.24054" lon="-0.26567">
        <ele>4.5</ele>
        <time>2022-05-31T14:39:37Z</time>
      </trkpt>
      <trkpt lat="49.24054" lon="-0.26567">
        <ele>4.5</ele>
        <time>2022-05-31T14:39:38Z</time>
      </trkpt>
      <trkpt lat="49.24054" lon="-0.26567">
        <ele>4.5</ele>
        <time>2022-05-31T14:39:39Z</time>
      </trkpt>
      <trkpt lat="49.24054" lon="-0.26567">
        <ele>4.5</ele>
        <time>2022-05-31T14:39:40Z</time>
      </trkpt>
      <trkpt lat="49.24054" lon="-0.26567">
        <ele>4.5</ele>
        <time>2022-05-31T14:39:41Z</time>
      </trkpt>
      <trkpt lat="49.24054" lon="-0.26567">
        <ele>4.5</ele>
        <time>2022-05-31T14:39:42Z</time>
      </trkpt>
      <trkpt lat="49.24054" lon="-0.26567">
        <ele>4.5</ele>
        <time>2022-05-31T14:39:43Z</time>
      </trkpt>
      <trkpt lat="49.24054" lon="-0.26567">
        <ele>4.5</ele>
        <time>2022-05-31T14:39:44Z</time>
      </trkpt>
      <trkpt lat="49.24054" lon="-0.26567">
        <ele>4.5</ele>
        <time>2022-05-31T14:39:45Z</time>
      </trkpt>
      <trkpt lat="49.24054" lon="-0.26567">
        <ele>4.5</ele>
        <time>2022-05-31T14:39:46Z</time>
      </trkpt>
      <trkpt lat="49.24054" lon="-0.26567">
        <ele>4.5</ele>
        <time>2022-05-31T14:39:47Z</time>
      </trkpt>
      <trkpt lat="49.24055" lon="-0.26566">
        <ele>4.4</ele>
        <time>2022-05-31T14:39:48Z</time>
      </trkpt>
      <trkpt lat="49.24055" lon="-0.26566">
        <ele>4.4</ele>
        <time>2022-05-31T14:39:49Z</time>
      </trkpt>
      <trkpt lat="49.24056" lon="-0.26565">
        <ele>4.4</ele>
        <time>2022-05-31T14:39:50Z</time>
      </trkpt>
      <trkpt lat="49.24057" lon="-0.26563">
        <ele>4.4</ele>
        <time>2022-05-31T14:39:51Z</time>
      </trkpt>
      <trkpt lat="49.24059" lon="-0.26562">
        <ele>4.3</ele>
        <time>2022-05-31T14:39:53Z</time>
      </trkpt>
      <trkpt lat="49.2406" lon="-0.26561">
        <ele>4.2</ele>
        <time>2022-05-31T14:39:54Z</time>
      </trkpt>
      <trkpt lat="49.24062" lon="-0.26559">
        <ele>4.2</ele>
        <time>2022-05-31T14:39:55Z</time>
      </trkpt>
      <trkpt lat="49.24063" lon="-0.26558">
        <ele>4.1</ele>
        <time>2022-05-31T14:39:56Z</time>
      </trkpt>
      <trkpt lat="49.24065" lon="-0.26557">
        <ele>4</ele>
        <time>2022-05-31T14:39:57Z</time>
      </trkpt>
      <trkpt lat="49.24066" lon="-0.26556">
        <ele>4</ele>
        <time>2022-05-31T14:39:58Z</time>
      </trkpt>
      <trkpt lat="49.24067" lon="-0.26556">
        <ele>4</ele>
        <time>2022-05-31T14:39:59Z</time>
      </trkpt>
      <trkpt lat="49.24068" lon="-0.26556">
        <ele>4</ele>
        <time>2022-05-31T14:40:01Z</time>
      </trkpt>
      <trkpt lat="49.2407" lon="-0.26555">
        <ele>4</ele>
        <time>2022-05-31T14:40:02Z</time>
      </trkpt>
      <trkpt lat="49.24071" lon="-0.26554">
        <ele>3.9</ele>
        <time>2022-05-31T14:40:03Z</time>
      </trkpt>
      <trkpt lat="49.24072" lon="-0.26554">
        <ele>3.9</ele>
        <time>2022-05-31T14:40:04Z</time>
      </trkpt>
      <trkpt lat="49.24073" lon="-0.26553">
        <ele>3.9</ele>
        <time>2022-05-31T14:40:05Z</time>
      </trkpt>
      <trkpt lat="49.24075" lon="-0.26552">
        <ele>3.9</ele>
        <time>2022-05-31T14:40:06Z</time>
      </trkpt>
      <trkpt lat="49.24076" lon="-0.26551">
        <ele>3.9</ele>
        <time>2022-05-31T14:40:07Z</time>
      </trkpt>
      <trkpt lat="49.24077" lon="-0.2655">
        <ele>3.9</ele>
        <time>2022-05-31T14:40:08Z</time>
      </trkpt>
      <trkpt lat="49.24078" lon="-0.26549">
        <ele>3.9</ele>
        <time>2022-05-31T14:40:10Z</time>
      </trkpt>
      <trkpt lat="49.24079" lon="-0.26548">
        <ele>3.9</ele>
        <time>2022-05-31T14:40:11Z</time>
      </trkpt>
      <trkpt lat="49.24081" lon="-0.26547">
        <ele>3.9</ele>
        <time>2022-05-31T14:40:12Z</time>
      </trkpt>
      <trkpt lat="49.24081" lon="-0.26546">
        <ele>3.9</ele>
        <time>2022-05-31T14:40:13Z</time>
      </trkpt>
      <trkpt lat="49.24082" lon="-0.26545">
        <ele>3.9</ele>
        <time>2022-05-31T14:40:14Z</time>
      </trkpt>
      <trkpt lat="49.24085" lon="-0.26543">
        <ele>3.9</ele>
        <time>2022-05-31T14:40:15Z</time>
      </trkpt>
      <trkpt lat="49.24086" lon="-0.26542">
        <ele>3.9</ele>
        <time>2022-05-31T14:40:16Z</time>
      </trkpt>
      <trkpt lat="49.24089" lon="-0.2654">
        <ele>3.9</ele>
        <time>2022-05-31T14:40:17Z</time>
      </trkpt>
      <trkpt lat="49.2409" lon="-0.2654">
        <ele>3.9</ele>
        <time>2022-05-31T14:40:18Z</time>
      </trkpt>
      <trkpt lat="49.24092" lon="-0.26538">
        <ele>3.9</ele>
        <time>2022-05-31T14:40:19Z</time>
      </trkpt>
      <trkpt lat="49.24093" lon="-0.26537">
        <ele>3.8</ele>
        <time>2022-05-31T14:40:20Z</time>
      </trkpt>
      <trkpt lat="49.24095" lon="-0.26536">
        <ele>3.8</ele>
        <time>2022-05-31T14:40:21Z</time>
      </trkpt>
      <trkpt lat="49.24096" lon="-0.26535">
        <ele>3.8</ele>
        <time>2022-05-31T14:40:22Z</time>
      </trkpt>
      <trkpt lat="49.24098" lon="-0.26534">
        <ele>3.8</ele>
        <time>2022-05-31T14:40:24Z</time>
      </trkpt>
      <trkpt lat="49.24099" lon="-0.26533">
        <ele>3.8</ele>
        <time>2022-05-31T14:40:25Z</time>
      </trkpt>
      <trkpt lat="49.241" lon="-0.26532">
        <ele>3.8</ele>
        <time>2022-05-31T14:40:26Z</time>
      </trkpt>
      <trkpt lat="49.24101" lon="-0.26531">
        <ele>3.8</ele>
        <time>2022-05-31T14:40:27Z</time>
      </trkpt>
      <trkpt lat="49.24102" lon="-0.2653">
        <ele>3.8</ele>
        <time>2022-05-31T14:40:28Z</time>
      </trkpt>
      <trkpt lat="49.24103" lon="-0.2653">
        <ele>3.8</ele>
        <time>2022-05-31T14:40:29Z</time>
      </trkpt>
      <trkpt lat="49.24105" lon="-0.26529">
        <ele>3.8</ele>
        <time>2022-05-31T14:40:30Z</time>
      </trkpt>
      <trkpt lat="49.24107" lon="-0.26527">
        <ele>3.8</ele>
        <time>2022-05-31T14:40:31Z</time>
      </trkpt>
      <trkpt lat="49.24108" lon="-0.26527">
        <ele>3.8</ele>
        <time>2022-05-31T14:40:32Z</time>
      </trkpt>
      <trkpt lat="49.24108" lon="-0.26527">
        <ele>3.8</ele>
        <time>2022-05-31T14:40:33Z</time>
      </trkpt>
      <trkpt lat="49.24109" lon="-0.26526">
        <ele>3.8</ele>
        <time>2022-05-31T14:40:34Z</time>
      </trkpt>
      <trkpt lat="49.2411" lon="-0.26525">
        <ele>3.8</ele>
        <time>2022-05-31T14:40:35Z</time>
      </trkpt>
      <trkpt lat="49.24111" lon="-0.26525">
        <ele>3.8</ele>
        <time>2022-05-31T14:40:37Z</time>
      </trkpt>
      <trkpt lat="49.24112" lon="-0.26524">
        <ele>3.8</ele>
        <time>2022-05-31T14:40:38Z</time>
      </trkpt>
      <trkpt lat="49.24114" lon="-0.26523">
        <ele>3.8</ele>
        <time>2022-05-31T14:40:39Z</time>
      </trkpt>
      <trkpt lat="49.24114" lon="-0.26522">
        <ele>3.8</ele>
        <time>2022-05-31T14:40:40Z</time>
      </trkpt>
      <trkpt lat="49.24115" lon="-0.26521">
        <ele>3.8</ele>
        <time>2022-05-31T14:40:41Z</time>
      </trkpt>
      <trkpt lat="49.24116" lon="-0.2652">
        <ele>3.8</ele>
        <time>2022-05-31T14:40:42Z</time>
      </trkpt>
      <trkpt lat="49.24117" lon="-0.2652">
        <ele>3.8</ele>
        <time>2022-05-31T14:40:43Z</time>
      </trkpt>
      <trkpt lat="49.24118" lon="-0.26518">
        <ele>3.8</ele>
        <time>2022-05-31T14:40:45Z</time>
      </trkpt>
      <trkpt lat="49.2412" lon="-0.26517">
        <ele>3.8</ele>
        <time>2022-05-31T14:40:46Z</time>
      </trkpt>
      <trkpt lat="49.24121" lon="-0.26516">
        <ele>3.8</ele>
        <time>2022-05-31T14:40:47Z</time>
      </trkpt>
      <trkpt lat="49.24122" lon="-0.26515">
        <ele>3.8</ele>
        <time>2022-05-31T14:40:48Z</time>
      </trkpt>
      <trkpt lat="49.24123" lon="-0.26514">
        <ele>3.8</ele>
        <time>2022-05-31T14:40:50Z</time>
      </trkpt>
      <trkpt lat="49.24124" lon="-0.26513">
        <ele>3.8</ele>
        <time>2022-05-31T14:40:51Z</time>
      </trkpt>
      <trkpt lat="49.24125" lon="-0.26512">
        <ele>3.8</ele>
        <time>2022-05-31T14:40:52Z</time>
      </trkpt>
      <trkpt lat="49.24126" lon="-0.26511">
        <ele>3.8</ele>
        <time>2022-05-31T14:40:53Z</time>
      </trkpt>
      <trkpt lat="49.24127" lon="-0.26509">
        <ele>3.8</ele>
        <time>2022-05-31T14:40:54Z</time>
      </trkpt>
      <trkpt lat="49.24128" lon="-0.26508">
        <ele>3.8</ele>
        <time>2022-05-31T14:40:55Z</time>
      </trkpt>
      <trkpt lat="49.2413" lon="-0.26507">
        <ele>3.8</ele>
        <time>2022-05-31T14:40:56Z</time>
      </trkpt>
      <trkpt lat="49.24132" lon="-0.26506">
        <ele>3.8</ele>
        <time>2022-05-31T14:40:57Z</time>
      </trkpt>
      <trkpt lat="49.24133" lon="-0.26505">
        <ele>3.8</ele>
        <time>2022-05-31T14:40:58Z</time>
      </trkpt>
      <trkpt lat="49.24136" lon="-0.26503">
        <ele>3.8</ele>
        <time>2022-05-31T14:40:59Z</time>
      </trkpt>
      <trkpt lat="49.24137" lon="-0.26502">
        <ele>3.8</ele>
        <time>2022-05-31T14:41:00Z</time>
      </trkpt>
      <trkpt lat="49.24138" lon="-0.26501">
        <ele>3.8</ele>
        <time>2022-05-31T14:41:01Z</time>
      </trkpt>
      <trkpt lat="49.24139" lon="-0.265">
        <ele>3.8</ele>
        <time>2022-05-31T14:41:03Z</time>
      </trkpt>
      <trkpt lat="49.24139" lon="-0.26499">
        <ele>3.8</ele>
        <time>2022-05-31T14:41:04Z</time>
      </trkpt>
      <trkpt lat="49.2414" lon="-0.26498">
        <ele>3.8</ele>
        <time>2022-05-31T14:41:05Z</time>
      </trkpt>
      <trkpt lat="49.24141" lon="-0.26497">
        <ele>3.8</ele>
        <time>2022-05-31T14:41:06Z</time>
      </trkpt>
      <trkpt lat="49.24142" lon="-0.26496">
        <ele>3.8</ele>
        <time>2022-05-31T14:41:07Z</time>
      </trkpt>
      <trkpt lat="49.24142" lon="-0.26496">
        <ele>3.8</ele>
        <time>2022-05-31T14:41:08Z</time>
      </trkpt>
      <trkpt lat="49.24143" lon="-0.26494">
        <ele>3.8</ele>
        <time>2022-05-31T14:41:09Z</time>
      </trkpt>
      <trkpt lat="49.24144" lon="-0.26493">
        <ele>3.8</ele>
        <time>2022-05-31T14:41:10Z</time>
      </trkpt>
      <trkpt lat="49.24144" lon="-0.26492">
        <ele>3.8</ele>
        <time>2022-05-31T14:41:11Z</time>
      </trkpt>
      <trkpt lat="49.24145" lon="-0.26492">
        <ele>3.8</ele>
        <time>2022-05-31T14:41:12Z</time>
      </trkpt>
      <trkpt lat="49.24146" lon="-0.26491">
        <ele>3.8</ele>
        <time>2022-05-31T14:41:13Z</time>
      </trkpt>
      <trkpt lat="49.24147" lon="-0.2649">
        <ele>3.8</ele>
        <time>2022-05-31T14:41:14Z</time>
      </trkpt>
      <trkpt lat="49.24149" lon="-0.26489">
        <ele>3.8</ele>
        <time>2022-05-31T14:41:16Z</time>
      </trkpt>
      <trkpt lat="49.2415" lon="-0.26488">
        <ele>3.8</ele>
        <time>2022-05-31T14:41:17Z</time>
      </trkpt>
      <trkpt lat="49.24151" lon="-0.26486">
        <ele>3.8</ele>
        <time>2022-05-31T14:41:18Z</time>
      </trkpt>
      <trkpt lat="49.24152" lon="-0.26484">
        <ele>3.8</ele>
        <time>2022-05-31T14:41:19Z</time>
      </trkpt>
      <trkpt lat="49.24154" lon="-0.26483">
        <ele>3.8</ele>
        <time>2022-05-31T14:41:20Z</time>
      </trkpt>
      <trkpt lat="49.24155" lon="-0.26483">
        <ele>3.8</ele>
        <time>2022-05-31T14:41:21Z</time>
      </trkpt>
      <trkpt lat="49.24156" lon="-0.26482">
        <ele>3.8</ele>
        <time>2022-05-31T14:41:22Z</time>
      </trkpt>
      <trkpt lat="49.24158" lon="-0.26481">
        <ele>3.8</ele>
        <time>2022-05-31T14:41:23Z</time>
      </trkpt>
      <trkpt lat="49.24159" lon="-0.2648">
        <ele>3.8</ele>
        <time>2022-05-31T14:41:24Z</time>
      </trkpt>
      <trkpt lat="49.24159" lon="-0.2648">
        <ele>3.8</ele>
        <time>2022-05-31T14:41:25Z</time>
      </trkpt>
      <trkpt lat="49.2416" lon="-0.26479">
        <ele>3.8</ele>
        <time>2022-05-31T14:41:26Z</time>
      </trkpt>
      <trkpt lat="49.24161" lon="-0.26478">
        <ele>3.8</ele>
        <time>2022-05-31T14:41:27Z</time>
      </trkpt>
      <trkpt lat="49.24162" lon="-0.26477">
        <ele>3.8</ele>
        <time>2022-05-31T14:41:28Z</time>
      </trkpt>
      <trkpt lat="49.24163" lon="-0.26477">
        <ele>3.8</ele>
        <time>2022-05-31T14:41:30Z</time>
      </trkpt>
      <trkpt lat="49.24163" lon="-0.26476">
        <ele>3.8</ele>
        <time>2022-05-31T14:41:31Z</time>
      </trkpt>
      <trkpt lat="49.24163" lon="-0.26477">
        <ele>3.9</ele>
        <time>2022-05-31T14:41:32Z</time>
      </trkpt>
      <trkpt lat="49.24164" lon="-0.26476">
        <ele>3.9</ele>
        <time>2022-05-31T14:41:33Z</time>
      </trkpt>
      <trkpt lat="49.24165" lon="-0.26475">
        <ele>3.9</ele>
        <time>2022-05-31T14:41:34Z</time>
      </trkpt>
      <trkpt lat="49.24166" lon="-0.26475">
        <ele>3.9</ele>
        <time>2022-05-31T14:41:35Z</time>
      </trkpt>
      <trkpt lat="49.24168" lon="-0.26474">
        <ele>3.9</ele>
        <time>2022-05-31T14:41:36Z</time>
      </trkpt>
      <trkpt lat="49.24169" lon="-0.26473">
        <ele>3.9</ele>
        <time>2022-05-31T14:41:37Z</time>
      </trkpt>
      <trkpt lat="49.2417" lon="-0.26472">
        <ele>3.9</ele>
        <time>2022-05-31T14:41:39Z</time>
      </trkpt>
      <trkpt lat="49.24171" lon="-0.26471">
        <ele>3.9</ele>
        <time>2022-05-31T14:41:40Z</time>
      </trkpt>
      <trkpt lat="49.24173" lon="-0.2647">
        <ele>3.9</ele>
        <time>2022-05-31T14:41:41Z</time>
      </trkpt>
      <trkpt lat="49.24174" lon="-0.26469">
        <ele>3.9</ele>
        <time>2022-05-31T14:41:42Z</time>
      </trkpt>
      <trkpt lat="49.24175" lon="-0.26469">
        <ele>3.9</ele>
        <time>2022-05-31T14:41:43Z</time>
      </trkpt>
      <trkpt lat="49.24176" lon="-0.26468">
        <ele>3.9</ele>
        <time>2022-05-31T14:41:44Z</time>
      </trkpt>
      <trkpt lat="49.24177" lon="-0.26467">
        <ele>3.9</ele>
        <time>2022-05-31T14:41:46Z</time>
      </trkpt>
      <trkpt lat="49.24178" lon="-0.26466">
        <ele>3.9</ele>
        <time>2022-05-31T14:41:47Z</time>
      </trkpt>
      <trkpt lat="49.24179" lon="-0.26465">
        <ele>3.9</ele>
        <time>2022-05-31T14:41:48Z</time>
      </trkpt>
      <trkpt lat="49.24179" lon="-0.26465">
        <ele>3.9</ele>
        <time>2022-05-31T14:41:49Z</time>
      </trkpt>
      <trkpt lat="49.2418" lon="-0.26464">
        <ele>3.9</ele>
        <time>2022-05-31T14:41:50Z</time>
      </trkpt>
      <trkpt lat="49.24181" lon="-0.26463">
        <ele>3.9</ele>
        <time>2022-05-31T14:41:51Z</time>
      </trkpt>
      <trkpt lat="49.24183" lon="-0.26462">
        <ele>3.9</ele>
        <time>2022-05-31T14:41:53Z</time>
      </trkpt>
      <trkpt lat="49.24184" lon="-0.26462">
        <ele>3.9</ele>
        <time>2022-05-31T14:41:54Z</time>
      </trkpt>
      <trkpt lat="49.24184" lon="-0.26461">
        <ele>3.9</ele>
        <time>2022-05-31T14:41:55Z</time>
      </trkpt>
      <trkpt lat="49.24185" lon="-0.2646">
        <ele>3.9</ele>
        <time>2022-05-31T14:41:56Z</time>
      </trkpt>
      <trkpt lat="49.24188" lon="-0.26457">
        <ele>3.9</ele>
        <time>2022-05-31T14:41:58Z</time>
      </trkpt>
      <trkpt lat="49.24189" lon="-0.26457">
        <ele>3.9</ele>
        <time>2022-05-31T14:41:59Z</time>
      </trkpt>
      <trkpt lat="49.2419" lon="-0.26456">
        <ele>3.9</ele>
        <time>2022-05-31T14:42:00Z</time>
      </trkpt>
      <trkpt lat="49.24191" lon="-0.26454">
        <ele>3.9</ele>
        <time>2022-05-31T14:42:01Z</time>
      </trkpt>
      <trkpt lat="49.24192" lon="-0.26453">
        <ele>3.9</ele>
        <time>2022-05-31T14:42:02Z</time>
      </trkpt>
      <trkpt lat="49.24193" lon="-0.26451">
        <ele>3.9</ele>
        <time>2022-05-31T14:42:03Z</time>
      </trkpt>
      <trkpt lat="49.24196" lon="-0.26448">
        <ele>3.9</ele>
        <time>2022-05-31T14:42:05Z</time>
      </trkpt>
      <trkpt lat="49.24197" lon="-0.26447">
        <ele>3.9</ele>
        <time>2022-05-31T14:42:06Z</time>
      </trkpt>
      <trkpt lat="49.24198" lon="-0.26446">
        <ele>3.9</ele>
        <time>2022-05-31T14:42:07Z</time>
      </trkpt>
      <trkpt lat="49.24199" lon="-0.26445">
        <ele>3.9</ele>
        <time>2022-05-31T14:42:08Z</time>
      </trkpt>
      <trkpt lat="49.242" lon="-0.26443">
        <ele>3.9</ele>
        <time>2022-05-31T14:42:10Z</time>
      </trkpt>
      <trkpt lat="49.24201" lon="-0.26442">
        <ele>3.9</ele>
        <time>2022-05-31T14:42:11Z</time>
      </trkpt>
      <trkpt lat="49.24203" lon="-0.26441">
        <ele>3.9</ele>
        <time>2022-05-31T14:42:12Z</time>
      </trkpt>
      <trkpt lat="49.24203" lon="-0.26441">
        <ele>3.9</ele>
        <time>2022-05-31T14:42:13Z</time>
      </trkpt>
      <trkpt lat="49.24204" lon="-0.2644">
        <ele>3.9</ele>
        <time>2022-05-31T14:42:14Z</time>
      </trkpt>
      <trkpt lat="49.24205" lon="-0.2644">
        <ele>3.9</ele>
        <time>2022-05-31T14:42:15Z</time>
      </trkpt>
      <trkpt lat="49.24206" lon="-0.26439">
        <ele>3.9</ele>
        <time>2022-05-31T14:42:16Z</time>
      </trkpt>
      <trkpt lat="49.24207" lon="-0.26438">
        <ele>3.9</ele>
        <time>2022-05-31T14:42:17Z</time>
      </trkpt>
      <trkpt lat="49.24208" lon="-0.26437">
        <ele>3.9</ele>
        <time>2022-05-31T14:42:18Z</time>
      </trkpt>
      <trkpt lat="49.2421" lon="-0.26436">
        <ele>3.9</ele>
        <time>2022-05-31T14:42:20Z</time>
      </trkpt>
      <trkpt lat="49.24211" lon="-0.26435">
        <ele>3.9</ele>
        <time>2022-05-31T14:42:21Z</time>
      </trkpt>
      <trkpt lat="49.24212" lon="-0.26434">
        <ele>3.9</ele>
        <time>2022-05-31T14:42:22Z</time>
      </trkpt>
      <trkpt lat="49.24213" lon="-0.26433">
        <ele>3.9</ele>
        <time>2022-05-31T14:42:23Z</time>
      </trkpt>
      <trkpt lat="49.24214" lon="-0.26432">
        <ele>3.9</ele>
        <time>2022-05-31T14:42:24Z</time>
      </trkpt>
      <trkpt lat="49.24215" lon="-0.26431">
        <ele>3.9</ele>
        <time>2022-05-31T14:42:25Z</time>
      </trkpt>
      <trkpt lat="49.24217" lon="-0.2643">
        <ele>3.9</ele>
        <time>2022-05-31T14:42:26Z</time>
      </trkpt>
      <trkpt lat="49.24218" lon="-0.26428">
        <ele>3.9</ele>
        <time>2022-05-31T14:42:27Z</time>
      </trkpt>
      <trkpt lat="49.2422" lon="-0.26427">
        <ele>3.9</ele>
        <time>2022-05-31T14:42:28Z</time>
      </trkpt>
      <trkpt lat="49.24221" lon="-0.26426">
        <ele>3.9</ele>
        <time>2022-05-31T14:42:29Z</time>
      </trkpt>
      <trkpt lat="49.24222" lon="-0.26425">
        <ele>3.9</ele>
        <time>2022-05-31T14:42:30Z</time>
      </trkpt>
      <trkpt lat="49.24223" lon="-0.26424">
        <ele>3.9</ele>
        <time>2022-05-31T14:42:31Z</time>
      </trkpt>
      <trkpt lat="49.24223" lon="-0.26423">
        <ele>3.9</ele>
        <time>2022-05-31T14:42:33Z</time>
      </trkpt>
      <trkpt lat="49.24224" lon="-0.26423">
        <ele>3.9</ele>
        <time>2022-05-31T14:42:34Z</time>
      </trkpt>
      <trkpt lat="49.24224" lon="-0.26422">
        <ele>3.9</ele>
        <time>2022-05-31T14:42:35Z</time>
      </trkpt>
      <trkpt lat="49.24225" lon="-0.26422">
        <ele>3.9</ele>
        <time>2022-05-31T14:42:36Z</time>
      </trkpt>
      <trkpt lat="49.24226" lon="-0.2642">
        <ele>3.9</ele>
        <time>2022-05-31T14:42:37Z</time>
      </trkpt>
      <trkpt lat="49.24227" lon="-0.26419">
        <ele>3.9</ele>
        <time>2022-05-31T14:42:38Z</time>
      </trkpt>
      <trkpt lat="49.24228" lon="-0.26418">
        <ele>3.9</ele>
        <time>2022-05-31T14:42:39Z</time>
      </trkpt>
      <trkpt lat="49.2423" lon="-0.26417">
        <ele>3.9</ele>
        <time>2022-05-31T14:42:41Z</time>
      </trkpt>
      <trkpt lat="49.24232" lon="-0.26415">
        <ele>3.9</ele>
        <time>2022-05-31T14:42:42Z</time>
      </trkpt>
      <trkpt lat="49.24233" lon="-0.26415">
        <ele>3.9</ele>
        <time>2022-05-31T14:42:43Z</time>
      </trkpt>
      <trkpt lat="49.24234" lon="-0.26414">
        <ele>3.9</ele>
        <time>2022-05-31T14:42:44Z</time>
      </trkpt>
      <trkpt lat="49.24236" lon="-0.26412">
        <ele>3.9</ele>
        <time>2022-05-31T14:42:45Z</time>
      </trkpt>
      <trkpt lat="49.24237" lon="-0.26411">
        <ele>3.9</ele>
        <time>2022-05-31T14:42:46Z</time>
      </trkpt>
      <trkpt lat="49.24239" lon="-0.2641">
        <ele>3.9</ele>
        <time>2022-05-31T14:42:47Z</time>
      </trkpt>
      <trkpt lat="49.2424" lon="-0.2641">
        <ele>3.9</ele>
        <time>2022-05-31T14:42:49Z</time>
      </trkpt>
      <trkpt lat="49.2424" lon="-0.2641">
        <ele>3.9</ele>
        <time>2022-05-31T14:42:50Z</time>
      </trkpt>
      <trkpt lat="49.24242" lon="-0.26409">
        <ele>3.9</ele>
        <time>2022-05-31T14:42:51Z</time>
      </trkpt>
      <trkpt lat="49.24243" lon="-0.26409">
        <ele>3.9</ele>
        <time>2022-05-31T14:42:52Z</time>
      </trkpt>
      <trkpt lat="49.24243" lon="-0.26408">
        <ele>3.9</ele>
        <time>2022-05-31T14:42:53Z</time>
      </trkpt>
      <trkpt lat="49.24244" lon="-0.26408">
        <ele>3.9</ele>
        <time>2022-05-31T14:42:54Z</time>
      </trkpt>
      <trkpt lat="49.24246" lon="-0.26406">
        <ele>3.9</ele>
        <time>2022-05-31T14:42:55Z</time>
      </trkpt>
      <trkpt lat="49.24247" lon="-0.26405">
        <ele>3.9</ele>
        <time>2022-05-31T14:42:56Z</time>
      </trkpt>
      <trkpt lat="49.24248" lon="-0.26404">
        <ele>3.9</ele>
        <time>2022-05-31T14:42:57Z</time>
      </trkpt>
      <trkpt lat="49.24249" lon="-0.26403">
        <ele>3.9</ele>
        <time>2022-05-31T14:42:59Z</time>
      </trkpt>
      <trkpt lat="49.2425" lon="-0.26402">
        <ele>3.9</ele>
        <time>2022-05-31T14:43:00Z</time>
      </trkpt>
      <trkpt lat="49.24251" lon="-0.26401">
        <ele>3.9</ele>
        <time>2022-05-31T14:43:01Z</time>
      </trkpt>
      <trkpt lat="49.24253" lon="-0.26399">
        <ele>3.9</ele>
        <time>2022-05-31T14:43:02Z</time>
      </trkpt>
      <trkpt lat="49.24255" lon="-0.26397">
        <ele>3.9</ele>
        <time>2022-05-31T14:43:03Z</time>
      </trkpt>
      <trkpt lat="49.24256" lon="-0.26397">
        <ele>3.9</ele>
        <time>2022-05-31T14:43:04Z</time>
      </trkpt>
      <trkpt lat="49.24258" lon="-0.26395">
        <ele>3.9</ele>
        <time>2022-05-31T14:43:05Z</time>
      </trkpt>
      <trkpt lat="49.24259" lon="-0.26394">
        <ele>3.9</ele>
        <time>2022-05-31T14:43:07Z</time>
      </trkpt>
      <trkpt lat="49.24261" lon="-0.26393">
        <ele>3.9</ele>
        <time>2022-05-31T14:43:08Z</time>
      </trkpt>
      <trkpt lat="49.24261" lon="-0.26392">
        <ele>3.9</ele>
        <time>2022-05-31T14:43:09Z</time>
      </trkpt>
      <trkpt lat="49.24262" lon="-0.26391">
        <ele>3.9</ele>
        <time>2022-05-31T14:43:10Z</time>
      </trkpt>
      <trkpt lat="49.24264" lon="-0.2639">
        <ele>3.9</ele>
        <time>2022-05-31T14:43:11Z</time>
      </trkpt>
      <trkpt lat="49.24264" lon="-0.2639">
        <ele>3.9</ele>
        <time>2022-05-31T14:43:12Z</time>
      </trkpt>
      <trkpt lat="49.24265" lon="-0.2639">
        <ele>3.9</ele>
        <time>2022-05-31T14:43:13Z</time>
      </trkpt>
      <trkpt lat="49.24265" lon="-0.26389">
        <ele>3.9</ele>
        <time>2022-05-31T14:43:14Z</time>
      </trkpt>
      <trkpt lat="49.24266" lon="-0.26389">
        <ele>3.9</ele>
        <time>2022-05-31T14:43:15Z</time>
      </trkpt>
      <trkpt lat="49.24267" lon="-0.26388">
        <ele>3.9</ele>
        <time>2022-05-31T14:43:16Z</time>
      </trkpt>
      <trkpt lat="49.24268" lon="-0.26387">
        <ele>3.9</ele>
        <time>2022-05-31T14:43:17Z</time>
      </trkpt>
      <trkpt lat="49.2427" lon="-0.26386">
        <ele>3.9</ele>
        <time>2022-05-31T14:43:18Z</time>
      </trkpt>
      <trkpt lat="49.24271" lon="-0.26385">
        <ele>3.9</ele>
        <time>2022-05-31T14:43:19Z</time>
      </trkpt>
      <trkpt lat="49.24273" lon="-0.26384">
        <ele>3.9</ele>
        <time>2022-05-31T14:43:21Z</time>
      </trkpt>
      <trkpt lat="49.24274" lon="-0.26383">
        <ele>3.9</ele>
        <time>2022-05-31T14:43:22Z</time>
      </trkpt>
      <trkpt lat="49.24276" lon="-0.26381">
        <ele>4</ele>
        <time>2022-05-31T14:43:23Z</time>
      </trkpt>
      <trkpt lat="49.24276" lon="-0.2638">
        <ele>4</ele>
        <time>2022-05-31T14:43:24Z</time>
      </trkpt>
      <trkpt lat="49.24277" lon="-0.26379">
        <ele>4</ele>
        <time>2022-05-31T14:43:25Z</time>
      </trkpt>
      <trkpt lat="49.24278" lon="-0.26379">
        <ele>4</ele>
        <time>2022-05-31T14:43:26Z</time>
      </trkpt>
      <trkpt lat="49.24279" lon="-0.26378">
        <ele>4</ele>
        <time>2022-05-31T14:43:27Z</time>
      </trkpt>
      <trkpt lat="49.2428" lon="-0.26377">
        <ele>4</ele>
        <time>2022-05-31T14:43:28Z</time>
      </trkpt>
      <trkpt lat="49.24281" lon="-0.26376">
        <ele>4</ele>
        <time>2022-05-31T14:43:29Z</time>
      </trkpt>
      <trkpt lat="49.24282" lon="-0.26375">
        <ele>4</ele>
        <time>2022-05-31T14:43:30Z</time>
      </trkpt>
      <trkpt lat="49.24283" lon="-0.26375">
        <ele>4</ele>
        <time>2022-05-31T14:43:31Z</time>
      </trkpt>
      <trkpt lat="49.24285" lon="-0.26373">
        <ele>4</ele>
        <time>2022-05-31T14:43:32Z</time>
      </trkpt>
      <trkpt lat="49.24285" lon="-0.26373">
        <ele>4</ele>
        <time>2022-05-31T14:43:33Z</time>
      </trkpt>
      <trkpt lat="49.24286" lon="-0.26372">
        <ele>4.1</ele>
        <time>2022-05-31T14:43:35Z</time>
      </trkpt>
      <trkpt lat="49.24286" lon="-0.26372">
        <ele>4.1</ele>
        <time>2022-05-31T14:43:36Z</time>
      </trkpt>
      <trkpt lat="49.24287" lon="-0.26371">
        <ele>4.1</ele>
        <time>2022-05-31T14:43:37Z</time>
      </trkpt>
      <trkpt lat="49.24288" lon="-0.2637">
        <ele>4.1</ele>
        <time>2022-05-31T14:43:38Z</time>
      </trkpt>
      <trkpt lat="49.24289" lon="-0.26369">
        <ele>4.1</ele>
        <time>2022-05-31T14:43:39Z</time>
      </trkpt>
      <trkpt lat="49.2429" lon="-0.26368">
        <ele>4.1</ele>
        <time>2022-05-31T14:43:40Z</time>
      </trkpt>
      <trkpt lat="49.24292" lon="-0.26367">
        <ele>4.1</ele>
        <time>2022-05-31T14:43:41Z</time>
      </trkpt>
      <trkpt lat="49.24292" lon="-0.26366">
        <ele>4.1</ele>
        <time>2022-05-31T14:43:42Z</time>
      </trkpt>
      <trkpt lat="49.24293" lon="-0.26366">
        <ele>4.1</ele>
        <time>2022-05-31T14:43:43Z</time>
      </trkpt>
      <trkpt lat="49.24294" lon="-0.26365">
        <ele>4.1</ele>
        <time>2022-05-31T14:43:44Z</time>
      </trkpt>
      <trkpt lat="49.24295" lon="-0.26364">
        <ele>4.1</ele>
        <time>2022-05-31T14:43:45Z</time>
      </trkpt>
      <trkpt lat="49.24297" lon="-0.26363">
        <ele>4.1</ele>
        <time>2022-05-31T14:43:46Z</time>
      </trkpt>
      <trkpt lat="49.24298" lon="-0.26362">
        <ele>4.1</ele>
        <time>2022-05-31T14:43:47Z</time>
      </trkpt>
      <trkpt lat="49.24299" lon="-0.26362">
        <ele>4.1</ele>
        <time>2022-05-31T14:43:49Z</time>
      </trkpt>
      <trkpt lat="49.243" lon="-0.26361">
        <ele>4.1</ele>
        <time>2022-05-31T14:43:50Z</time>
      </trkpt>
      <trkpt lat="49.243" lon="-0.26362">
        <ele>4.1</ele>
        <time>2022-05-31T14:43:51Z</time>
      </trkpt>
      <trkpt lat="49.24301" lon="-0.26361">
        <ele>4.1</ele>
        <time>2022-05-31T14:43:52Z</time>
      </trkpt>
      <trkpt lat="49.24302" lon="-0.2636">
        <ele>4.1</ele>
        <time>2022-05-31T14:43:53Z</time>
      </trkpt>
      <trkpt lat="49.24303" lon="-0.26359">
        <ele>4.1</ele>
        <time>2022-05-31T14:43:54Z</time>
      </trkpt>
      <trkpt lat="49.24305" lon="-0.26358">
        <ele>4.1</ele>
        <time>2022-05-31T14:43:55Z</time>
      </trkpt>
      <trkpt lat="49.24307" lon="-0.26356">
        <ele>4.1</ele>
        <time>2022-05-31T14:43:56Z</time>
      </trkpt>
      <trkpt lat="49.24308" lon="-0.26355">
        <ele>4.1</ele>
        <time>2022-05-31T14:43:57Z</time>
      </trkpt>
      <trkpt lat="49.24309" lon="-0.26355">
        <ele>4.1</ele>
        <time>2022-05-31T14:43:58Z</time>
      </trkpt>
      <trkpt lat="49.2431" lon="-0.26354">
        <ele>4.1</ele>
        <time>2022-05-31T14:43:59Z</time>
      </trkpt>
      <trkpt lat="49.24311" lon="-0.26353">
        <ele>4.1</ele>
        <time>2022-05-31T14:44:00Z</time>
      </trkpt>
      <trkpt lat="49.24312" lon="-0.26352">
        <ele>4.1</ele>
        <time>2022-05-31T14:44:01Z</time>
      </trkpt>
      <trkpt lat="49.24313" lon="-0.26352">
        <ele>4.1</ele>
        <time>2022-05-31T14:44:02Z</time>
      </trkpt>
      <trkpt lat="49.24314" lon="-0.26351">
        <ele>4.1</ele>
        <time>2022-05-31T14:44:03Z</time>
      </trkpt>
      <trkpt lat="49.24316" lon="-0.26349">
        <ele>4</ele>
        <time>2022-05-31T14:44:05Z</time>
      </trkpt>
      <trkpt lat="49.24316" lon="-0.26349">
        <ele>4</ele>
        <time>2022-05-31T14:44:06Z</time>
      </trkpt>
      <trkpt lat="49.24317" lon="-0.26348">
        <ele>4</ele>
        <time>2022-05-31T14:44:07Z</time>
      </trkpt>
      <trkpt lat="49.24318" lon="-0.26347">
        <ele>4</ele>
        <time>2022-05-31T14:44:08Z</time>
      </trkpt>
      <trkpt lat="49.24319" lon="-0.26347">
        <ele>4</ele>
        <time>2022-05-31T14:44:09Z</time>
      </trkpt>
      <trkpt lat="49.2432" lon="-0.26346">
        <ele>4</ele>
        <time>2022-05-31T14:44:10Z</time>
      </trkpt>
      <trkpt lat="49.2432" lon="-0.26345">
        <ele>4</ele>
        <time>2022-05-31T14:44:11Z</time>
      </trkpt>
      <trkpt lat="49.24322" lon="-0.26344">
        <ele>4</ele>
        <time>2022-05-31T14:44:12Z</time>
      </trkpt>
      <trkpt lat="49.24323" lon="-0.26343">
        <ele>4</ele>
        <time>2022-05-31T14:44:13Z</time>
      </trkpt>
      <trkpt lat="49.24325" lon="-0.26341">
        <ele>4</ele>
        <time>2022-05-31T14:44:14Z</time>
      </trkpt>
      <trkpt lat="49.24326" lon="-0.2634">
        <ele>4</ele>
        <time>2022-05-31T14:44:15Z</time>
      </trkpt>
      <trkpt lat="49.24326" lon="-0.26339">
        <ele>4</ele>
        <time>2022-05-31T14:44:16Z</time>
      </trkpt>
      <trkpt lat="49.24327" lon="-0.26338">
        <ele>4</ele>
        <time>2022-05-31T14:44:17Z</time>
      </trkpt>
      <trkpt lat="49.24328" lon="-0.26338">
        <ele>4</ele>
        <time>2022-05-31T14:44:18Z</time>
      </trkpt>
      <trkpt lat="49.24329" lon="-0.26336">
        <ele>4</ele>
        <time>2022-05-31T14:44:19Z</time>
      </trkpt>
      <trkpt lat="49.2433" lon="-0.26336">
        <ele>4</ele>
        <time>2022-05-31T14:44:21Z</time>
      </trkpt>
      <trkpt lat="49.24332" lon="-0.26334">
        <ele>4</ele>
        <time>2022-05-31T14:44:22Z</time>
      </trkpt>
      <trkpt lat="49.24332" lon="-0.26334">
        <ele>4</ele>
        <time>2022-05-31T14:44:23Z</time>
      </trkpt>
      <trkpt lat="49.24333" lon="-0.26333">
        <ele>4</ele>
        <time>2022-05-31T14:44:24Z</time>
      </trkpt>
      <trkpt lat="49.24334" lon="-0.26332">
        <ele>4</ele>
        <time>2022-05-31T14:44:25Z</time>
      </trkpt>
      <trkpt lat="49.24335" lon="-0.26332">
        <ele>4</ele>
        <time>2022-05-31T14:44:26Z</time>
      </trkpt>
      <trkpt lat="49.24337" lon="-0.2633">
        <ele>4</ele>
        <time>2022-05-31T14:44:27Z</time>
      </trkpt>
      <trkpt lat="49.24337" lon="-0.2633">
        <ele>4</ele>
        <time>2022-05-31T14:44:28Z</time>
      </trkpt>
      <trkpt lat="49.24338" lon="-0.26329">
        <ele>4</ele>
        <time>2022-05-31T14:44:29Z</time>
      </trkpt>
      <trkpt lat="49.24339" lon="-0.26328">
        <ele>4</ele>
        <time>2022-05-31T14:44:30Z</time>
      </trkpt>
      <trkpt lat="49.2434" lon="-0.26327">
        <ele>4</ele>
        <time>2022-05-31T14:44:31Z</time>
      </trkpt>
      <trkpt lat="49.24341" lon="-0.26326">
        <ele>4</ele>
        <time>2022-05-31T14:44:32Z</time>
      </trkpt>
      <trkpt lat="49.24342" lon="-0.26325">
        <ele>4</ele>
        <time>2022-05-31T14:44:33Z</time>
      </trkpt>
      <trkpt lat="49.24343" lon="-0.26324">
        <ele>4</ele>
        <time>2022-05-31T14:44:34Z</time>
      </trkpt>
      <trkpt lat="49.24345" lon="-0.26323">
        <ele>4</ele>
        <time>2022-05-31T14:44:36Z</time>
      </trkpt>
      <trkpt lat="49.24345" lon="-0.26322">
        <ele>4</ele>
        <time>2022-05-31T14:44:37Z</time>
      </trkpt>
      <trkpt lat="49.24346" lon="-0.26322">
        <ele>4</ele>
        <time>2022-05-31T14:44:38Z</time>
      </trkpt>
      <trkpt lat="49.24347" lon="-0.26321">
        <ele>4</ele>
        <time>2022-05-31T14:44:39Z</time>
      </trkpt>
      <trkpt lat="49.24349" lon="-0.2632">
        <ele>4</ele>
        <time>2022-05-31T14:44:40Z</time>
      </trkpt>
      <trkpt lat="49.24349" lon="-0.26319">
        <ele>4</ele>
        <time>2022-05-31T14:44:41Z</time>
      </trkpt>
      <trkpt lat="49.2435" lon="-0.26319">
        <ele>4</ele>
        <time>2022-05-31T14:44:42Z</time>
      </trkpt>
      <trkpt lat="49.24352" lon="-0.26317">
        <ele>4</ele>
        <time>2022-05-31T14:44:43Z</time>
      </trkpt>
      <trkpt lat="49.24353" lon="-0.26316">
        <ele>4</ele>
        <time>2022-05-31T14:44:44Z</time>
      </trkpt>
      <trkpt lat="49.24354" lon="-0.26316">
        <ele>4</ele>
        <time>2022-05-31T14:44:45Z</time>
      </trkpt>
      <trkpt lat="49.24355" lon="-0.26315">
        <ele>4</ele>
        <time>2022-05-31T14:44:46Z</time>
      </trkpt>
      <trkpt lat="49.24356" lon="-0.26314">
        <ele>4</ele>
        <time>2022-05-31T14:44:47Z</time>
      </trkpt>
      <trkpt lat="49.24357" lon="-0.26313">
        <ele>4</ele>
        <time>2022-05-31T14:44:48Z</time>
      </trkpt>
      <trkpt lat="49.24358" lon="-0.26312">
        <ele>4</ele>
        <time>2022-05-31T14:44:49Z</time>
      </trkpt>
      <trkpt lat="49.24359" lon="-0.26311">
        <ele>4</ele>
        <time>2022-05-31T14:44:51Z</time>
      </trkpt>
      <trkpt lat="49.2436" lon="-0.26311">
        <ele>4</ele>
        <time>2022-05-31T14:44:52Z</time>
      </trkpt>
      <trkpt lat="49.24361" lon="-0.2631">
        <ele>4</ele>
        <time>2022-05-31T14:44:53Z</time>
      </trkpt>
      <trkpt lat="49.24362" lon="-0.26309">
        <ele>4</ele>
        <time>2022-05-31T14:44:54Z</time>
      </trkpt>
      <trkpt lat="49.24363" lon="-0.26308">
        <ele>4</ele>
        <time>2022-05-31T14:44:55Z</time>
      </trkpt>
      <trkpt lat="49.24364" lon="-0.26308">
        <ele>4</ele>
        <time>2022-05-31T14:44:56Z</time>
      </trkpt>
      <trkpt lat="49.24365" lon="-0.26307">
        <ele>4.1</ele>
        <time>2022-05-31T14:44:57Z</time>
      </trkpt>
      <trkpt lat="49.24366" lon="-0.26306">
        <ele>4.1</ele>
        <time>2022-05-31T14:44:58Z</time>
      </trkpt>
      <trkpt lat="49.24367" lon="-0.26305">
        <ele>4.1</ele>
        <time>2022-05-31T14:44:59Z</time>
      </trkpt>
      <trkpt lat="49.24369" lon="-0.26304">
        <ele>4.1</ele>
        <time>2022-05-31T14:45:00Z</time>
      </trkpt>
      <trkpt lat="49.24371" lon="-0.26302">
        <ele>4.1</ele>
        <time>2022-05-31T14:45:01Z</time>
      </trkpt>
      <trkpt lat="49.24371" lon="-0.26301">
        <ele>4.1</ele>
        <time>2022-05-31T14:45:02Z</time>
      </trkpt>
      <trkpt lat="49.24372" lon="-0.26301">
        <ele>4.1</ele>
        <time>2022-05-31T14:45:03Z</time>
      </trkpt>
      <trkpt lat="49.24373" lon="-0.263">
        <ele>4.1</ele>
        <time>2022-05-31T14:45:05Z</time>
      </trkpt>
      <trkpt lat="49.24374" lon="-0.26299">
        <ele>4.1</ele>
        <time>2022-05-31T14:45:06Z</time>
      </trkpt>
      <trkpt lat="49.24376" lon="-0.26297">
        <ele>4.1</ele>
        <time>2022-05-31T14:45:07Z</time>
      </trkpt>
      <trkpt lat="49.24377" lon="-0.26296">
        <ele>4.1</ele>
        <time>2022-05-31T14:45:08Z</time>
      </trkpt>
      <trkpt lat="49.24377" lon="-0.26295">
        <ele>4.1</ele>
        <time>2022-05-31T14:45:09Z</time>
      </trkpt>
      <trkpt lat="49.24378" lon="-0.26294">
        <ele>4.1</ele>
        <time>2022-05-31T14:45:10Z</time>
      </trkpt>
      <trkpt lat="49.2438" lon="-0.26293">
        <ele>4.1</ele>
        <time>2022-05-31T14:45:11Z</time>
      </trkpt>
      <trkpt lat="49.24382" lon="-0.26291">
        <ele>4.1</ele>
        <time>2022-05-31T14:45:12Z</time>
      </trkpt>
      <trkpt lat="49.24383" lon="-0.2629">
        <ele>4.1</ele>
        <time>2022-05-31T14:45:13Z</time>
      </trkpt>
      <trkpt lat="49.24384" lon="-0.26289">
        <ele>4.1</ele>
        <time>2022-05-31T14:45:14Z</time>
      </trkpt>
      <trkpt lat="49.24385" lon="-0.26288">
        <ele>4.1</ele>
        <time>2022-05-31T14:45:15Z</time>
      </trkpt>
      <trkpt lat="49.24386" lon="-0.26287">
        <ele>4.1</ele>
        <time>2022-05-31T14:45:16Z</time>
      </trkpt>
      <trkpt lat="49.24387" lon="-0.26286">
        <ele>4.1</ele>
        <time>2022-05-31T14:45:17Z</time>
      </trkpt>
      <trkpt lat="49.24388" lon="-0.26285">
        <ele>4.1</ele>
        <time>2022-05-31T14:45:18Z</time>
      </trkpt>
      <trkpt lat="49.2439" lon="-0.26284">
        <ele>4.1</ele>
        <time>2022-05-31T14:45:20Z</time>
      </trkpt>
      <trkpt lat="49.24391" lon="-0.26283">
        <ele>4.1</ele>
        <time>2022-05-31T14:45:21Z</time>
      </trkpt>
      <trkpt lat="49.24392" lon="-0.26282">
        <ele>4.1</ele>
        <time>2022-05-31T14:45:22Z</time>
      </trkpt>
      <trkpt lat="49.24394" lon="-0.2628">
        <ele>4.1</ele>
        <time>2022-05-31T14:45:23Z</time>
      </trkpt>
      <trkpt lat="49.24395" lon="-0.2628">
        <ele>4.1</ele>
        <time>2022-05-31T14:45:24Z</time>
      </trkpt>
      <trkpt lat="49.24396" lon="-0.26279">
        <ele>4.1</ele>
        <time>2022-05-31T14:45:25Z</time>
      </trkpt>
      <trkpt lat="49.24397" lon="-0.26278">
        <ele>4.1</ele>
        <time>2022-05-31T14:45:26Z</time>
      </trkpt>
      <trkpt lat="49.24398" lon="-0.26278">
        <ele>4.1</ele>
        <time>2022-05-31T14:45:28Z</time>
      </trkpt>
      <trkpt lat="49.24399" lon="-0.26277">
        <ele>4.1</ele>
        <time>2022-05-31T14:45:29Z</time>
      </trkpt>
      <trkpt lat="49.244" lon="-0.26276">
        <ele>4.1</ele>
        <time>2022-05-31T14:45:30Z</time>
      </trkpt>
      <trkpt lat="49.24401" lon="-0.26276">
        <ele>4.1</ele>
        <time>2022-05-31T14:45:31Z</time>
      </trkpt>
      <trkpt lat="49.24402" lon="-0.26275">
        <ele>4.1</ele>
        <time>2022-05-31T14:45:32Z</time>
      </trkpt>
      <trkpt lat="49.24402" lon="-0.26275">
        <ele>4.1</ele>
        <time>2022-05-31T14:45:33Z</time>
      </trkpt>
      <trkpt lat="49.24403" lon="-0.26274">
        <ele>4.1</ele>
        <time>2022-05-31T14:45:35Z</time>
      </trkpt>
      <trkpt lat="49.24404" lon="-0.26273">
        <ele>4.1</ele>
        <time>2022-05-31T14:45:36Z</time>
      </trkpt>
      <trkpt lat="49.24406" lon="-0.26271">
        <ele>4.1</ele>
        <time>2022-05-31T14:45:37Z</time>
      </trkpt>
      <trkpt lat="49.24407" lon="-0.2627">
        <ele>4.1</ele>
        <time>2022-05-31T14:45:38Z</time>
      </trkpt>
      <trkpt lat="49.24408" lon="-0.2627">
        <ele>4.1</ele>
        <time>2022-05-31T14:45:39Z</time>
      </trkpt>
      <trkpt lat="49.24409" lon="-0.26268">
        <ele>4.1</ele>
        <time>2022-05-31T14:45:40Z</time>
      </trkpt>
      <trkpt lat="49.2441" lon="-0.26268">
        <ele>4.1</ele>
        <time>2022-05-31T14:45:41Z</time>
      </trkpt>
      <trkpt lat="49.24411" lon="-0.26267">
        <ele>4.1</ele>
        <time>2022-05-31T14:45:42Z</time>
      </trkpt>
      <trkpt lat="49.24413" lon="-0.26266">
        <ele>4.1</ele>
        <time>2022-05-31T14:45:43Z</time>
      </trkpt>
      <trkpt lat="49.24414" lon="-0.26265">
        <ele>4.1</ele>
        <time>2022-05-31T14:45:44Z</time>
      </trkpt>
      <trkpt lat="49.24414" lon="-0.26264">
        <ele>4.1</ele>
        <time>2022-05-31T14:45:46Z</time>
      </trkpt>
      <trkpt lat="49.24415" lon="-0.26263">
        <ele>4.1</ele>
        <time>2022-05-31T14:45:47Z</time>
      </trkpt>
      <trkpt lat="49.24416" lon="-0.26263">
        <ele>4.1</ele>
        <time>2022-05-31T14:45:48Z</time>
      </trkpt>
      <trkpt lat="49.24417" lon="-0.26262">
        <ele>4.1</ele>
        <time>2022-05-31T14:45:49Z</time>
      </trkpt>
      <trkpt lat="49.24418" lon="-0.26261">
        <ele>4.1</ele>
        <time>2022-05-31T14:45:50Z</time>
      </trkpt>
      <trkpt lat="49.24419" lon="-0.26261">
        <ele>4.1</ele>
        <time>2022-05-31T14:45:51Z</time>
      </trkpt>
      <trkpt lat="49.2442" lon="-0.2626">
        <ele>4.1</ele>
        <time>2022-05-31T14:45:52Z</time>
      </trkpt>
      <trkpt lat="49.24422" lon="-0.26259">
        <ele>4.1</ele>
        <time>2022-05-31T14:45:54Z</time>
      </trkpt>
      <trkpt lat="49.24423" lon="-0.26258">
        <ele>4.1</ele>
        <time>2022-05-31T14:45:55Z</time>
      </trkpt>
      <trkpt lat="49.24424" lon="-0.26257">
        <ele>4.1</ele>
        <time>2022-05-31T14:45:56Z</time>
      </trkpt>
      <trkpt lat="49.24427" lon="-0.26255">
        <ele>4.1</ele>
        <time>2022-05-31T14:45:57Z</time>
      </trkpt>
      <trkpt lat="49.24428" lon="-0.26255">
        <ele>4.1</ele>
        <time>2022-05-31T14:45:58Z</time>
      </trkpt>
      <trkpt lat="49.24429" lon="-0.26254">
        <ele>4.1</ele>
        <time>2022-05-31T14:45:59Z</time>
      </trkpt>
      <trkpt lat="49.24431" lon="-0.26253">
        <ele>4.1</ele>
        <time>2022-05-31T14:46:00Z</time>
      </trkpt>
      <trkpt lat="49.24432" lon="-0.26252">
        <ele>4.1</ele>
        <time>2022-05-31T14:46:01Z</time>
      </trkpt>
      <trkpt lat="49.24434" lon="-0.26251">
        <ele>4.1</ele>
        <time>2022-05-31T14:46:02Z</time>
      </trkpt>
      <trkpt lat="49.24435" lon="-0.2625">
        <ele>4.1</ele>
        <time>2022-05-31T14:46:03Z</time>
      </trkpt>
      <trkpt lat="49.24437" lon="-0.26249">
        <ele>4.1</ele>
        <time>2022-05-31T14:46:05Z</time>
      </trkpt>
      <trkpt lat="49.24438" lon="-0.26247">
        <ele>4.1</ele>
        <time>2022-05-31T14:46:06Z</time>
      </trkpt>
      <trkpt lat="49.24439" lon="-0.26246">
        <ele>4.1</ele>
        <time>2022-05-31T14:46:07Z</time>
      </trkpt>
      <trkpt lat="49.24441" lon="-0.26245">
        <ele>4.1</ele>
        <time>2022-05-31T14:46:08Z</time>
      </trkpt>
      <trkpt lat="49.24442" lon="-0.26244">
        <ele>4.1</ele>
        <time>2022-05-31T14:46:09Z</time>
      </trkpt>
      <trkpt lat="49.24443" lon="-0.26243">
        <ele>4.1</ele>
        <time>2022-05-31T14:46:10Z</time>
      </trkpt>
      <trkpt lat="49.24444" lon="-0.26242">
        <ele>4.1</ele>
        <time>2022-05-31T14:46:11Z</time>
      </trkpt>
      <trkpt lat="49.24446" lon="-0.2624">
        <ele>4.1</ele>
        <time>2022-05-31T14:46:12Z</time>
      </trkpt>
      <trkpt lat="49.24446" lon="-0.26239">
        <ele>4.1</ele>
        <time>2022-05-31T14:46:13Z</time>
      </trkpt>
      <trkpt lat="49.24447" lon="-0.26239">
        <ele>4.1</ele>
        <time>2022-05-31T14:46:14Z</time>
      </trkpt>
      <trkpt lat="49.24447" lon="-0.26238">
        <ele>4.1</ele>
        <time>2022-05-31T14:46:15Z</time>
      </trkpt>
      <trkpt lat="49.24448" lon="-0.26237">
        <ele>4.1</ele>
        <time>2022-05-31T14:46:16Z</time>
      </trkpt>
      <trkpt lat="49.24449" lon="-0.26236">
        <ele>4.1</ele>
        <time>2022-05-31T14:46:17Z</time>
      </trkpt>
      <trkpt lat="49.24451" lon="-0.26234">
        <ele>4.1</ele>
        <time>2022-05-31T14:46:19Z</time>
      </trkpt>
      <trkpt lat="49.24452" lon="-0.26233">
        <ele>4.1</ele>
        <time>2022-05-31T14:46:20Z</time>
      </trkpt>
      <trkpt lat="49.24455" lon="-0.2623">
        <ele>4.1</ele>
        <time>2022-05-31T14:46:21Z</time>
      </trkpt>
      <trkpt lat="49.24456" lon="-0.26229">
        <ele>4.1</ele>
        <time>2022-05-31T14:46:22Z</time>
      </trkpt>
      <trkpt lat="49.24459" lon="-0.26227">
        <ele>4.1</ele>
        <time>2022-05-31T14:46:23Z</time>
      </trkpt>
      <trkpt lat="49.2446" lon="-0.26226">
        <ele>4.1</ele>
        <time>2022-05-31T14:46:24Z</time>
      </trkpt>
      <trkpt lat="49.24461" lon="-0.26224">
        <ele>4.1</ele>
        <time>2022-05-31T14:46:26Z</time>
      </trkpt>
      <trkpt lat="49.24462" lon="-0.26223">
        <ele>4.1</ele>
        <time>2022-05-31T14:46:27Z</time>
      </trkpt>
      <trkpt lat="49.24464" lon="-0.26222">
        <ele>4.1</ele>
        <time>2022-05-31T14:46:28Z</time>
      </trkpt>
      <trkpt lat="49.24465" lon="-0.26222">
        <ele>4.1</ele>
        <time>2022-05-31T14:46:29Z</time>
      </trkpt>
      <trkpt lat="49.24465" lon="-0.26221">
        <ele>4.1</ele>
        <time>2022-05-31T14:46:30Z</time>
      </trkpt>
      <trkpt lat="49.24466" lon="-0.26221">
        <ele>4.1</ele>
        <time>2022-05-31T14:46:31Z</time>
      </trkpt>
      <trkpt lat="49.24467" lon="-0.2622">
        <ele>4.1</ele>
        <time>2022-05-31T14:46:32Z</time>
      </trkpt>
      <trkpt lat="49.24469" lon="-0.26218">
        <ele>4.1</ele>
        <time>2022-05-31T14:46:33Z</time>
      </trkpt>
      <trkpt lat="49.2447" lon="-0.26218">
        <ele>4.1</ele>
        <time>2022-05-31T14:46:34Z</time>
      </trkpt>
      <trkpt lat="49.24471" lon="-0.26217">
        <ele>4.1</ele>
        <time>2022-05-31T14:46:36Z</time>
      </trkpt>
      <trkpt lat="49.24471" lon="-0.26216">
        <ele>4.1</ele>
        <time>2022-05-31T14:46:37Z</time>
      </trkpt>
      <trkpt lat="49.24473" lon="-0.26215">
        <ele>4.1</ele>
        <time>2022-05-31T14:46:38Z</time>
      </trkpt>
      <trkpt lat="49.24474" lon="-0.26215">
        <ele>4.1</ele>
        <time>2022-05-31T14:46:39Z</time>
      </trkpt>
      <trkpt lat="49.24475" lon="-0.26214">
        <ele>4.1</ele>
        <time>2022-05-31T14:46:40Z</time>
      </trkpt>
      <trkpt lat="49.24476" lon="-0.26213">
        <ele>4.1</ele>
        <time>2022-05-31T14:46:41Z</time>
      </trkpt>
      <trkpt lat="49.24477" lon="-0.26212">
        <ele>4.1</ele>
        <time>2022-05-31T14:46:42Z</time>
      </trkpt>
      <trkpt lat="49.24478" lon="-0.26211">
        <ele>4.1</ele>
        <time>2022-05-31T14:46:43Z</time>
      </trkpt>
      <trkpt lat="49.24478" lon="-0.26211">
        <ele>4.1</ele>
        <time>2022-05-31T14:46:45Z</time>
      </trkpt>
      <trkpt lat="49.24479" lon="-0.26211">
        <ele>4.1</ele>
        <time>2022-05-31T14:46:46Z</time>
      </trkpt>
      <trkpt lat="49.2448" lon="-0.2621">
        <ele>4.1</ele>
        <time>2022-05-31T14:46:47Z</time>
      </trkpt>
      <trkpt lat="49.2448" lon="-0.2621">
        <ele>4.1</ele>
        <time>2022-05-31T14:46:48Z</time>
      </trkpt>
      <trkpt lat="49.2448" lon="-0.2621">
        <ele>4.1</ele>
        <time>2022-05-31T14:46:49Z</time>
      </trkpt>
      <trkpt lat="49.24481" lon="-0.26209">
        <ele>4.1</ele>
        <time>2022-05-31T14:46:50Z</time>
      </trkpt>
      <trkpt lat="49.24482" lon="-0.26209">
        <ele>4.1</ele>
        <time>2022-05-31T14:46:51Z</time>
      </trkpt>
      <trkpt lat="49.24483" lon="-0.26208">
        <ele>4.1</ele>
        <time>2022-05-31T14:46:52Z</time>
      </trkpt>
      <trkpt lat="49.24485" lon="-0.26207">
        <ele>4.1</ele>
        <time>2022-05-31T14:46:53Z</time>
      </trkpt>
      <trkpt lat="49.24486" lon="-0.26207">
        <ele>4.1</ele>
        <time>2022-05-31T14:46:54Z</time>
      </trkpt>
      <trkpt lat="49.24487" lon="-0.26206">
        <ele>4.1</ele>
        <time>2022-05-31T14:46:55Z</time>
      </trkpt>
      <trkpt lat="49.24488" lon="-0.26205">
        <ele>4.1</ele>
        <time>2022-05-31T14:46:57Z</time>
      </trkpt>
      <trkpt lat="49.24489" lon="-0.26205">
        <ele>4.1</ele>
        <time>2022-05-31T14:46:58Z</time>
      </trkpt>
      <trkpt lat="49.24489" lon="-0.26205">
        <ele>4.1</ele>
        <time>2022-05-31T14:46:59Z</time>
      </trkpt>
      <trkpt lat="49.2449" lon="-0.26204">
        <ele>4.1</ele>
        <time>2022-05-31T14:47:00Z</time>
      </trkpt>
      <trkpt lat="49.24491" lon="-0.26202">
        <ele>4.1</ele>
        <time>2022-05-31T14:47:01Z</time>
      </trkpt>
      <trkpt lat="49.24492" lon="-0.26202">
        <ele>4.1</ele>
        <time>2022-05-31T14:47:02Z</time>
      </trkpt>
      <trkpt lat="49.24493" lon="-0.26201">
        <ele>4.1</ele>
        <time>2022-05-31T14:47:03Z</time>
      </trkpt>
      <trkpt lat="49.24494" lon="-0.262">
        <ele>4.1</ele>
        <time>2022-05-31T14:47:04Z</time>
      </trkpt>
      <trkpt lat="49.24495" lon="-0.26199">
        <ele>4.1</ele>
        <time>2022-05-31T14:47:05Z</time>
      </trkpt>
      <trkpt lat="49.24496" lon="-0.26198">
        <ele>4.1</ele>
        <time>2022-05-31T14:47:06Z</time>
      </trkpt>
      <trkpt lat="49.24497" lon="-0.26197">
        <ele>4.1</ele>
        <time>2022-05-31T14:47:07Z</time>
      </trkpt>
      <trkpt lat="49.24499" lon="-0.26196">
        <ele>4.1</ele>
        <time>2022-05-31T14:47:09Z</time>
      </trkpt>
      <trkpt lat="49.24501" lon="-0.26194">
        <ele>4.1</ele>
        <time>2022-05-31T14:47:10Z</time>
      </trkpt>
      <trkpt lat="49.24501" lon="-0.26193">
        <ele>4.1</ele>
        <time>2022-05-31T14:47:11Z</time>
      </trkpt>
      <trkpt lat="49.24502" lon="-0.26193">
        <ele>4.1</ele>
        <time>2022-05-31T14:47:12Z</time>
      </trkpt>
      <trkpt lat="49.24503" lon="-0.26191">
        <ele>4.1</ele>
        <time>2022-05-31T14:47:13Z</time>
      </trkpt>
      <trkpt lat="49.24505" lon="-0.2619">
        <ele>4.1</ele>
        <time>2022-05-31T14:47:14Z</time>
      </trkpt>
      <trkpt lat="49.24505" lon="-0.26189">
        <ele>4.1</ele>
        <time>2022-05-31T14:47:15Z</time>
      </trkpt>
      <trkpt lat="49.24507" lon="-0.26188">
        <ele>4.1</ele>
        <time>2022-05-31T14:47:16Z</time>
      </trkpt>
      <trkpt lat="49.24508" lon="-0.26187">
        <ele>4.1</ele>
        <time>2022-05-31T14:47:17Z</time>
      </trkpt>
      <trkpt lat="49.24509" lon="-0.26186">
        <ele>4.1</ele>
        <time>2022-05-31T14:47:18Z</time>
      </trkpt>
      <trkpt lat="49.2451" lon="-0.26186">
        <ele>4.1</ele>
        <time>2022-05-31T14:47:19Z</time>
      </trkpt>
      <trkpt lat="49.24511" lon="-0.26185">
        <ele>4.1</ele>
        <time>2022-05-31T14:47:20Z</time>
      </trkpt>
      <trkpt lat="49.24511" lon="-0.26184">
        <ele>4.1</ele>
        <time>2022-05-31T14:47:22Z</time>
      </trkpt>
      <trkpt lat="49.24512" lon="-0.26183">
        <ele>4.1</ele>
        <time>2022-05-31T14:47:23Z</time>
      </trkpt>
      <trkpt lat="49.24513" lon="-0.26182">
        <ele>4.1</ele>
        <time>2022-05-31T14:47:24Z</time>
      </trkpt>
      <trkpt lat="49.24515" lon="-0.26181">
        <ele>4.1</ele>
        <time>2022-05-31T14:47:25Z</time>
      </trkpt>
      <trkpt lat="49.24516" lon="-0.2618">
        <ele>4.1</ele>
        <time>2022-05-31T14:47:26Z</time>
      </trkpt>
      <trkpt lat="49.24517" lon="-0.26179">
        <ele>4.2</ele>
        <time>2022-05-31T14:47:27Z</time>
      </trkpt>
      <trkpt lat="49.24518" lon="-0.26178">
        <ele>4.2</ele>
        <time>2022-05-31T14:47:28Z</time>
      </trkpt>
      <trkpt lat="49.24519" lon="-0.26177">
        <ele>4.2</ele>
        <time>2022-05-31T14:47:29Z</time>
      </trkpt>
      <trkpt lat="49.2452" lon="-0.26176">
        <ele>4.2</ele>
        <time>2022-05-31T14:47:30Z</time>
      </trkpt>
      <trkpt lat="49.24521" lon="-0.26175">
        <ele>4.2</ele>
        <time>2022-05-31T14:47:31Z</time>
      </trkpt>
      <trkpt lat="49.24522" lon="-0.26174">
        <ele>4.2</ele>
        <time>2022-05-31T14:47:32Z</time>
      </trkpt>
      <trkpt lat="49.24523" lon="-0.26173">
        <ele>4.2</ele>
        <time>2022-05-31T14:47:34Z</time>
      </trkpt>
      <trkpt lat="49.24524" lon="-0.26172">
        <ele>4.2</ele>
        <time>2022-05-31T14:47:35Z</time>
      </trkpt>
      <trkpt lat="49.24525" lon="-0.26171">
        <ele>4.2</ele>
        <time>2022-05-31T14:47:36Z</time>
      </trkpt>
      <trkpt lat="49.24526" lon="-0.2617">
        <ele>4.2</ele>
        <time>2022-05-31T14:47:37Z</time>
      </trkpt>
      <trkpt lat="49.24527" lon="-0.26169">
        <ele>4.2</ele>
        <time>2022-05-31T14:47:38Z</time>
      </trkpt>
      <trkpt lat="49.24528" lon="-0.26169">
        <ele>4.2</ele>
        <time>2022-05-31T14:47:39Z</time>
      </trkpt>
      <trkpt lat="49.2453" lon="-0.26167">
        <ele>4.2</ele>
        <time>2022-05-31T14:47:40Z</time>
      </trkpt>
      <trkpt lat="49.24531" lon="-0.26166">
        <ele>4.2</ele>
        <time>2022-05-31T14:47:41Z</time>
      </trkpt>
      <trkpt lat="49.24532" lon="-0.26166">
        <ele>4.2</ele>
        <time>2022-05-31T14:47:42Z</time>
      </trkpt>
      <trkpt lat="49.24533" lon="-0.26165">
        <ele>4.1</ele>
        <time>2022-05-31T14:47:43Z</time>
      </trkpt>
      <trkpt lat="49.24534" lon="-0.26164">
        <ele>4.1</ele>
        <time>2022-05-31T14:47:44Z</time>
      </trkpt>
      <trkpt lat="49.24535" lon="-0.26163">
        <ele>4.1</ele>
        <time>2022-05-31T14:47:45Z</time>
      </trkpt>
      <trkpt lat="49.24536" lon="-0.26162">
        <ele>4.1</ele>
        <time>2022-05-31T14:47:47Z</time>
      </trkpt>
      <trkpt lat="49.24537" lon="-0.26161">
        <ele>4.1</ele>
        <time>2022-05-31T14:47:48Z</time>
      </trkpt>
      <trkpt lat="49.24537" lon="-0.26161">
        <ele>4.1</ele>
        <time>2022-05-31T14:47:49Z</time>
      </trkpt>
      <trkpt lat="49.24538" lon="-0.2616">
        <ele>4.1</ele>
        <time>2022-05-31T14:47:50Z</time>
      </trkpt>
      <trkpt lat="49.2454" lon="-0.26158">
        <ele>4.1</ele>
        <time>2022-05-31T14:47:51Z</time>
      </trkpt>
      <trkpt lat="49.24541" lon="-0.26157">
        <ele>4.1</ele>
        <time>2022-05-31T14:47:53Z</time>
      </trkpt>
      <trkpt lat="49.24543" lon="-0.26157">
        <ele>4.1</ele>
        <time>2022-05-31T14:47:54Z</time>
      </trkpt>
      <trkpt lat="49.24545" lon="-0.26156">
        <ele>4.1</ele>
        <time>2022-05-31T14:47:55Z</time>
      </trkpt>
      <trkpt lat="49.24545" lon="-0.26155">
        <ele>4.1</ele>
        <time>2022-05-31T14:47:56Z</time>
      </trkpt>
      <trkpt lat="49.24546" lon="-0.26155">
        <ele>4.1</ele>
        <time>2022-05-31T14:47:57Z</time>
      </trkpt>
      <trkpt lat="49.24547" lon="-0.26154">
        <ele>4.1</ele>
        <time>2022-05-31T14:47:59Z</time>
      </trkpt>
      <trkpt lat="49.24549" lon="-0.26153">
        <ele>4.1</ele>
        <time>2022-05-31T14:48:00Z</time>
      </trkpt>
      <trkpt lat="49.24549" lon="-0.26152">
        <ele>4.1</ele>
        <time>2022-05-31T14:48:01Z</time>
      </trkpt>
      <trkpt lat="49.2455" lon="-0.26152">
        <ele>4.1</ele>
        <time>2022-05-31T14:48:02Z</time>
      </trkpt>
      <trkpt lat="49.24551" lon="-0.26151">
        <ele>4.1</ele>
        <time>2022-05-31T14:48:03Z</time>
      </trkpt>
      <trkpt lat="49.24554" lon="-0.26148">
        <ele>4.1</ele>
        <time>2022-05-31T14:48:05Z</time>
      </trkpt>
      <trkpt lat="49.24555" lon="-0.26147">
        <ele>4.1</ele>
        <time>2022-05-31T14:48:07Z</time>
      </trkpt>
      <trkpt lat="49.24557" lon="-0.26146">
        <ele>4.1</ele>
        <time>2022-05-31T14:48:08Z</time>
      </trkpt>
      <trkpt lat="49.24558" lon="-0.26144">
        <ele>4.1</ele>
        <time>2022-05-31T14:48:09Z</time>
      </trkpt>
      <trkpt lat="49.24559" lon="-0.26143">
        <ele>4.1</ele>
        <time>2022-05-31T14:48:10Z</time>
      </trkpt>
      <trkpt lat="49.2456" lon="-0.26142">
        <ele>4.1</ele>
        <time>2022-05-31T14:48:12Z</time>
      </trkpt>
      <trkpt lat="49.24561" lon="-0.26141">
        <ele>4.1</ele>
        <time>2022-05-31T14:48:13Z</time>
      </trkpt>
      <trkpt lat="49.24562" lon="-0.2614">
        <ele>4.1</ele>
        <time>2022-05-31T14:48:14Z</time>
      </trkpt>
      <trkpt lat="49.24563" lon="-0.26138">
        <ele>4.1</ele>
        <time>2022-05-31T14:48:15Z</time>
      </trkpt>
      <trkpt lat="49.24563" lon="-0.26137">
        <ele>4.1</ele>
        <time>2022-05-31T14:48:16Z</time>
      </trkpt>
      <trkpt lat="49.24564" lon="-0.26136">
        <ele>4.1</ele>
        <time>2022-05-31T14:48:17Z</time>
      </trkpt>
      <trkpt lat="49.24566" lon="-0.26135">
        <ele>4.1</ele>
        <time>2022-05-31T14:48:18Z</time>
      </trkpt>
      <trkpt lat="49.24568" lon="-0.26134">
        <ele>4.1</ele>
        <time>2022-05-31T14:48:20Z</time>
      </trkpt>
      <trkpt lat="49.24569" lon="-0.26133">
        <ele>4.1</ele>
        <time>2022-05-31T14:48:21Z</time>
      </trkpt>
      <trkpt lat="49.2457" lon="-0.26133">
        <ele>4.1</ele>
        <time>2022-05-31T14:48:22Z</time>
      </trkpt>
      <trkpt lat="49.24572" lon="-0.26132">
        <ele>4.2</ele>
        <time>2022-05-31T14:48:23Z</time>
      </trkpt>
      <trkpt lat="49.24573" lon="-0.26131">
        <ele>4.2</ele>
        <time>2022-05-31T14:48:24Z</time>
      </trkpt>
      <trkpt lat="49.24574" lon="-0.26131">
        <ele>4.2</ele>
        <time>2022-05-31T14:48:25Z</time>
      </trkpt>
      <trkpt lat="49.24575" lon="-0.2613">
        <ele>4.2</ele>
        <time>2022-05-31T14:48:27Z</time>
      </trkpt>
      <trkpt lat="49.24577" lon="-0.26129">
        <ele>4.2</ele>
        <time>2022-05-31T14:48:28Z</time>
      </trkpt>
      <trkpt lat="49.24578" lon="-0.26128">
        <ele>4.2</ele>
        <time>2022-05-31T14:48:29Z</time>
      </trkpt>
      <trkpt lat="49.24578" lon="-0.26128">
        <ele>4.2</ele>
        <time>2022-05-31T14:48:30Z</time>
      </trkpt>
      <trkpt lat="49.2458" lon="-0.26127">
        <ele>4.2</ele>
        <time>2022-05-31T14:48:31Z</time>
      </trkpt>
      <trkpt lat="49.24581" lon="-0.26126">
        <ele>4.2</ele>
        <time>2022-05-31T14:48:32Z</time>
      </trkpt>
      <trkpt lat="49.24582" lon="-0.26125">
        <ele>4.2</ele>
        <time>2022-05-31T14:48:33Z</time>
      </trkpt>
      <trkpt lat="49.24584" lon="-0.26125">
        <ele>4.2</ele>
        <time>2022-05-31T14:48:34Z</time>
      </trkpt>
      <trkpt lat="49.24585" lon="-0.26124">
        <ele>4.2</ele>
        <time>2022-05-31T14:48:35Z</time>
      </trkpt>
      <trkpt lat="49.24586" lon="-0.26123">
        <ele>4.2</ele>
        <time>2022-05-31T14:48:36Z</time>
      </trkpt>
      <trkpt lat="49.24588" lon="-0.26121">
        <ele>4.2</ele>
        <time>2022-05-31T14:48:37Z</time>
      </trkpt>
      <trkpt lat="49.24589" lon="-0.2612">
        <ele>4.2</ele>
        <time>2022-05-31T14:48:38Z</time>
      </trkpt>
      <trkpt lat="49.24591" lon="-0.26119">
        <ele>4.2</ele>
        <time>2022-05-31T14:48:40Z</time>
      </trkpt>
      <trkpt lat="49.24592" lon="-0.26118">
        <ele>4.2</ele>
        <time>2022-05-31T14:48:41Z</time>
      </trkpt>
      <trkpt lat="49.24594" lon="-0.26117">
        <ele>4.2</ele>
        <time>2022-05-31T14:48:42Z</time>
      </trkpt>
      <trkpt lat="49.24595" lon="-0.26116">
        <ele>4.2</ele>
        <time>2022-05-31T14:48:43Z</time>
      </trkpt>
      <trkpt lat="49.24596" lon="-0.26114">
        <ele>4.2</ele>
        <time>2022-05-31T14:48:44Z</time>
      </trkpt>
      <trkpt lat="49.24598" lon="-0.26113">
        <ele>4.2</ele>
        <time>2022-05-31T14:48:45Z</time>
      </trkpt>
      <trkpt lat="49.24599" lon="-0.26111">
        <ele>4.2</ele>
        <time>2022-05-31T14:48:46Z</time>
      </trkpt>
      <trkpt lat="49.246" lon="-0.2611">
        <ele>4.2</ele>
        <time>2022-05-31T14:48:47Z</time>
      </trkpt>
      <trkpt lat="49.24601" lon="-0.2611">
        <ele>4.2</ele>
        <time>2022-05-31T14:48:48Z</time>
      </trkpt>
      <trkpt lat="49.24601" lon="-0.26109">
        <ele>4.2</ele>
        <time>2022-05-31T14:48:49Z</time>
      </trkpt>
      <trkpt lat="49.24602" lon="-0.26108">
        <ele>4.2</ele>
        <time>2022-05-31T14:48:50Z</time>
      </trkpt>
      <trkpt lat="49.24602" lon="-0.26107">
        <ele>4.2</ele>
        <time>2022-05-31T14:48:52Z</time>
      </trkpt>
      <trkpt lat="49.24603" lon="-0.26106">
        <ele>4.2</ele>
        <time>2022-05-31T14:48:53Z</time>
      </trkpt>
      <trkpt lat="49.24604" lon="-0.26105">
        <ele>4.3</ele>
        <time>2022-05-31T14:48:54Z</time>
      </trkpt>
      <trkpt lat="49.24606" lon="-0.26104">
        <ele>4.3</ele>
        <time>2022-05-31T14:48:55Z</time>
      </trkpt>
      <trkpt lat="49.24608" lon="-0.26102">
        <ele>4.3</ele>
        <time>2022-05-31T14:48:56Z</time>
      </trkpt>
      <trkpt lat="49.24609" lon="-0.26101">
        <ele>4.3</ele>
        <time>2022-05-31T14:48:57Z</time>
      </trkpt>
      <trkpt lat="49.2461" lon="-0.261">
        <ele>4.3</ele>
        <time>2022-05-31T14:48:59Z</time>
      </trkpt>
      <trkpt lat="49.24611" lon="-0.261">
        <ele>4.3</ele>
        <time>2022-05-31T14:49:00Z</time>
      </trkpt>
      <trkpt lat="49.24612" lon="-0.26099">
        <ele>4.3</ele>
        <time>2022-05-31T14:49:01Z</time>
      </trkpt>
      <trkpt lat="49.24613" lon="-0.26098">
        <ele>4.3</ele>
        <time>2022-05-31T14:49:02Z</time>
      </trkpt>
      <trkpt lat="49.24614" lon="-0.26097">
        <ele>4.3</ele>
        <time>2022-05-31T14:49:03Z</time>
      </trkpt>
      <trkpt lat="49.24616" lon="-0.26096">
        <ele>4.3</ele>
        <time>2022-05-31T14:49:05Z</time>
      </trkpt>
      <trkpt lat="49.24617" lon="-0.26094">
        <ele>4.3</ele>
        <time>2022-05-31T14:49:06Z</time>
      </trkpt>
      <trkpt lat="49.24618" lon="-0.26093">
        <ele>4.3</ele>
        <time>2022-05-31T14:49:07Z</time>
      </trkpt>
      <trkpt lat="49.24619" lon="-0.26093">
        <ele>4.3</ele>
        <time>2022-05-31T14:49:08Z</time>
      </trkpt>
      <trkpt lat="49.24619" lon="-0.26092">
        <ele>4.3</ele>
        <time>2022-05-31T14:49:09Z</time>
      </trkpt>
      <trkpt lat="49.24619" lon="-0.26092">
        <ele>4.3</ele>
        <time>2022-05-31T14:49:10Z</time>
      </trkpt>
      <trkpt lat="49.24619" lon="-0.26091">
        <ele>4.3</ele>
        <time>2022-05-31T14:49:11Z</time>
      </trkpt>
      <trkpt lat="49.2462" lon="-0.2609">
        <ele>4.3</ele>
        <time>2022-05-31T14:49:12Z</time>
      </trkpt>
      <trkpt lat="49.24621" lon="-0.26089">
        <ele>4.3</ele>
        <time>2022-05-31T14:49:13Z</time>
      </trkpt>
      <trkpt lat="49.24622" lon="-0.26089">
        <ele>4.3</ele>
        <time>2022-05-31T14:49:14Z</time>
      </trkpt>
      <trkpt lat="49.24623" lon="-0.26087">
        <ele>4.3</ele>
        <time>2022-05-31T14:49:15Z</time>
      </trkpt>
      <trkpt lat="49.24624" lon="-0.26087">
        <ele>4.3</ele>
        <time>2022-05-31T14:49:16Z</time>
      </trkpt>
      <trkpt lat="49.24625" lon="-0.26086">
        <ele>4.3</ele>
        <time>2022-05-31T14:49:17Z</time>
      </trkpt>
      <trkpt lat="49.24627" lon="-0.26084">
        <ele>4.3</ele>
        <time>2022-05-31T14:49:19Z</time>
      </trkpt>
      <trkpt lat="49.24628" lon="-0.26084">
        <ele>4.3</ele>
        <time>2022-05-31T14:49:20Z</time>
      </trkpt>
      <trkpt lat="49.24628" lon="-0.26083">
        <ele>4.3</ele>
        <time>2022-05-31T14:49:21Z</time>
      </trkpt>
      <trkpt lat="49.24629" lon="-0.26083">
        <ele>4.3</ele>
        <time>2022-05-31T14:49:22Z</time>
      </trkpt>
      <trkpt lat="49.2463" lon="-0.26082">
        <ele>4.3</ele>
        <time>2022-05-31T14:49:23Z</time>
      </trkpt>
      <trkpt lat="49.24631" lon="-0.26081">
        <ele>4.3</ele>
        <time>2022-05-31T14:49:24Z</time>
      </trkpt>
      <trkpt lat="49.24632" lon="-0.2608">
        <ele>4.3</ele>
        <time>2022-05-31T14:49:25Z</time>
      </trkpt>
      <trkpt lat="49.24632" lon="-0.26079">
        <ele>4.3</ele>
        <time>2022-05-31T14:49:27Z</time>
      </trkpt>
      <trkpt lat="49.24633" lon="-0.26079">
        <ele>4.3</ele>
        <time>2022-05-31T14:49:28Z</time>
      </trkpt>
      <trkpt lat="49.24635" lon="-0.26078">
        <ele>4.3</ele>
        <time>2022-05-31T14:49:29Z</time>
      </trkpt>
      <trkpt lat="49.24636" lon="-0.26077">
        <ele>4.3</ele>
        <time>2022-05-31T14:49:30Z</time>
      </trkpt>
      <trkpt lat="49.24637" lon="-0.26076">
        <ele>4.3</ele>
        <time>2022-05-31T14:49:31Z</time>
      </trkpt>
      <trkpt lat="49.24639" lon="-0.26075">
        <ele>4.3</ele>
        <time>2022-05-31T14:49:33Z</time>
      </trkpt>
      <trkpt lat="49.24639" lon="-0.26074">
        <ele>4.3</ele>
        <time>2022-05-31T14:49:34Z</time>
      </trkpt>
      <trkpt lat="49.2464" lon="-0.26074">
        <ele>4.3</ele>
        <time>2022-05-31T14:49:35Z</time>
      </trkpt>
      <trkpt lat="49.24642" lon="-0.26072">
        <ele>4.3</ele>
        <time>2022-05-31T14:49:36Z</time>
      </trkpt>
      <trkpt lat="49.24643" lon="-0.26071">
        <ele>4.3</ele>
        <time>2022-05-31T14:49:37Z</time>
      </trkpt>
      <trkpt lat="49.24645" lon="-0.26069">
        <ele>4.3</ele>
        <time>2022-05-31T14:49:38Z</time>
      </trkpt>
      <trkpt lat="49.24646" lon="-0.26068">
        <ele>4.3</ele>
        <time>2022-05-31T14:49:39Z</time>
      </trkpt>
      <trkpt lat="49.24648" lon="-0.26066">
        <ele>4.3</ele>
        <time>2022-05-31T14:49:41Z</time>
      </trkpt>
      <trkpt lat="49.24649" lon="-0.26065">
        <ele>4.3</ele>
        <time>2022-05-31T14:49:42Z</time>
      </trkpt>
      <trkpt lat="49.24649" lon="-0.26065">
        <ele>4.3</ele>
        <time>2022-05-31T14:49:43Z</time>
      </trkpt>
      <trkpt lat="49.2465" lon="-0.26065">
        <ele>4.3</ele>
        <time>2022-05-31T14:49:44Z</time>
      </trkpt>
      <trkpt lat="49.24651" lon="-0.26064">
        <ele>4.3</ele>
        <time>2022-05-31T14:49:45Z</time>
      </trkpt>
      <trkpt lat="49.24653" lon="-0.26063">
        <ele>4.3</ele>
        <time>2022-05-31T14:49:47Z</time>
      </trkpt>
      <trkpt lat="49.24654" lon="-0.26063">
        <ele>4.3</ele>
        <time>2022-05-31T14:49:48Z</time>
      </trkpt>
      <trkpt lat="49.24655" lon="-0.26062">
        <ele>4.3</ele>
        <time>2022-05-31T14:49:49Z</time>
      </trkpt>
      <trkpt lat="49.24656" lon="-0.26062">
        <ele>4.3</ele>
        <time>2022-05-31T14:49:50Z</time>
      </trkpt>
      <trkpt lat="49.24657" lon="-0.26061">
        <ele>4.3</ele>
        <time>2022-05-31T14:49:51Z</time>
      </trkpt>
      <trkpt lat="49.24658" lon="-0.2606">
        <ele>4.3</ele>
        <time>2022-05-31T14:49:52Z</time>
      </trkpt>
      <trkpt lat="49.24659" lon="-0.26059">
        <ele>4.3</ele>
        <time>2022-05-31T14:49:54Z</time>
      </trkpt>
      <trkpt lat="49.24661" lon="-0.26057">
        <ele>4.3</ele>
        <time>2022-05-31T14:49:55Z</time>
      </trkpt>
      <trkpt lat="49.24662" lon="-0.26057">
        <ele>4.3</ele>
        <time>2022-05-31T14:49:56Z</time>
      </trkpt>
      <trkpt lat="49.24662" lon="-0.26056">
        <ele>4.3</ele>
        <time>2022-05-31T14:49:57Z</time>
      </trkpt>
      <trkpt lat="49.24664" lon="-0.26055">
        <ele>4.3</ele>
        <time>2022-05-31T14:49:58Z</time>
      </trkpt>
      <trkpt lat="49.24665" lon="-0.26054">
        <ele>4.3</ele>
        <time>2022-05-31T14:49:59Z</time>
      </trkpt>
      <trkpt lat="49.24666" lon="-0.26053">
        <ele>4.3</ele>
        <time>2022-05-31T14:50:00Z</time>
      </trkpt>
      <trkpt lat="49.24667" lon="-0.26053">
        <ele>4.3</ele>
        <time>2022-05-31T14:50:01Z</time>
      </trkpt>
      <trkpt lat="49.24668" lon="-0.26052">
        <ele>4.3</ele>
        <time>2022-05-31T14:50:03Z</time>
      </trkpt>
      <trkpt lat="49.24669" lon="-0.26052">
        <ele>4.3</ele>
        <time>2022-05-31T14:50:04Z</time>
      </trkpt>
      <trkpt lat="49.24671" lon="-0.2605">
        <ele>4.3</ele>
        <time>2022-05-31T14:50:05Z</time>
      </trkpt>
      <trkpt lat="49.24672" lon="-0.2605">
        <ele>4.3</ele>
        <time>2022-05-31T14:50:06Z</time>
      </trkpt>
      <trkpt lat="49.24672" lon="-0.26049">
        <ele>4.3</ele>
        <time>2022-05-31T14:50:07Z</time>
      </trkpt>
      <trkpt lat="49.24674" lon="-0.26047">
        <ele>4.2</ele>
        <time>2022-05-31T14:50:08Z</time>
      </trkpt>
      <trkpt lat="49.24675" lon="-0.26046">
        <ele>4.2</ele>
        <time>2022-05-31T14:50:09Z</time>
      </trkpt>
      <trkpt lat="49.24676" lon="-0.26043">
        <ele>4.2</ele>
        <time>2022-05-31T14:50:10Z</time>
      </trkpt>
      <trkpt lat="49.24677" lon="-0.26042">
        <ele>4.2</ele>
        <time>2022-05-31T14:50:11Z</time>
      </trkpt>
      <trkpt lat="49.24678" lon="-0.26041">
        <ele>4.2</ele>
        <time>2022-05-31T14:50:12Z</time>
      </trkpt>
      <trkpt lat="49.24679" lon="-0.2604">
        <ele>4.2</ele>
        <time>2022-05-31T14:50:13Z</time>
      </trkpt>
      <trkpt lat="49.24681" lon="-0.26038">
        <ele>4.2</ele>
        <time>2022-05-31T14:50:15Z</time>
      </trkpt>
      <trkpt lat="49.24681" lon="-0.26037">
        <ele>4.2</ele>
        <time>2022-05-31T14:50:16Z</time>
      </trkpt>
      <trkpt lat="49.24683" lon="-0.26037">
        <ele>4.2</ele>
        <time>2022-05-31T14:50:17Z</time>
      </trkpt>
      <trkpt lat="49.24684" lon="-0.26036">
        <ele>4.2</ele>
        <time>2022-05-31T14:50:18Z</time>
      </trkpt>
      <trkpt lat="49.24685" lon="-0.26034">
        <ele>4.2</ele>
        <time>2022-05-31T14:50:19Z</time>
      </trkpt>
      <trkpt lat="49.24687" lon="-0.26033">
        <ele>4.2</ele>
        <time>2022-05-31T14:50:20Z</time>
      </trkpt>
      <trkpt lat="49.24689" lon="-0.26031">
        <ele>4.2</ele>
        <time>2022-05-31T14:50:21Z</time>
      </trkpt>
      <trkpt lat="49.24689" lon="-0.26031">
        <ele>4.2</ele>
        <time>2022-05-31T14:50:22Z</time>
      </trkpt>
      <trkpt lat="49.2469" lon="-0.2603">
        <ele>4.2</ele>
        <time>2022-05-31T14:50:23Z</time>
      </trkpt>
      <trkpt lat="49.24692" lon="-0.26029">
        <ele>4.2</ele>
        <time>2022-05-31T14:50:24Z</time>
      </trkpt>
      <trkpt lat="49.24693" lon="-0.26028">
        <ele>4.2</ele>
        <time>2022-05-31T14:50:25Z</time>
      </trkpt>
      <trkpt lat="49.24694" lon="-0.26028">
        <ele>4.2</ele>
        <time>2022-05-31T14:50:26Z</time>
      </trkpt>
      <trkpt lat="49.24695" lon="-0.26026">
        <ele>4.2</ele>
        <time>2022-05-31T14:50:27Z</time>
      </trkpt>
      <trkpt lat="49.24696" lon="-0.26026">
        <ele>4.2</ele>
        <time>2022-05-31T14:50:29Z</time>
      </trkpt>
      <trkpt lat="49.24697" lon="-0.26025">
        <ele>4.2</ele>
        <time>2022-05-31T14:50:30Z</time>
      </trkpt>
      <trkpt lat="49.24698" lon="-0.26025">
        <ele>4.1</ele>
        <time>2022-05-31T14:50:31Z</time>
      </trkpt>
      <trkpt lat="49.24698" lon="-0.26024">
        <ele>4.1</ele>
        <time>2022-05-31T14:50:32Z</time>
      </trkpt>
      <trkpt lat="49.24699" lon="-0.26024">
        <ele>4.1</ele>
        <time>2022-05-31T14:50:33Z</time>
      </trkpt>
      <trkpt lat="49.247" lon="-0.26023">
        <ele>4.1</ele>
        <time>2022-05-31T14:50:34Z</time>
      </trkpt>
      <trkpt lat="49.24702" lon="-0.26022">
        <ele>4.1</ele>
        <time>2022-05-31T14:50:35Z</time>
      </trkpt>
      <trkpt lat="49.24703" lon="-0.26021">
        <ele>4.1</ele>
        <time>2022-05-31T14:50:36Z</time>
      </trkpt>
      <trkpt lat="49.24704" lon="-0.2602">
        <ele>4.1</ele>
        <time>2022-05-31T14:50:37Z</time>
      </trkpt>
      <trkpt lat="49.24705" lon="-0.26019">
        <ele>4.2</ele>
        <time>2022-05-31T14:50:38Z</time>
      </trkpt>
      <trkpt lat="49.24706" lon="-0.26018">
        <ele>4.2</ele>
        <time>2022-05-31T14:50:39Z</time>
      </trkpt>
      <trkpt lat="49.24708" lon="-0.26017">
        <ele>4.2</ele>
        <time>2022-05-31T14:50:40Z</time>
      </trkpt>
      <trkpt lat="49.24708" lon="-0.26017">
        <ele>4.2</ele>
        <time>2022-05-31T14:50:41Z</time>
      </trkpt>
      <trkpt lat="49.2471" lon="-0.26016">
        <ele>4.2</ele>
        <time>2022-05-31T14:50:42Z</time>
      </trkpt>
      <trkpt lat="49.24711" lon="-0.26015">
        <ele>4.2</ele>
        <time>2022-05-31T14:50:44Z</time>
      </trkpt>
      <trkpt lat="49.24712" lon="-0.26014">
        <ele>4.2</ele>
        <time>2022-05-31T14:50:45Z</time>
      </trkpt>
      <trkpt lat="49.24713" lon="-0.26013">
        <ele>4.2</ele>
        <time>2022-05-31T14:50:46Z</time>
      </trkpt>
      <trkpt lat="49.24714" lon="-0.26012">
        <ele>4.2</ele>
        <time>2022-05-31T14:50:47Z</time>
      </trkpt>
      <trkpt lat="49.24714" lon="-0.26011">
        <ele>4.2</ele>
        <time>2022-05-31T14:50:48Z</time>
      </trkpt>
      <trkpt lat="49.24715" lon="-0.26011">
        <ele>4.2</ele>
        <time>2022-05-31T14:50:49Z</time>
      </trkpt>
      <trkpt lat="49.24716" lon="-0.2601">
        <ele>4.2</ele>
        <time>2022-05-31T14:50:50Z</time>
      </trkpt>
      <trkpt lat="49.24718" lon="-0.26008">
        <ele>4.2</ele>
        <time>2022-05-31T14:50:51Z</time>
      </trkpt>
      <trkpt lat="49.24718" lon="-0.26006">
        <ele>4.2</ele>
        <time>2022-05-31T14:50:52Z</time>
      </trkpt>
      <trkpt lat="49.24719" lon="-0.26005">
        <ele>4.2</ele>
        <time>2022-05-31T14:50:53Z</time>
      </trkpt>
      <trkpt lat="49.2472" lon="-0.26004">
        <ele>4.2</ele>
        <time>2022-05-31T14:50:54Z</time>
      </trkpt>
      <trkpt lat="49.24721" lon="-0.26003">
        <ele>4.2</ele>
        <time>2022-05-31T14:50:55Z</time>
      </trkpt>
      <trkpt lat="49.24722" lon="-0.26002">
        <ele>4.2</ele>
        <time>2022-05-31T14:50:56Z</time>
      </trkpt>
      <trkpt lat="49.24723" lon="-0.26001">
        <ele>4.2</ele>
        <time>2022-05-31T14:50:57Z</time>
      </trkpt>
      <trkpt lat="49.24724" lon="-0.26">
        <ele>4.2</ele>
        <time>2022-05-31T14:50:59Z</time>
      </trkpt>
      <trkpt lat="49.24725" lon="-0.25999">
        <ele>4.2</ele>
        <time>2022-05-31T14:51:00Z</time>
      </trkpt>
      <trkpt lat="49.24726" lon="-0.25998">
        <ele>4.2</ele>
        <time>2022-05-31T14:51:01Z</time>
      </trkpt>
      <trkpt lat="49.24727" lon="-0.25997">
        <ele>4.2</ele>
        <time>2022-05-31T14:51:02Z</time>
      </trkpt>
      <trkpt lat="49.24729" lon="-0.25995">
        <ele>4.2</ele>
        <time>2022-05-31T14:51:03Z</time>
      </trkpt>
      <trkpt lat="49.24729" lon="-0.25995">
        <ele>4.2</ele>
        <time>2022-05-31T14:51:04Z</time>
      </trkpt>
      <trkpt lat="49.2473" lon="-0.25994">
        <ele>4.2</ele>
        <time>2022-05-31T14:51:05Z</time>
      </trkpt>
      <trkpt lat="49.24732" lon="-0.25992">
        <ele>4.2</ele>
        <time>2022-05-31T14:51:06Z</time>
      </trkpt>
      <trkpt lat="49.24733" lon="-0.25991">
        <ele>4.2</ele>
        <time>2022-05-31T14:51:08Z</time>
      </trkpt>
      <trkpt lat="49.24734" lon="-0.25991">
        <ele>4.2</ele>
        <time>2022-05-31T14:51:09Z</time>
      </trkpt>
      <trkpt lat="49.24735" lon="-0.2599">
        <ele>4.2</ele>
        <time>2022-05-31T14:51:10Z</time>
      </trkpt>
      <trkpt lat="49.24736" lon="-0.25989">
        <ele>4.2</ele>
        <time>2022-05-31T14:51:11Z</time>
      </trkpt>
      <trkpt lat="49.24737" lon="-0.25987">
        <ele>4.2</ele>
        <time>2022-05-31T14:51:12Z</time>
      </trkpt>
      <trkpt lat="49.24738" lon="-0.25987">
        <ele>4.2</ele>
        <time>2022-05-31T14:51:13Z</time>
      </trkpt>
      <trkpt lat="49.2474" lon="-0.25985">
        <ele>4.2</ele>
        <time>2022-05-31T14:51:14Z</time>
      </trkpt>
      <trkpt lat="49.24741" lon="-0.25985">
        <ele>4.2</ele>
        <time>2022-05-31T14:51:15Z</time>
      </trkpt>
      <trkpt lat="49.24742" lon="-0.25984">
        <ele>4.2</ele>
        <time>2022-05-31T14:51:16Z</time>
      </trkpt>
      <trkpt lat="49.24743" lon="-0.25984">
        <ele>4.2</ele>
        <time>2022-05-31T14:51:17Z</time>
      </trkpt>
      <trkpt lat="49.24743" lon="-0.25983">
        <ele>4.2</ele>
        <time>2022-05-31T14:51:18Z</time>
      </trkpt>
      <trkpt lat="49.24744" lon="-0.25983">
        <ele>4.2</ele>
        <time>2022-05-31T14:51:19Z</time>
      </trkpt>
      <trkpt lat="49.24746" lon="-0.25981">
        <ele>4.2</ele>
        <time>2022-05-31T14:51:20Z</time>
      </trkpt>
      <trkpt lat="49.24747" lon="-0.25981">
        <ele>4.2</ele>
        <time>2022-05-31T14:51:22Z</time>
      </trkpt>
      <trkpt lat="49.24748" lon="-0.2598">
        <ele>4.2</ele>
        <time>2022-05-31T14:51:23Z</time>
      </trkpt>
      <trkpt lat="49.24749" lon="-0.2598">
        <ele>4.2</ele>
        <time>2022-05-31T14:51:24Z</time>
      </trkpt>
      <trkpt lat="49.2475" lon="-0.25979">
        <ele>4.2</ele>
        <time>2022-05-31T14:51:25Z</time>
      </trkpt>
      <trkpt lat="49.24751" lon="-0.25978">
        <ele>4.2</ele>
        <time>2022-05-31T14:51:26Z</time>
      </trkpt>
      <trkpt lat="49.24752" lon="-0.25977">
        <ele>4.2</ele>
        <time>2022-05-31T14:51:28Z</time>
      </trkpt>
      <trkpt lat="49.24753" lon="-0.25976">
        <ele>4.2</ele>
        <time>2022-05-31T14:51:29Z</time>
      </trkpt>
      <trkpt lat="49.24755" lon="-0.25974">
        <ele>4.2</ele>
        <time>2022-05-31T14:51:30Z</time>
      </trkpt>
      <trkpt lat="49.24756" lon="-0.25974">
        <ele>4.2</ele>
        <time>2022-05-31T14:51:31Z</time>
      </trkpt>
      <trkpt lat="49.24756" lon="-0.25973">
        <ele>4.2</ele>
        <time>2022-05-31T14:51:32Z</time>
      </trkpt>
      <trkpt lat="49.24758" lon="-0.25971">
        <ele>4.2</ele>
        <time>2022-05-31T14:51:33Z</time>
      </trkpt>
      <trkpt lat="49.24759" lon="-0.25971">
        <ele>4.2</ele>
        <time>2022-05-31T14:51:34Z</time>
      </trkpt>
      <trkpt lat="49.2476" lon="-0.25969">
        <ele>4.2</ele>
        <time>2022-05-31T14:51:36Z</time>
      </trkpt>
      <trkpt lat="49.24761" lon="-0.25968">
        <ele>4.2</ele>
        <time>2022-05-31T14:51:37Z</time>
      </trkpt>
      <trkpt lat="49.24763" lon="-0.25967">
        <ele>4.2</ele>
        <time>2022-05-31T14:51:38Z</time>
      </trkpt>
      <trkpt lat="49.24764" lon="-0.25965">
        <ele>4.2</ele>
        <time>2022-05-31T14:51:39Z</time>
      </trkpt>
      <trkpt lat="49.24765" lon="-0.25964">
        <ele>4.2</ele>
        <time>2022-05-31T14:51:40Z</time>
      </trkpt>
      <trkpt lat="49.24766" lon="-0.25963">
        <ele>4.2</ele>
        <time>2022-05-31T14:51:41Z</time>
      </trkpt>
      <trkpt lat="49.24767" lon="-0.25962">
        <ele>4.2</ele>
        <time>2022-05-31T14:51:43Z</time>
      </trkpt>
      <trkpt lat="49.24769" lon="-0.25962">
        <ele>4.2</ele>
        <time>2022-05-31T14:51:44Z</time>
      </trkpt>
      <trkpt lat="49.2477" lon="-0.25961">
        <ele>4.2</ele>
        <time>2022-05-31T14:51:45Z</time>
      </trkpt>
      <trkpt lat="49.24772" lon="-0.25959">
        <ele>4.2</ele>
        <time>2022-05-31T14:51:46Z</time>
      </trkpt>
      <trkpt lat="49.24773" lon="-0.25959">
        <ele>4.2</ele>
        <time>2022-05-31T14:51:47Z</time>
      </trkpt>
      <trkpt lat="49.24774" lon="-0.25958">
        <ele>4.2</ele>
        <time>2022-05-31T14:51:48Z</time>
      </trkpt>
      <trkpt lat="49.24775" lon="-0.25957">
        <ele>4.2</ele>
        <time>2022-05-31T14:51:49Z</time>
      </trkpt>
      <trkpt lat="49.24776" lon="-0.25956">
        <ele>4.2</ele>
        <time>2022-05-31T14:51:50Z</time>
      </trkpt>
      <trkpt lat="49.24778" lon="-0.25955">
        <ele>4.2</ele>
        <time>2022-05-31T14:51:52Z</time>
      </trkpt>
      <trkpt lat="49.24779" lon="-0.25955">
        <ele>4.2</ele>
        <time>2022-05-31T14:51:53Z</time>
      </trkpt>
      <trkpt lat="49.2478" lon="-0.25954">
        <ele>4.2</ele>
        <time>2022-05-31T14:51:54Z</time>
      </trkpt>
      <trkpt lat="49.24781" lon="-0.25953">
        <ele>4.2</ele>
        <time>2022-05-31T14:51:55Z</time>
      </trkpt>
      <trkpt lat="49.24782" lon="-0.25952">
        <ele>4.2</ele>
        <time>2022-05-31T14:51:56Z</time>
      </trkpt>
      <trkpt lat="49.24784" lon="-0.25951">
        <ele>4.2</ele>
        <time>2022-05-31T14:51:58Z</time>
      </trkpt>
      <trkpt lat="49.24786" lon="-0.2595">
        <ele>4.2</ele>
        <time>2022-05-31T14:51:59Z</time>
      </trkpt>
      <trkpt lat="49.24787" lon="-0.25949">
        <ele>4.2</ele>
        <time>2022-05-31T14:52:00Z</time>
      </trkpt>
      <trkpt lat="49.24787" lon="-0.25949">
        <ele>4.2</ele>
        <time>2022-05-31T14:52:01Z</time>
      </trkpt>
      <trkpt lat="49.24789" lon="-0.25948">
        <ele>4.2</ele>
        <time>2022-05-31T14:52:02Z</time>
      </trkpt>
      <trkpt lat="49.2479" lon="-0.25947">
        <ele>4.2</ele>
        <time>2022-05-31T14:52:03Z</time>
      </trkpt>
      <trkpt lat="49.24791" lon="-0.25946">
        <ele>4.2</ele>
        <time>2022-05-31T14:52:04Z</time>
      </trkpt>
      <trkpt lat="49.24792" lon="-0.25946">
        <ele>4.2</ele>
        <time>2022-05-31T14:52:05Z</time>
      </trkpt>
      <trkpt lat="49.24793" lon="-0.25945">
        <ele>4.2</ele>
        <time>2022-05-31T14:52:06Z</time>
      </trkpt>
      <trkpt lat="49.24795" lon="-0.25944">
        <ele>4.2</ele>
        <time>2022-05-31T14:52:08Z</time>
      </trkpt>
      <trkpt lat="49.24796" lon="-0.25943">
        <ele>4.2</ele>
        <time>2022-05-31T14:52:09Z</time>
      </trkpt>
      <trkpt lat="49.24797" lon="-0.25943">
        <ele>4.2</ele>
        <time>2022-05-31T14:52:10Z</time>
      </trkpt>
      <trkpt lat="49.24799" lon="-0.25942">
        <ele>4.2</ele>
        <time>2022-05-31T14:52:11Z</time>
      </trkpt>
      <trkpt lat="49.248" lon="-0.25942">
        <ele>4.2</ele>
        <time>2022-05-31T14:52:12Z</time>
      </trkpt>
      <trkpt lat="49.24801" lon="-0.25941">
        <ele>4.2</ele>
        <time>2022-05-31T14:52:13Z</time>
      </trkpt>
      <trkpt lat="49.24802" lon="-0.2594">
        <ele>4.2</ele>
        <time>2022-05-31T14:52:14Z</time>
      </trkpt>
      <trkpt lat="49.24803" lon="-0.2594">
        <ele>4.2</ele>
        <time>2022-05-31T14:52:15Z</time>
      </trkpt>
      <trkpt lat="49.24805" lon="-0.25939">
        <ele>4.2</ele>
        <time>2022-05-31T14:52:16Z</time>
      </trkpt>
      <trkpt lat="49.24806" lon="-0.25938">
        <ele>4.2</ele>
        <time>2022-05-31T14:52:17Z</time>
      </trkpt>
      <trkpt lat="49.24809" lon="-0.25936">
        <ele>4.2</ele>
        <time>2022-05-31T14:52:18Z</time>
      </trkpt>
      <trkpt lat="49.24811" lon="-0.25935">
        <ele>4.2</ele>
        <time>2022-05-31T14:52:20Z</time>
      </trkpt>
      <trkpt lat="49.24812" lon="-0.25934">
        <ele>4.2</ele>
        <time>2022-05-31T14:52:21Z</time>
      </trkpt>
      <trkpt lat="49.24813" lon="-0.25934">
        <ele>4.2</ele>
        <time>2022-05-31T14:52:22Z</time>
      </trkpt>
      <trkpt lat="49.24814" lon="-0.25933">
        <ele>4.2</ele>
        <time>2022-05-31T14:52:23Z</time>
      </trkpt>
      <trkpt lat="49.24816" lon="-0.25931">
        <ele>4.2</ele>
        <time>2022-05-31T14:52:25Z</time>
      </trkpt>
      <trkpt lat="49.24817" lon="-0.2593">
        <ele>4.2</ele>
        <time>2022-05-31T14:52:26Z</time>
      </trkpt>
      <trkpt lat="49.24817" lon="-0.2593">
        <ele>4.2</ele>
        <time>2022-05-31T14:52:27Z</time>
      </trkpt>
      <trkpt lat="49.24818" lon="-0.25929">
        <ele>4.2</ele>
        <time>2022-05-31T14:52:28Z</time>
      </trkpt>
      <trkpt lat="49.24819" lon="-0.25928">
        <ele>4.2</ele>
        <time>2022-05-31T14:52:29Z</time>
      </trkpt>
      <trkpt lat="49.24821" lon="-0.25927">
        <ele>4.2</ele>
        <time>2022-05-31T14:52:30Z</time>
      </trkpt>
      <trkpt lat="49.24822" lon="-0.25926">
        <ele>4.2</ele>
        <time>2022-05-31T14:52:31Z</time>
      </trkpt>
      <trkpt lat="49.24823" lon="-0.25925">
        <ele>4.2</ele>
        <time>2022-05-31T14:52:32Z</time>
      </trkpt>
      <trkpt lat="49.24823" lon="-0.25924">
        <ele>4.2</ele>
        <time>2022-05-31T14:52:33Z</time>
      </trkpt>
      <trkpt lat="49.24824" lon="-0.25923">
        <ele>4.2</ele>
        <time>2022-05-31T14:52:34Z</time>
      </trkpt>
      <trkpt lat="49.24825" lon="-0.25923">
        <ele>4.2</ele>
        <time>2022-05-31T14:52:36Z</time>
      </trkpt>
      <trkpt lat="49.24825" lon="-0.25922">
        <ele>4.2</ele>
        <time>2022-05-31T14:52:37Z</time>
      </trkpt>
      <trkpt lat="49.24826" lon="-0.25921">
        <ele>4.2</ele>
        <time>2022-05-31T14:52:38Z</time>
      </trkpt>
      <trkpt lat="49.24827" lon="-0.25921">
        <ele>4.2</ele>
        <time>2022-05-31T14:52:39Z</time>
      </trkpt>
      <trkpt lat="49.24828" lon="-0.2592">
        <ele>4.2</ele>
        <time>2022-05-31T14:52:40Z</time>
      </trkpt>
      <trkpt lat="49.24829" lon="-0.25919">
        <ele>4.2</ele>
        <time>2022-05-31T14:52:41Z</time>
      </trkpt>
      <trkpt lat="49.24831" lon="-0.25917">
        <ele>4.2</ele>
        <time>2022-05-31T14:52:42Z</time>
      </trkpt>
      <trkpt lat="49.24832" lon="-0.25917">
        <ele>4.2</ele>
        <time>2022-05-31T14:52:43Z</time>
      </trkpt>
      <trkpt lat="49.24833" lon="-0.25916">
        <ele>4.2</ele>
        <time>2022-05-31T14:52:44Z</time>
      </trkpt>
      <trkpt lat="49.24834" lon="-0.25916">
        <ele>4.2</ele>
        <time>2022-05-31T14:52:45Z</time>
      </trkpt>
      <trkpt lat="49.24834" lon="-0.25915">
        <ele>4.2</ele>
        <time>2022-05-31T14:52:46Z</time>
      </trkpt>
      <trkpt lat="49.24835" lon="-0.25914">
        <ele>4.2</ele>
        <time>2022-05-31T14:52:48Z</time>
      </trkpt>
      <trkpt lat="49.24836" lon="-0.25913">
        <ele>4.2</ele>
        <time>2022-05-31T14:52:49Z</time>
      </trkpt>
      <trkpt lat="49.24836" lon="-0.25912">
        <ele>4.2</ele>
        <time>2022-05-31T14:52:50Z</time>
      </trkpt>
      <trkpt lat="49.24837" lon="-0.25911">
        <ele>4.2</ele>
        <time>2022-05-31T14:52:51Z</time>
      </trkpt>
      <trkpt lat="49.24838" lon="-0.2591">
        <ele>4.2</ele>
        <time>2022-05-31T14:52:52Z</time>
      </trkpt>
      <trkpt lat="49.24839" lon="-0.25909">
        <ele>4.2</ele>
        <time>2022-05-31T14:52:53Z</time>
      </trkpt>
      <trkpt lat="49.24839" lon="-0.25908">
        <ele>4.2</ele>
        <time>2022-05-31T14:52:54Z</time>
      </trkpt>
      <trkpt lat="49.24839" lon="-0.25908">
        <ele>4.2</ele>
        <time>2022-05-31T14:52:55Z</time>
      </trkpt>
      <trkpt lat="49.2484" lon="-0.25907">
        <ele>4.2</ele>
        <time>2022-05-31T14:52:56Z</time>
      </trkpt>
      <trkpt lat="49.24842" lon="-0.25905">
        <ele>4.2</ele>
        <time>2022-05-31T14:52:58Z</time>
      </trkpt>
      <trkpt lat="49.24843" lon="-0.25904">
        <ele>4.2</ele>
        <time>2022-05-31T14:52:59Z</time>
      </trkpt>
      <trkpt lat="49.24844" lon="-0.25903">
        <ele>4.2</ele>
        <time>2022-05-31T14:53:00Z</time>
      </trkpt>
      <trkpt lat="49.24846" lon="-0.25902">
        <ele>4.2</ele>
        <time>2022-05-31T14:53:01Z</time>
      </trkpt>
      <trkpt lat="49.24847" lon="-0.25901">
        <ele>4.2</ele>
        <time>2022-05-31T14:53:02Z</time>
      </trkpt>
      <trkpt lat="49.24849" lon="-0.25899">
        <ele>4.2</ele>
        <time>2022-05-31T14:53:03Z</time>
      </trkpt>
      <trkpt lat="49.24849" lon="-0.25899">
        <ele>4.2</ele>
        <time>2022-05-31T14:53:04Z</time>
      </trkpt>
      <trkpt lat="49.2485" lon="-0.25898">
        <ele>4.2</ele>
        <time>2022-05-31T14:53:05Z</time>
      </trkpt>
      <trkpt lat="49.24851" lon="-0.25897">
        <ele>4.2</ele>
        <time>2022-05-31T14:53:06Z</time>
      </trkpt>
      <trkpt lat="49.24852" lon="-0.25897">
        <ele>4.2</ele>
        <time>2022-05-31T14:53:08Z</time>
      </trkpt>
      <trkpt lat="49.24852" lon="-0.25896">
        <ele>4.2</ele>
        <time>2022-05-31T14:53:09Z</time>
      </trkpt>
      <trkpt lat="49.24851" lon="-0.25897">
        <ele>4.2</ele>
        <time>2022-05-31T14:53:10Z</time>
      </trkpt>
      <trkpt lat="49.24852" lon="-0.25896">
        <ele>4.2</ele>
        <time>2022-05-31T14:53:11Z</time>
      </trkpt>
      <trkpt lat="49.24854" lon="-0.25894">
        <ele>4.2</ele>
        <time>2022-05-31T14:53:12Z</time>
      </trkpt>
      <trkpt lat="49.24855" lon="-0.25893">
        <ele>4.2</ele>
        <time>2022-05-31T14:53:13Z</time>
      </trkpt>
      <trkpt lat="49.24856" lon="-0.25893">
        <ele>4.2</ele>
        <time>2022-05-31T14:53:14Z</time>
      </trkpt>
      <trkpt lat="49.24857" lon="-0.25891">
        <ele>4.2</ele>
        <time>2022-05-31T14:53:15Z</time>
      </trkpt>
      <trkpt lat="49.24858" lon="-0.2589">
        <ele>4.2</ele>
        <time>2022-05-31T14:53:16Z</time>
      </trkpt>
      <trkpt lat="49.24859" lon="-0.2589">
        <ele>4.2</ele>
        <time>2022-05-31T14:53:17Z</time>
      </trkpt>
      <trkpt lat="49.2486" lon="-0.25889">
        <ele>4.2</ele>
        <time>2022-05-31T14:53:19Z</time>
      </trkpt>
      <trkpt lat="49.24861" lon="-0.25888">
        <ele>4.2</ele>
        <time>2022-05-31T14:53:20Z</time>
      </trkpt>
      <trkpt lat="49.24861" lon="-0.25888">
        <ele>4.2</ele>
        <time>2022-05-31T14:53:21Z</time>
      </trkpt>
      <trkpt lat="49.24863" lon="-0.25887">
        <ele>4.2</ele>
        <time>2022-05-31T14:53:22Z</time>
      </trkpt>
      <trkpt lat="49.24863" lon="-0.25886">
        <ele>4.2</ele>
        <time>2022-05-31T14:53:23Z</time>
      </trkpt>
      <trkpt lat="49.24864" lon="-0.25885">
        <ele>4.2</ele>
        <time>2022-05-31T14:53:24Z</time>
      </trkpt>
      <trkpt lat="49.24866" lon="-0.25884">
        <ele>4.2</ele>
        <time>2022-05-31T14:53:25Z</time>
      </trkpt>
      <trkpt lat="49.24867" lon="-0.25883">
        <ele>4.2</ele>
        <time>2022-05-31T14:53:26Z</time>
      </trkpt>
      <trkpt lat="49.24868" lon="-0.25883">
        <ele>4.2</ele>
        <time>2022-05-31T14:53:27Z</time>
      </trkpt>
      <trkpt lat="49.24868" lon="-0.25882">
        <ele>4.2</ele>
        <time>2022-05-31T14:53:28Z</time>
      </trkpt>
      <trkpt lat="49.24869" lon="-0.25881">
        <ele>4.2</ele>
        <time>2022-05-31T14:53:30Z</time>
      </trkpt>
      <trkpt lat="49.2487" lon="-0.2588">
        <ele>4.2</ele>
        <time>2022-05-31T14:53:31Z</time>
      </trkpt>
      <trkpt lat="49.24871" lon="-0.25879">
        <ele>4.2</ele>
        <time>2022-05-31T14:53:32Z</time>
      </trkpt>
      <trkpt lat="49.24872" lon="-0.25878">
        <ele>4.2</ele>
        <time>2022-05-31T14:53:33Z</time>
      </trkpt>
      <trkpt lat="49.24873" lon="-0.25877">
        <ele>4.2</ele>
        <time>2022-05-31T14:53:34Z</time>
      </trkpt>
      <trkpt lat="49.24874" lon="-0.25876">
        <ele>4.2</ele>
        <time>2022-05-31T14:53:35Z</time>
      </trkpt>
      <trkpt lat="49.24875" lon="-0.25875">
        <ele>4.2</ele>
        <time>2022-05-31T14:53:36Z</time>
      </trkpt>
      <trkpt lat="49.24877" lon="-0.25874">
        <ele>4.2</ele>
        <time>2022-05-31T14:53:37Z</time>
      </trkpt>
      <trkpt lat="49.24878" lon="-0.25873">
        <ele>4.2</ele>
        <time>2022-05-31T14:53:38Z</time>
      </trkpt>
      <trkpt lat="49.2488" lon="-0.25872">
        <ele>4.2</ele>
        <time>2022-05-31T14:53:39Z</time>
      </trkpt>
      <trkpt lat="49.24882" lon="-0.25872">
        <ele>4.2</ele>
        <time>2022-05-31T14:53:41Z</time>
      </trkpt>
      <trkpt lat="49.24883" lon="-0.25871">
        <ele>4.2</ele>
        <time>2022-05-31T14:53:42Z</time>
      </trkpt>
      <trkpt lat="49.24884" lon="-0.2587">
        <ele>4.2</ele>
        <time>2022-05-31T14:53:43Z</time>
      </trkpt>
      <trkpt lat="49.24886" lon="-0.25868">
        <ele>4.2</ele>
        <time>2022-05-31T14:53:44Z</time>
      </trkpt>
      <trkpt lat="49.24887" lon="-0.25867">
        <ele>4.2</ele>
        <time>2022-05-31T14:53:45Z</time>
      </trkpt>
      <trkpt lat="49.24887" lon="-0.25866">
        <ele>4.2</ele>
        <time>2022-05-31T14:53:46Z</time>
      </trkpt>
      <trkpt lat="49.24889" lon="-0.25865">
        <ele>4.2</ele>
        <time>2022-05-31T14:53:47Z</time>
      </trkpt>
      <trkpt lat="49.2489" lon="-0.25864">
        <ele>4.2</ele>
        <time>2022-05-31T14:53:48Z</time>
      </trkpt>
      <trkpt lat="49.24891" lon="-0.25863">
        <ele>4.2</ele>
        <time>2022-05-31T14:53:49Z</time>
      </trkpt>
      <trkpt lat="49.24893" lon="-0.25862">
        <ele>4.2</ele>
        <time>2022-05-31T14:53:50Z</time>
      </trkpt>
      <trkpt lat="49.24894" lon="-0.25862">
        <ele>4.2</ele>
        <time>2022-05-31T14:53:51Z</time>
      </trkpt>
      <trkpt lat="49.24895" lon="-0.25861">
        <ele>4.2</ele>
        <time>2022-05-31T14:53:52Z</time>
      </trkpt>
      <trkpt lat="49.24896" lon="-0.2586">
        <ele>4.2</ele>
        <time>2022-05-31T14:53:54Z</time>
      </trkpt>
      <trkpt lat="49.24897" lon="-0.25859">
        <ele>4.2</ele>
        <time>2022-05-31T14:53:55Z</time>
      </trkpt>
      <trkpt lat="49.24898" lon="-0.25858">
        <ele>4.2</ele>
        <time>2022-05-31T14:53:56Z</time>
      </trkpt>
      <trkpt lat="49.24899" lon="-0.25857">
        <ele>4.2</ele>
        <time>2022-05-31T14:53:57Z</time>
      </trkpt>
      <trkpt lat="49.249" lon="-0.25857">
        <ele>4.2</ele>
        <time>2022-05-31T14:53:58Z</time>
      </trkpt>
      <trkpt lat="49.24901" lon="-0.25856">
        <ele>4.2</ele>
        <time>2022-05-31T14:53:59Z</time>
      </trkpt>
      <trkpt lat="49.24902" lon="-0.25855">
        <ele>4.2</ele>
        <time>2022-05-31T14:54:00Z</time>
      </trkpt>
      <trkpt lat="49.24903" lon="-0.25854">
        <ele>4.2</ele>
        <time>2022-05-31T14:54:01Z</time>
      </trkpt>
      <trkpt lat="49.24904" lon="-0.25854">
        <ele>4.2</ele>
        <time>2022-05-31T14:54:02Z</time>
      </trkpt>
      <trkpt lat="49.24905" lon="-0.25853">
        <ele>4.2</ele>
        <time>2022-05-31T14:54:03Z</time>
      </trkpt>
      <trkpt lat="49.24906" lon="-0.25852">
        <ele>4.2</ele>
        <time>2022-05-31T14:54:04Z</time>
      </trkpt>
      <trkpt lat="49.24907" lon="-0.25851">
        <ele>4.2</ele>
        <time>2022-05-31T14:54:06Z</time>
      </trkpt>
      <trkpt lat="49.24908" lon="-0.2585">
        <ele>4.1</ele>
        <time>2022-05-31T14:54:07Z</time>
      </trkpt>
      <trkpt lat="49.24909" lon="-0.25849">
        <ele>4.1</ele>
        <time>2022-05-31T14:54:08Z</time>
      </trkpt>
      <trkpt lat="49.2491" lon="-0.25849">
        <ele>4.1</ele>
        <time>2022-05-31T14:54:09Z</time>
      </trkpt>
      <trkpt lat="49.2491" lon="-0.25848">
        <ele>4.1</ele>
        <time>2022-05-31T14:54:10Z</time>
      </trkpt>
      <trkpt lat="49.2491" lon="-0.25847">
        <ele>4.1</ele>
        <time>2022-05-31T14:54:11Z</time>
      </trkpt>
      <trkpt lat="49.24912" lon="-0.25846">
        <ele>4.1</ele>
        <time>2022-05-31T14:54:12Z</time>
      </trkpt>
      <trkpt lat="49.24913" lon="-0.25845">
        <ele>4.1</ele>
        <time>2022-05-31T14:54:13Z</time>
      </trkpt>
      <trkpt lat="49.24914" lon="-0.25844">
        <ele>4.1</ele>
        <time>2022-05-31T14:54:14Z</time>
      </trkpt>
      <trkpt lat="49.24915" lon="-0.25843">
        <ele>4.1</ele>
        <time>2022-05-31T14:54:16Z</time>
      </trkpt>
      <trkpt lat="49.24917" lon="-0.25842">
        <ele>4.1</ele>
        <time>2022-05-31T14:54:17Z</time>
      </trkpt>
      <trkpt lat="49.24917" lon="-0.25841">
        <ele>4.1</ele>
        <time>2022-05-31T14:54:18Z</time>
      </trkpt>
      <trkpt lat="49.24917" lon="-0.2584">
        <ele>4.1</ele>
        <time>2022-05-31T14:54:19Z</time>
      </trkpt>
      <trkpt lat="49.24917" lon="-0.25839">
        <ele>4.1</ele>
        <time>2022-05-31T14:54:20Z</time>
      </trkpt>
      <trkpt lat="49.24917" lon="-0.25839">
        <ele>4.1</ele>
        <time>2022-05-31T14:54:21Z</time>
      </trkpt>
      <trkpt lat="49.24917" lon="-0.25839">
        <ele>4.1</ele>
        <time>2022-05-31T14:54:22Z</time>
      </trkpt>
      <trkpt lat="49.24917" lon="-0.25839">
        <ele>4.1</ele>
        <time>2022-05-31T14:54:23Z</time>
      </trkpt>
      <trkpt lat="49.24917" lon="-0.25839">
        <ele>4.1</ele>
        <time>2022-05-31T14:54:24Z</time>
      </trkpt>
      <trkpt lat="49.24917" lon="-0.25838">
        <ele>4.1</ele>
        <time>2022-05-31T14:54:25Z</time>
      </trkpt>
      <trkpt lat="49.24918" lon="-0.25838">
        <ele>4.1</ele>
        <time>2022-05-31T14:54:26Z</time>
      </trkpt>
      <trkpt lat="49.2492" lon="-0.25837">
        <ele>4.1</ele>
        <time>2022-05-31T14:54:27Z</time>
      </trkpt>
      <trkpt lat="49.24921" lon="-0.25837">
        <ele>4.1</ele>
        <time>2022-05-31T14:54:29Z</time>
      </trkpt>
      <trkpt lat="49.24923" lon="-0.25836">
        <ele>4.1</ele>
        <time>2022-05-31T14:54:31Z</time>
      </trkpt>
      <trkpt lat="49.24924" lon="-0.25837">
        <ele>4.1</ele>
        <time>2022-05-31T14:54:32Z</time>
      </trkpt>
      <trkpt lat="49.24925" lon="-0.25838">
        <ele>4.1</ele>
        <time>2022-05-31T14:54:33Z</time>
      </trkpt>
      <trkpt lat="49.24925" lon="-0.25839">
        <ele>4.1</ele>
        <time>2022-05-31T14:54:34Z</time>
      </trkpt>
      <trkpt lat="49.24926" lon="-0.25839">
        <ele>4.1</ele>
        <time>2022-05-31T14:54:35Z</time>
      </trkpt>
      <trkpt lat="49.24926" lon="-0.25839">
        <ele>4.1</ele>
        <time>2022-05-31T14:54:36Z</time>
      </trkpt>
      <trkpt lat="49.24926" lon="-0.25839">
        <ele>4.1</ele>
        <time>2022-05-31T14:54:37Z</time>
      </trkpt>
      <trkpt lat="49.24926" lon="-0.25839">
        <ele>4.1</ele>
        <time>2022-05-31T14:54:39Z</time>
      </trkpt>
      <trkpt lat="49.24926" lon="-0.25838">
        <ele>4.1</ele>
        <time>2022-05-31T14:54:40Z</time>
      </trkpt>
      <trkpt lat="49.24927" lon="-0.25836">
        <ele>4.1</ele>
        <time>2022-05-31T14:54:42Z</time>
      </trkpt>
      <trkpt lat="49.24927" lon="-0.25836">
        <ele>4.1</ele>
        <time>2022-05-31T14:54:43Z</time>
      </trkpt>
      <trkpt lat="49.24927" lon="-0.25835">
        <ele>4.1</ele>
        <time>2022-05-31T14:54:44Z</time>
      </trkpt>
      <trkpt lat="49.24927" lon="-0.25834">
        <ele>4.1</ele>
        <time>2022-05-31T14:54:45Z</time>
      </trkpt>
      <trkpt lat="49.24926" lon="-0.25834">
        <ele>4.1</ele>
        <time>2022-05-31T14:54:46Z</time>
      </trkpt>
      <trkpt lat="49.24926" lon="-0.25834">
        <ele>4.1</ele>
        <time>2022-05-31T14:54:47Z</time>
      </trkpt>
      <trkpt lat="49.24927" lon="-0.25833">
        <ele>4.1</ele>
        <time>2022-05-31T14:54:48Z</time>
      </trkpt>
      <trkpt lat="49.24927" lon="-0.25833">
        <ele>4.1</ele>
        <time>2022-05-31T14:54:49Z</time>
      </trkpt>
      <trkpt lat="49.24927" lon="-0.25832">
        <ele>4.1</ele>
        <time>2022-05-31T14:54:51Z</time>
      </trkpt>
      <trkpt lat="49.24928" lon="-0.25831">
        <ele>4.1</ele>
        <time>2022-05-31T14:54:52Z</time>
      </trkpt>
      <trkpt lat="49.24927" lon="-0.25831">
        <ele>4.1</ele>
        <time>2022-05-31T14:54:53Z</time>
      </trkpt>
      <trkpt lat="49.24928" lon="-0.2583">
        <ele>4.1</ele>
        <time>2022-05-31T14:54:54Z</time>
      </trkpt>
      <trkpt lat="49.24928" lon="-0.2583">
        <ele>4.1</ele>
        <time>2022-05-31T14:54:55Z</time>
      </trkpt>
      <trkpt lat="49.24929" lon="-0.2583">
        <ele>4.1</ele>
        <time>2022-05-31T14:54:56Z</time>
      </trkpt>
      <trkpt lat="49.2493" lon="-0.25829">
        <ele>4.1</ele>
        <time>2022-05-31T14:54:58Z</time>
      </trkpt>
      <trkpt lat="49.2493" lon="-0.25829">
        <ele>4.1</ele>
        <time>2022-05-31T14:54:59Z</time>
      </trkpt>
      <trkpt lat="49.24931" lon="-0.25829">
        <ele>4.1</ele>
        <time>2022-05-31T14:55:00Z</time>
      </trkpt>
      <trkpt lat="49.24931" lon="-0.25829">
        <ele>4.1</ele>
        <time>2022-05-31T14:55:02Z</time>
      </trkpt>
      <trkpt lat="49.24932" lon="-0.25829">
        <ele>4.1</ele>
        <time>2022-05-31T14:55:03Z</time>
      </trkpt>
      <trkpt lat="49.24932" lon="-0.25828">
        <ele>4.1</ele>
        <time>2022-05-31T14:55:04Z</time>
      </trkpt>
      <trkpt lat="49.24933" lon="-0.25828">
        <ele>4.1</ele>
        <time>2022-05-31T14:55:05Z</time>
      </trkpt>
      <trkpt lat="49.24933" lon="-0.25828">
        <ele>4.1</ele>
        <time>2022-05-31T14:55:06Z</time>
      </trkpt>
      <trkpt lat="49.24934" lon="-0.25828">
        <ele>4.1</ele>
        <time>2022-05-31T14:55:07Z</time>
      </trkpt>
      <trkpt lat="49.24936" lon="-0.25826">
        <ele>4.1</ele>
        <time>2022-05-31T14:55:08Z</time>
      </trkpt>
      <trkpt lat="49.24936" lon="-0.25825">
        <ele>4.1</ele>
        <time>2022-05-31T14:55:10Z</time>
      </trkpt>
      <trkpt lat="49.24937" lon="-0.25824">
        <ele>4.1</ele>
        <time>2022-05-31T14:55:11Z</time>
      </trkpt>
      <trkpt lat="49.24939" lon="-0.25822">
        <ele>4.1</ele>
        <time>2022-05-31T14:55:12Z</time>
      </trkpt>
      <trkpt lat="49.2494" lon="-0.25821">
        <ele>4.1</ele>
        <time>2022-05-31T14:55:13Z</time>
      </trkpt>
      <trkpt lat="49.2494" lon="-0.25821">
        <ele>4.1</ele>
        <time>2022-05-31T14:55:14Z</time>
      </trkpt>
      <trkpt lat="49.24942" lon="-0.25819">
        <ele>4.1</ele>
        <time>2022-05-31T14:55:15Z</time>
      </trkpt>
      <trkpt lat="49.24943" lon="-0.25818">
        <ele>4.1</ele>
        <time>2022-05-31T14:55:16Z</time>
      </trkpt>
      <trkpt lat="49.24943" lon="-0.25818">
        <ele>4.1</ele>
        <time>2022-05-31T14:55:17Z</time>
      </trkpt>
      <trkpt lat="49.24944" lon="-0.25817">
        <ele>4.1</ele>
        <time>2022-05-31T14:55:19Z</time>
      </trkpt>
      <trkpt lat="49.24945" lon="-0.25816">
        <ele>4.1</ele>
        <time>2022-05-31T14:55:20Z</time>
      </trkpt>
      <trkpt lat="49.24946" lon="-0.25815">
        <ele>4.1</ele>
        <time>2022-05-31T14:55:21Z</time>
      </trkpt>
      <trkpt lat="49.24948" lon="-0.25813">
        <ele>4.1</ele>
        <time>2022-05-31T14:55:22Z</time>
      </trkpt>
      <trkpt lat="49.24949" lon="-0.25812">
        <ele>4.1</ele>
        <time>2022-05-31T14:55:23Z</time>
      </trkpt>
      <trkpt lat="49.2495" lon="-0.25812">
        <ele>4.1</ele>
        <time>2022-05-31T14:55:24Z</time>
      </trkpt>
      <trkpt lat="49.2495" lon="-0.25811">
        <ele>4.1</ele>
        <time>2022-05-31T14:55:26Z</time>
      </trkpt>
      <trkpt lat="49.24951" lon="-0.2581">
        <ele>4.1</ele>
        <time>2022-05-31T14:55:27Z</time>
      </trkpt>
      <trkpt lat="49.24951" lon="-0.25808">
        <ele>4.1</ele>
        <time>2022-05-31T14:55:28Z</time>
      </trkpt>
      <trkpt lat="49.24951" lon="-0.25809">
        <ele>4.1</ele>
        <time>2022-05-31T14:55:29Z</time>
      </trkpt>
      <trkpt lat="49.2495" lon="-0.25809">
        <ele>4.1</ele>
        <time>2022-05-31T14:55:30Z</time>
      </trkpt>
      <trkpt lat="49.2495" lon="-0.25809">
        <ele>4.1</ele>
        <time>2022-05-31T14:55:31Z</time>
      </trkpt>
      <trkpt lat="49.2495" lon="-0.2581">
        <ele>4.1</ele>
        <time>2022-05-31T14:55:32Z</time>
      </trkpt>
      <trkpt lat="49.2495" lon="-0.2581">
        <ele>4.1</ele>
        <time>2022-05-31T14:55:33Z</time>
      </trkpt>
      <trkpt lat="49.2495" lon="-0.2581">
        <ele>4.1</ele>
        <time>2022-05-31T14:55:34Z</time>
      </trkpt>
      <trkpt lat="49.24949" lon="-0.2581">
        <ele>4.1</ele>
        <time>2022-05-31T14:55:35Z</time>
      </trkpt>
      <trkpt lat="49.24949" lon="-0.2581">
        <ele>4.1</ele>
        <time>2022-05-31T14:55:36Z</time>
      </trkpt>
      <trkpt lat="49.24949" lon="-0.25811">
        <ele>4.1</ele>
        <time>2022-05-31T14:55:37Z</time>
      </trkpt>
      <trkpt lat="49.24949" lon="-0.25811">
        <ele>4.1</ele>
        <time>2022-05-31T14:55:38Z</time>
      </trkpt>
      <trkpt lat="49.24949" lon="-0.25811">
        <ele>4.1</ele>
        <time>2022-05-31T14:55:39Z</time>
      </trkpt>
      <trkpt lat="49.2495" lon="-0.25811">
        <ele>4.1</ele>
        <time>2022-05-31T14:55:40Z</time>
      </trkpt>
      <trkpt lat="49.2495" lon="-0.25811">
        <ele>4.1</ele>
        <time>2022-05-31T14:55:41Z</time>
      </trkpt>
      <trkpt lat="49.2495" lon="-0.25811">
        <ele>4.1</ele>
        <time>2022-05-31T14:55:42Z</time>
      </trkpt>
      <trkpt lat="49.2495" lon="-0.25811">
        <ele>4.1</ele>
        <time>2022-05-31T14:55:43Z</time>
      </trkpt>
      <trkpt lat="49.2495" lon="-0.25811">
        <ele>4.1</ele>
        <time>2022-05-31T14:55:44Z</time>
      </trkpt>
      <trkpt lat="49.24949" lon="-0.25812">
        <ele>4.1</ele>
        <time>2022-05-31T14:55:45Z</time>
      </trkpt>
      <trkpt lat="49.24949" lon="-0.25812">
        <ele>4.1</ele>
        <time>2022-05-31T14:55:46Z</time>
      </trkpt>
      <trkpt lat="49.24949" lon="-0.25812">
        <ele>4.1</ele>
        <time>2022-05-31T14:55:47Z</time>
      </trkpt>
      <trkpt lat="49.24949" lon="-0.25812">
        <ele>4.1</ele>
        <time>2022-05-31T14:55:48Z</time>
      </trkpt>
      <trkpt lat="49.24949" lon="-0.25812">
        <ele>4.1</ele>
        <time>2022-05-31T14:55:49Z</time>
      </trkpt>
      <trkpt lat="49.24949" lon="-0.25812">
        <ele>4.1</ele>
        <time>2022-05-31T14:55:50Z</time>
      </trkpt>
      <trkpt lat="49.24949" lon="-0.25812">
        <ele>4.1</ele>
        <time>2022-05-31T14:55:51Z</time>
      </trkpt>
      <trkpt lat="49.24949" lon="-0.25812">
        <ele>4.1</ele>
        <time>2022-05-31T14:55:52Z</time>
      </trkpt>
      <trkpt lat="49.24949" lon="-0.25812">
        <ele>4.1</ele>
        <time>2022-05-31T14:55:53Z</time>
      </trkpt>
      <trkpt lat="49.24949" lon="-0.25812">
        <ele>4.1</ele>
        <time>2022-05-31T14:55:54Z</time>
      </trkpt>
      <trkpt lat="49.24949" lon="-0.25812">
        <ele>4.1</ele>
        <time>2022-05-31T14:55:55Z</time>
      </trkpt>
      <trkpt lat="49.24949" lon="-0.25812">
        <ele>4.1</ele>
        <time>2022-05-31T14:55:56Z</time>
      </trkpt>
      <trkpt lat="49.24949" lon="-0.25812">
        <ele>4.1</ele>
        <time>2022-05-31T14:55:57Z</time>
      </trkpt>
      <trkpt lat="49.24949" lon="-0.25812">
        <ele>4.1</ele>
        <time>2022-05-31T14:55:58Z</time>
      </trkpt>
      <trkpt lat="49.24949" lon="-0.25812">
        <ele>4.1</ele>
        <time>2022-05-31T14:55:59Z</time>
      </trkpt>
      <trkpt lat="49.24949" lon="-0.25812">
        <ele>4.1</ele>
        <time>2022-05-31T14:56:00Z</time>
      </trkpt>
      <trkpt lat="49.24949" lon="-0.25812">
        <ele>4.1</ele>
        <time>2022-05-31T14:56:01Z</time>
      </trkpt>
      <trkpt lat="49.24949" lon="-0.25812">
        <ele>4.1</ele>
        <time>2022-05-31T14:56:02Z</time>
      </trkpt>
      <trkpt lat="49.24949" lon="-0.25812">
        <ele>4.1</ele>
        <time>2022-05-31T14:56:03Z</time>
      </trkpt>
      <trkpt lat="49.24949" lon="-0.25812">
        <ele>4.1</ele>
        <time>2022-05-31T14:56:04Z</time>
      </trkpt>
      <trkpt lat="49.24949" lon="-0.25812">
        <ele>4.1</ele>
        <time>2022-05-31T14:56:05Z</time>
      </trkpt>
      <trkpt lat="49.24949" lon="-0.25812">
        <ele>4.1</ele>
        <time>2022-05-31T14:56:06Z</time>
      </trkpt>
      <trkpt lat="49.24949" lon="-0.25812">
        <ele>4.1</ele>
        <time>2022-05-31T14:56:07Z</time>
      </trkpt>
      <trkpt lat="49.24949" lon="-0.25812">
        <ele>4.1</ele>
        <time>2022-05-31T14:56:08Z</time>
      </trkpt>
      <trkpt lat="49.24949" lon="-0.25812">
        <ele>4.1</ele>
        <time>2022-05-31T14:56:09Z</time>
      </trkpt>
      <trkpt lat="49.24949" lon="-0.25812">
        <ele>4.1</ele>
        <time>2022-05-31T14:56:10Z</time>
      </trkpt>
      <trkpt lat="49.24949" lon="-0.25812">
        <ele>4.1</ele>
        <time>2022-05-31T14:56:11Z</time>
      </trkpt>
      <trkpt lat="49.24949" lon="-0.25812">
        <ele>4.1</ele>
        <time>2022-05-31T14:56:12Z</time>
      </trkpt>
      <trkpt lat="49.24949" lon="-0.25812">
        <ele>4.1</ele>
        <time>2022-05-31T14:56:13Z</time>
      </trkpt>
      <trkpt lat="49.24949" lon="-0.25812">
        <ele>4.1</ele>
        <time>2022-05-31T14:56:14Z</time>
      </trkpt>
      <trkpt lat="49.24949" lon="-0.25812">
        <ele>4.1</ele>
        <time>2022-05-31T14:56:15Z</time>
      </trkpt>
      <trkpt lat="49.24949" lon="-0.25812">
        <ele>4.1</ele>
        <time>2022-05-31T14:56:16Z</time>
      </trkpt>
      <trkpt lat="49.24949" lon="-0.25812">
        <ele>4.1</ele>
        <time>2022-05-31T14:56:17Z</time>
      </trkpt>
      <trkpt lat="49.24949" lon="-0.25812">
        <ele>4.1</ele>
        <time>2022-05-31T14:56:18Z</time>
      </trkpt>
      <trkpt lat="49.24949" lon="-0.25812">
        <ele>4.1</ele>
        <time>2022-05-31T14:56:19Z</time>
      </trkpt>
      <trkpt lat="49.24949" lon="-0.25812">
        <ele>4.1</ele>
        <time>2022-05-31T14:56:20Z</time>
      </trkpt>
      <trkpt lat="49.24949" lon="-0.25812">
        <ele>4.1</ele>
        <time>2022-05-31T14:56:21Z</time>
      </trkpt>
      <trkpt lat="49.24949" lon="-0.25812">
        <ele>4.1</ele>
        <time>2022-05-31T14:56:22Z</time>
      </trkpt>
      <trkpt lat="49.24949" lon="-0.25812">
        <ele>4.1</ele>
        <time>2022-05-31T14:56:23Z</time>
      </trkpt>
      <trkpt lat="49.24949" lon="-0.25812">
        <ele>4.1</ele>
        <time>2022-05-31T14:56:24Z</time>
      </trkpt>
      <trkpt lat="49.24949" lon="-0.25812">
        <ele>4.1</ele>
        <time>2022-05-31T14:56:25Z</time>
      </trkpt>
      <trkpt lat="49.24949" lon="-0.25811">
        <ele>4.1</ele>
        <time>2022-05-31T14:56:26Z</time>
      </trkpt>
      <trkpt lat="49.24949" lon="-0.25811">
        <ele>4.1</ele>
        <time>2022-05-31T14:56:27Z</time>
      </trkpt>
      <trkpt lat="49.2495" lon="-0.2581">
        <ele>4.1</ele>
        <time>2022-05-31T14:56:28Z</time>
      </trkpt>
      <trkpt lat="49.2495" lon="-0.25809">
        <ele>4.1</ele>
        <time>2022-05-31T14:56:29Z</time>
      </trkpt>
      <trkpt lat="49.2495" lon="-0.25809">
        <ele>4.1</ele>
        <time>2022-05-31T14:56:30Z</time>
      </trkpt>
      <trkpt lat="49.24951" lon="-0.25808">
        <ele>4.2</ele>
        <time>2022-05-31T14:56:31Z</time>
      </trkpt>
      <trkpt lat="49.24951" lon="-0.25808">
        <ele>4.2</ele>
        <time>2022-05-31T14:56:32Z</time>
      </trkpt>
      <trkpt lat="49.24952" lon="-0.25807">
        <ele>4.2</ele>
        <time>2022-05-31T14:56:33Z</time>
      </trkpt>
      <trkpt lat="49.24953" lon="-0.25807">
        <ele>4.2</ele>
        <time>2022-05-31T14:56:34Z</time>
      </trkpt>
      <trkpt lat="49.24954" lon="-0.25807">
        <ele>4.2</ele>
        <time>2022-05-31T14:56:35Z</time>
      </trkpt>
      <trkpt lat="49.24956" lon="-0.25806">
        <ele>4.2</ele>
        <time>2022-05-31T14:56:36Z</time>
      </trkpt>
      <trkpt lat="49.24957" lon="-0.25805">
        <ele>4.2</ele>
        <time>2022-05-31T14:56:38Z</time>
      </trkpt>
      <trkpt lat="49.24959" lon="-0.25805">
        <ele>4.2</ele>
        <time>2022-05-31T14:56:39Z</time>
      </trkpt>
      <trkpt lat="49.2496" lon="-0.25804">
        <ele>4.2</ele>
        <time>2022-05-31T14:56:41Z</time>
      </trkpt>
      <trkpt lat="49.2496" lon="-0.25803">
        <ele>4.2</ele>
        <time>2022-05-31T14:56:43Z</time>
      </trkpt>
      <trkpt lat="49.2496" lon="-0.25802">
        <ele>4.2</ele>
        <time>2022-05-31T14:56:44Z</time>
      </trkpt>
      <trkpt lat="49.24961" lon="-0.25802">
        <ele>4.2</ele>
        <time>2022-05-31T14:56:46Z</time>
      </trkpt>
      <trkpt lat="49.24962" lon="-0.25802">
        <ele>4.2</ele>
        <time>2022-05-31T14:56:47Z</time>
      </trkpt>
      <trkpt lat="49.24962" lon="-0.25803">
        <ele>4.2</ele>
        <time>2022-05-31T14:56:49Z</time>
      </trkpt>
      <trkpt lat="49.24962" lon="-0.25803">
        <ele>4.2</ele>
        <time>2022-05-31T14:56:50Z</time>
      </trkpt>
      <trkpt lat="49.24962" lon="-0.25804">
        <ele>4.2</ele>
        <time>2022-05-31T14:56:51Z</time>
      </trkpt>
      <trkpt lat="49.24962" lon="-0.25804">
        <ele>4.2</ele>
        <time>2022-05-31T14:56:52Z</time>
      </trkpt>
      <trkpt lat="49.24962" lon="-0.25804">
        <ele>4.2</ele>
        <time>2022-05-31T14:56:53Z</time>
      </trkpt>
      <trkpt lat="49.24962" lon="-0.25805">
        <ele>4.2</ele>
        <time>2022-05-31T14:56:54Z</time>
      </trkpt>
      <trkpt lat="49.24962" lon="-0.25805">
        <ele>4.2</ele>
        <time>2022-05-31T14:56:55Z</time>
      </trkpt>
      <trkpt lat="49.24962" lon="-0.25805">
        <ele>4.2</ele>
        <time>2022-05-31T14:56:56Z</time>
      </trkpt>
      <trkpt lat="49.24962" lon="-0.25805">
        <ele>4.2</ele>
        <time>2022-05-31T14:56:57Z</time>
      </trkpt>
      <trkpt lat="49.24962" lon="-0.25805">
        <ele>4.2</ele>
        <time>2022-05-31T14:56:58Z</time>
      </trkpt>
      <trkpt lat="49.24962" lon="-0.25805">
        <ele>4.2</ele>
        <time>2022-05-31T14:56:59Z</time>
      </trkpt>
      <trkpt lat="49.24962" lon="-0.25805">
        <ele>4.2</ele>
        <time>2022-05-31T14:57:00Z</time>
      </trkpt>
      <trkpt lat="49.24961" lon="-0.25805">
        <ele>4.2</ele>
        <time>2022-05-31T14:57:01Z</time>
      </trkpt>
      <trkpt lat="49.24961" lon="-0.25805">
        <ele>4.2</ele>
        <time>2022-05-31T14:57:02Z</time>
      </trkpt>
      <trkpt lat="49.24961" lon="-0.25805">
        <ele>4.2</ele>
        <time>2022-05-31T14:57:03Z</time>
      </trkpt>
      <trkpt lat="49.24961" lon="-0.25805">
        <ele>4.2</ele>
        <time>2022-05-31T14:57:04Z</time>
      </trkpt>
      <trkpt lat="49.24961" lon="-0.25805">
        <ele>4.2</ele>
        <time>2022-05-31T14:57:05Z</time>
      </trkpt>
      <trkpt lat="49.24961" lon="-0.25805">
        <ele>4.2</ele>
        <time>2022-05-31T14:57:06Z</time>
      </trkpt>
      <trkpt lat="49.24961" lon="-0.25805">
        <ele>4.2</ele>
        <time>2022-05-31T14:57:07Z</time>
      </trkpt>
      <trkpt lat="49.24961" lon="-0.25805">
        <ele>4.2</ele>
        <time>2022-05-31T14:57:08Z</time>
      </trkpt>
      <trkpt lat="49.24961" lon="-0.25805">
        <ele>4.2</ele>
        <time>2022-05-31T14:57:09Z</time>
      </trkpt>
      <trkpt lat="49.24961" lon="-0.25805">
        <ele>4.2</ele>
        <time>2022-05-31T14:57:10Z</time>
      </trkpt>
      <trkpt lat="49.24961" lon="-0.25805">
        <ele>4.2</ele>
        <time>2022-05-31T14:57:11Z</time>
      </trkpt>
      <trkpt lat="49.24961" lon="-0.25805">
        <ele>4.2</ele>
        <time>2022-05-31T14:57:12Z</time>
      </trkpt>
      <trkpt lat="49.24961" lon="-0.25805">
        <ele>4.2</ele>
        <time>2022-05-31T14:57:13Z</time>
      </trkpt>
      <trkpt lat="49.24961" lon="-0.25805">
        <ele>4.2</ele>
        <time>2022-05-31T14:57:14Z</time>
      </trkpt>
      <trkpt lat="49.24961" lon="-0.25805">
        <ele>4.2</ele>
        <time>2022-05-31T14:57:15Z</time>
      </trkpt>
      <trkpt lat="49.24963" lon="-0.25805">
        <ele>4.2</ele>
        <time>2022-05-31T14:57:16Z</time>
      </trkpt>
      <trkpt lat="49.24964" lon="-0.25805">
        <ele>4.2</ele>
        <time>2022-05-31T14:57:17Z</time>
      </trkpt>
      <trkpt lat="49.24964" lon="-0.25805">
        <ele>4.2</ele>
        <time>2022-05-31T14:57:18Z</time>
      </trkpt>
      <trkpt lat="49.24964" lon="-0.25804">
        <ele>4.2</ele>
        <time>2022-05-31T14:57:19Z</time>
      </trkpt>
      <trkpt lat="49.24965" lon="-0.25804">
        <ele>4.2</ele>
        <time>2022-05-31T14:57:20Z</time>
      </trkpt>
      <trkpt lat="49.24965" lon="-0.25805">
        <ele>4.2</ele>
        <time>2022-05-31T14:57:21Z</time>
      </trkpt>
      <trkpt lat="49.24966" lon="-0.25805">
        <ele>4.2</ele>
        <time>2022-05-31T14:57:22Z</time>
      </trkpt>
      <trkpt lat="49.24967" lon="-0.25805">
        <ele>4.2</ele>
        <time>2022-05-31T14:57:23Z</time>
      </trkpt>
      <trkpt lat="49.24968" lon="-0.25804">
        <ele>4.2</ele>
        <time>2022-05-31T14:57:24Z</time>
      </trkpt>
      <trkpt lat="49.24969" lon="-0.25803">
        <ele>4.2</ele>
        <time>2022-05-31T14:57:25Z</time>
      </trkpt>
      <trkpt lat="49.24969" lon="-0.25801">
        <ele>4.2</ele>
        <time>2022-05-31T14:57:26Z</time>
      </trkpt>
      <trkpt lat="49.24971" lon="-0.25799">
        <ele>4.2</ele>
        <time>2022-05-31T14:57:27Z</time>
      </trkpt>
      <trkpt lat="49.24972" lon="-0.25797">
        <ele>4.2</ele>
        <time>2022-05-31T14:57:29Z</time>
      </trkpt>
      <trkpt lat="49.24973" lon="-0.25795">
        <ele>4.2</ele>
        <time>2022-05-31T14:57:30Z</time>
      </trkpt>
      <trkpt lat="49.24974" lon="-0.25793">
        <ele>4.2</ele>
        <time>2022-05-31T14:57:31Z</time>
      </trkpt>
      <trkpt lat="49.24975" lon="-0.25791">
        <ele>4.2</ele>
        <time>2022-05-31T14:57:32Z</time>
      </trkpt>
      <trkpt lat="49.24976" lon="-0.25789">
        <ele>4.2</ele>
        <time>2022-05-31T14:57:33Z</time>
      </trkpt>
      <trkpt lat="49.24976" lon="-0.25788">
        <ele>4.2</ele>
        <time>2022-05-31T14:57:34Z</time>
      </trkpt>
      <trkpt lat="49.24977" lon="-0.25787">
        <ele>4.2</ele>
        <time>2022-05-31T14:57:35Z</time>
      </trkpt>
      <trkpt lat="49.24978" lon="-0.25786">
        <ele>4.2</ele>
        <time>2022-05-31T14:57:37Z</time>
      </trkpt>
      <trkpt lat="49.24979" lon="-0.25785">
        <ele>4.2</ele>
        <time>2022-05-31T14:57:38Z</time>
      </trkpt>
      <trkpt lat="49.2498" lon="-0.25784">
        <ele>4.2</ele>
        <time>2022-05-31T14:57:39Z</time>
      </trkpt>
      <trkpt lat="49.2498" lon="-0.25784">
        <ele>4.2</ele>
        <time>2022-05-31T14:57:40Z</time>
      </trkpt>
      <trkpt lat="49.24982" lon="-0.25782">
        <ele>4.2</ele>
        <time>2022-05-31T14:57:41Z</time>
      </trkpt>
      <trkpt lat="49.24983" lon="-0.25782">
        <ele>4.2</ele>
        <time>2022-05-31T14:57:42Z</time>
      </trkpt>
      <trkpt lat="49.24983" lon="-0.25781">
        <ele>4.2</ele>
        <time>2022-05-31T14:57:43Z</time>
      </trkpt>
      <trkpt lat="49.24984" lon="-0.25781">
        <ele>4.2</ele>
        <time>2022-05-31T14:57:45Z</time>
      </trkpt>
      <trkpt lat="49.24985" lon="-0.2578">
        <ele>4.2</ele>
        <time>2022-05-31T14:57:46Z</time>
      </trkpt>
      <trkpt lat="49.24985" lon="-0.25779">
        <ele>4.2</ele>
        <time>2022-05-31T14:57:47Z</time>
      </trkpt>
      <trkpt lat="49.24986" lon="-0.25779">
        <ele>4.2</ele>
        <time>2022-05-31T14:57:48Z</time>
      </trkpt>
      <trkpt lat="49.24987" lon="-0.25778">
        <ele>4.2</ele>
        <time>2022-05-31T14:57:49Z</time>
      </trkpt>
      <trkpt lat="49.24988" lon="-0.25777">
        <ele>4.2</ele>
        <time>2022-05-31T14:57:50Z</time>
      </trkpt>
      <trkpt lat="49.24988" lon="-0.25777">
        <ele>4.2</ele>
        <time>2022-05-31T14:57:51Z</time>
      </trkpt>
      <trkpt lat="49.24989" lon="-0.25776">
        <ele>4.2</ele>
        <time>2022-05-31T14:57:52Z</time>
      </trkpt>
      <trkpt lat="49.2499" lon="-0.25776">
        <ele>4.2</ele>
        <time>2022-05-31T14:57:53Z</time>
      </trkpt>
      <trkpt lat="49.24991" lon="-0.25775">
        <ele>4.2</ele>
        <time>2022-05-31T14:57:54Z</time>
      </trkpt>
      <trkpt lat="49.24993" lon="-0.25775">
        <ele>4.2</ele>
        <time>2022-05-31T14:57:56Z</time>
      </trkpt>
      <trkpt lat="49.24993" lon="-0.25775">
        <ele>4.2</ele>
        <time>2022-05-31T14:57:57Z</time>
      </trkpt>
      <trkpt lat="49.24993" lon="-0.25774">
        <ele>4.2</ele>
        <time>2022-05-31T14:57:58Z</time>
      </trkpt>
      <trkpt lat="49.24995" lon="-0.25773">
        <ele>4.2</ele>
        <time>2022-05-31T14:57:59Z</time>
      </trkpt>
      <trkpt lat="49.24997" lon="-0.2577">
        <ele>4.2</ele>
        <time>2022-05-31T14:58:00Z</time>
      </trkpt>
      <trkpt lat="49.24998" lon="-0.25769">
        <ele>4.2</ele>
        <time>2022-05-31T14:58:01Z</time>
      </trkpt>
      <trkpt lat="49.25" lon="-0.25767">
        <ele>4.2</ele>
        <time>2022-05-31T14:58:02Z</time>
      </trkpt>
      <trkpt lat="49.25002" lon="-0.25766">
        <ele>4.2</ele>
        <time>2022-05-31T14:58:04Z</time>
      </trkpt>
      <trkpt lat="49.25003" lon="-0.25764">
        <ele>4.2</ele>
        <time>2022-05-31T14:58:05Z</time>
      </trkpt>
      <trkpt lat="49.25004" lon="-0.25763">
        <ele>4.2</ele>
        <time>2022-05-31T14:58:06Z</time>
      </trkpt>
      <trkpt lat="49.25006" lon="-0.25761">
        <ele>4.2</ele>
        <time>2022-05-31T14:58:07Z</time>
      </trkpt>
      <trkpt lat="49.25007" lon="-0.2576">
        <ele>4.2</ele>
        <time>2022-05-31T14:58:08Z</time>
      </trkpt>
      <trkpt lat="49.25009" lon="-0.2576">
        <ele>4.2</ele>
        <time>2022-05-31T14:58:09Z</time>
      </trkpt>
      <trkpt lat="49.2501" lon="-0.25759">
        <ele>4.2</ele>
        <time>2022-05-31T14:58:10Z</time>
      </trkpt>
      <trkpt lat="49.25011" lon="-0.25758">
        <ele>4.2</ele>
        <time>2022-05-31T14:58:11Z</time>
      </trkpt>
      <trkpt lat="49.25013" lon="-0.25757">
        <ele>4.2</ele>
        <time>2022-05-31T14:58:12Z</time>
      </trkpt>
      <trkpt lat="49.25015" lon="-0.25756">
        <ele>4.2</ele>
        <time>2022-05-31T14:58:14Z</time>
      </trkpt>
      <trkpt lat="49.25015" lon="-0.25755">
        <ele>4.2</ele>
        <time>2022-05-31T14:58:15Z</time>
      </trkpt>
      <trkpt lat="49.25016" lon="-0.25755">
        <ele>4.2</ele>
        <time>2022-05-31T14:58:16Z</time>
      </trkpt>
      <trkpt lat="49.25017" lon="-0.25754">
        <ele>4.2</ele>
        <time>2022-05-31T14:58:17Z</time>
      </trkpt>
      <trkpt lat="49.25019" lon="-0.25753">
        <ele>4.1</ele>
        <time>2022-05-31T14:58:18Z</time>
      </trkpt>
      <trkpt lat="49.25019" lon="-0.25752">
        <ele>4.1</ele>
        <time>2022-05-31T14:58:19Z</time>
      </trkpt>
      <trkpt lat="49.2502" lon="-0.25751">
        <ele>4.1</ele>
        <time>2022-05-31T14:58:20Z</time>
      </trkpt>
      <trkpt lat="49.25021" lon="-0.2575">
        <ele>4.1</ele>
        <time>2022-05-31T14:58:21Z</time>
      </trkpt>
      <trkpt lat="49.25023" lon="-0.25749">
        <ele>4.1</ele>
        <time>2022-05-31T14:58:22Z</time>
      </trkpt>
      <trkpt lat="49.25024" lon="-0.25748">
        <ele>4.1</ele>
        <time>2022-05-31T14:58:23Z</time>
      </trkpt>
      <trkpt lat="49.25026" lon="-0.25747">
        <ele>4.1</ele>
        <time>2022-05-31T14:58:25Z</time>
      </trkpt>
      <trkpt lat="49.25027" lon="-0.25746">
        <ele>4.1</ele>
        <time>2022-05-31T14:58:26Z</time>
      </trkpt>
      <trkpt lat="49.25028" lon="-0.25745">
        <ele>4.1</ele>
        <time>2022-05-31T14:58:27Z</time>
      </trkpt>
      <trkpt lat="49.25029" lon="-0.25744">
        <ele>4.1</ele>
        <time>2022-05-31T14:58:28Z</time>
      </trkpt>
      <trkpt lat="49.2503" lon="-0.25742">
        <ele>4.1</ele>
        <time>2022-05-31T14:58:29Z</time>
      </trkpt>
      <trkpt lat="49.25031" lon="-0.25742">
        <ele>4.1</ele>
        <time>2022-05-31T14:58:30Z</time>
      </trkpt>
      <trkpt lat="49.25032" lon="-0.2574">
        <ele>4.1</ele>
        <time>2022-05-31T14:58:31Z</time>
      </trkpt>
      <trkpt lat="49.25034" lon="-0.25739">
        <ele>4.1</ele>
        <time>2022-05-31T14:58:32Z</time>
      </trkpt>
      <trkpt lat="49.25036" lon="-0.25738">
        <ele>4.1</ele>
        <time>2022-05-31T14:58:33Z</time>
      </trkpt>
      <trkpt lat="49.25037" lon="-0.25737">
        <ele>4.1</ele>
        <time>2022-05-31T14:58:34Z</time>
      </trkpt>
      <trkpt lat="49.25039" lon="-0.25736">
        <ele>4.1</ele>
        <time>2022-05-31T14:58:36Z</time>
      </trkpt>
      <trkpt lat="49.2504" lon="-0.25735">
        <ele>4.1</ele>
        <time>2022-05-31T14:58:37Z</time>
      </trkpt>
      <trkpt lat="49.25041" lon="-0.25734">
        <ele>4.1</ele>
        <time>2022-05-31T14:58:38Z</time>
      </trkpt>
      <trkpt lat="49.25042" lon="-0.25734">
        <ele>4.1</ele>
        <time>2022-05-31T14:58:39Z</time>
      </trkpt>
      <trkpt lat="49.25043" lon="-0.25733">
        <ele>4.1</ele>
        <time>2022-05-31T14:58:40Z</time>
      </trkpt>
      <trkpt lat="49.25043" lon="-0.25732">
        <ele>4.1</ele>
        <time>2022-05-31T14:58:41Z</time>
      </trkpt>
      <trkpt lat="49.25044" lon="-0.25732">
        <ele>4.1</ele>
        <time>2022-05-31T14:58:42Z</time>
      </trkpt>
      <trkpt lat="49.25044" lon="-0.25732">
        <ele>4.1</ele>
        <time>2022-05-31T14:58:43Z</time>
      </trkpt>
      <trkpt lat="49.25045" lon="-0.25731">
        <ele>4.1</ele>
        <time>2022-05-31T14:58:44Z</time>
      </trkpt>
      <trkpt lat="49.25046" lon="-0.2573">
        <ele>4.1</ele>
        <time>2022-05-31T14:58:45Z</time>
      </trkpt>
      <trkpt lat="49.25047" lon="-0.2573">
        <ele>4.1</ele>
        <time>2022-05-31T14:58:46Z</time>
      </trkpt>
      <trkpt lat="49.25049" lon="-0.25728">
        <ele>4.1</ele>
        <time>2022-05-31T14:58:48Z</time>
      </trkpt>
      <trkpt lat="49.2505" lon="-0.25727">
        <ele>4.1</ele>
        <time>2022-05-31T14:58:49Z</time>
      </trkpt>
      <trkpt lat="49.25052" lon="-0.25726">
        <ele>4.1</ele>
        <time>2022-05-31T14:58:50Z</time>
      </trkpt>
      <trkpt lat="49.25053" lon="-0.25725">
        <ele>4.1</ele>
        <time>2022-05-31T14:58:51Z</time>
      </trkpt>
      <trkpt lat="49.25053" lon="-0.25724">
        <ele>4.1</ele>
        <time>2022-05-31T14:58:52Z</time>
      </trkpt>
      <trkpt lat="49.25055" lon="-0.25722">
        <ele>4.1</ele>
        <time>2022-05-31T14:58:53Z</time>
      </trkpt>
      <trkpt lat="49.25056" lon="-0.25722">
        <ele>4.1</ele>
        <time>2022-05-31T14:58:54Z</time>
      </trkpt>
      <trkpt lat="49.25057" lon="-0.25721">
        <ele>4.1</ele>
        <time>2022-05-31T14:58:55Z</time>
      </trkpt>
      <trkpt lat="49.25058" lon="-0.2572">
        <ele>4.1</ele>
        <time>2022-05-31T14:58:56Z</time>
      </trkpt>
      <trkpt lat="49.2506" lon="-0.25719">
        <ele>4.1</ele>
        <time>2022-05-31T14:58:57Z</time>
      </trkpt>
      <trkpt lat="49.25061" lon="-0.25718">
        <ele>4.1</ele>
        <time>2022-05-31T14:58:58Z</time>
      </trkpt>
      <trkpt lat="49.25063" lon="-0.25717">
        <ele>4.1</ele>
        <time>2022-05-31T14:59:00Z</time>
      </trkpt>
      <trkpt lat="49.25064" lon="-0.25716">
        <ele>4.1</ele>
        <time>2022-05-31T14:59:01Z</time>
      </trkpt>
      <trkpt lat="49.25065" lon="-0.25715">
        <ele>4.1</ele>
        <time>2022-05-31T14:59:02Z</time>
      </trkpt>
      <trkpt lat="49.25067" lon="-0.25713">
        <ele>4.1</ele>
        <time>2022-05-31T14:59:03Z</time>
      </trkpt>
      <trkpt lat="49.25068" lon="-0.25712">
        <ele>4.1</ele>
        <time>2022-05-31T14:59:04Z</time>
      </trkpt>
      <trkpt lat="49.25071" lon="-0.2571">
        <ele>4.1</ele>
        <time>2022-05-31T14:59:05Z</time>
      </trkpt>
      <trkpt lat="49.25071" lon="-0.2571">
        <ele>4.1</ele>
        <time>2022-05-31T14:59:06Z</time>
      </trkpt>
      <trkpt lat="49.25073" lon="-0.25709">
        <ele>4.1</ele>
        <time>2022-05-31T14:59:08Z</time>
      </trkpt>
      <trkpt lat="49.25074" lon="-0.25708">
        <ele>4.1</ele>
        <time>2022-05-31T14:59:09Z</time>
      </trkpt>
      <trkpt lat="49.25075" lon="-0.25708">
        <ele>4.1</ele>
        <time>2022-05-31T14:59:10Z</time>
      </trkpt>
      <trkpt lat="49.25076" lon="-0.25707">
        <ele>4.1</ele>
        <time>2022-05-31T14:59:11Z</time>
      </trkpt>
      <trkpt lat="49.25076" lon="-0.25707">
        <ele>4.1</ele>
        <time>2022-05-31T14:59:12Z</time>
      </trkpt>
      <trkpt lat="49.25077" lon="-0.25706">
        <ele>4.1</ele>
        <time>2022-05-31T14:59:13Z</time>
      </trkpt>
      <trkpt lat="49.25079" lon="-0.25705">
        <ele>4.1</ele>
        <time>2022-05-31T14:59:14Z</time>
      </trkpt>
      <trkpt lat="49.2508" lon="-0.25705">
        <ele>4.1</ele>
        <time>2022-05-31T14:59:15Z</time>
      </trkpt>
      <trkpt lat="49.25081" lon="-0.25703">
        <ele>4.1</ele>
        <time>2022-05-31T14:59:17Z</time>
      </trkpt>
      <trkpt lat="49.25082" lon="-0.25702">
        <ele>4.1</ele>
        <time>2022-05-31T14:59:18Z</time>
      </trkpt>
      <trkpt lat="49.25083" lon="-0.25702">
        <ele>4.1</ele>
        <time>2022-05-31T14:59:19Z</time>
      </trkpt>
      <trkpt lat="49.25083" lon="-0.25702">
        <ele>4.1</ele>
        <time>2022-05-31T14:59:20Z</time>
      </trkpt>
      <trkpt lat="49.25084" lon="-0.25701">
        <ele>4.1</ele>
        <time>2022-05-31T14:59:21Z</time>
      </trkpt>
      <trkpt lat="49.25084" lon="-0.25701">
        <ele>4.1</ele>
        <time>2022-05-31T14:59:22Z</time>
      </trkpt>
      <trkpt lat="49.25085" lon="-0.257">
        <ele>4.1</ele>
        <time>2022-05-31T14:59:23Z</time>
      </trkpt>
      <trkpt lat="49.25086" lon="-0.25699">
        <ele>4.1</ele>
        <time>2022-05-31T14:59:24Z</time>
      </trkpt>
      <trkpt lat="49.25087" lon="-0.25697">
        <ele>4.1</ele>
        <time>2022-05-31T14:59:25Z</time>
      </trkpt>
      <trkpt lat="49.25087" lon="-0.25697">
        <ele>4.2</ele>
        <time>2022-05-31T14:59:26Z</time>
      </trkpt>
      <trkpt lat="49.25088" lon="-0.25696">
        <ele>4.2</ele>
        <time>2022-05-31T14:59:27Z</time>
      </trkpt>
      <trkpt lat="49.25089" lon="-0.25695">
        <ele>4.2</ele>
        <time>2022-05-31T14:59:29Z</time>
      </trkpt>
      <trkpt lat="49.2509" lon="-0.25694">
        <ele>4.2</ele>
        <time>2022-05-31T14:59:30Z</time>
      </trkpt>
      <trkpt lat="49.2509" lon="-0.25693">
        <ele>4.2</ele>
        <time>2022-05-31T14:59:31Z</time>
      </trkpt>
      <trkpt lat="49.25091" lon="-0.25692">
        <ele>4.2</ele>
        <time>2022-05-31T14:59:32Z</time>
      </trkpt>
      <trkpt lat="49.25092" lon="-0.25692">
        <ele>4.2</ele>
        <time>2022-05-31T14:59:33Z</time>
      </trkpt>
      <trkpt lat="49.25093" lon="-0.2569">
        <ele>4.2</ele>
        <time>2022-05-31T14:59:34Z</time>
      </trkpt>
      <trkpt lat="49.25094" lon="-0.25689">
        <ele>4.2</ele>
        <time>2022-05-31T14:59:35Z</time>
      </trkpt>
      <trkpt lat="49.25096" lon="-0.25688">
        <ele>4.2</ele>
        <time>2022-05-31T14:59:36Z</time>
      </trkpt>
      <trkpt lat="49.25097" lon="-0.25687">
        <ele>4.2</ele>
        <time>2022-05-31T14:59:37Z</time>
      </trkpt>
      <trkpt lat="49.25099" lon="-0.25686">
        <ele>4.2</ele>
        <time>2022-05-31T14:59:38Z</time>
      </trkpt>
      <trkpt lat="49.251" lon="-0.25685">
        <ele>4.2</ele>
        <time>2022-05-31T14:59:39Z</time>
      </trkpt>
      <trkpt lat="49.25102" lon="-0.25684">
        <ele>4.2</ele>
        <time>2022-05-31T14:59:40Z</time>
      </trkpt>
      <trkpt lat="49.25104" lon="-0.25683">
        <ele>4.2</ele>
        <time>2022-05-31T14:59:42Z</time>
      </trkpt>
      <trkpt lat="49.25105" lon="-0.25682">
        <ele>4.2</ele>
        <time>2022-05-31T14:59:43Z</time>
      </trkpt>
      <trkpt lat="49.25107" lon="-0.25681">
        <ele>4.2</ele>
        <time>2022-05-31T14:59:44Z</time>
      </trkpt>
      <trkpt lat="49.25108" lon="-0.2568">
        <ele>4.2</ele>
        <time>2022-05-31T14:59:45Z</time>
      </trkpt>
      <trkpt lat="49.25109" lon="-0.25679">
        <ele>4.2</ele>
        <time>2022-05-31T14:59:46Z</time>
      </trkpt>
      <trkpt lat="49.2511" lon="-0.25678">
        <ele>4.2</ele>
        <time>2022-05-31T14:59:47Z</time>
      </trkpt>
      <trkpt lat="49.25111" lon="-0.25677">
        <ele>4.2</ele>
        <time>2022-05-31T14:59:48Z</time>
      </trkpt>
      <trkpt lat="49.25112" lon="-0.25676">
        <ele>4.2</ele>
        <time>2022-05-31T14:59:49Z</time>
      </trkpt>
      <trkpt lat="49.25114" lon="-0.25676">
        <ele>4.2</ele>
        <time>2022-05-31T14:59:50Z</time>
      </trkpt>
      <trkpt lat="49.25115" lon="-0.25675">
        <ele>4.2</ele>
        <time>2022-05-31T14:59:51Z</time>
      </trkpt>
      <trkpt lat="49.25116" lon="-0.25674">
        <ele>4.2</ele>
        <time>2022-05-31T14:59:52Z</time>
      </trkpt>
      <trkpt lat="49.25118" lon="-0.25673">
        <ele>4.2</ele>
        <time>2022-05-31T14:59:53Z</time>
      </trkpt>
      <trkpt lat="49.25119" lon="-0.25671">
        <ele>4.2</ele>
        <time>2022-05-31T14:59:55Z</time>
      </trkpt>
      <trkpt lat="49.25121" lon="-0.2567">
        <ele>4.2</ele>
        <time>2022-05-31T14:59:56Z</time>
      </trkpt>
      <trkpt lat="49.25122" lon="-0.2567">
        <ele>4.2</ele>
        <time>2022-05-31T14:59:57Z</time>
      </trkpt>
      <trkpt lat="49.25123" lon="-0.25669">
        <ele>4.2</ele>
        <time>2022-05-31T14:59:58Z</time>
      </trkpt>
      <trkpt lat="49.25124" lon="-0.25667">
        <ele>4.2</ele>
        <time>2022-05-31T14:59:59Z</time>
      </trkpt>
      <trkpt lat="49.25126" lon="-0.25666">
        <ele>4.2</ele>
        <time>2022-05-31T15:00:00Z</time>
      </trkpt>
      <trkpt lat="49.25127" lon="-0.25664">
        <ele>4.2</ele>
        <time>2022-05-31T15:00:01Z</time>
      </trkpt>
      <trkpt lat="49.25128" lon="-0.25664">
        <ele>4.2</ele>
        <time>2022-05-31T15:00:02Z</time>
      </trkpt>
      <trkpt lat="49.25129" lon="-0.25663">
        <ele>4.2</ele>
        <time>2022-05-31T15:00:03Z</time>
      </trkpt>
      <trkpt lat="49.25131" lon="-0.25661">
        <ele>4.2</ele>
        <time>2022-05-31T15:00:04Z</time>
      </trkpt>
      <trkpt lat="49.25132" lon="-0.2566">
        <ele>4.2</ele>
        <time>2022-05-31T15:00:06Z</time>
      </trkpt>
      <trkpt lat="49.25133" lon="-0.25659">
        <ele>4.2</ele>
        <time>2022-05-31T15:00:07Z</time>
      </trkpt>
      <trkpt lat="49.25134" lon="-0.25658">
        <ele>4.2</ele>
        <time>2022-05-31T15:00:08Z</time>
      </trkpt>
      <trkpt lat="49.25134" lon="-0.25657">
        <ele>4.2</ele>
        <time>2022-05-31T15:00:09Z</time>
      </trkpt>
      <trkpt lat="49.25136" lon="-0.25655">
        <ele>4.2</ele>
        <time>2022-05-31T15:00:10Z</time>
      </trkpt>
      <trkpt lat="49.25137" lon="-0.25655">
        <ele>4.2</ele>
        <time>2022-05-31T15:00:11Z</time>
      </trkpt>
      <trkpt lat="49.25138" lon="-0.25654">
        <ele>4.2</ele>
        <time>2022-05-31T15:00:12Z</time>
      </trkpt>
      <trkpt lat="49.25139" lon="-0.25653">
        <ele>4.2</ele>
        <time>2022-05-31T15:00:13Z</time>
      </trkpt>
      <trkpt lat="49.2514" lon="-0.25652">
        <ele>4.2</ele>
        <time>2022-05-31T15:00:14Z</time>
      </trkpt>
      <trkpt lat="49.25141" lon="-0.25651">
        <ele>4.2</ele>
        <time>2022-05-31T15:00:15Z</time>
      </trkpt>
      <trkpt lat="49.25141" lon="-0.2565">
        <ele>4.2</ele>
        <time>2022-05-31T15:00:16Z</time>
      </trkpt>
      <trkpt lat="49.25142" lon="-0.25649">
        <ele>4.2</ele>
        <time>2022-05-31T15:00:17Z</time>
      </trkpt>
      <trkpt lat="49.25143" lon="-0.25648">
        <ele>4.2</ele>
        <time>2022-05-31T15:00:19Z</time>
      </trkpt>
      <trkpt lat="49.25144" lon="-0.25647">
        <ele>4.2</ele>
        <time>2022-05-31T15:00:20Z</time>
      </trkpt>
      <trkpt lat="49.25145" lon="-0.25646">
        <ele>4.2</ele>
        <time>2022-05-31T15:00:21Z</time>
      </trkpt>
      <trkpt lat="49.25145" lon="-0.25646">
        <ele>4.2</ele>
        <time>2022-05-31T15:00:22Z</time>
      </trkpt>
      <trkpt lat="49.25147" lon="-0.25645">
        <ele>4.2</ele>
        <time>2022-05-31T15:00:23Z</time>
      </trkpt>
      <trkpt lat="49.25148" lon="-0.25643">
        <ele>4.2</ele>
        <time>2022-05-31T15:00:24Z</time>
      </trkpt>
      <trkpt lat="49.25149" lon="-0.25642">
        <ele>4.2</ele>
        <time>2022-05-31T15:00:25Z</time>
      </trkpt>
      <trkpt lat="49.2515" lon="-0.25641">
        <ele>4.2</ele>
        <time>2022-05-31T15:00:26Z</time>
      </trkpt>
      <trkpt lat="49.25152" lon="-0.2564">
        <ele>4.2</ele>
        <time>2022-05-31T15:00:27Z</time>
      </trkpt>
      <trkpt lat="49.25153" lon="-0.2564">
        <ele>4.2</ele>
        <time>2022-05-31T15:00:28Z</time>
      </trkpt>
      <trkpt lat="49.25154" lon="-0.25639">
        <ele>4.2</ele>
        <time>2022-05-31T15:00:29Z</time>
      </trkpt>
      <trkpt lat="49.25155" lon="-0.25638">
        <ele>4.2</ele>
        <time>2022-05-31T15:00:31Z</time>
      </trkpt>
      <trkpt lat="49.25157" lon="-0.25637">
        <ele>4.2</ele>
        <time>2022-05-31T15:00:32Z</time>
      </trkpt>
      <trkpt lat="49.25158" lon="-0.25636">
        <ele>4.3</ele>
        <time>2022-05-31T15:00:33Z</time>
      </trkpt>
      <trkpt lat="49.25159" lon="-0.25635">
        <ele>4.3</ele>
        <time>2022-05-31T15:00:34Z</time>
      </trkpt>
      <trkpt lat="49.25161" lon="-0.25634">
        <ele>4.3</ele>
        <time>2022-05-31T15:00:35Z</time>
      </trkpt>
      <trkpt lat="49.25162" lon="-0.25633">
        <ele>4.3</ele>
        <time>2022-05-31T15:00:36Z</time>
      </trkpt>
      <trkpt lat="49.25163" lon="-0.25632">
        <ele>4.3</ele>
        <time>2022-05-31T15:00:37Z</time>
      </trkpt>
      <trkpt lat="49.25164" lon="-0.25632">
        <ele>4.3</ele>
        <time>2022-05-31T15:00:38Z</time>
      </trkpt>
      <trkpt lat="49.25165" lon="-0.25632">
        <ele>4.3</ele>
        <time>2022-05-31T15:00:39Z</time>
      </trkpt>
      <trkpt lat="49.25166" lon="-0.25631">
        <ele>4.3</ele>
        <time>2022-05-31T15:00:40Z</time>
      </trkpt>
      <trkpt lat="49.25167" lon="-0.25631">
        <ele>4.3</ele>
        <time>2022-05-31T15:00:42Z</time>
      </trkpt>
      <trkpt lat="49.25167" lon="-0.2563">
        <ele>4.3</ele>
        <time>2022-05-31T15:00:43Z</time>
      </trkpt>
      <trkpt lat="49.25169" lon="-0.25629">
        <ele>4.3</ele>
        <time>2022-05-31T15:00:44Z</time>
      </trkpt>
      <trkpt lat="49.2517" lon="-0.25628">
        <ele>4.3</ele>
        <time>2022-05-31T15:00:45Z</time>
      </trkpt>
      <trkpt lat="49.25172" lon="-0.25626">
        <ele>4.3</ele>
        <time>2022-05-31T15:00:46Z</time>
      </trkpt>
      <trkpt lat="49.25173" lon="-0.25625">
        <ele>4.3</ele>
        <time>2022-05-31T15:00:47Z</time>
      </trkpt>
      <trkpt lat="49.25176" lon="-0.25623">
        <ele>4.3</ele>
        <time>2022-05-31T15:00:48Z</time>
      </trkpt>
      <trkpt lat="49.25177" lon="-0.25622">
        <ele>4.3</ele>
        <time>2022-05-31T15:00:49Z</time>
      </trkpt>
      <trkpt lat="49.25179" lon="-0.2562">
        <ele>4.3</ele>
        <time>2022-05-31T15:00:50Z</time>
      </trkpt>
      <trkpt lat="49.2518" lon="-0.25619">
        <ele>4.3</ele>
        <time>2022-05-31T15:00:51Z</time>
      </trkpt>
      <trkpt lat="49.25182" lon="-0.25618">
        <ele>4.3</ele>
        <time>2022-05-31T15:00:52Z</time>
      </trkpt>
      <trkpt lat="49.25184" lon="-0.25617">
        <ele>4.3</ele>
        <time>2022-05-31T15:00:54Z</time>
      </trkpt>
      <trkpt lat="49.25185" lon="-0.25615">
        <ele>4.3</ele>
        <time>2022-05-31T15:00:55Z</time>
      </trkpt>
      <trkpt lat="49.25187" lon="-0.25614">
        <ele>4.3</ele>
        <time>2022-05-31T15:00:56Z</time>
      </trkpt>
      <trkpt lat="49.25187" lon="-0.25614">
        <ele>4.3</ele>
        <time>2022-05-31T15:00:57Z</time>
      </trkpt>
      <trkpt lat="49.25188" lon="-0.25613">
        <ele>4.3</ele>
        <time>2022-05-31T15:00:58Z</time>
      </trkpt>
      <trkpt lat="49.25189" lon="-0.25613">
        <ele>4.3</ele>
        <time>2022-05-31T15:00:59Z</time>
      </trkpt>
      <trkpt lat="49.25189" lon="-0.25612">
        <ele>4.3</ele>
        <time>2022-05-31T15:01:01Z</time>
      </trkpt>
      <trkpt lat="49.2519" lon="-0.25611">
        <ele>4.3</ele>
        <time>2022-05-31T15:01:02Z</time>
      </trkpt>
      <trkpt lat="49.25191" lon="-0.2561">
        <ele>4.3</ele>
        <time>2022-05-31T15:01:03Z</time>
      </trkpt>
      <trkpt lat="49.25192" lon="-0.25609">
        <ele>4.3</ele>
        <time>2022-05-31T15:01:04Z</time>
      </trkpt>
      <trkpt lat="49.25193" lon="-0.25607">
        <ele>4.3</ele>
        <time>2022-05-31T15:01:05Z</time>
      </trkpt>
      <trkpt lat="49.25194" lon="-0.25606">
        <ele>4.3</ele>
        <time>2022-05-31T15:01:06Z</time>
      </trkpt>
      <trkpt lat="49.25195" lon="-0.25605">
        <ele>4.4</ele>
        <time>2022-05-31T15:01:07Z</time>
      </trkpt>
      <trkpt lat="49.25196" lon="-0.25604">
        <ele>4.4</ele>
        <time>2022-05-31T15:01:08Z</time>
      </trkpt>
      <trkpt lat="49.25197" lon="-0.25603">
        <ele>4.4</ele>
        <time>2022-05-31T15:01:09Z</time>
      </trkpt>
      <trkpt lat="49.25198" lon="-0.25602">
        <ele>4.4</ele>
        <time>2022-05-31T15:01:11Z</time>
      </trkpt>
      <trkpt lat="49.25199" lon="-0.25601">
        <ele>4.4</ele>
        <time>2022-05-31T15:01:12Z</time>
      </trkpt>
      <trkpt lat="49.25199" lon="-0.25601">
        <ele>4.4</ele>
        <time>2022-05-31T15:01:13Z</time>
      </trkpt>
      <trkpt lat="49.252" lon="-0.256">
        <ele>4.4</ele>
        <time>2022-05-31T15:01:14Z</time>
      </trkpt>
      <trkpt lat="49.25201" lon="-0.256">
        <ele>4.4</ele>
        <time>2022-05-31T15:01:15Z</time>
      </trkpt>
      <trkpt lat="49.25201" lon="-0.25599">
        <ele>4.4</ele>
        <time>2022-05-31T15:01:16Z</time>
      </trkpt>
      <trkpt lat="49.25202" lon="-0.25598">
        <ele>4.4</ele>
        <time>2022-05-31T15:01:17Z</time>
      </trkpt>
      <trkpt lat="49.25203" lon="-0.25598">
        <ele>4.4</ele>
        <time>2022-05-31T15:01:18Z</time>
      </trkpt>
      <trkpt lat="49.25204" lon="-0.25596">
        <ele>4.4</ele>
        <time>2022-05-31T15:01:20Z</time>
      </trkpt>
      <trkpt lat="49.25204" lon="-0.25596">
        <ele>4.4</ele>
        <time>2022-05-31T15:01:21Z</time>
      </trkpt>
      <trkpt lat="49.25205" lon="-0.25596">
        <ele>4.4</ele>
        <time>2022-05-31T15:01:22Z</time>
      </trkpt>
      <trkpt lat="49.25206" lon="-0.25595">
        <ele>4.4</ele>
        <time>2022-05-31T15:01:23Z</time>
      </trkpt>
      <trkpt lat="49.25207" lon="-0.25595">
        <ele>4.4</ele>
        <time>2022-05-31T15:01:24Z</time>
      </trkpt>
      <trkpt lat="49.25207" lon="-0.25595">
        <ele>4.4</ele>
        <time>2022-05-31T15:01:25Z</time>
      </trkpt>
      <trkpt lat="49.25207" lon="-0.25594">
        <ele>4.4</ele>
        <time>2022-05-31T15:01:26Z</time>
      </trkpt>
      <trkpt lat="49.25207" lon="-0.25594">
        <ele>4.4</ele>
        <time>2022-05-31T15:01:27Z</time>
      </trkpt>
      <trkpt lat="49.25208" lon="-0.25594">
        <ele>4.4</ele>
        <time>2022-05-31T15:01:28Z</time>
      </trkpt>
      <trkpt lat="49.25209" lon="-0.25592">
        <ele>4.4</ele>
        <time>2022-05-31T15:01:29Z</time>
      </trkpt>
      <trkpt lat="49.2521" lon="-0.25591">
        <ele>4.4</ele>
        <time>2022-05-31T15:01:30Z</time>
      </trkpt>
      <trkpt lat="49.25211" lon="-0.2559">
        <ele>4.4</ele>
        <time>2022-05-31T15:01:32Z</time>
      </trkpt>
      <trkpt lat="49.25211" lon="-0.25589">
        <ele>4.4</ele>
        <time>2022-05-31T15:01:33Z</time>
      </trkpt>
      <trkpt lat="49.25212" lon="-0.25588">
        <ele>4.4</ele>
        <time>2022-05-31T15:01:34Z</time>
      </trkpt>
      <trkpt lat="49.25213" lon="-0.25587">
        <ele>4.4</ele>
        <time>2022-05-31T15:01:35Z</time>
      </trkpt>
      <trkpt lat="49.25214" lon="-0.25585">
        <ele>4.4</ele>
        <time>2022-05-31T15:01:36Z</time>
      </trkpt>
      <trkpt lat="49.25215" lon="-0.25584">
        <ele>4.4</ele>
        <time>2022-05-31T15:01:37Z</time>
      </trkpt>
      <trkpt lat="49.25217" lon="-0.25582">
        <ele>4.4</ele>
        <time>2022-05-31T15:01:39Z</time>
      </trkpt>
      <trkpt lat="49.25217" lon="-0.25581">
        <ele>4.4</ele>
        <time>2022-05-31T15:01:40Z</time>
      </trkpt>
      <trkpt lat="49.25218" lon="-0.2558">
        <ele>4.4</ele>
        <time>2022-05-31T15:01:41Z</time>
      </trkpt>
      <trkpt lat="49.25219" lon="-0.25579">
        <ele>4.4</ele>
        <time>2022-05-31T15:01:42Z</time>
      </trkpt>
      <trkpt lat="49.2522" lon="-0.25578">
        <ele>4.3</ele>
        <time>2022-05-31T15:01:43Z</time>
      </trkpt>
      <trkpt lat="49.2522" lon="-0.25578">
        <ele>4.3</ele>
        <time>2022-05-31T15:01:44Z</time>
      </trkpt>
      <trkpt lat="49.25223" lon="-0.25576">
        <ele>4.3</ele>
        <time>2022-05-31T15:01:45Z</time>
      </trkpt>
      <trkpt lat="49.25224" lon="-0.25576">
        <ele>4.3</ele>
        <time>2022-05-31T15:01:47Z</time>
      </trkpt>
      <trkpt lat="49.25225" lon="-0.25575">
        <ele>4.3</ele>
        <time>2022-05-31T15:01:48Z</time>
      </trkpt>
      <trkpt lat="49.25226" lon="-0.25574">
        <ele>4.3</ele>
        <time>2022-05-31T15:01:49Z</time>
      </trkpt>
      <trkpt lat="49.25227" lon="-0.25574">
        <ele>4.3</ele>
        <time>2022-05-31T15:01:50Z</time>
      </trkpt>
      <trkpt lat="49.25228" lon="-0.25573">
        <ele>4.3</ele>
        <time>2022-05-31T15:01:51Z</time>
      </trkpt>
      <trkpt lat="49.25229" lon="-0.25572">
        <ele>4.3</ele>
        <time>2022-05-31T15:01:52Z</time>
      </trkpt>
      <trkpt lat="49.25231" lon="-0.25571">
        <ele>4.3</ele>
        <time>2022-05-31T15:01:53Z</time>
      </trkpt>
      <trkpt lat="49.25233" lon="-0.2557">
        <ele>4.3</ele>
        <time>2022-05-31T15:01:54Z</time>
      </trkpt>
      <trkpt lat="49.25234" lon="-0.25569">
        <ele>4.3</ele>
        <time>2022-05-31T15:01:55Z</time>
      </trkpt>
      <trkpt lat="49.25236" lon="-0.25568">
        <ele>4.3</ele>
        <time>2022-05-31T15:01:57Z</time>
      </trkpt>
      <trkpt lat="49.25237" lon="-0.25567">
        <ele>4.3</ele>
        <time>2022-05-31T15:01:58Z</time>
      </trkpt>
      <trkpt lat="49.25239" lon="-0.25566">
        <ele>4.3</ele>
        <time>2022-05-31T15:01:59Z</time>
      </trkpt>
      <trkpt lat="49.25241" lon="-0.25565">
        <ele>4.3</ele>
        <time>2022-05-31T15:02:00Z</time>
      </trkpt>
      <trkpt lat="49.25242" lon="-0.25564">
        <ele>4.3</ele>
        <time>2022-05-31T15:02:01Z</time>
      </trkpt>
      <trkpt lat="49.25245" lon="-0.25562">
        <ele>4.3</ele>
        <time>2022-05-31T15:02:02Z</time>
      </trkpt>
      <trkpt lat="49.25245" lon="-0.25562">
        <ele>4.3</ele>
        <time>2022-05-31T15:02:03Z</time>
      </trkpt>
      <trkpt lat="49.25248" lon="-0.2556">
        <ele>4.3</ele>
        <time>2022-05-31T15:02:04Z</time>
      </trkpt>
      <trkpt lat="49.25249" lon="-0.25559">
        <ele>4.2</ele>
        <time>2022-05-31T15:02:05Z</time>
      </trkpt>
      <trkpt lat="49.2525" lon="-0.25558">
        <ele>4.2</ele>
        <time>2022-05-31T15:02:06Z</time>
      </trkpt>
      <trkpt lat="49.25252" lon="-0.25557">
        <ele>4.2</ele>
        <time>2022-05-31T15:02:07Z</time>
      </trkpt>
      <trkpt lat="49.25253" lon="-0.25556">
        <ele>4.2</ele>
        <time>2022-05-31T15:02:08Z</time>
      </trkpt>
      <trkpt lat="49.25255" lon="-0.25555">
        <ele>4.2</ele>
        <time>2022-05-31T15:02:09Z</time>
      </trkpt>
      <trkpt lat="49.25256" lon="-0.25554">
        <ele>4.2</ele>
        <time>2022-05-31T15:02:11Z</time>
      </trkpt>
      <trkpt lat="49.25258" lon="-0.25554">
        <ele>4.2</ele>
        <time>2022-05-31T15:02:12Z</time>
      </trkpt>
      <trkpt lat="49.25259" lon="-0.25553">
        <ele>4.2</ele>
        <time>2022-05-31T15:02:13Z</time>
      </trkpt>
      <trkpt lat="49.2526" lon="-0.25553">
        <ele>4.2</ele>
        <time>2022-05-31T15:02:14Z</time>
      </trkpt>
      <trkpt lat="49.2526" lon="-0.25552">
        <ele>4.2</ele>
        <time>2022-05-31T15:02:15Z</time>
      </trkpt>
      <trkpt lat="49.2526" lon="-0.25553">
        <ele>4.2</ele>
        <time>2022-05-31T15:02:16Z</time>
      </trkpt>
      <trkpt lat="49.2526" lon="-0.25553">
        <ele>4.2</ele>
        <time>2022-05-31T15:02:17Z</time>
      </trkpt>
      <trkpt lat="49.25261" lon="-0.25552">
        <ele>4.2</ele>
        <time>2022-05-31T15:02:18Z</time>
      </trkpt>
      <trkpt lat="49.25261" lon="-0.25552">
        <ele>4.2</ele>
        <time>2022-05-31T15:02:19Z</time>
      </trkpt>
      <trkpt lat="49.25261" lon="-0.25552">
        <ele>4.2</ele>
        <time>2022-05-31T15:02:20Z</time>
      </trkpt>
      <trkpt lat="49.25261" lon="-0.25551">
        <ele>4.2</ele>
        <time>2022-05-31T15:02:21Z</time>
      </trkpt>
      <trkpt lat="49.25261" lon="-0.25551">
        <ele>4.2</ele>
        <time>2022-05-31T15:02:23Z</time>
      </trkpt>
      <trkpt lat="49.25262" lon="-0.2555">
        <ele>4.2</ele>
        <time>2022-05-31T15:02:24Z</time>
      </trkpt>
      <trkpt lat="49.25262" lon="-0.25549">
        <ele>4.2</ele>
        <time>2022-05-31T15:02:25Z</time>
      </trkpt>
      <trkpt lat="49.25263" lon="-0.25548">
        <ele>4.2</ele>
        <time>2022-05-31T15:02:26Z</time>
      </trkpt>
      <trkpt lat="49.25265" lon="-0.25546">
        <ele>4.2</ele>
        <time>2022-05-31T15:02:27Z</time>
      </trkpt>
      <trkpt lat="49.25265" lon="-0.25546">
        <ele>4.2</ele>
        <time>2022-05-31T15:02:28Z</time>
      </trkpt>
      <trkpt lat="49.25266" lon="-0.25545">
        <ele>4.2</ele>
        <time>2022-05-31T15:02:29Z</time>
      </trkpt>
      <trkpt lat="49.25267" lon="-0.25545">
        <ele>4.2</ele>
        <time>2022-05-31T15:02:30Z</time>
      </trkpt>
      <trkpt lat="49.25267" lon="-0.25544">
        <ele>4.2</ele>
        <time>2022-05-31T15:02:31Z</time>
      </trkpt>
      <trkpt lat="49.25268" lon="-0.25544">
        <ele>4.2</ele>
        <time>2022-05-31T15:02:32Z</time>
      </trkpt>
      <trkpt lat="49.25269" lon="-0.25544">
        <ele>4.2</ele>
        <time>2022-05-31T15:02:33Z</time>
      </trkpt>
      <trkpt lat="49.2527" lon="-0.25543">
        <ele>4.2</ele>
        <time>2022-05-31T15:02:34Z</time>
      </trkpt>
      <trkpt lat="49.25272" lon="-0.25541">
        <ele>4.2</ele>
        <time>2022-05-31T15:02:36Z</time>
      </trkpt>
      <trkpt lat="49.25273" lon="-0.2554">
        <ele>4.2</ele>
        <time>2022-05-31T15:02:37Z</time>
      </trkpt>
      <trkpt lat="49.25274" lon="-0.25539">
        <ele>4.2</ele>
        <time>2022-05-31T15:02:38Z</time>
      </trkpt>
      <trkpt lat="49.25275" lon="-0.25538">
        <ele>4.2</ele>
        <time>2022-05-31T15:02:39Z</time>
      </trkpt>
      <trkpt lat="49.25277" lon="-0.25537">
        <ele>4.2</ele>
        <time>2022-05-31T15:02:40Z</time>
      </trkpt>
      <trkpt lat="49.25278" lon="-0.25535">
        <ele>4.2</ele>
        <time>2022-05-31T15:02:41Z</time>
      </trkpt>
      <trkpt lat="49.25279" lon="-0.25534">
        <ele>4.2</ele>
        <time>2022-05-31T15:02:42Z</time>
      </trkpt>
      <trkpt lat="49.2528" lon="-0.25533">
        <ele>4.2</ele>
        <time>2022-05-31T15:02:43Z</time>
      </trkpt>
      <trkpt lat="49.25281" lon="-0.25532">
        <ele>4.2</ele>
        <time>2022-05-31T15:02:44Z</time>
      </trkpt>
      <trkpt lat="49.25283" lon="-0.2553">
        <ele>4.2</ele>
        <time>2022-05-31T15:02:45Z</time>
      </trkpt>
      <trkpt lat="49.25284" lon="-0.2553">
        <ele>4.2</ele>
        <time>2022-05-31T15:02:46Z</time>
      </trkpt>
      <trkpt lat="49.25285" lon="-0.25529">
        <ele>4.2</ele>
        <time>2022-05-31T15:02:47Z</time>
      </trkpt>
      <trkpt lat="49.25286" lon="-0.25528">
        <ele>4.2</ele>
        <time>2022-05-31T15:02:49Z</time>
      </trkpt>
      <trkpt lat="49.25288" lon="-0.25527">
        <ele>4.2</ele>
        <time>2022-05-31T15:02:50Z</time>
      </trkpt>
      <trkpt lat="49.2529" lon="-0.25525">
        <ele>4.2</ele>
        <time>2022-05-31T15:02:51Z</time>
      </trkpt>
      <trkpt lat="49.25291" lon="-0.25525">
        <ele>4.2</ele>
        <time>2022-05-31T15:02:52Z</time>
      </trkpt>
      <trkpt lat="49.25294" lon="-0.25523">
        <ele>4.2</ele>
        <time>2022-05-31T15:02:53Z</time>
      </trkpt>
      <trkpt lat="49.25295" lon="-0.25522">
        <ele>4.2</ele>
        <time>2022-05-31T15:02:54Z</time>
      </trkpt>
      <trkpt lat="49.25298" lon="-0.2552">
        <ele>4.2</ele>
        <time>2022-05-31T15:02:55Z</time>
      </trkpt>
      <trkpt lat="49.25299" lon="-0.25519">
        <ele>4.2</ele>
        <time>2022-05-31T15:02:56Z</time>
      </trkpt>
      <trkpt lat="49.253" lon="-0.25517">
        <ele>4.2</ele>
        <time>2022-05-31T15:02:57Z</time>
      </trkpt>
      <trkpt lat="49.25301" lon="-0.25516">
        <ele>4.2</ele>
        <time>2022-05-31T15:02:58Z</time>
      </trkpt>
      <trkpt lat="49.25302" lon="-0.25515">
        <ele>4.2</ele>
        <time>2022-05-31T15:02:59Z</time>
      </trkpt>
      <trkpt lat="49.25304" lon="-0.25514">
        <ele>4.2</ele>
        <time>2022-05-31T15:03:01Z</time>
      </trkpt>
      <trkpt lat="49.25304" lon="-0.25514">
        <ele>4.2</ele>
        <time>2022-05-31T15:03:02Z</time>
      </trkpt>
      <trkpt lat="49.25305" lon="-0.25513">
        <ele>4.2</ele>
        <time>2022-05-31T15:03:03Z</time>
      </trkpt>
      <trkpt lat="49.25305" lon="-0.25513">
        <ele>4.2</ele>
        <time>2022-05-31T15:03:04Z</time>
      </trkpt>
      <trkpt lat="49.25305" lon="-0.25512">
        <ele>4.2</ele>
        <time>2022-05-31T15:03:05Z</time>
      </trkpt>
      <trkpt lat="49.25306" lon="-0.25512">
        <ele>4.2</ele>
        <time>2022-05-31T15:03:06Z</time>
      </trkpt>
      <trkpt lat="49.25307" lon="-0.25511">
        <ele>4.2</ele>
        <time>2022-05-31T15:03:07Z</time>
      </trkpt>
      <trkpt lat="49.25308" lon="-0.2551">
        <ele>4.2</ele>
        <time>2022-05-31T15:03:08Z</time>
      </trkpt>
      <trkpt lat="49.25309" lon="-0.2551">
        <ele>4.2</ele>
        <time>2022-05-31T15:03:09Z</time>
      </trkpt>
      <trkpt lat="49.2531" lon="-0.25509">
        <ele>4.2</ele>
        <time>2022-05-31T15:03:10Z</time>
      </trkpt>
      <trkpt lat="49.2531" lon="-0.25508">
        <ele>4.2</ele>
        <time>2022-05-31T15:03:11Z</time>
      </trkpt>
      <trkpt lat="49.25311" lon="-0.25508">
        <ele>4.2</ele>
        <time>2022-05-31T15:03:13Z</time>
      </trkpt>
      <trkpt lat="49.25311" lon="-0.25508">
        <ele>4.2</ele>
        <time>2022-05-31T15:03:14Z</time>
      </trkpt>
      <trkpt lat="49.25311" lon="-0.25507">
        <ele>4.2</ele>
        <time>2022-05-31T15:03:15Z</time>
      </trkpt>
      <trkpt lat="49.25312" lon="-0.25506">
        <ele>4.2</ele>
        <time>2022-05-31T15:03:16Z</time>
      </trkpt>
      <trkpt lat="49.25312" lon="-0.25506">
        <ele>4.2</ele>
        <time>2022-05-31T15:03:17Z</time>
      </trkpt>
      <trkpt lat="49.25312" lon="-0.25506">
        <ele>4.2</ele>
        <time>2022-05-31T15:03:18Z</time>
      </trkpt>
      <trkpt lat="49.25313" lon="-0.25505">
        <ele>4.2</ele>
        <time>2022-05-31T15:03:19Z</time>
      </trkpt>
      <trkpt lat="49.25314" lon="-0.25504">
        <ele>4.2</ele>
        <time>2022-05-31T15:03:20Z</time>
      </trkpt>
      <trkpt lat="49.25315" lon="-0.25503">
        <ele>4.2</ele>
        <time>2022-05-31T15:03:21Z</time>
      </trkpt>
      <trkpt lat="49.25317" lon="-0.25502">
        <ele>4.2</ele>
        <time>2022-05-31T15:03:22Z</time>
      </trkpt>
      <trkpt lat="49.25318" lon="-0.25501">
        <ele>4.2</ele>
        <time>2022-05-31T15:03:23Z</time>
      </trkpt>
      <trkpt lat="49.2532" lon="-0.25499">
        <ele>4.2</ele>
        <time>2022-05-31T15:03:24Z</time>
      </trkpt>
      <trkpt lat="49.2532" lon="-0.25499">
        <ele>4.2</ele>
        <time>2022-05-31T15:03:25Z</time>
      </trkpt>
      <trkpt lat="49.25321" lon="-0.25498">
        <ele>4.2</ele>
        <time>2022-05-31T15:03:27Z</time>
      </trkpt>
      <trkpt lat="49.25322" lon="-0.25497">
        <ele>4.2</ele>
        <time>2022-05-31T15:03:28Z</time>
      </trkpt>
      <trkpt lat="49.25323" lon="-0.25497">
        <ele>4.2</ele>
        <time>2022-05-31T15:03:29Z</time>
      </trkpt>
      <trkpt lat="49.25323" lon="-0.25496">
        <ele>4.2</ele>
        <time>2022-05-31T15:03:30Z</time>
      </trkpt>
      <trkpt lat="49.25324" lon="-0.25495">
        <ele>4.2</ele>
        <time>2022-05-31T15:03:31Z</time>
      </trkpt>
      <trkpt lat="49.25325" lon="-0.25494">
        <ele>4.2</ele>
        <time>2022-05-31T15:03:32Z</time>
      </trkpt>
      <trkpt lat="49.25326" lon="-0.25493">
        <ele>4.2</ele>
        <time>2022-05-31T15:03:33Z</time>
      </trkpt>
      <trkpt lat="49.25328" lon="-0.25492">
        <ele>4.2</ele>
        <time>2022-05-31T15:03:34Z</time>
      </trkpt>
      <trkpt lat="49.25329" lon="-0.25491">
        <ele>4.2</ele>
        <time>2022-05-31T15:03:35Z</time>
      </trkpt>
      <trkpt lat="49.2533" lon="-0.2549">
        <ele>4.2</ele>
        <time>2022-05-31T15:03:36Z</time>
      </trkpt>
      <trkpt lat="49.25331" lon="-0.25489">
        <ele>4.2</ele>
        <time>2022-05-31T15:03:37Z</time>
      </trkpt>
      <trkpt lat="49.25333" lon="-0.25487">
        <ele>4.2</ele>
        <time>2022-05-31T15:03:39Z</time>
      </trkpt>
      <trkpt lat="49.25334" lon="-0.25486">
        <ele>4.2</ele>
        <time>2022-05-31T15:03:40Z</time>
      </trkpt>
      <trkpt lat="49.25335" lon="-0.25484">
        <ele>4.2</ele>
        <time>2022-05-31T15:03:41Z</time>
      </trkpt>
      <trkpt lat="49.25336" lon="-0.25483">
        <ele>4.2</ele>
        <time>2022-05-31T15:03:42Z</time>
      </trkpt>
      <trkpt lat="49.25337" lon="-0.25482">
        <ele>4.2</ele>
        <time>2022-05-31T15:03:43Z</time>
      </trkpt>
      <trkpt lat="49.25339" lon="-0.2548">
        <ele>4.2</ele>
        <time>2022-05-31T15:03:44Z</time>
      </trkpt>
      <trkpt lat="49.2534" lon="-0.25479">
        <ele>4.2</ele>
        <time>2022-05-31T15:03:45Z</time>
      </trkpt>
      <trkpt lat="49.25341" lon="-0.25479">
        <ele>4.2</ele>
        <time>2022-05-31T15:03:46Z</time>
      </trkpt>
      <trkpt lat="49.25341" lon="-0.25478">
        <ele>4.2</ele>
        <time>2022-05-31T15:03:47Z</time>
      </trkpt>
      <trkpt lat="49.25342" lon="-0.25477">
        <ele>4.2</ele>
        <time>2022-05-31T15:03:48Z</time>
      </trkpt>
      <trkpt lat="49.25343" lon="-0.25477">
        <ele>4.2</ele>
        <time>2022-05-31T15:03:49Z</time>
      </trkpt>
      <trkpt lat="49.25344" lon="-0.25476">
        <ele>4.2</ele>
        <time>2022-05-31T15:03:51Z</time>
      </trkpt>
      <trkpt lat="49.25345" lon="-0.25475">
        <ele>4.2</ele>
        <time>2022-05-31T15:03:52Z</time>
      </trkpt>
      <trkpt lat="49.25346" lon="-0.25474">
        <ele>4.2</ele>
        <time>2022-05-31T15:03:53Z</time>
      </trkpt>
      <trkpt lat="49.25347" lon="-0.25473">
        <ele>4.2</ele>
        <time>2022-05-31T15:03:54Z</time>
      </trkpt>
      <trkpt lat="49.25347" lon="-0.25473">
        <ele>4.2</ele>
        <time>2022-05-31T15:03:55Z</time>
      </trkpt>
      <trkpt lat="49.25348" lon="-0.25472">
        <ele>4.2</ele>
        <time>2022-05-31T15:03:56Z</time>
      </trkpt>
      <trkpt lat="49.25349" lon="-0.25471">
        <ele>4.2</ele>
        <time>2022-05-31T15:03:57Z</time>
      </trkpt>
      <trkpt lat="49.25351" lon="-0.25469">
        <ele>4.2</ele>
        <time>2022-05-31T15:03:58Z</time>
      </trkpt>
      <trkpt lat="49.25351" lon="-0.25468">
        <ele>4.2</ele>
        <time>2022-05-31T15:03:59Z</time>
      </trkpt>
      <trkpt lat="49.25352" lon="-0.25467">
        <ele>4.2</ele>
        <time>2022-05-31T15:04:01Z</time>
      </trkpt>
      <trkpt lat="49.25353" lon="-0.25467">
        <ele>4.2</ele>
        <time>2022-05-31T15:04:02Z</time>
      </trkpt>
      <trkpt lat="49.25354" lon="-0.25466">
        <ele>4.2</ele>
        <time>2022-05-31T15:04:03Z</time>
      </trkpt>
      <trkpt lat="49.25355" lon="-0.25465">
        <ele>4.2</ele>
        <time>2022-05-31T15:04:04Z</time>
      </trkpt>
      <trkpt lat="49.25356" lon="-0.25464">
        <ele>4.2</ele>
        <time>2022-05-31T15:04:05Z</time>
      </trkpt>
      <trkpt lat="49.25357" lon="-0.25463">
        <ele>4.2</ele>
        <time>2022-05-31T15:04:06Z</time>
      </trkpt>
      <trkpt lat="49.25358" lon="-0.25461">
        <ele>4.2</ele>
        <time>2022-05-31T15:04:07Z</time>
      </trkpt>
      <trkpt lat="49.25359" lon="-0.2546">
        <ele>4.2</ele>
        <time>2022-05-31T15:04:08Z</time>
      </trkpt>
      <trkpt lat="49.2536" lon="-0.25459">
        <ele>4.2</ele>
        <time>2022-05-31T15:04:10Z</time>
      </trkpt>
      <trkpt lat="49.25361" lon="-0.25458">
        <ele>4.2</ele>
        <time>2022-05-31T15:04:11Z</time>
      </trkpt>
      <trkpt lat="49.25361" lon="-0.25458">
        <ele>4.2</ele>
        <time>2022-05-31T15:04:12Z</time>
      </trkpt>
      <trkpt lat="49.25361" lon="-0.25459">
        <ele>4.2</ele>
        <time>2022-05-31T15:04:13Z</time>
      </trkpt>
      <trkpt lat="49.25361" lon="-0.25459">
        <ele>4.2</ele>
        <time>2022-05-31T15:04:14Z</time>
      </trkpt>
      <trkpt lat="49.25362" lon="-0.25458">
        <ele>4.2</ele>
        <time>2022-05-31T15:04:15Z</time>
      </trkpt>
      <trkpt lat="49.25363" lon="-0.25457">
        <ele>4.2</ele>
        <time>2022-05-31T15:04:16Z</time>
      </trkpt>
      <trkpt lat="49.25364" lon="-0.25456">
        <ele>4.2</ele>
        <time>2022-05-31T15:04:17Z</time>
      </trkpt>
      <trkpt lat="49.25364" lon="-0.25454">
        <ele>4.2</ele>
        <time>2022-05-31T15:04:19Z</time>
      </trkpt>
      <trkpt lat="49.25364" lon="-0.25453">
        <ele>4.2</ele>
        <time>2022-05-31T15:04:20Z</time>
      </trkpt>
      <trkpt lat="49.25364" lon="-0.25452">
        <ele>4.2</ele>
        <time>2022-05-31T15:04:21Z</time>
      </trkpt>
      <trkpt lat="49.25363" lon="-0.25451">
        <ele>4.2</ele>
        <time>2022-05-31T15:04:22Z</time>
      </trkpt>
      <trkpt lat="49.25363" lon="-0.2545">
        <ele>4.2</ele>
        <time>2022-05-31T15:04:23Z</time>
      </trkpt>
      <trkpt lat="49.25362" lon="-0.25449">
        <ele>4.2</ele>
        <time>2022-05-31T15:04:24Z</time>
      </trkpt>
      <trkpt lat="49.25361" lon="-0.25447">
        <ele>4.2</ele>
        <time>2022-05-31T15:04:26Z</time>
      </trkpt>
      <trkpt lat="49.2536" lon="-0.25448">
        <ele>4.2</ele>
        <time>2022-05-31T15:04:27Z</time>
      </trkpt>
      <trkpt lat="49.25359" lon="-0.25448">
        <ele>4.2</ele>
        <time>2022-05-31T15:04:28Z</time>
      </trkpt>
      <trkpt lat="49.25359" lon="-0.25449">
        <ele>4.2</ele>
        <time>2022-05-31T15:04:29Z</time>
      </trkpt>
      <trkpt lat="49.25358" lon="-0.25449">
        <ele>4.2</ele>
        <time>2022-05-31T15:04:30Z</time>
      </trkpt>
      <trkpt lat="49.25358" lon="-0.2545">
        <ele>4.2</ele>
        <time>2022-05-31T15:04:31Z</time>
      </trkpt>
      <trkpt lat="49.25358" lon="-0.2545">
        <ele>4.2</ele>
        <time>2022-05-31T15:04:32Z</time>
      </trkpt>
      <trkpt lat="49.25358" lon="-0.2545">
        <ele>4.2</ele>
        <time>2022-05-31T15:04:33Z</time>
      </trkpt>
      <trkpt lat="49.25358" lon="-0.25451">
        <ele>4.2</ele>
        <time>2022-05-31T15:04:34Z</time>
      </trkpt>
      <trkpt lat="49.25358" lon="-0.25451">
        <ele>4.2</ele>
        <time>2022-05-31T15:04:35Z</time>
      </trkpt>
      <trkpt lat="49.25358" lon="-0.25451">
        <ele>4.2</ele>
        <time>2022-05-31T15:04:36Z</time>
      </trkpt>
      <trkpt lat="49.25358" lon="-0.25451">
        <ele>4.2</ele>
        <time>2022-05-31T15:04:37Z</time>
      </trkpt>
      <trkpt lat="49.25358" lon="-0.25451">
        <ele>4.2</ele>
        <time>2022-05-31T15:04:38Z</time>
      </trkpt>
      <trkpt lat="49.25358" lon="-0.25451">
        <ele>4.2</ele>
        <time>2022-05-31T15:04:40Z</time>
      </trkpt>
      <trkpt lat="49.25358" lon="-0.25451">
        <ele>4.2</ele>
        <time>2022-05-31T15:04:41Z</time>
      </trkpt>
      <trkpt lat="49.25358" lon="-0.25451">
        <ele>4.2</ele>
        <time>2022-05-31T15:04:42Z</time>
      </trkpt>
      <trkpt lat="49.25358" lon="-0.25451">
        <ele>4.2</ele>
        <time>2022-05-31T15:04:43Z</time>
      </trkpt>
      <trkpt lat="49.25358" lon="-0.25451">
        <ele>4.2</ele>
        <time>2022-05-31T15:04:44Z</time>
      </trkpt>
      <trkpt lat="49.25359" lon="-0.25451">
        <ele>4.2</ele>
        <time>2022-05-31T15:04:45Z</time>
      </trkpt>
      <trkpt lat="49.25359" lon="-0.25451">
        <ele>4.2</ele>
        <time>2022-05-31T15:04:46Z</time>
      </trkpt>
      <trkpt lat="49.25359" lon="-0.25451">
        <ele>4.2</ele>
        <time>2022-05-31T15:04:47Z</time>
      </trkpt>
      <trkpt lat="49.25359" lon="-0.25451">
        <ele>4.2</ele>
        <time>2022-05-31T15:04:48Z</time>
      </trkpt>
      <trkpt lat="49.25359" lon="-0.25451">
        <ele>4.2</ele>
        <time>2022-05-31T15:04:49Z</time>
      </trkpt>
      <trkpt lat="49.25359" lon="-0.25451">
        <ele>4.2</ele>
        <time>2022-05-31T15:04:50Z</time>
      </trkpt>
      <trkpt lat="49.25359" lon="-0.25451">
        <ele>4.2</ele>
        <time>2022-05-31T15:04:51Z</time>
      </trkpt>
      <trkpt lat="49.25359" lon="-0.25451">
        <ele>4.2</ele>
        <time>2022-05-31T15:04:52Z</time>
      </trkpt>
      <trkpt lat="49.25359" lon="-0.25451">
        <ele>4.2</ele>
        <time>2022-05-31T15:04:53Z</time>
      </trkpt>
      <trkpt lat="49.25359" lon="-0.25451">
        <ele>4.2</ele>
        <time>2022-05-31T15:04:54Z</time>
      </trkpt>
      <trkpt lat="49.25359" lon="-0.25451">
        <ele>4.2</ele>
        <time>2022-05-31T15:04:55Z</time>
      </trkpt>
      <trkpt lat="49.25359" lon="-0.25451">
        <ele>4.2</ele>
        <time>2022-05-31T15:04:56Z</time>
      </trkpt>
      <trkpt lat="49.25359" lon="-0.25451">
        <ele>4.2</ele>
        <time>2022-05-31T15:04:57Z</time>
      </trkpt>
      <trkpt lat="49.25359" lon="-0.25451">
        <ele>4.2</ele>
        <time>2022-05-31T15:04:58Z</time>
      </trkpt>
      <trkpt lat="49.25359" lon="-0.25451">
        <ele>4.2</ele>
        <time>2022-05-31T15:04:59Z</time>
      </trkpt>
      <trkpt lat="49.25359" lon="-0.25451">
        <ele>4.2</ele>
        <time>2022-05-31T15:05:00Z</time>
      </trkpt>
      <trkpt lat="49.25359" lon="-0.25451">
        <ele>4.2</ele>
        <time>2022-05-31T15:05:01Z</time>
      </trkpt>
      <trkpt lat="49.25359" lon="-0.25451">
        <ele>4.2</ele>
        <time>2022-05-31T15:05:02Z</time>
      </trkpt>
      <trkpt lat="49.25359" lon="-0.25451">
        <ele>4.2</ele>
        <time>2022-05-31T15:05:03Z</time>
      </trkpt>
      <trkpt lat="49.25359" lon="-0.25451">
        <ele>4.2</ele>
        <time>2022-05-31T15:05:04Z</time>
      </trkpt>
      <trkpt lat="49.25359" lon="-0.25451">
        <ele>4.2</ele>
        <time>2022-05-31T15:05:05Z</time>
      </trkpt>
      <trkpt lat="49.25359" lon="-0.25451">
        <ele>4.2</ele>
        <time>2022-05-31T15:05:06Z</time>
      </trkpt>
      <trkpt lat="49.25359" lon="-0.25451">
        <ele>4.2</ele>
        <time>2022-05-31T15:05:07Z</time>
      </trkpt>
      <trkpt lat="49.25359" lon="-0.25451">
        <ele>4.2</ele>
        <time>2022-05-31T15:05:08Z</time>
      </trkpt>
      <trkpt lat="49.25359" lon="-0.25451">
        <ele>4.2</ele>
        <time>2022-05-31T15:05:09Z</time>
      </trkpt>
      <trkpt lat="49.25359" lon="-0.25451">
        <ele>4.2</ele>
        <time>2022-05-31T15:05:10Z</time>
      </trkpt>
      <trkpt lat="49.25359" lon="-0.25451">
        <ele>4.2</ele>
        <time>2022-05-31T15:05:11Z</time>
      </trkpt>
      <trkpt lat="49.2536" lon="-0.25454">
        <ele>4.2</ele>
        <time>2022-05-31T15:05:12Z</time>
      </trkpt>
      <trkpt lat="49.2536" lon="-0.25453">
        <ele>4.2</ele>
        <time>2022-05-31T15:05:13Z</time>
      </trkpt>
      <trkpt lat="49.25361" lon="-0.25454">
        <ele>4.2</ele>
        <time>2022-05-31T15:05:14Z</time>
      </trkpt>
      <trkpt lat="49.25362" lon="-0.25454">
        <ele>4.2</ele>
        <time>2022-05-31T15:05:15Z</time>
      </trkpt>
      <trkpt lat="49.25363" lon="-0.25455">
        <ele>4.2</ele>
        <time>2022-05-31T15:05:16Z</time>
      </trkpt>
      <trkpt lat="49.25364" lon="-0.25456">
        <ele>4.2</ele>
        <time>2022-05-31T15:05:17Z</time>
      </trkpt>
      <trkpt lat="49.25365" lon="-0.25457">
        <ele>4.2</ele>
        <time>2022-05-31T15:05:18Z</time>
      </trkpt>
      <trkpt lat="49.25365" lon="-0.25458">
        <ele>4.2</ele>
        <time>2022-05-31T15:05:21Z</time>
      </trkpt>
      <trkpt lat="49.25366" lon="-0.25459">
        <ele>4.2</ele>
        <time>2022-05-31T15:05:22Z</time>
      </trkpt>
      <trkpt lat="49.25367" lon="-0.25459">
        <ele>4.2</ele>
        <time>2022-05-31T15:05:24Z</time>
      </trkpt>
      <trkpt lat="49.25368" lon="-0.2546">
        <ele>4.2</ele>
        <time>2022-05-31T15:05:25Z</time>
      </trkpt>
      <trkpt lat="49.25369" lon="-0.25461">
        <ele>4.2</ele>
        <time>2022-05-31T15:05:26Z</time>
      </trkpt>
      <trkpt lat="49.2537" lon="-0.25462">
        <ele>4.2</ele>
        <time>2022-05-31T15:05:27Z</time>
      </trkpt>
      <trkpt lat="49.25371" lon="-0.25462">
        <ele>4.2</ele>
        <time>2022-05-31T15:05:28Z</time>
      </trkpt>
      <trkpt lat="49.25372" lon="-0.25461">
        <ele>4.2</ele>
        <time>2022-05-31T15:05:29Z</time>
      </trkpt>
      <trkpt lat="49.25373" lon="-0.2546">
        <ele>4.2</ele>
        <time>2022-05-31T15:05:31Z</time>
      </trkpt>
      <trkpt lat="49.25374" lon="-0.25459">
        <ele>4.2</ele>
        <time>2022-05-31T15:05:32Z</time>
      </trkpt>
      <trkpt lat="49.25375" lon="-0.25458">
        <ele>4.2</ele>
        <time>2022-05-31T15:05:33Z</time>
      </trkpt>
      <trkpt lat="49.25376" lon="-0.25457">
        <ele>4.2</ele>
        <time>2022-05-31T15:05:34Z</time>
      </trkpt>
      <trkpt lat="49.25377" lon="-0.25456">
        <ele>4.2</ele>
        <time>2022-05-31T15:05:35Z</time>
      </trkpt>
      <trkpt lat="49.25378" lon="-0.25455">
        <ele>4.2</ele>
        <time>2022-05-31T15:05:36Z</time>
      </trkpt>
      <trkpt lat="49.25379" lon="-0.25454">
        <ele>4.2</ele>
        <time>2022-05-31T15:05:37Z</time>
      </trkpt>
      <trkpt lat="49.2538" lon="-0.25453">
        <ele>4.2</ele>
        <time>2022-05-31T15:05:38Z</time>
      </trkpt>
      <trkpt lat="49.25381" lon="-0.25452">
        <ele>4.1</ele>
        <time>2022-05-31T15:05:39Z</time>
      </trkpt>
      <trkpt lat="49.25382" lon="-0.2545">
        <ele>4.1</ele>
        <time>2022-05-31T15:05:41Z</time>
      </trkpt>
      <trkpt lat="49.25383" lon="-0.25448">
        <ele>4.1</ele>
        <time>2022-05-31T15:05:42Z</time>
      </trkpt>
      <trkpt lat="49.25384" lon="-0.25447">
        <ele>4.1</ele>
        <time>2022-05-31T15:05:43Z</time>
      </trkpt>
      <trkpt lat="49.25386" lon="-0.25446">
        <ele>4.1</ele>
        <time>2022-05-31T15:05:44Z</time>
      </trkpt>
      <trkpt lat="49.25386" lon="-0.25445">
        <ele>4.1</ele>
        <time>2022-05-31T15:05:45Z</time>
      </trkpt>
      <trkpt lat="49.25387" lon="-0.25445">
        <ele>4.1</ele>
        <time>2022-05-31T15:05:46Z</time>
      </trkpt>
      <trkpt lat="49.25388" lon="-0.25444">
        <ele>4.1</ele>
        <time>2022-05-31T15:05:47Z</time>
      </trkpt>
      <trkpt lat="49.25388" lon="-0.25443">
        <ele>4.1</ele>
        <time>2022-05-31T15:05:48Z</time>
      </trkpt>
      <trkpt lat="49.25389" lon="-0.25442">
        <ele>4.1</ele>
        <time>2022-05-31T15:05:49Z</time>
      </trkpt>
      <trkpt lat="49.2539" lon="-0.25442">
        <ele>4.1</ele>
        <time>2022-05-31T15:05:50Z</time>
      </trkpt>
      <trkpt lat="49.25391" lon="-0.25441">
        <ele>4.1</ele>
        <time>2022-05-31T15:05:52Z</time>
      </trkpt>
      <trkpt lat="49.25392" lon="-0.2544">
        <ele>4.1</ele>
        <time>2022-05-31T15:05:53Z</time>
      </trkpt>
      <trkpt lat="49.25391" lon="-0.2544">
        <ele>4.1</ele>
        <time>2022-05-31T15:05:54Z</time>
      </trkpt>
      <trkpt lat="49.25392" lon="-0.25439">
        <ele>4.1</ele>
        <time>2022-05-31T15:05:55Z</time>
      </trkpt>
      <trkpt lat="49.25394" lon="-0.25438">
        <ele>4.1</ele>
        <time>2022-05-31T15:05:56Z</time>
      </trkpt>
      <trkpt lat="49.25395" lon="-0.25437">
        <ele>4.1</ele>
        <time>2022-05-31T15:05:57Z</time>
      </trkpt>
      <trkpt lat="49.25396" lon="-0.25436">
        <ele>4.1</ele>
        <time>2022-05-31T15:05:58Z</time>
      </trkpt>
      <trkpt lat="49.25398" lon="-0.25435">
        <ele>4.1</ele>
        <time>2022-05-31T15:05:59Z</time>
      </trkpt>
      <trkpt lat="49.25399" lon="-0.25434">
        <ele>4.1</ele>
        <time>2022-05-31T15:06:00Z</time>
      </trkpt>
      <trkpt lat="49.254" lon="-0.25432">
        <ele>4.1</ele>
        <time>2022-05-31T15:06:01Z</time>
      </trkpt>
      <trkpt lat="49.25402" lon="-0.25431">
        <ele>4.1</ele>
        <time>2022-05-31T15:06:03Z</time>
      </trkpt>
      <trkpt lat="49.25403" lon="-0.2543">
        <ele>4.1</ele>
        <time>2022-05-31T15:06:04Z</time>
      </trkpt>
      <trkpt lat="49.25404" lon="-0.25428">
        <ele>4</ele>
        <time>2022-05-31T15:06:05Z</time>
      </trkpt>
      <trkpt lat="49.25404" lon="-0.25428">
        <ele>4</ele>
        <time>2022-05-31T15:06:06Z</time>
      </trkpt>
      <trkpt lat="49.25405" lon="-0.25426">
        <ele>4</ele>
        <time>2022-05-31T15:06:07Z</time>
      </trkpt>
      <trkpt lat="49.25407" lon="-0.25425">
        <ele>4</ele>
        <time>2022-05-31T15:06:08Z</time>
      </trkpt>
      <trkpt lat="49.25408" lon="-0.25424">
        <ele>4</ele>
        <time>2022-05-31T15:06:09Z</time>
      </trkpt>
      <trkpt lat="49.2541" lon="-0.25422">
        <ele>4</ele>
        <time>2022-05-31T15:06:10Z</time>
      </trkpt>
      <trkpt lat="49.25411" lon="-0.25421">
        <ele>4</ele>
        <time>2022-05-31T15:06:11Z</time>
      </trkpt>
      <trkpt lat="49.25414" lon="-0.25419">
        <ele>4</ele>
        <time>2022-05-31T15:06:12Z</time>
      </trkpt>
      <trkpt lat="49.25414" lon="-0.25418">
        <ele>4</ele>
        <time>2022-05-31T15:06:13Z</time>
      </trkpt>
      <trkpt lat="49.25416" lon="-0.25416">
        <ele>4</ele>
        <time>2022-05-31T15:06:15Z</time>
      </trkpt>
      <trkpt lat="49.25417" lon="-0.25415">
        <ele>4</ele>
        <time>2022-05-31T15:06:16Z</time>
      </trkpt>
      <trkpt lat="49.25419" lon="-0.25414">
        <ele>4</ele>
        <time>2022-05-31T15:06:17Z</time>
      </trkpt>
      <trkpt lat="49.2542" lon="-0.25413">
        <ele>4</ele>
        <time>2022-05-31T15:06:18Z</time>
      </trkpt>
      <trkpt lat="49.25421" lon="-0.25412">
        <ele>4</ele>
        <time>2022-05-31T15:06:19Z</time>
      </trkpt>
      <trkpt lat="49.25422" lon="-0.2541">
        <ele>4</ele>
        <time>2022-05-31T15:06:20Z</time>
      </trkpt>
      <trkpt lat="49.25425" lon="-0.25408">
        <ele>4</ele>
        <time>2022-05-31T15:06:21Z</time>
      </trkpt>
      <trkpt lat="49.25426" lon="-0.25408">
        <ele>4</ele>
        <time>2022-05-31T15:06:22Z</time>
      </trkpt>
      <trkpt lat="49.25429" lon="-0.25405">
        <ele>4</ele>
        <time>2022-05-31T15:06:23Z</time>
      </trkpt>
      <trkpt lat="49.2543" lon="-0.25404">
        <ele>4</ele>
        <time>2022-05-31T15:06:24Z</time>
      </trkpt>
      <trkpt lat="49.25432" lon="-0.25402">
        <ele>4</ele>
        <time>2022-05-31T15:06:25Z</time>
      </trkpt>
      <trkpt lat="49.25435" lon="-0.254">
        <ele>4</ele>
        <time>2022-05-31T15:06:27Z</time>
      </trkpt>
      <trkpt lat="49.25437" lon="-0.25398">
        <ele>4</ele>
        <time>2022-05-31T15:06:28Z</time>
      </trkpt>
      <trkpt lat="49.2544" lon="-0.25395">
        <ele>4</ele>
        <time>2022-05-31T15:06:29Z</time>
      </trkpt>
      <trkpt lat="49.25441" lon="-0.25395">
        <ele>4</ele>
        <time>2022-05-31T15:06:30Z</time>
      </trkpt>
      <trkpt lat="49.25444" lon="-0.25392">
        <ele>4</ele>
        <time>2022-05-31T15:06:31Z</time>
      </trkpt>
      <trkpt lat="49.25445" lon="-0.25391">
        <ele>4</ele>
        <time>2022-05-31T15:06:32Z</time>
      </trkpt>
      <trkpt lat="49.25447" lon="-0.2539">
        <ele>4</ele>
        <time>2022-05-31T15:06:33Z</time>
      </trkpt>
      <trkpt lat="49.25449" lon="-0.25388">
        <ele>4</ele>
        <time>2022-05-31T15:06:35Z</time>
      </trkpt>
      <trkpt lat="49.25451" lon="-0.25386">
        <ele>4</ele>
        <time>2022-05-31T15:06:36Z</time>
      </trkpt>
      <trkpt lat="49.25451" lon="-0.25386">
        <ele>4</ele>
        <time>2022-05-31T15:06:37Z</time>
      </trkpt>
      <trkpt lat="49.25452" lon="-0.25385">
        <ele>4.1</ele>
        <time>2022-05-31T15:06:38Z</time>
      </trkpt>
      <trkpt lat="49.25453" lon="-0.25384">
        <ele>4.1</ele>
        <time>2022-05-31T15:06:39Z</time>
      </trkpt>
      <trkpt lat="49.25455" lon="-0.25383">
        <ele>4.1</ele>
        <time>2022-05-31T15:06:40Z</time>
      </trkpt>
      <trkpt lat="49.25455" lon="-0.25382">
        <ele>4.1</ele>
        <time>2022-05-31T15:06:41Z</time>
      </trkpt>
      <trkpt lat="49.25456" lon="-0.25382">
        <ele>4.1</ele>
        <time>2022-05-31T15:06:42Z</time>
      </trkpt>
      <trkpt lat="49.25456" lon="-0.25382">
        <ele>4.1</ele>
        <time>2022-05-31T15:06:43Z</time>
      </trkpt>
      <trkpt lat="49.25455" lon="-0.25382">
        <ele>4.1</ele>
        <time>2022-05-31T15:06:44Z</time>
      </trkpt>
      <trkpt lat="49.25456" lon="-0.25381">
        <ele>4.1</ele>
        <time>2022-05-31T15:06:46Z</time>
      </trkpt>
      <trkpt lat="49.25457" lon="-0.2538">
        <ele>4.1</ele>
        <time>2022-05-31T15:06:47Z</time>
      </trkpt>
      <trkpt lat="49.25457" lon="-0.2538">
        <ele>4.1</ele>
        <time>2022-05-31T15:06:48Z</time>
      </trkpt>
      <trkpt lat="49.25459" lon="-0.25378">
        <ele>4.1</ele>
        <time>2022-05-31T15:06:49Z</time>
      </trkpt>
      <trkpt lat="49.2546" lon="-0.25377">
        <ele>4.1</ele>
        <time>2022-05-31T15:06:50Z</time>
      </trkpt>
      <trkpt lat="49.25461" lon="-0.25377">
        <ele>4.1</ele>
        <time>2022-05-31T15:06:51Z</time>
      </trkpt>
      <trkpt lat="49.25463" lon="-0.25376">
        <ele>4.1</ele>
        <time>2022-05-31T15:06:52Z</time>
      </trkpt>
      <trkpt lat="49.25464" lon="-0.25375">
        <ele>4.1</ele>
        <time>2022-05-31T15:06:53Z</time>
      </trkpt>
      <trkpt lat="49.25464" lon="-0.25374">
        <ele>4.1</ele>
        <time>2022-05-31T15:06:55Z</time>
      </trkpt>
      <trkpt lat="49.25465" lon="-0.25373">
        <ele>4.1</ele>
        <time>2022-05-31T15:06:56Z</time>
      </trkpt>
      <trkpt lat="49.25466" lon="-0.25373">
        <ele>4.1</ele>
        <time>2022-05-31T15:06:57Z</time>
      </trkpt>
      <trkpt lat="49.25469" lon="-0.25371">
        <ele>4.1</ele>
        <time>2022-05-31T15:06:58Z</time>
      </trkpt>
      <trkpt lat="49.25469" lon="-0.25371">
        <ele>4.1</ele>
        <time>2022-05-31T15:06:59Z</time>
      </trkpt>
      <trkpt lat="49.2547" lon="-0.25371">
        <ele>4.1</ele>
        <time>2022-05-31T15:07:00Z</time>
      </trkpt>
      <trkpt lat="49.25472" lon="-0.2537">
        <ele>4.1</ele>
        <time>2022-05-31T15:07:02Z</time>
      </trkpt>
      <trkpt lat="49.25473" lon="-0.25369">
        <ele>4.1</ele>
        <time>2022-05-31T15:07:03Z</time>
      </trkpt>
      <trkpt lat="49.25473" lon="-0.25369">
        <ele>4.1</ele>
        <time>2022-05-31T15:07:04Z</time>
      </trkpt>
      <trkpt lat="49.25474" lon="-0.25369">
        <ele>4.1</ele>
        <time>2022-05-31T15:07:05Z</time>
      </trkpt>
      <trkpt lat="49.25475" lon="-0.25368">
        <ele>4.1</ele>
        <time>2022-05-31T15:07:06Z</time>
      </trkpt>
      <trkpt lat="49.25476" lon="-0.25367">
        <ele>4.1</ele>
        <time>2022-05-31T15:07:07Z</time>
      </trkpt>
      <trkpt lat="49.25477" lon="-0.25366">
        <ele>4.1</ele>
        <time>2022-05-31T15:07:08Z</time>
      </trkpt>
      <trkpt lat="49.25478" lon="-0.25365">
        <ele>4.1</ele>
        <time>2022-05-31T15:07:09Z</time>
      </trkpt>
      <trkpt lat="49.25479" lon="-0.25365">
        <ele>4.1</ele>
        <time>2022-05-31T15:07:10Z</time>
      </trkpt>
      <trkpt lat="49.2548" lon="-0.25364">
        <ele>4.1</ele>
        <time>2022-05-31T15:07:11Z</time>
      </trkpt>
      <trkpt lat="49.25481" lon="-0.25363">
        <ele>4.1</ele>
        <time>2022-05-31T15:07:12Z</time>
      </trkpt>
      <trkpt lat="49.25482" lon="-0.25362">
        <ele>4.1</ele>
        <time>2022-05-31T15:07:14Z</time>
      </trkpt>
      <trkpt lat="49.25483" lon="-0.25361">
        <ele>4.1</ele>
        <time>2022-05-31T15:07:15Z</time>
      </trkpt>
      <trkpt lat="49.25484" lon="-0.2536">
        <ele>4.1</ele>
        <time>2022-05-31T15:07:16Z</time>
      </trkpt>
      <trkpt lat="49.25485" lon="-0.25359">
        <ele>4.1</ele>
        <time>2022-05-31T15:07:17Z</time>
      </trkpt>
      <trkpt lat="49.25486" lon="-0.25358">
        <ele>4.1</ele>
        <time>2022-05-31T15:07:18Z</time>
      </trkpt>
      <trkpt lat="49.25487" lon="-0.25357">
        <ele>4.1</ele>
        <time>2022-05-31T15:07:19Z</time>
      </trkpt>
      <trkpt lat="49.25488" lon="-0.25356">
        <ele>4.1</ele>
        <time>2022-05-31T15:07:20Z</time>
      </trkpt>
      <trkpt lat="49.25489" lon="-0.25355">
        <ele>4.1</ele>
        <time>2022-05-31T15:07:21Z</time>
      </trkpt>
      <trkpt lat="49.2549" lon="-0.25354">
        <ele>4.1</ele>
        <time>2022-05-31T15:07:22Z</time>
      </trkpt>
      <trkpt lat="49.25492" lon="-0.25353">
        <ele>4.1</ele>
        <time>2022-05-31T15:07:24Z</time>
      </trkpt>
      <trkpt lat="49.25492" lon="-0.25352">
        <ele>4.1</ele>
        <time>2022-05-31T15:07:25Z</time>
      </trkpt>
      <trkpt lat="49.25493" lon="-0.25352">
        <ele>4.1</ele>
        <time>2022-05-31T15:07:26Z</time>
      </trkpt>
      <trkpt lat="49.25494" lon="-0.25351">
        <ele>4.1</ele>
        <time>2022-05-31T15:07:27Z</time>
      </trkpt>
      <trkpt lat="49.25496" lon="-0.25349">
        <ele>4.1</ele>
        <time>2022-05-31T15:07:28Z</time>
      </trkpt>
      <trkpt lat="49.25497" lon="-0.25348">
        <ele>4.1</ele>
        <time>2022-05-31T15:07:29Z</time>
      </trkpt>
      <trkpt lat="49.25498" lon="-0.25347">
        <ele>4</ele>
        <time>2022-05-31T15:07:30Z</time>
      </trkpt>
      <trkpt lat="49.25499" lon="-0.25346">
        <ele>4</ele>
        <time>2022-05-31T15:07:31Z</time>
      </trkpt>
      <trkpt lat="49.25501" lon="-0.25345">
        <ele>4</ele>
        <time>2022-05-31T15:07:32Z</time>
      </trkpt>
      <trkpt lat="49.25501" lon="-0.25344">
        <ele>4</ele>
        <time>2022-05-31T15:07:34Z</time>
      </trkpt>
      <trkpt lat="49.25502" lon="-0.25344">
        <ele>4</ele>
        <time>2022-05-31T15:07:35Z</time>
      </trkpt>
      <trkpt lat="49.25504" lon="-0.25344">
        <ele>4</ele>
        <time>2022-05-31T15:07:37Z</time>
      </trkpt>
      <trkpt lat="49.25504" lon="-0.25345">
        <ele>4</ele>
        <time>2022-05-31T15:07:38Z</time>
      </trkpt>
      <trkpt lat="49.25505" lon="-0.25345">
        <ele>4</ele>
        <time>2022-05-31T15:07:39Z</time>
      </trkpt>
      <trkpt lat="49.25505" lon="-0.25345">
        <ele>4</ele>
        <time>2022-05-31T15:07:40Z</time>
      </trkpt>
      <trkpt lat="49.25505" lon="-0.25345">
        <ele>4</ele>
        <time>2022-05-31T15:07:41Z</time>
      </trkpt>
      <trkpt lat="49.25505" lon="-0.25345">
        <ele>4</ele>
        <time>2022-05-31T15:07:42Z</time>
      </trkpt>
      <trkpt lat="49.25505" lon="-0.25345">
        <ele>4</ele>
        <time>2022-05-31T15:07:43Z</time>
      </trkpt>
      <trkpt lat="49.25504" lon="-0.25345">
        <ele>4</ele>
        <time>2022-05-31T15:07:44Z</time>
      </trkpt>
      <trkpt lat="49.25504" lon="-0.25345">
        <ele>4</ele>
        <time>2022-05-31T15:07:45Z</time>
      </trkpt>
      <trkpt lat="49.25504" lon="-0.25345">
        <ele>4</ele>
        <time>2022-05-31T15:07:46Z</time>
      </trkpt>
      <trkpt lat="49.25504" lon="-0.25345">
        <ele>4</ele>
        <time>2022-05-31T15:07:47Z</time>
      </trkpt>
      <trkpt lat="49.25504" lon="-0.25345">
        <ele>4</ele>
        <time>2022-05-31T15:07:48Z</time>
      </trkpt>
      <trkpt lat="49.25504" lon="-0.25345">
        <ele>4</ele>
        <time>2022-05-31T15:07:49Z</time>
      </trkpt>
      <trkpt lat="49.25504" lon="-0.25345">
        <ele>4</ele>
        <time>2022-05-31T15:07:51Z</time>
      </trkpt>
      <trkpt lat="49.25504" lon="-0.25345">
        <ele>4</ele>
        <time>2022-05-31T15:07:52Z</time>
      </trkpt>
      <trkpt lat="49.25504" lon="-0.25344">
        <ele>4</ele>
        <time>2022-05-31T15:07:53Z</time>
      </trkpt>
      <trkpt lat="49.25505" lon="-0.25343">
        <ele>4</ele>
        <time>2022-05-31T15:07:54Z</time>
      </trkpt>
      <trkpt lat="49.25505" lon="-0.25343">
        <ele>4</ele>
        <time>2022-05-31T15:07:55Z</time>
      </trkpt>
      <trkpt lat="49.25506" lon="-0.25341">
        <ele>4</ele>
        <time>2022-05-31T15:07:56Z</time>
      </trkpt>
      <trkpt lat="49.25507" lon="-0.25341">
        <ele>4</ele>
        <time>2022-05-31T15:07:57Z</time>
      </trkpt>
      <trkpt lat="49.25508" lon="-0.2534">
        <ele>4</ele>
        <time>2022-05-31T15:07:58Z</time>
      </trkpt>
      <trkpt lat="49.2551" lon="-0.25339">
        <ele>4</ele>
        <time>2022-05-31T15:07:59Z</time>
      </trkpt>
      <trkpt lat="49.25511" lon="-0.25337">
        <ele>4</ele>
        <time>2022-05-31T15:08:00Z</time>
      </trkpt>
      <trkpt lat="49.25512" lon="-0.25337">
        <ele>4</ele>
        <time>2022-05-31T15:08:01Z</time>
      </trkpt>
      <trkpt lat="49.25513" lon="-0.25336">
        <ele>4</ele>
        <time>2022-05-31T15:08:02Z</time>
      </trkpt>
      <trkpt lat="49.25514" lon="-0.25334">
        <ele>4</ele>
        <time>2022-05-31T15:08:03Z</time>
      </trkpt>
      <trkpt lat="49.25516" lon="-0.25334">
        <ele>4</ele>
        <time>2022-05-31T15:08:05Z</time>
      </trkpt>
      <trkpt lat="49.25517" lon="-0.25333">
        <ele>4</ele>
        <time>2022-05-31T15:08:06Z</time>
      </trkpt>
      <trkpt lat="49.25518" lon="-0.25332">
        <ele>4</ele>
        <time>2022-05-31T15:08:07Z</time>
      </trkpt>
      <trkpt lat="49.25519" lon="-0.25331">
        <ele>4</ele>
        <time>2022-05-31T15:08:08Z</time>
      </trkpt>
      <trkpt lat="49.2552" lon="-0.2533">
        <ele>4</ele>
        <time>2022-05-31T15:08:09Z</time>
      </trkpt>
      <trkpt lat="49.25521" lon="-0.25329">
        <ele>4</ele>
        <time>2022-05-31T15:08:10Z</time>
      </trkpt>
      <trkpt lat="49.25523" lon="-0.25328">
        <ele>4</ele>
        <time>2022-05-31T15:08:11Z</time>
      </trkpt>
      <trkpt lat="49.25524" lon="-0.25326">
        <ele>3.9</ele>
        <time>2022-05-31T15:08:13Z</time>
      </trkpt>
      <trkpt lat="49.25526" lon="-0.25325">
        <ele>3.9</ele>
        <time>2022-05-31T15:08:14Z</time>
      </trkpt>
      <trkpt lat="49.25527" lon="-0.25324">
        <ele>3.9</ele>
        <time>2022-05-31T15:08:15Z</time>
      </trkpt>
      <trkpt lat="49.25529" lon="-0.25323">
        <ele>3.9</ele>
        <time>2022-05-31T15:08:16Z</time>
      </trkpt>
      <trkpt lat="49.2553" lon="-0.25321">
        <ele>3.9</ele>
        <time>2022-05-31T15:08:17Z</time>
      </trkpt>
      <trkpt lat="49.25531" lon="-0.2532">
        <ele>3.9</ele>
        <time>2022-05-31T15:08:18Z</time>
      </trkpt>
      <trkpt lat="49.25532" lon="-0.25319">
        <ele>3.9</ele>
        <time>2022-05-31T15:08:19Z</time>
      </trkpt>
      <trkpt lat="49.25533" lon="-0.25319">
        <ele>3.9</ele>
        <time>2022-05-31T15:08:20Z</time>
      </trkpt>
      <trkpt lat="49.25534" lon="-0.25318">
        <ele>3.9</ele>
        <time>2022-05-31T15:08:22Z</time>
      </trkpt>
      <trkpt lat="49.25535" lon="-0.25317">
        <ele>3.9</ele>
        <time>2022-05-31T15:08:23Z</time>
      </trkpt>
      <trkpt lat="49.25536" lon="-0.25316">
        <ele>3.9</ele>
        <time>2022-05-31T15:08:24Z</time>
      </trkpt>
      <trkpt lat="49.25537" lon="-0.25315">
        <ele>3.9</ele>
        <time>2022-05-31T15:08:25Z</time>
      </trkpt>
      <trkpt lat="49.25538" lon="-0.25314">
        <ele>3.9</ele>
        <time>2022-05-31T15:08:26Z</time>
      </trkpt>
      <trkpt lat="49.25539" lon="-0.25314">
        <ele>3.9</ele>
        <time>2022-05-31T15:08:27Z</time>
      </trkpt>
      <trkpt lat="49.25539" lon="-0.25313">
        <ele>3.9</ele>
        <time>2022-05-31T15:08:28Z</time>
      </trkpt>
      <trkpt lat="49.25541" lon="-0.25312">
        <ele>3.9</ele>
        <time>2022-05-31T15:08:29Z</time>
      </trkpt>
      <trkpt lat="49.25542" lon="-0.25311">
        <ele>3.9</ele>
        <time>2022-05-31T15:08:30Z</time>
      </trkpt>
      <trkpt lat="49.25543" lon="-0.25309">
        <ele>3.9</ele>
        <time>2022-05-31T15:08:31Z</time>
      </trkpt>
      <trkpt lat="49.25545" lon="-0.25308">
        <ele>3.9</ele>
        <time>2022-05-31T15:08:32Z</time>
      </trkpt>
      <trkpt lat="49.25546" lon="-0.25307">
        <ele>3.9</ele>
        <time>2022-05-31T15:08:34Z</time>
      </trkpt>
      <trkpt lat="49.25547" lon="-0.25305">
        <ele>3.9</ele>
        <time>2022-05-31T15:08:35Z</time>
      </trkpt>
      <trkpt lat="49.25549" lon="-0.25304">
        <ele>3.9</ele>
        <time>2022-05-31T15:08:36Z</time>
      </trkpt>
      <trkpt lat="49.2555" lon="-0.25303">
        <ele>3.9</ele>
        <time>2022-05-31T15:08:37Z</time>
      </trkpt>
      <trkpt lat="49.25551" lon="-0.25301">
        <ele>3.9</ele>
        <time>2022-05-31T15:08:38Z</time>
      </trkpt>
      <trkpt lat="49.25552" lon="-0.253">
        <ele>3.9</ele>
        <time>2022-05-31T15:08:39Z</time>
      </trkpt>
      <trkpt lat="49.25554" lon="-0.25299">
        <ele>3.9</ele>
        <time>2022-05-31T15:08:40Z</time>
      </trkpt>
      <trkpt lat="49.25555" lon="-0.25298">
        <ele>3.9</ele>
        <time>2022-05-31T15:08:41Z</time>
      </trkpt>
      <trkpt lat="49.25557" lon="-0.25296">
        <ele>3.9</ele>
        <time>2022-05-31T15:08:42Z</time>
      </trkpt>
      <trkpt lat="49.25558" lon="-0.25295">
        <ele>3.9</ele>
        <time>2022-05-31T15:08:43Z</time>
      </trkpt>
      <trkpt lat="49.25559" lon="-0.25294">
        <ele>3.9</ele>
        <time>2022-05-31T15:08:44Z</time>
      </trkpt>
      <trkpt lat="49.2556" lon="-0.25293">
        <ele>3.9</ele>
        <time>2022-05-31T15:08:46Z</time>
      </trkpt>
      <trkpt lat="49.25561" lon="-0.25293">
        <ele>3.9</ele>
        <time>2022-05-31T15:08:47Z</time>
      </trkpt>
      <trkpt lat="49.25562" lon="-0.25292">
        <ele>3.9</ele>
        <time>2022-05-31T15:08:48Z</time>
      </trkpt>
      <trkpt lat="49.25563" lon="-0.25291">
        <ele>3.9</ele>
        <time>2022-05-31T15:08:49Z</time>
      </trkpt>
      <trkpt lat="49.25564" lon="-0.2529">
        <ele>3.9</ele>
        <time>2022-05-31T15:08:50Z</time>
      </trkpt>
      <trkpt lat="49.25565" lon="-0.25289">
        <ele>3.9</ele>
        <time>2022-05-31T15:08:51Z</time>
      </trkpt>
      <trkpt lat="49.25566" lon="-0.25288">
        <ele>3.9</ele>
        <time>2022-05-31T15:08:52Z</time>
      </trkpt>
      <trkpt lat="49.25567" lon="-0.25287">
        <ele>3.9</ele>
        <time>2022-05-31T15:08:53Z</time>
      </trkpt>
      <trkpt lat="49.25568" lon="-0.25286">
        <ele>3.9</ele>
        <time>2022-05-31T15:08:54Z</time>
      </trkpt>
      <trkpt lat="49.25569" lon="-0.25285">
        <ele>3.9</ele>
        <time>2022-05-31T15:08:55Z</time>
      </trkpt>
      <trkpt lat="49.2557" lon="-0.25284">
        <ele>3.9</ele>
        <time>2022-05-31T15:08:56Z</time>
      </trkpt>
      <trkpt lat="49.25571" lon="-0.25283">
        <ele>3.9</ele>
        <time>2022-05-31T15:08:57Z</time>
      </trkpt>
      <trkpt lat="49.25572" lon="-0.25282">
        <ele>3.8</ele>
        <time>2022-05-31T15:08:59Z</time>
      </trkpt>
      <trkpt lat="49.25573" lon="-0.25282">
        <ele>3.8</ele>
        <time>2022-05-31T15:09:00Z</time>
      </trkpt>
      <trkpt lat="49.25574" lon="-0.25282">
        <ele>3.8</ele>
        <time>2022-05-31T15:09:01Z</time>
      </trkpt>
      <trkpt lat="49.25575" lon="-0.25281">
        <ele>3.8</ele>
        <time>2022-05-31T15:09:02Z</time>
      </trkpt>
      <trkpt lat="49.25576" lon="-0.2528">
        <ele>3.8</ele>
        <time>2022-05-31T15:09:03Z</time>
      </trkpt>
      <trkpt lat="49.25578" lon="-0.25278">
        <ele>3.8</ele>
        <time>2022-05-31T15:09:04Z</time>
      </trkpt>
      <trkpt lat="49.25579" lon="-0.25277">
        <ele>3.8</ele>
        <time>2022-05-31T15:09:06Z</time>
      </trkpt>
      <trkpt lat="49.2558" lon="-0.25277">
        <ele>3.8</ele>
        <time>2022-05-31T15:09:07Z</time>
      </trkpt>
      <trkpt lat="49.25581" lon="-0.25275">
        <ele>3.8</ele>
        <time>2022-05-31T15:09:08Z</time>
      </trkpt>
      <trkpt lat="49.25582" lon="-0.25274">
        <ele>3.8</ele>
        <time>2022-05-31T15:09:09Z</time>
      </trkpt>
      <trkpt lat="49.25583" lon="-0.25273">
        <ele>3.8</ele>
        <time>2022-05-31T15:09:10Z</time>
      </trkpt>
      <trkpt lat="49.25585" lon="-0.25272">
        <ele>3.8</ele>
        <time>2022-05-31T15:09:11Z</time>
      </trkpt>
      <trkpt lat="49.25586" lon="-0.2527">
        <ele>3.8</ele>
        <time>2022-05-31T15:09:12Z</time>
      </trkpt>
      <trkpt lat="49.25587" lon="-0.25269">
        <ele>3.8</ele>
        <time>2022-05-31T15:09:13Z</time>
      </trkpt>
      <trkpt lat="49.25589" lon="-0.25268">
        <ele>3.8</ele>
        <time>2022-05-31T15:09:14Z</time>
      </trkpt>
      <trkpt lat="49.25591" lon="-0.25266">
        <ele>3.8</ele>
        <time>2022-05-31T15:09:16Z</time>
      </trkpt>
      <trkpt lat="49.25592" lon="-0.25265">
        <ele>3.8</ele>
        <time>2022-05-31T15:09:17Z</time>
      </trkpt>
      <trkpt lat="49.25593" lon="-0.25264">
        <ele>3.8</ele>
        <time>2022-05-31T15:09:18Z</time>
      </trkpt>
      <trkpt lat="49.25595" lon="-0.25263">
        <ele>3.8</ele>
        <time>2022-05-31T15:09:19Z</time>
      </trkpt>
      <trkpt lat="49.25596" lon="-0.25262">
        <ele>3.8</ele>
        <time>2022-05-31T15:09:20Z</time>
      </trkpt>
      <trkpt lat="49.25598" lon="-0.25261">
        <ele>3.8</ele>
        <time>2022-05-31T15:09:22Z</time>
      </trkpt>
      <trkpt lat="49.25599" lon="-0.2526">
        <ele>3.8</ele>
        <time>2022-05-31T15:09:23Z</time>
      </trkpt>
      <trkpt lat="49.256" lon="-0.25259">
        <ele>3.8</ele>
        <time>2022-05-31T15:09:24Z</time>
      </trkpt>
      <trkpt lat="49.25602" lon="-0.25258">
        <ele>3.8</ele>
        <time>2022-05-31T15:09:25Z</time>
      </trkpt>
      <trkpt lat="49.25603" lon="-0.25257">
        <ele>3.8</ele>
        <time>2022-05-31T15:09:26Z</time>
      </trkpt>
      <trkpt lat="49.25604" lon="-0.25256">
        <ele>3.8</ele>
        <time>2022-05-31T15:09:27Z</time>
      </trkpt>
      <trkpt lat="49.25606" lon="-0.25256">
        <ele>3.8</ele>
        <time>2022-05-31T15:09:28Z</time>
      </trkpt>
      <trkpt lat="49.25607" lon="-0.25255">
        <ele>3.8</ele>
        <time>2022-05-31T15:09:29Z</time>
      </trkpt>
      <trkpt lat="49.25607" lon="-0.25255">
        <ele>3.8</ele>
        <time>2022-05-31T15:09:30Z</time>
      </trkpt>
      <trkpt lat="49.25608" lon="-0.25255">
        <ele>3.8</ele>
        <time>2022-05-31T15:09:31Z</time>
      </trkpt>
      <trkpt lat="49.2561" lon="-0.25253">
        <ele>3.8</ele>
        <time>2022-05-31T15:09:33Z</time>
      </trkpt>
      <trkpt lat="49.25611" lon="-0.25253">
        <ele>3.8</ele>
        <time>2022-05-31T15:09:34Z</time>
      </trkpt>
      <trkpt lat="49.25611" lon="-0.25252">
        <ele>3.8</ele>
        <time>2022-05-31T15:09:35Z</time>
      </trkpt>
      <trkpt lat="49.25613" lon="-0.25251">
        <ele>3.8</ele>
        <time>2022-05-31T15:09:36Z</time>
      </trkpt>
      <trkpt lat="49.25614" lon="-0.25249">
        <ele>3.8</ele>
        <time>2022-05-31T15:09:37Z</time>
      </trkpt>
      <trkpt lat="49.25616" lon="-0.25247">
        <ele>3.8</ele>
        <time>2022-05-31T15:09:38Z</time>
      </trkpt>
      <trkpt lat="49.25617" lon="-0.25246">
        <ele>3.8</ele>
        <time>2022-05-31T15:09:39Z</time>
      </trkpt>
      <trkpt lat="49.25617" lon="-0.25245">
        <ele>3.8</ele>
        <time>2022-05-31T15:09:40Z</time>
      </trkpt>
      <trkpt lat="49.25619" lon="-0.25244">
        <ele>3.8</ele>
        <time>2022-05-31T15:09:41Z</time>
      </trkpt>
      <trkpt lat="49.25619" lon="-0.25243">
        <ele>3.8</ele>
        <time>2022-05-31T15:09:42Z</time>
      </trkpt>
      <trkpt lat="49.2562" lon="-0.25243">
        <ele>3.8</ele>
        <time>2022-05-31T15:09:43Z</time>
      </trkpt>
      <trkpt lat="49.25621" lon="-0.25242">
        <ele>3.8</ele>
        <time>2022-05-31T15:09:45Z</time>
      </trkpt>
      <trkpt lat="49.25622" lon="-0.25241">
        <ele>3.8</ele>
        <time>2022-05-31T15:09:46Z</time>
      </trkpt>
      <trkpt lat="49.25623" lon="-0.25239">
        <ele>3.8</ele>
        <time>2022-05-31T15:09:47Z</time>
      </trkpt>
      <trkpt lat="49.25623" lon="-0.25238">
        <ele>3.8</ele>
        <time>2022-05-31T15:09:48Z</time>
      </trkpt>
      <trkpt lat="49.25624" lon="-0.25238">
        <ele>3.8</ele>
        <time>2022-05-31T15:09:49Z</time>
      </trkpt>
      <trkpt lat="49.25624" lon="-0.25237">
        <ele>3.8</ele>
        <time>2022-05-31T15:09:50Z</time>
      </trkpt>
      <trkpt lat="49.25625" lon="-0.25235">
        <ele>3.8</ele>
        <time>2022-05-31T15:09:51Z</time>
      </trkpt>
      <trkpt lat="49.25626" lon="-0.25234">
        <ele>3.8</ele>
        <time>2022-05-31T15:09:52Z</time>
      </trkpt>
      <trkpt lat="49.25626" lon="-0.25233">
        <ele>3.8</ele>
        <time>2022-05-31T15:09:53Z</time>
      </trkpt>
      <trkpt lat="49.25627" lon="-0.25233">
        <ele>3.8</ele>
        <time>2022-05-31T15:09:54Z</time>
      </trkpt>
      <trkpt lat="49.25628" lon="-0.25233">
        <ele>3.8</ele>
        <time>2022-05-31T15:09:55Z</time>
      </trkpt>
      <trkpt lat="49.25628" lon="-0.25232">
        <ele>3.8</ele>
        <time>2022-05-31T15:09:56Z</time>
      </trkpt>
      <trkpt lat="49.25629" lon="-0.25232">
        <ele>3.8</ele>
        <time>2022-05-31T15:09:57Z</time>
      </trkpt>
      <trkpt lat="49.2563" lon="-0.25231">
        <ele>3.8</ele>
        <time>2022-05-31T15:09:58Z</time>
      </trkpt>
      <trkpt lat="49.25631" lon="-0.2523">
        <ele>3.8</ele>
        <time>2022-05-31T15:09:59Z</time>
      </trkpt>
      <trkpt lat="49.25632" lon="-0.25229">
        <ele>3.8</ele>
        <time>2022-05-31T15:10:00Z</time>
      </trkpt>
      <trkpt lat="49.25633" lon="-0.25228">
        <ele>3.8</ele>
        <time>2022-05-31T15:10:02Z</time>
      </trkpt>
      <trkpt lat="49.25633" lon="-0.25228">
        <ele>3.8</ele>
        <time>2022-05-31T15:10:03Z</time>
      </trkpt>
      <trkpt lat="49.25634" lon="-0.25227">
        <ele>3.8</ele>
        <time>2022-05-31T15:10:04Z</time>
      </trkpt>
      <trkpt lat="49.25635" lon="-0.25226">
        <ele>3.8</ele>
        <time>2022-05-31T15:10:05Z</time>
      </trkpt>
      <trkpt lat="49.25636" lon="-0.25226">
        <ele>3.8</ele>
        <time>2022-05-31T15:10:06Z</time>
      </trkpt>
      <trkpt lat="49.25637" lon="-0.25225">
        <ele>3.8</ele>
        <time>2022-05-31T15:10:08Z</time>
      </trkpt>
      <trkpt lat="49.25637" lon="-0.25224">
        <ele>3.8</ele>
        <time>2022-05-31T15:10:09Z</time>
      </trkpt>
      <trkpt lat="49.25638" lon="-0.25224">
        <ele>3.8</ele>
        <time>2022-05-31T15:10:10Z</time>
      </trkpt>
      <trkpt lat="49.25639" lon="-0.25223">
        <ele>3.8</ele>
        <time>2022-05-31T15:10:11Z</time>
      </trkpt>
      <trkpt lat="49.25639" lon="-0.25222">
        <ele>3.8</ele>
        <time>2022-05-31T15:10:12Z</time>
      </trkpt>
      <trkpt lat="49.2564" lon="-0.25222">
        <ele>3.8</ele>
        <time>2022-05-31T15:10:13Z</time>
      </trkpt>
      <trkpt lat="49.25641" lon="-0.25221">
        <ele>3.8</ele>
        <time>2022-05-31T15:10:14Z</time>
      </trkpt>
      <trkpt lat="49.25642" lon="-0.2522">
        <ele>3.8</ele>
        <time>2022-05-31T15:10:15Z</time>
      </trkpt>
      <trkpt lat="49.25643" lon="-0.25219">
        <ele>3.8</ele>
        <time>2022-05-31T15:10:16Z</time>
      </trkpt>
      <trkpt lat="49.25644" lon="-0.25218">
        <ele>3.8</ele>
        <time>2022-05-31T15:10:17Z</time>
      </trkpt>
      <trkpt lat="49.25645" lon="-0.25217">
        <ele>3.8</ele>
        <time>2022-05-31T15:10:19Z</time>
      </trkpt>
      <trkpt lat="49.25645" lon="-0.25216">
        <ele>3.8</ele>
        <time>2022-05-31T15:10:20Z</time>
      </trkpt>
      <trkpt lat="49.25647" lon="-0.25215">
        <ele>3.8</ele>
        <time>2022-05-31T15:10:21Z</time>
      </trkpt>
      <trkpt lat="49.25648" lon="-0.25214">
        <ele>3.8</ele>
        <time>2022-05-31T15:10:22Z</time>
      </trkpt>
      <trkpt lat="49.25649" lon="-0.25214">
        <ele>3.8</ele>
        <time>2022-05-31T15:10:23Z</time>
      </trkpt>
      <trkpt lat="49.2565" lon="-0.25213">
        <ele>3.8</ele>
        <time>2022-05-31T15:10:24Z</time>
      </trkpt>
      <trkpt lat="49.25652" lon="-0.25212">
        <ele>3.8</ele>
        <time>2022-05-31T15:10:25Z</time>
      </trkpt>
      <trkpt lat="49.25653" lon="-0.25211">
        <ele>3.8</ele>
        <time>2022-05-31T15:10:26Z</time>
      </trkpt>
      <trkpt lat="49.25654" lon="-0.2521">
        <ele>3.7</ele>
        <time>2022-05-31T15:10:27Z</time>
      </trkpt>
      <trkpt lat="49.25655" lon="-0.25209">
        <ele>3.7</ele>
        <time>2022-05-31T15:10:28Z</time>
      </trkpt>
      <trkpt lat="49.25656" lon="-0.25209">
        <ele>3.7</ele>
        <time>2022-05-31T15:10:30Z</time>
      </trkpt>
      <trkpt lat="49.25658" lon="-0.25208">
        <ele>3.7</ele>
        <time>2022-05-31T15:10:31Z</time>
      </trkpt>
      <trkpt lat="49.25659" lon="-0.25207">
        <ele>3.7</ele>
        <time>2022-05-31T15:10:32Z</time>
      </trkpt>
      <trkpt lat="49.25661" lon="-0.25205">
        <ele>3.7</ele>
        <time>2022-05-31T15:10:33Z</time>
      </trkpt>
      <trkpt lat="49.25663" lon="-0.25204">
        <ele>3.7</ele>
        <time>2022-05-31T15:10:34Z</time>
      </trkpt>
      <trkpt lat="49.25664" lon="-0.25203">
        <ele>3.7</ele>
        <time>2022-05-31T15:10:35Z</time>
      </trkpt>
      <trkpt lat="49.25666" lon="-0.25202">
        <ele>3.7</ele>
        <time>2022-05-31T15:10:37Z</time>
      </trkpt>
      <trkpt lat="49.25667" lon="-0.25202">
        <ele>3.7</ele>
        <time>2022-05-31T15:10:38Z</time>
      </trkpt>
      <trkpt lat="49.25668" lon="-0.25201">
        <ele>3.7</ele>
        <time>2022-05-31T15:10:39Z</time>
      </trkpt>
      <trkpt lat="49.25669" lon="-0.25201">
        <ele>3.7</ele>
        <time>2022-05-31T15:10:40Z</time>
      </trkpt>
      <trkpt lat="49.2567" lon="-0.25201">
        <ele>3.7</ele>
        <time>2022-05-31T15:10:41Z</time>
      </trkpt>
      <trkpt lat="49.25671" lon="-0.252">
        <ele>3.7</ele>
        <time>2022-05-31T15:10:42Z</time>
      </trkpt>
      <trkpt lat="49.25673" lon="-0.25199">
        <ele>3.7</ele>
        <time>2022-05-31T15:10:43Z</time>
      </trkpt>
      <trkpt lat="49.25676" lon="-0.25198">
        <ele>3.8</ele>
        <time>2022-05-31T15:10:44Z</time>
      </trkpt>
      <trkpt lat="49.25677" lon="-0.25197">
        <ele>3.8</ele>
        <time>2022-05-31T15:10:45Z</time>
      </trkpt>
      <trkpt lat="49.25679" lon="-0.25195">
        <ele>3.8</ele>
        <time>2022-05-31T15:10:47Z</time>
      </trkpt>
      <trkpt lat="49.2568" lon="-0.25195">
        <ele>3.8</ele>
        <time>2022-05-31T15:10:48Z</time>
      </trkpt>
      <trkpt lat="49.25683" lon="-0.25193">
        <ele>3.8</ele>
        <time>2022-05-31T15:10:49Z</time>
      </trkpt>
      <trkpt lat="49.25684" lon="-0.25192">
        <ele>3.8</ele>
        <time>2022-05-31T15:10:50Z</time>
      </trkpt>
      <trkpt lat="49.25686" lon="-0.2519">
        <ele>3.8</ele>
        <time>2022-05-31T15:10:51Z</time>
      </trkpt>
      <trkpt lat="49.25687" lon="-0.25189">
        <ele>3.8</ele>
        <time>2022-05-31T15:10:52Z</time>
      </trkpt>
      <trkpt lat="49.25688" lon="-0.25188">
        <ele>3.8</ele>
        <time>2022-05-31T15:10:53Z</time>
      </trkpt>
      <trkpt lat="49.2569" lon="-0.25186">
        <ele>3.8</ele>
        <time>2022-05-31T15:10:55Z</time>
      </trkpt>
      <trkpt lat="49.25691" lon="-0.25185">
        <ele>3.8</ele>
        <time>2022-05-31T15:10:56Z</time>
      </trkpt>
      <trkpt lat="49.25692" lon="-0.25184">
        <ele>3.8</ele>
        <time>2022-05-31T15:10:57Z</time>
      </trkpt>
      <trkpt lat="49.25694" lon="-0.25183">
        <ele>3.8</ele>
        <time>2022-05-31T15:10:58Z</time>
      </trkpt>
      <trkpt lat="49.25695" lon="-0.25182">
        <ele>3.8</ele>
        <time>2022-05-31T15:10:59Z</time>
      </trkpt>
      <trkpt lat="49.25696" lon="-0.25181">
        <ele>3.8</ele>
        <time>2022-05-31T15:11:00Z</time>
      </trkpt>
      <trkpt lat="49.25697" lon="-0.2518">
        <ele>3.8</ele>
        <time>2022-05-31T15:11:01Z</time>
      </trkpt>
      <trkpt lat="49.25698" lon="-0.25179">
        <ele>3.8</ele>
        <time>2022-05-31T15:11:02Z</time>
      </trkpt>
      <trkpt lat="49.257" lon="-0.25178">
        <ele>3.8</ele>
        <time>2022-05-31T15:11:03Z</time>
      </trkpt>
      <trkpt lat="49.25701" lon="-0.25177">
        <ele>3.8</ele>
        <time>2022-05-31T15:11:04Z</time>
      </trkpt>
      <trkpt lat="49.25702" lon="-0.25176">
        <ele>3.8</ele>
        <time>2022-05-31T15:11:05Z</time>
      </trkpt>
      <trkpt lat="49.25702" lon="-0.25175">
        <ele>3.8</ele>
        <time>2022-05-31T15:11:06Z</time>
      </trkpt>
      <trkpt lat="49.25704" lon="-0.25174">
        <ele>3.8</ele>
        <time>2022-05-31T15:11:08Z</time>
      </trkpt>
      <trkpt lat="49.25704" lon="-0.25174">
        <ele>3.8</ele>
        <time>2022-05-31T15:11:09Z</time>
      </trkpt>
      <trkpt lat="49.25705" lon="-0.25174">
        <ele>3.8</ele>
        <time>2022-05-31T15:11:10Z</time>
      </trkpt>
      <trkpt lat="49.25705" lon="-0.25174">
        <ele>3.8</ele>
        <time>2022-05-31T15:11:11Z</time>
      </trkpt>
      <trkpt lat="49.25706" lon="-0.25173">
        <ele>3.8</ele>
        <time>2022-05-31T15:11:12Z</time>
      </trkpt>
      <trkpt lat="49.25707" lon="-0.25172">
        <ele>3.8</ele>
        <time>2022-05-31T15:11:13Z</time>
      </trkpt>
      <trkpt lat="49.25707" lon="-0.25171">
        <ele>3.8</ele>
        <time>2022-05-31T15:11:15Z</time>
      </trkpt>
      <trkpt lat="49.25708" lon="-0.2517">
        <ele>3.8</ele>
        <time>2022-05-31T15:11:16Z</time>
      </trkpt>
      <trkpt lat="49.25709" lon="-0.25169">
        <ele>3.8</ele>
        <time>2022-05-31T15:11:17Z</time>
      </trkpt>
      <trkpt lat="49.2571" lon="-0.25168">
        <ele>3.8</ele>
        <time>2022-05-31T15:11:18Z</time>
      </trkpt>
      <trkpt lat="49.25711" lon="-0.25166">
        <ele>3.8</ele>
        <time>2022-05-31T15:11:19Z</time>
      </trkpt>
      <trkpt lat="49.25712" lon="-0.25165">
        <ele>3.8</ele>
        <time>2022-05-31T15:11:20Z</time>
      </trkpt>
      <trkpt lat="49.25713" lon="-0.25164">
        <ele>3.8</ele>
        <time>2022-05-31T15:11:21Z</time>
      </trkpt>
      <trkpt lat="49.25714" lon="-0.25163">
        <ele>3.8</ele>
        <time>2022-05-31T15:11:22Z</time>
      </trkpt>
      <trkpt lat="49.25715" lon="-0.25162">
        <ele>3.8</ele>
        <time>2022-05-31T15:11:24Z</time>
      </trkpt>
      <trkpt lat="49.25716" lon="-0.25161">
        <ele>3.8</ele>
        <time>2022-05-31T15:11:25Z</time>
      </trkpt>
      <trkpt lat="49.25716" lon="-0.2516">
        <ele>3.8</ele>
        <time>2022-05-31T15:11:26Z</time>
      </trkpt>
      <trkpt lat="49.25716" lon="-0.25159">
        <ele>3.8</ele>
        <time>2022-05-31T15:11:27Z</time>
      </trkpt>
      <trkpt lat="49.25717" lon="-0.25158">
        <ele>3.8</ele>
        <time>2022-05-31T15:11:28Z</time>
      </trkpt>
      <trkpt lat="49.25718" lon="-0.25157">
        <ele>3.8</ele>
        <time>2022-05-31T15:11:29Z</time>
      </trkpt>
      <trkpt lat="49.25719" lon="-0.25156">
        <ele>3.8</ele>
        <time>2022-05-31T15:11:30Z</time>
      </trkpt>
      <trkpt lat="49.2572" lon="-0.25154">
        <ele>3.8</ele>
        <time>2022-05-31T15:11:31Z</time>
      </trkpt>
      <trkpt lat="49.25722" lon="-0.25153">
        <ele>3.8</ele>
        <time>2022-05-31T15:11:32Z</time>
      </trkpt>
      <trkpt lat="49.25722" lon="-0.25152">
        <ele>3.8</ele>
        <time>2022-05-31T15:11:33Z</time>
      </trkpt>
      <trkpt lat="49.25723" lon="-0.25151">
        <ele>3.8</ele>
        <time>2022-05-31T15:11:35Z</time>
      </trkpt>
      <trkpt lat="49.25724" lon="-0.2515">
        <ele>3.8</ele>
        <time>2022-05-31T15:11:36Z</time>
      </trkpt>
      <trkpt lat="49.25725" lon="-0.25149">
        <ele>3.8</ele>
        <time>2022-05-31T15:11:37Z</time>
      </trkpt>
      <trkpt lat="49.25725" lon="-0.25149">
        <ele>3.8</ele>
        <time>2022-05-31T15:11:38Z</time>
      </trkpt>
      <trkpt lat="49.25726" lon="-0.25148">
        <ele>3.8</ele>
        <time>2022-05-31T15:11:39Z</time>
      </trkpt>
      <trkpt lat="49.25727" lon="-0.25147">
        <ele>3.8</ele>
        <time>2022-05-31T15:11:40Z</time>
      </trkpt>
      <trkpt lat="49.25729" lon="-0.25146">
        <ele>3.8</ele>
        <time>2022-05-31T15:11:42Z</time>
      </trkpt>
      <trkpt lat="49.2573" lon="-0.25145">
        <ele>3.8</ele>
        <time>2022-05-31T15:11:43Z</time>
      </trkpt>
      <trkpt lat="49.25731" lon="-0.25144">
        <ele>3.8</ele>
        <time>2022-05-31T15:11:44Z</time>
      </trkpt>
      <trkpt lat="49.25732" lon="-0.25142">
        <ele>3.8</ele>
        <time>2022-05-31T15:11:45Z</time>
      </trkpt>
      <trkpt lat="49.25734" lon="-0.25141">
        <ele>3.8</ele>
        <time>2022-05-31T15:11:46Z</time>
      </trkpt>
      <trkpt lat="49.25735" lon="-0.2514">
        <ele>3.8</ele>
        <time>2022-05-31T15:11:47Z</time>
      </trkpt>
      <trkpt lat="49.25736" lon="-0.25138">
        <ele>3.8</ele>
        <time>2022-05-31T15:11:48Z</time>
      </trkpt>
      <trkpt lat="49.25737" lon="-0.25137">
        <ele>3.8</ele>
        <time>2022-05-31T15:11:49Z</time>
      </trkpt>
      <trkpt lat="49.25738" lon="-0.25136">
        <ele>3.8</ele>
        <time>2022-05-31T15:11:51Z</time>
      </trkpt>
      <trkpt lat="49.2574" lon="-0.25134">
        <ele>3.8</ele>
        <time>2022-05-31T15:11:52Z</time>
      </trkpt>
      <trkpt lat="49.25741" lon="-0.25133">
        <ele>3.8</ele>
        <time>2022-05-31T15:11:53Z</time>
      </trkpt>
      <trkpt lat="49.25742" lon="-0.25132">
        <ele>3.8</ele>
        <time>2022-05-31T15:11:54Z</time>
      </trkpt>
      <trkpt lat="49.25743" lon="-0.25131">
        <ele>3.8</ele>
        <time>2022-05-31T15:11:55Z</time>
      </trkpt>
      <trkpt lat="49.25744" lon="-0.2513">
        <ele>3.8</ele>
        <time>2022-05-31T15:11:56Z</time>
      </trkpt>
      <trkpt lat="49.25745" lon="-0.2513">
        <ele>3.8</ele>
        <time>2022-05-31T15:11:57Z</time>
      </trkpt>
      <trkpt lat="49.25746" lon="-0.25129">
        <ele>3.8</ele>
        <time>2022-05-31T15:11:58Z</time>
      </trkpt>
      <trkpt lat="49.25746" lon="-0.25129">
        <ele>3.8</ele>
        <time>2022-05-31T15:12:00Z</time>
      </trkpt>
      <trkpt lat="49.25747" lon="-0.25129">
        <ele>3.8</ele>
        <time>2022-05-31T15:12:01Z</time>
      </trkpt>
      <trkpt lat="49.25747" lon="-0.25129">
        <ele>3.8</ele>
        <time>2022-05-31T15:12:02Z</time>
      </trkpt>
      <trkpt lat="49.25748" lon="-0.25129">
        <ele>3.8</ele>
        <time>2022-05-31T15:12:03Z</time>
      </trkpt>
      <trkpt lat="49.25749" lon="-0.25128">
        <ele>3.8</ele>
        <time>2022-05-31T15:12:04Z</time>
      </trkpt>
      <trkpt lat="49.2575" lon="-0.25127">
        <ele>3.8</ele>
        <time>2022-05-31T15:12:05Z</time>
      </trkpt>
      <trkpt lat="49.25752" lon="-0.25126">
        <ele>3.8</ele>
        <time>2022-05-31T15:12:06Z</time>
      </trkpt>
      <trkpt lat="49.25754" lon="-0.25125">
        <ele>3.8</ele>
        <time>2022-05-31T15:12:07Z</time>
      </trkpt>
      <trkpt lat="49.25754" lon="-0.25124">
        <ele>3.8</ele>
        <time>2022-05-31T15:12:08Z</time>
      </trkpt>
      <trkpt lat="49.25755" lon="-0.25123">
        <ele>3.8</ele>
        <time>2022-05-31T15:12:09Z</time>
      </trkpt>
      <trkpt lat="49.25757" lon="-0.25123">
        <ele>3.8</ele>
        <time>2022-05-31T15:12:10Z</time>
      </trkpt>
      <trkpt lat="49.25758" lon="-0.25122">
        <ele>3.8</ele>
        <time>2022-05-31T15:12:11Z</time>
      </trkpt>
      <trkpt lat="49.25759" lon="-0.25121">
        <ele>3.8</ele>
        <time>2022-05-31T15:12:13Z</time>
      </trkpt>
      <trkpt lat="49.2576" lon="-0.25121">
        <ele>3.8</ele>
        <time>2022-05-31T15:12:14Z</time>
      </trkpt>
      <trkpt lat="49.25761" lon="-0.25121">
        <ele>3.8</ele>
        <time>2022-05-31T15:12:15Z</time>
      </trkpt>
      <trkpt lat="49.25762" lon="-0.2512">
        <ele>3.8</ele>
        <time>2022-05-31T15:12:16Z</time>
      </trkpt>
      <trkpt lat="49.25763" lon="-0.2512">
        <ele>3.8</ele>
        <time>2022-05-31T15:12:17Z</time>
      </trkpt>
      <trkpt lat="49.25764" lon="-0.25119">
        <ele>3.8</ele>
        <time>2022-05-31T15:12:18Z</time>
      </trkpt>
      <trkpt lat="49.25765" lon="-0.25118">
        <ele>3.8</ele>
        <time>2022-05-31T15:12:19Z</time>
      </trkpt>
      <trkpt lat="49.25767" lon="-0.25117">
        <ele>3.8</ele>
        <time>2022-05-31T15:12:20Z</time>
      </trkpt>
      <trkpt lat="49.25768" lon="-0.25115">
        <ele>3.8</ele>
        <time>2022-05-31T15:12:21Z</time>
      </trkpt>
      <trkpt lat="49.2577" lon="-0.25114">
        <ele>3.8</ele>
        <time>2022-05-31T15:12:22Z</time>
      </trkpt>
      <trkpt lat="49.25771" lon="-0.25112">
        <ele>3.8</ele>
        <time>2022-05-31T15:12:23Z</time>
      </trkpt>
      <trkpt lat="49.25772" lon="-0.25111">
        <ele>3.8</ele>
        <time>2022-05-31T15:12:25Z</time>
      </trkpt>
      <trkpt lat="49.25774" lon="-0.2511">
        <ele>3.8</ele>
        <time>2022-05-31T15:12:26Z</time>
      </trkpt>
      <trkpt lat="49.25775" lon="-0.25109">
        <ele>3.8</ele>
        <time>2022-05-31T15:12:27Z</time>
      </trkpt>
      <trkpt lat="49.25776" lon="-0.25108">
        <ele>3.8</ele>
        <time>2022-05-31T15:12:28Z</time>
      </trkpt>
      <trkpt lat="49.25777" lon="-0.25107">
        <ele>3.8</ele>
        <time>2022-05-31T15:12:29Z</time>
      </trkpt>
      <trkpt lat="49.25778" lon="-0.25106">
        <ele>3.8</ele>
        <time>2022-05-31T15:12:30Z</time>
      </trkpt>
      <trkpt lat="49.25779" lon="-0.25106">
        <ele>3.8</ele>
        <time>2022-05-31T15:12:31Z</time>
      </trkpt>
      <trkpt lat="49.2578" lon="-0.25106">
        <ele>3.8</ele>
        <time>2022-05-31T15:12:32Z</time>
      </trkpt>
      <trkpt lat="49.25779" lon="-0.25106">
        <ele>3.8</ele>
        <time>2022-05-31T15:12:33Z</time>
      </trkpt>
      <trkpt lat="49.25779" lon="-0.25106">
        <ele>3.8</ele>
        <time>2022-05-31T15:12:34Z</time>
      </trkpt>
      <trkpt lat="49.2578" lon="-0.25106">
        <ele>3.8</ele>
        <time>2022-05-31T15:12:35Z</time>
      </trkpt>
      <trkpt lat="49.25781" lon="-0.25105">
        <ele>3.8</ele>
        <time>2022-05-31T15:12:37Z</time>
      </trkpt>
      <trkpt lat="49.25781" lon="-0.25105">
        <ele>3.8</ele>
        <time>2022-05-31T15:12:38Z</time>
      </trkpt>
      <trkpt lat="49.25782" lon="-0.25104">
        <ele>3.8</ele>
        <time>2022-05-31T15:12:39Z</time>
      </trkpt>
      <trkpt lat="49.25783" lon="-0.25104">
        <ele>3.8</ele>
        <time>2022-05-31T15:12:40Z</time>
      </trkpt>
      <trkpt lat="49.25783" lon="-0.25103">
        <ele>3.8</ele>
        <time>2022-05-31T15:12:41Z</time>
      </trkpt>
      <trkpt lat="49.25784" lon="-0.25102">
        <ele>3.8</ele>
        <time>2022-05-31T15:12:42Z</time>
      </trkpt>
      <trkpt lat="49.25785" lon="-0.25101">
        <ele>3.8</ele>
        <time>2022-05-31T15:12:44Z</time>
      </trkpt>
      <trkpt lat="49.25786" lon="-0.251">
        <ele>3.8</ele>
        <time>2022-05-31T15:12:45Z</time>
      </trkpt>
      <trkpt lat="49.25788" lon="-0.25099">
        <ele>3.8</ele>
        <time>2022-05-31T15:12:46Z</time>
      </trkpt>
      <trkpt lat="49.25789" lon="-0.25098">
        <ele>3.8</ele>
        <time>2022-05-31T15:12:47Z</time>
      </trkpt>
      <trkpt lat="49.2579" lon="-0.25097">
        <ele>3.8</ele>
        <time>2022-05-31T15:12:48Z</time>
      </trkpt>
      <trkpt lat="49.25791" lon="-0.25096">
        <ele>3.8</ele>
        <time>2022-05-31T15:12:49Z</time>
      </trkpt>
      <trkpt lat="49.25792" lon="-0.25094">
        <ele>3.8</ele>
        <time>2022-05-31T15:12:50Z</time>
      </trkpt>
      <trkpt lat="49.25793" lon="-0.25093">
        <ele>3.8</ele>
        <time>2022-05-31T15:12:51Z</time>
      </trkpt>
      <trkpt lat="49.25794" lon="-0.25091">
        <ele>3.8</ele>
        <time>2022-05-31T15:12:52Z</time>
      </trkpt>
      <trkpt lat="49.25795" lon="-0.2509">
        <ele>3.8</ele>
        <time>2022-05-31T15:12:54Z</time>
      </trkpt>
      <trkpt lat="49.25797" lon="-0.25088">
        <ele>3.8</ele>
        <time>2022-05-31T15:12:55Z</time>
      </trkpt>
      <trkpt lat="49.25798" lon="-0.25087">
        <ele>3.8</ele>
        <time>2022-05-31T15:12:56Z</time>
      </trkpt>
      <trkpt lat="49.258" lon="-0.25086">
        <ele>3.8</ele>
        <time>2022-05-31T15:12:57Z</time>
      </trkpt>
      <trkpt lat="49.25801" lon="-0.25084">
        <ele>3.9</ele>
        <time>2022-05-31T15:12:58Z</time>
      </trkpt>
      <trkpt lat="49.25803" lon="-0.25083">
        <ele>3.9</ele>
        <time>2022-05-31T15:12:59Z</time>
      </trkpt>
      <trkpt lat="49.25804" lon="-0.25082">
        <ele>3.9</ele>
        <time>2022-05-31T15:13:00Z</time>
      </trkpt>
      <trkpt lat="49.25805" lon="-0.25082">
        <ele>3.9</ele>
        <time>2022-05-31T15:13:01Z</time>
      </trkpt>
      <trkpt lat="49.25806" lon="-0.25081">
        <ele>3.9</ele>
        <time>2022-05-31T15:13:02Z</time>
      </trkpt>
      <trkpt lat="49.25807" lon="-0.2508">
        <ele>3.9</ele>
        <time>2022-05-31T15:13:04Z</time>
      </trkpt>
      <trkpt lat="49.25808" lon="-0.25078">
        <ele>3.9</ele>
        <time>2022-05-31T15:13:05Z</time>
      </trkpt>
      <trkpt lat="49.25809" lon="-0.25077">
        <ele>3.9</ele>
        <time>2022-05-31T15:13:06Z</time>
      </trkpt>
      <trkpt lat="49.2581" lon="-0.25076">
        <ele>3.9</ele>
        <time>2022-05-31T15:13:07Z</time>
      </trkpt>
      <trkpt lat="49.25811" lon="-0.25075">
        <ele>3.9</ele>
        <time>2022-05-31T15:13:08Z</time>
      </trkpt>
      <trkpt lat="49.25812" lon="-0.25074">
        <ele>3.9</ele>
        <time>2022-05-31T15:13:09Z</time>
      </trkpt>
      <trkpt lat="49.25813" lon="-0.25074">
        <ele>3.9</ele>
        <time>2022-05-31T15:13:10Z</time>
      </trkpt>
      <trkpt lat="49.25813" lon="-0.25073">
        <ele>3.9</ele>
        <time>2022-05-31T15:13:12Z</time>
      </trkpt>
      <trkpt lat="49.25814" lon="-0.25073">
        <ele>3.9</ele>
        <time>2022-05-31T15:13:13Z</time>
      </trkpt>
      <trkpt lat="49.25814" lon="-0.25073">
        <ele>3.9</ele>
        <time>2022-05-31T15:13:14Z</time>
      </trkpt>
      <trkpt lat="49.25814" lon="-0.25073">
        <ele>3.9</ele>
        <time>2022-05-31T15:13:15Z</time>
      </trkpt>
      <trkpt lat="49.25815" lon="-0.25072">
        <ele>3.9</ele>
        <time>2022-05-31T15:13:16Z</time>
      </trkpt>
      <trkpt lat="49.25816" lon="-0.25072">
        <ele>3.9</ele>
        <time>2022-05-31T15:13:17Z</time>
      </trkpt>
      <trkpt lat="49.25816" lon="-0.25071">
        <ele>3.9</ele>
        <time>2022-05-31T15:13:18Z</time>
      </trkpt>
      <trkpt lat="49.25817" lon="-0.25071">
        <ele>3.9</ele>
        <time>2022-05-31T15:13:19Z</time>
      </trkpt>
      <trkpt lat="49.25818" lon="-0.2507">
        <ele>3.9</ele>
        <time>2022-05-31T15:13:20Z</time>
      </trkpt>
      <trkpt lat="49.25819" lon="-0.25069">
        <ele>3.9</ele>
        <time>2022-05-31T15:13:21Z</time>
      </trkpt>
      <trkpt lat="49.2582" lon="-0.25068">
        <ele>3.9</ele>
        <time>2022-05-31T15:13:23Z</time>
      </trkpt>
      <trkpt lat="49.25821" lon="-0.25067">
        <ele>3.9</ele>
        <time>2022-05-31T15:13:24Z</time>
      </trkpt>
      <trkpt lat="49.25822" lon="-0.25066">
        <ele>3.9</ele>
        <time>2022-05-31T15:13:25Z</time>
      </trkpt>
      <trkpt lat="49.25823" lon="-0.25066">
        <ele>3.9</ele>
        <time>2022-05-31T15:13:26Z</time>
      </trkpt>
      <trkpt lat="49.25824" lon="-0.25066">
        <ele>3.9</ele>
        <time>2022-05-31T15:13:27Z</time>
      </trkpt>
      <trkpt lat="49.25825" lon="-0.25065">
        <ele>3.9</ele>
        <time>2022-05-31T15:13:28Z</time>
      </trkpt>
      <trkpt lat="49.25826" lon="-0.25064">
        <ele>3.9</ele>
        <time>2022-05-31T15:13:29Z</time>
      </trkpt>
      <trkpt lat="49.25828" lon="-0.25064">
        <ele>3.9</ele>
        <time>2022-05-31T15:13:30Z</time>
      </trkpt>
      <trkpt lat="49.25828" lon="-0.25063">
        <ele>3.9</ele>
        <time>2022-05-31T15:13:31Z</time>
      </trkpt>
      <trkpt lat="49.2583" lon="-0.25062">
        <ele>3.9</ele>
        <time>2022-05-31T15:13:32Z</time>
      </trkpt>
      <trkpt lat="49.25831" lon="-0.25061">
        <ele>3.9</ele>
        <time>2022-05-31T15:13:33Z</time>
      </trkpt>
      <trkpt lat="49.25832" lon="-0.25061">
        <ele>3.9</ele>
        <time>2022-05-31T15:13:35Z</time>
      </trkpt>
      <trkpt lat="49.25833" lon="-0.2506">
        <ele>3.9</ele>
        <time>2022-05-31T15:13:36Z</time>
      </trkpt>
      <trkpt lat="49.25834" lon="-0.25059">
        <ele>3.9</ele>
        <time>2022-05-31T15:13:37Z</time>
      </trkpt>
      <trkpt lat="49.25835" lon="-0.25058">
        <ele>3.9</ele>
        <time>2022-05-31T15:13:38Z</time>
      </trkpt>
      <trkpt lat="49.25836" lon="-0.25057">
        <ele>3.9</ele>
        <time>2022-05-31T15:13:39Z</time>
      </trkpt>
      <trkpt lat="49.25837" lon="-0.25057">
        <ele>3.9</ele>
        <time>2022-05-31T15:13:40Z</time>
      </trkpt>
      <trkpt lat="49.25838" lon="-0.25056">
        <ele>3.9</ele>
        <time>2022-05-31T15:13:42Z</time>
      </trkpt>
      <trkpt lat="49.25839" lon="-0.25056">
        <ele>3.9</ele>
        <time>2022-05-31T15:13:43Z</time>
      </trkpt>
      <trkpt lat="49.25839" lon="-0.25055">
        <ele>3.9</ele>
        <time>2022-05-31T15:13:44Z</time>
      </trkpt>
      <trkpt lat="49.2584" lon="-0.25055">
        <ele>3.9</ele>
        <time>2022-05-31T15:13:45Z</time>
      </trkpt>
      <trkpt lat="49.2584" lon="-0.25054">
        <ele>3.9</ele>
        <time>2022-05-31T15:13:46Z</time>
      </trkpt>
      <trkpt lat="49.2584" lon="-0.25054">
        <ele>3.9</ele>
        <time>2022-05-31T15:13:47Z</time>
      </trkpt>
      <trkpt lat="49.25839" lon="-0.25055">
        <ele>3.9</ele>
        <time>2022-05-31T15:13:50Z</time>
      </trkpt>
      <trkpt lat="49.25839" lon="-0.25056">
        <ele>3.9</ele>
        <time>2022-05-31T15:13:51Z</time>
      </trkpt>
      <trkpt lat="49.25839" lon="-0.25056">
        <ele>3.9</ele>
        <time>2022-05-31T15:13:52Z</time>
      </trkpt>
      <trkpt lat="49.25839" lon="-0.25056">
        <ele>3.9</ele>
        <time>2022-05-31T15:13:54Z</time>
      </trkpt>
      <trkpt lat="49.25839" lon="-0.25056">
        <ele>3.9</ele>
        <time>2022-05-31T15:13:55Z</time>
      </trkpt>
      <trkpt lat="49.25839" lon="-0.25057">
        <ele>3.9</ele>
        <time>2022-05-31T15:13:56Z</time>
      </trkpt>
      <trkpt lat="49.25839" lon="-0.25057">
        <ele>3.9</ele>
        <time>2022-05-31T15:13:57Z</time>
      </trkpt>
      <trkpt lat="49.25839" lon="-0.25057">
        <ele>3.9</ele>
        <time>2022-05-31T15:13:58Z</time>
      </trkpt>
      <trkpt lat="49.25839" lon="-0.25057">
        <ele>3.9</ele>
        <time>2022-05-31T15:13:59Z</time>
      </trkpt>
      <trkpt lat="49.25839" lon="-0.25057">
        <ele>3.9</ele>
        <time>2022-05-31T15:14:00Z</time>
      </trkpt>
      <trkpt lat="49.25839" lon="-0.25057">
        <ele>3.9</ele>
        <time>2022-05-31T15:14:01Z</time>
      </trkpt>
      <trkpt lat="49.25839" lon="-0.25057">
        <ele>3.9</ele>
        <time>2022-05-31T15:14:02Z</time>
      </trkpt>
      <trkpt lat="49.25839" lon="-0.25057">
        <ele>3.9</ele>
        <time>2022-05-31T15:14:03Z</time>
      </trkpt>
      <trkpt lat="49.25839" lon="-0.25057">
        <ele>3.9</ele>
        <time>2022-05-31T15:14:04Z</time>
      </trkpt>
      <trkpt lat="49.25839" lon="-0.25057">
        <ele>3.9</ele>
        <time>2022-05-31T15:14:05Z</time>
      </trkpt>
      <trkpt lat="49.25839" lon="-0.25057">
        <ele>3.9</ele>
        <time>2022-05-31T15:14:06Z</time>
      </trkpt>
      <trkpt lat="49.25839" lon="-0.25057">
        <ele>3.9</ele>
        <time>2022-05-31T15:14:07Z</time>
      </trkpt>
      <trkpt lat="49.25839" lon="-0.25057">
        <ele>3.9</ele>
        <time>2022-05-31T15:14:08Z</time>
      </trkpt>
      <trkpt lat="49.25839" lon="-0.25057">
        <ele>3.9</ele>
        <time>2022-05-31T15:14:09Z</time>
      </trkpt>
      <trkpt lat="49.25839" lon="-0.25057">
        <ele>3.9</ele>
        <time>2022-05-31T15:14:10Z</time>
      </trkpt>
      <trkpt lat="49.25839" lon="-0.25057">
        <ele>3.9</ele>
        <time>2022-05-31T15:14:11Z</time>
      </trkpt>
      <trkpt lat="49.25839" lon="-0.25057">
        <ele>3.9</ele>
        <time>2022-05-31T15:14:12Z</time>
      </trkpt>
      <trkpt lat="49.25839" lon="-0.25057">
        <ele>3.9</ele>
        <time>2022-05-31T15:14:13Z</time>
      </trkpt>
      <trkpt lat="49.25839" lon="-0.25057">
        <ele>3.9</ele>
        <time>2022-05-31T15:14:14Z</time>
      </trkpt>
      <trkpt lat="49.25839" lon="-0.25057">
        <ele>3.9</ele>
        <time>2022-05-31T15:14:15Z</time>
      </trkpt>
      <trkpt lat="49.25839" lon="-0.25057">
        <ele>3.9</ele>
        <time>2022-05-31T15:14:16Z</time>
      </trkpt>
      <trkpt lat="49.25839" lon="-0.25057">
        <ele>3.9</ele>
        <time>2022-05-31T15:14:17Z</time>
      </trkpt>
      <trkpt lat="49.25839" lon="-0.25057">
        <ele>3.9</ele>
        <time>2022-05-31T15:14:18Z</time>
      </trkpt>
      <trkpt lat="49.25839" lon="-0.25057">
        <ele>3.9</ele>
        <time>2022-05-31T15:14:19Z</time>
      </trkpt>
      <trkpt lat="49.25839" lon="-0.25057">
        <ele>3.9</ele>
        <time>2022-05-31T15:14:20Z</time>
      </trkpt>
      <trkpt lat="49.25839" lon="-0.25057">
        <ele>3.9</ele>
        <time>2022-05-31T15:14:21Z</time>
      </trkpt>
      <trkpt lat="49.25839" lon="-0.25057">
        <ele>3.9</ele>
        <time>2022-05-31T15:14:22Z</time>
      </trkpt>
      <trkpt lat="49.25839" lon="-0.25057">
        <ele>3.9</ele>
        <time>2022-05-31T15:14:23Z</time>
      </trkpt>
      <trkpt lat="49.25839" lon="-0.25057">
        <ele>3.9</ele>
        <time>2022-05-31T15:14:24Z</time>
      </trkpt>
      <trkpt lat="49.25839" lon="-0.25057">
        <ele>3.9</ele>
        <time>2022-05-31T15:14:25Z</time>
      </trkpt>
      <trkpt lat="49.25839" lon="-0.25057">
        <ele>3.9</ele>
        <time>2022-05-31T15:14:26Z</time>
      </trkpt>
      <trkpt lat="49.25839" lon="-0.25057">
        <ele>3.9</ele>
        <time>2022-05-31T15:14:27Z</time>
      </trkpt>
      <trkpt lat="49.25839" lon="-0.25057">
        <ele>3.9</ele>
        <time>2022-05-31T15:14:28Z</time>
      </trkpt>
      <trkpt lat="49.25839" lon="-0.25057">
        <ele>3.9</ele>
        <time>2022-05-31T15:14:29Z</time>
      </trkpt>
      <trkpt lat="49.25839" lon="-0.25057">
        <ele>3.9</ele>
        <time>2022-05-31T15:14:30Z</time>
      </trkpt>
      <trkpt lat="49.25839" lon="-0.25057">
        <ele>3.9</ele>
        <time>2022-05-31T15:14:31Z</time>
      </trkpt>
      <trkpt lat="49.25839" lon="-0.25057">
        <ele>3.9</ele>
        <time>2022-05-31T15:14:32Z</time>
      </trkpt>
      <trkpt lat="49.25839" lon="-0.25057">
        <ele>3.9</ele>
        <time>2022-05-31T15:14:33Z</time>
      </trkpt>
      <trkpt lat="49.25839" lon="-0.25057">
        <ele>3.9</ele>
        <time>2022-05-31T15:14:34Z</time>
      </trkpt>
      <trkpt lat="49.25839" lon="-0.25057">
        <ele>3.9</ele>
        <time>2022-05-31T15:14:35Z</time>
      </trkpt>
      <trkpt lat="49.25839" lon="-0.25057">
        <ele>3.9</ele>
        <time>2022-05-31T15:14:36Z</time>
      </trkpt>
      <trkpt lat="49.25839" lon="-0.25057">
        <ele>3.9</ele>
        <time>2022-05-31T15:14:37Z</time>
      </trkpt>
      <trkpt lat="49.25839" lon="-0.25057">
        <ele>3.9</ele>
        <time>2022-05-31T15:14:38Z</time>
      </trkpt>
      <trkpt lat="49.25839" lon="-0.25057">
        <ele>3.9</ele>
        <time>2022-05-31T15:14:39Z</time>
      </trkpt>
      <trkpt lat="49.25839" lon="-0.25057">
        <ele>3.9</ele>
        <time>2022-05-31T15:14:40Z</time>
      </trkpt>
      <trkpt lat="49.25839" lon="-0.25057">
        <ele>3.9</ele>
        <time>2022-05-31T15:14:41Z</time>
      </trkpt>
      <trkpt lat="49.25839" lon="-0.25057">
        <ele>3.9</ele>
        <time>2022-05-31T15:14:42Z</time>
      </trkpt>
      <trkpt lat="49.25839" lon="-0.25057">
        <ele>3.9</ele>
        <time>2022-05-31T15:14:43Z</time>
      </trkpt>
      <trkpt lat="49.25839" lon="-0.25057">
        <ele>3.9</ele>
        <time>2022-05-31T15:14:44Z</time>
      </trkpt>
      <trkpt lat="49.25839" lon="-0.25057">
        <ele>3.9</ele>
        <time>2022-05-31T15:14:45Z</time>
      </trkpt>
      <trkpt lat="49.25839" lon="-0.25057">
        <ele>3.9</ele>
        <time>2022-05-31T15:14:46Z</time>
      </trkpt>
      <trkpt lat="49.25839" lon="-0.25057">
        <ele>3.9</ele>
        <time>2022-05-31T15:14:47Z</time>
      </trkpt>
      <trkpt lat="49.25839" lon="-0.25057">
        <ele>3.9</ele>
        <time>2022-05-31T15:14:48Z</time>
      </trkpt>
      <trkpt lat="49.25839" lon="-0.25057">
        <ele>3.9</ele>
        <time>2022-05-31T15:14:49Z</time>
      </trkpt>
      <trkpt lat="49.25839" lon="-0.25057">
        <ele>3.9</ele>
        <time>2022-05-31T15:14:50Z</time>
      </trkpt>
      <trkpt lat="49.25839" lon="-0.25057">
        <ele>3.9</ele>
        <time>2022-05-31T15:14:51Z</time>
      </trkpt>
      <trkpt lat="49.25839" lon="-0.25057">
        <ele>3.9</ele>
        <time>2022-05-31T15:14:52Z</time>
      </trkpt>
      <trkpt lat="49.25839" lon="-0.25057">
        <ele>3.9</ele>
        <time>2022-05-31T15:14:53Z</time>
      </trkpt>
      <trkpt lat="49.25839" lon="-0.25057">
        <ele>3.9</ele>
        <time>2022-05-31T15:14:54Z</time>
      </trkpt>
      <trkpt lat="49.25839" lon="-0.25057">
        <ele>3.9</ele>
        <time>2022-05-31T15:14:55Z</time>
      </trkpt>
      <trkpt lat="49.25839" lon="-0.25057">
        <ele>3.9</ele>
        <time>2022-05-31T15:14:56Z</time>
      </trkpt>
      <trkpt lat="49.25839" lon="-0.25057">
        <ele>3.9</ele>
        <time>2022-05-31T15:14:57Z</time>
      </trkpt>
      <trkpt lat="49.25839" lon="-0.25057">
        <ele>3.9</ele>
        <time>2022-05-31T15:14:58Z</time>
      </trkpt>
      <trkpt lat="49.25839" lon="-0.25057">
        <ele>3.9</ele>
        <time>2022-05-31T15:14:59Z</time>
      </trkpt>
      <trkpt lat="49.25839" lon="-0.25057">
        <ele>3.9</ele>
        <time>2022-05-31T15:15:00Z</time>
      </trkpt>
      <trkpt lat="49.25839" lon="-0.25057">
        <ele>3.9</ele>
        <time>2022-05-31T15:15:01Z</time>
      </trkpt>
      <trkpt lat="49.25839" lon="-0.25057">
        <ele>3.9</ele>
        <time>2022-05-31T15:15:02Z</time>
      </trkpt>
      <trkpt lat="49.25839" lon="-0.25057">
        <ele>3.9</ele>
        <time>2022-05-31T15:15:03Z</time>
      </trkpt>
      <trkpt lat="49.25839" lon="-0.25057">
        <ele>3.9</ele>
        <time>2022-05-31T15:15:04Z</time>
      </trkpt>
      <trkpt lat="49.25839" lon="-0.25057">
        <ele>3.9</ele>
        <time>2022-05-31T15:15:05Z</time>
      </trkpt>
      <trkpt lat="49.25839" lon="-0.25057">
        <ele>3.9</ele>
        <time>2022-05-31T15:15:06Z</time>
      </trkpt>
      <trkpt lat="49.25839" lon="-0.25057">
        <ele>3.9</ele>
        <time>2022-05-31T15:15:07Z</time>
      </trkpt>
      <trkpt lat="49.25839" lon="-0.25057">
        <ele>3.9</ele>
        <time>2022-05-31T15:15:08Z</time>
      </trkpt>
      <trkpt lat="49.25839" lon="-0.25057">
        <ele>3.9</ele>
        <time>2022-05-31T15:15:09Z</time>
      </trkpt>
      <trkpt lat="49.25839" lon="-0.25057">
        <ele>3.9</ele>
        <time>2022-05-31T15:15:10Z</time>
      </trkpt>
      <trkpt lat="49.25839" lon="-0.25057">
        <ele>3.9</ele>
        <time>2022-05-31T15:15:11Z</time>
      </trkpt>
      <trkpt lat="49.25839" lon="-0.25057">
        <ele>3.9</ele>
        <time>2022-05-31T15:15:12Z</time>
      </trkpt>
      <trkpt lat="49.25839" lon="-0.25057">
        <ele>3.9</ele>
        <time>2022-05-31T15:15:13Z</time>
      </trkpt>
      <trkpt lat="49.25839" lon="-0.25057">
        <ele>3.9</ele>
        <time>2022-05-31T15:15:14Z</time>
      </trkpt>
      <trkpt lat="49.25839" lon="-0.25057">
        <ele>3.9</ele>
        <time>2022-05-31T15:15:15Z</time>
      </trkpt>
      <trkpt lat="49.25839" lon="-0.25057">
        <ele>3.9</ele>
        <time>2022-05-31T15:15:16Z</time>
      </trkpt>
      <trkpt lat="49.25839" lon="-0.25057">
        <ele>3.9</ele>
        <time>2022-05-31T15:15:17Z</time>
      </trkpt>
      <trkpt lat="49.25839" lon="-0.25057">
        <ele>3.9</ele>
        <time>2022-05-31T15:15:18Z</time>
      </trkpt>
      <trkpt lat="49.25839" lon="-0.25057">
        <ele>3.9</ele>
        <time>2022-05-31T15:15:19Z</time>
      </trkpt>
      <trkpt lat="49.25839" lon="-0.25057">
        <ele>3.9</ele>
        <time>2022-05-31T15:15:20Z</time>
      </trkpt>
      <trkpt lat="49.25839" lon="-0.25057">
        <ele>3.9</ele>
        <time>2022-05-31T15:15:21Z</time>
      </trkpt>
      <trkpt lat="49.25839" lon="-0.25057">
        <ele>3.9</ele>
        <time>2022-05-31T15:15:22Z</time>
      </trkpt>
      <trkpt lat="49.25839" lon="-0.25057">
        <ele>3.9</ele>
        <time>2022-05-31T15:15:23Z</time>
      </trkpt>
      <trkpt lat="49.25839" lon="-0.25057">
        <ele>3.9</ele>
        <time>2022-05-31T15:15:24Z</time>
      </trkpt>
      <trkpt lat="49.25839" lon="-0.25057">
        <ele>3.9</ele>
        <time>2022-05-31T15:15:25Z</time>
      </trkpt>
      <trkpt lat="49.25839" lon="-0.25057">
        <ele>3.9</ele>
        <time>2022-05-31T15:15:26Z</time>
      </trkpt>
      <trkpt lat="49.25839" lon="-0.25057">
        <ele>3.9</ele>
        <time>2022-05-31T15:15:27Z</time>
      </trkpt>
      <trkpt lat="49.25839" lon="-0.25057">
        <ele>3.9</ele>
        <time>2022-05-31T15:15:28Z</time>
      </trkpt>
      <trkpt lat="49.25839" lon="-0.25057">
        <ele>3.9</ele>
        <time>2022-05-31T15:15:29Z</time>
      </trkpt>
      <trkpt lat="49.25839" lon="-0.25057">
        <ele>3.9</ele>
        <time>2022-05-31T15:15:30Z</time>
      </trkpt>
      <trkpt lat="49.25839" lon="-0.25057">
        <ele>3.9</ele>
        <time>2022-05-31T15:15:31Z</time>
      </trkpt>
      <trkpt lat="49.25839" lon="-0.25057">
        <ele>3.9</ele>
        <time>2022-05-31T15:15:32Z</time>
      </trkpt>
      <trkpt lat="49.25839" lon="-0.25057">
        <ele>3.9</ele>
        <time>2022-05-31T15:15:33Z</time>
      </trkpt>
      <trkpt lat="49.25839" lon="-0.25057">
        <ele>3.9</ele>
        <time>2022-05-31T15:15:34Z</time>
      </trkpt>
      <trkpt lat="49.25839" lon="-0.25057">
        <ele>3.9</ele>
        <time>2022-05-31T15:15:35Z</time>
      </trkpt>
      <trkpt lat="49.25838" lon="-0.25058">
        <ele>3.9</ele>
        <time>2022-05-31T15:15:36Z</time>
      </trkpt>
      <trkpt lat="49.25836" lon="-0.25059">
        <ele>3.9</ele>
        <time>2022-05-31T15:15:37Z</time>
      </trkpt>
      <trkpt lat="49.25836" lon="-0.25059">
        <ele>3.9</ele>
        <time>2022-05-31T15:15:38Z</time>
      </trkpt>
      <trkpt lat="49.25837" lon="-0.25058">
        <ele>3.9</ele>
        <time>2022-05-31T15:15:39Z</time>
      </trkpt>
      <trkpt lat="49.25837" lon="-0.25058">
        <ele>3.9</ele>
        <time>2022-05-31T15:15:40Z</time>
      </trkpt>
      <trkpt lat="49.25838" lon="-0.25058">
        <ele>3.9</ele>
        <time>2022-05-31T15:15:41Z</time>
      </trkpt>
      <trkpt lat="49.25838" lon="-0.25057">
        <ele>3.9</ele>
        <time>2022-05-31T15:15:42Z</time>
      </trkpt>
      <trkpt lat="49.25839" lon="-0.25056">
        <ele>3.9</ele>
        <time>2022-05-31T15:15:43Z</time>
      </trkpt>
      <trkpt lat="49.2584" lon="-0.25056">
        <ele>3.9</ele>
        <time>2022-05-31T15:15:45Z</time>
      </trkpt>
      <trkpt lat="49.25841" lon="-0.25055">
        <ele>3.9</ele>
        <time>2022-05-31T15:15:46Z</time>
      </trkpt>
      <trkpt lat="49.25841" lon="-0.25055">
        <ele>3.9</ele>
        <time>2022-05-31T15:15:47Z</time>
      </trkpt>
      <trkpt lat="49.25841" lon="-0.25054">
        <ele>3.9</ele>
        <time>2022-05-31T15:15:48Z</time>
      </trkpt>
      <trkpt lat="49.25841" lon="-0.25053">
        <ele>3.9</ele>
        <time>2022-05-31T15:15:49Z</time>
      </trkpt>
      <trkpt lat="49.25841" lon="-0.25053">
        <ele>3.9</ele>
        <time>2022-05-31T15:15:50Z</time>
      </trkpt>
      <trkpt lat="49.25841" lon="-0.25053">
        <ele>3.9</ele>
        <time>2022-05-31T15:15:51Z</time>
      </trkpt>
      <trkpt lat="49.25841" lon="-0.25053">
        <ele>3.9</ele>
        <time>2022-05-31T15:15:53Z</time>
      </trkpt>
      <trkpt lat="49.25842" lon="-0.25053">
        <ele>3.9</ele>
        <time>2022-05-31T15:15:54Z</time>
      </trkpt>
      <trkpt lat="49.25842" lon="-0.25052">
        <ele>3.9</ele>
        <time>2022-05-31T15:15:55Z</time>
      </trkpt>
      <trkpt lat="49.25843" lon="-0.25052">
        <ele>3.9</ele>
        <time>2022-05-31T15:15:56Z</time>
      </trkpt>
      <trkpt lat="49.25844" lon="-0.25051">
        <ele>3.9</ele>
        <time>2022-05-31T15:15:57Z</time>
      </trkpt>
      <trkpt lat="49.25845" lon="-0.2505">
        <ele>3.9</ele>
        <time>2022-05-31T15:15:59Z</time>
      </trkpt>
      <trkpt lat="49.25845" lon="-0.2505">
        <ele>3.9</ele>
        <time>2022-05-31T15:16:00Z</time>
      </trkpt>
      <trkpt lat="49.25845" lon="-0.25052">
        <ele>3.9</ele>
        <time>2022-05-31T15:16:02Z</time>
      </trkpt>
      <trkpt lat="49.25845" lon="-0.25052">
        <ele>3.9</ele>
        <time>2022-05-31T15:16:03Z</time>
      </trkpt>
      <trkpt lat="49.25845" lon="-0.25052">
        <ele>3.9</ele>
        <time>2022-05-31T15:16:04Z</time>
      </trkpt>
      <trkpt lat="49.25845" lon="-0.25051">
        <ele>3.9</ele>
        <time>2022-05-31T15:16:05Z</time>
      </trkpt>
      <trkpt lat="49.25845" lon="-0.2505">
        <ele>3.9</ele>
        <time>2022-05-31T15:16:06Z</time>
      </trkpt>
      <trkpt lat="49.25846" lon="-0.25049">
        <ele>3.9</ele>
        <time>2022-05-31T15:16:07Z</time>
      </trkpt>
      <trkpt lat="49.25846" lon="-0.25049">
        <ele>3.9</ele>
        <time>2022-05-31T15:16:08Z</time>
      </trkpt>
      <trkpt lat="49.25847" lon="-0.25048">
        <ele>3.9</ele>
        <time>2022-05-31T15:16:10Z</time>
      </trkpt>
      <trkpt lat="49.25848" lon="-0.25047">
        <ele>3.9</ele>
        <time>2022-05-31T15:16:11Z</time>
      </trkpt>
      <trkpt lat="49.25849" lon="-0.25045">
        <ele>3.9</ele>
        <time>2022-05-31T15:16:12Z</time>
      </trkpt>
      <trkpt lat="49.25851" lon="-0.25044">
        <ele>3.9</ele>
        <time>2022-05-31T15:16:13Z</time>
      </trkpt>
      <trkpt lat="49.25852" lon="-0.25043">
        <ele>3.9</ele>
        <time>2022-05-31T15:16:14Z</time>
      </trkpt>
      <trkpt lat="49.25853" lon="-0.25043">
        <ele>3.9</ele>
        <time>2022-05-31T15:16:15Z</time>
      </trkpt>
      <trkpt lat="49.25854" lon="-0.25042">
        <ele>3.9</ele>
        <time>2022-05-31T15:16:16Z</time>
      </trkpt>
      <trkpt lat="49.25856" lon="-0.25041">
        <ele>3.9</ele>
        <time>2022-05-31T15:16:17Z</time>
      </trkpt>
      <trkpt lat="49.25857" lon="-0.2504">
        <ele>3.9</ele>
        <time>2022-05-31T15:16:19Z</time>
      </trkpt>
      <trkpt lat="49.25859" lon="-0.25039">
        <ele>3.9</ele>
        <time>2022-05-31T15:16:20Z</time>
      </trkpt>
      <trkpt lat="49.2586" lon="-0.25039">
        <ele>3.9</ele>
        <time>2022-05-31T15:16:21Z</time>
      </trkpt>
      <trkpt lat="49.25861" lon="-0.25038">
        <ele>3.9</ele>
        <time>2022-05-31T15:16:22Z</time>
      </trkpt>
      <trkpt lat="49.25863" lon="-0.25037">
        <ele>3.9</ele>
        <time>2022-05-31T15:16:23Z</time>
      </trkpt>
      <trkpt lat="49.25864" lon="-0.25036">
        <ele>3.9</ele>
        <time>2022-05-31T15:16:24Z</time>
      </trkpt>
      <trkpt lat="49.25867" lon="-0.25034">
        <ele>3.9</ele>
        <time>2022-05-31T15:16:25Z</time>
      </trkpt>
      <trkpt lat="49.25868" lon="-0.25033">
        <ele>3.9</ele>
        <time>2022-05-31T15:16:26Z</time>
      </trkpt>
      <trkpt lat="49.2587" lon="-0.25031">
        <ele>3.9</ele>
        <time>2022-05-31T15:16:28Z</time>
      </trkpt>
      <trkpt lat="49.25871" lon="-0.25031">
        <ele>3.9</ele>
        <time>2022-05-31T15:16:29Z</time>
      </trkpt>
      <trkpt lat="49.25872" lon="-0.2503">
        <ele>3.9</ele>
        <time>2022-05-31T15:16:30Z</time>
      </trkpt>
      <trkpt lat="49.25873" lon="-0.25029">
        <ele>3.9</ele>
        <time>2022-05-31T15:16:31Z</time>
      </trkpt>
      <trkpt lat="49.25875" lon="-0.25028">
        <ele>3.9</ele>
        <time>2022-05-31T15:16:32Z</time>
      </trkpt>
      <trkpt lat="49.25876" lon="-0.25027">
        <ele>3.9</ele>
        <time>2022-05-31T15:16:33Z</time>
      </trkpt>
      <trkpt lat="49.25877" lon="-0.25026">
        <ele>3.9</ele>
        <time>2022-05-31T15:16:34Z</time>
      </trkpt>
      <trkpt lat="49.25878" lon="-0.25024">
        <ele>3.9</ele>
        <time>2022-05-31T15:16:35Z</time>
      </trkpt>
      <trkpt lat="49.2588" lon="-0.25022">
        <ele>3.9</ele>
        <time>2022-05-31T15:16:37Z</time>
      </trkpt>
      <trkpt lat="49.25881" lon="-0.25022">
        <ele>3.9</ele>
        <time>2022-05-31T15:16:38Z</time>
      </trkpt>
      <trkpt lat="49.25882" lon="-0.25021">
        <ele>3.9</ele>
        <time>2022-05-31T15:16:39Z</time>
      </trkpt>
      <trkpt lat="49.25883" lon="-0.2502">
        <ele>3.9</ele>
        <time>2022-05-31T15:16:40Z</time>
      </trkpt>
      <trkpt lat="49.25885" lon="-0.25018">
        <ele>3.9</ele>
        <time>2022-05-31T15:16:41Z</time>
      </trkpt>
      <trkpt lat="49.25886" lon="-0.25016">
        <ele>3.9</ele>
        <time>2022-05-31T15:16:42Z</time>
      </trkpt>
      <trkpt lat="49.25888" lon="-0.25015">
        <ele>3.9</ele>
        <time>2022-05-31T15:16:43Z</time>
      </trkpt>
      <trkpt lat="49.2589" lon="-0.25013">
        <ele>3.9</ele>
        <time>2022-05-31T15:16:44Z</time>
      </trkpt>
      <trkpt lat="49.25891" lon="-0.25012">
        <ele>3.9</ele>
        <time>2022-05-31T15:16:45Z</time>
      </trkpt>
      <trkpt lat="49.25893" lon="-0.25011">
        <ele>3.9</ele>
        <time>2022-05-31T15:16:47Z</time>
      </trkpt>
      <trkpt lat="49.25893" lon="-0.2501">
        <ele>3.9</ele>
        <time>2022-05-31T15:16:48Z</time>
      </trkpt>
      <trkpt lat="49.25894" lon="-0.2501">
        <ele>3.9</ele>
        <time>2022-05-31T15:16:49Z</time>
      </trkpt>
      <trkpt lat="49.25895" lon="-0.25009">
        <ele>3.9</ele>
        <time>2022-05-31T15:16:50Z</time>
      </trkpt>
      <trkpt lat="49.25896" lon="-0.25009">
        <ele>3.9</ele>
        <time>2022-05-31T15:16:51Z</time>
      </trkpt>
      <trkpt lat="49.25896" lon="-0.25008">
        <ele>3.9</ele>
        <time>2022-05-31T15:16:52Z</time>
      </trkpt>
      <trkpt lat="49.25897" lon="-0.25006">
        <ele>3.9</ele>
        <time>2022-05-31T15:16:54Z</time>
      </trkpt>
      <trkpt lat="49.25897" lon="-0.25005">
        <ele>3.9</ele>
        <time>2022-05-31T15:16:55Z</time>
      </trkpt>
      <trkpt lat="49.25896" lon="-0.25004">
        <ele>3.9</ele>
        <time>2022-05-31T15:16:56Z</time>
      </trkpt>
      <trkpt lat="49.25895" lon="-0.25003">
        <ele>3.9</ele>
        <time>2022-05-31T15:16:57Z</time>
      </trkpt>
      <trkpt lat="49.25895" lon="-0.25003">
        <ele>3.9</ele>
        <time>2022-05-31T15:16:58Z</time>
      </trkpt>
      <trkpt lat="49.25895" lon="-0.25002">
        <ele>3.9</ele>
        <time>2022-05-31T15:16:59Z</time>
      </trkpt>
      <trkpt lat="49.25895" lon="-0.25003">
        <ele>3.9</ele>
        <time>2022-05-31T15:17:00Z</time>
      </trkpt>
      <trkpt lat="49.25895" lon="-0.25003">
        <ele>3.9</ele>
        <time>2022-05-31T15:17:01Z</time>
      </trkpt>
      <trkpt lat="49.25895" lon="-0.25003">
        <ele>3.9</ele>
        <time>2022-05-31T15:17:02Z</time>
      </trkpt>
      <trkpt lat="49.25894" lon="-0.25003">
        <ele>3.9</ele>
        <time>2022-05-31T15:17:03Z</time>
      </trkpt>
      <trkpt lat="49.25894" lon="-0.25003">
        <ele>3.9</ele>
        <time>2022-05-31T15:17:04Z</time>
      </trkpt>
      <trkpt lat="49.25894" lon="-0.25003">
        <ele>3.9</ele>
        <time>2022-05-31T15:17:05Z</time>
      </trkpt>
      <trkpt lat="49.25894" lon="-0.25003">
        <ele>3.9</ele>
        <time>2022-05-31T15:17:06Z</time>
      </trkpt>
      <trkpt lat="49.25894" lon="-0.25003">
        <ele>3.9</ele>
        <time>2022-05-31T15:17:07Z</time>
      </trkpt>
      <trkpt lat="49.25894" lon="-0.25004">
        <ele>3.9</ele>
        <time>2022-05-31T15:17:08Z</time>
      </trkpt>
      <trkpt lat="49.25894" lon="-0.25004">
        <ele>3.9</ele>
        <time>2022-05-31T15:17:09Z</time>
      </trkpt>
      <trkpt lat="49.25894" lon="-0.25004">
        <ele>3.9</ele>
        <time>2022-05-31T15:17:10Z</time>
      </trkpt>
      <trkpt lat="49.25894" lon="-0.25004">
        <ele>3.9</ele>
        <time>2022-05-31T15:17:11Z</time>
      </trkpt>
      <trkpt lat="49.25894" lon="-0.25004">
        <ele>3.9</ele>
        <time>2022-05-31T15:17:13Z</time>
      </trkpt>
      <trkpt lat="49.25894" lon="-0.25004">
        <ele>3.9</ele>
        <time>2022-05-31T15:17:14Z</time>
      </trkpt>
      <trkpt lat="49.25894" lon="-0.25004">
        <ele>3.9</ele>
        <time>2022-05-31T15:17:15Z</time>
      </trkpt>
      <trkpt lat="49.25894" lon="-0.25004">
        <ele>3.9</ele>
        <time>2022-05-31T15:17:16Z</time>
      </trkpt>
      <trkpt lat="49.25894" lon="-0.25004">
        <ele>3.9</ele>
        <time>2022-05-31T15:17:17Z</time>
      </trkpt>
      <trkpt lat="49.25894" lon="-0.25005">
        <ele>3.9</ele>
        <time>2022-05-31T15:17:18Z</time>
      </trkpt>
      <trkpt lat="49.25894" lon="-0.25005">
        <ele>3.9</ele>
        <time>2022-05-31T15:17:19Z</time>
      </trkpt>
      <trkpt lat="49.25894" lon="-0.25005">
        <ele>3.9</ele>
        <time>2022-05-31T15:17:20Z</time>
      </trkpt>
      <trkpt lat="49.25894" lon="-0.25005">
        <ele>3.9</ele>
        <time>2022-05-31T15:17:21Z</time>
      </trkpt>
      <trkpt lat="49.25894" lon="-0.25005">
        <ele>3.9</ele>
        <time>2022-05-31T15:17:22Z</time>
      </trkpt>
      <trkpt lat="49.25894" lon="-0.25005">
        <ele>3.9</ele>
        <time>2022-05-31T15:17:23Z</time>
      </trkpt>
      <trkpt lat="49.25894" lon="-0.25005">
        <ele>3.9</ele>
        <time>2022-05-31T15:17:24Z</time>
      </trkpt>
      <trkpt lat="49.25894" lon="-0.25005">
        <ele>3.9</ele>
        <time>2022-05-31T15:17:25Z</time>
      </trkpt>
      <trkpt lat="49.25894" lon="-0.25005">
        <ele>3.9</ele>
        <time>2022-05-31T15:17:26Z</time>
      </trkpt>
      <trkpt lat="49.25894" lon="-0.25006">
        <ele>3.9</ele>
        <time>2022-05-31T15:17:27Z</time>
      </trkpt>
      <trkpt lat="49.25893" lon="-0.25006">
        <ele>3.9</ele>
        <time>2022-05-31T15:17:28Z</time>
      </trkpt>
      <trkpt lat="49.25893" lon="-0.25006">
        <ele>3.9</ele>
        <time>2022-05-31T15:17:29Z</time>
      </trkpt>
      <trkpt lat="49.25893" lon="-0.25006">
        <ele>3.9</ele>
        <time>2022-05-31T15:17:30Z</time>
      </trkpt>
      <trkpt lat="49.25893" lon="-0.25006">
        <ele>3.9</ele>
        <time>2022-05-31T15:17:31Z</time>
      </trkpt>
      <trkpt lat="49.25893" lon="-0.25006">
        <ele>3.9</ele>
        <time>2022-05-31T15:17:32Z</time>
      </trkpt>
      <trkpt lat="49.25893" lon="-0.25006">
        <ele>3.9</ele>
        <time>2022-05-31T15:17:33Z</time>
      </trkpt>
      <trkpt lat="49.25893" lon="-0.25006">
        <ele>3.9</ele>
        <time>2022-05-31T15:17:34Z</time>
      </trkpt>
      <trkpt lat="49.25893" lon="-0.25006">
        <ele>3.9</ele>
        <time>2022-05-31T15:17:35Z</time>
      </trkpt>
      <trkpt lat="49.25893" lon="-0.25007">
        <ele>3.9</ele>
        <time>2022-05-31T15:17:36Z</time>
      </trkpt>
      <trkpt lat="49.25893" lon="-0.25007">
        <ele>3.9</ele>
        <time>2022-05-31T15:17:37Z</time>
      </trkpt>
      <trkpt lat="49.25893" lon="-0.25007">
        <ele>3.9</ele>
        <time>2022-05-31T15:17:38Z</time>
      </trkpt>
      <trkpt lat="49.25893" lon="-0.25007">
        <ele>3.9</ele>
        <time>2022-05-31T15:17:39Z</time>
      </trkpt>
      <trkpt lat="49.25893" lon="-0.25007">
        <ele>3.9</ele>
        <time>2022-05-31T15:17:40Z</time>
      </trkpt>
      <trkpt lat="49.25893" lon="-0.25007">
        <ele>3.9</ele>
        <time>2022-05-31T15:17:41Z</time>
      </trkpt>
      <trkpt lat="49.25893" lon="-0.25007">
        <ele>3.9</ele>
        <time>2022-05-31T15:17:42Z</time>
      </trkpt>
      <trkpt lat="49.25893" lon="-0.25007">
        <ele>3.9</ele>
        <time>2022-05-31T15:17:43Z</time>
      </trkpt>
      <trkpt lat="49.25893" lon="-0.25007">
        <ele>3.9</ele>
        <time>2022-05-31T15:17:44Z</time>
      </trkpt>
      <trkpt lat="49.25893" lon="-0.25008">
        <ele>3.9</ele>
        <time>2022-05-31T15:17:45Z</time>
      </trkpt>
      <trkpt lat="49.25893" lon="-0.25008">
        <ele>3.9</ele>
        <time>2022-05-31T15:17:46Z</time>
      </trkpt>
      <trkpt lat="49.25893" lon="-0.25008">
        <ele>3.9</ele>
        <time>2022-05-31T15:17:47Z</time>
      </trkpt>
      <trkpt lat="49.25893" lon="-0.25008">
        <ele>3.9</ele>
        <time>2022-05-31T15:17:48Z</time>
      </trkpt>
      <trkpt lat="49.25893" lon="-0.25008">
        <ele>3.9</ele>
        <time>2022-05-31T15:17:49Z</time>
      </trkpt>
      <trkpt lat="49.25893" lon="-0.25008">
        <ele>3.9</ele>
        <time>2022-05-31T15:17:50Z</time>
      </trkpt>
      <trkpt lat="49.25893" lon="-0.25008">
        <ele>3.9</ele>
        <time>2022-05-31T15:17:51Z</time>
      </trkpt>
      <trkpt lat="49.25892" lon="-0.25008">
        <ele>3.9</ele>
        <time>2022-05-31T15:17:52Z</time>
      </trkpt>
      <trkpt lat="49.25892" lon="-0.25009">
        <ele>3.9</ele>
        <time>2022-05-31T15:17:53Z</time>
      </trkpt>
      <trkpt lat="49.25892" lon="-0.25009">
        <ele>3.9</ele>
        <time>2022-05-31T15:17:54Z</time>
      </trkpt>
      <trkpt lat="49.25893" lon="-0.25009">
        <ele>3.9</ele>
        <time>2022-05-31T15:17:55Z</time>
      </trkpt>
      <trkpt lat="49.25894" lon="-0.25008">
        <ele>3.9</ele>
        <time>2022-05-31T15:17:56Z</time>
      </trkpt>
      <trkpt lat="49.25894" lon="-0.25007">
        <ele>3.9</ele>
        <time>2022-05-31T15:17:57Z</time>
      </trkpt>
      <trkpt lat="49.25894" lon="-0.25006">
        <ele>3.9</ele>
        <time>2022-05-31T15:17:58Z</time>
      </trkpt>
      <trkpt lat="49.25895" lon="-0.25005">
        <ele>3.9</ele>
        <time>2022-05-31T15:17:59Z</time>
      </trkpt>
      <trkpt lat="49.25894" lon="-0.25005">
        <ele>3.9</ele>
        <time>2022-05-31T15:18:00Z</time>
      </trkpt>
      <trkpt lat="49.25894" lon="-0.25006">
        <ele>3.9</ele>
        <time>2022-05-31T15:18:01Z</time>
      </trkpt>
      <trkpt lat="49.25893" lon="-0.25005">
        <ele>3.9</ele>
        <time>2022-05-31T15:18:02Z</time>
      </trkpt>
      <trkpt lat="49.25892" lon="-0.25004">
        <ele>3.9</ele>
        <time>2022-05-31T15:18:03Z</time>
      </trkpt>
      <trkpt lat="49.25892" lon="-0.25004">
        <ele>3.9</ele>
        <time>2022-05-31T15:18:04Z</time>
      </trkpt>
      <trkpt lat="49.25892" lon="-0.25004">
        <ele>3.9</ele>
        <time>2022-05-31T15:18:05Z</time>
      </trkpt>
      <trkpt lat="49.25891" lon="-0.25004">
        <ele>3.9</ele>
        <time>2022-05-31T15:18:06Z</time>
      </trkpt>
      <trkpt lat="49.25891" lon="-0.25005">
        <ele>3.9</ele>
        <time>2022-05-31T15:18:07Z</time>
      </trkpt>
      <trkpt lat="49.25891" lon="-0.25005">
        <ele>3.9</ele>
        <time>2022-05-31T15:18:08Z</time>
      </trkpt>
      <trkpt lat="49.25891" lon="-0.25005">
        <ele>3.9</ele>
        <time>2022-05-31T15:18:09Z</time>
      </trkpt>
      <trkpt lat="49.25891" lon="-0.25006">
        <ele>3.9</ele>
        <time>2022-05-31T15:18:10Z</time>
      </trkpt>
      <trkpt lat="49.25891" lon="-0.25006">
        <ele>3.9</ele>
        <time>2022-05-31T15:18:11Z</time>
      </trkpt>
      <trkpt lat="49.25891" lon="-0.25006">
        <ele>3.9</ele>
        <time>2022-05-31T15:18:12Z</time>
      </trkpt>
      <trkpt lat="49.25891" lon="-0.25006">
        <ele>3.9</ele>
        <time>2022-05-31T15:18:13Z</time>
      </trkpt>
      <trkpt lat="49.25891" lon="-0.25006">
        <ele>3.9</ele>
        <time>2022-05-31T15:18:14Z</time>
      </trkpt>
      <trkpt lat="49.25891" lon="-0.25006">
        <ele>3.9</ele>
        <time>2022-05-31T15:18:15Z</time>
      </trkpt>
      <trkpt lat="49.25891" lon="-0.25007">
        <ele>3.9</ele>
        <time>2022-05-31T15:18:16Z</time>
      </trkpt>
      <trkpt lat="49.25892" lon="-0.25008">
        <ele>3.9</ele>
        <time>2022-05-31T15:18:17Z</time>
      </trkpt>
      <trkpt lat="49.25892" lon="-0.25008">
        <ele>3.9</ele>
        <time>2022-05-31T15:18:18Z</time>
      </trkpt>
      <trkpt lat="49.25893" lon="-0.25008">
        <ele>3.9</ele>
        <time>2022-05-31T15:18:19Z</time>
      </trkpt>
      <trkpt lat="49.25893" lon="-0.25008">
        <ele>3.9</ele>
        <time>2022-05-31T15:18:20Z</time>
      </trkpt>
      <trkpt lat="49.25894" lon="-0.25007">
        <ele>3.9</ele>
        <time>2022-05-31T15:18:21Z</time>
      </trkpt>
      <trkpt lat="49.25894" lon="-0.25007">
        <ele>3.9</ele>
        <time>2022-05-31T15:18:22Z</time>
      </trkpt>
      <trkpt lat="49.25894" lon="-0.25007">
        <ele>3.9</ele>
        <time>2022-05-31T15:18:23Z</time>
      </trkpt>
      <trkpt lat="49.25894" lon="-0.25006">
        <ele>3.9</ele>
        <time>2022-05-31T15:18:24Z</time>
      </trkpt>
      <trkpt lat="49.25894" lon="-0.25007">
        <ele>3.9</ele>
        <time>2022-05-31T15:18:25Z</time>
      </trkpt>
      <trkpt lat="49.25894" lon="-0.25006">
        <ele>3.9</ele>
        <time>2022-05-31T15:18:26Z</time>
      </trkpt>
      <trkpt lat="49.25895" lon="-0.25006">
        <ele>3.9</ele>
        <time>2022-05-31T15:18:27Z</time>
      </trkpt>
      <trkpt lat="49.25896" lon="-0.25005">
        <ele>3.9</ele>
        <time>2022-05-31T15:18:28Z</time>
      </trkpt>
      <trkpt lat="49.25898" lon="-0.25004">
        <ele>3.9</ele>
        <time>2022-05-31T15:18:29Z</time>
      </trkpt>
      <trkpt lat="49.259" lon="-0.25003">
        <ele>3.9</ele>
        <time>2022-05-31T15:18:30Z</time>
      </trkpt>
      <trkpt lat="49.259" lon="-0.25002">
        <ele>3.9</ele>
        <time>2022-05-31T15:18:31Z</time>
      </trkpt>
      <trkpt lat="49.25901" lon="-0.25002">
        <ele>3.9</ele>
        <time>2022-05-31T15:18:32Z</time>
      </trkpt>
      <trkpt lat="49.25901" lon="-0.25002">
        <ele>3.9</ele>
        <time>2022-05-31T15:18:33Z</time>
      </trkpt>
      <trkpt lat="49.25903" lon="-0.25001">
        <ele>3.9</ele>
        <time>2022-05-31T15:18:34Z</time>
      </trkpt>
      <trkpt lat="49.25904" lon="-0.25">
        <ele>3.9</ele>
        <time>2022-05-31T15:18:35Z</time>
      </trkpt>
      <trkpt lat="49.25906" lon="-0.24999">
        <ele>3.9</ele>
        <time>2022-05-31T15:18:37Z</time>
      </trkpt>
      <trkpt lat="49.25906" lon="-0.24998">
        <ele>3.9</ele>
        <time>2022-05-31T15:18:38Z</time>
      </trkpt>
      <trkpt lat="49.25907" lon="-0.24998">
        <ele>3.9</ele>
        <time>2022-05-31T15:18:39Z</time>
      </trkpt>
      <trkpt lat="49.25907" lon="-0.24997">
        <ele>3.9</ele>
        <time>2022-05-31T15:18:40Z</time>
      </trkpt>
      <trkpt lat="49.25907" lon="-0.24997">
        <ele>3.9</ele>
        <time>2022-05-31T15:18:41Z</time>
      </trkpt>
      <trkpt lat="49.25907" lon="-0.24997">
        <ele>3.9</ele>
        <time>2022-05-31T15:18:42Z</time>
      </trkpt>
      <trkpt lat="49.25907" lon="-0.24997">
        <ele>3.9</ele>
        <time>2022-05-31T15:18:43Z</time>
      </trkpt>
      <trkpt lat="49.25907" lon="-0.24997">
        <ele>3.9</ele>
        <time>2022-05-31T15:18:44Z</time>
      </trkpt>
      <trkpt lat="49.25907" lon="-0.24997">
        <ele>3.9</ele>
        <time>2022-05-31T15:18:46Z</time>
      </trkpt>
      <trkpt lat="49.25907" lon="-0.24996">
        <ele>3.9</ele>
        <time>2022-05-31T15:18:47Z</time>
      </trkpt>
      <trkpt lat="49.25907" lon="-0.24996">
        <ele>3.9</ele>
        <time>2022-05-31T15:18:48Z</time>
      </trkpt>
      <trkpt lat="49.25907" lon="-0.24996">
        <ele>3.9</ele>
        <time>2022-05-31T15:18:49Z</time>
      </trkpt>
      <trkpt lat="49.25907" lon="-0.24996">
        <ele>3.9</ele>
        <time>2022-05-31T15:18:50Z</time>
      </trkpt>
      <trkpt lat="49.25908" lon="-0.24996">
        <ele>3.9</ele>
        <time>2022-05-31T15:18:52Z</time>
      </trkpt>
      <trkpt lat="49.25908" lon="-0.24996">
        <ele>3.9</ele>
        <time>2022-05-31T15:18:53Z</time>
      </trkpt>
      <trkpt lat="49.25909" lon="-0.24996">
        <ele>3.9</ele>
        <time>2022-05-31T15:18:54Z</time>
      </trkpt>
      <trkpt lat="49.25909" lon="-0.24996">
        <ele>3.9</ele>
        <time>2022-05-31T15:18:55Z</time>
      </trkpt>
      <trkpt lat="49.2591" lon="-0.24996">
        <ele>3.9</ele>
        <time>2022-05-31T15:18:56Z</time>
      </trkpt>
      <trkpt lat="49.25911" lon="-0.24996">
        <ele>3.9</ele>
        <time>2022-05-31T15:18:57Z</time>
      </trkpt>
      <trkpt lat="49.25912" lon="-0.24996">
        <ele>3.9</ele>
        <time>2022-05-31T15:18:59Z</time>
      </trkpt>
      <trkpt lat="49.25912" lon="-0.24996">
        <ele>3.9</ele>
        <time>2022-05-31T15:19:00Z</time>
      </trkpt>
      <trkpt lat="49.25913" lon="-0.24995">
        <ele>3.9</ele>
        <time>2022-05-31T15:19:01Z</time>
      </trkpt>
      <trkpt lat="49.25914" lon="-0.24994">
        <ele>3.9</ele>
        <time>2022-05-31T15:19:02Z</time>
      </trkpt>
      <trkpt lat="49.25914" lon="-0.24994">
        <ele>4</ele>
        <time>2022-05-31T15:19:03Z</time>
      </trkpt>
      <trkpt lat="49.25915" lon="-0.24993">
        <ele>4</ele>
        <time>2022-05-31T15:19:04Z</time>
      </trkpt>
      <trkpt lat="49.25915" lon="-0.24992">
        <ele>4</ele>
        <time>2022-05-31T15:19:05Z</time>
      </trkpt>
      <trkpt lat="49.25915" lon="-0.24991">
        <ele>4</ele>
        <time>2022-05-31T15:19:06Z</time>
      </trkpt>
      <trkpt lat="49.25915" lon="-0.24991">
        <ele>4</ele>
        <time>2022-05-31T15:19:08Z</time>
      </trkpt>
      <trkpt lat="49.25914" lon="-0.24991">
        <ele>4</ele>
        <time>2022-05-31T15:19:09Z</time>
      </trkpt>
      <trkpt lat="49.25914" lon="-0.24991">
        <ele>4</ele>
        <time>2022-05-31T15:19:10Z</time>
      </trkpt>
      <trkpt lat="49.25914" lon="-0.24991">
        <ele>4</ele>
        <time>2022-05-31T15:19:13Z</time>
      </trkpt>
      <trkpt lat="49.25914" lon="-0.24991">
        <ele>4</ele>
        <time>2022-05-31T15:19:14Z</time>
      </trkpt>
      <trkpt lat="49.25914" lon="-0.24991">
        <ele>4</ele>
        <time>2022-05-31T15:19:15Z</time>
      </trkpt>
      <trkpt lat="49.25914" lon="-0.24991">
        <ele>4</ele>
        <time>2022-05-31T15:19:16Z</time>
      </trkpt>
      <trkpt lat="49.25914" lon="-0.2499">
        <ele>4</ele>
        <time>2022-05-31T15:19:17Z</time>
      </trkpt>
      <trkpt lat="49.25914" lon="-0.2499">
        <ele>4</ele>
        <time>2022-05-31T15:19:18Z</time>
      </trkpt>
      <trkpt lat="49.25914" lon="-0.2499">
        <ele>4</ele>
        <time>2022-05-31T15:19:19Z</time>
      </trkpt>
      <trkpt lat="49.25914" lon="-0.2499">
        <ele>4</ele>
        <time>2022-05-31T15:19:20Z</time>
      </trkpt>
      <trkpt lat="49.25914" lon="-0.2499">
        <ele>4</ele>
        <time>2022-05-31T15:19:21Z</time>
      </trkpt>
      <trkpt lat="49.25914" lon="-0.2499">
        <ele>4</ele>
        <time>2022-05-31T15:19:22Z</time>
      </trkpt>
      <trkpt lat="49.25914" lon="-0.2499">
        <ele>4</ele>
        <time>2022-05-31T15:19:23Z</time>
      </trkpt>
      <trkpt lat="49.25914" lon="-0.24991">
        <ele>4</ele>
        <time>2022-05-31T15:19:24Z</time>
      </trkpt>
      <trkpt lat="49.25914" lon="-0.24991">
        <ele>4</ele>
        <time>2022-05-31T15:19:25Z</time>
      </trkpt>
      <trkpt lat="49.25914" lon="-0.24991">
        <ele>4</ele>
        <time>2022-05-31T15:19:26Z</time>
      </trkpt>
      <trkpt lat="49.25914" lon="-0.24991">
        <ele>4</ele>
        <time>2022-05-31T15:19:27Z</time>
      </trkpt>
      <trkpt lat="49.25914" lon="-0.24991">
        <ele>4</ele>
        <time>2022-05-31T15:19:28Z</time>
      </trkpt>
      <trkpt lat="49.25914" lon="-0.24991">
        <ele>4</ele>
        <time>2022-05-31T15:19:29Z</time>
      </trkpt>
      <trkpt lat="49.25914" lon="-0.24991">
        <ele>4</ele>
        <time>2022-05-31T15:19:30Z</time>
      </trkpt>
      <trkpt lat="49.25914" lon="-0.24991">
        <ele>4</ele>
        <time>2022-05-31T15:19:31Z</time>
      </trkpt>
      <trkpt lat="49.25915" lon="-0.24991">
        <ele>4</ele>
        <time>2022-05-31T15:19:32Z</time>
      </trkpt>
      <trkpt lat="49.25915" lon="-0.24991">
        <ele>4</ele>
        <time>2022-05-31T15:19:33Z</time>
      </trkpt>
      <trkpt lat="49.25915" lon="-0.24991">
        <ele>4</ele>
        <time>2022-05-31T15:19:34Z</time>
      </trkpt>
      <trkpt lat="49.25915" lon="-0.24991">
        <ele>4</ele>
        <time>2022-05-31T15:19:35Z</time>
      </trkpt>
      <trkpt lat="49.25915" lon="-0.24991">
        <ele>4</ele>
        <time>2022-05-31T15:19:36Z</time>
      </trkpt>
      <trkpt lat="49.25915" lon="-0.24991">
        <ele>4</ele>
        <time>2022-05-31T15:19:37Z</time>
      </trkpt>
      <trkpt lat="49.25915" lon="-0.24991">
        <ele>4</ele>
        <time>2022-05-31T15:19:38Z</time>
      </trkpt>
      <trkpt lat="49.25915" lon="-0.2499">
        <ele>4</ele>
        <time>2022-05-31T15:19:39Z</time>
      </trkpt>
      <trkpt lat="49.25915" lon="-0.2499">
        <ele>4</ele>
        <time>2022-05-31T15:19:40Z</time>
      </trkpt>
      <trkpt lat="49.25915" lon="-0.2499">
        <ele>4</ele>
        <time>2022-05-31T15:19:41Z</time>
      </trkpt>
      <trkpt lat="49.25915" lon="-0.2499">
        <ele>4</ele>
        <time>2022-05-31T15:19:42Z</time>
      </trkpt>
      <trkpt lat="49.25915" lon="-0.2499">
        <ele>4</ele>
        <time>2022-05-31T15:19:43Z</time>
      </trkpt>
      <trkpt lat="49.25915" lon="-0.2499">
        <ele>4</ele>
        <time>2022-05-31T15:19:44Z</time>
      </trkpt>
      <trkpt lat="49.25915" lon="-0.2499">
        <ele>4</ele>
        <time>2022-05-31T15:19:45Z</time>
      </trkpt>
      <trkpt lat="49.25915" lon="-0.2499">
        <ele>4</ele>
        <time>2022-05-31T15:19:46Z</time>
      </trkpt>
      <trkpt lat="49.25915" lon="-0.24991">
        <ele>4</ele>
        <time>2022-05-31T15:19:47Z</time>
      </trkpt>
      <trkpt lat="49.25915" lon="-0.24991">
        <ele>4</ele>
        <time>2022-05-31T15:19:48Z</time>
      </trkpt>
      <trkpt lat="49.25915" lon="-0.24991">
        <ele>4</ele>
        <time>2022-05-31T15:19:49Z</time>
      </trkpt>
      <trkpt lat="49.25915" lon="-0.24991">
        <ele>4</ele>
        <time>2022-05-31T15:19:50Z</time>
      </trkpt>
      <trkpt lat="49.25915" lon="-0.24991">
        <ele>4</ele>
        <time>2022-05-31T15:19:51Z</time>
      </trkpt>
      <trkpt lat="49.25915" lon="-0.24991">
        <ele>4</ele>
        <time>2022-05-31T15:19:52Z</time>
      </trkpt>
      <trkpt lat="49.25915" lon="-0.24991">
        <ele>4</ele>
        <time>2022-05-31T15:19:53Z</time>
      </trkpt>
      <trkpt lat="49.25915" lon="-0.24991">
        <ele>4</ele>
        <time>2022-05-31T15:19:54Z</time>
      </trkpt>
      <trkpt lat="49.25915" lon="-0.24991">
        <ele>4</ele>
        <time>2022-05-31T15:19:55Z</time>
      </trkpt>
      <trkpt lat="49.25915" lon="-0.24991">
        <ele>4</ele>
        <time>2022-05-31T15:19:56Z</time>
      </trkpt>
      <trkpt lat="49.25915" lon="-0.24991">
        <ele>4</ele>
        <time>2022-05-31T15:19:57Z</time>
      </trkpt>
      <trkpt lat="49.25915" lon="-0.24991">
        <ele>4</ele>
        <time>2022-05-31T15:19:58Z</time>
      </trkpt>
      <trkpt lat="49.25915" lon="-0.24991">
        <ele>4</ele>
        <time>2022-05-31T15:19:59Z</time>
      </trkpt>
      <trkpt lat="49.25915" lon="-0.24991">
        <ele>4</ele>
        <time>2022-05-31T15:20:00Z</time>
      </trkpt>
      <trkpt lat="49.25915" lon="-0.24991">
        <ele>4</ele>
        <time>2022-05-31T15:20:01Z</time>
      </trkpt>
      <trkpt lat="49.25915" lon="-0.24991">
        <ele>4</ele>
        <time>2022-05-31T15:20:02Z</time>
      </trkpt>
      <trkpt lat="49.25915" lon="-0.24991">
        <ele>4</ele>
        <time>2022-05-31T15:20:03Z</time>
      </trkpt>
      <trkpt lat="49.25915" lon="-0.24991">
        <ele>4</ele>
        <time>2022-05-31T15:20:04Z</time>
      </trkpt>
      <trkpt lat="49.25915" lon="-0.24991">
        <ele>4</ele>
        <time>2022-05-31T15:20:05Z</time>
      </trkpt>
      <trkpt lat="49.25915" lon="-0.24991">
        <ele>4</ele>
        <time>2022-05-31T15:20:06Z</time>
      </trkpt>
      <trkpt lat="49.25915" lon="-0.24991">
        <ele>4</ele>
        <time>2022-05-31T15:20:07Z</time>
      </trkpt>
      <trkpt lat="49.25915" lon="-0.24991">
        <ele>4</ele>
        <time>2022-05-31T15:20:08Z</time>
      </trkpt>
      <trkpt lat="49.25915" lon="-0.24991">
        <ele>4</ele>
        <time>2022-05-31T15:20:09Z</time>
      </trkpt>
      <trkpt lat="49.25915" lon="-0.24991">
        <ele>4</ele>
        <time>2022-05-31T15:20:10Z</time>
      </trkpt>
      <trkpt lat="49.25915" lon="-0.24991">
        <ele>4</ele>
        <time>2022-05-31T15:20:11Z</time>
      </trkpt>
      <trkpt lat="49.25915" lon="-0.24989">
        <ele>4</ele>
        <time>2022-05-31T15:20:12Z</time>
      </trkpt>
      <trkpt lat="49.25916" lon="-0.24989">
        <ele>4</ele>
        <time>2022-05-31T15:20:13Z</time>
      </trkpt>
      <trkpt lat="49.25917" lon="-0.24988">
        <ele>4</ele>
        <time>2022-05-31T15:20:14Z</time>
      </trkpt>
      <trkpt lat="49.25918" lon="-0.24988">
        <ele>4</ele>
        <time>2022-05-31T15:20:15Z</time>
      </trkpt>
      <trkpt lat="49.25918" lon="-0.24988">
        <ele>4</ele>
        <time>2022-05-31T15:20:16Z</time>
      </trkpt>
      <trkpt lat="49.2592" lon="-0.24986">
        <ele>4</ele>
        <time>2022-05-31T15:20:17Z</time>
      </trkpt>
      <trkpt lat="49.2592" lon="-0.24986">
        <ele>4</ele>
        <time>2022-05-31T15:20:19Z</time>
      </trkpt>
      <trkpt lat="49.25921" lon="-0.24985">
        <ele>4</ele>
        <time>2022-05-31T15:20:20Z</time>
      </trkpt>
      <trkpt lat="49.25922" lon="-0.24984">
        <ele>4</ele>
        <time>2022-05-31T15:20:21Z</time>
      </trkpt>
      <trkpt lat="49.25924" lon="-0.24983">
        <ele>4</ele>
        <time>2022-05-31T15:20:22Z</time>
      </trkpt>
      <trkpt lat="49.25925" lon="-0.24982">
        <ele>4</ele>
        <time>2022-05-31T15:20:23Z</time>
      </trkpt>
      <trkpt lat="49.25927" lon="-0.24981">
        <ele>4</ele>
        <time>2022-05-31T15:20:24Z</time>
      </trkpt>
      <trkpt lat="49.25928" lon="-0.2498">
        <ele>4</ele>
        <time>2022-05-31T15:20:26Z</time>
      </trkpt>
      <trkpt lat="49.2593" lon="-0.24978">
        <ele>4</ele>
        <time>2022-05-31T15:20:27Z</time>
      </trkpt>
      <trkpt lat="49.25931" lon="-0.24977">
        <ele>4</ele>
        <time>2022-05-31T15:20:28Z</time>
      </trkpt>
      <trkpt lat="49.25932" lon="-0.24976">
        <ele>4</ele>
        <time>2022-05-31T15:20:29Z</time>
      </trkpt>
      <trkpt lat="49.25934" lon="-0.24975">
        <ele>4</ele>
        <time>2022-05-31T15:20:30Z</time>
      </trkpt>
      <trkpt lat="49.25935" lon="-0.24974">
        <ele>4</ele>
        <time>2022-05-31T15:20:32Z</time>
      </trkpt>
      <trkpt lat="49.25936" lon="-0.24973">
        <ele>4</ele>
        <time>2022-05-31T15:20:33Z</time>
      </trkpt>
      <trkpt lat="49.25934" lon="-0.24973">
        <ele>4</ele>
        <time>2022-05-31T15:20:34Z</time>
      </trkpt>
      <trkpt lat="49.25934" lon="-0.24973">
        <ele>4</ele>
        <time>2022-05-31T15:20:35Z</time>
      </trkpt>
      <trkpt lat="49.25934" lon="-0.24973">
        <ele>4</ele>
        <time>2022-05-31T15:20:36Z</time>
      </trkpt>
      <trkpt lat="49.25934" lon="-0.24973">
        <ele>4</ele>
        <time>2022-05-31T15:20:37Z</time>
      </trkpt>
      <trkpt lat="49.25934" lon="-0.24973">
        <ele>4</ele>
        <time>2022-05-31T15:20:38Z</time>
      </trkpt>
      <trkpt lat="49.25934" lon="-0.24973">
        <ele>4</ele>
        <time>2022-05-31T15:20:39Z</time>
      </trkpt>
      <trkpt lat="49.25934" lon="-0.24973">
        <ele>4</ele>
        <time>2022-05-31T15:20:40Z</time>
      </trkpt>
      <trkpt lat="49.25934" lon="-0.24973">
        <ele>4</ele>
        <time>2022-05-31T15:20:41Z</time>
      </trkpt>
      <trkpt lat="49.25934" lon="-0.24973">
        <ele>4</ele>
        <time>2022-05-31T15:20:42Z</time>
      </trkpt>
      <trkpt lat="49.25933" lon="-0.24974">
        <ele>4</ele>
        <time>2022-05-31T15:20:43Z</time>
      </trkpt>
      <trkpt lat="49.25934" lon="-0.24974">
        <ele>4</ele>
        <time>2022-05-31T15:20:44Z</time>
      </trkpt>
      <trkpt lat="49.25934" lon="-0.24974">
        <ele>4</ele>
        <time>2022-05-31T15:20:45Z</time>
      </trkpt>
      <trkpt lat="49.25935" lon="-0.24973">
        <ele>4</ele>
        <time>2022-05-31T15:20:47Z</time>
      </trkpt>
      <trkpt lat="49.25936" lon="-0.24972">
        <ele>4</ele>
        <time>2022-05-31T15:20:48Z</time>
      </trkpt>
      <trkpt lat="49.25939" lon="-0.24971">
        <ele>4</ele>
        <time>2022-05-31T15:20:50Z</time>
      </trkpt>
      <trkpt lat="49.2594" lon="-0.2497">
        <ele>4</ele>
        <time>2022-05-31T15:20:51Z</time>
      </trkpt>
      <trkpt lat="49.25941" lon="-0.24969">
        <ele>4</ele>
        <time>2022-05-31T15:20:52Z</time>
      </trkpt>
      <trkpt lat="49.25943" lon="-0.24968">
        <ele>4</ele>
        <time>2022-05-31T15:20:53Z</time>
      </trkpt>
      <trkpt lat="49.25944" lon="-0.24967">
        <ele>4</ele>
        <time>2022-05-31T15:20:54Z</time>
      </trkpt>
      <trkpt lat="49.25945" lon="-0.24966">
        <ele>4</ele>
        <time>2022-05-31T15:20:55Z</time>
      </trkpt>
      <trkpt lat="49.25946" lon="-0.24965">
        <ele>4</ele>
        <time>2022-05-31T15:20:56Z</time>
      </trkpt>
      <trkpt lat="49.25947" lon="-0.24964">
        <ele>4</ele>
        <time>2022-05-31T15:20:57Z</time>
      </trkpt>
      <trkpt lat="49.25948" lon="-0.24963">
        <ele>4</ele>
        <time>2022-05-31T15:20:59Z</time>
      </trkpt>
      <trkpt lat="49.25949" lon="-0.24963">
        <ele>4</ele>
        <time>2022-05-31T15:21:00Z</time>
      </trkpt>
      <trkpt lat="49.2595" lon="-0.24962">
        <ele>4</ele>
        <time>2022-05-31T15:21:01Z</time>
      </trkpt>
      <trkpt lat="49.25951" lon="-0.24961">
        <ele>4</ele>
        <time>2022-05-31T15:21:02Z</time>
      </trkpt>
      <trkpt lat="49.25952" lon="-0.2496">
        <ele>4</ele>
        <time>2022-05-31T15:21:03Z</time>
      </trkpt>
      <trkpt lat="49.25953" lon="-0.24959">
        <ele>4</ele>
        <time>2022-05-31T15:21:04Z</time>
      </trkpt>
      <trkpt lat="49.25954" lon="-0.24958">
        <ele>4</ele>
        <time>2022-05-31T15:21:06Z</time>
      </trkpt>
      <trkpt lat="49.25955" lon="-0.24957">
        <ele>4</ele>
        <time>2022-05-31T15:21:07Z</time>
      </trkpt>
      <trkpt lat="49.25957" lon="-0.24957">
        <ele>4</ele>
        <time>2022-05-31T15:21:08Z</time>
      </trkpt>
      <trkpt lat="49.25959" lon="-0.24955">
        <ele>4</ele>
        <time>2022-05-31T15:21:10Z</time>
      </trkpt>
      <trkpt lat="49.25962" lon="-0.24954">
        <ele>4</ele>
        <time>2022-05-31T15:21:11Z</time>
      </trkpt>
      <trkpt lat="49.25963" lon="-0.24953">
        <ele>4</ele>
        <time>2022-05-31T15:21:12Z</time>
      </trkpt>
      <trkpt lat="49.25966" lon="-0.24951">
        <ele>4</ele>
        <time>2022-05-31T15:21:13Z</time>
      </trkpt>
      <trkpt lat="49.25967" lon="-0.24951">
        <ele>4</ele>
        <time>2022-05-31T15:21:14Z</time>
      </trkpt>
      <trkpt lat="49.2597" lon="-0.24949">
        <ele>4</ele>
        <time>2022-05-31T15:21:15Z</time>
      </trkpt>
      <trkpt lat="49.25971" lon="-0.24948">
        <ele>4</ele>
        <time>2022-05-31T15:21:16Z</time>
      </trkpt>
      <trkpt lat="49.25973" lon="-0.24946">
        <ele>4</ele>
        <time>2022-05-31T15:21:17Z</time>
      </trkpt>
      <trkpt lat="49.25974" lon="-0.24945">
        <ele>4</ele>
        <time>2022-05-31T15:21:18Z</time>
      </trkpt>
      <trkpt lat="49.25977" lon="-0.24943">
        <ele>4</ele>
        <time>2022-05-31T15:21:20Z</time>
      </trkpt>
      <trkpt lat="49.25978" lon="-0.24943">
        <ele>4</ele>
        <time>2022-05-31T15:21:21Z</time>
      </trkpt>
      <trkpt lat="49.25979" lon="-0.24942">
        <ele>4</ele>
        <time>2022-05-31T15:21:22Z</time>
      </trkpt>
      <trkpt lat="49.2598" lon="-0.24941">
        <ele>4</ele>
        <time>2022-05-31T15:21:23Z</time>
      </trkpt>
      <trkpt lat="49.25983" lon="-0.2494">
        <ele>4</ele>
        <time>2022-05-31T15:21:24Z</time>
      </trkpt>
      <trkpt lat="49.25984" lon="-0.2494">
        <ele>4</ele>
        <time>2022-05-31T15:21:25Z</time>
      </trkpt>
      <trkpt lat="49.25985" lon="-0.24939">
        <ele>4</ele>
        <time>2022-05-31T15:21:26Z</time>
      </trkpt>
      <trkpt lat="49.25986" lon="-0.24938">
        <ele>4</ele>
        <time>2022-05-31T15:21:27Z</time>
      </trkpt>
      <trkpt lat="49.25987" lon="-0.24938">
        <ele>4</ele>
        <time>2022-05-31T15:21:29Z</time>
      </trkpt>
      <trkpt lat="49.25988" lon="-0.24937">
        <ele>4</ele>
        <time>2022-05-31T15:21:30Z</time>
      </trkpt>
      <trkpt lat="49.25988" lon="-0.24937">
        <ele>4</ele>
        <time>2022-05-31T15:21:31Z</time>
      </trkpt>
      <trkpt lat="49.25989" lon="-0.24936">
        <ele>4</ele>
        <time>2022-05-31T15:21:32Z</time>
      </trkpt>
      <trkpt lat="49.25989" lon="-0.24934">
        <ele>4</ele>
        <time>2022-05-31T15:21:33Z</time>
      </trkpt>
      <trkpt lat="49.2599" lon="-0.24933">
        <ele>4</ele>
        <time>2022-05-31T15:21:34Z</time>
      </trkpt>
      <trkpt lat="49.25991" lon="-0.24932">
        <ele>4</ele>
        <time>2022-05-31T15:21:35Z</time>
      </trkpt>
      <trkpt lat="49.25992" lon="-0.24931">
        <ele>4</ele>
        <time>2022-05-31T15:21:36Z</time>
      </trkpt>
      <trkpt lat="49.25993" lon="-0.2493">
        <ele>4</ele>
        <time>2022-05-31T15:21:37Z</time>
      </trkpt>
      <trkpt lat="49.25994" lon="-0.24929">
        <ele>4</ele>
        <time>2022-05-31T15:21:39Z</time>
      </trkpt>
      <trkpt lat="49.25996" lon="-0.24928">
        <ele>4</ele>
        <time>2022-05-31T15:21:40Z</time>
      </trkpt>
      <trkpt lat="49.25997" lon="-0.24927">
        <ele>4</ele>
        <time>2022-05-31T15:21:41Z</time>
      </trkpt>
      <trkpt lat="49.25998" lon="-0.24926">
        <ele>4</ele>
        <time>2022-05-31T15:21:42Z</time>
      </trkpt>
      <trkpt lat="49.25999" lon="-0.24925">
        <ele>4</ele>
        <time>2022-05-31T15:21:43Z</time>
      </trkpt>
      <trkpt lat="49.26" lon="-0.24924">
        <ele>4</ele>
        <time>2022-05-31T15:21:44Z</time>
      </trkpt>
      <trkpt lat="49.26001" lon="-0.24924">
        <ele>4</ele>
        <time>2022-05-31T15:21:45Z</time>
      </trkpt>
      <trkpt lat="49.26002" lon="-0.24923">
        <ele>4</ele>
        <time>2022-05-31T15:21:46Z</time>
      </trkpt>
      <trkpt lat="49.26003" lon="-0.24922">
        <ele>4</ele>
        <time>2022-05-31T15:21:47Z</time>
      </trkpt>
      <trkpt lat="49.26004" lon="-0.24921">
        <ele>4</ele>
        <time>2022-05-31T15:21:48Z</time>
      </trkpt>
      <trkpt lat="49.26005" lon="-0.2492">
        <ele>4</ele>
        <time>2022-05-31T15:21:49Z</time>
      </trkpt>
      <trkpt lat="49.26006" lon="-0.24919">
        <ele>4</ele>
        <time>2022-05-31T15:21:50Z</time>
      </trkpt>
      <trkpt lat="49.26007" lon="-0.24918">
        <ele>4</ele>
        <time>2022-05-31T15:21:51Z</time>
      </trkpt>
      <trkpt lat="49.26008" lon="-0.24917">
        <ele>4</ele>
        <time>2022-05-31T15:21:53Z</time>
      </trkpt>
      <trkpt lat="49.26008" lon="-0.24916">
        <ele>4</ele>
        <time>2022-05-31T15:21:54Z</time>
      </trkpt>
      <trkpt lat="49.26009" lon="-0.24916">
        <ele>4</ele>
        <time>2022-05-31T15:21:55Z</time>
      </trkpt>
      <trkpt lat="49.2601" lon="-0.24915">
        <ele>4</ele>
        <time>2022-05-31T15:21:56Z</time>
      </trkpt>
      <trkpt lat="49.26011" lon="-0.24915">
        <ele>4</ele>
        <time>2022-05-31T15:21:57Z</time>
      </trkpt>
      <trkpt lat="49.26012" lon="-0.24914">
        <ele>4</ele>
        <time>2022-05-31T15:21:58Z</time>
      </trkpt>
      <trkpt lat="49.26013" lon="-0.24913">
        <ele>4</ele>
        <time>2022-05-31T15:21:59Z</time>
      </trkpt>
      <trkpt lat="49.26014" lon="-0.24912">
        <ele>4</ele>
        <time>2022-05-31T15:22:00Z</time>
      </trkpt>
      <trkpt lat="49.26015" lon="-0.24911">
        <ele>4</ele>
        <time>2022-05-31T15:22:02Z</time>
      </trkpt>
      <trkpt lat="49.26017" lon="-0.2491">
        <ele>4</ele>
        <time>2022-05-31T15:22:03Z</time>
      </trkpt>
      <trkpt lat="49.26018" lon="-0.2491">
        <ele>4</ele>
        <time>2022-05-31T15:22:04Z</time>
      </trkpt>
      <trkpt lat="49.26019" lon="-0.24909">
        <ele>4</ele>
        <time>2022-05-31T15:22:05Z</time>
      </trkpt>
      <trkpt lat="49.2602" lon="-0.24908">
        <ele>4</ele>
        <time>2022-05-31T15:22:06Z</time>
      </trkpt>
      <trkpt lat="49.26021" lon="-0.24907">
        <ele>4</ele>
        <time>2022-05-31T15:22:07Z</time>
      </trkpt>
      <trkpt lat="49.26022" lon="-0.24907">
        <ele>4</ele>
        <time>2022-05-31T15:22:08Z</time>
      </trkpt>
      <trkpt lat="49.26022" lon="-0.24906">
        <ele>4</ele>
        <time>2022-05-31T15:22:09Z</time>
      </trkpt>
      <trkpt lat="49.26022" lon="-0.24905">
        <ele>4</ele>
        <time>2022-05-31T15:22:11Z</time>
      </trkpt>
      <trkpt lat="49.26023" lon="-0.24904">
        <ele>4</ele>
        <time>2022-05-31T15:22:12Z</time>
      </trkpt>
      <trkpt lat="49.26024" lon="-0.24903">
        <ele>4</ele>
        <time>2022-05-31T15:22:13Z</time>
      </trkpt>
      <trkpt lat="49.26025" lon="-0.24902">
        <ele>4</ele>
        <time>2022-05-31T15:22:14Z</time>
      </trkpt>
      <trkpt lat="49.26026" lon="-0.249">
        <ele>4</ele>
        <time>2022-05-31T15:22:15Z</time>
      </trkpt>
      <trkpt lat="49.26028" lon="-0.24899">
        <ele>4</ele>
        <time>2022-05-31T15:22:16Z</time>
      </trkpt>
      <trkpt lat="49.26029" lon="-0.24897">
        <ele>4</ele>
        <time>2022-05-31T15:22:17Z</time>
      </trkpt>
      <trkpt lat="49.2603" lon="-0.24895">
        <ele>3.9</ele>
        <time>2022-05-31T15:22:19Z</time>
      </trkpt>
      <trkpt lat="49.26032" lon="-0.24894">
        <ele>3.9</ele>
        <time>2022-05-31T15:22:20Z</time>
      </trkpt>
      <trkpt lat="49.26033" lon="-0.24892">
        <ele>3.9</ele>
        <time>2022-05-31T15:22:21Z</time>
      </trkpt>
      <trkpt lat="49.26034" lon="-0.24891">
        <ele>3.9</ele>
        <time>2022-05-31T15:22:22Z</time>
      </trkpt>
      <trkpt lat="49.26036" lon="-0.24889">
        <ele>3.9</ele>
        <time>2022-05-31T15:22:23Z</time>
      </trkpt>
      <trkpt lat="49.26037" lon="-0.24887">
        <ele>3.9</ele>
        <time>2022-05-31T15:22:24Z</time>
      </trkpt>
      <trkpt lat="49.26038" lon="-0.24886">
        <ele>3.9</ele>
        <time>2022-05-31T15:22:25Z</time>
      </trkpt>
      <trkpt lat="49.2604" lon="-0.24885">
        <ele>3.9</ele>
        <time>2022-05-31T15:22:26Z</time>
      </trkpt>
      <trkpt lat="49.26041" lon="-0.24884">
        <ele>3.9</ele>
        <time>2022-05-31T15:22:27Z</time>
      </trkpt>
      <trkpt lat="49.26042" lon="-0.24882">
        <ele>3.9</ele>
        <time>2022-05-31T15:22:29Z</time>
      </trkpt>
      <trkpt lat="49.26043" lon="-0.24881">
        <ele>3.9</ele>
        <time>2022-05-31T15:22:30Z</time>
      </trkpt>
      <trkpt lat="49.26043" lon="-0.2488">
        <ele>3.9</ele>
        <time>2022-05-31T15:22:31Z</time>
      </trkpt>
      <trkpt lat="49.26042" lon="-0.24881">
        <ele>3.9</ele>
        <time>2022-05-31T15:22:32Z</time>
      </trkpt>
      <trkpt lat="49.26043" lon="-0.24881">
        <ele>3.9</ele>
        <time>2022-05-31T15:22:33Z</time>
      </trkpt>
      <trkpt lat="49.26044" lon="-0.2488">
        <ele>3.9</ele>
        <time>2022-05-31T15:22:34Z</time>
      </trkpt>
      <trkpt lat="49.26044" lon="-0.2488">
        <ele>3.9</ele>
        <time>2022-05-31T15:22:35Z</time>
      </trkpt>
      <trkpt lat="49.26045" lon="-0.24879">
        <ele>3.9</ele>
        <time>2022-05-31T15:22:36Z</time>
      </trkpt>
      <trkpt lat="49.26046" lon="-0.24878">
        <ele>3.9</ele>
        <time>2022-05-31T15:22:38Z</time>
      </trkpt>
      <trkpt lat="49.26047" lon="-0.24878">
        <ele>3.9</ele>
        <time>2022-05-31T15:22:39Z</time>
      </trkpt>
      <trkpt lat="49.26047" lon="-0.24877">
        <ele>3.9</ele>
        <time>2022-05-31T15:22:40Z</time>
      </trkpt>
      <trkpt lat="49.26048" lon="-0.24876">
        <ele>3.9</ele>
        <time>2022-05-31T15:22:41Z</time>
      </trkpt>
      <trkpt lat="49.26049" lon="-0.24875">
        <ele>3.9</ele>
        <time>2022-05-31T15:22:42Z</time>
      </trkpt>
      <trkpt lat="49.2605" lon="-0.24874">
        <ele>3.9</ele>
        <time>2022-05-31T15:22:43Z</time>
      </trkpt>
      <trkpt lat="49.26051" lon="-0.24873">
        <ele>3.9</ele>
        <time>2022-05-31T15:22:44Z</time>
      </trkpt>
      <trkpt lat="49.26052" lon="-0.24872">
        <ele>3.9</ele>
        <time>2022-05-31T15:22:45Z</time>
      </trkpt>
      <trkpt lat="49.26053" lon="-0.24871">
        <ele>3.9</ele>
        <time>2022-05-31T15:22:46Z</time>
      </trkpt>
      <trkpt lat="49.26053" lon="-0.2487">
        <ele>3.9</ele>
        <time>2022-05-31T15:22:48Z</time>
      </trkpt>
      <trkpt lat="49.26054" lon="-0.24869">
        <ele>3.9</ele>
        <time>2022-05-31T15:22:49Z</time>
      </trkpt>
      <trkpt lat="49.26055" lon="-0.24869">
        <ele>3.9</ele>
        <time>2022-05-31T15:22:50Z</time>
      </trkpt>
      <trkpt lat="49.26056" lon="-0.24868">
        <ele>3.9</ele>
        <time>2022-05-31T15:22:51Z</time>
      </trkpt>
      <trkpt lat="49.26058" lon="-0.24866">
        <ele>3.9</ele>
        <time>2022-05-31T15:22:52Z</time>
      </trkpt>
      <trkpt lat="49.26059" lon="-0.24865">
        <ele>3.9</ele>
        <time>2022-05-31T15:22:54Z</time>
      </trkpt>
      <trkpt lat="49.2606" lon="-0.24864">
        <ele>3.9</ele>
        <time>2022-05-31T15:22:55Z</time>
      </trkpt>
      <trkpt lat="49.26061" lon="-0.24863">
        <ele>3.9</ele>
        <time>2022-05-31T15:22:56Z</time>
      </trkpt>
      <trkpt lat="49.26061" lon="-0.24863">
        <ele>3.9</ele>
        <time>2022-05-31T15:22:57Z</time>
      </trkpt>
      <trkpt lat="49.26063" lon="-0.24862">
        <ele>3.9</ele>
        <time>2022-05-31T15:22:58Z</time>
      </trkpt>
      <trkpt lat="49.26064" lon="-0.24861">
        <ele>3.9</ele>
        <time>2022-05-31T15:22:59Z</time>
      </trkpt>
      <trkpt lat="49.26066" lon="-0.2486">
        <ele>3.9</ele>
        <time>2022-05-31T15:23:00Z</time>
      </trkpt>
      <trkpt lat="49.26067" lon="-0.24858">
        <ele>3.9</ele>
        <time>2022-05-31T15:23:01Z</time>
      </trkpt>
      <trkpt lat="49.26069" lon="-0.24857">
        <ele>3.9</ele>
        <time>2022-05-31T15:23:03Z</time>
      </trkpt>
      <trkpt lat="49.2607" lon="-0.24857">
        <ele>3.8</ele>
        <time>2022-05-31T15:23:04Z</time>
      </trkpt>
      <trkpt lat="49.2607" lon="-0.24857">
        <ele>3.8</ele>
        <time>2022-05-31T15:23:05Z</time>
      </trkpt>
      <trkpt lat="49.26072" lon="-0.24856">
        <ele>3.8</ele>
        <time>2022-05-31T15:23:06Z</time>
      </trkpt>
      <trkpt lat="49.26073" lon="-0.24855">
        <ele>3.8</ele>
        <time>2022-05-31T15:23:07Z</time>
      </trkpt>
      <trkpt lat="49.26074" lon="-0.24855">
        <ele>3.8</ele>
        <time>2022-05-31T15:23:08Z</time>
      </trkpt>
      <trkpt lat="49.26076" lon="-0.24854">
        <ele>3.8</ele>
        <time>2022-05-31T15:23:09Z</time>
      </trkpt>
      <trkpt lat="49.26077" lon="-0.24853">
        <ele>3.8</ele>
        <time>2022-05-31T15:23:10Z</time>
      </trkpt>
      <trkpt lat="49.26078" lon="-0.24852">
        <ele>3.8</ele>
        <time>2022-05-31T15:23:11Z</time>
      </trkpt>
      <trkpt lat="49.26079" lon="-0.24851">
        <ele>3.8</ele>
        <time>2022-05-31T15:23:13Z</time>
      </trkpt>
      <trkpt lat="49.2608" lon="-0.2485">
        <ele>3.8</ele>
        <time>2022-05-31T15:23:14Z</time>
      </trkpt>
      <trkpt lat="49.26081" lon="-0.24849">
        <ele>3.8</ele>
        <time>2022-05-31T15:23:15Z</time>
      </trkpt>
      <trkpt lat="49.26083" lon="-0.24848">
        <ele>3.8</ele>
        <time>2022-05-31T15:23:16Z</time>
      </trkpt>
      <trkpt lat="49.26084" lon="-0.24848">
        <ele>3.8</ele>
        <time>2022-05-31T15:23:17Z</time>
      </trkpt>
      <trkpt lat="49.26085" lon="-0.24846">
        <ele>3.8</ele>
        <time>2022-05-31T15:23:18Z</time>
      </trkpt>
      <trkpt lat="49.26086" lon="-0.24845">
        <ele>3.8</ele>
        <time>2022-05-31T15:23:19Z</time>
      </trkpt>
      <trkpt lat="49.26087" lon="-0.24844">
        <ele>3.8</ele>
        <time>2022-05-31T15:23:20Z</time>
      </trkpt>
      <trkpt lat="49.26088" lon="-0.24844">
        <ele>3.8</ele>
        <time>2022-05-31T15:23:21Z</time>
      </trkpt>
      <trkpt lat="49.26089" lon="-0.24843">
        <ele>3.8</ele>
        <time>2022-05-31T15:23:23Z</time>
      </trkpt>
      <trkpt lat="49.2609" lon="-0.24842">
        <ele>3.8</ele>
        <time>2022-05-31T15:23:24Z</time>
      </trkpt>
      <trkpt lat="49.26091" lon="-0.24841">
        <ele>3.8</ele>
        <time>2022-05-31T15:23:25Z</time>
      </trkpt>
      <trkpt lat="49.26093" lon="-0.2484">
        <ele>3.8</ele>
        <time>2022-05-31T15:23:26Z</time>
      </trkpt>
      <trkpt lat="49.26094" lon="-0.24839">
        <ele>3.8</ele>
        <time>2022-05-31T15:23:27Z</time>
      </trkpt>
      <trkpt lat="49.26095" lon="-0.24839">
        <ele>3.8</ele>
        <time>2022-05-31T15:23:28Z</time>
      </trkpt>
      <trkpt lat="49.26096" lon="-0.24837">
        <ele>3.8</ele>
        <time>2022-05-31T15:23:29Z</time>
      </trkpt>
      <trkpt lat="49.26097" lon="-0.24837">
        <ele>3.8</ele>
        <time>2022-05-31T15:23:30Z</time>
      </trkpt>
      <trkpt lat="49.26097" lon="-0.24836">
        <ele>3.8</ele>
        <time>2022-05-31T15:23:32Z</time>
      </trkpt>
      <trkpt lat="49.26098" lon="-0.24835">
        <ele>3.8</ele>
        <time>2022-05-31T15:23:33Z</time>
      </trkpt>
      <trkpt lat="49.26099" lon="-0.24835">
        <ele>3.8</ele>
        <time>2022-05-31T15:23:34Z</time>
      </trkpt>
      <trkpt lat="49.26099" lon="-0.24834">
        <ele>3.8</ele>
        <time>2022-05-31T15:23:35Z</time>
      </trkpt>
      <trkpt lat="49.261" lon="-0.24833">
        <ele>3.8</ele>
        <time>2022-05-31T15:23:36Z</time>
      </trkpt>
      <trkpt lat="49.26101" lon="-0.24832">
        <ele>3.8</ele>
        <time>2022-05-31T15:23:37Z</time>
      </trkpt>
      <trkpt lat="49.26102" lon="-0.24831">
        <ele>3.8</ele>
        <time>2022-05-31T15:23:38Z</time>
      </trkpt>
      <trkpt lat="49.26102" lon="-0.24831">
        <ele>3.8</ele>
        <time>2022-05-31T15:23:39Z</time>
      </trkpt>
      <trkpt lat="49.26103" lon="-0.2483">
        <ele>3.8</ele>
        <time>2022-05-31T15:23:40Z</time>
      </trkpt>
      <trkpt lat="49.26104" lon="-0.24829">
        <ele>3.8</ele>
        <time>2022-05-31T15:23:42Z</time>
      </trkpt>
      <trkpt lat="49.26105" lon="-0.24828">
        <ele>3.8</ele>
        <time>2022-05-31T15:23:43Z</time>
      </trkpt>
      <trkpt lat="49.26107" lon="-0.24827">
        <ele>3.8</ele>
        <time>2022-05-31T15:23:44Z</time>
      </trkpt>
      <trkpt lat="49.26108" lon="-0.24827">
        <ele>3.8</ele>
        <time>2022-05-31T15:23:45Z</time>
      </trkpt>
      <trkpt lat="49.26109" lon="-0.24826">
        <ele>3.8</ele>
        <time>2022-05-31T15:23:46Z</time>
      </trkpt>
      <trkpt lat="49.26111" lon="-0.24825">
        <ele>3.8</ele>
        <time>2022-05-31T15:23:47Z</time>
      </trkpt>
      <trkpt lat="49.26112" lon="-0.24824">
        <ele>3.8</ele>
        <time>2022-05-31T15:23:48Z</time>
      </trkpt>
      <trkpt lat="49.26114" lon="-0.24824">
        <ele>3.8</ele>
        <time>2022-05-31T15:23:49Z</time>
      </trkpt>
      <trkpt lat="49.26115" lon="-0.24823">
        <ele>3.8</ele>
        <time>2022-05-31T15:23:50Z</time>
      </trkpt>
      <trkpt lat="49.26117" lon="-0.24821">
        <ele>3.8</ele>
        <time>2022-05-31T15:23:52Z</time>
      </trkpt>
      <trkpt lat="49.26118" lon="-0.2482">
        <ele>3.8</ele>
        <time>2022-05-31T15:23:53Z</time>
      </trkpt>
      <trkpt lat="49.2612" lon="-0.24819">
        <ele>3.8</ele>
        <time>2022-05-31T15:23:54Z</time>
      </trkpt>
      <trkpt lat="49.26121" lon="-0.24818">
        <ele>3.8</ele>
        <time>2022-05-31T15:23:55Z</time>
      </trkpt>
      <trkpt lat="49.26122" lon="-0.24817">
        <ele>3.8</ele>
        <time>2022-05-31T15:23:56Z</time>
      </trkpt>
      <trkpt lat="49.26123" lon="-0.24816">
        <ele>3.8</ele>
        <time>2022-05-31T15:23:57Z</time>
      </trkpt>
      <trkpt lat="49.26125" lon="-0.24815">
        <ele>3.8</ele>
        <time>2022-05-31T15:23:58Z</time>
      </trkpt>
      <trkpt lat="49.26125" lon="-0.24814">
        <ele>3.8</ele>
        <time>2022-05-31T15:23:59Z</time>
      </trkpt>
      <trkpt lat="49.26126" lon="-0.24813">
        <ele>3.8</ele>
        <time>2022-05-31T15:24:01Z</time>
      </trkpt>
      <trkpt lat="49.26127" lon="-0.24813">
        <ele>3.8</ele>
        <time>2022-05-31T15:24:02Z</time>
      </trkpt>
      <trkpt lat="49.26128" lon="-0.24812">
        <ele>3.8</ele>
        <time>2022-05-31T15:24:03Z</time>
      </trkpt>
      <trkpt lat="49.26129" lon="-0.24811">
        <ele>3.8</ele>
        <time>2022-05-31T15:24:04Z</time>
      </trkpt>
      <trkpt lat="49.2613" lon="-0.24811">
        <ele>3.8</ele>
        <time>2022-05-31T15:24:05Z</time>
      </trkpt>
      <trkpt lat="49.2613" lon="-0.2481">
        <ele>3.8</ele>
        <time>2022-05-31T15:24:06Z</time>
      </trkpt>
      <trkpt lat="49.26131" lon="-0.2481">
        <ele>3.8</ele>
        <time>2022-05-31T15:24:07Z</time>
      </trkpt>
      <trkpt lat="49.26132" lon="-0.24809">
        <ele>3.8</ele>
        <time>2022-05-31T15:24:08Z</time>
      </trkpt>
      <trkpt lat="49.26132" lon="-0.24808">
        <ele>3.8</ele>
        <time>2022-05-31T15:24:09Z</time>
      </trkpt>
      <trkpt lat="49.26133" lon="-0.24808">
        <ele>3.8</ele>
        <time>2022-05-31T15:24:11Z</time>
      </trkpt>
      <trkpt lat="49.26134" lon="-0.24807">
        <ele>3.8</ele>
        <time>2022-05-31T15:24:12Z</time>
      </trkpt>
      <trkpt lat="49.26135" lon="-0.24806">
        <ele>3.8</ele>
        <time>2022-05-31T15:24:13Z</time>
      </trkpt>
      <trkpt lat="49.26135" lon="-0.24806">
        <ele>3.8</ele>
        <time>2022-05-31T15:24:14Z</time>
      </trkpt>
      <trkpt lat="49.26136" lon="-0.24805">
        <ele>3.8</ele>
        <time>2022-05-31T15:24:15Z</time>
      </trkpt>
      <trkpt lat="49.26137" lon="-0.24804">
        <ele>3.8</ele>
        <time>2022-05-31T15:24:16Z</time>
      </trkpt>
      <trkpt lat="49.26138" lon="-0.24803">
        <ele>3.8</ele>
        <time>2022-05-31T15:24:17Z</time>
      </trkpt>
      <trkpt lat="49.26139" lon="-0.24802">
        <ele>3.8</ele>
        <time>2022-05-31T15:24:18Z</time>
      </trkpt>
      <trkpt lat="49.26141" lon="-0.24801">
        <ele>3.8</ele>
        <time>2022-05-31T15:24:19Z</time>
      </trkpt>
      <trkpt lat="49.26142" lon="-0.248">
        <ele>3.8</ele>
        <time>2022-05-31T15:24:20Z</time>
      </trkpt>
      <trkpt lat="49.26143" lon="-0.24799">
        <ele>3.8</ele>
        <time>2022-05-31T15:24:22Z</time>
      </trkpt>
      <trkpt lat="49.26144" lon="-0.24798">
        <ele>3.8</ele>
        <time>2022-05-31T15:24:23Z</time>
      </trkpt>
      <trkpt lat="49.26144" lon="-0.24797">
        <ele>3.8</ele>
        <time>2022-05-31T15:24:24Z</time>
      </trkpt>
      <trkpt lat="49.26145" lon="-0.24797">
        <ele>3.8</ele>
        <time>2022-05-31T15:24:25Z</time>
      </trkpt>
      <trkpt lat="49.26147" lon="-0.24796">
        <ele>3.8</ele>
        <time>2022-05-31T15:24:26Z</time>
      </trkpt>
      <trkpt lat="49.26148" lon="-0.24794">
        <ele>3.8</ele>
        <time>2022-05-31T15:24:27Z</time>
      </trkpt>
      <trkpt lat="49.26149" lon="-0.24793">
        <ele>3.8</ele>
        <time>2022-05-31T15:24:28Z</time>
      </trkpt>
      <trkpt lat="49.2615" lon="-0.24792">
        <ele>3.8</ele>
        <time>2022-05-31T15:24:29Z</time>
      </trkpt>
      <trkpt lat="49.26151" lon="-0.24791">
        <ele>3.8</ele>
        <time>2022-05-31T15:24:31Z</time>
      </trkpt>
      <trkpt lat="49.26153" lon="-0.24789">
        <ele>3.8</ele>
        <time>2022-05-31T15:24:32Z</time>
      </trkpt>
      <trkpt lat="49.26154" lon="-0.24788">
        <ele>3.8</ele>
        <time>2022-05-31T15:24:33Z</time>
      </trkpt>
      <trkpt lat="49.26155" lon="-0.24787">
        <ele>3.8</ele>
        <time>2022-05-31T15:24:34Z</time>
      </trkpt>
      <trkpt lat="49.26157" lon="-0.24786">
        <ele>3.8</ele>
        <time>2022-05-31T15:24:35Z</time>
      </trkpt>
      <trkpt lat="49.26158" lon="-0.24785">
        <ele>3.8</ele>
        <time>2022-05-31T15:24:36Z</time>
      </trkpt>
      <trkpt lat="49.26159" lon="-0.24784">
        <ele>3.8</ele>
        <time>2022-05-31T15:24:37Z</time>
      </trkpt>
      <trkpt lat="49.2616" lon="-0.24783">
        <ele>3.8</ele>
        <time>2022-05-31T15:24:38Z</time>
      </trkpt>
      <trkpt lat="49.26161" lon="-0.24782">
        <ele>3.8</ele>
        <time>2022-05-31T15:24:39Z</time>
      </trkpt>
      <trkpt lat="49.26164" lon="-0.2478">
        <ele>3.8</ele>
        <time>2022-05-31T15:24:40Z</time>
      </trkpt>
      <trkpt lat="49.26165" lon="-0.24779">
        <ele>3.8</ele>
        <time>2022-05-31T15:24:42Z</time>
      </trkpt>
      <trkpt lat="49.26166" lon="-0.24779">
        <ele>3.8</ele>
        <time>2022-05-31T15:24:43Z</time>
      </trkpt>
      <trkpt lat="49.26167" lon="-0.24778">
        <ele>3.8</ele>
        <time>2022-05-31T15:24:44Z</time>
      </trkpt>
      <trkpt lat="49.26168" lon="-0.24777">
        <ele>3.8</ele>
        <time>2022-05-31T15:24:45Z</time>
      </trkpt>
      <trkpt lat="49.26169" lon="-0.24776">
        <ele>3.8</ele>
        <time>2022-05-31T15:24:46Z</time>
      </trkpt>
      <trkpt lat="49.26171" lon="-0.24775">
        <ele>3.8</ele>
        <time>2022-05-31T15:24:47Z</time>
      </trkpt>
      <trkpt lat="49.26172" lon="-0.24774">
        <ele>3.7</ele>
        <time>2022-05-31T15:24:48Z</time>
      </trkpt>
      <trkpt lat="49.26173" lon="-0.24773">
        <ele>3.7</ele>
        <time>2022-05-31T15:24:49Z</time>
      </trkpt>
      <trkpt lat="49.26174" lon="-0.24773">
        <ele>3.7</ele>
        <time>2022-05-31T15:24:50Z</time>
      </trkpt>
      <trkpt lat="49.26174" lon="-0.24772">
        <ele>3.7</ele>
        <time>2022-05-31T15:24:52Z</time>
      </trkpt>
      <trkpt lat="49.26173" lon="-0.24773">
        <ele>3.7</ele>
        <time>2022-05-31T15:24:53Z</time>
      </trkpt>
      <trkpt lat="49.26174" lon="-0.24773">
        <ele>3.7</ele>
        <time>2022-05-31T15:24:54Z</time>
      </trkpt>
      <trkpt lat="49.26175" lon="-0.24772">
        <ele>3.7</ele>
        <time>2022-05-31T15:24:55Z</time>
      </trkpt>
      <trkpt lat="49.26177" lon="-0.2477">
        <ele>3.7</ele>
        <time>2022-05-31T15:24:56Z</time>
      </trkpt>
      <trkpt lat="49.26178" lon="-0.24769">
        <ele>3.7</ele>
        <time>2022-05-31T15:24:58Z</time>
      </trkpt>
      <trkpt lat="49.26179" lon="-0.24769">
        <ele>3.7</ele>
        <time>2022-05-31T15:24:59Z</time>
      </trkpt>
      <trkpt lat="49.26179" lon="-0.24768">
        <ele>3.7</ele>
        <time>2022-05-31T15:25:00Z</time>
      </trkpt>
      <trkpt lat="49.2618" lon="-0.24768">
        <ele>3.7</ele>
        <time>2022-05-31T15:25:01Z</time>
      </trkpt>
      <trkpt lat="49.26182" lon="-0.24766">
        <ele>3.7</ele>
        <time>2022-05-31T15:25:02Z</time>
      </trkpt>
      <trkpt lat="49.26183" lon="-0.24766">
        <ele>3.7</ele>
        <time>2022-05-31T15:25:03Z</time>
      </trkpt>
      <trkpt lat="49.26183" lon="-0.24765">
        <ele>3.7</ele>
        <time>2022-05-31T15:25:04Z</time>
      </trkpt>
      <trkpt lat="49.26184" lon="-0.24764">
        <ele>3.7</ele>
        <time>2022-05-31T15:25:05Z</time>
      </trkpt>
      <trkpt lat="49.26185" lon="-0.24764">
        <ele>3.7</ele>
        <time>2022-05-31T15:25:06Z</time>
      </trkpt>
      <trkpt lat="49.26186" lon="-0.24763">
        <ele>3.7</ele>
        <time>2022-05-31T15:25:08Z</time>
      </trkpt>
      <trkpt lat="49.26186" lon="-0.24763">
        <ele>3.7</ele>
        <time>2022-05-31T15:25:09Z</time>
      </trkpt>
      <trkpt lat="49.26186" lon="-0.24762">
        <ele>3.7</ele>
        <time>2022-05-31T15:25:10Z</time>
      </trkpt>
      <trkpt lat="49.26187" lon="-0.24762">
        <ele>3.7</ele>
        <time>2022-05-31T15:25:11Z</time>
      </trkpt>
      <trkpt lat="49.26188" lon="-0.24761">
        <ele>3.7</ele>
        <time>2022-05-31T15:25:12Z</time>
      </trkpt>
      <trkpt lat="49.26188" lon="-0.24761">
        <ele>3.7</ele>
        <time>2022-05-31T15:25:13Z</time>
      </trkpt>
      <trkpt lat="49.26189" lon="-0.2476">
        <ele>3.7</ele>
        <time>2022-05-31T15:25:14Z</time>
      </trkpt>
      <trkpt lat="49.2619" lon="-0.24759">
        <ele>3.7</ele>
        <time>2022-05-31T15:25:15Z</time>
      </trkpt>
      <trkpt lat="49.26191" lon="-0.24759">
        <ele>3.7</ele>
        <time>2022-05-31T15:25:16Z</time>
      </trkpt>
      <trkpt lat="49.26191" lon="-0.24758">
        <ele>3.7</ele>
        <time>2022-05-31T15:25:17Z</time>
      </trkpt>
      <trkpt lat="49.26192" lon="-0.24757">
        <ele>3.7</ele>
        <time>2022-05-31T15:25:19Z</time>
      </trkpt>
      <trkpt lat="49.26193" lon="-0.24756">
        <ele>3.7</ele>
        <time>2022-05-31T15:25:20Z</time>
      </trkpt>
      <trkpt lat="49.26193" lon="-0.24756">
        <ele>3.7</ele>
        <time>2022-05-31T15:25:21Z</time>
      </trkpt>
      <trkpt lat="49.26194" lon="-0.24755">
        <ele>3.7</ele>
        <time>2022-05-31T15:25:22Z</time>
      </trkpt>
      <trkpt lat="49.26196" lon="-0.24753">
        <ele>3.8</ele>
        <time>2022-05-31T15:25:23Z</time>
      </trkpt>
      <trkpt lat="49.26197" lon="-0.24752">
        <ele>3.8</ele>
        <time>2022-05-31T15:25:24Z</time>
      </trkpt>
      <trkpt lat="49.26198" lon="-0.24751">
        <ele>3.8</ele>
        <time>2022-05-31T15:25:25Z</time>
      </trkpt>
      <trkpt lat="49.26198" lon="-0.2475">
        <ele>3.8</ele>
        <time>2022-05-31T15:25:26Z</time>
      </trkpt>
      <trkpt lat="49.262" lon="-0.24749">
        <ele>3.8</ele>
        <time>2022-05-31T15:25:27Z</time>
      </trkpt>
      <trkpt lat="49.26201" lon="-0.24748">
        <ele>3.8</ele>
        <time>2022-05-31T15:25:29Z</time>
      </trkpt>
      <trkpt lat="49.26202" lon="-0.24747">
        <ele>3.8</ele>
        <time>2022-05-31T15:25:30Z</time>
      </trkpt>
      <trkpt lat="49.26204" lon="-0.24746">
        <ele>3.8</ele>
        <time>2022-05-31T15:25:31Z</time>
      </trkpt>
      <trkpt lat="49.26205" lon="-0.24745">
        <ele>3.8</ele>
        <time>2022-05-31T15:25:32Z</time>
      </trkpt>
      <trkpt lat="49.26206" lon="-0.24744">
        <ele>3.8</ele>
        <time>2022-05-31T15:25:33Z</time>
      </trkpt>
      <trkpt lat="49.26208" lon="-0.24743">
        <ele>3.8</ele>
        <time>2022-05-31T15:25:35Z</time>
      </trkpt>
      <trkpt lat="49.26209" lon="-0.24742">
        <ele>3.8</ele>
        <time>2022-05-31T15:25:36Z</time>
      </trkpt>
      <trkpt lat="49.2621" lon="-0.24741">
        <ele>3.8</ele>
        <time>2022-05-31T15:25:37Z</time>
      </trkpt>
      <trkpt lat="49.26212" lon="-0.2474">
        <ele>3.8</ele>
        <time>2022-05-31T15:25:38Z</time>
      </trkpt>
      <trkpt lat="49.26213" lon="-0.24739">
        <ele>3.8</ele>
        <time>2022-05-31T15:25:39Z</time>
      </trkpt>
      <trkpt lat="49.26214" lon="-0.24738">
        <ele>3.8</ele>
        <time>2022-05-31T15:25:40Z</time>
      </trkpt>
      <trkpt lat="49.26216" lon="-0.24736">
        <ele>3.8</ele>
        <time>2022-05-31T15:25:41Z</time>
      </trkpt>
      <trkpt lat="49.26217" lon="-0.24735">
        <ele>3.8</ele>
        <time>2022-05-31T15:25:42Z</time>
      </trkpt>
      <trkpt lat="49.26219" lon="-0.24733">
        <ele>3.7</ele>
        <time>2022-05-31T15:25:44Z</time>
      </trkpt>
      <trkpt lat="49.26219" lon="-0.24733">
        <ele>3.7</ele>
        <time>2022-05-31T15:25:45Z</time>
      </trkpt>
      <trkpt lat="49.2622" lon="-0.24732">
        <ele>3.7</ele>
        <time>2022-05-31T15:25:46Z</time>
      </trkpt>
      <trkpt lat="49.26222" lon="-0.2473">
        <ele>3.7</ele>
        <time>2022-05-31T15:25:47Z</time>
      </trkpt>
      <trkpt lat="49.26223" lon="-0.2473">
        <ele>3.7</ele>
        <time>2022-05-31T15:25:48Z</time>
      </trkpt>
      <trkpt lat="49.26223" lon="-0.24729">
        <ele>3.7</ele>
        <time>2022-05-31T15:25:49Z</time>
      </trkpt>
      <trkpt lat="49.26224" lon="-0.24728">
        <ele>3.7</ele>
        <time>2022-05-31T15:25:50Z</time>
      </trkpt>
      <trkpt lat="49.26226" lon="-0.24727">
        <ele>3.7</ele>
        <time>2022-05-31T15:25:51Z</time>
      </trkpt>
      <trkpt lat="49.26227" lon="-0.24727">
        <ele>3.7</ele>
        <time>2022-05-31T15:25:52Z</time>
      </trkpt>
      <trkpt lat="49.26228" lon="-0.24726">
        <ele>3.7</ele>
        <time>2022-05-31T15:25:54Z</time>
      </trkpt>
      <trkpt lat="49.26229" lon="-0.24726">
        <ele>3.7</ele>
        <time>2022-05-31T15:25:55Z</time>
      </trkpt>
      <trkpt lat="49.2623" lon="-0.24725">
        <ele>3.7</ele>
        <time>2022-05-31T15:25:56Z</time>
      </trkpt>
      <trkpt lat="49.26231" lon="-0.24725">
        <ele>3.7</ele>
        <time>2022-05-31T15:25:57Z</time>
      </trkpt>
      <trkpt lat="49.26231" lon="-0.24724">
        <ele>3.7</ele>
        <time>2022-05-31T15:25:58Z</time>
      </trkpt>
      <trkpt lat="49.26233" lon="-0.24723">
        <ele>3.7</ele>
        <time>2022-05-31T15:25:59Z</time>
      </trkpt>
      <trkpt lat="49.26234" lon="-0.24722">
        <ele>3.7</ele>
        <time>2022-05-31T15:26:00Z</time>
      </trkpt>
      <trkpt lat="49.26235" lon="-0.24721">
        <ele>3.7</ele>
        <time>2022-05-31T15:26:01Z</time>
      </trkpt>
      <trkpt lat="49.26235" lon="-0.24721">
        <ele>3.7</ele>
        <time>2022-05-31T15:26:03Z</time>
      </trkpt>
      <trkpt lat="49.26236" lon="-0.24721">
        <ele>3.7</ele>
        <time>2022-05-31T15:26:04Z</time>
      </trkpt>
      <trkpt lat="49.26236" lon="-0.24721">
        <ele>3.7</ele>
        <time>2022-05-31T15:26:05Z</time>
      </trkpt>
      <trkpt lat="49.26237" lon="-0.24721">
        <ele>3.7</ele>
        <time>2022-05-31T15:26:06Z</time>
      </trkpt>
      <trkpt lat="49.26238" lon="-0.2472">
        <ele>3.7</ele>
        <time>2022-05-31T15:26:07Z</time>
      </trkpt>
      <trkpt lat="49.26239" lon="-0.24719">
        <ele>3.7</ele>
        <time>2022-05-31T15:26:08Z</time>
      </trkpt>
      <trkpt lat="49.2624" lon="-0.24719">
        <ele>3.7</ele>
        <time>2022-05-31T15:26:09Z</time>
      </trkpt>
      <trkpt lat="49.26241" lon="-0.24718">
        <ele>3.7</ele>
        <time>2022-05-31T15:26:10Z</time>
      </trkpt>
      <trkpt lat="49.26242" lon="-0.24717">
        <ele>3.7</ele>
        <time>2022-05-31T15:26:12Z</time>
      </trkpt>
      <trkpt lat="49.26243" lon="-0.24716">
        <ele>3.7</ele>
        <time>2022-05-31T15:26:13Z</time>
      </trkpt>
      <trkpt lat="49.26243" lon="-0.24716">
        <ele>3.7</ele>
        <time>2022-05-31T15:26:14Z</time>
      </trkpt>
      <trkpt lat="49.26245" lon="-0.24714">
        <ele>3.7</ele>
        <time>2022-05-31T15:26:15Z</time>
      </trkpt>
      <trkpt lat="49.26246" lon="-0.24714">
        <ele>3.7</ele>
        <time>2022-05-31T15:26:16Z</time>
      </trkpt>
      <trkpt lat="49.26247" lon="-0.24713">
        <ele>3.7</ele>
        <time>2022-05-31T15:26:17Z</time>
      </trkpt>
      <trkpt lat="49.26248" lon="-0.24712">
        <ele>3.7</ele>
        <time>2022-05-31T15:26:18Z</time>
      </trkpt>
      <trkpt lat="49.26249" lon="-0.24711">
        <ele>3.7</ele>
        <time>2022-05-31T15:26:19Z</time>
      </trkpt>
      <trkpt lat="49.2625" lon="-0.2471">
        <ele>3.7</ele>
        <time>2022-05-31T15:26:21Z</time>
      </trkpt>
      <trkpt lat="49.26251" lon="-0.2471">
        <ele>3.7</ele>
        <time>2022-05-31T15:26:22Z</time>
      </trkpt>
      <trkpt lat="49.26252" lon="-0.24709">
        <ele>3.7</ele>
        <time>2022-05-31T15:26:23Z</time>
      </trkpt>
      <trkpt lat="49.26253" lon="-0.24708">
        <ele>3.7</ele>
        <time>2022-05-31T15:26:24Z</time>
      </trkpt>
      <trkpt lat="49.26254" lon="-0.24706">
        <ele>3.7</ele>
        <time>2022-05-31T15:26:25Z</time>
      </trkpt>
      <trkpt lat="49.26255" lon="-0.24706">
        <ele>3.7</ele>
        <time>2022-05-31T15:26:26Z</time>
      </trkpt>
      <trkpt lat="49.26256" lon="-0.24705">
        <ele>3.7</ele>
        <time>2022-05-31T15:26:27Z</time>
      </trkpt>
      <trkpt lat="49.26257" lon="-0.24704">
        <ele>3.7</ele>
        <time>2022-05-31T15:26:28Z</time>
      </trkpt>
      <trkpt lat="49.26259" lon="-0.24703">
        <ele>3.7</ele>
        <time>2022-05-31T15:26:29Z</time>
      </trkpt>
      <trkpt lat="49.2626" lon="-0.24702">
        <ele>3.7</ele>
        <time>2022-05-31T15:26:31Z</time>
      </trkpt>
      <trkpt lat="49.26261" lon="-0.247">
        <ele>3.7</ele>
        <time>2022-05-31T15:26:32Z</time>
      </trkpt>
      <trkpt lat="49.26263" lon="-0.24698">
        <ele>3.8</ele>
        <time>2022-05-31T15:26:33Z</time>
      </trkpt>
      <trkpt lat="49.26264" lon="-0.24698">
        <ele>3.8</ele>
        <time>2022-05-31T15:26:34Z</time>
      </trkpt>
      <trkpt lat="49.26265" lon="-0.24697">
        <ele>3.8</ele>
        <time>2022-05-31T15:26:35Z</time>
      </trkpt>
      <trkpt lat="49.26266" lon="-0.24695">
        <ele>3.8</ele>
        <time>2022-05-31T15:26:36Z</time>
      </trkpt>
      <trkpt lat="49.26267" lon="-0.24695">
        <ele>3.8</ele>
        <time>2022-05-31T15:26:37Z</time>
      </trkpt>
      <trkpt lat="49.26268" lon="-0.24694">
        <ele>3.8</ele>
        <time>2022-05-31T15:26:38Z</time>
      </trkpt>
      <trkpt lat="49.2627" lon="-0.24692">
        <ele>3.8</ele>
        <time>2022-05-31T15:26:39Z</time>
      </trkpt>
      <trkpt lat="49.26271" lon="-0.24692">
        <ele>3.8</ele>
        <time>2022-05-31T15:26:41Z</time>
      </trkpt>
      <trkpt lat="49.26271" lon="-0.24691">
        <ele>3.8</ele>
        <time>2022-05-31T15:26:42Z</time>
      </trkpt>
      <trkpt lat="49.26272" lon="-0.2469">
        <ele>3.8</ele>
        <time>2022-05-31T15:26:43Z</time>
      </trkpt>
      <trkpt lat="49.26273" lon="-0.24689">
        <ele>3.8</ele>
        <time>2022-05-31T15:26:44Z</time>
      </trkpt>
      <trkpt lat="49.26274" lon="-0.24688">
        <ele>3.8</ele>
        <time>2022-05-31T15:26:45Z</time>
      </trkpt>
      <trkpt lat="49.26275" lon="-0.24687">
        <ele>3.8</ele>
        <time>2022-05-31T15:26:46Z</time>
      </trkpt>
      <trkpt lat="49.26276" lon="-0.24686">
        <ele>3.8</ele>
        <time>2022-05-31T15:26:47Z</time>
      </trkpt>
      <trkpt lat="49.26278" lon="-0.24685">
        <ele>3.8</ele>
        <time>2022-05-31T15:26:48Z</time>
      </trkpt>
      <trkpt lat="49.26279" lon="-0.24684">
        <ele>3.8</ele>
        <time>2022-05-31T15:26:49Z</time>
      </trkpt>
      <trkpt lat="49.26281" lon="-0.24682">
        <ele>3.8</ele>
        <time>2022-05-31T15:26:51Z</time>
      </trkpt>
      <trkpt lat="49.26282" lon="-0.24681">
        <ele>3.8</ele>
        <time>2022-05-31T15:26:52Z</time>
      </trkpt>
      <trkpt lat="49.26283" lon="-0.2468">
        <ele>3.8</ele>
        <time>2022-05-31T15:26:53Z</time>
      </trkpt>
      <trkpt lat="49.26285" lon="-0.24678">
        <ele>3.8</ele>
        <time>2022-05-31T15:26:54Z</time>
      </trkpt>
      <trkpt lat="49.26286" lon="-0.24677">
        <ele>3.8</ele>
        <time>2022-05-31T15:26:55Z</time>
      </trkpt>
      <trkpt lat="49.26287" lon="-0.24676">
        <ele>3.8</ele>
        <time>2022-05-31T15:26:56Z</time>
      </trkpt>
      <trkpt lat="49.26289" lon="-0.24675">
        <ele>3.8</ele>
        <time>2022-05-31T15:26:57Z</time>
      </trkpt>
      <trkpt lat="49.2629" lon="-0.24674">
        <ele>3.8</ele>
        <time>2022-05-31T15:26:59Z</time>
      </trkpt>
      <trkpt lat="49.26291" lon="-0.24673">
        <ele>3.8</ele>
        <time>2022-05-31T15:27:00Z</time>
      </trkpt>
      <trkpt lat="49.26292" lon="-0.24672">
        <ele>3.8</ele>
        <time>2022-05-31T15:27:01Z</time>
      </trkpt>
      <trkpt lat="49.26293" lon="-0.24672">
        <ele>3.8</ele>
        <time>2022-05-31T15:27:02Z</time>
      </trkpt>
      <trkpt lat="49.26293" lon="-0.24671">
        <ele>3.8</ele>
        <time>2022-05-31T15:27:03Z</time>
      </trkpt>
      <trkpt lat="49.26294" lon="-0.2467">
        <ele>3.8</ele>
        <time>2022-05-31T15:27:04Z</time>
      </trkpt>
      <trkpt lat="49.26295" lon="-0.24669">
        <ele>3.8</ele>
        <time>2022-05-31T15:27:05Z</time>
      </trkpt>
      <trkpt lat="49.26296" lon="-0.24668">
        <ele>3.8</ele>
        <time>2022-05-31T15:27:07Z</time>
      </trkpt>
      <trkpt lat="49.26297" lon="-0.24667">
        <ele>3.8</ele>
        <time>2022-05-31T15:27:08Z</time>
      </trkpt>
      <trkpt lat="49.26297" lon="-0.24666">
        <ele>3.8</ele>
        <time>2022-05-31T15:27:09Z</time>
      </trkpt>
      <trkpt lat="49.26297" lon="-0.24665">
        <ele>3.8</ele>
        <time>2022-05-31T15:27:10Z</time>
      </trkpt>
      <trkpt lat="49.26298" lon="-0.24664">
        <ele>3.8</ele>
        <time>2022-05-31T15:27:11Z</time>
      </trkpt>
      <trkpt lat="49.26298" lon="-0.24663">
        <ele>3.8</ele>
        <time>2022-05-31T15:27:12Z</time>
      </trkpt>
      <trkpt lat="49.26299" lon="-0.24662">
        <ele>3.8</ele>
        <time>2022-05-31T15:27:14Z</time>
      </trkpt>
      <trkpt lat="49.263" lon="-0.24662">
        <ele>3.8</ele>
        <time>2022-05-31T15:27:15Z</time>
      </trkpt>
      <trkpt lat="49.26301" lon="-0.24662">
        <ele>3.8</ele>
        <time>2022-05-31T15:27:16Z</time>
      </trkpt>
      <trkpt lat="49.26302" lon="-0.24662">
        <ele>3.8</ele>
        <time>2022-05-31T15:27:17Z</time>
      </trkpt>
      <trkpt lat="49.26303" lon="-0.24661">
        <ele>3.8</ele>
        <time>2022-05-31T15:27:18Z</time>
      </trkpt>
      <trkpt lat="49.26304" lon="-0.24661">
        <ele>3.8</ele>
        <time>2022-05-31T15:27:19Z</time>
      </trkpt>
      <trkpt lat="49.26304" lon="-0.24661">
        <ele>3.8</ele>
        <time>2022-05-31T15:27:20Z</time>
      </trkpt>
      <trkpt lat="49.26306" lon="-0.24659">
        <ele>3.8</ele>
        <time>2022-05-31T15:27:22Z</time>
      </trkpt>
      <trkpt lat="49.26307" lon="-0.24659">
        <ele>3.8</ele>
        <time>2022-05-31T15:27:23Z</time>
      </trkpt>
      <trkpt lat="49.26308" lon="-0.24658">
        <ele>3.8</ele>
        <time>2022-05-31T15:27:24Z</time>
      </trkpt>
      <trkpt lat="49.26308" lon="-0.24658">
        <ele>3.8</ele>
        <time>2022-05-31T15:27:25Z</time>
      </trkpt>
      <trkpt lat="49.26309" lon="-0.24657">
        <ele>3.8</ele>
        <time>2022-05-31T15:27:26Z</time>
      </trkpt>
      <trkpt lat="49.26309" lon="-0.24657">
        <ele>3.8</ele>
        <time>2022-05-31T15:27:27Z</time>
      </trkpt>
      <trkpt lat="49.2631" lon="-0.24657">
        <ele>3.8</ele>
        <time>2022-05-31T15:27:28Z</time>
      </trkpt>
      <trkpt lat="49.26311" lon="-0.24656">
        <ele>3.8</ele>
        <time>2022-05-31T15:27:29Z</time>
      </trkpt>
      <trkpt lat="49.26312" lon="-0.24655">
        <ele>3.8</ele>
        <time>2022-05-31T15:27:30Z</time>
      </trkpt>
      <trkpt lat="49.26314" lon="-0.24654">
        <ele>3.8</ele>
        <time>2022-05-31T15:27:31Z</time>
      </trkpt>
      <trkpt lat="49.26314" lon="-0.24654">
        <ele>3.8</ele>
        <time>2022-05-31T15:27:32Z</time>
      </trkpt>
      <trkpt lat="49.26315" lon="-0.24653">
        <ele>3.8</ele>
        <time>2022-05-31T15:27:33Z</time>
      </trkpt>
      <trkpt lat="49.26316" lon="-0.24652">
        <ele>3.8</ele>
        <time>2022-05-31T15:27:35Z</time>
      </trkpt>
      <trkpt lat="49.26316" lon="-0.24652">
        <ele>3.8</ele>
        <time>2022-05-31T15:27:36Z</time>
      </trkpt>
      <trkpt lat="49.26317" lon="-0.24651">
        <ele>3.8</ele>
        <time>2022-05-31T15:27:37Z</time>
      </trkpt>
      <trkpt lat="49.26319" lon="-0.24649">
        <ele>3.8</ele>
        <time>2022-05-31T15:27:38Z</time>
      </trkpt>
      <trkpt lat="49.2632" lon="-0.24649">
        <ele>3.8</ele>
        <time>2022-05-31T15:27:39Z</time>
      </trkpt>
      <trkpt lat="49.26321" lon="-0.24648">
        <ele>3.8</ele>
        <time>2022-05-31T15:27:40Z</time>
      </trkpt>
      <trkpt lat="49.26322" lon="-0.24647">
        <ele>3.9</ele>
        <time>2022-05-31T15:27:41Z</time>
      </trkpt>
      <trkpt lat="49.26323" lon="-0.24646">
        <ele>3.9</ele>
        <time>2022-05-31T15:27:42Z</time>
      </trkpt>
      <trkpt lat="49.26324" lon="-0.24644">
        <ele>3.9</ele>
        <time>2022-05-31T15:27:44Z</time>
      </trkpt>
      <trkpt lat="49.26325" lon="-0.24643">
        <ele>3.9</ele>
        <time>2022-05-31T15:27:45Z</time>
      </trkpt>
      <trkpt lat="49.26325" lon="-0.24642">
        <ele>3.9</ele>
        <time>2022-05-31T15:27:46Z</time>
      </trkpt>
      <trkpt lat="49.26326" lon="-0.2464">
        <ele>3.9</ele>
        <time>2022-05-31T15:27:47Z</time>
      </trkpt>
      <trkpt lat="49.26327" lon="-0.24639">
        <ele>3.9</ele>
        <time>2022-05-31T15:27:48Z</time>
      </trkpt>
      <trkpt lat="49.26328" lon="-0.24637">
        <ele>3.9</ele>
        <time>2022-05-31T15:27:49Z</time>
      </trkpt>
      <trkpt lat="49.26329" lon="-0.24637">
        <ele>3.9</ele>
        <time>2022-05-31T15:27:50Z</time>
      </trkpt>
      <trkpt lat="49.2633" lon="-0.24636">
        <ele>3.9</ele>
        <time>2022-05-31T15:27:51Z</time>
      </trkpt>
      <trkpt lat="49.26331" lon="-0.24635">
        <ele>3.9</ele>
        <time>2022-05-31T15:27:53Z</time>
      </trkpt>
      <trkpt lat="49.26332" lon="-0.24634">
        <ele>3.9</ele>
        <time>2022-05-31T15:27:54Z</time>
      </trkpt>
      <trkpt lat="49.26334" lon="-0.24632">
        <ele>3.9</ele>
        <time>2022-05-31T15:27:55Z</time>
      </trkpt>
      <trkpt lat="49.26336" lon="-0.2463">
        <ele>3.9</ele>
        <time>2022-05-31T15:27:56Z</time>
      </trkpt>
      <trkpt lat="49.26337" lon="-0.2463">
        <ele>3.9</ele>
        <time>2022-05-31T15:27:58Z</time>
      </trkpt>
      <trkpt lat="49.26338" lon="-0.24629">
        <ele>3.9</ele>
        <time>2022-05-31T15:27:59Z</time>
      </trkpt>
      <trkpt lat="49.26339" lon="-0.24628">
        <ele>3.9</ele>
        <time>2022-05-31T15:28:00Z</time>
      </trkpt>
      <trkpt lat="49.2634" lon="-0.24627">
        <ele>3.9</ele>
        <time>2022-05-31T15:28:01Z</time>
      </trkpt>
      <trkpt lat="49.26341" lon="-0.24626">
        <ele>3.9</ele>
        <time>2022-05-31T15:28:02Z</time>
      </trkpt>
      <trkpt lat="49.26341" lon="-0.24626">
        <ele>3.9</ele>
        <time>2022-05-31T15:28:03Z</time>
      </trkpt>
      <trkpt lat="49.26342" lon="-0.24625">
        <ele>3.9</ele>
        <time>2022-05-31T15:28:04Z</time>
      </trkpt>
      <trkpt lat="49.26344" lon="-0.24624">
        <ele>3.9</ele>
        <time>2022-05-31T15:28:05Z</time>
      </trkpt>
      <trkpt lat="49.26345" lon="-0.24623">
        <ele>3.9</ele>
        <time>2022-05-31T15:28:07Z</time>
      </trkpt>
      <trkpt lat="49.26346" lon="-0.24622">
        <ele>3.9</ele>
        <time>2022-05-31T15:28:08Z</time>
      </trkpt>
      <trkpt lat="49.26347" lon="-0.24621">
        <ele>3.9</ele>
        <time>2022-05-31T15:28:09Z</time>
      </trkpt>
      <trkpt lat="49.26349" lon="-0.24619">
        <ele>3.9</ele>
        <time>2022-05-31T15:28:10Z</time>
      </trkpt>
      <trkpt lat="49.2635" lon="-0.24619">
        <ele>3.9</ele>
        <time>2022-05-31T15:28:11Z</time>
      </trkpt>
      <trkpt lat="49.26351" lon="-0.24618">
        <ele>3.9</ele>
        <time>2022-05-31T15:28:12Z</time>
      </trkpt>
      <trkpt lat="49.26352" lon="-0.24617">
        <ele>3.9</ele>
        <time>2022-05-31T15:28:13Z</time>
      </trkpt>
      <trkpt lat="49.26353" lon="-0.24617">
        <ele>3.9</ele>
        <time>2022-05-31T15:28:14Z</time>
      </trkpt>
      <trkpt lat="49.26354" lon="-0.24616">
        <ele>3.9</ele>
        <time>2022-05-31T15:28:16Z</time>
      </trkpt>
      <trkpt lat="49.26355" lon="-0.24615">
        <ele>3.9</ele>
        <time>2022-05-31T15:28:17Z</time>
      </trkpt>
      <trkpt lat="49.26356" lon="-0.24614">
        <ele>3.9</ele>
        <time>2022-05-31T15:28:18Z</time>
      </trkpt>
      <trkpt lat="49.26357" lon="-0.24613">
        <ele>3.9</ele>
        <time>2022-05-31T15:28:19Z</time>
      </trkpt>
      <trkpt lat="49.26358" lon="-0.24612">
        <ele>3.9</ele>
        <time>2022-05-31T15:28:20Z</time>
      </trkpt>
      <trkpt lat="49.2636" lon="-0.2461">
        <ele>3.9</ele>
        <time>2022-05-31T15:28:21Z</time>
      </trkpt>
      <trkpt lat="49.26361" lon="-0.24609">
        <ele>3.9</ele>
        <time>2022-05-31T15:28:22Z</time>
      </trkpt>
      <trkpt lat="49.26361" lon="-0.24609">
        <ele>3.9</ele>
        <time>2022-05-31T15:28:23Z</time>
      </trkpt>
      <trkpt lat="49.26362" lon="-0.24608">
        <ele>3.9</ele>
        <time>2022-05-31T15:28:25Z</time>
      </trkpt>
      <trkpt lat="49.26363" lon="-0.24608">
        <ele>4</ele>
        <time>2022-05-31T15:28:26Z</time>
      </trkpt>
      <trkpt lat="49.26364" lon="-0.24607">
        <ele>4</ele>
        <time>2022-05-31T15:28:27Z</time>
      </trkpt>
      <trkpt lat="49.26365" lon="-0.24606">
        <ele>4</ele>
        <time>2022-05-31T15:28:28Z</time>
      </trkpt>
      <trkpt lat="49.26366" lon="-0.24606">
        <ele>4</ele>
        <time>2022-05-31T15:28:29Z</time>
      </trkpt>
      <trkpt lat="49.26367" lon="-0.24605">
        <ele>4</ele>
        <time>2022-05-31T15:28:30Z</time>
      </trkpt>
      <trkpt lat="49.26368" lon="-0.24605">
        <ele>4</ele>
        <time>2022-05-31T15:28:31Z</time>
      </trkpt>
      <trkpt lat="49.26369" lon="-0.24603">
        <ele>4</ele>
        <time>2022-05-31T15:28:32Z</time>
      </trkpt>
      <trkpt lat="49.2637" lon="-0.24603">
        <ele>4</ele>
        <time>2022-05-31T15:28:34Z</time>
      </trkpt>
      <trkpt lat="49.26371" lon="-0.24602">
        <ele>4</ele>
        <time>2022-05-31T15:28:35Z</time>
      </trkpt>
      <trkpt lat="49.26372" lon="-0.24601">
        <ele>4</ele>
        <time>2022-05-31T15:28:36Z</time>
      </trkpt>
      <trkpt lat="49.26373" lon="-0.246">
        <ele>4</ele>
        <time>2022-05-31T15:28:37Z</time>
      </trkpt>
      <trkpt lat="49.26375" lon="-0.24599">
        <ele>4</ele>
        <time>2022-05-31T15:28:38Z</time>
      </trkpt>
      <trkpt lat="49.26376" lon="-0.24597">
        <ele>4</ele>
        <time>2022-05-31T15:28:39Z</time>
      </trkpt>
      <trkpt lat="49.26377" lon="-0.24597">
        <ele>4</ele>
        <time>2022-05-31T15:28:40Z</time>
      </trkpt>
      <trkpt lat="49.26377" lon="-0.24596">
        <ele>4</ele>
        <time>2022-05-31T15:28:41Z</time>
      </trkpt>
      <trkpt lat="49.26379" lon="-0.24595">
        <ele>4</ele>
        <time>2022-05-31T15:28:43Z</time>
      </trkpt>
      <trkpt lat="49.26379" lon="-0.24594">
        <ele>4</ele>
        <time>2022-05-31T15:28:44Z</time>
      </trkpt>
      <trkpt lat="49.2638" lon="-0.24593">
        <ele>4</ele>
        <time>2022-05-31T15:28:45Z</time>
      </trkpt>
      <trkpt lat="49.26382" lon="-0.24592">
        <ele>4</ele>
        <time>2022-05-31T15:28:46Z</time>
      </trkpt>
      <trkpt lat="49.26383" lon="-0.24591">
        <ele>4</ele>
        <time>2022-05-31T15:28:47Z</time>
      </trkpt>
      <trkpt lat="49.26384" lon="-0.2459">
        <ele>4</ele>
        <time>2022-05-31T15:28:48Z</time>
      </trkpt>
      <trkpt lat="49.26384" lon="-0.24589">
        <ele>4</ele>
        <time>2022-05-31T15:28:49Z</time>
      </trkpt>
      <trkpt lat="49.26385" lon="-0.24589">
        <ele>4</ele>
        <time>2022-05-31T15:28:51Z</time>
      </trkpt>
      <trkpt lat="49.26386" lon="-0.24588">
        <ele>4</ele>
        <time>2022-05-31T15:28:52Z</time>
      </trkpt>
      <trkpt lat="49.26387" lon="-0.24587">
        <ele>4</ele>
        <time>2022-05-31T15:28:53Z</time>
      </trkpt>
      <trkpt lat="49.26388" lon="-0.24586">
        <ele>4</ele>
        <time>2022-05-31T15:28:54Z</time>
      </trkpt>
      <trkpt lat="49.2639" lon="-0.24585">
        <ele>4</ele>
        <time>2022-05-31T15:28:55Z</time>
      </trkpt>
      <trkpt lat="49.26391" lon="-0.24585">
        <ele>4</ele>
        <time>2022-05-31T15:28:56Z</time>
      </trkpt>
      <trkpt lat="49.26392" lon="-0.24584">
        <ele>4</ele>
        <time>2022-05-31T15:28:57Z</time>
      </trkpt>
      <trkpt lat="49.26393" lon="-0.24584">
        <ele>4</ele>
        <time>2022-05-31T15:28:59Z</time>
      </trkpt>
      <trkpt lat="49.26394" lon="-0.24584">
        <ele>4</ele>
        <time>2022-05-31T15:29:00Z</time>
      </trkpt>
      <trkpt lat="49.26396" lon="-0.24583">
        <ele>4</ele>
        <time>2022-05-31T15:29:01Z</time>
      </trkpt>
      <trkpt lat="49.26397" lon="-0.24582">
        <ele>4</ele>
        <time>2022-05-31T15:29:02Z</time>
      </trkpt>
      <trkpt lat="49.26398" lon="-0.24582">
        <ele>4</ele>
        <time>2022-05-31T15:29:03Z</time>
      </trkpt>
      <trkpt lat="49.26399" lon="-0.24581">
        <ele>4</ele>
        <time>2022-05-31T15:29:04Z</time>
      </trkpt>
      <trkpt lat="49.26399" lon="-0.24581">
        <ele>4</ele>
        <time>2022-05-31T15:29:05Z</time>
      </trkpt>
      <trkpt lat="49.264" lon="-0.2458">
        <ele>4</ele>
        <time>2022-05-31T15:29:06Z</time>
      </trkpt>
      <trkpt lat="49.26401" lon="-0.24579">
        <ele>4</ele>
        <time>2022-05-31T15:29:07Z</time>
      </trkpt>
      <trkpt lat="49.26403" lon="-0.24578">
        <ele>4</ele>
        <time>2022-05-31T15:29:09Z</time>
      </trkpt>
      <trkpt lat="49.26404" lon="-0.24577">
        <ele>4</ele>
        <time>2022-05-31T15:29:10Z</time>
      </trkpt>
      <trkpt lat="49.26405" lon="-0.24577">
        <ele>4</ele>
        <time>2022-05-31T15:29:11Z</time>
      </trkpt>
      <trkpt lat="49.26406" lon="-0.24576">
        <ele>4</ele>
        <time>2022-05-31T15:29:12Z</time>
      </trkpt>
      <trkpt lat="49.26406" lon="-0.24575">
        <ele>4</ele>
        <time>2022-05-31T15:29:13Z</time>
      </trkpt>
      <trkpt lat="49.26407" lon="-0.24574">
        <ele>4.1</ele>
        <time>2022-05-31T15:29:14Z</time>
      </trkpt>
      <trkpt lat="49.26409" lon="-0.24572">
        <ele>4.1</ele>
        <time>2022-05-31T15:29:15Z</time>
      </trkpt>
      <trkpt lat="49.2641" lon="-0.24572">
        <ele>4.1</ele>
        <time>2022-05-31T15:29:16Z</time>
      </trkpt>
      <trkpt lat="49.26411" lon="-0.24571">
        <ele>4.1</ele>
        <time>2022-05-31T15:29:17Z</time>
      </trkpt>
      <trkpt lat="49.26412" lon="-0.2457">
        <ele>4.1</ele>
        <time>2022-05-31T15:29:18Z</time>
      </trkpt>
      <trkpt lat="49.26413" lon="-0.24569">
        <ele>4.1</ele>
        <time>2022-05-31T15:29:19Z</time>
      </trkpt>
      <trkpt lat="49.26414" lon="-0.24569">
        <ele>4.1</ele>
        <time>2022-05-31T15:29:21Z</time>
      </trkpt>
      <trkpt lat="49.26415" lon="-0.24568">
        <ele>4.1</ele>
        <time>2022-05-31T15:29:22Z</time>
      </trkpt>
      <trkpt lat="49.26416" lon="-0.24567">
        <ele>4.1</ele>
        <time>2022-05-31T15:29:23Z</time>
      </trkpt>
      <trkpt lat="49.26417" lon="-0.24566">
        <ele>4.1</ele>
        <time>2022-05-31T15:29:24Z</time>
      </trkpt>
      <trkpt lat="49.26418" lon="-0.24565">
        <ele>4.1</ele>
        <time>2022-05-31T15:29:25Z</time>
      </trkpt>
      <trkpt lat="49.26419" lon="-0.24563">
        <ele>4.1</ele>
        <time>2022-05-31T15:29:26Z</time>
      </trkpt>
      <trkpt lat="49.2642" lon="-0.24562">
        <ele>4.1</ele>
        <time>2022-05-31T15:29:27Z</time>
      </trkpt>
      <trkpt lat="49.26421" lon="-0.24562">
        <ele>4.1</ele>
        <time>2022-05-31T15:29:28Z</time>
      </trkpt>
      <trkpt lat="49.26423" lon="-0.2456">
        <ele>4.1</ele>
        <time>2022-05-31T15:29:29Z</time>
      </trkpt>
      <trkpt lat="49.26424" lon="-0.2456">
        <ele>4.1</ele>
        <time>2022-05-31T15:29:31Z</time>
      </trkpt>
      <trkpt lat="49.26424" lon="-0.24559">
        <ele>4.1</ele>
        <time>2022-05-31T15:29:32Z</time>
      </trkpt>
      <trkpt lat="49.26425" lon="-0.24558">
        <ele>4.1</ele>
        <time>2022-05-31T15:29:33Z</time>
      </trkpt>
      <trkpt lat="49.26426" lon="-0.24558">
        <ele>4.1</ele>
        <time>2022-05-31T15:29:34Z</time>
      </trkpt>
      <trkpt lat="49.26427" lon="-0.24557">
        <ele>4.1</ele>
        <time>2022-05-31T15:29:35Z</time>
      </trkpt>
      <trkpt lat="49.26428" lon="-0.24557">
        <ele>4.1</ele>
        <time>2022-05-31T15:29:36Z</time>
      </trkpt>
      <trkpt lat="49.26428" lon="-0.24556">
        <ele>4.1</ele>
        <time>2022-05-31T15:29:37Z</time>
      </trkpt>
      <trkpt lat="49.26429" lon="-0.24556">
        <ele>4.1</ele>
        <time>2022-05-31T15:29:38Z</time>
      </trkpt>
      <trkpt lat="49.2643" lon="-0.24555">
        <ele>4.1</ele>
        <time>2022-05-31T15:29:39Z</time>
      </trkpt>
      <trkpt lat="49.26431" lon="-0.24554">
        <ele>4.1</ele>
        <time>2022-05-31T15:29:41Z</time>
      </trkpt>
      <trkpt lat="49.26432" lon="-0.24553">
        <ele>4.1</ele>
        <time>2022-05-31T15:29:42Z</time>
      </trkpt>
      <trkpt lat="49.26433" lon="-0.24552">
        <ele>4.1</ele>
        <time>2022-05-31T15:29:43Z</time>
      </trkpt>
      <trkpt lat="49.26435" lon="-0.24551">
        <ele>4.1</ele>
        <time>2022-05-31T15:29:44Z</time>
      </trkpt>
      <trkpt lat="49.26436" lon="-0.2455">
        <ele>4.1</ele>
        <time>2022-05-31T15:29:45Z</time>
      </trkpt>
      <trkpt lat="49.26437" lon="-0.24549">
        <ele>4.1</ele>
        <time>2022-05-31T15:29:46Z</time>
      </trkpt>
      <trkpt lat="49.26438" lon="-0.24548">
        <ele>4.1</ele>
        <time>2022-05-31T15:29:47Z</time>
      </trkpt>
      <trkpt lat="49.26439" lon="-0.24547">
        <ele>4.1</ele>
        <time>2022-05-31T15:29:48Z</time>
      </trkpt>
      <trkpt lat="49.2644" lon="-0.24547">
        <ele>4.1</ele>
        <time>2022-05-31T15:29:49Z</time>
      </trkpt>
      <trkpt lat="49.26441" lon="-0.24546">
        <ele>4.1</ele>
        <time>2022-05-31T15:29:51Z</time>
      </trkpt>
      <trkpt lat="49.26442" lon="-0.24545">
        <ele>4.1</ele>
        <time>2022-05-31T15:29:52Z</time>
      </trkpt>
      <trkpt lat="49.26443" lon="-0.24544">
        <ele>4.1</ele>
        <time>2022-05-31T15:29:53Z</time>
      </trkpt>
      <trkpt lat="49.26443" lon="-0.24544">
        <ele>4.1</ele>
        <time>2022-05-31T15:29:54Z</time>
      </trkpt>
      <trkpt lat="49.26444" lon="-0.24542">
        <ele>4.1</ele>
        <time>2022-05-31T15:29:55Z</time>
      </trkpt>
      <trkpt lat="49.26446" lon="-0.24541">
        <ele>4.1</ele>
        <time>2022-05-31T15:29:56Z</time>
      </trkpt>
      <trkpt lat="49.26447" lon="-0.2454">
        <ele>4.1</ele>
        <time>2022-05-31T15:29:57Z</time>
      </trkpt>
      <trkpt lat="49.26448" lon="-0.2454">
        <ele>4.1</ele>
        <time>2022-05-31T15:29:58Z</time>
      </trkpt>
      <trkpt lat="49.26449" lon="-0.24538">
        <ele>4.1</ele>
        <time>2022-05-31T15:30:00Z</time>
      </trkpt>
      <trkpt lat="49.2645" lon="-0.24538">
        <ele>4.1</ele>
        <time>2022-05-31T15:30:01Z</time>
      </trkpt>
      <trkpt lat="49.2645" lon="-0.24537">
        <ele>4.1</ele>
        <time>2022-05-31T15:30:02Z</time>
      </trkpt>
      <trkpt lat="49.26451" lon="-0.24536">
        <ele>4.1</ele>
        <time>2022-05-31T15:30:03Z</time>
      </trkpt>
      <trkpt lat="49.26453" lon="-0.24534">
        <ele>4.1</ele>
        <time>2022-05-31T15:30:04Z</time>
      </trkpt>
      <trkpt lat="49.26453" lon="-0.24534">
        <ele>4.1</ele>
        <time>2022-05-31T15:30:05Z</time>
      </trkpt>
      <trkpt lat="49.26454" lon="-0.24533">
        <ele>4.1</ele>
        <time>2022-05-31T15:30:06Z</time>
      </trkpt>
      <trkpt lat="49.26455" lon="-0.24532">
        <ele>4.1</ele>
        <time>2022-05-31T15:30:07Z</time>
      </trkpt>
      <trkpt lat="49.26456" lon="-0.24531">
        <ele>4.1</ele>
        <time>2022-05-31T15:30:08Z</time>
      </trkpt>
      <trkpt lat="49.26458" lon="-0.2453">
        <ele>4.1</ele>
        <time>2022-05-31T15:30:10Z</time>
      </trkpt>
      <trkpt lat="49.26459" lon="-0.24529">
        <ele>4.1</ele>
        <time>2022-05-31T15:30:11Z</time>
      </trkpt>
      <trkpt lat="49.2646" lon="-0.24528">
        <ele>4.1</ele>
        <time>2022-05-31T15:30:12Z</time>
      </trkpt>
      <trkpt lat="49.26461" lon="-0.24527">
        <ele>4.1</ele>
        <time>2022-05-31T15:30:13Z</time>
      </trkpt>
      <trkpt lat="49.26463" lon="-0.24525">
        <ele>4.1</ele>
        <time>2022-05-31T15:30:14Z</time>
      </trkpt>
      <trkpt lat="49.26463" lon="-0.24525">
        <ele>4.1</ele>
        <time>2022-05-31T15:30:15Z</time>
      </trkpt>
      <trkpt lat="49.26464" lon="-0.24524">
        <ele>4.1</ele>
        <time>2022-05-31T15:30:16Z</time>
      </trkpt>
      <trkpt lat="49.26466" lon="-0.24523">
        <ele>4.1</ele>
        <time>2022-05-31T15:30:17Z</time>
      </trkpt>
      <trkpt lat="49.26466" lon="-0.24522">
        <ele>4.1</ele>
        <time>2022-05-31T15:30:18Z</time>
      </trkpt>
      <trkpt lat="49.26467" lon="-0.24521">
        <ele>4.1</ele>
        <time>2022-05-31T15:30:20Z</time>
      </trkpt>
      <trkpt lat="49.26468" lon="-0.2452">
        <ele>4.1</ele>
        <time>2022-05-31T15:30:21Z</time>
      </trkpt>
      <trkpt lat="49.26469" lon="-0.24519">
        <ele>4.1</ele>
        <time>2022-05-31T15:30:22Z</time>
      </trkpt>
      <trkpt lat="49.2647" lon="-0.24518">
        <ele>4.1</ele>
        <time>2022-05-31T15:30:23Z</time>
      </trkpt>
      <trkpt lat="49.26471" lon="-0.24517">
        <ele>4.1</ele>
        <time>2022-05-31T15:30:24Z</time>
      </trkpt>
      <trkpt lat="49.26472" lon="-0.24516">
        <ele>4.1</ele>
        <time>2022-05-31T15:30:25Z</time>
      </trkpt>
      <trkpt lat="49.26473" lon="-0.24515">
        <ele>4.1</ele>
        <time>2022-05-31T15:30:26Z</time>
      </trkpt>
      <trkpt lat="49.26474" lon="-0.24514">
        <ele>4.1</ele>
        <time>2022-05-31T15:30:27Z</time>
      </trkpt>
      <trkpt lat="49.26475" lon="-0.24513">
        <ele>4.1</ele>
        <time>2022-05-31T15:30:28Z</time>
      </trkpt>
      <trkpt lat="49.26476" lon="-0.24512">
        <ele>4.1</ele>
        <time>2022-05-31T15:30:30Z</time>
      </trkpt>
      <trkpt lat="49.26478" lon="-0.2451">
        <ele>4.1</ele>
        <time>2022-05-31T15:30:31Z</time>
      </trkpt>
      <trkpt lat="49.26479" lon="-0.2451">
        <ele>4.1</ele>
        <time>2022-05-31T15:30:32Z</time>
      </trkpt>
      <trkpt lat="49.26479" lon="-0.24509">
        <ele>4.1</ele>
        <time>2022-05-31T15:30:33Z</time>
      </trkpt>
      <trkpt lat="49.2648" lon="-0.24507">
        <ele>4.1</ele>
        <time>2022-05-31T15:30:34Z</time>
      </trkpt>
      <trkpt lat="49.26481" lon="-0.24506">
        <ele>4.1</ele>
        <time>2022-05-31T15:30:35Z</time>
      </trkpt>
      <trkpt lat="49.26483" lon="-0.24504">
        <ele>4.1</ele>
        <time>2022-05-31T15:30:36Z</time>
      </trkpt>
      <trkpt lat="49.26484" lon="-0.24504">
        <ele>4.1</ele>
        <time>2022-05-31T15:30:37Z</time>
      </trkpt>
      <trkpt lat="49.26484" lon="-0.24503">
        <ele>4.1</ele>
        <time>2022-05-31T15:30:39Z</time>
      </trkpt>
      <trkpt lat="49.26485" lon="-0.24502">
        <ele>4.1</ele>
        <time>2022-05-31T15:30:40Z</time>
      </trkpt>
      <trkpt lat="49.26486" lon="-0.24501">
        <ele>4.1</ele>
        <time>2022-05-31T15:30:41Z</time>
      </trkpt>
      <trkpt lat="49.26487" lon="-0.24501">
        <ele>4.1</ele>
        <time>2022-05-31T15:30:42Z</time>
      </trkpt>
      <trkpt lat="49.26488" lon="-0.245">
        <ele>4.1</ele>
        <time>2022-05-31T15:30:43Z</time>
      </trkpt>
      <trkpt lat="49.26489" lon="-0.24498">
        <ele>4.1</ele>
        <time>2022-05-31T15:30:44Z</time>
      </trkpt>
      <trkpt lat="49.2649" lon="-0.24498">
        <ele>4.1</ele>
        <time>2022-05-31T15:30:45Z</time>
      </trkpt>
      <trkpt lat="49.26491" lon="-0.24497">
        <ele>4.1</ele>
        <time>2022-05-31T15:30:46Z</time>
      </trkpt>
      <trkpt lat="49.26492" lon="-0.24497">
        <ele>4.1</ele>
        <time>2022-05-31T15:30:47Z</time>
      </trkpt>
      <trkpt lat="49.26493" lon="-0.24496">
        <ele>4.1</ele>
        <time>2022-05-31T15:30:49Z</time>
      </trkpt>
      <trkpt lat="49.26495" lon="-0.24496">
        <ele>4.1</ele>
        <time>2022-05-31T15:30:50Z</time>
      </trkpt>
      <trkpt lat="49.26496" lon="-0.24496">
        <ele>4.1</ele>
        <time>2022-05-31T15:30:51Z</time>
      </trkpt>
      <trkpt lat="49.26497" lon="-0.24495">
        <ele>4.1</ele>
        <time>2022-05-31T15:30:52Z</time>
      </trkpt>
      <trkpt lat="49.26498" lon="-0.24495">
        <ele>4.1</ele>
        <time>2022-05-31T15:30:53Z</time>
      </trkpt>
      <trkpt lat="49.26499" lon="-0.24494">
        <ele>4.1</ele>
        <time>2022-05-31T15:30:54Z</time>
      </trkpt>
      <trkpt lat="49.265" lon="-0.24494">
        <ele>4.1</ele>
        <time>2022-05-31T15:30:55Z</time>
      </trkpt>
      <trkpt lat="49.26501" lon="-0.24494">
        <ele>4.1</ele>
        <time>2022-05-31T15:30:56Z</time>
      </trkpt>
      <trkpt lat="49.26503" lon="-0.24493">
        <ele>4.1</ele>
        <time>2022-05-31T15:30:57Z</time>
      </trkpt>
      <trkpt lat="49.26504" lon="-0.24492">
        <ele>4.1</ele>
        <time>2022-05-31T15:30:59Z</time>
      </trkpt>
      <trkpt lat="49.26505" lon="-0.24492">
        <ele>4.1</ele>
        <time>2022-05-31T15:31:00Z</time>
      </trkpt>
      <trkpt lat="49.26506" lon="-0.24491">
        <ele>4.1</ele>
        <time>2022-05-31T15:31:01Z</time>
      </trkpt>
      <trkpt lat="49.26507" lon="-0.24491">
        <ele>4.1</ele>
        <time>2022-05-31T15:31:02Z</time>
      </trkpt>
      <trkpt lat="49.26508" lon="-0.2449">
        <ele>4.1</ele>
        <time>2022-05-31T15:31:03Z</time>
      </trkpt>
      <trkpt lat="49.2651" lon="-0.24489">
        <ele>4.1</ele>
        <time>2022-05-31T15:31:04Z</time>
      </trkpt>
      <trkpt lat="49.26511" lon="-0.24488">
        <ele>4.1</ele>
        <time>2022-05-31T15:31:05Z</time>
      </trkpt>
      <trkpt lat="49.26512" lon="-0.24487">
        <ele>4.1</ele>
        <time>2022-05-31T15:31:06Z</time>
      </trkpt>
      <trkpt lat="49.26513" lon="-0.24486">
        <ele>4.1</ele>
        <time>2022-05-31T15:31:08Z</time>
      </trkpt>
      <trkpt lat="49.26514" lon="-0.24485">
        <ele>4.1</ele>
        <time>2022-05-31T15:31:09Z</time>
      </trkpt>
      <trkpt lat="49.26516" lon="-0.24485">
        <ele>4.1</ele>
        <time>2022-05-31T15:31:10Z</time>
      </trkpt>
      <trkpt lat="49.26516" lon="-0.24484">
        <ele>4.1</ele>
        <time>2022-05-31T15:31:11Z</time>
      </trkpt>
      <trkpt lat="49.26517" lon="-0.24482">
        <ele>4.1</ele>
        <time>2022-05-31T15:31:12Z</time>
      </trkpt>
      <trkpt lat="49.26519" lon="-0.24481">
        <ele>4.1</ele>
        <time>2022-05-31T15:31:13Z</time>
      </trkpt>
      <trkpt lat="49.2652" lon="-0.24481">
        <ele>4.1</ele>
        <time>2022-05-31T15:31:14Z</time>
      </trkpt>
      <trkpt lat="49.26521" lon="-0.2448">
        <ele>4.1</ele>
        <time>2022-05-31T15:31:15Z</time>
      </trkpt>
      <trkpt lat="49.26522" lon="-0.24479">
        <ele>4.1</ele>
        <time>2022-05-31T15:31:16Z</time>
      </trkpt>
      <trkpt lat="49.26523" lon="-0.24478">
        <ele>4.1</ele>
        <time>2022-05-31T15:31:17Z</time>
      </trkpt>
      <trkpt lat="49.26525" lon="-0.24476">
        <ele>4.1</ele>
        <time>2022-05-31T15:31:19Z</time>
      </trkpt>
      <trkpt lat="49.26525" lon="-0.24475">
        <ele>4.1</ele>
        <time>2022-05-31T15:31:20Z</time>
      </trkpt>
      <trkpt lat="49.26526" lon="-0.24475">
        <ele>4.1</ele>
        <time>2022-05-31T15:31:21Z</time>
      </trkpt>
      <trkpt lat="49.26526" lon="-0.24474">
        <ele>4.1</ele>
        <time>2022-05-31T15:31:22Z</time>
      </trkpt>
      <trkpt lat="49.26527" lon="-0.24473">
        <ele>4.1</ele>
        <time>2022-05-31T15:31:23Z</time>
      </trkpt>
      <trkpt lat="49.26528" lon="-0.24472">
        <ele>4.1</ele>
        <time>2022-05-31T15:31:24Z</time>
      </trkpt>
      <trkpt lat="49.26529" lon="-0.24472">
        <ele>4.1</ele>
        <time>2022-05-31T15:31:25Z</time>
      </trkpt>
      <trkpt lat="49.2653" lon="-0.24471">
        <ele>4.1</ele>
        <time>2022-05-31T15:31:26Z</time>
      </trkpt>
      <trkpt lat="49.26531" lon="-0.2447">
        <ele>4.1</ele>
        <time>2022-05-31T15:31:28Z</time>
      </trkpt>
      <trkpt lat="49.26532" lon="-0.24469">
        <ele>4.1</ele>
        <time>2022-05-31T15:31:29Z</time>
      </trkpt>
      <trkpt lat="49.26534" lon="-0.24467">
        <ele>4.1</ele>
        <time>2022-05-31T15:31:30Z</time>
      </trkpt>
      <trkpt lat="49.26535" lon="-0.24466">
        <ele>4.1</ele>
        <time>2022-05-31T15:31:31Z</time>
      </trkpt>
      <trkpt lat="49.26537" lon="-0.24464">
        <ele>4.1</ele>
        <time>2022-05-31T15:31:33Z</time>
      </trkpt>
      <trkpt lat="49.26537" lon="-0.24464">
        <ele>4.1</ele>
        <time>2022-05-31T15:31:34Z</time>
      </trkpt>
      <trkpt lat="49.26538" lon="-0.24463">
        <ele>4.1</ele>
        <time>2022-05-31T15:31:35Z</time>
      </trkpt>
      <trkpt lat="49.2654" lon="-0.24463">
        <ele>4.1</ele>
        <time>2022-05-31T15:31:36Z</time>
      </trkpt>
      <trkpt lat="49.26541" lon="-0.24462">
        <ele>4.1</ele>
        <time>2022-05-31T15:31:37Z</time>
      </trkpt>
      <trkpt lat="49.26543" lon="-0.24461">
        <ele>4.1</ele>
        <time>2022-05-31T15:31:38Z</time>
      </trkpt>
      <trkpt lat="49.26544" lon="-0.2446">
        <ele>4.1</ele>
        <time>2022-05-31T15:31:39Z</time>
      </trkpt>
      <trkpt lat="49.26545" lon="-0.24459">
        <ele>4.1</ele>
        <time>2022-05-31T15:31:41Z</time>
      </trkpt>
      <trkpt lat="49.26544" lon="-0.24458">
        <ele>4.1</ele>
        <time>2022-05-31T15:31:42Z</time>
      </trkpt>
      <trkpt lat="49.26545" lon="-0.24456">
        <ele>4.1</ele>
        <time>2022-05-31T15:31:43Z</time>
      </trkpt>
      <trkpt lat="49.26545" lon="-0.24453">
        <ele>4.1</ele>
        <time>2022-05-31T15:31:45Z</time>
      </trkpt>
      <trkpt lat="49.26545" lon="-0.24452">
        <ele>4.1</ele>
        <time>2022-05-31T15:31:46Z</time>
      </trkpt>
      <trkpt lat="49.26545" lon="-0.24451">
        <ele>4.1</ele>
        <time>2022-05-31T15:31:47Z</time>
      </trkpt>
      <trkpt lat="49.26544" lon="-0.24452">
        <ele>4.1</ele>
        <time>2022-05-31T15:31:48Z</time>
      </trkpt>
      <trkpt lat="49.26545" lon="-0.24451">
        <ele>4.1</ele>
        <time>2022-05-31T15:31:49Z</time>
      </trkpt>
      <trkpt lat="49.26545" lon="-0.24451">
        <ele>4.1</ele>
        <time>2022-05-31T15:31:51Z</time>
      </trkpt>
      <trkpt lat="49.26546" lon="-0.2445">
        <ele>4.1</ele>
        <time>2022-05-31T15:31:52Z</time>
      </trkpt>
      <trkpt lat="49.26547" lon="-0.24449">
        <ele>4.1</ele>
        <time>2022-05-31T15:31:53Z</time>
      </trkpt>
      <trkpt lat="49.26548" lon="-0.24449">
        <ele>4.1</ele>
        <time>2022-05-31T15:31:54Z</time>
      </trkpt>
      <trkpt lat="49.26549" lon="-0.24449">
        <ele>4.1</ele>
        <time>2022-05-31T15:31:55Z</time>
      </trkpt>
      <trkpt lat="49.26549" lon="-0.24448">
        <ele>4.1</ele>
        <time>2022-05-31T15:31:56Z</time>
      </trkpt>
      <trkpt lat="49.2655" lon="-0.24448">
        <ele>4.1</ele>
        <time>2022-05-31T15:31:57Z</time>
      </trkpt>
      <trkpt lat="49.26551" lon="-0.24448">
        <ele>4.1</ele>
        <time>2022-05-31T15:31:59Z</time>
      </trkpt>
      <trkpt lat="49.26552" lon="-0.24448">
        <ele>4.1</ele>
        <time>2022-05-31T15:32:00Z</time>
      </trkpt>
      <trkpt lat="49.26553" lon="-0.24447">
        <ele>4.1</ele>
        <time>2022-05-31T15:32:01Z</time>
      </trkpt>
      <trkpt lat="49.26553" lon="-0.24446">
        <ele>4.1</ele>
        <time>2022-05-31T15:32:02Z</time>
      </trkpt>
      <trkpt lat="49.26554" lon="-0.24446">
        <ele>4.1</ele>
        <time>2022-05-31T15:32:03Z</time>
      </trkpt>
      <trkpt lat="49.26555" lon="-0.24445">
        <ele>4.1</ele>
        <time>2022-05-31T15:32:04Z</time>
      </trkpt>
      <trkpt lat="49.26556" lon="-0.24444">
        <ele>4.2</ele>
        <time>2022-05-31T15:32:05Z</time>
      </trkpt>
      <trkpt lat="49.26557" lon="-0.24443">
        <ele>4.2</ele>
        <time>2022-05-31T15:32:07Z</time>
      </trkpt>
      <trkpt lat="49.26558" lon="-0.24442">
        <ele>4.2</ele>
        <time>2022-05-31T15:32:08Z</time>
      </trkpt>
      <trkpt lat="49.26559" lon="-0.24441">
        <ele>4.2</ele>
        <time>2022-05-31T15:32:09Z</time>
      </trkpt>
      <trkpt lat="49.2656" lon="-0.24441">
        <ele>4.2</ele>
        <time>2022-05-31T15:32:10Z</time>
      </trkpt>
      <trkpt lat="49.26561" lon="-0.2444">
        <ele>4.2</ele>
        <time>2022-05-31T15:32:11Z</time>
      </trkpt>
      <trkpt lat="49.26562" lon="-0.24439">
        <ele>4.2</ele>
        <time>2022-05-31T15:32:12Z</time>
      </trkpt>
      <trkpt lat="49.26563" lon="-0.24438">
        <ele>4.2</ele>
        <time>2022-05-31T15:32:14Z</time>
      </trkpt>
      <trkpt lat="49.26564" lon="-0.24436">
        <ele>4.2</ele>
        <time>2022-05-31T15:32:15Z</time>
      </trkpt>
      <trkpt lat="49.26565" lon="-0.24436">
        <ele>4.2</ele>
        <time>2022-05-31T15:32:16Z</time>
      </trkpt>
      <trkpt lat="49.26565" lon="-0.24435">
        <ele>4.2</ele>
        <time>2022-05-31T15:32:17Z</time>
      </trkpt>
      <trkpt lat="49.26567" lon="-0.24434">
        <ele>4.2</ele>
        <time>2022-05-31T15:32:18Z</time>
      </trkpt>
      <trkpt lat="49.26568" lon="-0.24434">
        <ele>4.2</ele>
        <time>2022-05-31T15:32:19Z</time>
      </trkpt>
      <trkpt lat="49.26569" lon="-0.24433">
        <ele>4.2</ele>
        <time>2022-05-31T15:32:20Z</time>
      </trkpt>
      <trkpt lat="49.2657" lon="-0.24432">
        <ele>4.2</ele>
        <time>2022-05-31T15:32:21Z</time>
      </trkpt>
      <trkpt lat="49.26571" lon="-0.24432">
        <ele>4.2</ele>
        <time>2022-05-31T15:32:22Z</time>
      </trkpt>
      <trkpt lat="49.26572" lon="-0.24431">
        <ele>4.2</ele>
        <time>2022-05-31T15:32:24Z</time>
      </trkpt>
      <trkpt lat="49.26573" lon="-0.24431">
        <ele>4.2</ele>
        <time>2022-05-31T15:32:25Z</time>
      </trkpt>
      <trkpt lat="49.26574" lon="-0.2443">
        <ele>4.2</ele>
        <time>2022-05-31T15:32:26Z</time>
      </trkpt>
      <trkpt lat="49.26576" lon="-0.2443">
        <ele>4.2</ele>
        <time>2022-05-31T15:32:27Z</time>
      </trkpt>
      <trkpt lat="49.26577" lon="-0.2443">
        <ele>4.2</ele>
        <time>2022-05-31T15:32:28Z</time>
      </trkpt>
      <trkpt lat="49.26578" lon="-0.24429">
        <ele>4.2</ele>
        <time>2022-05-31T15:32:29Z</time>
      </trkpt>
      <trkpt lat="49.26579" lon="-0.24429">
        <ele>4.2</ele>
        <time>2022-05-31T15:32:30Z</time>
      </trkpt>
      <trkpt lat="49.2658" lon="-0.24428">
        <ele>4.2</ele>
        <time>2022-05-31T15:32:31Z</time>
      </trkpt>
      <trkpt lat="49.26581" lon="-0.24427">
        <ele>4.2</ele>
        <time>2022-05-31T15:32:33Z</time>
      </trkpt>
      <trkpt lat="49.26582" lon="-0.24427">
        <ele>4.2</ele>
        <time>2022-05-31T15:32:34Z</time>
      </trkpt>
      <trkpt lat="49.26583" lon="-0.24426">
        <ele>4.2</ele>
        <time>2022-05-31T15:32:35Z</time>
      </trkpt>
      <trkpt lat="49.26584" lon="-0.24425">
        <ele>4.2</ele>
        <time>2022-05-31T15:32:36Z</time>
      </trkpt>
      <trkpt lat="49.26585" lon="-0.24424">
        <ele>4.2</ele>
        <time>2022-05-31T15:32:37Z</time>
      </trkpt>
      <trkpt lat="49.26586" lon="-0.24423">
        <ele>4.2</ele>
        <time>2022-05-31T15:32:38Z</time>
      </trkpt>
      <trkpt lat="49.26587" lon="-0.24421">
        <ele>4.2</ele>
        <time>2022-05-31T15:32:39Z</time>
      </trkpt>
      <trkpt lat="49.26587" lon="-0.2442">
        <ele>4.2</ele>
        <time>2022-05-31T15:32:40Z</time>
      </trkpt>
      <trkpt lat="49.26588" lon="-0.24419">
        <ele>4.2</ele>
        <time>2022-05-31T15:32:42Z</time>
      </trkpt>
      <trkpt lat="49.26589" lon="-0.24418">
        <ele>4.2</ele>
        <time>2022-05-31T15:32:43Z</time>
      </trkpt>
      <trkpt lat="49.2659" lon="-0.24417">
        <ele>4.2</ele>
        <time>2022-05-31T15:32:44Z</time>
      </trkpt>
      <trkpt lat="49.26592" lon="-0.24416">
        <ele>4.2</ele>
        <time>2022-05-31T15:32:45Z</time>
      </trkpt>
      <trkpt lat="49.26592" lon="-0.24415">
        <ele>4.2</ele>
        <time>2022-05-31T15:32:46Z</time>
      </trkpt>
      <trkpt lat="49.26593" lon="-0.24414">
        <ele>4.3</ele>
        <time>2022-05-31T15:32:47Z</time>
      </trkpt>
      <trkpt lat="49.26594" lon="-0.24414">
        <ele>4.3</ele>
        <time>2022-05-31T15:32:48Z</time>
      </trkpt>
      <trkpt lat="49.26595" lon="-0.24411">
        <ele>4.3</ele>
        <time>2022-05-31T15:32:49Z</time>
      </trkpt>
      <trkpt lat="49.26596" lon="-0.24409">
        <ele>4.3</ele>
        <time>2022-05-31T15:32:51Z</time>
      </trkpt>
      <trkpt lat="49.26596" lon="-0.24408">
        <ele>4.3</ele>
        <time>2022-05-31T15:32:52Z</time>
      </trkpt>
      <trkpt lat="49.26596" lon="-0.24406">
        <ele>4.3</ele>
        <time>2022-05-31T15:32:53Z</time>
      </trkpt>
      <trkpt lat="49.26597" lon="-0.24405">
        <ele>4.3</ele>
        <time>2022-05-31T15:32:54Z</time>
      </trkpt>
      <trkpt lat="49.26598" lon="-0.24402">
        <ele>4.4</ele>
        <time>2022-05-31T15:32:55Z</time>
      </trkpt>
      <trkpt lat="49.26598" lon="-0.24401">
        <ele>4.4</ele>
        <time>2022-05-31T15:32:57Z</time>
      </trkpt>
      <trkpt lat="49.26598" lon="-0.24399">
        <ele>4.4</ele>
        <time>2022-05-31T15:32:58Z</time>
      </trkpt>
      <trkpt lat="49.26599" lon="-0.24398">
        <ele>4.4</ele>
        <time>2022-05-31T15:33:00Z</time>
      </trkpt>
      <trkpt lat="49.266" lon="-0.24397">
        <ele>4.4</ele>
        <time>2022-05-31T15:33:01Z</time>
      </trkpt>
      <trkpt lat="49.26601" lon="-0.24396">
        <ele>4.4</ele>
        <time>2022-05-31T15:33:03Z</time>
      </trkpt>
      <trkpt lat="49.26601" lon="-0.24395">
        <ele>4.4</ele>
        <time>2022-05-31T15:33:04Z</time>
      </trkpt>
      <trkpt lat="49.26601" lon="-0.24395">
        <ele>4.4</ele>
        <time>2022-05-31T15:33:05Z</time>
      </trkpt>
      <trkpt lat="49.26601" lon="-0.24395">
        <ele>4.4</ele>
        <time>2022-05-31T15:33:06Z</time>
      </trkpt>
      <trkpt lat="49.266" lon="-0.24395">
        <ele>4.4</ele>
        <time>2022-05-31T15:33:07Z</time>
      </trkpt>
      <trkpt lat="49.266" lon="-0.24395">
        <ele>4.4</ele>
        <time>2022-05-31T15:33:08Z</time>
      </trkpt>
      <trkpt lat="49.266" lon="-0.24395">
        <ele>4.4</ele>
        <time>2022-05-31T15:33:09Z</time>
      </trkpt>
      <trkpt lat="49.266" lon="-0.24395">
        <ele>4.4</ele>
        <time>2022-05-31T15:33:10Z</time>
      </trkpt>
      <trkpt lat="49.26599" lon="-0.24395">
        <ele>4.4</ele>
        <time>2022-05-31T15:33:11Z</time>
      </trkpt>
      <trkpt lat="49.26599" lon="-0.24395">
        <ele>4.4</ele>
        <time>2022-05-31T15:33:12Z</time>
      </trkpt>
      <trkpt lat="49.26599" lon="-0.24395">
        <ele>4.4</ele>
        <time>2022-05-31T15:33:13Z</time>
      </trkpt>
      <trkpt lat="49.26599" lon="-0.24395">
        <ele>4.4</ele>
        <time>2022-05-31T15:33:14Z</time>
      </trkpt>
      <trkpt lat="49.26599" lon="-0.24395">
        <ele>4.5</ele>
        <time>2022-05-31T15:33:15Z</time>
      </trkpt>
      <trkpt lat="49.26598" lon="-0.24395">
        <ele>4.5</ele>
        <time>2022-05-31T15:33:16Z</time>
      </trkpt>
      <trkpt lat="49.26598" lon="-0.24395">
        <ele>4.5</ele>
        <time>2022-05-31T15:33:18Z</time>
      </trkpt>
      <trkpt lat="49.26598" lon="-0.24395">
        <ele>4.5</ele>
        <time>2022-05-31T15:33:19Z</time>
      </trkpt>
      <trkpt lat="49.26598" lon="-0.24395">
        <ele>4.5</ele>
        <time>2022-05-31T15:33:20Z</time>
      </trkpt>
      <trkpt lat="49.26597" lon="-0.24395">
        <ele>4.5</ele>
        <time>2022-05-31T15:33:21Z</time>
      </trkpt>
      <trkpt lat="49.26594" lon="-0.24393">
        <ele>4.5</ele>
        <time>2022-05-31T15:33:23Z</time>
      </trkpt>
      <trkpt lat="49.26594" lon="-0.24392">
        <ele>4.5</ele>
        <time>2022-05-31T15:33:24Z</time>
      </trkpt>
      <trkpt lat="49.26592" lon="-0.24391">
        <ele>4.5</ele>
        <time>2022-05-31T15:33:25Z</time>
      </trkpt>
      <trkpt lat="49.26592" lon="-0.24389">
        <ele>4.5</ele>
        <time>2022-05-31T15:33:26Z</time>
      </trkpt>
      <trkpt lat="49.26591" lon="-0.24387">
        <ele>4.6</ele>
        <time>2022-05-31T15:33:27Z</time>
      </trkpt>
      <trkpt lat="49.26591" lon="-0.24386">
        <ele>4.6</ele>
        <time>2022-05-31T15:33:29Z</time>
      </trkpt>
      <trkpt lat="49.26591" lon="-0.24385">
        <ele>4.6</ele>
        <time>2022-05-31T15:33:30Z</time>
      </trkpt>
      <trkpt lat="49.26591" lon="-0.24383">
        <ele>4.6</ele>
        <time>2022-05-31T15:33:31Z</time>
      </trkpt>
      <trkpt lat="49.2659" lon="-0.24382">
        <ele>4.6</ele>
        <time>2022-05-31T15:33:32Z</time>
      </trkpt>
      <trkpt lat="49.2659" lon="-0.2438">
        <ele>4.6</ele>
        <time>2022-05-31T15:33:34Z</time>
      </trkpt>
      <trkpt lat="49.2659" lon="-0.24379">
        <ele>4.6</ele>
        <time>2022-05-31T15:33:35Z</time>
      </trkpt>
      <trkpt lat="49.2659" lon="-0.24378">
        <ele>4.6</ele>
        <time>2022-05-31T15:33:36Z</time>
      </trkpt>
      <trkpt lat="49.26589" lon="-0.24376">
        <ele>4.6</ele>
        <time>2022-05-31T15:33:37Z</time>
      </trkpt>
      <trkpt lat="49.26589" lon="-0.24374">
        <ele>4.6</ele>
        <time>2022-05-31T15:33:38Z</time>
      </trkpt>
      <trkpt lat="49.26588" lon="-0.24371">
        <ele>4.6</ele>
        <time>2022-05-31T15:33:39Z</time>
      </trkpt>
      <trkpt lat="49.26588" lon="-0.24369">
        <ele>4.6</ele>
        <time>2022-05-31T15:33:40Z</time>
      </trkpt>
      <trkpt lat="49.26587" lon="-0.24368">
        <ele>4.6</ele>
        <time>2022-05-31T15:33:42Z</time>
      </trkpt>
      <trkpt lat="49.26587" lon="-0.24366">
        <ele>4.6</ele>
        <time>2022-05-31T15:33:43Z</time>
      </trkpt>
      <trkpt lat="49.26587" lon="-0.24364">
        <ele>4.6</ele>
        <time>2022-05-31T15:33:44Z</time>
      </trkpt>
      <trkpt lat="49.26586" lon="-0.24362">
        <ele>4.6</ele>
        <time>2022-05-31T15:33:45Z</time>
      </trkpt>
      <trkpt lat="49.26586" lon="-0.2436">
        <ele>4.6</ele>
        <time>2022-05-31T15:33:46Z</time>
      </trkpt>
      <trkpt lat="49.26585" lon="-0.24358">
        <ele>4.6</ele>
        <time>2022-05-31T15:33:48Z</time>
      </trkpt>
      <trkpt lat="49.26584" lon="-0.24356">
        <ele>4.6</ele>
        <time>2022-05-31T15:33:49Z</time>
      </trkpt>
      <trkpt lat="49.26584" lon="-0.24355">
        <ele>4.6</ele>
        <time>2022-05-31T15:33:50Z</time>
      </trkpt>
      <trkpt lat="49.26583" lon="-0.24353">
        <ele>4.6</ele>
        <time>2022-05-31T15:33:51Z</time>
      </trkpt>
      <trkpt lat="49.26583" lon="-0.24351">
        <ele>4.6</ele>
        <time>2022-05-31T15:33:52Z</time>
      </trkpt>
      <trkpt lat="49.26582" lon="-0.2435">
        <ele>4.6</ele>
        <time>2022-05-31T15:33:53Z</time>
      </trkpt>
      <trkpt lat="49.26582" lon="-0.24349">
        <ele>4.6</ele>
        <time>2022-05-31T15:33:54Z</time>
      </trkpt>
      <trkpt lat="49.26581" lon="-0.24348">
        <ele>4.6</ele>
        <time>2022-05-31T15:33:56Z</time>
      </trkpt>
      <trkpt lat="49.26581" lon="-0.24347">
        <ele>4.6</ele>
        <time>2022-05-31T15:33:57Z</time>
      </trkpt>
      <trkpt lat="49.2658" lon="-0.24346">
        <ele>4.5</ele>
        <time>2022-05-31T15:33:58Z</time>
      </trkpt>
      <trkpt lat="49.2658" lon="-0.24346">
        <ele>4.5</ele>
        <time>2022-05-31T15:33:59Z</time>
      </trkpt>
      <trkpt lat="49.26579" lon="-0.24344">
        <ele>4.5</ele>
        <time>2022-05-31T15:34:00Z</time>
      </trkpt>
      <trkpt lat="49.26578" lon="-0.24341">
        <ele>4.5</ele>
        <time>2022-05-31T15:34:01Z</time>
      </trkpt>
      <trkpt lat="49.26578" lon="-0.24339">
        <ele>4.5</ele>
        <time>2022-05-31T15:34:03Z</time>
      </trkpt>
      <trkpt lat="49.26577" lon="-0.24338">
        <ele>4.5</ele>
        <time>2022-05-31T15:34:04Z</time>
      </trkpt>
      <trkpt lat="49.26577" lon="-0.24336">
        <ele>4.5</ele>
        <time>2022-05-31T15:34:05Z</time>
      </trkpt>
      <trkpt lat="49.26576" lon="-0.24335">
        <ele>4.5</ele>
        <time>2022-05-31T15:34:06Z</time>
      </trkpt>
      <trkpt lat="49.26575" lon="-0.24332">
        <ele>4.5</ele>
        <time>2022-05-31T15:34:07Z</time>
      </trkpt>
      <trkpt lat="49.26575" lon="-0.24331">
        <ele>4.5</ele>
        <time>2022-05-31T15:34:08Z</time>
      </trkpt>
      <trkpt lat="49.26575" lon="-0.2433">
        <ele>4.5</ele>
        <time>2022-05-31T15:34:09Z</time>
      </trkpt>
      <trkpt lat="49.26574" lon="-0.24327">
        <ele>4.4</ele>
        <time>2022-05-31T15:34:11Z</time>
      </trkpt>
      <trkpt lat="49.26573" lon="-0.24327">
        <ele>4.4</ele>
        <time>2022-05-31T15:34:12Z</time>
      </trkpt>
      <trkpt lat="49.26573" lon="-0.24326">
        <ele>4.4</ele>
        <time>2022-05-31T15:34:13Z</time>
      </trkpt>
      <trkpt lat="49.26573" lon="-0.24325">
        <ele>4.4</ele>
        <time>2022-05-31T15:34:14Z</time>
      </trkpt>
      <trkpt lat="49.26572" lon="-0.24325">
        <ele>4.4</ele>
        <time>2022-05-31T15:34:15Z</time>
      </trkpt>
      <trkpt lat="49.26572" lon="-0.24323">
        <ele>4.4</ele>
        <time>2022-05-31T15:34:16Z</time>
      </trkpt>
      <trkpt lat="49.26571" lon="-0.24321">
        <ele>4.4</ele>
        <time>2022-05-31T15:34:17Z</time>
      </trkpt>
      <trkpt lat="49.2657" lon="-0.24318">
        <ele>4.4</ele>
        <time>2022-05-31T15:34:19Z</time>
      </trkpt>
      <trkpt lat="49.26569" lon="-0.24317">
        <ele>4.4</ele>
        <time>2022-05-31T15:34:20Z</time>
      </trkpt>
      <trkpt lat="49.26569" lon="-0.24316">
        <ele>4.4</ele>
        <time>2022-05-31T15:34:21Z</time>
      </trkpt>
      <trkpt lat="49.26568" lon="-0.24315">
        <ele>4.4</ele>
        <time>2022-05-31T15:34:22Z</time>
      </trkpt>
      <trkpt lat="49.26568" lon="-0.24314">
        <ele>4.4</ele>
        <time>2022-05-31T15:34:23Z</time>
      </trkpt>
      <trkpt lat="49.26567" lon="-0.24312">
        <ele>4.4</ele>
        <time>2022-05-31T15:34:24Z</time>
      </trkpt>
      <trkpt lat="49.26566" lon="-0.24311">
        <ele>4.4</ele>
        <time>2022-05-31T15:34:25Z</time>
      </trkpt>
      <trkpt lat="49.26566" lon="-0.24309">
        <ele>4.4</ele>
        <time>2022-05-31T15:34:27Z</time>
      </trkpt>
      <trkpt lat="49.26565" lon="-0.24309">
        <ele>4.4</ele>
        <time>2022-05-31T15:34:28Z</time>
      </trkpt>
      <trkpt lat="49.26564" lon="-0.24307">
        <ele>4.3</ele>
        <time>2022-05-31T15:34:29Z</time>
      </trkpt>
      <trkpt lat="49.26564" lon="-0.24306">
        <ele>4.3</ele>
        <time>2022-05-31T15:34:30Z</time>
      </trkpt>
      <trkpt lat="49.26563" lon="-0.24305">
        <ele>4.3</ele>
        <time>2022-05-31T15:34:31Z</time>
      </trkpt>
      <trkpt lat="49.26563" lon="-0.24303">
        <ele>4.3</ele>
        <time>2022-05-31T15:34:32Z</time>
      </trkpt>
      <trkpt lat="49.26562" lon="-0.24302">
        <ele>4.3</ele>
        <time>2022-05-31T15:34:33Z</time>
      </trkpt>
      <trkpt lat="49.26561" lon="-0.243">
        <ele>4.3</ele>
        <time>2022-05-31T15:34:35Z</time>
      </trkpt>
      <trkpt lat="49.26561" lon="-0.24299">
        <ele>4.3</ele>
        <time>2022-05-31T15:34:36Z</time>
      </trkpt>
      <trkpt lat="49.2656" lon="-0.24298">
        <ele>4.3</ele>
        <time>2022-05-31T15:34:37Z</time>
      </trkpt>
      <trkpt lat="49.2656" lon="-0.24297">
        <ele>4.3</ele>
        <time>2022-05-31T15:34:38Z</time>
      </trkpt>
      <trkpt lat="49.26558" lon="-0.24294">
        <ele>4.3</ele>
        <time>2022-05-31T15:34:39Z</time>
      </trkpt>
      <trkpt lat="49.26558" lon="-0.24293">
        <ele>4.3</ele>
        <time>2022-05-31T15:34:40Z</time>
      </trkpt>
      <trkpt lat="49.26557" lon="-0.24292">
        <ele>4.3</ele>
        <time>2022-05-31T15:34:41Z</time>
      </trkpt>
      <trkpt lat="49.26557" lon="-0.2429">
        <ele>4.3</ele>
        <time>2022-05-31T15:34:42Z</time>
      </trkpt>
      <trkpt lat="49.26556" lon="-0.24289">
        <ele>4.3</ele>
        <time>2022-05-31T15:34:44Z</time>
      </trkpt>
      <trkpt lat="49.26555" lon="-0.24287">
        <ele>4.3</ele>
        <time>2022-05-31T15:34:45Z</time>
      </trkpt>
      <trkpt lat="49.26554" lon="-0.24285">
        <ele>4.3</ele>
        <time>2022-05-31T15:34:46Z</time>
      </trkpt>
      <trkpt lat="49.26554" lon="-0.24284">
        <ele>4.3</ele>
        <time>2022-05-31T15:34:47Z</time>
      </trkpt>
      <trkpt lat="49.26553" lon="-0.24281">
        <ele>4.3</ele>
        <time>2022-05-31T15:34:48Z</time>
      </trkpt>
      <trkpt lat="49.26552" lon="-0.2428">
        <ele>4.3</ele>
        <time>2022-05-31T15:34:49Z</time>
      </trkpt>
      <trkpt lat="49.26552" lon="-0.24279">
        <ele>4.3</ele>
        <time>2022-05-31T15:34:50Z</time>
      </trkpt>
      <trkpt lat="49.26551" lon="-0.24277">
        <ele>4.3</ele>
        <time>2022-05-31T15:34:52Z</time>
      </trkpt>
      <trkpt lat="49.2655" lon="-0.24276">
        <ele>4.3</ele>
        <time>2022-05-31T15:34:53Z</time>
      </trkpt>
      <trkpt lat="49.2655" lon="-0.24275">
        <ele>4.3</ele>
        <time>2022-05-31T15:34:54Z</time>
      </trkpt>
      <trkpt lat="49.2655" lon="-0.24274">
        <ele>4.3</ele>
        <time>2022-05-31T15:34:55Z</time>
      </trkpt>
      <trkpt lat="49.26548" lon="-0.24272">
        <ele>4.3</ele>
        <time>2022-05-31T15:34:56Z</time>
      </trkpt>
      <trkpt lat="49.26548" lon="-0.24271">
        <ele>4.3</ele>
        <time>2022-05-31T15:34:57Z</time>
      </trkpt>
      <trkpt lat="49.26547" lon="-0.24269">
        <ele>4.3</ele>
        <time>2022-05-31T15:34:58Z</time>
      </trkpt>
      <trkpt lat="49.26547" lon="-0.24268">
        <ele>4.3</ele>
        <time>2022-05-31T15:34:59Z</time>
      </trkpt>
      <trkpt lat="49.26546" lon="-0.24266">
        <ele>4.3</ele>
        <time>2022-05-31T15:35:01Z</time>
      </trkpt>
      <trkpt lat="49.26545" lon="-0.24263">
        <ele>4.3</ele>
        <time>2022-05-31T15:35:02Z</time>
      </trkpt>
      <trkpt lat="49.26544" lon="-0.24262">
        <ele>4.3</ele>
        <time>2022-05-31T15:35:03Z</time>
      </trkpt>
      <trkpt lat="49.26544" lon="-0.24261">
        <ele>4.3</ele>
        <time>2022-05-31T15:35:04Z</time>
      </trkpt>
      <trkpt lat="49.26544" lon="-0.24259">
        <ele>4.3</ele>
        <time>2022-05-31T15:35:05Z</time>
      </trkpt>
      <trkpt lat="49.26543" lon="-0.24258">
        <ele>4.3</ele>
        <time>2022-05-31T15:35:06Z</time>
      </trkpt>
      <trkpt lat="49.26542" lon="-0.24255">
        <ele>4.3</ele>
        <time>2022-05-31T15:35:08Z</time>
      </trkpt>
      <trkpt lat="49.26541" lon="-0.24252">
        <ele>4.3</ele>
        <time>2022-05-31T15:35:09Z</time>
      </trkpt>
      <trkpt lat="49.26541" lon="-0.24251">
        <ele>4.3</ele>
        <time>2022-05-31T15:35:10Z</time>
      </trkpt>
      <trkpt lat="49.26541" lon="-0.2425">
        <ele>4.3</ele>
        <time>2022-05-31T15:35:11Z</time>
      </trkpt>
      <trkpt lat="49.2654" lon="-0.24248">
        <ele>4.3</ele>
        <time>2022-05-31T15:35:12Z</time>
      </trkpt>
      <trkpt lat="49.26539" lon="-0.24246">
        <ele>4.3</ele>
        <time>2022-05-31T15:35:13Z</time>
      </trkpt>
      <trkpt lat="49.26538" lon="-0.24244">
        <ele>4.3</ele>
        <time>2022-05-31T15:35:14Z</time>
      </trkpt>
      <trkpt lat="49.26538" lon="-0.24242">
        <ele>4.2</ele>
        <time>2022-05-31T15:35:15Z</time>
      </trkpt>
      <trkpt lat="49.26537" lon="-0.24239">
        <ele>4.2</ele>
        <time>2022-05-31T15:35:17Z</time>
      </trkpt>
      <trkpt lat="49.26537" lon="-0.24237">
        <ele>4.2</ele>
        <time>2022-05-31T15:35:18Z</time>
      </trkpt>
      <trkpt lat="49.26536" lon="-0.24235">
        <ele>4.2</ele>
        <time>2022-05-31T15:35:19Z</time>
      </trkpt>
      <trkpt lat="49.26535" lon="-0.24234">
        <ele>4.2</ele>
        <time>2022-05-31T15:35:20Z</time>
      </trkpt>
      <trkpt lat="49.26535" lon="-0.24232">
        <ele>4.2</ele>
        <time>2022-05-31T15:35:21Z</time>
      </trkpt>
      <trkpt lat="49.26534" lon="-0.2423">
        <ele>4.2</ele>
        <time>2022-05-31T15:35:23Z</time>
      </trkpt>
      <trkpt lat="49.26534" lon="-0.24231">
        <ele>4.2</ele>
        <time>2022-05-31T15:35:24Z</time>
      </trkpt>
      <trkpt lat="49.26534" lon="-0.2423">
        <ele>4.2</ele>
        <time>2022-05-31T15:35:25Z</time>
      </trkpt>
      <trkpt lat="49.26534" lon="-0.24229">
        <ele>4.2</ele>
        <time>2022-05-31T15:35:26Z</time>
      </trkpt>
      <trkpt lat="49.26534" lon="-0.24227">
        <ele>4.2</ele>
        <time>2022-05-31T15:35:27Z</time>
      </trkpt>
      <trkpt lat="49.26534" lon="-0.24226">
        <ele>4.2</ele>
        <time>2022-05-31T15:35:28Z</time>
      </trkpt>
      <trkpt lat="49.26534" lon="-0.24224">
        <ele>4.2</ele>
        <time>2022-05-31T15:35:29Z</time>
      </trkpt>
      <trkpt lat="49.26535" lon="-0.24222">
        <ele>4.2</ele>
        <time>2022-05-31T15:35:31Z</time>
      </trkpt>
      <trkpt lat="49.26535" lon="-0.24221">
        <ele>4.2</ele>
        <time>2022-05-31T15:35:32Z</time>
      </trkpt>
      <trkpt lat="49.26535" lon="-0.2422">
        <ele>4.2</ele>
        <time>2022-05-31T15:35:33Z</time>
      </trkpt>
      <trkpt lat="49.26536" lon="-0.24218">
        <ele>4.2</ele>
        <time>2022-05-31T15:35:34Z</time>
      </trkpt>
      <trkpt lat="49.26536" lon="-0.24214">
        <ele>4.2</ele>
        <time>2022-05-31T15:35:35Z</time>
      </trkpt>
      <trkpt lat="49.26536" lon="-0.24214">
        <ele>4.2</ele>
        <time>2022-05-31T15:35:36Z</time>
      </trkpt>
      <trkpt lat="49.26536" lon="-0.24213">
        <ele>4.2</ele>
        <time>2022-05-31T15:35:37Z</time>
      </trkpt>
      <trkpt lat="49.26537" lon="-0.24209">
        <ele>4.2</ele>
        <time>2022-05-31T15:35:39Z</time>
      </trkpt>
      <trkpt lat="49.26537" lon="-0.24208">
        <ele>4.2</ele>
        <time>2022-05-31T15:35:40Z</time>
      </trkpt>
      <trkpt lat="49.26537" lon="-0.24207">
        <ele>4.2</ele>
        <time>2022-05-31T15:35:41Z</time>
      </trkpt>
      <trkpt lat="49.26537" lon="-0.24205">
        <ele>4.2</ele>
        <time>2022-05-31T15:35:42Z</time>
      </trkpt>
      <trkpt lat="49.26537" lon="-0.24202">
        <ele>4.2</ele>
        <time>2022-05-31T15:35:43Z</time>
      </trkpt>
      <trkpt lat="49.26537" lon="-0.24199">
        <ele>4.2</ele>
        <time>2022-05-31T15:35:44Z</time>
      </trkpt>
      <trkpt lat="49.26537" lon="-0.24197">
        <ele>4.2</ele>
        <time>2022-05-31T15:35:45Z</time>
      </trkpt>
      <trkpt lat="49.26537" lon="-0.24194">
        <ele>4.2</ele>
        <time>2022-05-31T15:35:46Z</time>
      </trkpt>
      <trkpt lat="49.26537" lon="-0.24193">
        <ele>4.2</ele>
        <time>2022-05-31T15:35:48Z</time>
      </trkpt>
      <trkpt lat="49.26537" lon="-0.24192">
        <ele>4.2</ele>
        <time>2022-05-31T15:35:49Z</time>
      </trkpt>
      <trkpt lat="49.26537" lon="-0.24189">
        <ele>4.2</ele>
        <time>2022-05-31T15:35:50Z</time>
      </trkpt>
      <trkpt lat="49.26537" lon="-0.24187">
        <ele>4.2</ele>
        <time>2022-05-31T15:35:51Z</time>
      </trkpt>
      <trkpt lat="49.26537" lon="-0.24185">
        <ele>4.2</ele>
        <time>2022-05-31T15:35:52Z</time>
      </trkpt>
      <trkpt lat="49.26537" lon="-0.24183">
        <ele>4.2</ele>
        <time>2022-05-31T15:35:53Z</time>
      </trkpt>
      <trkpt lat="49.26538" lon="-0.24183">
        <ele>4.2</ele>
        <time>2022-05-31T15:35:55Z</time>
      </trkpt>
      <trkpt lat="49.26539" lon="-0.24182">
        <ele>4.1</ele>
        <time>2022-05-31T15:35:56Z</time>
      </trkpt>
      <trkpt lat="49.2654" lon="-0.2418">
        <ele>4.1</ele>
        <time>2022-05-31T15:35:57Z</time>
      </trkpt>
      <trkpt lat="49.26541" lon="-0.24179">
        <ele>4.1</ele>
        <time>2022-05-31T15:35:58Z</time>
      </trkpt>
      <trkpt lat="49.26541" lon="-0.24178">
        <ele>4.1</ele>
        <time>2022-05-31T15:35:59Z</time>
      </trkpt>
      <trkpt lat="49.26541" lon="-0.24178">
        <ele>4.1</ele>
        <time>2022-05-31T15:36:00Z</time>
      </trkpt>
      <trkpt lat="49.26541" lon="-0.24178">
        <ele>4.1</ele>
        <time>2022-05-31T15:36:01Z</time>
      </trkpt>
      <trkpt lat="49.26541" lon="-0.24178">
        <ele>4.1</ele>
        <time>2022-05-31T15:36:02Z</time>
      </trkpt>
      <trkpt lat="49.26541" lon="-0.24178">
        <ele>4.1</ele>
        <time>2022-05-31T15:36:03Z</time>
      </trkpt>
      <trkpt lat="49.26541" lon="-0.24179">
        <ele>4.1</ele>
        <time>2022-05-31T15:36:04Z</time>
      </trkpt>
      <trkpt lat="49.26541" lon="-0.24179">
        <ele>4.1</ele>
        <time>2022-05-31T15:36:05Z</time>
      </trkpt>
      <trkpt lat="49.26541" lon="-0.24179">
        <ele>4.1</ele>
        <time>2022-05-31T15:36:06Z</time>
      </trkpt>
      <trkpt lat="49.26541" lon="-0.24179">
        <ele>4.1</ele>
        <time>2022-05-31T15:36:07Z</time>
      </trkpt>
      <trkpt lat="49.26541" lon="-0.24179">
        <ele>4.1</ele>
        <time>2022-05-31T15:36:08Z</time>
      </trkpt>
      <trkpt lat="49.26541" lon="-0.24179">
        <ele>4.1</ele>
        <time>2022-05-31T15:36:09Z</time>
      </trkpt>
      <trkpt lat="49.26541" lon="-0.24179">
        <ele>4.1</ele>
        <time>2022-05-31T15:36:10Z</time>
      </trkpt>
      <trkpt lat="49.2654" lon="-0.24179">
        <ele>4.1</ele>
        <time>2022-05-31T15:36:11Z</time>
      </trkpt>
      <trkpt lat="49.2654" lon="-0.24179">
        <ele>4.1</ele>
        <time>2022-05-31T15:36:12Z</time>
      </trkpt>
      <trkpt lat="49.2654" lon="-0.24179">
        <ele>4.1</ele>
        <time>2022-05-31T15:36:13Z</time>
      </trkpt>
      <trkpt lat="49.2654" lon="-0.24179">
        <ele>4.1</ele>
        <time>2022-05-31T15:36:14Z</time>
      </trkpt>
      <trkpt lat="49.2654" lon="-0.24179">
        <ele>4.1</ele>
        <time>2022-05-31T15:36:15Z</time>
      </trkpt>
      <trkpt lat="49.2654" lon="-0.24179">
        <ele>4.1</ele>
        <time>2022-05-31T15:36:16Z</time>
      </trkpt>
      <trkpt lat="49.2654" lon="-0.2418">
        <ele>4.1</ele>
        <time>2022-05-31T15:36:17Z</time>
      </trkpt>
      <trkpt lat="49.2654" lon="-0.2418">
        <ele>4.1</ele>
        <time>2022-05-31T15:36:18Z</time>
      </trkpt>
      <trkpt lat="49.2654" lon="-0.2418">
        <ele>4.1</ele>
        <time>2022-05-31T15:36:19Z</time>
      </trkpt>
      <trkpt lat="49.2654" lon="-0.2418">
        <ele>4.1</ele>
        <time>2022-05-31T15:36:20Z</time>
      </trkpt>
      <trkpt lat="49.2654" lon="-0.2418">
        <ele>4.1</ele>
        <time>2022-05-31T15:36:21Z</time>
      </trkpt>
      <trkpt lat="49.2654" lon="-0.2418">
        <ele>4.1</ele>
        <time>2022-05-31T15:36:22Z</time>
      </trkpt>
      <trkpt lat="49.2654" lon="-0.2418">
        <ele>4.1</ele>
        <time>2022-05-31T15:36:23Z</time>
      </trkpt>
      <trkpt lat="49.2654" lon="-0.2418">
        <ele>4.1</ele>
        <time>2022-05-31T15:36:24Z</time>
      </trkpt>
      <trkpt lat="49.2654" lon="-0.2418">
        <ele>4.1</ele>
        <time>2022-05-31T15:36:25Z</time>
      </trkpt>
      <trkpt lat="49.2654" lon="-0.2418">
        <ele>4.1</ele>
        <time>2022-05-31T15:36:26Z</time>
      </trkpt>
      <trkpt lat="49.2654" lon="-0.2418">
        <ele>4.1</ele>
        <time>2022-05-31T15:36:27Z</time>
      </trkpt>
      <trkpt lat="49.2654" lon="-0.2418">
        <ele>4.1</ele>
        <time>2022-05-31T15:36:28Z</time>
      </trkpt>
      <trkpt lat="49.2654" lon="-0.2418">
        <ele>4.1</ele>
        <time>2022-05-31T15:36:29Z</time>
      </trkpt>
      <trkpt lat="49.2654" lon="-0.2418">
        <ele>4.1</ele>
        <time>2022-05-31T15:36:30Z</time>
      </trkpt>
      <trkpt lat="49.2654" lon="-0.24181">
        <ele>4.1</ele>
        <time>2022-05-31T15:36:31Z</time>
      </trkpt>
      <trkpt lat="49.2654" lon="-0.24181">
        <ele>4.1</ele>
        <time>2022-05-31T15:36:32Z</time>
      </trkpt>
      <trkpt lat="49.2654" lon="-0.24181">
        <ele>4.1</ele>
        <time>2022-05-31T15:36:33Z</time>
      </trkpt>
      <trkpt lat="49.2654" lon="-0.24181">
        <ele>4.1</ele>
        <time>2022-05-31T15:36:34Z</time>
      </trkpt>
      <trkpt lat="49.2654" lon="-0.24181">
        <ele>4.1</ele>
        <time>2022-05-31T15:36:35Z</time>
      </trkpt>
      <trkpt lat="49.2654" lon="-0.24181">
        <ele>4.1</ele>
        <time>2022-05-31T15:36:36Z</time>
      </trkpt>
      <trkpt lat="49.2654" lon="-0.24181">
        <ele>4.1</ele>
        <time>2022-05-31T15:36:37Z</time>
      </trkpt>
      <trkpt lat="49.2654" lon="-0.24181">
        <ele>4.1</ele>
        <time>2022-05-31T15:36:38Z</time>
      </trkpt>
      <trkpt lat="49.2654" lon="-0.24181">
        <ele>4.1</ele>
        <time>2022-05-31T15:36:39Z</time>
      </trkpt>
      <trkpt lat="49.2654" lon="-0.24181">
        <ele>4.1</ele>
        <time>2022-05-31T15:36:40Z</time>
      </trkpt>
      <trkpt lat="49.2654" lon="-0.24181">
        <ele>4.1</ele>
        <time>2022-05-31T15:36:41Z</time>
      </trkpt>
      <trkpt lat="49.2654" lon="-0.24181">
        <ele>4.1</ele>
        <time>2022-05-31T15:36:42Z</time>
      </trkpt>
      <trkpt lat="49.2654" lon="-0.24181">
        <ele>4.1</ele>
        <time>2022-05-31T15:36:43Z</time>
      </trkpt>
      <trkpt lat="49.2654" lon="-0.24182">
        <ele>4.1</ele>
        <time>2022-05-31T15:36:44Z</time>
      </trkpt>
      <trkpt lat="49.2654" lon="-0.24182">
        <ele>4.1</ele>
        <time>2022-05-31T15:36:45Z</time>
      </trkpt>
      <trkpt lat="49.2654" lon="-0.24182">
        <ele>4.1</ele>
        <time>2022-05-31T15:36:46Z</time>
      </trkpt>
      <trkpt lat="49.2654" lon="-0.24182">
        <ele>4.1</ele>
        <time>2022-05-31T15:36:47Z</time>
      </trkpt>
      <trkpt lat="49.2654" lon="-0.24182">
        <ele>4.1</ele>
        <time>2022-05-31T15:36:48Z</time>
      </trkpt>
      <trkpt lat="49.2654" lon="-0.24182">
        <ele>4.1</ele>
        <time>2022-05-31T15:36:49Z</time>
      </trkpt>
      <trkpt lat="49.2654" lon="-0.24182">
        <ele>4.1</ele>
        <time>2022-05-31T15:36:50Z</time>
      </trkpt>
      <trkpt lat="49.2654" lon="-0.24182">
        <ele>4.1</ele>
        <time>2022-05-31T15:36:51Z</time>
      </trkpt>
      <trkpt lat="49.2654" lon="-0.24182">
        <ele>4.1</ele>
        <time>2022-05-31T15:36:52Z</time>
      </trkpt>
      <trkpt lat="49.2654" lon="-0.24182">
        <ele>4.1</ele>
        <time>2022-05-31T15:36:53Z</time>
      </trkpt>
      <trkpt lat="49.2654" lon="-0.24182">
        <ele>4.1</ele>
        <time>2022-05-31T15:36:54Z</time>
      </trkpt>
      <trkpt lat="49.2654" lon="-0.24182">
        <ele>4.1</ele>
        <time>2022-05-31T15:36:55Z</time>
      </trkpt>
      <trkpt lat="49.2654" lon="-0.24182">
        <ele>4.1</ele>
        <time>2022-05-31T15:36:56Z</time>
      </trkpt>
      <trkpt lat="49.2654" lon="-0.24182">
        <ele>4.1</ele>
        <time>2022-05-31T15:36:57Z</time>
      </trkpt>
      <trkpt lat="49.2654" lon="-0.24183">
        <ele>4.1</ele>
        <time>2022-05-31T15:36:58Z</time>
      </trkpt>
      <trkpt lat="49.2654" lon="-0.24183">
        <ele>4.1</ele>
        <time>2022-05-31T15:36:59Z</time>
      </trkpt>
      <trkpt lat="49.2654" lon="-0.24183">
        <ele>4.1</ele>
        <time>2022-05-31T15:37:00Z</time>
      </trkpt>
      <trkpt lat="49.2654" lon="-0.24183">
        <ele>4.1</ele>
        <time>2022-05-31T15:37:01Z</time>
      </trkpt>
      <trkpt lat="49.2654" lon="-0.24183">
        <ele>4.1</ele>
        <time>2022-05-31T15:37:02Z</time>
      </trkpt>
      <trkpt lat="49.2654" lon="-0.24183">
        <ele>4.1</ele>
        <time>2022-05-31T15:37:03Z</time>
      </trkpt>
      <trkpt lat="49.2654" lon="-0.24183">
        <ele>4.1</ele>
        <time>2022-05-31T15:37:04Z</time>
      </trkpt>
      <trkpt lat="49.2654" lon="-0.24183">
        <ele>4.1</ele>
        <time>2022-05-31T15:37:05Z</time>
      </trkpt>
      <trkpt lat="49.2654" lon="-0.24183">
        <ele>4.1</ele>
        <time>2022-05-31T15:37:06Z</time>
      </trkpt>
      <trkpt lat="49.2654" lon="-0.24183">
        <ele>4.1</ele>
        <time>2022-05-31T15:37:07Z</time>
      </trkpt>
      <trkpt lat="49.2654" lon="-0.24183">
        <ele>4.1</ele>
        <time>2022-05-31T15:37:08Z</time>
      </trkpt>
      <trkpt lat="49.2654" lon="-0.24183">
        <ele>4.1</ele>
        <time>2022-05-31T15:37:09Z</time>
      </trkpt>
      <trkpt lat="49.2654" lon="-0.24183">
        <ele>4.1</ele>
        <time>2022-05-31T15:37:10Z</time>
      </trkpt>
      <trkpt lat="49.2654" lon="-0.24184">
        <ele>4.1</ele>
        <time>2022-05-31T15:37:11Z</time>
      </trkpt>
      <trkpt lat="49.2654" lon="-0.24184">
        <ele>4.1</ele>
        <time>2022-05-31T15:37:12Z</time>
      </trkpt>
      <trkpt lat="49.2654" lon="-0.24184">
        <ele>4.1</ele>
        <time>2022-05-31T15:37:13Z</time>
      </trkpt>
      <trkpt lat="49.2654" lon="-0.24184">
        <ele>4.1</ele>
        <time>2022-05-31T15:37:14Z</time>
      </trkpt>
      <trkpt lat="49.2654" lon="-0.24184">
        <ele>4.1</ele>
        <time>2022-05-31T15:37:15Z</time>
      </trkpt>
      <trkpt lat="49.2654" lon="-0.24184">
        <ele>4.1</ele>
        <time>2022-05-31T15:37:16Z</time>
      </trkpt>
      <trkpt lat="49.2654" lon="-0.24184">
        <ele>4.1</ele>
        <time>2022-05-31T15:37:17Z</time>
      </trkpt>
      <trkpt lat="49.2654" lon="-0.24184">
        <ele>4.1</ele>
        <time>2022-05-31T15:37:18Z</time>
      </trkpt>
      <trkpt lat="49.2654" lon="-0.24184">
        <ele>4.1</ele>
        <time>2022-05-31T15:37:19Z</time>
      </trkpt>
      <trkpt lat="49.2654" lon="-0.24184">
        <ele>4.1</ele>
        <time>2022-05-31T15:37:20Z</time>
      </trkpt>
      <trkpt lat="49.2654" lon="-0.24184">
        <ele>4.1</ele>
        <time>2022-05-31T15:37:21Z</time>
      </trkpt>
      <trkpt lat="49.2654" lon="-0.24184">
        <ele>4.1</ele>
        <time>2022-05-31T15:37:22Z</time>
      </trkpt>
      <trkpt lat="49.2654" lon="-0.24184">
        <ele>4.1</ele>
        <time>2022-05-31T15:37:23Z</time>
      </trkpt>
      <trkpt lat="49.26539" lon="-0.24184">
        <ele>4.1</ele>
        <time>2022-05-31T15:37:24Z</time>
      </trkpt>
      <trkpt lat="49.26539" lon="-0.24185">
        <ele>4.1</ele>
        <time>2022-05-31T15:37:25Z</time>
      </trkpt>
      <trkpt lat="49.26539" lon="-0.24185">
        <ele>4.1</ele>
        <time>2022-05-31T15:37:26Z</time>
      </trkpt>
      <trkpt lat="49.26539" lon="-0.24185">
        <ele>4.1</ele>
        <time>2022-05-31T15:37:27Z</time>
      </trkpt>
      <trkpt lat="49.26539" lon="-0.24185">
        <ele>4.1</ele>
        <time>2022-05-31T15:37:28Z</time>
      </trkpt>
      <trkpt lat="49.26539" lon="-0.24185">
        <ele>4.1</ele>
        <time>2022-05-31T15:37:29Z</time>
      </trkpt>
      <trkpt lat="49.26539" lon="-0.24185">
        <ele>4.1</ele>
        <time>2022-05-31T15:37:30Z</time>
      </trkpt>
      <trkpt lat="49.26539" lon="-0.24185">
        <ele>4.1</ele>
        <time>2022-05-31T15:37:31Z</time>
      </trkpt>
      <trkpt lat="49.26539" lon="-0.24185">
        <ele>4.1</ele>
        <time>2022-05-31T15:37:32Z</time>
      </trkpt>
      <trkpt lat="49.26539" lon="-0.24184">
        <ele>4.1</ele>
        <time>2022-05-31T15:37:33Z</time>
      </trkpt>
      <trkpt lat="49.2654" lon="-0.24184">
        <ele>4.1</ele>
        <time>2022-05-31T15:37:34Z</time>
      </trkpt>
      <trkpt lat="49.26541" lon="-0.24183">
        <ele>4.1</ele>
        <time>2022-05-31T15:37:35Z</time>
      </trkpt>
      <trkpt lat="49.2654" lon="-0.24183">
        <ele>4.1</ele>
        <time>2022-05-31T15:37:36Z</time>
      </trkpt>
      <trkpt lat="49.26541" lon="-0.24183">
        <ele>4.1</ele>
        <time>2022-05-31T15:37:37Z</time>
      </trkpt>
      <trkpt lat="49.26541" lon="-0.24183">
        <ele>4.1</ele>
        <time>2022-05-31T15:37:38Z</time>
      </trkpt>
      <trkpt lat="49.26541" lon="-0.24183">
        <ele>4.1</ele>
        <time>2022-05-31T15:37:39Z</time>
      </trkpt>
      <trkpt lat="49.26541" lon="-0.24184">
        <ele>4.1</ele>
        <time>2022-05-31T15:37:40Z</time>
      </trkpt>
      <trkpt lat="49.26541" lon="-0.24184">
        <ele>4.1</ele>
        <time>2022-05-31T15:37:41Z</time>
      </trkpt>
      <trkpt lat="49.26541" lon="-0.24184">
        <ele>4.1</ele>
        <time>2022-05-31T15:37:42Z</time>
      </trkpt>
      <trkpt lat="49.26541" lon="-0.24184">
        <ele>4.1</ele>
        <time>2022-05-31T15:37:43Z</time>
      </trkpt>
      <trkpt lat="49.26541" lon="-0.24184">
        <ele>4.1</ele>
        <time>2022-05-31T15:37:44Z</time>
      </trkpt>
      <trkpt lat="49.26542" lon="-0.24184">
        <ele>4.1</ele>
        <time>2022-05-31T15:37:45Z</time>
      </trkpt>
      <trkpt lat="49.26542" lon="-0.24184">
        <ele>4.1</ele>
        <time>2022-05-31T15:37:46Z</time>
      </trkpt>
      <trkpt lat="49.26542" lon="-0.24184">
        <ele>4.1</ele>
        <time>2022-05-31T15:37:47Z</time>
      </trkpt>
      <trkpt lat="49.26542" lon="-0.24184">
        <ele>4.1</ele>
        <time>2022-05-31T15:37:48Z</time>
      </trkpt>
      <trkpt lat="49.26542" lon="-0.24184">
        <ele>4.1</ele>
        <time>2022-05-31T15:37:49Z</time>
      </trkpt>
      <trkpt lat="49.26542" lon="-0.24184">
        <ele>4.1</ele>
        <time>2022-05-31T15:37:50Z</time>
      </trkpt>
      <trkpt lat="49.26542" lon="-0.24184">
        <ele>4.1</ele>
        <time>2022-05-31T15:37:51Z</time>
      </trkpt>
      <trkpt lat="49.26542" lon="-0.24184">
        <ele>4.1</ele>
        <time>2022-05-31T15:37:52Z</time>
      </trkpt>
      <trkpt lat="49.26542" lon="-0.24183">
        <ele>4.1</ele>
        <time>2022-05-31T15:37:53Z</time>
      </trkpt>
      <trkpt lat="49.26542" lon="-0.24183">
        <ele>4.1</ele>
        <time>2022-05-31T15:37:55Z</time>
      </trkpt>
      <trkpt lat="49.26542" lon="-0.24183">
        <ele>4.1</ele>
        <time>2022-05-31T15:37:56Z</time>
      </trkpt>
      <trkpt lat="49.26542" lon="-0.24184">
        <ele>4.1</ele>
        <time>2022-05-31T15:37:58Z</time>
      </trkpt>
      <trkpt lat="49.26542" lon="-0.24184">
        <ele>4.1</ele>
        <time>2022-05-31T15:37:59Z</time>
      </trkpt>
      <trkpt lat="49.26542" lon="-0.24184">
        <ele>4.1</ele>
        <time>2022-05-31T15:38:00Z</time>
      </trkpt>
      <trkpt lat="49.26542" lon="-0.24184">
        <ele>4.1</ele>
        <time>2022-05-31T15:38:01Z</time>
      </trkpt>
      <trkpt lat="49.26542" lon="-0.24184">
        <ele>4.1</ele>
        <time>2022-05-31T15:38:02Z</time>
      </trkpt>
      <trkpt lat="49.26542" lon="-0.24184">
        <ele>4.1</ele>
        <time>2022-05-31T15:38:04Z</time>
      </trkpt>
      <trkpt lat="49.26542" lon="-0.24185">
        <ele>4.1</ele>
        <time>2022-05-31T15:38:05Z</time>
      </trkpt>
      <trkpt lat="49.26542" lon="-0.24185">
        <ele>4.1</ele>
        <time>2022-05-31T15:38:06Z</time>
      </trkpt>
      <trkpt lat="49.26542" lon="-0.24186">
        <ele>4.1</ele>
        <time>2022-05-31T15:38:08Z</time>
      </trkpt>
      <trkpt lat="49.26542" lon="-0.24187">
        <ele>4.1</ele>
        <time>2022-05-31T15:38:09Z</time>
      </trkpt>
      <trkpt lat="49.26542" lon="-0.24187">
        <ele>4.1</ele>
        <time>2022-05-31T15:38:10Z</time>
      </trkpt>
      <trkpt lat="49.26542" lon="-0.24187">
        <ele>4.1</ele>
        <time>2022-05-31T15:38:12Z</time>
      </trkpt>
      <trkpt lat="49.26542" lon="-0.24187">
        <ele>4.1</ele>
        <time>2022-05-31T15:38:13Z</time>
      </trkpt>
      <trkpt lat="49.26541" lon="-0.24187">
        <ele>4.1</ele>
        <time>2022-05-31T15:38:14Z</time>
      </trkpt>
      <trkpt lat="49.26541" lon="-0.24187">
        <ele>4.1</ele>
        <time>2022-05-31T15:38:15Z</time>
      </trkpt>
      <trkpt lat="49.26541" lon="-0.24187">
        <ele>4.1</ele>
        <time>2022-05-31T15:38:16Z</time>
      </trkpt>
      <trkpt lat="49.26541" lon="-0.24186">
        <ele>4.1</ele>
        <time>2022-05-31T15:38:17Z</time>
      </trkpt>
      <trkpt lat="49.26541" lon="-0.24186">
        <ele>4.1</ele>
        <time>2022-05-31T15:38:18Z</time>
      </trkpt>
      <trkpt lat="49.26541" lon="-0.24186">
        <ele>4.1</ele>
        <time>2022-05-31T15:38:19Z</time>
      </trkpt>
      <trkpt lat="49.26541" lon="-0.24186">
        <ele>4.1</ele>
        <time>2022-05-31T15:38:20Z</time>
      </trkpt>
      <trkpt lat="49.26541" lon="-0.24186">
        <ele>4.1</ele>
        <time>2022-05-31T15:38:21Z</time>
      </trkpt>
      <trkpt lat="49.26541" lon="-0.24186">
        <ele>4.1</ele>
        <time>2022-05-31T15:38:22Z</time>
      </trkpt>
      <trkpt lat="49.26541" lon="-0.24186">
        <ele>4.1</ele>
        <time>2022-05-31T15:38:23Z</time>
      </trkpt>
      <trkpt lat="49.26541" lon="-0.24186">
        <ele>4.1</ele>
        <time>2022-05-31T15:38:24Z</time>
      </trkpt>
      <trkpt lat="49.26541" lon="-0.24186">
        <ele>4.1</ele>
        <time>2022-05-31T15:38:25Z</time>
      </trkpt>
      <trkpt lat="49.26541" lon="-0.24186">
        <ele>4.1</ele>
        <time>2022-05-31T15:38:26Z</time>
      </trkpt>
      <trkpt lat="49.26541" lon="-0.24186">
        <ele>4.1</ele>
        <time>2022-05-31T15:38:27Z</time>
      </trkpt>
      <trkpt lat="49.26541" lon="-0.24186">
        <ele>4.1</ele>
        <time>2022-05-31T15:38:28Z</time>
      </trkpt>
      <trkpt lat="49.26541" lon="-0.24186">
        <ele>4.1</ele>
        <time>2022-05-31T15:38:29Z</time>
      </trkpt>
      <trkpt lat="49.26541" lon="-0.24186">
        <ele>4.1</ele>
        <time>2022-05-31T15:38:30Z</time>
      </trkpt>
      <trkpt lat="49.26541" lon="-0.24186">
        <ele>4.1</ele>
        <time>2022-05-31T15:38:31Z</time>
      </trkpt>
      <trkpt lat="49.26541" lon="-0.24186">
        <ele>4.1</ele>
        <time>2022-05-31T15:38:32Z</time>
      </trkpt>
      <trkpt lat="49.26541" lon="-0.24186">
        <ele>4.1</ele>
        <time>2022-05-31T15:38:33Z</time>
      </trkpt>
      <trkpt lat="49.26541" lon="-0.24186">
        <ele>4.1</ele>
        <time>2022-05-31T15:38:34Z</time>
      </trkpt>
      <trkpt lat="49.2654" lon="-0.24186">
        <ele>4.1</ele>
        <time>2022-05-31T15:38:35Z</time>
      </trkpt>
      <trkpt lat="49.26541" lon="-0.24187">
        <ele>4.1</ele>
        <time>2022-05-31T15:38:36Z</time>
      </trkpt>
      <trkpt lat="49.26541" lon="-0.24187">
        <ele>4.1</ele>
        <time>2022-05-31T15:38:37Z</time>
      </trkpt>
      <trkpt lat="49.26541" lon="-0.24188">
        <ele>4.1</ele>
        <time>2022-05-31T15:38:38Z</time>
      </trkpt>
      <trkpt lat="49.26541" lon="-0.24188">
        <ele>4.1</ele>
        <time>2022-05-31T15:38:39Z</time>
      </trkpt>
      <trkpt lat="49.2654" lon="-0.24188">
        <ele>4.1</ele>
        <time>2022-05-31T15:38:40Z</time>
      </trkpt>
      <trkpt lat="49.2654" lon="-0.24187">
        <ele>4.1</ele>
        <time>2022-05-31T15:38:41Z</time>
      </trkpt>
      <trkpt lat="49.2654" lon="-0.24186">
        <ele>4.1</ele>
        <time>2022-05-31T15:38:43Z</time>
      </trkpt>
      <trkpt lat="49.2654" lon="-0.24186">
        <ele>4.1</ele>
        <time>2022-05-31T15:38:44Z</time>
      </trkpt>
      <trkpt lat="49.2654" lon="-0.24185">
        <ele>4.1</ele>
        <time>2022-05-31T15:38:45Z</time>
      </trkpt>
      <trkpt lat="49.2654" lon="-0.24185">
        <ele>4.1</ele>
        <time>2022-05-31T15:38:46Z</time>
      </trkpt>
      <trkpt lat="49.2654" lon="-0.24185">
        <ele>4.1</ele>
        <time>2022-05-31T15:38:47Z</time>
      </trkpt>
      <trkpt lat="49.2654" lon="-0.24185">
        <ele>4.1</ele>
        <time>2022-05-31T15:38:48Z</time>
      </trkpt>
      <trkpt lat="49.2654" lon="-0.24186">
        <ele>4.1</ele>
        <time>2022-05-31T15:38:49Z</time>
      </trkpt>
      <trkpt lat="49.2654" lon="-0.24186">
        <ele>4.1</ele>
        <time>2022-05-31T15:38:50Z</time>
      </trkpt>
      <trkpt lat="49.2654" lon="-0.24186">
        <ele>4.1</ele>
        <time>2022-05-31T15:38:51Z</time>
      </trkpt>
      <trkpt lat="49.2654" lon="-0.24186">
        <ele>4.1</ele>
        <time>2022-05-31T15:38:53Z</time>
      </trkpt>
      <trkpt lat="49.26539" lon="-0.24186">
        <ele>4.1</ele>
        <time>2022-05-31T15:38:54Z</time>
      </trkpt>
      <trkpt lat="49.26539" lon="-0.24186">
        <ele>4.1</ele>
        <time>2022-05-31T15:38:55Z</time>
      </trkpt>
      <trkpt lat="49.26539" lon="-0.24186">
        <ele>4.1</ele>
        <time>2022-05-31T15:38:56Z</time>
      </trkpt>
      <trkpt lat="49.26539" lon="-0.24186">
        <ele>4.1</ele>
        <time>2022-05-31T15:38:57Z</time>
      </trkpt>
      <trkpt lat="49.26539" lon="-0.24186">
        <ele>4.1</ele>
        <time>2022-05-31T15:38:58Z</time>
      </trkpt>
      <trkpt lat="49.26539" lon="-0.24186">
        <ele>4.1</ele>
        <time>2022-05-31T15:38:59Z</time>
      </trkpt>
      <trkpt lat="49.26539" lon="-0.24187">
        <ele>4.1</ele>
        <time>2022-05-31T15:39:00Z</time>
      </trkpt>
      <trkpt lat="49.26539" lon="-0.24187">
        <ele>4.1</ele>
        <time>2022-05-31T15:39:01Z</time>
      </trkpt>
      <trkpt lat="49.26539" lon="-0.24187">
        <ele>4.1</ele>
        <time>2022-05-31T15:39:02Z</time>
      </trkpt>
      <trkpt lat="49.26539" lon="-0.24187">
        <ele>4.1</ele>
        <time>2022-05-31T15:39:03Z</time>
      </trkpt>
      <trkpt lat="49.26539" lon="-0.24187">
        <ele>4.1</ele>
        <time>2022-05-31T15:39:04Z</time>
      </trkpt>
      <trkpt lat="49.26539" lon="-0.24188">
        <ele>4.1</ele>
        <time>2022-05-31T15:39:05Z</time>
      </trkpt>
      <trkpt lat="49.26539" lon="-0.24188">
        <ele>4.1</ele>
        <time>2022-05-31T15:39:06Z</time>
      </trkpt>
      <trkpt lat="49.26539" lon="-0.24188">
        <ele>4.1</ele>
        <time>2022-05-31T15:39:07Z</time>
      </trkpt>
      <trkpt lat="49.26539" lon="-0.24188">
        <ele>4.1</ele>
        <time>2022-05-31T15:39:08Z</time>
      </trkpt>
      <trkpt lat="49.26539" lon="-0.24188">
        <ele>4.1</ele>
        <time>2022-05-31T15:39:09Z</time>
      </trkpt>
      <trkpt lat="49.26539" lon="-0.24188">
        <ele>4.1</ele>
        <time>2022-05-31T15:39:10Z</time>
      </trkpt>
      <trkpt lat="49.26539" lon="-0.24188">
        <ele>4.1</ele>
        <time>2022-05-31T15:39:11Z</time>
      </trkpt>
      <trkpt lat="49.26539" lon="-0.24188">
        <ele>4.1</ele>
        <time>2022-05-31T15:39:12Z</time>
      </trkpt>
      <trkpt lat="49.26539" lon="-0.24188">
        <ele>4.1</ele>
        <time>2022-05-31T15:39:13Z</time>
      </trkpt>
      <trkpt lat="49.26539" lon="-0.24188">
        <ele>4.1</ele>
        <time>2022-05-31T15:39:14Z</time>
      </trkpt>
      <trkpt lat="49.26539" lon="-0.24188">
        <ele>4.1</ele>
        <time>2022-05-31T15:39:15Z</time>
      </trkpt>
      <trkpt lat="49.26539" lon="-0.24187">
        <ele>4.1</ele>
        <time>2022-05-31T15:39:16Z</time>
      </trkpt>
      <trkpt lat="49.26539" lon="-0.24186">
        <ele>4.1</ele>
        <time>2022-05-31T15:39:18Z</time>
      </trkpt>
      <trkpt lat="49.26539" lon="-0.24186">
        <ele>4.1</ele>
        <time>2022-05-31T15:39:19Z</time>
      </trkpt>
      <trkpt lat="49.26538" lon="-0.24186">
        <ele>4.1</ele>
        <time>2022-05-31T15:39:21Z</time>
      </trkpt>
      <trkpt lat="49.26538" lon="-0.24186">
        <ele>4.1</ele>
        <time>2022-05-31T15:39:22Z</time>
      </trkpt>
      <trkpt lat="49.26538" lon="-0.24185">
        <ele>4.1</ele>
        <time>2022-05-31T15:39:24Z</time>
      </trkpt>
      <trkpt lat="49.26538" lon="-0.24185">
        <ele>4.1</ele>
        <time>2022-05-31T15:39:25Z</time>
      </trkpt>
      <trkpt lat="49.26538" lon="-0.24185">
        <ele>4.1</ele>
        <time>2022-05-31T15:39:26Z</time>
      </trkpt>
      <trkpt lat="49.26538" lon="-0.24184">
        <ele>4.1</ele>
        <time>2022-05-31T15:39:27Z</time>
      </trkpt>
      <trkpt lat="49.26537" lon="-0.24183">
        <ele>4.1</ele>
        <time>2022-05-31T15:39:28Z</time>
      </trkpt>
      <trkpt lat="49.26537" lon="-0.24182">
        <ele>4.1</ele>
        <time>2022-05-31T15:39:29Z</time>
      </trkpt>
      <trkpt lat="49.26536" lon="-0.24181">
        <ele>4.1</ele>
        <time>2022-05-31T15:39:31Z</time>
      </trkpt>
      <trkpt lat="49.26536" lon="-0.2418">
        <ele>4.1</ele>
        <time>2022-05-31T15:39:32Z</time>
      </trkpt>
      <trkpt lat="49.26536" lon="-0.24179">
        <ele>4.1</ele>
        <time>2022-05-31T15:39:33Z</time>
      </trkpt>
      <trkpt lat="49.26536" lon="-0.24177">
        <ele>4.1</ele>
        <time>2022-05-31T15:39:34Z</time>
      </trkpt>
      <trkpt lat="49.26535" lon="-0.24176">
        <ele>4.1</ele>
        <time>2022-05-31T15:39:35Z</time>
      </trkpt>
      <trkpt lat="49.26535" lon="-0.24174">
        <ele>4.1</ele>
        <time>2022-05-31T15:39:36Z</time>
      </trkpt>
      <trkpt lat="49.26535" lon="-0.24172">
        <ele>4.1</ele>
        <time>2022-05-31T15:39:37Z</time>
      </trkpt>
      <trkpt lat="49.26534" lon="-0.24171">
        <ele>4.1</ele>
        <time>2022-05-31T15:39:38Z</time>
      </trkpt>
      <trkpt lat="49.26533" lon="-0.2417">
        <ele>4.1</ele>
        <time>2022-05-31T15:39:39Z</time>
      </trkpt>
      <trkpt lat="49.26533" lon="-0.24169">
        <ele>4.1</ele>
        <time>2022-05-31T15:39:40Z</time>
      </trkpt>
      <trkpt lat="49.26532" lon="-0.24167">
        <ele>4.1</ele>
        <time>2022-05-31T15:39:41Z</time>
      </trkpt>
      <trkpt lat="49.26532" lon="-0.24165">
        <ele>4.1</ele>
        <time>2022-05-31T15:39:43Z</time>
      </trkpt>
      <trkpt lat="49.26532" lon="-0.24163">
        <ele>4.1</ele>
        <time>2022-05-31T15:39:44Z</time>
      </trkpt>
      <trkpt lat="49.26532" lon="-0.24161">
        <ele>4.1</ele>
        <time>2022-05-31T15:39:45Z</time>
      </trkpt>
      <trkpt lat="49.26532" lon="-0.2416">
        <ele>4.1</ele>
        <time>2022-05-31T15:39:46Z</time>
      </trkpt>
      <trkpt lat="49.26531" lon="-0.24158">
        <ele>4.1</ele>
        <time>2022-05-31T15:39:47Z</time>
      </trkpt>
      <trkpt lat="49.26531" lon="-0.24156">
        <ele>4.1</ele>
        <time>2022-05-31T15:39:48Z</time>
      </trkpt>
      <trkpt lat="49.26532" lon="-0.24155">
        <ele>4</ele>
        <time>2022-05-31T15:39:49Z</time>
      </trkpt>
      <trkpt lat="49.26532" lon="-0.24153">
        <ele>4</ele>
        <time>2022-05-31T15:39:50Z</time>
      </trkpt>
      <trkpt lat="49.26532" lon="-0.24154">
        <ele>4</ele>
        <time>2022-05-31T15:39:52Z</time>
      </trkpt>
      <trkpt lat="49.26532" lon="-0.24156">
        <ele>4</ele>
        <time>2022-05-31T15:39:53Z</time>
      </trkpt>
      <trkpt lat="49.26532" lon="-0.24157">
        <ele>4</ele>
        <time>2022-05-31T15:39:54Z</time>
      </trkpt>
      <trkpt lat="49.26533" lon="-0.24158">
        <ele>4</ele>
        <time>2022-05-31T15:39:55Z</time>
      </trkpt>
      <trkpt lat="49.26533" lon="-0.24158">
        <ele>4</ele>
        <time>2022-05-31T15:39:56Z</time>
      </trkpt>
      <trkpt lat="49.26533" lon="-0.24159">
        <ele>4</ele>
        <time>2022-05-31T15:39:57Z</time>
      </trkpt>
      <trkpt lat="49.26533" lon="-0.24159">
        <ele>4</ele>
        <time>2022-05-31T15:39:58Z</time>
      </trkpt>
      <trkpt lat="49.26533" lon="-0.24158">
        <ele>4</ele>
        <time>2022-05-31T15:39:59Z</time>
      </trkpt>
      <trkpt lat="49.26532" lon="-0.24158">
        <ele>4</ele>
        <time>2022-05-31T15:40:00Z</time>
      </trkpt>
      <trkpt lat="49.26532" lon="-0.24157">
        <ele>4</ele>
        <time>2022-05-31T15:40:01Z</time>
      </trkpt>
      <trkpt lat="49.26532" lon="-0.24157">
        <ele>4</ele>
        <time>2022-05-31T15:40:02Z</time>
      </trkpt>
      <trkpt lat="49.26531" lon="-0.24155">
        <ele>4</ele>
        <time>2022-05-31T15:40:04Z</time>
      </trkpt>
      <trkpt lat="49.26531" lon="-0.24154">
        <ele>4</ele>
        <time>2022-05-31T15:40:05Z</time>
      </trkpt>
      <trkpt lat="49.26531" lon="-0.24152">
        <ele>4</ele>
        <time>2022-05-31T15:40:06Z</time>
      </trkpt>
      <trkpt lat="49.2653" lon="-0.24151">
        <ele>4</ele>
        <time>2022-05-31T15:40:07Z</time>
      </trkpt>
      <trkpt lat="49.2653" lon="-0.24148">
        <ele>4</ele>
        <time>2022-05-31T15:40:08Z</time>
      </trkpt>
      <trkpt lat="49.2653" lon="-0.24146">
        <ele>4</ele>
        <time>2022-05-31T15:40:09Z</time>
      </trkpt>
      <trkpt lat="49.2653" lon="-0.24144">
        <ele>4</ele>
        <time>2022-05-31T15:40:10Z</time>
      </trkpt>
      <trkpt lat="49.26529" lon="-0.24143">
        <ele>4</ele>
        <time>2022-05-31T15:40:11Z</time>
      </trkpt>
      <trkpt lat="49.26529" lon="-0.24142">
        <ele>4</ele>
        <time>2022-05-31T15:40:12Z</time>
      </trkpt>
      <trkpt lat="49.26529" lon="-0.24139">
        <ele>4</ele>
        <time>2022-05-31T15:40:14Z</time>
      </trkpt>
      <trkpt lat="49.26529" lon="-0.24138">
        <ele>4</ele>
        <time>2022-05-31T15:40:15Z</time>
      </trkpt>
      <trkpt lat="49.26529" lon="-0.24136">
        <ele>4</ele>
        <time>2022-05-31T15:40:16Z</time>
      </trkpt>
      <trkpt lat="49.26529" lon="-0.24133">
        <ele>4</ele>
        <time>2022-05-31T15:40:17Z</time>
      </trkpt>
      <trkpt lat="49.26529" lon="-0.24132">
        <ele>4</ele>
        <time>2022-05-31T15:40:18Z</time>
      </trkpt>
      <trkpt lat="49.26529" lon="-0.24131">
        <ele>4</ele>
        <time>2022-05-31T15:40:19Z</time>
      </trkpt>
      <trkpt lat="49.26528" lon="-0.24128">
        <ele>4</ele>
        <time>2022-05-31T15:40:20Z</time>
      </trkpt>
      <trkpt lat="49.26528" lon="-0.24126">
        <ele>4</ele>
        <time>2022-05-31T15:40:22Z</time>
      </trkpt>
      <trkpt lat="49.26528" lon="-0.24125">
        <ele>4</ele>
        <time>2022-05-31T15:40:23Z</time>
      </trkpt>
      <trkpt lat="49.26528" lon="-0.2412">
        <ele>4</ele>
        <time>2022-05-31T15:40:24Z</time>
      </trkpt>
      <trkpt lat="49.26528" lon="-0.24119">
        <ele>4</ele>
        <time>2022-05-31T15:40:25Z</time>
      </trkpt>
      <trkpt lat="49.26527" lon="-0.24116">
        <ele>4</ele>
        <time>2022-05-31T15:40:26Z</time>
      </trkpt>
      <trkpt lat="49.26527" lon="-0.24114">
        <ele>4</ele>
        <time>2022-05-31T15:40:27Z</time>
      </trkpt>
      <trkpt lat="49.26527" lon="-0.24111">
        <ele>4</ele>
        <time>2022-05-31T15:40:28Z</time>
      </trkpt>
      <trkpt lat="49.26527" lon="-0.24109">
        <ele>4</ele>
        <time>2022-05-31T15:40:30Z</time>
      </trkpt>
      <trkpt lat="49.26527" lon="-0.24108">
        <ele>4</ele>
        <time>2022-05-31T15:40:31Z</time>
      </trkpt>
      <trkpt lat="49.26527" lon="-0.24105">
        <ele>4</ele>
        <time>2022-05-31T15:40:32Z</time>
      </trkpt>
      <trkpt lat="49.26527" lon="-0.24104">
        <ele>4</ele>
        <time>2022-05-31T15:40:33Z</time>
      </trkpt>
      <trkpt lat="49.26527" lon="-0.24103">
        <ele>4</ele>
        <time>2022-05-31T15:40:34Z</time>
      </trkpt>
      <trkpt lat="49.26527" lon="-0.24101">
        <ele>4</ele>
        <time>2022-05-31T15:40:35Z</time>
      </trkpt>
      <trkpt lat="49.26526" lon="-0.24098">
        <ele>4</ele>
        <time>2022-05-31T15:40:36Z</time>
      </trkpt>
      <trkpt lat="49.26526" lon="-0.24097">
        <ele>4</ele>
        <time>2022-05-31T15:40:38Z</time>
      </trkpt>
      <trkpt lat="49.26526" lon="-0.24096">
        <ele>4</ele>
        <time>2022-05-31T15:40:39Z</time>
      </trkpt>
      <trkpt lat="49.26526" lon="-0.24094">
        <ele>4</ele>
        <time>2022-05-31T15:40:40Z</time>
      </trkpt>
      <trkpt lat="49.26525" lon="-0.24092">
        <ele>4</ele>
        <time>2022-05-31T15:40:41Z</time>
      </trkpt>
      <trkpt lat="49.26525" lon="-0.2409">
        <ele>4</ele>
        <time>2022-05-31T15:40:42Z</time>
      </trkpt>
      <trkpt lat="49.26524" lon="-0.24088">
        <ele>4</ele>
        <time>2022-05-31T15:40:43Z</time>
      </trkpt>
      <trkpt lat="49.26524" lon="-0.24087">
        <ele>4</ele>
        <time>2022-05-31T15:40:44Z</time>
      </trkpt>
      <trkpt lat="49.26524" lon="-0.24085">
        <ele>4</ele>
        <time>2022-05-31T15:40:45Z</time>
      </trkpt>
      <trkpt lat="49.26523" lon="-0.24082">
        <ele>4</ele>
        <time>2022-05-31T15:40:47Z</time>
      </trkpt>
      <trkpt lat="49.26523" lon="-0.24081">
        <ele>4</ele>
        <time>2022-05-31T15:40:48Z</time>
      </trkpt>
      <trkpt lat="49.26522" lon="-0.24078">
        <ele>4</ele>
        <time>2022-05-31T15:40:49Z</time>
      </trkpt>
      <trkpt lat="49.26522" lon="-0.24076">
        <ele>4</ele>
        <time>2022-05-31T15:40:50Z</time>
      </trkpt>
      <trkpt lat="49.26522" lon="-0.24075">
        <ele>4</ele>
        <time>2022-05-31T15:40:51Z</time>
      </trkpt>
      <trkpt lat="49.26521" lon="-0.24073">
        <ele>4</ele>
        <time>2022-05-31T15:40:52Z</time>
      </trkpt>
      <trkpt lat="49.26521" lon="-0.24072">
        <ele>4</ele>
        <time>2022-05-31T15:40:53Z</time>
      </trkpt>
      <trkpt lat="49.26521" lon="-0.2407">
        <ele>4</ele>
        <time>2022-05-31T15:40:54Z</time>
      </trkpt>
      <trkpt lat="49.2652" lon="-0.24067">
        <ele>4</ele>
        <time>2022-05-31T15:40:56Z</time>
      </trkpt>
      <trkpt lat="49.2652" lon="-0.24065">
        <ele>4</ele>
        <time>2022-05-31T15:40:57Z</time>
      </trkpt>
      <trkpt lat="49.2652" lon="-0.24064">
        <ele>4</ele>
        <time>2022-05-31T15:40:58Z</time>
      </trkpt>
      <trkpt lat="49.26519" lon="-0.24062">
        <ele>4</ele>
        <time>2022-05-31T15:40:59Z</time>
      </trkpt>
      <trkpt lat="49.26519" lon="-0.2406">
        <ele>4</ele>
        <time>2022-05-31T15:41:00Z</time>
      </trkpt>
      <trkpt lat="49.26519" lon="-0.24058">
        <ele>4</ele>
        <time>2022-05-31T15:41:01Z</time>
      </trkpt>
      <trkpt lat="49.26519" lon="-0.24055">
        <ele>4</ele>
        <time>2022-05-31T15:41:02Z</time>
      </trkpt>
      <trkpt lat="49.26519" lon="-0.24053">
        <ele>4</ele>
        <time>2022-05-31T15:41:03Z</time>
      </trkpt>
      <trkpt lat="49.26519" lon="-0.24051">
        <ele>4.1</ele>
        <time>2022-05-31T15:41:04Z</time>
      </trkpt>
      <trkpt lat="49.26518" lon="-0.24049">
        <ele>4.1</ele>
        <time>2022-05-31T15:41:06Z</time>
      </trkpt>
      <trkpt lat="49.26518" lon="-0.24047">
        <ele>4.1</ele>
        <time>2022-05-31T15:41:07Z</time>
      </trkpt>
      <trkpt lat="49.26518" lon="-0.24046">
        <ele>4.1</ele>
        <time>2022-05-31T15:41:08Z</time>
      </trkpt>
      <trkpt lat="49.26518" lon="-0.24044">
        <ele>4.1</ele>
        <time>2022-05-31T15:41:09Z</time>
      </trkpt>
      <trkpt lat="49.26518" lon="-0.24042">
        <ele>4.1</ele>
        <time>2022-05-31T15:41:10Z</time>
      </trkpt>
      <trkpt lat="49.26518" lon="-0.2404">
        <ele>4.1</ele>
        <time>2022-05-31T15:41:11Z</time>
      </trkpt>
      <trkpt lat="49.26518" lon="-0.24038">
        <ele>4.1</ele>
        <time>2022-05-31T15:41:12Z</time>
      </trkpt>
      <trkpt lat="49.26518" lon="-0.24036">
        <ele>4.1</ele>
        <time>2022-05-31T15:41:13Z</time>
      </trkpt>
      <trkpt lat="49.26518" lon="-0.24034">
        <ele>4.1</ele>
        <time>2022-05-31T15:41:14Z</time>
      </trkpt>
      <trkpt lat="49.26518" lon="-0.2403">
        <ele>4.1</ele>
        <time>2022-05-31T15:41:15Z</time>
      </trkpt>
      <trkpt lat="49.26518" lon="-0.24029">
        <ele>4.1</ele>
        <time>2022-05-31T15:41:17Z</time>
      </trkpt>
      <trkpt lat="49.26518" lon="-0.24027">
        <ele>4.1</ele>
        <time>2022-05-31T15:41:18Z</time>
      </trkpt>
      <trkpt lat="49.26518" lon="-0.24025">
        <ele>4.1</ele>
        <time>2022-05-31T15:41:19Z</time>
      </trkpt>
      <trkpt lat="49.26518" lon="-0.24022">
        <ele>4.1</ele>
        <time>2022-05-31T15:41:20Z</time>
      </trkpt>
      <trkpt lat="49.26517" lon="-0.2402">
        <ele>4.1</ele>
        <time>2022-05-31T15:41:21Z</time>
      </trkpt>
      <trkpt lat="49.26517" lon="-0.24018">
        <ele>4.1</ele>
        <time>2022-05-31T15:41:22Z</time>
      </trkpt>
      <trkpt lat="49.26517" lon="-0.24015">
        <ele>4.1</ele>
        <time>2022-05-31T15:41:24Z</time>
      </trkpt>
      <trkpt lat="49.26517" lon="-0.24013">
        <ele>4.1</ele>
        <time>2022-05-31T15:41:25Z</time>
      </trkpt>
      <trkpt lat="49.26517" lon="-0.24011">
        <ele>4.1</ele>
        <time>2022-05-31T15:41:26Z</time>
      </trkpt>
      <trkpt lat="49.26516" lon="-0.2401">
        <ele>4.1</ele>
        <time>2022-05-31T15:41:27Z</time>
      </trkpt>
      <trkpt lat="49.26516" lon="-0.24008">
        <ele>4.1</ele>
        <time>2022-05-31T15:41:28Z</time>
      </trkpt>
      <trkpt lat="49.26516" lon="-0.24006">
        <ele>4.1</ele>
        <time>2022-05-31T15:41:29Z</time>
      </trkpt>
      <trkpt lat="49.26516" lon="-0.24005">
        <ele>4.1</ele>
        <time>2022-05-31T15:41:30Z</time>
      </trkpt>
      <trkpt lat="49.26515" lon="-0.24003">
        <ele>4.1</ele>
        <time>2022-05-31T15:41:31Z</time>
      </trkpt>
      <trkpt lat="49.26515" lon="-0.24002">
        <ele>4.1</ele>
        <time>2022-05-31T15:41:32Z</time>
      </trkpt>
      <trkpt lat="49.26515" lon="-0.24002">
        <ele>4.1</ele>
        <time>2022-05-31T15:41:33Z</time>
      </trkpt>
      <trkpt lat="49.26515" lon="-0.24001">
        <ele>4.1</ele>
        <time>2022-05-31T15:41:35Z</time>
      </trkpt>
      <trkpt lat="49.26515" lon="-0.24">
        <ele>4.1</ele>
        <time>2022-05-31T15:41:36Z</time>
      </trkpt>
      <trkpt lat="49.26514" lon="-0.23998">
        <ele>4.1</ele>
        <time>2022-05-31T15:41:37Z</time>
      </trkpt>
      <trkpt lat="49.26514" lon="-0.23996">
        <ele>4.1</ele>
        <time>2022-05-31T15:41:38Z</time>
      </trkpt>
      <trkpt lat="49.26514" lon="-0.23993">
        <ele>4.1</ele>
        <time>2022-05-31T15:41:40Z</time>
      </trkpt>
      <trkpt lat="49.26514" lon="-0.23992">
        <ele>4.1</ele>
        <time>2022-05-31T15:41:41Z</time>
      </trkpt>
      <trkpt lat="49.26514" lon="-0.23991">
        <ele>4.1</ele>
        <time>2022-05-31T15:41:42Z</time>
      </trkpt>
      <trkpt lat="49.26514" lon="-0.2399">
        <ele>4.1</ele>
        <time>2022-05-31T15:41:43Z</time>
      </trkpt>
      <trkpt lat="49.26514" lon="-0.23986">
        <ele>4.1</ele>
        <time>2022-05-31T15:41:45Z</time>
      </trkpt>
      <trkpt lat="49.26514" lon="-0.23985">
        <ele>4.1</ele>
        <time>2022-05-31T15:41:46Z</time>
      </trkpt>
      <trkpt lat="49.26514" lon="-0.23983">
        <ele>4.1</ele>
        <time>2022-05-31T15:41:47Z</time>
      </trkpt>
      <trkpt lat="49.26513" lon="-0.23982">
        <ele>4.1</ele>
        <time>2022-05-31T15:41:48Z</time>
      </trkpt>
      <trkpt lat="49.26513" lon="-0.23979">
        <ele>4.1</ele>
        <time>2022-05-31T15:41:49Z</time>
      </trkpt>
      <trkpt lat="49.26512" lon="-0.23977">
        <ele>4.1</ele>
        <time>2022-05-31T15:41:50Z</time>
      </trkpt>
      <trkpt lat="49.26512" lon="-0.23976">
        <ele>4.1</ele>
        <time>2022-05-31T15:41:51Z</time>
      </trkpt>
      <trkpt lat="49.26511" lon="-0.23973">
        <ele>4.1</ele>
        <time>2022-05-31T15:41:52Z</time>
      </trkpt>
      <trkpt lat="49.26511" lon="-0.23972">
        <ele>4.1</ele>
        <time>2022-05-31T15:41:53Z</time>
      </trkpt>
      <trkpt lat="49.26511" lon="-0.23971">
        <ele>4.1</ele>
        <time>2022-05-31T15:41:54Z</time>
      </trkpt>
      <trkpt lat="49.26511" lon="-0.23967">
        <ele>4.1</ele>
        <time>2022-05-31T15:41:56Z</time>
      </trkpt>
      <trkpt lat="49.26511" lon="-0.23966">
        <ele>4.1</ele>
        <time>2022-05-31T15:41:57Z</time>
      </trkpt>
      <trkpt lat="49.26511" lon="-0.23965">
        <ele>4.1</ele>
        <time>2022-05-31T15:41:58Z</time>
      </trkpt>
      <trkpt lat="49.26511" lon="-0.23962">
        <ele>4.1</ele>
        <time>2022-05-31T15:41:59Z</time>
      </trkpt>
      <trkpt lat="49.26511" lon="-0.2396">
        <ele>4.1</ele>
        <time>2022-05-31T15:42:00Z</time>
      </trkpt>
      <trkpt lat="49.26511" lon="-0.23955">
        <ele>4.1</ele>
        <time>2022-05-31T15:42:01Z</time>
      </trkpt>
      <trkpt lat="49.26511" lon="-0.23954">
        <ele>4.1</ele>
        <time>2022-05-31T15:42:02Z</time>
      </trkpt>
      <trkpt lat="49.26511" lon="-0.23952">
        <ele>4.1</ele>
        <time>2022-05-31T15:42:03Z</time>
      </trkpt>
      <trkpt lat="49.26511" lon="-0.2395">
        <ele>4.1</ele>
        <time>2022-05-31T15:42:04Z</time>
      </trkpt>
      <trkpt lat="49.26511" lon="-0.23948">
        <ele>4.1</ele>
        <time>2022-05-31T15:42:06Z</time>
      </trkpt>
      <trkpt lat="49.26511" lon="-0.23945">
        <ele>4.1</ele>
        <time>2022-05-31T15:42:07Z</time>
      </trkpt>
      <trkpt lat="49.26512" lon="-0.23944">
        <ele>4.1</ele>
        <time>2022-05-31T15:42:08Z</time>
      </trkpt>
      <trkpt lat="49.26512" lon="-0.23943">
        <ele>4.1</ele>
        <time>2022-05-31T15:42:09Z</time>
      </trkpt>
      <trkpt lat="49.26512" lon="-0.23942">
        <ele>4.1</ele>
        <time>2022-05-31T15:42:10Z</time>
      </trkpt>
      <trkpt lat="49.26511" lon="-0.2394">
        <ele>4.1</ele>
        <time>2022-05-31T15:42:11Z</time>
      </trkpt>
      <trkpt lat="49.26511" lon="-0.23939">
        <ele>4.1</ele>
        <time>2022-05-31T15:42:12Z</time>
      </trkpt>
      <trkpt lat="49.26511" lon="-0.23937">
        <ele>4.1</ele>
        <time>2022-05-31T15:42:13Z</time>
      </trkpt>
      <trkpt lat="49.26511" lon="-0.23936">
        <ele>4.1</ele>
        <time>2022-05-31T15:42:14Z</time>
      </trkpt>
      <trkpt lat="49.2651" lon="-0.23933">
        <ele>4.1</ele>
        <time>2022-05-31T15:42:16Z</time>
      </trkpt>
      <trkpt lat="49.2651" lon="-0.23932">
        <ele>4.1</ele>
        <time>2022-05-31T15:42:17Z</time>
      </trkpt>
      <trkpt lat="49.2651" lon="-0.23931">
        <ele>4.1</ele>
        <time>2022-05-31T15:42:18Z</time>
      </trkpt>
      <trkpt lat="49.2651" lon="-0.2393">
        <ele>4.1</ele>
        <time>2022-05-31T15:42:19Z</time>
      </trkpt>
      <trkpt lat="49.2651" lon="-0.23929">
        <ele>4.1</ele>
        <time>2022-05-31T15:42:20Z</time>
      </trkpt>
      <trkpt lat="49.2651" lon="-0.23927">
        <ele>4.1</ele>
        <time>2022-05-31T15:42:21Z</time>
      </trkpt>
      <trkpt lat="49.2651" lon="-0.23925">
        <ele>4.1</ele>
        <time>2022-05-31T15:42:22Z</time>
      </trkpt>
      <trkpt lat="49.2651" lon="-0.23923">
        <ele>4.1</ele>
        <time>2022-05-31T15:42:23Z</time>
      </trkpt>
      <trkpt lat="49.26509" lon="-0.2392">
        <ele>4.1</ele>
        <time>2022-05-31T15:42:25Z</time>
      </trkpt>
      <trkpt lat="49.26509" lon="-0.23918">
        <ele>4.1</ele>
        <time>2022-05-31T15:42:26Z</time>
      </trkpt>
      <trkpt lat="49.26508" lon="-0.23916">
        <ele>4.1</ele>
        <time>2022-05-31T15:42:27Z</time>
      </trkpt>
      <trkpt lat="49.26507" lon="-0.23914">
        <ele>4.1</ele>
        <time>2022-05-31T15:42:28Z</time>
      </trkpt>
      <trkpt lat="49.26507" lon="-0.23911">
        <ele>4.1</ele>
        <time>2022-05-31T15:42:29Z</time>
      </trkpt>
      <trkpt lat="49.26506" lon="-0.23909">
        <ele>4.1</ele>
        <time>2022-05-31T15:42:30Z</time>
      </trkpt>
      <trkpt lat="49.26506" lon="-0.23907">
        <ele>4.1</ele>
        <time>2022-05-31T15:42:31Z</time>
      </trkpt>
      <trkpt lat="49.26506" lon="-0.23905">
        <ele>4.1</ele>
        <time>2022-05-31T15:42:32Z</time>
      </trkpt>
      <trkpt lat="49.26505" lon="-0.23903">
        <ele>4.1</ele>
        <time>2022-05-31T15:42:33Z</time>
      </trkpt>
      <trkpt lat="49.26505" lon="-0.239">
        <ele>4.1</ele>
        <time>2022-05-31T15:42:35Z</time>
      </trkpt>
      <trkpt lat="49.26505" lon="-0.23898">
        <ele>4.1</ele>
        <time>2022-05-31T15:42:36Z</time>
      </trkpt>
      <trkpt lat="49.26505" lon="-0.23894">
        <ele>4.1</ele>
        <time>2022-05-31T15:42:37Z</time>
      </trkpt>
      <trkpt lat="49.26505" lon="-0.23893">
        <ele>4.1</ele>
        <time>2022-05-31T15:42:38Z</time>
      </trkpt>
      <trkpt lat="49.26505" lon="-0.23892">
        <ele>4.1</ele>
        <time>2022-05-31T15:42:39Z</time>
      </trkpt>
      <trkpt lat="49.26505" lon="-0.2389">
        <ele>4.1</ele>
        <time>2022-05-31T15:42:40Z</time>
      </trkpt>
      <trkpt lat="49.26505" lon="-0.23888">
        <ele>4.1</ele>
        <time>2022-05-31T15:42:41Z</time>
      </trkpt>
      <trkpt lat="49.26505" lon="-0.23887">
        <ele>4.1</ele>
        <time>2022-05-31T15:42:43Z</time>
      </trkpt>
      <trkpt lat="49.26505" lon="-0.23885">
        <ele>4.1</ele>
        <time>2022-05-31T15:42:44Z</time>
      </trkpt>
      <trkpt lat="49.26504" lon="-0.23884">
        <ele>4.1</ele>
        <time>2022-05-31T15:42:45Z</time>
      </trkpt>
      <trkpt lat="49.26504" lon="-0.23883">
        <ele>4.1</ele>
        <time>2022-05-31T15:42:46Z</time>
      </trkpt>
      <trkpt lat="49.26504" lon="-0.23881">
        <ele>4.1</ele>
        <time>2022-05-31T15:42:47Z</time>
      </trkpt>
      <trkpt lat="49.26504" lon="-0.23879">
        <ele>4.1</ele>
        <time>2022-05-31T15:42:48Z</time>
      </trkpt>
      <trkpt lat="49.26504" lon="-0.23878">
        <ele>4.2</ele>
        <time>2022-05-31T15:42:49Z</time>
      </trkpt>
      <trkpt lat="49.26504" lon="-0.23877">
        <ele>4.2</ele>
        <time>2022-05-31T15:42:50Z</time>
      </trkpt>
      <trkpt lat="49.26504" lon="-0.23876">
        <ele>4.2</ele>
        <time>2022-05-31T15:42:51Z</time>
      </trkpt>
      <trkpt lat="49.26503" lon="-0.23875">
        <ele>4.2</ele>
        <time>2022-05-31T15:42:52Z</time>
      </trkpt>
      <trkpt lat="49.26503" lon="-0.23875">
        <ele>4.2</ele>
        <time>2022-05-31T15:42:53Z</time>
      </trkpt>
      <trkpt lat="49.26503" lon="-0.23874">
        <ele>4.2</ele>
        <time>2022-05-31T15:42:54Z</time>
      </trkpt>
      <trkpt lat="49.26502" lon="-0.23873">
        <ele>4.2</ele>
        <time>2022-05-31T15:42:55Z</time>
      </trkpt>
      <trkpt lat="49.26502" lon="-0.23871">
        <ele>4.2</ele>
        <time>2022-05-31T15:42:56Z</time>
      </trkpt>
      <trkpt lat="49.26502" lon="-0.2387">
        <ele>4.2</ele>
        <time>2022-05-31T15:42:57Z</time>
      </trkpt>
      <trkpt lat="49.26502" lon="-0.23868">
        <ele>4.2</ele>
        <time>2022-05-31T15:42:59Z</time>
      </trkpt>
      <trkpt lat="49.26502" lon="-0.23867">
        <ele>4.2</ele>
        <time>2022-05-31T15:43:00Z</time>
      </trkpt>
      <trkpt lat="49.26501" lon="-0.23865">
        <ele>4.2</ele>
        <time>2022-05-31T15:43:01Z</time>
      </trkpt>
      <trkpt lat="49.26501" lon="-0.23862">
        <ele>4.2</ele>
        <time>2022-05-31T15:43:02Z</time>
      </trkpt>
      <trkpt lat="49.265" lon="-0.23861">
        <ele>4.2</ele>
        <time>2022-05-31T15:43:03Z</time>
      </trkpt>
      <trkpt lat="49.265" lon="-0.2386">
        <ele>4.2</ele>
        <time>2022-05-31T15:43:04Z</time>
      </trkpt>
      <trkpt lat="49.26499" lon="-0.23857">
        <ele>4.2</ele>
        <time>2022-05-31T15:43:05Z</time>
      </trkpt>
      <trkpt lat="49.26499" lon="-0.23856">
        <ele>4.2</ele>
        <time>2022-05-31T15:43:06Z</time>
      </trkpt>
      <trkpt lat="49.26498" lon="-0.23855">
        <ele>4.2</ele>
        <time>2022-05-31T15:43:08Z</time>
      </trkpt>
      <trkpt lat="49.26498" lon="-0.23854">
        <ele>4.2</ele>
        <time>2022-05-31T15:43:09Z</time>
      </trkpt>
      <trkpt lat="49.26498" lon="-0.23853">
        <ele>4.1</ele>
        <time>2022-05-31T15:43:10Z</time>
      </trkpt>
      <trkpt lat="49.26497" lon="-0.23852">
        <ele>4.1</ele>
        <time>2022-05-31T15:43:11Z</time>
      </trkpt>
      <trkpt lat="49.26497" lon="-0.23851">
        <ele>4.1</ele>
        <time>2022-05-31T15:43:12Z</time>
      </trkpt>
      <trkpt lat="49.26497" lon="-0.23849">
        <ele>4.1</ele>
        <time>2022-05-31T15:43:13Z</time>
      </trkpt>
      <trkpt lat="49.26497" lon="-0.23848">
        <ele>4.1</ele>
        <time>2022-05-31T15:43:14Z</time>
      </trkpt>
      <trkpt lat="49.26496" lon="-0.23846">
        <ele>4.1</ele>
        <time>2022-05-31T15:43:15Z</time>
      </trkpt>
      <trkpt lat="49.26496" lon="-0.23844">
        <ele>4.1</ele>
        <time>2022-05-31T15:43:17Z</time>
      </trkpt>
      <trkpt lat="49.26496" lon="-0.23842">
        <ele>4.1</ele>
        <time>2022-05-31T15:43:18Z</time>
      </trkpt>
      <trkpt lat="49.26496" lon="-0.23841">
        <ele>4.1</ele>
        <time>2022-05-31T15:43:19Z</time>
      </trkpt>
      <trkpt lat="49.26496" lon="-0.23838">
        <ele>4.1</ele>
        <time>2022-05-31T15:43:20Z</time>
      </trkpt>
      <trkpt lat="49.26496" lon="-0.23836">
        <ele>4.1</ele>
        <time>2022-05-31T15:43:21Z</time>
      </trkpt>
      <trkpt lat="49.26496" lon="-0.23835">
        <ele>4.1</ele>
        <time>2022-05-31T15:43:22Z</time>
      </trkpt>
      <trkpt lat="49.26496" lon="-0.23833">
        <ele>4.1</ele>
        <time>2022-05-31T15:43:23Z</time>
      </trkpt>
      <trkpt lat="49.26496" lon="-0.23832">
        <ele>4.1</ele>
        <time>2022-05-31T15:43:24Z</time>
      </trkpt>
      <trkpt lat="49.26496" lon="-0.23829">
        <ele>4.1</ele>
        <time>2022-05-31T15:43:26Z</time>
      </trkpt>
      <trkpt lat="49.26496" lon="-0.23828">
        <ele>4.1</ele>
        <time>2022-05-31T15:43:27Z</time>
      </trkpt>
      <trkpt lat="49.26496" lon="-0.23826">
        <ele>4.1</ele>
        <time>2022-05-31T15:43:28Z</time>
      </trkpt>
      <trkpt lat="49.26495" lon="-0.23825">
        <ele>4.1</ele>
        <time>2022-05-31T15:43:29Z</time>
      </trkpt>
      <trkpt lat="49.26495" lon="-0.23822">
        <ele>4.1</ele>
        <time>2022-05-31T15:43:30Z</time>
      </trkpt>
      <trkpt lat="49.26495" lon="-0.23819">
        <ele>4.1</ele>
        <time>2022-05-31T15:43:31Z</time>
      </trkpt>
      <trkpt lat="49.26495" lon="-0.23818">
        <ele>4.1</ele>
        <time>2022-05-31T15:43:32Z</time>
      </trkpt>
      <trkpt lat="49.26496" lon="-0.23817">
        <ele>4.1</ele>
        <time>2022-05-31T15:43:33Z</time>
      </trkpt>
      <trkpt lat="49.26496" lon="-0.23815">
        <ele>4.1</ele>
        <time>2022-05-31T15:43:35Z</time>
      </trkpt>
      <trkpt lat="49.26496" lon="-0.23813">
        <ele>4.1</ele>
        <time>2022-05-31T15:43:36Z</time>
      </trkpt>
      <trkpt lat="49.26496" lon="-0.23811">
        <ele>4.1</ele>
        <time>2022-05-31T15:43:37Z</time>
      </trkpt>
      <trkpt lat="49.26496" lon="-0.23808">
        <ele>4.1</ele>
        <time>2022-05-31T15:43:38Z</time>
      </trkpt>
      <trkpt lat="49.26496" lon="-0.23807">
        <ele>4.1</ele>
        <time>2022-05-31T15:43:39Z</time>
      </trkpt>
      <trkpt lat="49.26496" lon="-0.23805">
        <ele>4.1</ele>
        <time>2022-05-31T15:43:40Z</time>
      </trkpt>
      <trkpt lat="49.26496" lon="-0.23803">
        <ele>4.1</ele>
        <time>2022-05-31T15:43:41Z</time>
      </trkpt>
      <trkpt lat="49.26496" lon="-0.23802">
        <ele>4.1</ele>
        <time>2022-05-31T15:43:43Z</time>
      </trkpt>
      <trkpt lat="49.26496" lon="-0.238">
        <ele>4.1</ele>
        <time>2022-05-31T15:43:44Z</time>
      </trkpt>
      <trkpt lat="49.26496" lon="-0.23798">
        <ele>4.1</ele>
        <time>2022-05-31T15:43:45Z</time>
      </trkpt>
      <trkpt lat="49.26496" lon="-0.23796">
        <ele>4.1</ele>
        <time>2022-05-31T15:43:46Z</time>
      </trkpt>
      <trkpt lat="49.26496" lon="-0.23794">
        <ele>4.1</ele>
        <time>2022-05-31T15:43:47Z</time>
      </trkpt>
      <trkpt lat="49.26496" lon="-0.23793">
        <ele>4.1</ele>
        <time>2022-05-31T15:43:48Z</time>
      </trkpt>
      <trkpt lat="49.26496" lon="-0.23791">
        <ele>4.1</ele>
        <time>2022-05-31T15:43:49Z</time>
      </trkpt>
      <trkpt lat="49.26496" lon="-0.23789">
        <ele>4.1</ele>
        <time>2022-05-31T15:43:50Z</time>
      </trkpt>
      <trkpt lat="49.26495" lon="-0.23787">
        <ele>4.1</ele>
        <time>2022-05-31T15:43:52Z</time>
      </trkpt>
      <trkpt lat="49.26495" lon="-0.23785">
        <ele>4.1</ele>
        <time>2022-05-31T15:43:53Z</time>
      </trkpt>
      <trkpt lat="49.26495" lon="-0.23783">
        <ele>4.1</ele>
        <time>2022-05-31T15:43:54Z</time>
      </trkpt>
      <trkpt lat="49.26494" lon="-0.2378">
        <ele>4.1</ele>
        <time>2022-05-31T15:43:55Z</time>
      </trkpt>
      <trkpt lat="49.26494" lon="-0.23778">
        <ele>4.1</ele>
        <time>2022-05-31T15:43:56Z</time>
      </trkpt>
      <trkpt lat="49.26493" lon="-0.23775">
        <ele>4.1</ele>
        <time>2022-05-31T15:43:57Z</time>
      </trkpt>
      <trkpt lat="49.26493" lon="-0.23774">
        <ele>4.1</ele>
        <time>2022-05-31T15:43:58Z</time>
      </trkpt>
      <trkpt lat="49.26492" lon="-0.23774">
        <ele>4.1</ele>
        <time>2022-05-31T15:43:59Z</time>
      </trkpt>
      <trkpt lat="49.26492" lon="-0.23773">
        <ele>4.1</ele>
        <time>2022-05-31T15:44:01Z</time>
      </trkpt>
      <trkpt lat="49.26491" lon="-0.23771">
        <ele>4.1</ele>
        <time>2022-05-31T15:44:02Z</time>
      </trkpt>
      <trkpt lat="49.26491" lon="-0.2377">
        <ele>4.1</ele>
        <time>2022-05-31T15:44:03Z</time>
      </trkpt>
      <trkpt lat="49.2649" lon="-0.23769">
        <ele>4.1</ele>
        <time>2022-05-31T15:44:04Z</time>
      </trkpt>
      <trkpt lat="49.2649" lon="-0.23766">
        <ele>4.1</ele>
        <time>2022-05-31T15:44:05Z</time>
      </trkpt>
      <trkpt lat="49.2649" lon="-0.23765">
        <ele>4.1</ele>
        <time>2022-05-31T15:44:06Z</time>
      </trkpt>
      <trkpt lat="49.2649" lon="-0.23764">
        <ele>4.1</ele>
        <time>2022-05-31T15:44:07Z</time>
      </trkpt>
      <trkpt lat="49.2649" lon="-0.23762">
        <ele>4.1</ele>
        <time>2022-05-31T15:44:08Z</time>
      </trkpt>
      <trkpt lat="49.2649" lon="-0.2376">
        <ele>4.1</ele>
        <time>2022-05-31T15:44:10Z</time>
      </trkpt>
      <trkpt lat="49.2649" lon="-0.23758">
        <ele>4.1</ele>
        <time>2022-05-31T15:44:11Z</time>
      </trkpt>
      <trkpt lat="49.2649" lon="-0.23757">
        <ele>4.1</ele>
        <time>2022-05-31T15:44:12Z</time>
      </trkpt>
      <trkpt lat="49.2649" lon="-0.23755">
        <ele>4.1</ele>
        <time>2022-05-31T15:44:13Z</time>
      </trkpt>
      <trkpt lat="49.26489" lon="-0.23753">
        <ele>4.1</ele>
        <time>2022-05-31T15:44:14Z</time>
      </trkpt>
      <trkpt lat="49.26489" lon="-0.23752">
        <ele>4.1</ele>
        <time>2022-05-31T15:44:15Z</time>
      </trkpt>
      <trkpt lat="49.26489" lon="-0.2375">
        <ele>4.1</ele>
        <time>2022-05-31T15:44:16Z</time>
      </trkpt>
      <trkpt lat="49.26489" lon="-0.23748">
        <ele>4.1</ele>
        <time>2022-05-31T15:44:17Z</time>
      </trkpt>
      <trkpt lat="49.26488" lon="-0.23746">
        <ele>4.1</ele>
        <time>2022-05-31T15:44:19Z</time>
      </trkpt>
      <trkpt lat="49.26488" lon="-0.23745">
        <ele>4.1</ele>
        <time>2022-05-31T15:44:20Z</time>
      </trkpt>
      <trkpt lat="49.26487" lon="-0.23744">
        <ele>4.1</ele>
        <time>2022-05-31T15:44:21Z</time>
      </trkpt>
      <trkpt lat="49.26487" lon="-0.23742">
        <ele>4.1</ele>
        <time>2022-05-31T15:44:22Z</time>
      </trkpt>
      <trkpt lat="49.26487" lon="-0.2374">
        <ele>4.1</ele>
        <time>2022-05-31T15:44:23Z</time>
      </trkpt>
      <trkpt lat="49.26487" lon="-0.23739">
        <ele>4.1</ele>
        <time>2022-05-31T15:44:24Z</time>
      </trkpt>
      <trkpt lat="49.26487" lon="-0.23737">
        <ele>4.1</ele>
        <time>2022-05-31T15:44:25Z</time>
      </trkpt>
      <trkpt lat="49.26486" lon="-0.23735">
        <ele>4.1</ele>
        <time>2022-05-31T15:44:27Z</time>
      </trkpt>
      <trkpt lat="49.26486" lon="-0.23733">
        <ele>4.1</ele>
        <time>2022-05-31T15:44:28Z</time>
      </trkpt>
      <trkpt lat="49.26486" lon="-0.23731">
        <ele>4.1</ele>
        <time>2022-05-31T15:44:29Z</time>
      </trkpt>
      <trkpt lat="49.26486" lon="-0.2373">
        <ele>4.1</ele>
        <time>2022-05-31T15:44:30Z</time>
      </trkpt>
      <trkpt lat="49.26486" lon="-0.23728">
        <ele>4.1</ele>
        <time>2022-05-31T15:44:31Z</time>
      </trkpt>
      <trkpt lat="49.26486" lon="-0.23727">
        <ele>4.1</ele>
        <time>2022-05-31T15:44:32Z</time>
      </trkpt>
      <trkpt lat="49.26485" lon="-0.23724">
        <ele>4.1</ele>
        <time>2022-05-31T15:44:33Z</time>
      </trkpt>
      <trkpt lat="49.26485" lon="-0.23723">
        <ele>4.1</ele>
        <time>2022-05-31T15:44:34Z</time>
      </trkpt>
      <trkpt lat="49.26485" lon="-0.23721">
        <ele>4.1</ele>
        <time>2022-05-31T15:44:35Z</time>
      </trkpt>
      <trkpt lat="49.26485" lon="-0.2372">
        <ele>4.1</ele>
        <time>2022-05-31T15:44:37Z</time>
      </trkpt>
      <trkpt lat="49.26485" lon="-0.23717">
        <ele>4.1</ele>
        <time>2022-05-31T15:44:38Z</time>
      </trkpt>
      <trkpt lat="49.26485" lon="-0.23716">
        <ele>4.1</ele>
        <time>2022-05-31T15:44:39Z</time>
      </trkpt>
      <trkpt lat="49.26485" lon="-0.23714">
        <ele>4.1</ele>
        <time>2022-05-31T15:44:40Z</time>
      </trkpt>
      <trkpt lat="49.26484" lon="-0.23712">
        <ele>4.1</ele>
        <time>2022-05-31T15:44:41Z</time>
      </trkpt>
      <trkpt lat="49.26484" lon="-0.23711">
        <ele>4.1</ele>
        <time>2022-05-31T15:44:42Z</time>
      </trkpt>
      <trkpt lat="49.26484" lon="-0.23709">
        <ele>4.1</ele>
        <time>2022-05-31T15:44:43Z</time>
      </trkpt>
      <trkpt lat="49.26484" lon="-0.23708">
        <ele>4.1</ele>
        <time>2022-05-31T15:44:44Z</time>
      </trkpt>
      <trkpt lat="49.26484" lon="-0.23706">
        <ele>4.1</ele>
        <time>2022-05-31T15:44:45Z</time>
      </trkpt>
      <trkpt lat="49.26484" lon="-0.23704">
        <ele>4.1</ele>
        <time>2022-05-31T15:44:47Z</time>
      </trkpt>
      <trkpt lat="49.26484" lon="-0.23702">
        <ele>4</ele>
        <time>2022-05-31T15:44:48Z</time>
      </trkpt>
      <trkpt lat="49.26483" lon="-0.23701">
        <ele>4</ele>
        <time>2022-05-31T15:44:49Z</time>
      </trkpt>
      <trkpt lat="49.26483" lon="-0.237">
        <ele>4</ele>
        <time>2022-05-31T15:44:50Z</time>
      </trkpt>
      <trkpt lat="49.26483" lon="-0.23698">
        <ele>4</ele>
        <time>2022-05-31T15:44:51Z</time>
      </trkpt>
      <trkpt lat="49.26483" lon="-0.23695">
        <ele>4</ele>
        <time>2022-05-31T15:44:52Z</time>
      </trkpt>
      <trkpt lat="49.26482" lon="-0.23692">
        <ele>4</ele>
        <time>2022-05-31T15:44:53Z</time>
      </trkpt>
      <trkpt lat="49.26482" lon="-0.2369">
        <ele>4</ele>
        <time>2022-05-31T15:44:54Z</time>
      </trkpt>
      <trkpt lat="49.26482" lon="-0.23688">
        <ele>4</ele>
        <time>2022-05-31T15:44:55Z</time>
      </trkpt>
      <trkpt lat="49.26481" lon="-0.23685">
        <ele>4</ele>
        <time>2022-05-31T15:44:57Z</time>
      </trkpt>
      <trkpt lat="49.26481" lon="-0.23683">
        <ele>4</ele>
        <time>2022-05-31T15:44:58Z</time>
      </trkpt>
      <trkpt lat="49.2648" lon="-0.23681">
        <ele>4</ele>
        <time>2022-05-31T15:44:59Z</time>
      </trkpt>
      <trkpt lat="49.2648" lon="-0.23679">
        <ele>4</ele>
        <time>2022-05-31T15:45:00Z</time>
      </trkpt>
      <trkpt lat="49.26479" lon="-0.23677">
        <ele>4</ele>
        <time>2022-05-31T15:45:01Z</time>
      </trkpt>
      <trkpt lat="49.26479" lon="-0.23677">
        <ele>4</ele>
        <time>2022-05-31T15:45:02Z</time>
      </trkpt>
      <trkpt lat="49.26478" lon="-0.23675">
        <ele>4</ele>
        <time>2022-05-31T15:45:03Z</time>
      </trkpt>
      <trkpt lat="49.26478" lon="-0.23672">
        <ele>4</ele>
        <time>2022-05-31T15:45:04Z</time>
      </trkpt>
      <trkpt lat="49.26477" lon="-0.23671">
        <ele>4</ele>
        <time>2022-05-31T15:45:06Z</time>
      </trkpt>
      <trkpt lat="49.26477" lon="-0.2367">
        <ele>4</ele>
        <time>2022-05-31T15:45:07Z</time>
      </trkpt>
      <trkpt lat="49.26477" lon="-0.23667">
        <ele>4</ele>
        <time>2022-05-31T15:45:08Z</time>
      </trkpt>
      <trkpt lat="49.26477" lon="-0.23665">
        <ele>4</ele>
        <time>2022-05-31T15:45:09Z</time>
      </trkpt>
      <trkpt lat="49.26476" lon="-0.23664">
        <ele>4</ele>
        <time>2022-05-31T15:45:10Z</time>
      </trkpt>
      <trkpt lat="49.26476" lon="-0.23662">
        <ele>4</ele>
        <time>2022-05-31T15:45:12Z</time>
      </trkpt>
      <trkpt lat="49.26476" lon="-0.23661">
        <ele>4</ele>
        <time>2022-05-31T15:45:13Z</time>
      </trkpt>
      <trkpt lat="49.26476" lon="-0.23659">
        <ele>4</ele>
        <time>2022-05-31T15:45:14Z</time>
      </trkpt>
      <trkpt lat="49.26476" lon="-0.23655">
        <ele>4</ele>
        <time>2022-05-31T15:45:15Z</time>
      </trkpt>
      <trkpt lat="49.26476" lon="-0.23654">
        <ele>4</ele>
        <time>2022-05-31T15:45:16Z</time>
      </trkpt>
      <trkpt lat="49.26476" lon="-0.23653">
        <ele>4</ele>
        <time>2022-05-31T15:45:17Z</time>
      </trkpt>
      <trkpt lat="49.26475" lon="-0.2365">
        <ele>4</ele>
        <time>2022-05-31T15:45:18Z</time>
      </trkpt>
      <trkpt lat="49.26475" lon="-0.23649">
        <ele>4</ele>
        <time>2022-05-31T15:45:20Z</time>
      </trkpt>
      <trkpt lat="49.26475" lon="-0.23648">
        <ele>4</ele>
        <time>2022-05-31T15:45:21Z</time>
      </trkpt>
      <trkpt lat="49.26475" lon="-0.23647">
        <ele>4</ele>
        <time>2022-05-31T15:45:22Z</time>
      </trkpt>
      <trkpt lat="49.26476" lon="-0.23644">
        <ele>4</ele>
        <time>2022-05-31T15:45:24Z</time>
      </trkpt>
      <trkpt lat="49.26476" lon="-0.23642">
        <ele>4</ele>
        <time>2022-05-31T15:45:25Z</time>
      </trkpt>
      <trkpt lat="49.26476" lon="-0.23641">
        <ele>4</ele>
        <time>2022-05-31T15:45:26Z</time>
      </trkpt>
      <trkpt lat="49.26476" lon="-0.23639">
        <ele>4</ele>
        <time>2022-05-31T15:45:27Z</time>
      </trkpt>
      <trkpt lat="49.26475" lon="-0.23636">
        <ele>4</ele>
        <time>2022-05-31T15:45:28Z</time>
      </trkpt>
      <trkpt lat="49.26475" lon="-0.23635">
        <ele>4</ele>
        <time>2022-05-31T15:45:29Z</time>
      </trkpt>
      <trkpt lat="49.26475" lon="-0.23633">
        <ele>4</ele>
        <time>2022-05-31T15:45:30Z</time>
      </trkpt>
      <trkpt lat="49.26474" lon="-0.2363">
        <ele>4</ele>
        <time>2022-05-31T15:45:32Z</time>
      </trkpt>
      <trkpt lat="49.26474" lon="-0.23629">
        <ele>4</ele>
        <time>2022-05-31T15:45:33Z</time>
      </trkpt>
      <trkpt lat="49.26474" lon="-0.23628">
        <ele>4</ele>
        <time>2022-05-31T15:45:34Z</time>
      </trkpt>
      <trkpt lat="49.26474" lon="-0.23626">
        <ele>4</ele>
        <time>2022-05-31T15:45:35Z</time>
      </trkpt>
      <trkpt lat="49.26473" lon="-0.23625">
        <ele>4</ele>
        <time>2022-05-31T15:45:36Z</time>
      </trkpt>
      <trkpt lat="49.26473" lon="-0.23623">
        <ele>4</ele>
        <time>2022-05-31T15:45:37Z</time>
      </trkpt>
      <trkpt lat="49.26473" lon="-0.23622">
        <ele>4</ele>
        <time>2022-05-31T15:45:38Z</time>
      </trkpt>
      <trkpt lat="49.26473" lon="-0.2362">
        <ele>4</ele>
        <time>2022-05-31T15:45:39Z</time>
      </trkpt>
      <trkpt lat="49.26473" lon="-0.23618">
        <ele>4</ele>
        <time>2022-05-31T15:45:41Z</time>
      </trkpt>
      <trkpt lat="49.26473" lon="-0.23616">
        <ele>4</ele>
        <time>2022-05-31T15:45:42Z</time>
      </trkpt>
      <trkpt lat="49.26473" lon="-0.23614">
        <ele>4</ele>
        <time>2022-05-31T15:45:43Z</time>
      </trkpt>
      <trkpt lat="49.26473" lon="-0.23613">
        <ele>4</ele>
        <time>2022-05-31T15:45:44Z</time>
      </trkpt>
      <trkpt lat="49.26474" lon="-0.23611">
        <ele>4</ele>
        <time>2022-05-31T15:45:45Z</time>
      </trkpt>
      <trkpt lat="49.26474" lon="-0.23609">
        <ele>4</ele>
        <time>2022-05-31T15:45:46Z</time>
      </trkpt>
      <trkpt lat="49.26474" lon="-0.23608">
        <ele>4</ele>
        <time>2022-05-31T15:45:47Z</time>
      </trkpt>
      <trkpt lat="49.26474" lon="-0.23606">
        <ele>4</ele>
        <time>2022-05-31T15:45:49Z</time>
      </trkpt>
      <trkpt lat="49.26474" lon="-0.23604">
        <ele>4</ele>
        <time>2022-05-31T15:45:50Z</time>
      </trkpt>
      <trkpt lat="49.26474" lon="-0.23603">
        <ele>4</ele>
        <time>2022-05-31T15:45:51Z</time>
      </trkpt>
      <trkpt lat="49.26474" lon="-0.236">
        <ele>4</ele>
        <time>2022-05-31T15:45:53Z</time>
      </trkpt>
      <trkpt lat="49.26474" lon="-0.23598">
        <ele>4</ele>
        <time>2022-05-31T15:45:54Z</time>
      </trkpt>
      <trkpt lat="49.26474" lon="-0.23596">
        <ele>4.2</ele>
        <time>2022-05-31T15:45:55Z</time>
      </trkpt>
      <trkpt lat="49.26474" lon="-0.23595">
        <ele>4.2</ele>
        <time>2022-05-31T15:45:56Z</time>
      </trkpt>
      <trkpt lat="49.26474" lon="-0.23593">
        <ele>4.2</ele>
        <time>2022-05-31T15:45:57Z</time>
      </trkpt>
      <trkpt lat="49.26474" lon="-0.23592">
        <ele>4.2</ele>
        <time>2022-05-31T15:45:59Z</time>
      </trkpt>
      <trkpt lat="49.26474" lon="-0.23591">
        <ele>4.2</ele>
        <time>2022-05-31T15:46:00Z</time>
      </trkpt>
      <trkpt lat="49.26474" lon="-0.23589">
        <ele>4.2</ele>
        <time>2022-05-31T15:46:01Z</time>
      </trkpt>
      <trkpt lat="49.26474" lon="-0.23588">
        <ele>4.2</ele>
        <time>2022-05-31T15:46:02Z</time>
      </trkpt>
      <trkpt lat="49.26474" lon="-0.23586">
        <ele>4.2</ele>
        <time>2022-05-31T15:46:03Z</time>
      </trkpt>
      <trkpt lat="49.26474" lon="-0.23585">
        <ele>4.2</ele>
        <time>2022-05-31T15:46:04Z</time>
      </trkpt>
      <trkpt lat="49.26474" lon="-0.23583">
        <ele>4.2</ele>
        <time>2022-05-31T15:46:06Z</time>
      </trkpt>
      <trkpt lat="49.26474" lon="-0.23582">
        <ele>4.1</ele>
        <time>2022-05-31T15:46:07Z</time>
      </trkpt>
      <trkpt lat="49.26473" lon="-0.2358">
        <ele>4.1</ele>
        <time>2022-05-31T15:46:08Z</time>
      </trkpt>
      <trkpt lat="49.26473" lon="-0.23578">
        <ele>4.1</ele>
        <time>2022-05-31T15:46:09Z</time>
      </trkpt>
      <trkpt lat="49.26473" lon="-0.23575">
        <ele>4.1</ele>
        <time>2022-05-31T15:46:10Z</time>
      </trkpt>
      <trkpt lat="49.26473" lon="-0.23574">
        <ele>4.1</ele>
        <time>2022-05-31T15:46:11Z</time>
      </trkpt>
      <trkpt lat="49.26473" lon="-0.23573">
        <ele>4.1</ele>
        <time>2022-05-31T15:46:12Z</time>
      </trkpt>
      <trkpt lat="49.26473" lon="-0.23572">
        <ele>4.1</ele>
        <time>2022-05-31T15:46:14Z</time>
      </trkpt>
      <trkpt lat="49.26472" lon="-0.2357">
        <ele>4.1</ele>
        <time>2022-05-31T15:46:15Z</time>
      </trkpt>
      <trkpt lat="49.26472" lon="-0.23569">
        <ele>4.1</ele>
        <time>2022-05-31T15:46:16Z</time>
      </trkpt>
      <trkpt lat="49.26472" lon="-0.23566">
        <ele>4.1</ele>
        <time>2022-05-31T15:46:18Z</time>
      </trkpt>
      <trkpt lat="49.26472" lon="-0.23565">
        <ele>4.1</ele>
        <time>2022-05-31T15:46:19Z</time>
      </trkpt>
      <trkpt lat="49.26472" lon="-0.23563">
        <ele>4.1</ele>
        <time>2022-05-31T15:46:20Z</time>
      </trkpt>
      <trkpt lat="49.26472" lon="-0.23562">
        <ele>4.1</ele>
        <time>2022-05-31T15:46:21Z</time>
      </trkpt>
      <trkpt lat="49.26472" lon="-0.23561">
        <ele>4.1</ele>
        <time>2022-05-31T15:46:22Z</time>
      </trkpt>
      <trkpt lat="49.26471" lon="-0.23559">
        <ele>4.1</ele>
        <time>2022-05-31T15:46:23Z</time>
      </trkpt>
      <trkpt lat="49.2647" lon="-0.23558">
        <ele>4.1</ele>
        <time>2022-05-31T15:46:24Z</time>
      </trkpt>
      <trkpt lat="49.26468" lon="-0.23559">
        <ele>4.1</ele>
        <time>2022-05-31T15:46:26Z</time>
      </trkpt>
      <trkpt lat="49.26467" lon="-0.23559">
        <ele>4.1</ele>
        <time>2022-05-31T15:46:27Z</time>
      </trkpt>
      <trkpt lat="49.26466" lon="-0.2356">
        <ele>4.1</ele>
        <time>2022-05-31T15:46:28Z</time>
      </trkpt>
      <trkpt lat="49.26464" lon="-0.2356">
        <ele>4.1</ele>
        <time>2022-05-31T15:46:29Z</time>
      </trkpt>
      <trkpt lat="49.26463" lon="-0.2356">
        <ele>4.1</ele>
        <time>2022-05-31T15:46:30Z</time>
      </trkpt>
      <trkpt lat="49.26462" lon="-0.2356">
        <ele>4.1</ele>
        <time>2022-05-31T15:46:32Z</time>
      </trkpt>
      <trkpt lat="49.26461" lon="-0.23561">
        <ele>4.1</ele>
        <time>2022-05-31T15:46:33Z</time>
      </trkpt>
      <trkpt lat="49.2646" lon="-0.23563">
        <ele>4.1</ele>
        <time>2022-05-31T15:46:35Z</time>
      </trkpt>
      <trkpt lat="49.2646" lon="-0.23566">
        <ele>4.1</ele>
        <time>2022-05-31T15:46:37Z</time>
      </trkpt>
      <trkpt lat="49.26459" lon="-0.23567">
        <ele>4.1</ele>
        <time>2022-05-31T15:46:38Z</time>
      </trkpt>
      <trkpt lat="49.26459" lon="-0.23568">
        <ele>4.1</ele>
        <time>2022-05-31T15:46:39Z</time>
      </trkpt>
      <trkpt lat="49.26459" lon="-0.23568">
        <ele>4.1</ele>
        <time>2022-05-31T15:46:40Z</time>
      </trkpt>
      <trkpt lat="49.26459" lon="-0.23568">
        <ele>4.1</ele>
        <time>2022-05-31T15:46:41Z</time>
      </trkpt>
      <trkpt lat="49.26457" lon="-0.23566">
        <ele>4.1</ele>
        <time>2022-05-31T15:46:43Z</time>
      </trkpt>
      <trkpt lat="49.26457" lon="-0.23565">
        <ele>4.1</ele>
        <time>2022-05-31T15:46:45Z</time>
      </trkpt>
      <trkpt lat="49.26456" lon="-0.23563">
        <ele>4.2</ele>
        <time>2022-05-31T15:46:46Z</time>
      </trkpt>
      <trkpt lat="49.26455" lon="-0.23562">
        <ele>4.2</ele>
        <time>2022-05-31T15:46:47Z</time>
      </trkpt>
      <trkpt lat="49.26455" lon="-0.23561">
        <ele>4.2</ele>
        <time>2022-05-31T15:46:49Z</time>
      </trkpt>
      <trkpt lat="49.26454" lon="-0.23561">
        <ele>4.2</ele>
        <time>2022-05-31T15:46:50Z</time>
      </trkpt>
      <trkpt lat="49.26454" lon="-0.2356">
        <ele>4.2</ele>
        <time>2022-05-31T15:46:51Z</time>
      </trkpt>
      <trkpt lat="49.26455" lon="-0.23558">
        <ele>4.2</ele>
        <time>2022-05-31T15:46:52Z</time>
      </trkpt>
      <trkpt lat="49.26455" lon="-0.23558">
        <ele>4.2</ele>
        <time>2022-05-31T15:46:53Z</time>
      </trkpt>
      <trkpt lat="49.26456" lon="-0.23557">
        <ele>4.2</ele>
        <time>2022-05-31T15:46:55Z</time>
      </trkpt>
      <trkpt lat="49.26455" lon="-0.23557">
        <ele>4.2</ele>
        <time>2022-05-31T15:46:56Z</time>
      </trkpt>
      <trkpt lat="49.26455" lon="-0.23557">
        <ele>4.2</ele>
        <time>2022-05-31T15:46:57Z</time>
      </trkpt>
      <trkpt lat="49.26454" lon="-0.23559">
        <ele>4.2</ele>
        <time>2022-05-31T15:46:58Z</time>
      </trkpt>
      <trkpt lat="49.26453" lon="-0.23561">
        <ele>4.2</ele>
        <time>2022-05-31T15:47:00Z</time>
      </trkpt>
      <trkpt lat="49.26453" lon="-0.23563">
        <ele>4.2</ele>
        <time>2022-05-31T15:47:01Z</time>
      </trkpt>
      <trkpt lat="49.26452" lon="-0.23564">
        <ele>4.2</ele>
        <time>2022-05-31T15:47:02Z</time>
      </trkpt>
      <trkpt lat="49.26451" lon="-0.23564">
        <ele>4.2</ele>
        <time>2022-05-31T15:47:03Z</time>
      </trkpt>
      <trkpt lat="49.2645" lon="-0.23564">
        <ele>4.2</ele>
        <time>2022-05-31T15:47:04Z</time>
      </trkpt>
      <trkpt lat="49.26449" lon="-0.23564">
        <ele>4.2</ele>
        <time>2022-05-31T15:47:05Z</time>
      </trkpt>
      <trkpt lat="49.26449" lon="-0.23564">
        <ele>4.2</ele>
        <time>2022-05-31T15:47:07Z</time>
      </trkpt>
      <trkpt lat="49.26448" lon="-0.23564">
        <ele>4.2</ele>
        <time>2022-05-31T15:47:08Z</time>
      </trkpt>
      <trkpt lat="49.26448" lon="-0.23564">
        <ele>4.2</ele>
        <time>2022-05-31T15:47:09Z</time>
      </trkpt>
      <trkpt lat="49.26448" lon="-0.23564">
        <ele>4.2</ele>
        <time>2022-05-31T15:47:10Z</time>
      </trkpt>
      <trkpt lat="49.26447" lon="-0.23565">
        <ele>4.2</ele>
        <time>2022-05-31T15:47:12Z</time>
      </trkpt>
      <trkpt lat="49.26446" lon="-0.23565">
        <ele>4.2</ele>
        <time>2022-05-31T15:47:13Z</time>
      </trkpt>
      <trkpt lat="49.26446" lon="-0.23565">
        <ele>4.2</ele>
        <time>2022-05-31T15:47:14Z</time>
      </trkpt>
      <trkpt lat="49.26446" lon="-0.23565">
        <ele>4.2</ele>
        <time>2022-05-31T15:47:15Z</time>
      </trkpt>
      <trkpt lat="49.26445" lon="-0.23565">
        <ele>4.2</ele>
        <time>2022-05-31T15:47:16Z</time>
      </trkpt>
      <trkpt lat="49.26444" lon="-0.23564">
        <ele>4.2</ele>
        <time>2022-05-31T15:47:17Z</time>
      </trkpt>
      <trkpt lat="49.26444" lon="-0.23564">
        <ele>4.2</ele>
        <time>2022-05-31T15:47:19Z</time>
      </trkpt>
      <trkpt lat="49.26444" lon="-0.23564">
        <ele>4.2</ele>
        <time>2022-05-31T15:47:20Z</time>
      </trkpt>
      <trkpt lat="49.26444" lon="-0.23564">
        <ele>4.2</ele>
        <time>2022-05-31T15:47:21Z</time>
      </trkpt>
      <trkpt lat="49.26444" lon="-0.23564">
        <ele>4.2</ele>
        <time>2022-05-31T15:47:22Z</time>
      </trkpt>
      <trkpt lat="49.26445" lon="-0.23564">
        <ele>4.2</ele>
        <time>2022-05-31T15:47:24Z</time>
      </trkpt>
      <trkpt lat="49.26445" lon="-0.23564">
        <ele>4.2</ele>
        <time>2022-05-31T15:47:25Z</time>
      </trkpt>
      <trkpt lat="49.26445" lon="-0.23564">
        <ele>4.2</ele>
        <time>2022-05-31T15:47:26Z</time>
      </trkpt>
      <trkpt lat="49.26445" lon="-0.23564">
        <ele>4.2</ele>
        <time>2022-05-31T15:47:27Z</time>
      </trkpt>
      <trkpt lat="49.26446" lon="-0.23563">
        <ele>4.3</ele>
        <time>2022-05-31T15:47:28Z</time>
      </trkpt>
      <trkpt lat="49.26446" lon="-0.23563">
        <ele>4.3</ele>
        <time>2022-05-31T15:47:30Z</time>
      </trkpt>
      <trkpt lat="49.26445" lon="-0.23563">
        <ele>4.3</ele>
        <time>2022-05-31T15:47:31Z</time>
      </trkpt>
      <trkpt lat="49.26445" lon="-0.23562">
        <ele>4.3</ele>
        <time>2022-05-31T15:47:32Z</time>
      </trkpt>
      <trkpt lat="49.26445" lon="-0.23562">
        <ele>4.3</ele>
        <time>2022-05-31T15:47:33Z</time>
      </trkpt>
      <trkpt lat="49.26445" lon="-0.23562">
        <ele>4.3</ele>
        <time>2022-05-31T15:47:34Z</time>
      </trkpt>
      <trkpt lat="49.26445" lon="-0.23562">
        <ele>4.3</ele>
        <time>2022-05-31T15:47:35Z</time>
      </trkpt>
      <trkpt lat="49.26445" lon="-0.23562">
        <ele>4.3</ele>
        <time>2022-05-31T15:47:36Z</time>
      </trkpt>
      <trkpt lat="49.26445" lon="-0.23562">
        <ele>4.3</ele>
        <time>2022-05-31T15:47:37Z</time>
      </trkpt>
      <trkpt lat="49.26445" lon="-0.23562">
        <ele>4.3</ele>
        <time>2022-05-31T15:47:38Z</time>
      </trkpt>
      <trkpt lat="49.26445" lon="-0.23562">
        <ele>4.3</ele>
        <time>2022-05-31T15:47:39Z</time>
      </trkpt>
      <trkpt lat="49.26445" lon="-0.23562">
        <ele>4.3</ele>
        <time>2022-05-31T15:47:40Z</time>
      </trkpt>
      <trkpt lat="49.26445" lon="-0.23563">
        <ele>4.3</ele>
        <time>2022-05-31T15:47:41Z</time>
      </trkpt>
      <trkpt lat="49.26445" lon="-0.23563">
        <ele>4.3</ele>
        <time>2022-05-31T15:47:42Z</time>
      </trkpt>
      <trkpt lat="49.26445" lon="-0.23563">
        <ele>4.3</ele>
        <time>2022-05-31T15:47:43Z</time>
      </trkpt>
      <trkpt lat="49.26445" lon="-0.23563">
        <ele>4.3</ele>
        <time>2022-05-31T15:47:44Z</time>
      </trkpt>
      <trkpt lat="49.26445" lon="-0.23563">
        <ele>4.3</ele>
        <time>2022-05-31T15:47:45Z</time>
      </trkpt>
      <trkpt lat="49.26445" lon="-0.23563">
        <ele>4.3</ele>
        <time>2022-05-31T15:47:46Z</time>
      </trkpt>
      <trkpt lat="49.26445" lon="-0.23563">
        <ele>4.3</ele>
        <time>2022-05-31T15:47:47Z</time>
      </trkpt>
      <trkpt lat="49.26445" lon="-0.23563">
        <ele>4.3</ele>
        <time>2022-05-31T15:47:48Z</time>
      </trkpt>
      <trkpt lat="49.26445" lon="-0.23563">
        <ele>4.3</ele>
        <time>2022-05-31T15:47:49Z</time>
      </trkpt>
      <trkpt lat="49.26445" lon="-0.23563">
        <ele>4.3</ele>
        <time>2022-05-31T15:47:50Z</time>
      </trkpt>
      <trkpt lat="49.26445" lon="-0.23563">
        <ele>4.3</ele>
        <time>2022-05-31T15:47:51Z</time>
      </trkpt>
      <trkpt lat="49.26445" lon="-0.23563">
        <ele>4.3</ele>
        <time>2022-05-31T15:47:52Z</time>
      </trkpt>
      <trkpt lat="49.26445" lon="-0.23563">
        <ele>4.3</ele>
        <time>2022-05-31T15:47:53Z</time>
      </trkpt>
      <trkpt lat="49.26445" lon="-0.23563">
        <ele>4.3</ele>
        <time>2022-05-31T15:47:54Z</time>
      </trkpt>
      <trkpt lat="49.26445" lon="-0.23563">
        <ele>4.3</ele>
        <time>2022-05-31T15:47:55Z</time>
      </trkpt>
      <trkpt lat="49.26445" lon="-0.23563">
        <ele>4.3</ele>
        <time>2022-05-31T15:47:56Z</time>
      </trkpt>
      <trkpt lat="49.26445" lon="-0.23563">
        <ele>4.3</ele>
        <time>2022-05-31T15:47:57Z</time>
      </trkpt>
      <trkpt lat="49.26445" lon="-0.23563">
        <ele>4.3</ele>
        <time>2022-05-31T15:47:58Z</time>
      </trkpt>
      <trkpt lat="49.26445" lon="-0.23563">
        <ele>4.3</ele>
        <time>2022-05-31T15:47:59Z</time>
      </trkpt>
      <trkpt lat="49.26445" lon="-0.23563">
        <ele>4.3</ele>
        <time>2022-05-31T15:48:00Z</time>
      </trkpt>
      <trkpt lat="49.26445" lon="-0.23563">
        <ele>4.3</ele>
        <time>2022-05-31T15:48:01Z</time>
      </trkpt>
      <trkpt lat="49.26444" lon="-0.23563">
        <ele>4.3</ele>
        <time>2022-05-31T15:48:02Z</time>
      </trkpt>
      <trkpt lat="49.26444" lon="-0.23563">
        <ele>4.3</ele>
        <time>2022-05-31T15:48:03Z</time>
      </trkpt>
      <trkpt lat="49.26444" lon="-0.23563">
        <ele>4.3</ele>
        <time>2022-05-31T15:48:04Z</time>
      </trkpt>
      <trkpt lat="49.26444" lon="-0.23563">
        <ele>4.3</ele>
        <time>2022-05-31T15:48:05Z</time>
      </trkpt>
      <trkpt lat="49.26444" lon="-0.23563">
        <ele>4.3</ele>
        <time>2022-05-31T15:48:06Z</time>
      </trkpt>
      <trkpt lat="49.26444" lon="-0.23563">
        <ele>4.3</ele>
        <time>2022-05-31T15:48:07Z</time>
      </trkpt>
      <trkpt lat="49.26444" lon="-0.23563">
        <ele>4.3</ele>
        <time>2022-05-31T15:48:08Z</time>
      </trkpt>
      <trkpt lat="49.26445" lon="-0.23563">
        <ele>4.3</ele>
        <time>2022-05-31T15:48:09Z</time>
      </trkpt>
      <trkpt lat="49.26445" lon="-0.23563">
        <ele>4.3</ele>
        <time>2022-05-31T15:48:10Z</time>
      </trkpt>
      <trkpt lat="49.26445" lon="-0.23563">
        <ele>4.3</ele>
        <time>2022-05-31T15:48:11Z</time>
      </trkpt>
      <trkpt lat="49.26445" lon="-0.23563">
        <ele>4.3</ele>
        <time>2022-05-31T15:48:12Z</time>
      </trkpt>
      <trkpt lat="49.26444" lon="-0.23562">
        <ele>4.3</ele>
        <time>2022-05-31T15:48:13Z</time>
      </trkpt>
      <trkpt lat="49.26444" lon="-0.23562">
        <ele>4.3</ele>
        <time>2022-05-31T15:48:14Z</time>
      </trkpt>
      <trkpt lat="49.26444" lon="-0.23563">
        <ele>4.3</ele>
        <time>2022-05-31T15:48:16Z</time>
      </trkpt>
      <trkpt lat="49.26443" lon="-0.23563">
        <ele>4.3</ele>
        <time>2022-05-31T15:48:17Z</time>
      </trkpt>
      <trkpt lat="49.26443" lon="-0.23563">
        <ele>4.3</ele>
        <time>2022-05-31T15:48:18Z</time>
      </trkpt>
      <trkpt lat="49.26443" lon="-0.23563">
        <ele>4.3</ele>
        <time>2022-05-31T15:48:19Z</time>
      </trkpt>
      <trkpt lat="49.26443" lon="-0.23563">
        <ele>4.3</ele>
        <time>2022-05-31T15:48:20Z</time>
      </trkpt>
      <trkpt lat="49.26443" lon="-0.23563">
        <ele>4.3</ele>
        <time>2022-05-31T15:48:21Z</time>
      </trkpt>
      <trkpt lat="49.26443" lon="-0.23563">
        <ele>4.3</ele>
        <time>2022-05-31T15:48:22Z</time>
      </trkpt>
      <trkpt lat="49.26444" lon="-0.23563">
        <ele>4.3</ele>
        <time>2022-05-31T15:48:23Z</time>
      </trkpt>
      <trkpt lat="49.26444" lon="-0.23563">
        <ele>4.3</ele>
        <time>2022-05-31T15:48:24Z</time>
      </trkpt>
      <trkpt lat="49.26444" lon="-0.23562">
        <ele>4.3</ele>
        <time>2022-05-31T15:48:25Z</time>
      </trkpt>
      <trkpt lat="49.26444" lon="-0.23562">
        <ele>4.3</ele>
        <time>2022-05-31T15:48:26Z</time>
      </trkpt>
      <trkpt lat="49.26444" lon="-0.23562">
        <ele>4.3</ele>
        <time>2022-05-31T15:48:27Z</time>
      </trkpt>
      <trkpt lat="49.26445" lon="-0.23562">
        <ele>4.3</ele>
        <time>2022-05-31T15:48:28Z</time>
      </trkpt>
      <trkpt lat="49.26445" lon="-0.23562">
        <ele>4.3</ele>
        <time>2022-05-31T15:48:29Z</time>
      </trkpt>
      <trkpt lat="49.26445" lon="-0.23562">
        <ele>4.3</ele>
        <time>2022-05-31T15:48:30Z</time>
      </trkpt>
      <trkpt lat="49.26444" lon="-0.23563">
        <ele>4.3</ele>
        <time>2022-05-31T15:48:31Z</time>
      </trkpt>
      <trkpt lat="49.26444" lon="-0.23563">
        <ele>4.3</ele>
        <time>2022-05-31T15:48:32Z</time>
      </trkpt>
      <trkpt lat="49.26444" lon="-0.23563">
        <ele>4.3</ele>
        <time>2022-05-31T15:48:33Z</time>
      </trkpt>
      <trkpt lat="49.26443" lon="-0.23563">
        <ele>4.3</ele>
        <time>2022-05-31T15:48:34Z</time>
      </trkpt>
      <trkpt lat="49.26443" lon="-0.23562">
        <ele>4.3</ele>
        <time>2022-05-31T15:48:35Z</time>
      </trkpt>
      <trkpt lat="49.26444" lon="-0.23562">
        <ele>4.3</ele>
        <time>2022-05-31T15:48:36Z</time>
      </trkpt>
      <trkpt lat="49.26444" lon="-0.23563">
        <ele>4.3</ele>
        <time>2022-05-31T15:48:37Z</time>
      </trkpt>
      <trkpt lat="49.26444" lon="-0.23563">
        <ele>4.3</ele>
        <time>2022-05-31T15:48:38Z</time>
      </trkpt>
      <trkpt lat="49.26444" lon="-0.23563">
        <ele>4.3</ele>
        <time>2022-05-31T15:48:39Z</time>
      </trkpt>
      <trkpt lat="49.26444" lon="-0.23562">
        <ele>4.3</ele>
        <time>2022-05-31T15:48:40Z</time>
      </trkpt>
      <trkpt lat="49.26443" lon="-0.23562">
        <ele>4.4</ele>
        <time>2022-05-31T15:48:41Z</time>
      </trkpt>
      <trkpt lat="49.26443" lon="-0.23562">
        <ele>4.4</ele>
        <time>2022-05-31T15:48:42Z</time>
      </trkpt>
      <trkpt lat="49.26442" lon="-0.23561">
        <ele>4.4</ele>
        <time>2022-05-31T15:48:43Z</time>
      </trkpt>
      <trkpt lat="49.26441" lon="-0.2356">
        <ele>4.4</ele>
        <time>2022-05-31T15:48:45Z</time>
      </trkpt>
      <trkpt lat="49.2644" lon="-0.2356">
        <ele>4.4</ele>
        <time>2022-05-31T15:48:46Z</time>
      </trkpt>
      <trkpt lat="49.2644" lon="-0.2356">
        <ele>4.4</ele>
        <time>2022-05-31T15:48:47Z</time>
      </trkpt>
      <trkpt lat="49.26437" lon="-0.23561">
        <ele>4.4</ele>
        <time>2022-05-31T15:48:48Z</time>
      </trkpt>
      <trkpt lat="49.26436" lon="-0.23561">
        <ele>4.4</ele>
        <time>2022-05-31T15:48:49Z</time>
      </trkpt>
      <trkpt lat="49.26435" lon="-0.23561">
        <ele>4.5</ele>
        <time>2022-05-31T15:48:51Z</time>
      </trkpt>
      <trkpt lat="49.26434" lon="-0.23561">
        <ele>4.5</ele>
        <time>2022-05-31T15:48:52Z</time>
      </trkpt>
      <trkpt lat="49.26433" lon="-0.23561">
        <ele>4.5</ele>
        <time>2022-05-31T15:48:54Z</time>
      </trkpt>
      <trkpt lat="49.26432" lon="-0.23561">
        <ele>4.5</ele>
        <time>2022-05-31T15:48:55Z</time>
      </trkpt>
      <trkpt lat="49.26431" lon="-0.23561">
        <ele>4.5</ele>
        <time>2022-05-31T15:48:56Z</time>
      </trkpt>
      <trkpt lat="49.2643" lon="-0.23562">
        <ele>4.5</ele>
        <time>2022-05-31T15:48:57Z</time>
      </trkpt>
      <trkpt lat="49.26429" lon="-0.23563">
        <ele>4.5</ele>
        <time>2022-05-31T15:48:58Z</time>
      </trkpt>
      <trkpt lat="49.26428" lon="-0.23564">
        <ele>4.5</ele>
        <time>2022-05-31T15:49:00Z</time>
      </trkpt>
      <trkpt lat="49.26427" lon="-0.23564">
        <ele>4.6</ele>
        <time>2022-05-31T15:49:01Z</time>
      </trkpt>
      <trkpt lat="49.26427" lon="-0.23565">
        <ele>4.6</ele>
        <time>2022-05-31T15:49:02Z</time>
      </trkpt>
      <trkpt lat="49.26426" lon="-0.23564">
        <ele>4.6</ele>
        <time>2022-05-31T15:49:03Z</time>
      </trkpt>
      <trkpt lat="49.26426" lon="-0.23565">
        <ele>4.6</ele>
        <time>2022-05-31T15:49:04Z</time>
      </trkpt>
      <trkpt lat="49.26425" lon="-0.23565">
        <ele>4.6</ele>
        <time>2022-05-31T15:49:05Z</time>
      </trkpt>
      <trkpt lat="49.26424" lon="-0.23564">
        <ele>4.6</ele>
        <time>2022-05-31T15:49:06Z</time>
      </trkpt>
      <trkpt lat="49.26423" lon="-0.23564">
        <ele>4.6</ele>
        <time>2022-05-31T15:49:08Z</time>
      </trkpt>
      <trkpt lat="49.26423" lon="-0.23564">
        <ele>4.6</ele>
        <time>2022-05-31T15:49:09Z</time>
      </trkpt>
      <trkpt lat="49.26422" lon="-0.23563">
        <ele>4.6</ele>
        <time>2022-05-31T15:49:10Z</time>
      </trkpt>
      <trkpt lat="49.26422" lon="-0.23563">
        <ele>4.6</ele>
        <time>2022-05-31T15:49:11Z</time>
      </trkpt>
      <trkpt lat="49.26421" lon="-0.23565">
        <ele>4.6</ele>
        <time>2022-05-31T15:49:12Z</time>
      </trkpt>
      <trkpt lat="49.2642" lon="-0.23566">
        <ele>4.7</ele>
        <time>2022-05-31T15:49:14Z</time>
      </trkpt>
      <trkpt lat="49.26419" lon="-0.23568">
        <ele>4.7</ele>
        <time>2022-05-31T15:49:15Z</time>
      </trkpt>
      <trkpt lat="49.26418" lon="-0.2357">
        <ele>4.7</ele>
        <time>2022-05-31T15:49:16Z</time>
      </trkpt>
      <trkpt lat="49.26411" lon="-0.23574">
        <ele>4.8</ele>
        <time>2022-05-31T15:49:18Z</time>
      </trkpt>
      <trkpt lat="49.26412" lon="-0.23575">
        <ele>4.8</ele>
        <time>2022-05-31T15:49:19Z</time>
      </trkpt>
      <trkpt lat="49.26411" lon="-0.23575">
        <ele>4.8</ele>
        <time>2022-05-31T15:49:20Z</time>
      </trkpt>
      <trkpt lat="49.2641" lon="-0.23575">
        <ele>4.8</ele>
        <time>2022-05-31T15:49:22Z</time>
      </trkpt>
      <trkpt lat="49.26411" lon="-0.23576">
        <ele>4.8</ele>
        <time>2022-05-31T15:49:23Z</time>
      </trkpt>
      <trkpt lat="49.2641" lon="-0.23576">
        <ele>4.8</ele>
        <time>2022-05-31T15:49:24Z</time>
      </trkpt>
      <trkpt lat="49.2641" lon="-0.23575">
        <ele>4.8</ele>
        <time>2022-05-31T15:49:25Z</time>
      </trkpt>
      <trkpt lat="49.26409" lon="-0.23574">
        <ele>4.8</ele>
        <time>2022-05-31T15:49:26Z</time>
      </trkpt>
      <trkpt lat="49.26407" lon="-0.23574">
        <ele>4.8</ele>
        <time>2022-05-31T15:49:28Z</time>
      </trkpt>
      <trkpt lat="49.26407" lon="-0.23574">
        <ele>4.8</ele>
        <time>2022-05-31T15:49:29Z</time>
      </trkpt>
      <trkpt lat="49.26406" lon="-0.23574">
        <ele>4.8</ele>
        <time>2022-05-31T15:49:30Z</time>
      </trkpt>
      <trkpt lat="49.26406" lon="-0.23575">
        <ele>4.8</ele>
        <time>2022-05-31T15:49:31Z</time>
      </trkpt>
      <trkpt lat="49.26406" lon="-0.23576">
        <ele>4.8</ele>
        <time>2022-05-31T15:49:32Z</time>
      </trkpt>
      <trkpt lat="49.26405" lon="-0.23576">
        <ele>4.8</ele>
        <time>2022-05-31T15:49:33Z</time>
      </trkpt>
      <trkpt lat="49.26405" lon="-0.23575">
        <ele>4.8</ele>
        <time>2022-05-31T15:49:34Z</time>
      </trkpt>
      <trkpt lat="49.26405" lon="-0.23575">
        <ele>4.8</ele>
        <time>2022-05-31T15:49:35Z</time>
      </trkpt>
      <trkpt lat="49.26405" lon="-0.23575">
        <ele>4.8</ele>
        <time>2022-05-31T15:49:36Z</time>
      </trkpt>
      <trkpt lat="49.26405" lon="-0.23575">
        <ele>4.8</ele>
        <time>2022-05-31T15:49:37Z</time>
      </trkpt>
      <trkpt lat="49.26404" lon="-0.23576">
        <ele>4.8</ele>
        <time>2022-05-31T15:49:38Z</time>
      </trkpt>
      <trkpt lat="49.26403" lon="-0.23575">
        <ele>4.8</ele>
        <time>2022-05-31T15:49:39Z</time>
      </trkpt>
      <trkpt lat="49.26402" lon="-0.23575">
        <ele>4.8</ele>
        <time>2022-05-31T15:49:41Z</time>
      </trkpt>
      <trkpt lat="49.26401" lon="-0.23575">
        <ele>4.8</ele>
        <time>2022-05-31T15:49:42Z</time>
      </trkpt>
      <trkpt lat="49.26401" lon="-0.23575">
        <ele>4.8</ele>
        <time>2022-05-31T15:49:44Z</time>
      </trkpt>
      <trkpt lat="49.26401" lon="-0.23574">
        <ele>4.8</ele>
        <time>2022-05-31T15:49:45Z</time>
      </trkpt>
      <trkpt lat="49.264" lon="-0.23573">
        <ele>4.8</ele>
        <time>2022-05-31T15:49:46Z</time>
      </trkpt>
      <trkpt lat="49.264" lon="-0.23573">
        <ele>4.8</ele>
        <time>2022-05-31T15:49:47Z</time>
      </trkpt>
      <trkpt lat="49.26401" lon="-0.23573">
        <ele>4.8</ele>
        <time>2022-05-31T15:49:48Z</time>
      </trkpt>
      <trkpt lat="49.26404" lon="-0.23574">
        <ele>4.8</ele>
        <time>2022-05-31T15:49:49Z</time>
      </trkpt>
      <trkpt lat="49.26404" lon="-0.23574">
        <ele>4.8</ele>
        <time>2022-05-31T15:49:50Z</time>
      </trkpt>
      <trkpt lat="49.26403" lon="-0.23575">
        <ele>4.8</ele>
        <time>2022-05-31T15:49:51Z</time>
      </trkpt>
      <trkpt lat="49.26403" lon="-0.23575">
        <ele>4.8</ele>
        <time>2022-05-31T15:49:52Z</time>
      </trkpt>
      <trkpt lat="49.26402" lon="-0.23575">
        <ele>4.8</ele>
        <time>2022-05-31T15:49:54Z</time>
      </trkpt>
      <trkpt lat="49.26401" lon="-0.23575">
        <ele>4.8</ele>
        <time>2022-05-31T15:49:55Z</time>
      </trkpt>
      <trkpt lat="49.26401" lon="-0.23575">
        <ele>4.8</ele>
        <time>2022-05-31T15:49:57Z</time>
      </trkpt>
      <trkpt lat="49.264" lon="-0.23576">
        <ele>4.8</ele>
        <time>2022-05-31T15:49:58Z</time>
      </trkpt>
      <trkpt lat="49.264" lon="-0.23576">
        <ele>4.8</ele>
        <time>2022-05-31T15:49:59Z</time>
      </trkpt>
      <trkpt lat="49.26396" lon="-0.23577">
        <ele>4.8</ele>
        <time>2022-05-31T15:50:00Z</time>
      </trkpt>
      <trkpt lat="49.26395" lon="-0.23577">
        <ele>4.8</ele>
        <time>2022-05-31T15:50:01Z</time>
      </trkpt>
      <trkpt lat="49.26393" lon="-0.23577">
        <ele>4.8</ele>
        <time>2022-05-31T15:50:03Z</time>
      </trkpt>
      <trkpt lat="49.26392" lon="-0.23578">
        <ele>4.8</ele>
        <time>2022-05-31T15:50:04Z</time>
      </trkpt>
      <trkpt lat="49.26391" lon="-0.23579">
        <ele>4.8</ele>
        <time>2022-05-31T15:50:05Z</time>
      </trkpt>
      <trkpt lat="49.26392" lon="-0.2358">
        <ele>4.8</ele>
        <time>2022-05-31T15:50:06Z</time>
      </trkpt>
      <trkpt lat="49.26392" lon="-0.23579">
        <ele>4.8</ele>
        <time>2022-05-31T15:50:07Z</time>
      </trkpt>
      <trkpt lat="49.26393" lon="-0.23577">
        <ele>4.8</ele>
        <time>2022-05-31T15:50:08Z</time>
      </trkpt>
      <trkpt lat="49.26393" lon="-0.23576">
        <ele>4.8</ele>
        <time>2022-05-31T15:50:09Z</time>
      </trkpt>
      <trkpt lat="49.26392" lon="-0.23576">
        <ele>4.8</ele>
        <time>2022-05-31T15:50:10Z</time>
      </trkpt>
      <trkpt lat="49.26392" lon="-0.23576">
        <ele>4.8</ele>
        <time>2022-05-31T15:50:11Z</time>
      </trkpt>
      <trkpt lat="49.26392" lon="-0.23576">
        <ele>4.8</ele>
        <time>2022-05-31T15:50:12Z</time>
      </trkpt>
      <trkpt lat="49.26391" lon="-0.23576">
        <ele>4.8</ele>
        <time>2022-05-31T15:50:13Z</time>
      </trkpt>
      <trkpt lat="49.26391" lon="-0.23577">
        <ele>4.8</ele>
        <time>2022-05-31T15:50:14Z</time>
      </trkpt>
      <trkpt lat="49.2639" lon="-0.23576">
        <ele>4.8</ele>
        <time>2022-05-31T15:50:15Z</time>
      </trkpt>
      <trkpt lat="49.2639" lon="-0.23576">
        <ele>4.8</ele>
        <time>2022-05-31T15:50:16Z</time>
      </trkpt>
      <trkpt lat="49.2639" lon="-0.23576">
        <ele>4.8</ele>
        <time>2022-05-31T15:50:17Z</time>
      </trkpt>
      <trkpt lat="49.2639" lon="-0.23576">
        <ele>4.8</ele>
        <time>2022-05-31T15:50:18Z</time>
      </trkpt>
      <trkpt lat="49.2639" lon="-0.23576">
        <ele>4.8</ele>
        <time>2022-05-31T15:50:19Z</time>
      </trkpt>
      <trkpt lat="49.2639" lon="-0.23576">
        <ele>4.8</ele>
        <time>2022-05-31T15:50:20Z</time>
      </trkpt>
      <trkpt lat="49.2639" lon="-0.23576">
        <ele>4.8</ele>
        <time>2022-05-31T15:50:21Z</time>
      </trkpt>
      <trkpt lat="49.2639" lon="-0.23576">
        <ele>4.8</ele>
        <time>2022-05-31T15:50:22Z</time>
      </trkpt>
      <trkpt lat="49.26389" lon="-0.23576">
        <ele>4.8</ele>
        <time>2022-05-31T15:50:23Z</time>
      </trkpt>
      <trkpt lat="49.26389" lon="-0.23576">
        <ele>4.8</ele>
        <time>2022-05-31T15:50:24Z</time>
      </trkpt>
      <trkpt lat="49.26389" lon="-0.23576">
        <ele>4.8</ele>
        <time>2022-05-31T15:50:25Z</time>
      </trkpt>
      <trkpt lat="49.26389" lon="-0.23576">
        <ele>4.8</ele>
        <time>2022-05-31T15:50:26Z</time>
      </trkpt>
      <trkpt lat="49.26389" lon="-0.23576">
        <ele>4.8</ele>
        <time>2022-05-31T15:50:27Z</time>
      </trkpt>
      <trkpt lat="49.26389" lon="-0.23576">
        <ele>4.8</ele>
        <time>2022-05-31T15:50:28Z</time>
      </trkpt>
      <trkpt lat="49.26389" lon="-0.23576">
        <ele>4.8</ele>
        <time>2022-05-31T15:50:29Z</time>
      </trkpt>
      <trkpt lat="49.26389" lon="-0.23576">
        <ele>4.8</ele>
        <time>2022-05-31T15:50:30Z</time>
      </trkpt>
      <trkpt lat="49.26389" lon="-0.23576">
        <ele>4.8</ele>
        <time>2022-05-31T15:50:31Z</time>
      </trkpt>
      <trkpt lat="49.26389" lon="-0.23576">
        <ele>4.8</ele>
        <time>2022-05-31T15:50:32Z</time>
      </trkpt>
      <trkpt lat="49.26389" lon="-0.23576">
        <ele>4.8</ele>
        <time>2022-05-31T15:50:33Z</time>
      </trkpt>
      <trkpt lat="49.26389" lon="-0.23576">
        <ele>4.8</ele>
        <time>2022-05-31T15:50:34Z</time>
      </trkpt>
      <trkpt lat="49.26389" lon="-0.23576">
        <ele>4.8</ele>
        <time>2022-05-31T15:50:35Z</time>
      </trkpt>
      <trkpt lat="49.26389" lon="-0.23576">
        <ele>4.8</ele>
        <time>2022-05-31T15:50:36Z</time>
      </trkpt>
      <trkpt lat="49.26389" lon="-0.23576">
        <ele>4.8</ele>
        <time>2022-05-31T15:50:37Z</time>
      </trkpt>
      <trkpt lat="49.26389" lon="-0.23576">
        <ele>4.8</ele>
        <time>2022-05-31T15:50:38Z</time>
      </trkpt>
      <trkpt lat="49.26389" lon="-0.23576">
        <ele>4.8</ele>
        <time>2022-05-31T15:50:39Z</time>
      </trkpt>
      <trkpt lat="49.26389" lon="-0.23576">
        <ele>4.8</ele>
        <time>2022-05-31T15:50:40Z</time>
      </trkpt>
      <trkpt lat="49.26389" lon="-0.23576">
        <ele>4.8</ele>
        <time>2022-05-31T15:50:41Z</time>
      </trkpt>
      <trkpt lat="49.26389" lon="-0.23576">
        <ele>4.8</ele>
        <time>2022-05-31T15:50:42Z</time>
      </trkpt>
      <trkpt lat="49.26389" lon="-0.23576">
        <ele>4.8</ele>
        <time>2022-05-31T15:50:43Z</time>
      </trkpt>
      <trkpt lat="49.26389" lon="-0.23576">
        <ele>4.8</ele>
        <time>2022-05-31T15:50:44Z</time>
      </trkpt>
      <trkpt lat="49.26389" lon="-0.23576">
        <ele>4.8</ele>
        <time>2022-05-31T15:50:45Z</time>
      </trkpt>
      <trkpt lat="49.26389" lon="-0.23576">
        <ele>4.8</ele>
        <time>2022-05-31T15:50:46Z</time>
      </trkpt>
      <trkpt lat="49.26389" lon="-0.23576">
        <ele>4.8</ele>
        <time>2022-05-31T15:50:47Z</time>
      </trkpt>
      <trkpt lat="49.26389" lon="-0.23576">
        <ele>4.8</ele>
        <time>2022-05-31T15:50:48Z</time>
      </trkpt>
      <trkpt lat="49.26389" lon="-0.23576">
        <ele>4.8</ele>
        <time>2022-05-31T15:50:49Z</time>
      </trkpt>
      <trkpt lat="49.26389" lon="-0.23576">
        <ele>4.8</ele>
        <time>2022-05-31T15:50:50Z</time>
      </trkpt>
      <trkpt lat="49.26389" lon="-0.23576">
        <ele>4.8</ele>
        <time>2022-05-31T15:50:51Z</time>
      </trkpt>
      <trkpt lat="49.26389" lon="-0.23576">
        <ele>4.8</ele>
        <time>2022-05-31T15:50:52Z</time>
      </trkpt>
      <trkpt lat="49.26389" lon="-0.23576">
        <ele>4.8</ele>
        <time>2022-05-31T15:50:53Z</time>
      </trkpt>
      <trkpt lat="49.26389" lon="-0.23576">
        <ele>4.8</ele>
        <time>2022-05-31T15:50:54Z</time>
      </trkpt>
      <trkpt lat="49.26389" lon="-0.23576">
        <ele>4.8</ele>
        <time>2022-05-31T15:50:55Z</time>
      </trkpt>
      <trkpt lat="49.26389" lon="-0.23576">
        <ele>4.8</ele>
        <time>2022-05-31T15:50:56Z</time>
      </trkpt>
      <trkpt lat="49.26389" lon="-0.23576">
        <ele>4.8</ele>
        <time>2022-05-31T15:50:57Z</time>
      </trkpt>
      <trkpt lat="49.2639" lon="-0.23576">
        <ele>4.8</ele>
        <time>2022-05-31T15:50:58Z</time>
      </trkpt>
      <trkpt lat="49.2639" lon="-0.23577">
        <ele>4.8</ele>
        <time>2022-05-31T15:50:59Z</time>
      </trkpt>
      <trkpt lat="49.2639" lon="-0.23577">
        <ele>4.8</ele>
        <time>2022-05-31T15:51:00Z</time>
      </trkpt>
      <trkpt lat="49.2639" lon="-0.23578">
        <ele>4.8</ele>
        <time>2022-05-31T15:51:01Z</time>
      </trkpt>
      <trkpt lat="49.26391" lon="-0.23578">
        <ele>4.8</ele>
        <time>2022-05-31T15:51:02Z</time>
      </trkpt>
      <trkpt lat="49.26391" lon="-0.23577">
        <ele>4.8</ele>
        <time>2022-05-31T15:51:03Z</time>
      </trkpt>
      <trkpt lat="49.26391" lon="-0.23576">
        <ele>4.8</ele>
        <time>2022-05-31T15:51:04Z</time>
      </trkpt>
      <trkpt lat="49.2639" lon="-0.23576">
        <ele>4.8</ele>
        <time>2022-05-31T15:51:05Z</time>
      </trkpt>
      <trkpt lat="49.26389" lon="-0.23575">
        <ele>4.8</ele>
        <time>2022-05-31T15:51:06Z</time>
      </trkpt>
      <trkpt lat="49.26387" lon="-0.23576">
        <ele>4.8</ele>
        <time>2022-05-31T15:51:08Z</time>
      </trkpt>
      <trkpt lat="49.26386" lon="-0.23575">
        <ele>4.8</ele>
        <time>2022-05-31T15:51:09Z</time>
      </trkpt>
      <trkpt lat="49.26384" lon="-0.23574">
        <ele>4.8</ele>
        <time>2022-05-31T15:51:10Z</time>
      </trkpt>
      <trkpt lat="49.26383" lon="-0.23571">
        <ele>4.8</ele>
        <time>2022-05-31T15:51:12Z</time>
      </trkpt>
      <trkpt lat="49.26382" lon="-0.2357">
        <ele>4.8</ele>
        <time>2022-05-31T15:51:13Z</time>
      </trkpt>
      <trkpt lat="49.26382" lon="-0.23569">
        <ele>4.8</ele>
        <time>2022-05-31T15:51:14Z</time>
      </trkpt>
      <trkpt lat="49.26382" lon="-0.23569">
        <ele>4.8</ele>
        <time>2022-05-31T15:51:15Z</time>
      </trkpt>
      <trkpt lat="49.26382" lon="-0.23569">
        <ele>4.8</ele>
        <time>2022-05-31T15:51:16Z</time>
      </trkpt>
      <trkpt lat="49.26382" lon="-0.23569">
        <ele>4.8</ele>
        <time>2022-05-31T15:51:17Z</time>
      </trkpt>
      <trkpt lat="49.26382" lon="-0.2357">
        <ele>4.8</ele>
        <time>2022-05-31T15:51:18Z</time>
      </trkpt>
      <trkpt lat="49.26382" lon="-0.2357">
        <ele>4.8</ele>
        <time>2022-05-31T15:51:19Z</time>
      </trkpt>
      <trkpt lat="49.26382" lon="-0.23571">
        <ele>4.8</ele>
        <time>2022-05-31T15:51:20Z</time>
      </trkpt>
      <trkpt lat="49.26382" lon="-0.23571">
        <ele>4.8</ele>
        <time>2022-05-31T15:51:21Z</time>
      </trkpt>
      <trkpt lat="49.26382" lon="-0.23571">
        <ele>4.8</ele>
        <time>2022-05-31T15:51:22Z</time>
      </trkpt>
      <trkpt lat="49.26381" lon="-0.23572">
        <ele>4.8</ele>
        <time>2022-05-31T15:51:24Z</time>
      </trkpt>
      <trkpt lat="49.26382" lon="-0.23572">
        <ele>4.8</ele>
        <time>2022-05-31T15:51:25Z</time>
      </trkpt>
      <trkpt lat="49.26382" lon="-0.23572">
        <ele>4.8</ele>
        <time>2022-05-31T15:51:26Z</time>
      </trkpt>
      <trkpt lat="49.26383" lon="-0.23571">
        <ele>4.8</ele>
        <time>2022-05-31T15:51:27Z</time>
      </trkpt>
      <trkpt lat="49.26383" lon="-0.23571">
        <ele>4.8</ele>
        <time>2022-05-31T15:51:28Z</time>
      </trkpt>
      <trkpt lat="49.26384" lon="-0.2357">
        <ele>4.8</ele>
        <time>2022-05-31T15:51:30Z</time>
      </trkpt>
      <trkpt lat="49.26385" lon="-0.23569">
        <ele>4.8</ele>
        <time>2022-05-31T15:51:31Z</time>
      </trkpt>
      <trkpt lat="49.26385" lon="-0.23568">
        <ele>4.8</ele>
        <time>2022-05-31T15:51:32Z</time>
      </trkpt>
      <trkpt lat="49.26386" lon="-0.23567">
        <ele>4.8</ele>
        <time>2022-05-31T15:51:33Z</time>
      </trkpt>
      <trkpt lat="49.26387" lon="-0.23566">
        <ele>4.8</ele>
        <time>2022-05-31T15:51:35Z</time>
      </trkpt>
      <trkpt lat="49.26387" lon="-0.23565">
        <ele>4.8</ele>
        <time>2022-05-31T15:51:36Z</time>
      </trkpt>
      <trkpt lat="49.26388" lon="-0.23565">
        <ele>4.8</ele>
        <time>2022-05-31T15:51:37Z</time>
      </trkpt>
      <trkpt lat="49.26388" lon="-0.23565">
        <ele>4.8</ele>
        <time>2022-05-31T15:51:38Z</time>
      </trkpt>
      <trkpt lat="49.26388" lon="-0.23564">
        <ele>4.8</ele>
        <time>2022-05-31T15:51:39Z</time>
      </trkpt>
      <trkpt lat="49.26389" lon="-0.23564">
        <ele>4.8</ele>
        <time>2022-05-31T15:51:40Z</time>
      </trkpt>
      <trkpt lat="49.26389" lon="-0.23564">
        <ele>4.8</ele>
        <time>2022-05-31T15:51:41Z</time>
      </trkpt>
      <trkpt lat="49.26389" lon="-0.23565">
        <ele>4.8</ele>
        <time>2022-05-31T15:51:42Z</time>
      </trkpt>
      <trkpt lat="49.2639" lon="-0.23566">
        <ele>4.8</ele>
        <time>2022-05-31T15:51:43Z</time>
      </trkpt>
      <trkpt lat="49.2639" lon="-0.23567">
        <ele>4.8</ele>
        <time>2022-05-31T15:51:44Z</time>
      </trkpt>
      <trkpt lat="49.2639" lon="-0.23568">
        <ele>4.8</ele>
        <time>2022-05-31T15:51:45Z</time>
      </trkpt>
      <trkpt lat="49.26389" lon="-0.23569">
        <ele>4.8</ele>
        <time>2022-05-31T15:51:47Z</time>
      </trkpt>
      <trkpt lat="49.2639" lon="-0.23569">
        <ele>4.8</ele>
        <time>2022-05-31T15:51:48Z</time>
      </trkpt>
      <trkpt lat="49.2639" lon="-0.23569">
        <ele>4.8</ele>
        <time>2022-05-31T15:51:49Z</time>
      </trkpt>
      <trkpt lat="49.2639" lon="-0.23568">
        <ele>4.8</ele>
        <time>2022-05-31T15:51:51Z</time>
      </trkpt>
      <trkpt lat="49.2639" lon="-0.23567">
        <ele>4.8</ele>
        <time>2022-05-31T15:51:52Z</time>
      </trkpt>
      <trkpt lat="49.26389" lon="-0.23565">
        <ele>4.8</ele>
        <time>2022-05-31T15:51:53Z</time>
      </trkpt>
      <trkpt lat="49.26389" lon="-0.23565">
        <ele>4.8</ele>
        <time>2022-05-31T15:51:54Z</time>
      </trkpt>
      <trkpt lat="49.26388" lon="-0.23565">
        <ele>4.8</ele>
        <time>2022-05-31T15:51:55Z</time>
      </trkpt>
      <trkpt lat="49.26388" lon="-0.23565">
        <ele>4.8</ele>
        <time>2022-05-31T15:51:56Z</time>
      </trkpt>
      <trkpt lat="49.26388" lon="-0.23565">
        <ele>4.8</ele>
        <time>2022-05-31T15:51:57Z</time>
      </trkpt>
      <trkpt lat="49.26388" lon="-0.23565">
        <ele>4.8</ele>
        <time>2022-05-31T15:51:59Z</time>
      </trkpt>
      <trkpt lat="49.26388" lon="-0.23565">
        <ele>4.8</ele>
        <time>2022-05-31T15:52:00Z</time>
      </trkpt>
      <trkpt lat="49.26387" lon="-0.23565">
        <ele>4.8</ele>
        <time>2022-05-31T15:52:01Z</time>
      </trkpt>
      <trkpt lat="49.26387" lon="-0.23565">
        <ele>4.8</ele>
        <time>2022-05-31T15:52:02Z</time>
      </trkpt>
      <trkpt lat="49.26387" lon="-0.23565">
        <ele>4.8</ele>
        <time>2022-05-31T15:52:03Z</time>
      </trkpt>
      <trkpt lat="49.26387" lon="-0.23565">
        <ele>4.8</ele>
        <time>2022-05-31T15:52:04Z</time>
      </trkpt>
      <trkpt lat="49.26387" lon="-0.23566">
        <ele>4.8</ele>
        <time>2022-05-31T15:52:06Z</time>
      </trkpt>
      <trkpt lat="49.26387" lon="-0.23566">
        <ele>4.8</ele>
        <time>2022-05-31T15:52:07Z</time>
      </trkpt>
      <trkpt lat="49.26387" lon="-0.23567">
        <ele>4.8</ele>
        <time>2022-05-31T15:52:08Z</time>
      </trkpt>
      <trkpt lat="49.26387" lon="-0.23568">
        <ele>4.8</ele>
        <time>2022-05-31T15:52:09Z</time>
      </trkpt>
      <trkpt lat="49.26387" lon="-0.23569">
        <ele>4.8</ele>
        <time>2022-05-31T15:52:10Z</time>
      </trkpt>
      <trkpt lat="49.26387" lon="-0.2357">
        <ele>4.8</ele>
        <time>2022-05-31T15:52:11Z</time>
      </trkpt>
      <trkpt lat="49.26387" lon="-0.2357">
        <ele>4.8</ele>
        <time>2022-05-31T15:52:12Z</time>
      </trkpt>
      <trkpt lat="49.26386" lon="-0.2357">
        <ele>4.8</ele>
        <time>2022-05-31T15:52:13Z</time>
      </trkpt>
      <trkpt lat="49.26385" lon="-0.2357">
        <ele>4.8</ele>
        <time>2022-05-31T15:52:14Z</time>
      </trkpt>
      <trkpt lat="49.26385" lon="-0.2357">
        <ele>4.8</ele>
        <time>2022-05-31T15:52:15Z</time>
      </trkpt>
      <trkpt lat="49.26385" lon="-0.2357">
        <ele>4.8</ele>
        <time>2022-05-31T15:52:17Z</time>
      </trkpt>
      <trkpt lat="49.26386" lon="-0.23571">
        <ele>4.8</ele>
        <time>2022-05-31T15:52:18Z</time>
      </trkpt>
      <trkpt lat="49.26387" lon="-0.23571">
        <ele>4.8</ele>
        <time>2022-05-31T15:52:20Z</time>
      </trkpt>
      <trkpt lat="49.26387" lon="-0.23572">
        <ele>4.8</ele>
        <time>2022-05-31T15:52:21Z</time>
      </trkpt>
      <trkpt lat="49.26387" lon="-0.23573">
        <ele>4.8</ele>
        <time>2022-05-31T15:52:22Z</time>
      </trkpt>
      <trkpt lat="49.26387" lon="-0.23574">
        <ele>4.8</ele>
        <time>2022-05-31T15:52:23Z</time>
      </trkpt>
      <trkpt lat="49.26387" lon="-0.23575">
        <ele>4.8</ele>
        <time>2022-05-31T15:52:24Z</time>
      </trkpt>
      <trkpt lat="49.26387" lon="-0.23576">
        <ele>4.8</ele>
        <time>2022-05-31T15:52:25Z</time>
      </trkpt>
      <trkpt lat="49.26387" lon="-0.23577">
        <ele>4.8</ele>
        <time>2022-05-31T15:52:26Z</time>
      </trkpt>
      <trkpt lat="49.26387" lon="-0.23578">
        <ele>4.8</ele>
        <time>2022-05-31T15:52:27Z</time>
      </trkpt>
      <trkpt lat="49.26387" lon="-0.2358">
        <ele>4.8</ele>
        <time>2022-05-31T15:52:29Z</time>
      </trkpt>
      <trkpt lat="49.26387" lon="-0.23581">
        <ele>4.8</ele>
        <time>2022-05-31T15:52:30Z</time>
      </trkpt>
      <trkpt lat="49.26386" lon="-0.23581">
        <ele>4.8</ele>
        <time>2022-05-31T15:52:31Z</time>
      </trkpt>
      <trkpt lat="49.26386" lon="-0.23581">
        <ele>4.8</ele>
        <time>2022-05-31T15:52:32Z</time>
      </trkpt>
      <trkpt lat="49.26387" lon="-0.23582">
        <ele>4.8</ele>
        <time>2022-05-31T15:52:33Z</time>
      </trkpt>
      <trkpt lat="49.26388" lon="-0.23581">
        <ele>4.8</ele>
        <time>2022-05-31T15:52:35Z</time>
      </trkpt>
      <trkpt lat="49.26388" lon="-0.23581">
        <ele>4.8</ele>
        <time>2022-05-31T15:52:36Z</time>
      </trkpt>
      <trkpt lat="49.26388" lon="-0.2358">
        <ele>4.8</ele>
        <time>2022-05-31T15:52:37Z</time>
      </trkpt>
      <trkpt lat="49.26388" lon="-0.23579">
        <ele>4.8</ele>
        <time>2022-05-31T15:52:39Z</time>
      </trkpt>
      <trkpt lat="49.26388" lon="-0.23579">
        <ele>4.8</ele>
        <time>2022-05-31T15:52:40Z</time>
      </trkpt>
      <trkpt lat="49.26388" lon="-0.23579">
        <ele>4.8</ele>
        <time>2022-05-31T15:52:41Z</time>
      </trkpt>
      <trkpt lat="49.26388" lon="-0.2358">
        <ele>4.8</ele>
        <time>2022-05-31T15:52:42Z</time>
      </trkpt>
      <trkpt lat="49.26388" lon="-0.2358">
        <ele>4.8</ele>
        <time>2022-05-31T15:52:43Z</time>
      </trkpt>
      <trkpt lat="49.26388" lon="-0.23581">
        <ele>4.8</ele>
        <time>2022-05-31T15:52:44Z</time>
      </trkpt>
      <trkpt lat="49.26387" lon="-0.23581">
        <ele>4.8</ele>
        <time>2022-05-31T15:52:46Z</time>
      </trkpt>
      <trkpt lat="49.26386" lon="-0.23581">
        <ele>4.8</ele>
        <time>2022-05-31T15:52:48Z</time>
      </trkpt>
      <trkpt lat="49.26386" lon="-0.23582">
        <ele>4.8</ele>
        <time>2022-05-31T15:52:49Z</time>
      </trkpt>
      <trkpt lat="49.26385" lon="-0.23583">
        <ele>4.8</ele>
        <time>2022-05-31T15:52:50Z</time>
      </trkpt>
      <trkpt lat="49.26385" lon="-0.23583">
        <ele>4.8</ele>
        <time>2022-05-31T15:52:51Z</time>
      </trkpt>
      <trkpt lat="49.26385" lon="-0.23583">
        <ele>4.8</ele>
        <time>2022-05-31T15:52:52Z</time>
      </trkpt>
      <trkpt lat="49.26386" lon="-0.23584">
        <ele>4.8</ele>
        <time>2022-05-31T15:52:53Z</time>
      </trkpt>
      <trkpt lat="49.26386" lon="-0.23584">
        <ele>4.8</ele>
        <time>2022-05-31T15:52:54Z</time>
      </trkpt>
      <trkpt lat="49.26386" lon="-0.23585">
        <ele>4.8</ele>
        <time>2022-05-31T15:52:55Z</time>
      </trkpt>
      <trkpt lat="49.26386" lon="-0.23585">
        <ele>4.8</ele>
        <time>2022-05-31T15:52:56Z</time>
      </trkpt>
      <trkpt lat="49.26386" lon="-0.23585">
        <ele>4.8</ele>
        <time>2022-05-31T15:52:57Z</time>
      </trkpt>
      <trkpt lat="49.26386" lon="-0.23586">
        <ele>4.8</ele>
        <time>2022-05-31T15:52:58Z</time>
      </trkpt>
      <trkpt lat="49.26386" lon="-0.23586">
        <ele>4.8</ele>
        <time>2022-05-31T15:52:59Z</time>
      </trkpt>
      <trkpt lat="49.26386" lon="-0.23587">
        <ele>4.8</ele>
        <time>2022-05-31T15:53:00Z</time>
      </trkpt>
      <trkpt lat="49.26386" lon="-0.23587">
        <ele>4.8</ele>
        <time>2022-05-31T15:53:01Z</time>
      </trkpt>
      <trkpt lat="49.26386" lon="-0.23587">
        <ele>4.8</ele>
        <time>2022-05-31T15:53:02Z</time>
      </trkpt>
      <trkpt lat="49.26386" lon="-0.23588">
        <ele>4.8</ele>
        <time>2022-05-31T15:53:03Z</time>
      </trkpt>
      <trkpt lat="49.26386" lon="-0.23588">
        <ele>4.8</ele>
        <time>2022-05-31T15:53:04Z</time>
      </trkpt>
      <trkpt lat="49.26386" lon="-0.23588">
        <ele>4.8</ele>
        <time>2022-05-31T15:53:05Z</time>
      </trkpt>
      <trkpt lat="49.26387" lon="-0.23589">
        <ele>4.8</ele>
        <time>2022-05-31T15:53:06Z</time>
      </trkpt>
      <trkpt lat="49.26387" lon="-0.23589">
        <ele>4.8</ele>
        <time>2022-05-31T15:53:07Z</time>
      </trkpt>
      <trkpt lat="49.26387" lon="-0.2359">
        <ele>4.8</ele>
        <time>2022-05-31T15:53:08Z</time>
      </trkpt>
      <trkpt lat="49.26387" lon="-0.2359">
        <ele>4.8</ele>
        <time>2022-05-31T15:53:09Z</time>
      </trkpt>
      <trkpt lat="49.26387" lon="-0.2359">
        <ele>4.8</ele>
        <time>2022-05-31T15:53:10Z</time>
      </trkpt>
      <trkpt lat="49.26387" lon="-0.23593">
        <ele>4.8</ele>
        <time>2022-05-31T15:53:11Z</time>
      </trkpt>
      <trkpt lat="49.26388" lon="-0.23593">
        <ele>4.8</ele>
        <time>2022-05-31T15:53:12Z</time>
      </trkpt>
      <trkpt lat="49.26388" lon="-0.23592">
        <ele>4.8</ele>
        <time>2022-05-31T15:53:13Z</time>
      </trkpt>
      <trkpt lat="49.26389" lon="-0.2359">
        <ele>4.8</ele>
        <time>2022-05-31T15:53:14Z</time>
      </trkpt>
      <trkpt lat="49.2639" lon="-0.23588">
        <ele>4.8</ele>
        <time>2022-05-31T15:53:15Z</time>
      </trkpt>
      <trkpt lat="49.26391" lon="-0.23587">
        <ele>4.8</ele>
        <time>2022-05-31T15:53:16Z</time>
      </trkpt>
      <trkpt lat="49.26389" lon="-0.23592">
        <ele>4.8</ele>
        <time>2022-05-31T15:53:17Z</time>
      </trkpt>
      <trkpt lat="49.26389" lon="-0.23593">
        <ele>4.8</ele>
        <time>2022-05-31T15:53:18Z</time>
      </trkpt>
      <trkpt lat="49.26389" lon="-0.23593">
        <ele>4.8</ele>
        <time>2022-05-31T15:53:19Z</time>
      </trkpt>
      <trkpt lat="49.26389" lon="-0.23593">
        <ele>4.8</ele>
        <time>2022-05-31T15:53:20Z</time>
      </trkpt>
      <trkpt lat="49.26389" lon="-0.23593">
        <ele>4.8</ele>
        <time>2022-05-31T15:53:21Z</time>
      </trkpt>
      <trkpt lat="49.26389" lon="-0.23593">
        <ele>4.8</ele>
        <time>2022-05-31T15:53:22Z</time>
      </trkpt>
      <trkpt lat="49.26389" lon="-0.23593">
        <ele>4.8</ele>
        <time>2022-05-31T15:53:23Z</time>
      </trkpt>
      <trkpt lat="49.26389" lon="-0.23593">
        <ele>4.8</ele>
        <time>2022-05-31T15:53:24Z</time>
      </trkpt>
      <trkpt lat="49.26389" lon="-0.23593">
        <ele>4.8</ele>
        <time>2022-05-31T15:53:25Z</time>
      </trkpt>
      <trkpt lat="49.26389" lon="-0.23593">
        <ele>4.8</ele>
        <time>2022-05-31T15:53:26Z</time>
      </trkpt>
      <trkpt lat="49.26389" lon="-0.23593">
        <ele>4.8</ele>
        <time>2022-05-31T15:53:27Z</time>
      </trkpt>
      <trkpt lat="49.26389" lon="-0.23593">
        <ele>4.8</ele>
        <time>2022-05-31T15:53:28Z</time>
      </trkpt>
      <trkpt lat="49.26389" lon="-0.23593">
        <ele>4.8</ele>
        <time>2022-05-31T15:53:29Z</time>
      </trkpt>
      <trkpt lat="49.26389" lon="-0.23593">
        <ele>4.8</ele>
        <time>2022-05-31T15:53:30Z</time>
      </trkpt>
      <trkpt lat="49.26389" lon="-0.23593">
        <ele>4.8</ele>
        <time>2022-05-31T15:53:31Z</time>
      </trkpt>
      <trkpt lat="49.26389" lon="-0.23593">
        <ele>4.8</ele>
        <time>2022-05-31T15:53:32Z</time>
      </trkpt>
      <trkpt lat="49.26389" lon="-0.23593">
        <ele>4.8</ele>
        <time>2022-05-31T15:53:33Z</time>
      </trkpt>
      <trkpt lat="49.26389" lon="-0.23593">
        <ele>4.8</ele>
        <time>2022-05-31T15:53:34Z</time>
      </trkpt>
      <trkpt lat="49.26389" lon="-0.23593">
        <ele>4.8</ele>
        <time>2022-05-31T15:53:35Z</time>
      </trkpt>
      <trkpt lat="49.26389" lon="-0.23593">
        <ele>4.8</ele>
        <time>2022-05-31T15:53:36Z</time>
      </trkpt>
      <trkpt lat="49.26389" lon="-0.23593">
        <ele>4.8</ele>
        <time>2022-05-31T15:53:37Z</time>
      </trkpt>
      <trkpt lat="49.26389" lon="-0.23593">
        <ele>4.8</ele>
        <time>2022-05-31T15:53:38Z</time>
      </trkpt>
      <trkpt lat="49.26389" lon="-0.23593">
        <ele>4.8</ele>
        <time>2022-05-31T15:53:39Z</time>
      </trkpt>
      <trkpt lat="49.26389" lon="-0.23592">
        <ele>4.8</ele>
        <time>2022-05-31T15:53:40Z</time>
      </trkpt>
      <trkpt lat="49.2639" lon="-0.2359">
        <ele>4.8</ele>
        <time>2022-05-31T15:53:41Z</time>
      </trkpt>
      <trkpt lat="49.2639" lon="-0.23589">
        <ele>4.8</ele>
        <time>2022-05-31T15:53:42Z</time>
      </trkpt>
      <trkpt lat="49.26389" lon="-0.23592">
        <ele>4.8</ele>
        <time>2022-05-31T15:53:43Z</time>
      </trkpt>
      <trkpt lat="49.26389" lon="-0.23593">
        <ele>4.8</ele>
        <time>2022-05-31T15:53:44Z</time>
      </trkpt>
      <trkpt lat="49.26389" lon="-0.23593">
        <ele>4.8</ele>
        <time>2022-05-31T15:53:45Z</time>
      </trkpt>
      <trkpt lat="49.26389" lon="-0.23593">
        <ele>4.8</ele>
        <time>2022-05-31T15:53:46Z</time>
      </trkpt>
      <trkpt lat="49.26389" lon="-0.23593">
        <ele>4.8</ele>
        <time>2022-05-31T15:53:47Z</time>
      </trkpt>
      <trkpt lat="49.26389" lon="-0.23593">
        <ele>4.8</ele>
        <time>2022-05-31T15:53:48Z</time>
      </trkpt>
      <trkpt lat="49.26389" lon="-0.23593">
        <ele>4.8</ele>
        <time>2022-05-31T15:53:49Z</time>
      </trkpt>
      <trkpt lat="49.26389" lon="-0.23593">
        <ele>4.8</ele>
        <time>2022-05-31T15:53:50Z</time>
      </trkpt>
      <trkpt lat="49.26389" lon="-0.23593">
        <ele>4.8</ele>
        <time>2022-05-31T15:53:51Z</time>
      </trkpt>
      <trkpt lat="49.26389" lon="-0.23593">
        <ele>4.8</ele>
        <time>2022-05-31T15:53:52Z</time>
      </trkpt>
      <trkpt lat="49.26389" lon="-0.23593">
        <ele>4.8</ele>
        <time>2022-05-31T15:53:53Z</time>
      </trkpt>
      <trkpt lat="49.26389" lon="-0.23593">
        <ele>4.8</ele>
        <time>2022-05-31T15:53:54Z</time>
      </trkpt>
      <trkpt lat="49.26389" lon="-0.23593">
        <ele>4.8</ele>
        <time>2022-05-31T15:53:55Z</time>
      </trkpt>
      <trkpt lat="49.26389" lon="-0.23593">
        <ele>4.8</ele>
        <time>2022-05-31T15:53:56Z</time>
      </trkpt>
      <trkpt lat="49.26389" lon="-0.23593">
        <ele>4.8</ele>
        <time>2022-05-31T15:53:57Z</time>
      </trkpt>
      <trkpt lat="49.26389" lon="-0.23593">
        <ele>4.8</ele>
        <time>2022-05-31T15:53:58Z</time>
      </trkpt>
      <trkpt lat="49.26389" lon="-0.23593">
        <ele>4.8</ele>
        <time>2022-05-31T15:53:59Z</time>
      </trkpt>
      <trkpt lat="49.26389" lon="-0.23593">
        <ele>4.8</ele>
        <time>2022-05-31T15:54:00Z</time>
      </trkpt>
      <trkpt lat="49.26389" lon="-0.23593">
        <ele>4.8</ele>
        <time>2022-05-31T15:54:01Z</time>
      </trkpt>
      <trkpt lat="49.26389" lon="-0.23593">
        <ele>4.8</ele>
        <time>2022-05-31T15:54:02Z</time>
      </trkpt>
      <trkpt lat="49.26389" lon="-0.23593">
        <ele>4.8</ele>
        <time>2022-05-31T15:54:03Z</time>
      </trkpt>
      <trkpt lat="49.26389" lon="-0.23593">
        <ele>4.8</ele>
        <time>2022-05-31T15:54:04Z</time>
      </trkpt>
      <trkpt lat="49.26389" lon="-0.23593">
        <ele>4.8</ele>
        <time>2022-05-31T15:54:05Z</time>
      </trkpt>
      <trkpt lat="49.26389" lon="-0.23593">
        <ele>4.8</ele>
        <time>2022-05-31T15:54:06Z</time>
      </trkpt>
      <trkpt lat="49.26389" lon="-0.23593">
        <ele>4.8</ele>
        <time>2022-05-31T15:54:07Z</time>
      </trkpt>
      <trkpt lat="49.26389" lon="-0.23593">
        <ele>4.8</ele>
        <time>2022-05-31T15:54:08Z</time>
      </trkpt>
      <trkpt lat="49.26389" lon="-0.23593">
        <ele>4.8</ele>
        <time>2022-05-31T15:54:09Z</time>
      </trkpt>
      <trkpt lat="49.26389" lon="-0.23593">
        <ele>4.8</ele>
        <time>2022-05-31T15:54:10Z</time>
      </trkpt>
      <trkpt lat="49.26389" lon="-0.23593">
        <ele>4.8</ele>
        <time>2022-05-31T15:54:11Z</time>
      </trkpt>
      <trkpt lat="49.26389" lon="-0.23592">
        <ele>4.8</ele>
        <time>2022-05-31T15:54:12Z</time>
      </trkpt>
      <trkpt lat="49.2639" lon="-0.2359">
        <ele>4.8</ele>
        <time>2022-05-31T15:54:13Z</time>
      </trkpt>
      <trkpt lat="49.26391" lon="-0.23588">
        <ele>4.8</ele>
        <time>2022-05-31T15:54:14Z</time>
      </trkpt>
      <trkpt lat="49.26389" lon="-0.23592">
        <ele>4.8</ele>
        <time>2022-05-31T15:54:15Z</time>
      </trkpt>
      <trkpt lat="49.26389" lon="-0.23593">
        <ele>4.8</ele>
        <time>2022-05-31T15:54:16Z</time>
      </trkpt>
      <trkpt lat="49.26389" lon="-0.23593">
        <ele>4.8</ele>
        <time>2022-05-31T15:54:17Z</time>
      </trkpt>
      <trkpt lat="49.26389" lon="-0.23593">
        <ele>4.8</ele>
        <time>2022-05-31T15:54:18Z</time>
      </trkpt>
      <trkpt lat="49.26389" lon="-0.23593">
        <ele>4.8</ele>
        <time>2022-05-31T15:54:19Z</time>
      </trkpt>
      <trkpt lat="49.26389" lon="-0.23593">
        <ele>4.8</ele>
        <time>2022-05-31T15:54:20Z</time>
      </trkpt>
      <trkpt lat="49.26389" lon="-0.23593">
        <ele>4.8</ele>
        <time>2022-05-31T15:54:21Z</time>
      </trkpt>
      <trkpt lat="49.26389" lon="-0.23593">
        <ele>4.8</ele>
        <time>2022-05-31T15:54:22Z</time>
      </trkpt>
      <trkpt lat="49.26389" lon="-0.23593">
        <ele>4.8</ele>
        <time>2022-05-31T15:54:23Z</time>
      </trkpt>
      <trkpt lat="49.26389" lon="-0.23593">
        <ele>4.8</ele>
        <time>2022-05-31T15:54:24Z</time>
      </trkpt>
      <trkpt lat="49.26389" lon="-0.23593">
        <ele>4.8</ele>
        <time>2022-05-31T15:54:25Z</time>
      </trkpt>
      <trkpt lat="49.26389" lon="-0.23593">
        <ele>4.8</ele>
        <time>2022-05-31T15:54:26Z</time>
      </trkpt>
      <trkpt lat="49.26389" lon="-0.23593">
        <ele>4.8</ele>
        <time>2022-05-31T15:54:27Z</time>
      </trkpt>
      <trkpt lat="49.26389" lon="-0.23593">
        <ele>4.8</ele>
        <time>2022-05-31T15:54:28Z</time>
      </trkpt>
      <trkpt lat="49.26389" lon="-0.23593">
        <ele>4.8</ele>
        <time>2022-05-31T15:54:29Z</time>
      </trkpt>
      <trkpt lat="49.26389" lon="-0.23593">
        <ele>4.8</ele>
        <time>2022-05-31T15:54:30Z</time>
      </trkpt>
      <trkpt lat="49.26389" lon="-0.23593">
        <ele>4.8</ele>
        <time>2022-05-31T15:54:31Z</time>
      </trkpt>
      <trkpt lat="49.26389" lon="-0.23593">
        <ele>4.8</ele>
        <time>2022-05-31T15:54:33Z</time>
      </trkpt>
      <trkpt lat="49.26389" lon="-0.23593">
        <ele>4.8</ele>
        <time>2022-05-31T15:54:34Z</time>
      </trkpt>
      <trkpt lat="49.26389" lon="-0.23593">
        <ele>4.8</ele>
        <time>2022-05-31T15:54:35Z</time>
      </trkpt>
      <trkpt lat="49.26389" lon="-0.23593">
        <ele>4.8</ele>
        <time>2022-05-31T15:54:36Z</time>
      </trkpt>
      <trkpt lat="49.26389" lon="-0.23593">
        <ele>4.8</ele>
        <time>2022-05-31T15:54:37Z</time>
      </trkpt>
      <trkpt lat="49.26389" lon="-0.23592">
        <ele>4.8</ele>
        <time>2022-05-31T15:54:38Z</time>
      </trkpt>
      <trkpt lat="49.26389" lon="-0.23593">
        <ele>4.8</ele>
        <time>2022-05-31T15:54:39Z</time>
      </trkpt>
      <trkpt lat="49.26389" lon="-0.23595">
        <ele>4.8</ele>
        <time>2022-05-31T15:54:40Z</time>
      </trkpt>
      <trkpt lat="49.26389" lon="-0.23595">
        <ele>4.8</ele>
        <time>2022-05-31T15:54:41Z</time>
      </trkpt>
      <trkpt lat="49.26389" lon="-0.23597">
        <ele>4.8</ele>
        <time>2022-05-31T15:54:43Z</time>
      </trkpt>
      <trkpt lat="49.26389" lon="-0.23598">
        <ele>4.8</ele>
        <time>2022-05-31T15:54:44Z</time>
      </trkpt>
      <trkpt lat="49.26389" lon="-0.23598">
        <ele>4.8</ele>
        <time>2022-05-31T15:54:45Z</time>
      </trkpt>
      <trkpt lat="49.26389" lon="-0.23598">
        <ele>4.8</ele>
        <time>2022-05-31T15:54:46Z</time>
      </trkpt>
      <trkpt lat="49.26389" lon="-0.23598">
        <ele>4.8</ele>
        <time>2022-05-31T15:54:47Z</time>
      </trkpt>
      <trkpt lat="49.26389" lon="-0.23598">
        <ele>4.8</ele>
        <time>2022-05-31T15:54:48Z</time>
      </trkpt>
      <trkpt lat="49.26389" lon="-0.23598">
        <ele>4.8</ele>
        <time>2022-05-31T15:54:49Z</time>
      </trkpt>
      <trkpt lat="49.26388" lon="-0.23597">
        <ele>4.8</ele>
        <time>2022-05-31T15:54:51Z</time>
      </trkpt>
      <trkpt lat="49.26389" lon="-0.23596">
        <ele>4.8</ele>
        <time>2022-05-31T15:54:52Z</time>
      </trkpt>
      <trkpt lat="49.26389" lon="-0.23596">
        <ele>4.8</ele>
        <time>2022-05-31T15:54:53Z</time>
      </trkpt>
      <trkpt lat="49.26389" lon="-0.23595">
        <ele>4.8</ele>
        <time>2022-05-31T15:54:54Z</time>
      </trkpt>
      <trkpt lat="49.2639" lon="-0.23594">
        <ele>4.8</ele>
        <time>2022-05-31T15:54:55Z</time>
      </trkpt>
      <trkpt lat="49.26389" lon="-0.23593">
        <ele>4.8</ele>
        <time>2022-05-31T15:54:56Z</time>
      </trkpt>
      <trkpt lat="49.26389" lon="-0.23593">
        <ele>4.8</ele>
        <time>2022-05-31T15:54:57Z</time>
      </trkpt>
      <trkpt lat="49.26388" lon="-0.23593">
        <ele>4.8</ele>
        <time>2022-05-31T15:54:58Z</time>
      </trkpt>
      <trkpt lat="49.26388" lon="-0.23592">
        <ele>4.8</ele>
        <time>2022-05-31T15:54:59Z</time>
      </trkpt>
      <trkpt lat="49.26387" lon="-0.23591">
        <ele>4.8</ele>
        <time>2022-05-31T15:55:01Z</time>
      </trkpt>
      <trkpt lat="49.26387" lon="-0.2359">
        <ele>4.8</ele>
        <time>2022-05-31T15:55:02Z</time>
      </trkpt>
      <trkpt lat="49.26387" lon="-0.23589">
        <ele>4.8</ele>
        <time>2022-05-31T15:55:03Z</time>
      </trkpt>
      <trkpt lat="49.26388" lon="-0.23584">
        <ele>4.8</ele>
        <time>2022-05-31T15:55:05Z</time>
      </trkpt>
      <trkpt lat="49.26385" lon="-0.23585">
        <ele>4.8</ele>
        <time>2022-05-31T15:55:06Z</time>
      </trkpt>
      <trkpt lat="49.26386" lon="-0.23586">
        <ele>4.8</ele>
        <time>2022-05-31T15:55:07Z</time>
      </trkpt>
      <trkpt lat="49.26388" lon="-0.23586">
        <ele>4.8</ele>
        <time>2022-05-31T15:55:08Z</time>
      </trkpt>
      <trkpt lat="49.2639" lon="-0.23586">
        <ele>4.8</ele>
        <time>2022-05-31T15:55:10Z</time>
      </trkpt>
      <trkpt lat="49.26392" lon="-0.23587">
        <ele>4.8</ele>
        <time>2022-05-31T15:55:11Z</time>
      </trkpt>
      <trkpt lat="49.26394" lon="-0.23587">
        <ele>4.8</ele>
        <time>2022-05-31T15:55:12Z</time>
      </trkpt>
      <trkpt lat="49.26397" lon="-0.23588">
        <ele>4.8</ele>
        <time>2022-05-31T15:55:13Z</time>
      </trkpt>
      <trkpt lat="49.26398" lon="-0.23588">
        <ele>4.8</ele>
        <time>2022-05-31T15:55:14Z</time>
      </trkpt>
      <trkpt lat="49.26401" lon="-0.23587">
        <ele>4.8</ele>
        <time>2022-05-31T15:55:15Z</time>
      </trkpt>
      <trkpt lat="49.26402" lon="-0.23587">
        <ele>4.8</ele>
        <time>2022-05-31T15:55:16Z</time>
      </trkpt>
      <trkpt lat="49.26405" lon="-0.23585">
        <ele>4.8</ele>
        <time>2022-05-31T15:55:17Z</time>
      </trkpt>
      <trkpt lat="49.26406" lon="-0.23584">
        <ele>4.8</ele>
        <time>2022-05-31T15:55:18Z</time>
      </trkpt>
      <trkpt lat="49.26407" lon="-0.23583">
        <ele>4.8</ele>
        <time>2022-05-31T15:55:19Z</time>
      </trkpt>
      <trkpt lat="49.26408" lon="-0.23581">
        <ele>4.8</ele>
        <time>2022-05-31T15:55:21Z</time>
      </trkpt>
      <trkpt lat="49.26411" lon="-0.23579">
        <ele>4.8</ele>
        <time>2022-05-31T15:55:22Z</time>
      </trkpt>
      <trkpt lat="49.26412" lon="-0.23578">
        <ele>4.7</ele>
        <time>2022-05-31T15:55:23Z</time>
      </trkpt>
      <trkpt lat="49.26416" lon="-0.23574">
        <ele>4.7</ele>
        <time>2022-05-31T15:55:25Z</time>
      </trkpt>
      <trkpt lat="49.26417" lon="-0.23573">
        <ele>4.7</ele>
        <time>2022-05-31T15:55:26Z</time>
      </trkpt>
      <trkpt lat="49.26418" lon="-0.23572">
        <ele>4.6</ele>
        <time>2022-05-31T15:55:27Z</time>
      </trkpt>
      <trkpt lat="49.2642" lon="-0.23571">
        <ele>4.6</ele>
        <time>2022-05-31T15:55:28Z</time>
      </trkpt>
      <trkpt lat="49.26421" lon="-0.2357">
        <ele>4.6</ele>
        <time>2022-05-31T15:55:29Z</time>
      </trkpt>
      <trkpt lat="49.26423" lon="-0.23569">
        <ele>4.5</ele>
        <time>2022-05-31T15:55:30Z</time>
      </trkpt>
      <trkpt lat="49.26424" lon="-0.23568">
        <ele>4.5</ele>
        <time>2022-05-31T15:55:31Z</time>
      </trkpt>
      <trkpt lat="49.26425" lon="-0.23567">
        <ele>4.5</ele>
        <time>2022-05-31T15:55:32Z</time>
      </trkpt>
      <trkpt lat="49.26426" lon="-0.23567">
        <ele>4.5</ele>
        <time>2022-05-31T15:55:33Z</time>
      </trkpt>
      <trkpt lat="49.26426" lon="-0.23566">
        <ele>4.5</ele>
        <time>2022-05-31T15:55:35Z</time>
      </trkpt>
      <trkpt lat="49.26426" lon="-0.23566">
        <ele>4.5</ele>
        <time>2022-05-31T15:55:36Z</time>
      </trkpt>
      <trkpt lat="49.26426" lon="-0.23566">
        <ele>4.5</ele>
        <time>2022-05-31T15:55:37Z</time>
      </trkpt>
      <trkpt lat="49.26427" lon="-0.23566">
        <ele>4.5</ele>
        <time>2022-05-31T15:55:38Z</time>
      </trkpt>
      <trkpt lat="49.26428" lon="-0.23565">
        <ele>4.4</ele>
        <time>2022-05-31T15:55:39Z</time>
      </trkpt>
      <trkpt lat="49.26428" lon="-0.23565">
        <ele>4.4</ele>
        <time>2022-05-31T15:55:40Z</time>
      </trkpt>
      <trkpt lat="49.26429" lon="-0.23564">
        <ele>4.4</ele>
        <time>2022-05-31T15:55:41Z</time>
      </trkpt>
      <trkpt lat="49.26429" lon="-0.23564">
        <ele>4.4</ele>
        <time>2022-05-31T15:55:42Z</time>
      </trkpt>
      <trkpt lat="49.2643" lon="-0.23563">
        <ele>4.4</ele>
        <time>2022-05-31T15:55:44Z</time>
      </trkpt>
      <trkpt lat="49.26431" lon="-0.23563">
        <ele>4.4</ele>
        <time>2022-05-31T15:55:45Z</time>
      </trkpt>
      <trkpt lat="49.26432" lon="-0.23563">
        <ele>4.4</ele>
        <time>2022-05-31T15:55:46Z</time>
      </trkpt>
      <trkpt lat="49.26432" lon="-0.23563">
        <ele>4.3</ele>
        <time>2022-05-31T15:55:47Z</time>
      </trkpt>
      <trkpt lat="49.26434" lon="-0.23563">
        <ele>4.3</ele>
        <time>2022-05-31T15:55:48Z</time>
      </trkpt>
      <trkpt lat="49.26435" lon="-0.23563">
        <ele>4.3</ele>
        <time>2022-05-31T15:55:49Z</time>
      </trkpt>
      <trkpt lat="49.26439" lon="-0.23563">
        <ele>4.3</ele>
        <time>2022-05-31T15:55:50Z</time>
      </trkpt>
      <trkpt lat="49.26439" lon="-0.23563">
        <ele>4.2</ele>
        <time>2022-05-31T15:55:51Z</time>
      </trkpt>
      <trkpt lat="49.26441" lon="-0.23563">
        <ele>4.2</ele>
        <time>2022-05-31T15:55:52Z</time>
      </trkpt>
      <trkpt lat="49.26442" lon="-0.23563">
        <ele>4.2</ele>
        <time>2022-05-31T15:55:53Z</time>
      </trkpt>
      <trkpt lat="49.26443" lon="-0.23563">
        <ele>4.2</ele>
        <time>2022-05-31T15:55:54Z</time>
      </trkpt>
      <trkpt lat="49.26444" lon="-0.23563">
        <ele>4.2</ele>
        <time>2022-05-31T15:55:55Z</time>
      </trkpt>
      <trkpt lat="49.26445" lon="-0.23563">
        <ele>4.2</ele>
        <time>2022-05-31T15:55:56Z</time>
      </trkpt>
      <trkpt lat="49.26447" lon="-0.23563">
        <ele>4.2</ele>
        <time>2022-05-31T15:55:57Z</time>
      </trkpt>
      <trkpt lat="49.26448" lon="-0.23564">
        <ele>4.2</ele>
        <time>2022-05-31T15:55:59Z</time>
      </trkpt>
      <trkpt lat="49.26449" lon="-0.23564">
        <ele>4.2</ele>
        <time>2022-05-31T15:56:00Z</time>
      </trkpt>
      <trkpt lat="49.2645" lon="-0.23564">
        <ele>4.2</ele>
        <time>2022-05-31T15:56:01Z</time>
      </trkpt>
      <trkpt lat="49.26452" lon="-0.23565">
        <ele>4.2</ele>
        <time>2022-05-31T15:56:02Z</time>
      </trkpt>
      <trkpt lat="49.26454" lon="-0.23565">
        <ele>4.2</ele>
        <time>2022-05-31T15:56:03Z</time>
      </trkpt>
      <trkpt lat="49.26455" lon="-0.23565">
        <ele>4.1</ele>
        <time>2022-05-31T15:56:04Z</time>
      </trkpt>
      <trkpt lat="49.26457" lon="-0.23566">
        <ele>4.1</ele>
        <time>2022-05-31T15:56:05Z</time>
      </trkpt>
      <trkpt lat="49.26458" lon="-0.23566">
        <ele>4.1</ele>
        <time>2022-05-31T15:56:06Z</time>
      </trkpt>
      <trkpt lat="49.26459" lon="-0.23566">
        <ele>4.1</ele>
        <time>2022-05-31T15:56:07Z</time>
      </trkpt>
      <trkpt lat="49.26461" lon="-0.23566">
        <ele>4.1</ele>
        <time>2022-05-31T15:56:08Z</time>
      </trkpt>
      <trkpt lat="49.26462" lon="-0.23566">
        <ele>4.1</ele>
        <time>2022-05-31T15:56:09Z</time>
      </trkpt>
      <trkpt lat="49.26463" lon="-0.23566">
        <ele>4.1</ele>
        <time>2022-05-31T15:56:10Z</time>
      </trkpt>
      <trkpt lat="49.26464" lon="-0.23567">
        <ele>4.1</ele>
        <time>2022-05-31T15:56:11Z</time>
      </trkpt>
      <trkpt lat="49.26466" lon="-0.23567">
        <ele>4.1</ele>
        <time>2022-05-31T15:56:12Z</time>
      </trkpt>
      <trkpt lat="49.26469" lon="-0.23568">
        <ele>4.1</ele>
        <time>2022-05-31T15:56:13Z</time>
      </trkpt>
      <trkpt lat="49.26469" lon="-0.23568">
        <ele>4.1</ele>
        <time>2022-05-31T15:56:14Z</time>
      </trkpt>
      <trkpt lat="49.26471" lon="-0.23569">
        <ele>4.1</ele>
        <time>2022-05-31T15:56:15Z</time>
      </trkpt>
      <trkpt lat="49.26473" lon="-0.2357">
        <ele>4.1</ele>
        <time>2022-05-31T15:56:17Z</time>
      </trkpt>
      <trkpt lat="49.26474" lon="-0.23571">
        <ele>4.1</ele>
        <time>2022-05-31T15:56:18Z</time>
      </trkpt>
      <trkpt lat="49.26475" lon="-0.23571">
        <ele>4.1</ele>
        <time>2022-05-31T15:56:19Z</time>
      </trkpt>
      <trkpt lat="49.26475" lon="-0.23571">
        <ele>4.1</ele>
        <time>2022-05-31T15:56:20Z</time>
      </trkpt>
      <trkpt lat="49.26476" lon="-0.23571">
        <ele>4.1</ele>
        <time>2022-05-31T15:56:21Z</time>
      </trkpt>
      <trkpt lat="49.26476" lon="-0.23571">
        <ele>4.1</ele>
        <time>2022-05-31T15:56:22Z</time>
      </trkpt>
      <trkpt lat="49.26476" lon="-0.23571">
        <ele>4.1</ele>
        <time>2022-05-31T15:56:23Z</time>
      </trkpt>
      <trkpt lat="49.26476" lon="-0.2357">
        <ele>4.1</ele>
        <time>2022-05-31T15:56:24Z</time>
      </trkpt>
      <trkpt lat="49.26476" lon="-0.2357">
        <ele>4.1</ele>
        <time>2022-05-31T15:56:25Z</time>
      </trkpt>
      <trkpt lat="49.26475" lon="-0.2357">
        <ele>4.1</ele>
        <time>2022-05-31T15:56:26Z</time>
      </trkpt>
      <trkpt lat="49.26475" lon="-0.2357">
        <ele>4.1</ele>
        <time>2022-05-31T15:56:27Z</time>
      </trkpt>
      <trkpt lat="49.26475" lon="-0.2357">
        <ele>4.1</ele>
        <time>2022-05-31T15:56:28Z</time>
      </trkpt>
      <trkpt lat="49.26475" lon="-0.2357">
        <ele>4.1</ele>
        <time>2022-05-31T15:56:29Z</time>
      </trkpt>
      <trkpt lat="49.26475" lon="-0.2357">
        <ele>4.1</ele>
        <time>2022-05-31T15:56:30Z</time>
      </trkpt>
      <trkpt lat="49.26475" lon="-0.2357">
        <ele>4.1</ele>
        <time>2022-05-31T15:56:31Z</time>
      </trkpt>
      <trkpt lat="49.26475" lon="-0.2357">
        <ele>4.1</ele>
        <time>2022-05-31T15:56:32Z</time>
      </trkpt>
      <trkpt lat="49.26475" lon="-0.2357">
        <ele>4.1</ele>
        <time>2022-05-31T15:56:33Z</time>
      </trkpt>
      <trkpt lat="49.26475" lon="-0.2357">
        <ele>4.1</ele>
        <time>2022-05-31T15:56:34Z</time>
      </trkpt>
      <trkpt lat="49.26475" lon="-0.2357">
        <ele>4.1</ele>
        <time>2022-05-31T15:56:35Z</time>
      </trkpt>
      <trkpt lat="49.26474" lon="-0.2357">
        <ele>4.1</ele>
        <time>2022-05-31T15:56:36Z</time>
      </trkpt>
      <trkpt lat="49.26474" lon="-0.2357">
        <ele>4.1</ele>
        <time>2022-05-31T15:56:37Z</time>
      </trkpt>
      <trkpt lat="49.26474" lon="-0.2357">
        <ele>4.1</ele>
        <time>2022-05-31T15:56:38Z</time>
      </trkpt>
      <trkpt lat="49.26474" lon="-0.2357">
        <ele>4.1</ele>
        <time>2022-05-31T15:56:39Z</time>
      </trkpt>
      <trkpt lat="49.26474" lon="-0.2357">
        <ele>4.1</ele>
        <time>2022-05-31T15:56:40Z</time>
      </trkpt>
      <trkpt lat="49.26474" lon="-0.2357">
        <ele>4.1</ele>
        <time>2022-05-31T15:56:41Z</time>
      </trkpt>
      <trkpt lat="49.26474" lon="-0.2357">
        <ele>4.1</ele>
        <time>2022-05-31T15:56:42Z</time>
      </trkpt>
      <trkpt lat="49.26474" lon="-0.2357">
        <ele>4.1</ele>
        <time>2022-05-31T15:56:43Z</time>
      </trkpt>
      <trkpt lat="49.26474" lon="-0.2357">
        <ele>4.1</ele>
        <time>2022-05-31T15:56:44Z</time>
      </trkpt>
      <trkpt lat="49.26474" lon="-0.2357">
        <ele>4.1</ele>
        <time>2022-05-31T15:56:45Z</time>
      </trkpt>
      <trkpt lat="49.26474" lon="-0.2357">
        <ele>4.1</ele>
        <time>2022-05-31T15:56:46Z</time>
      </trkpt>
      <trkpt lat="49.26474" lon="-0.2357">
        <ele>4.1</ele>
        <time>2022-05-31T15:56:47Z</time>
      </trkpt>
      <trkpt lat="49.26474" lon="-0.2357">
        <ele>4.1</ele>
        <time>2022-05-31T15:56:48Z</time>
      </trkpt>
      <trkpt lat="49.26474" lon="-0.2357">
        <ele>4.1</ele>
        <time>2022-05-31T15:56:49Z</time>
      </trkpt>
      <trkpt lat="49.26474" lon="-0.2357">
        <ele>4.1</ele>
        <time>2022-05-31T15:56:50Z</time>
      </trkpt>
      <trkpt lat="49.26474" lon="-0.2357">
        <ele>4.1</ele>
        <time>2022-05-31T15:56:51Z</time>
      </trkpt>
      <trkpt lat="49.26474" lon="-0.2357">
        <ele>4.1</ele>
        <time>2022-05-31T15:56:52Z</time>
      </trkpt>
      <trkpt lat="49.26474" lon="-0.2357">
        <ele>4.1</ele>
        <time>2022-05-31T15:56:53Z</time>
      </trkpt>
      <trkpt lat="49.26474" lon="-0.2357">
        <ele>4.1</ele>
        <time>2022-05-31T15:56:54Z</time>
      </trkpt>
      <trkpt lat="49.26474" lon="-0.2357">
        <ele>4.1</ele>
        <time>2022-05-31T15:56:55Z</time>
      </trkpt>
      <trkpt lat="49.26474" lon="-0.2357">
        <ele>4.1</ele>
        <time>2022-05-31T15:56:56Z</time>
      </trkpt>
      <trkpt lat="49.26474" lon="-0.2357">
        <ele>4.1</ele>
        <time>2022-05-31T15:56:57Z</time>
      </trkpt>
      <trkpt lat="49.26474" lon="-0.2357">
        <ele>4.1</ele>
        <time>2022-05-31T15:56:58Z</time>
      </trkpt>
      <trkpt lat="49.26474" lon="-0.2357">
        <ele>4.1</ele>
        <time>2022-05-31T15:56:59Z</time>
      </trkpt>
      <trkpt lat="49.26474" lon="-0.2357">
        <ele>4.1</ele>
        <time>2022-05-31T15:57:00Z</time>
      </trkpt>
      <trkpt lat="49.26474" lon="-0.2357">
        <ele>4.1</ele>
        <time>2022-05-31T15:57:01Z</time>
      </trkpt>
      <trkpt lat="49.26474" lon="-0.2357">
        <ele>4.1</ele>
        <time>2022-05-31T15:57:02Z</time>
      </trkpt>
      <trkpt lat="49.26474" lon="-0.2357">
        <ele>4.1</ele>
        <time>2022-05-31T15:57:03Z</time>
      </trkpt>
      <trkpt lat="49.26474" lon="-0.2357">
        <ele>4.1</ele>
        <time>2022-05-31T15:57:04Z</time>
      </trkpt>
      <trkpt lat="49.26474" lon="-0.2357">
        <ele>4.1</ele>
        <time>2022-05-31T15:57:05Z</time>
      </trkpt>
      <trkpt lat="49.26474" lon="-0.2357">
        <ele>4.1</ele>
        <time>2022-05-31T15:57:06Z</time>
      </trkpt>
      <trkpt lat="49.26474" lon="-0.2357">
        <ele>4.1</ele>
        <time>2022-05-31T15:57:07Z</time>
      </trkpt>
      <trkpt lat="49.26474" lon="-0.2357">
        <ele>4.1</ele>
        <time>2022-05-31T15:57:08Z</time>
      </trkpt>
      <trkpt lat="49.26474" lon="-0.2357">
        <ele>4.1</ele>
        <time>2022-05-31T15:57:09Z</time>
      </trkpt>
      <trkpt lat="49.26474" lon="-0.2357">
        <ele>4.1</ele>
        <time>2022-05-31T15:57:10Z</time>
      </trkpt>
      <trkpt lat="49.26474" lon="-0.2357">
        <ele>4.1</ele>
        <time>2022-05-31T15:57:11Z</time>
      </trkpt>
      <trkpt lat="49.26474" lon="-0.2357">
        <ele>4.1</ele>
        <time>2022-05-31T15:57:12Z</time>
      </trkpt>
      <trkpt lat="49.26474" lon="-0.2357">
        <ele>4.1</ele>
        <time>2022-05-31T15:57:13Z</time>
      </trkpt>
      <trkpt lat="49.26474" lon="-0.2357">
        <ele>4.1</ele>
        <time>2022-05-31T15:57:14Z</time>
      </trkpt>
      <trkpt lat="49.26474" lon="-0.2357">
        <ele>4.1</ele>
        <time>2022-05-31T15:57:15Z</time>
      </trkpt>
      <trkpt lat="49.26474" lon="-0.2357">
        <ele>4.1</ele>
        <time>2022-05-31T15:57:16Z</time>
      </trkpt>
      <trkpt lat="49.26474" lon="-0.2357">
        <ele>4.1</ele>
        <time>2022-05-31T15:57:17Z</time>
      </trkpt>
      <trkpt lat="49.26474" lon="-0.2357">
        <ele>4.1</ele>
        <time>2022-05-31T15:57:18Z</time>
      </trkpt>
      <trkpt lat="49.26474" lon="-0.2357">
        <ele>4.1</ele>
        <time>2022-05-31T15:57:19Z</time>
      </trkpt>
      <trkpt lat="49.26474" lon="-0.2357">
        <ele>4.1</ele>
        <time>2022-05-31T15:57:20Z</time>
      </trkpt>
      <trkpt lat="49.26474" lon="-0.2357">
        <ele>4.1</ele>
        <time>2022-05-31T15:57:21Z</time>
      </trkpt>
      <trkpt lat="49.26474" lon="-0.2357">
        <ele>4.1</ele>
        <time>2022-05-31T15:57:22Z</time>
      </trkpt>
      <trkpt lat="49.26474" lon="-0.2357">
        <ele>4.1</ele>
        <time>2022-05-31T15:57:23Z</time>
      </trkpt>
      <trkpt lat="49.26474" lon="-0.2357">
        <ele>4.1</ele>
        <time>2022-05-31T15:57:24Z</time>
      </trkpt>
      <trkpt lat="49.26474" lon="-0.2357">
        <ele>4.1</ele>
        <time>2022-05-31T15:57:25Z</time>
      </trkpt>
      <trkpt lat="49.26474" lon="-0.2357">
        <ele>4.1</ele>
        <time>2022-05-31T15:57:26Z</time>
      </trkpt>
      <trkpt lat="49.26474" lon="-0.2357">
        <ele>4.1</ele>
        <time>2022-05-31T15:57:27Z</time>
      </trkpt>
      <trkpt lat="49.26474" lon="-0.2357">
        <ele>4.1</ele>
        <time>2022-05-31T15:57:28Z</time>
      </trkpt>
      <trkpt lat="49.26474" lon="-0.2357">
        <ele>4.1</ele>
        <time>2022-05-31T15:57:29Z</time>
      </trkpt>
      <trkpt lat="49.26474" lon="-0.2357">
        <ele>4.1</ele>
        <time>2022-05-31T15:57:30Z</time>
      </trkpt>
      <trkpt lat="49.26474" lon="-0.2357">
        <ele>4.1</ele>
        <time>2022-05-31T15:57:31Z</time>
      </trkpt>
      <trkpt lat="49.26474" lon="-0.2357">
        <ele>4.1</ele>
        <time>2022-05-31T15:57:32Z</time>
      </trkpt>
      <trkpt lat="49.26474" lon="-0.2357">
        <ele>4.1</ele>
        <time>2022-05-31T15:57:33Z</time>
      </trkpt>
      <trkpt lat="49.26474" lon="-0.2357">
        <ele>4.1</ele>
        <time>2022-05-31T15:57:34Z</time>
      </trkpt>
      <trkpt lat="49.26474" lon="-0.2357">
        <ele>4.1</ele>
        <time>2022-05-31T15:57:35Z</time>
      </trkpt>
      <trkpt lat="49.26474" lon="-0.2357">
        <ele>4.1</ele>
        <time>2022-05-31T15:57:36Z</time>
      </trkpt>
      <trkpt lat="49.26474" lon="-0.2357">
        <ele>4.1</ele>
        <time>2022-05-31T15:57:37Z</time>
      </trkpt>
      <trkpt lat="49.26474" lon="-0.2357">
        <ele>4.1</ele>
        <time>2022-05-31T15:57:38Z</time>
      </trkpt>
      <trkpt lat="49.26474" lon="-0.2357">
        <ele>4.1</ele>
        <time>2022-05-31T15:57:39Z</time>
      </trkpt>
      <trkpt lat="49.26474" lon="-0.2357">
        <ele>4.1</ele>
        <time>2022-05-31T15:57:40Z</time>
      </trkpt>
      <trkpt lat="49.26474" lon="-0.2357">
        <ele>4.1</ele>
        <time>2022-05-31T15:57:41Z</time>
      </trkpt>
      <trkpt lat="49.26474" lon="-0.2357">
        <ele>4.1</ele>
        <time>2022-05-31T15:57:42Z</time>
      </trkpt>
      <trkpt lat="49.26474" lon="-0.2357">
        <ele>4.1</ele>
        <time>2022-05-31T15:57:43Z</time>
      </trkpt>
      <trkpt lat="49.26474" lon="-0.2357">
        <ele>4.1</ele>
        <time>2022-05-31T15:57:44Z</time>
      </trkpt>
      <trkpt lat="49.26474" lon="-0.2357">
        <ele>4.1</ele>
        <time>2022-05-31T15:57:45Z</time>
      </trkpt>
      <trkpt lat="49.26474" lon="-0.2357">
        <ele>4.1</ele>
        <time>2022-05-31T15:57:46Z</time>
      </trkpt>
      <trkpt lat="49.26474" lon="-0.2357">
        <ele>4.1</ele>
        <time>2022-05-31T15:57:47Z</time>
      </trkpt>
      <trkpt lat="49.26474" lon="-0.2357">
        <ele>4.1</ele>
        <time>2022-05-31T15:57:48Z</time>
      </trkpt>
      <trkpt lat="49.26474" lon="-0.2357">
        <ele>4.1</ele>
        <time>2022-05-31T15:57:49Z</time>
      </trkpt>
      <trkpt lat="49.26474" lon="-0.2357">
        <ele>4.1</ele>
        <time>2022-05-31T15:57:50Z</time>
      </trkpt>
      <trkpt lat="49.26474" lon="-0.2357">
        <ele>4.1</ele>
        <time>2022-05-31T15:57:51Z</time>
      </trkpt>
      <trkpt lat="49.26474" lon="-0.2357">
        <ele>4.1</ele>
        <time>2022-05-31T15:57:52Z</time>
      </trkpt>
      <trkpt lat="49.26474" lon="-0.2357">
        <ele>4.1</ele>
        <time>2022-05-31T15:57:53Z</time>
      </trkpt>
      <trkpt lat="49.26474" lon="-0.2357">
        <ele>4.1</ele>
        <time>2022-05-31T15:57:54Z</time>
      </trkpt>
      <trkpt lat="49.26474" lon="-0.2357">
        <ele>4.1</ele>
        <time>2022-05-31T15:57:55Z</time>
      </trkpt>
      <trkpt lat="49.26474" lon="-0.2357">
        <ele>4.1</ele>
        <time>2022-05-31T15:57:56Z</time>
      </trkpt>
      <trkpt lat="49.26474" lon="-0.2357">
        <ele>4.1</ele>
        <time>2022-05-31T15:57:57Z</time>
      </trkpt>
      <trkpt lat="49.26474" lon="-0.2357">
        <ele>4.1</ele>
        <time>2022-05-31T15:57:58Z</time>
      </trkpt>
      <trkpt lat="49.26474" lon="-0.2357">
        <ele>4.1</ele>
        <time>2022-05-31T15:57:59Z</time>
      </trkpt>
      <trkpt lat="49.26474" lon="-0.2357">
        <ele>4.1</ele>
        <time>2022-05-31T15:58:00Z</time>
      </trkpt>
      <trkpt lat="49.26474" lon="-0.2357">
        <ele>4.1</ele>
        <time>2022-05-31T15:58:01Z</time>
      </trkpt>
      <trkpt lat="49.26474" lon="-0.2357">
        <ele>4.1</ele>
        <time>2022-05-31T15:58:02Z</time>
      </trkpt>
      <trkpt lat="49.26474" lon="-0.2357">
        <ele>4.1</ele>
        <time>2022-05-31T15:58:03Z</time>
      </trkpt>
      <trkpt lat="49.26474" lon="-0.2357">
        <ele>4.1</ele>
        <time>2022-05-31T15:58:04Z</time>
      </trkpt>
      <trkpt lat="49.26474" lon="-0.2357">
        <ele>4.1</ele>
        <time>2022-05-31T15:58:05Z</time>
      </trkpt>
      <trkpt lat="49.26473" lon="-0.2357">
        <ele>4.1</ele>
        <time>2022-05-31T15:58:06Z</time>
      </trkpt>
      <trkpt lat="49.26472" lon="-0.23571">
        <ele>4.1</ele>
        <time>2022-05-31T15:58:07Z</time>
      </trkpt>
      <trkpt lat="49.26472" lon="-0.23571">
        <ele>4.1</ele>
        <time>2022-05-31T15:58:08Z</time>
      </trkpt>
      <trkpt lat="49.26472" lon="-0.23571">
        <ele>4.1</ele>
        <time>2022-05-31T15:58:09Z</time>
      </trkpt>
      <trkpt lat="49.26472" lon="-0.23571">
        <ele>4.1</ele>
        <time>2022-05-31T15:58:10Z</time>
      </trkpt>
      <trkpt lat="49.26472" lon="-0.23571">
        <ele>4.1</ele>
        <time>2022-05-31T15:58:11Z</time>
      </trkpt>
      <trkpt lat="49.26472" lon="-0.23571">
        <ele>4.1</ele>
        <time>2022-05-31T15:58:12Z</time>
      </trkpt>
      <trkpt lat="49.26472" lon="-0.23571">
        <ele>4.1</ele>
        <time>2022-05-31T15:58:13Z</time>
      </trkpt>
      <trkpt lat="49.26472" lon="-0.23571">
        <ele>4.1</ele>
        <time>2022-05-31T15:58:14Z</time>
      </trkpt>
      <trkpt lat="49.26472" lon="-0.23571">
        <ele>4.1</ele>
        <time>2022-05-31T15:58:15Z</time>
      </trkpt>
      <trkpt lat="49.26472" lon="-0.23571">
        <ele>4.1</ele>
        <time>2022-05-31T15:58:16Z</time>
      </trkpt>
      <trkpt lat="49.26472" lon="-0.23571">
        <ele>4.1</ele>
        <time>2022-05-31T15:58:17Z</time>
      </trkpt>
      <trkpt lat="49.26472" lon="-0.23571">
        <ele>4.1</ele>
        <time>2022-05-31T15:58:18Z</time>
      </trkpt>
      <trkpt lat="49.26472" lon="-0.23571">
        <ele>4.1</ele>
        <time>2022-05-31T15:58:19Z</time>
      </trkpt>
      <trkpt lat="49.26472" lon="-0.23571">
        <ele>4.1</ele>
        <time>2022-05-31T15:58:20Z</time>
      </trkpt>
      <trkpt lat="49.26472" lon="-0.23571">
        <ele>4.1</ele>
        <time>2022-05-31T15:58:21Z</time>
      </trkpt>
      <trkpt lat="49.26472" lon="-0.23571">
        <ele>4.1</ele>
        <time>2022-05-31T15:58:22Z</time>
      </trkpt>
      <trkpt lat="49.26472" lon="-0.23571">
        <ele>4.1</ele>
        <time>2022-05-31T15:58:23Z</time>
      </trkpt>
      <trkpt lat="49.26472" lon="-0.23571">
        <ele>4.1</ele>
        <time>2022-05-31T15:58:24Z</time>
      </trkpt>
      <trkpt lat="49.26472" lon="-0.23571">
        <ele>4.1</ele>
        <time>2022-05-31T15:58:25Z</time>
      </trkpt>
      <trkpt lat="49.26472" lon="-0.23571">
        <ele>4.1</ele>
        <time>2022-05-31T15:58:26Z</time>
      </trkpt>
      <trkpt lat="49.26472" lon="-0.23571">
        <ele>4.1</ele>
        <time>2022-05-31T15:58:27Z</time>
      </trkpt>
      <trkpt lat="49.26472" lon="-0.23571">
        <ele>4.1</ele>
        <time>2022-05-31T15:58:28Z</time>
      </trkpt>
      <trkpt lat="49.26472" lon="-0.23571">
        <ele>4.1</ele>
        <time>2022-05-31T15:58:29Z</time>
      </trkpt>
      <trkpt lat="49.26472" lon="-0.23571">
        <ele>4.1</ele>
        <time>2022-05-31T15:58:30Z</time>
      </trkpt>
      <trkpt lat="49.26472" lon="-0.23571">
        <ele>4.1</ele>
        <time>2022-05-31T15:58:31Z</time>
      </trkpt>
      <trkpt lat="49.26472" lon="-0.23571">
        <ele>4.1</ele>
        <time>2022-05-31T15:58:32Z</time>
      </trkpt>
      <trkpt lat="49.26472" lon="-0.23571">
        <ele>4.1</ele>
        <time>2022-05-31T15:58:33Z</time>
      </trkpt>
      <trkpt lat="49.26472" lon="-0.23571">
        <ele>4.1</ele>
        <time>2022-05-31T15:58:34Z</time>
      </trkpt>
      <trkpt lat="49.26472" lon="-0.23571">
        <ele>4.1</ele>
        <time>2022-05-31T15:58:35Z</time>
      </trkpt>
      <trkpt lat="49.26472" lon="-0.23571">
        <ele>4.1</ele>
        <time>2022-05-31T15:58:36Z</time>
      </trkpt>
      <trkpt lat="49.26472" lon="-0.23571">
        <ele>4.1</ele>
        <time>2022-05-31T15:58:37Z</time>
      </trkpt>
      <trkpt lat="49.26472" lon="-0.23571">
        <ele>4.1</ele>
        <time>2022-05-31T15:58:38Z</time>
      </trkpt>
      <trkpt lat="49.26472" lon="-0.23571">
        <ele>4.1</ele>
        <time>2022-05-31T15:58:39Z</time>
      </trkpt>
      <trkpt lat="49.26472" lon="-0.23571">
        <ele>4.1</ele>
        <time>2022-05-31T15:58:40Z</time>
      </trkpt>
      <trkpt lat="49.26472" lon="-0.23571">
        <ele>4.1</ele>
        <time>2022-05-31T15:58:41Z</time>
      </trkpt>
      <trkpt lat="49.26472" lon="-0.23571">
        <ele>4.1</ele>
        <time>2022-05-31T15:58:42Z</time>
      </trkpt>
      <trkpt lat="49.26472" lon="-0.23571">
        <ele>4.1</ele>
        <time>2022-05-31T15:58:43Z</time>
      </trkpt>
      <trkpt lat="49.26472" lon="-0.23571">
        <ele>4.1</ele>
        <time>2022-05-31T15:58:44Z</time>
      </trkpt>
      <trkpt lat="49.26472" lon="-0.23571">
        <ele>4.1</ele>
        <time>2022-05-31T15:58:45Z</time>
      </trkpt>
      <trkpt lat="49.26472" lon="-0.23571">
        <ele>4.1</ele>
        <time>2022-05-31T15:58:46Z</time>
      </trkpt>
      <trkpt lat="49.26472" lon="-0.23571">
        <ele>4.1</ele>
        <time>2022-05-31T15:58:47Z</time>
      </trkpt>
      <trkpt lat="49.26472" lon="-0.23571">
        <ele>4.1</ele>
        <time>2022-05-31T15:58:48Z</time>
      </trkpt>
      <trkpt lat="49.26472" lon="-0.23571">
        <ele>4.1</ele>
        <time>2022-05-31T15:58:49Z</time>
      </trkpt>
      <trkpt lat="49.26472" lon="-0.23571">
        <ele>4.1</ele>
        <time>2022-05-31T15:58:50Z</time>
      </trkpt>
      <trkpt lat="49.26472" lon="-0.23571">
        <ele>4.1</ele>
        <time>2022-05-31T15:58:51Z</time>
      </trkpt>
      <trkpt lat="49.26472" lon="-0.23571">
        <ele>4.1</ele>
        <time>2022-05-31T15:58:52Z</time>
      </trkpt>
      <trkpt lat="49.26472" lon="-0.23572">
        <ele>4.1</ele>
        <time>2022-05-31T15:58:53Z</time>
      </trkpt>
      <trkpt lat="49.26472" lon="-0.23572">
        <ele>4.1</ele>
        <time>2022-05-31T15:58:54Z</time>
      </trkpt>
      <trkpt lat="49.26472" lon="-0.23572">
        <ele>4.1</ele>
        <time>2022-05-31T15:58:55Z</time>
      </trkpt>
      <trkpt lat="49.26472" lon="-0.23572">
        <ele>4.1</ele>
        <time>2022-05-31T15:58:56Z</time>
      </trkpt>
      <trkpt lat="49.26472" lon="-0.23572">
        <ele>4.1</ele>
        <time>2022-05-31T15:58:57Z</time>
      </trkpt>
      <trkpt lat="49.26472" lon="-0.23572">
        <ele>4.1</ele>
        <time>2022-05-31T15:58:58Z</time>
      </trkpt>
      <trkpt lat="49.26472" lon="-0.23572">
        <ele>4.1</ele>
        <time>2022-05-31T15:58:59Z</time>
      </trkpt>
      <trkpt lat="49.26472" lon="-0.23572">
        <ele>4.1</ele>
        <time>2022-05-31T15:59:00Z</time>
      </trkpt>
      <trkpt lat="49.26472" lon="-0.23572">
        <ele>4.1</ele>
        <time>2022-05-31T15:59:01Z</time>
      </trkpt>
      <trkpt lat="49.26472" lon="-0.23572">
        <ele>4.1</ele>
        <time>2022-05-31T15:59:02Z</time>
      </trkpt>
      <trkpt lat="49.26472" lon="-0.23572">
        <ele>4.1</ele>
        <time>2022-05-31T15:59:03Z</time>
      </trkpt>
      <trkpt lat="49.26472" lon="-0.23572">
        <ele>4.1</ele>
        <time>2022-05-31T15:59:04Z</time>
      </trkpt>
      <trkpt lat="49.26472" lon="-0.23572">
        <ele>4.1</ele>
        <time>2022-05-31T15:59:05Z</time>
      </trkpt>
      <trkpt lat="49.26472" lon="-0.23572">
        <ele>4.1</ele>
        <time>2022-05-31T15:59:06Z</time>
      </trkpt>
      <trkpt lat="49.26472" lon="-0.23572">
        <ele>4.1</ele>
        <time>2022-05-31T15:59:07Z</time>
      </trkpt>
      <trkpt lat="49.26472" lon="-0.23572">
        <ele>4.1</ele>
        <time>2022-05-31T15:59:08Z</time>
      </trkpt>
      <trkpt lat="49.26472" lon="-0.23572">
        <ele>4.1</ele>
        <time>2022-05-31T15:59:09Z</time>
      </trkpt>
      <trkpt lat="49.26472" lon="-0.23572">
        <ele>4.1</ele>
        <time>2022-05-31T15:59:10Z</time>
      </trkpt>
      <trkpt lat="49.26472" lon="-0.23572">
        <ele>4.1</ele>
        <time>2022-05-31T15:59:11Z</time>
      </trkpt>
      <trkpt lat="49.26472" lon="-0.23572">
        <ele>4.1</ele>
        <time>2022-05-31T15:59:12Z</time>
      </trkpt>
      <trkpt lat="49.26472" lon="-0.23572">
        <ele>4.1</ele>
        <time>2022-05-31T15:59:13Z</time>
      </trkpt>
      <trkpt lat="49.26472" lon="-0.23572">
        <ele>4.1</ele>
        <time>2022-05-31T15:59:14Z</time>
      </trkpt>
      <trkpt lat="49.26472" lon="-0.23572">
        <ele>4.1</ele>
        <time>2022-05-31T15:59:15Z</time>
      </trkpt>
      <trkpt lat="49.26472" lon="-0.23572">
        <ele>4.1</ele>
        <time>2022-05-31T15:59:16Z</time>
      </trkpt>
      <trkpt lat="49.26472" lon="-0.23572">
        <ele>4.1</ele>
        <time>2022-05-31T15:59:17Z</time>
      </trkpt>
      <trkpt lat="49.26472" lon="-0.23572">
        <ele>4.1</ele>
        <time>2022-05-31T15:59:18Z</time>
      </trkpt>
      <trkpt lat="49.26472" lon="-0.23572">
        <ele>4.1</ele>
        <time>2022-05-31T15:59:19Z</time>
      </trkpt>
      <trkpt lat="49.26472" lon="-0.23572">
        <ele>4.1</ele>
        <time>2022-05-31T15:59:20Z</time>
      </trkpt>
      <trkpt lat="49.26472" lon="-0.23572">
        <ele>4.1</ele>
        <time>2022-05-31T15:59:21Z</time>
      </trkpt>
      <trkpt lat="49.26472" lon="-0.23572">
        <ele>4.1</ele>
        <time>2022-05-31T15:59:22Z</time>
      </trkpt>
      <trkpt lat="49.26472" lon="-0.23572">
        <ele>4.1</ele>
        <time>2022-05-31T15:59:23Z</time>
      </trkpt>
      <trkpt lat="49.26472" lon="-0.23572">
        <ele>4.1</ele>
        <time>2022-05-31T15:59:24Z</time>
      </trkpt>
      <trkpt lat="49.26472" lon="-0.23572">
        <ele>4.1</ele>
        <time>2022-05-31T15:59:25Z</time>
      </trkpt>
      <trkpt lat="49.26472" lon="-0.23571">
        <ele>4.1</ele>
        <time>2022-05-31T15:59:26Z</time>
      </trkpt>
      <trkpt lat="49.26472" lon="-0.23571">
        <ele>4.1</ele>
        <time>2022-05-31T15:59:27Z</time>
      </trkpt>
      <trkpt lat="49.26472" lon="-0.23571">
        <ele>4.1</ele>
        <time>2022-05-31T15:59:28Z</time>
      </trkpt>
      <trkpt lat="49.26473" lon="-0.23571">
        <ele>4.1</ele>
        <time>2022-05-31T15:59:29Z</time>
      </trkpt>
      <trkpt lat="49.26473" lon="-0.23571">
        <ele>4.1</ele>
        <time>2022-05-31T15:59:30Z</time>
      </trkpt>
      <trkpt lat="49.26473" lon="-0.2357">
        <ele>4.1</ele>
        <time>2022-05-31T15:59:31Z</time>
      </trkpt>
      <trkpt lat="49.26472" lon="-0.23571">
        <ele>4.1</ele>
        <time>2022-05-31T15:59:32Z</time>
      </trkpt>
      <trkpt lat="49.26472" lon="-0.23569">
        <ele>4.1</ele>
        <time>2022-05-31T15:59:33Z</time>
      </trkpt>
      <trkpt lat="49.26472" lon="-0.23569">
        <ele>4.1</ele>
        <time>2022-05-31T15:59:34Z</time>
      </trkpt>
      <trkpt lat="49.26472" lon="-0.23568">
        <ele>4.1</ele>
        <time>2022-05-31T15:59:35Z</time>
      </trkpt>
      <trkpt lat="49.26471" lon="-0.23567">
        <ele>4.1</ele>
        <time>2022-05-31T15:59:36Z</time>
      </trkpt>
      <trkpt lat="49.26471" lon="-0.23566">
        <ele>4.1</ele>
        <time>2022-05-31T15:59:38Z</time>
      </trkpt>
      <trkpt lat="49.26471" lon="-0.23566">
        <ele>4</ele>
        <time>2022-05-31T15:59:39Z</time>
      </trkpt>
      <trkpt lat="49.26471" lon="-0.23565">
        <ele>4</ele>
        <time>2022-05-31T15:59:40Z</time>
      </trkpt>
      <trkpt lat="49.2647" lon="-0.23564">
        <ele>4</ele>
        <time>2022-05-31T15:59:42Z</time>
      </trkpt>
      <trkpt lat="49.2647" lon="-0.23564">
        <ele>4</ele>
        <time>2022-05-31T15:59:43Z</time>
      </trkpt>
      <trkpt lat="49.2647" lon="-0.23563">
        <ele>4</ele>
        <time>2022-05-31T15:59:44Z</time>
      </trkpt>
      <trkpt lat="49.2647" lon="-0.23563">
        <ele>4</ele>
        <time>2022-05-31T15:59:45Z</time>
      </trkpt>
      <trkpt lat="49.2647" lon="-0.23562">
        <ele>4</ele>
        <time>2022-05-31T15:59:47Z</time>
      </trkpt>
      <trkpt lat="49.2647" lon="-0.23563">
        <ele>4</ele>
        <time>2022-05-31T15:59:48Z</time>
      </trkpt>
      <trkpt lat="49.26469" lon="-0.23562">
        <ele>4</ele>
        <time>2022-05-31T15:59:49Z</time>
      </trkpt>
      <trkpt lat="49.26469" lon="-0.23562">
        <ele>4</ele>
        <time>2022-05-31T15:59:51Z</time>
      </trkpt>
      <trkpt lat="49.2647" lon="-0.23562">
        <ele>4</ele>
        <time>2022-05-31T15:59:52Z</time>
      </trkpt>
      <trkpt lat="49.2647" lon="-0.23562">
        <ele>4</ele>
        <time>2022-05-31T15:59:53Z</time>
      </trkpt>
      <trkpt lat="49.2647" lon="-0.23561">
        <ele>4</ele>
        <time>2022-05-31T15:59:54Z</time>
      </trkpt>
      <trkpt lat="49.2647" lon="-0.23559">
        <ele>4</ele>
        <time>2022-05-31T15:59:55Z</time>
      </trkpt>
      <trkpt lat="49.2647" lon="-0.23557">
        <ele>4</ele>
        <time>2022-05-31T15:59:56Z</time>
      </trkpt>
      <trkpt lat="49.26469" lon="-0.23554">
        <ele>4</ele>
        <time>2022-05-31T15:59:59Z</time>
      </trkpt>
      <trkpt lat="49.26469" lon="-0.23554">
        <ele>4</ele>
        <time>2022-05-31T16:00:00Z</time>
      </trkpt>
      <trkpt lat="49.26469" lon="-0.23553">
        <ele>4</ele>
        <time>2022-05-31T16:00:01Z</time>
      </trkpt>
      <trkpt lat="49.26469" lon="-0.23553">
        <ele>4</ele>
        <time>2022-05-31T16:00:02Z</time>
      </trkpt>
      <trkpt lat="49.26469" lon="-0.23553">
        <ele>4</ele>
        <time>2022-05-31T16:00:03Z</time>
      </trkpt>
      <trkpt lat="49.26469" lon="-0.23552">
        <ele>4</ele>
        <time>2022-05-31T16:00:04Z</time>
      </trkpt>
      <trkpt lat="49.26469" lon="-0.23552">
        <ele>4</ele>
        <time>2022-05-31T16:00:05Z</time>
      </trkpt>
      <trkpt lat="49.26469" lon="-0.23551">
        <ele>4</ele>
        <time>2022-05-31T16:00:06Z</time>
      </trkpt>
      <trkpt lat="49.2647" lon="-0.23551">
        <ele>4</ele>
        <time>2022-05-31T16:00:07Z</time>
      </trkpt>
      <trkpt lat="49.2647" lon="-0.23551">
        <ele>4</ele>
        <time>2022-05-31T16:00:08Z</time>
      </trkpt>
      <trkpt lat="49.2647" lon="-0.2355">
        <ele>4</ele>
        <time>2022-05-31T16:00:09Z</time>
      </trkpt>
      <trkpt lat="49.2647" lon="-0.2355">
        <ele>4</ele>
        <time>2022-05-31T16:00:10Z</time>
      </trkpt>
      <trkpt lat="49.2647" lon="-0.2355">
        <ele>4</ele>
        <time>2022-05-31T16:00:11Z</time>
      </trkpt>
      <trkpt lat="49.2647" lon="-0.23549">
        <ele>4</ele>
        <time>2022-05-31T16:00:12Z</time>
      </trkpt>
      <trkpt lat="49.2647" lon="-0.23549">
        <ele>4</ele>
        <time>2022-05-31T16:00:14Z</time>
      </trkpt>
      <trkpt lat="49.2647" lon="-0.23549">
        <ele>4</ele>
        <time>2022-05-31T16:00:15Z</time>
      </trkpt>
      <trkpt lat="49.2647" lon="-0.23549">
        <ele>4</ele>
        <time>2022-05-31T16:00:16Z</time>
      </trkpt>
      <trkpt lat="49.2647" lon="-0.23549">
        <ele>4</ele>
        <time>2022-05-31T16:00:17Z</time>
      </trkpt>
      <trkpt lat="49.26471" lon="-0.23549">
        <ele>4</ele>
        <time>2022-05-31T16:00:18Z</time>
      </trkpt>
      <trkpt lat="49.26471" lon="-0.23549">
        <ele>4</ele>
        <time>2022-05-31T16:00:19Z</time>
      </trkpt>
      <trkpt lat="49.26471" lon="-0.23549">
        <ele>4</ele>
        <time>2022-05-31T16:00:20Z</time>
      </trkpt>
      <trkpt lat="49.26471" lon="-0.23549">
        <ele>4</ele>
        <time>2022-05-31T16:00:21Z</time>
      </trkpt>
      <trkpt lat="49.26471" lon="-0.23549">
        <ele>4</ele>
        <time>2022-05-31T16:00:22Z</time>
      </trkpt>
      <trkpt lat="49.26471" lon="-0.23549">
        <ele>4</ele>
        <time>2022-05-31T16:00:23Z</time>
      </trkpt>
      <trkpt lat="49.26471" lon="-0.23549">
        <ele>4</ele>
        <time>2022-05-31T16:00:24Z</time>
      </trkpt>
      <trkpt lat="49.26471" lon="-0.23549">
        <ele>4</ele>
        <time>2022-05-31T16:00:25Z</time>
      </trkpt>
      <trkpt lat="49.26471" lon="-0.23549">
        <ele>4</ele>
        <time>2022-05-31T16:00:26Z</time>
      </trkpt>
      <trkpt lat="49.26471" lon="-0.23549">
        <ele>4</ele>
        <time>2022-05-31T16:00:27Z</time>
      </trkpt>
      <trkpt lat="49.26471" lon="-0.23549">
        <ele>4</ele>
        <time>2022-05-31T16:00:28Z</time>
      </trkpt>
      <trkpt lat="49.26471" lon="-0.23549">
        <ele>4</ele>
        <time>2022-05-31T16:00:29Z</time>
      </trkpt>
      <trkpt lat="49.26471" lon="-0.23549">
        <ele>4</ele>
        <time>2022-05-31T16:00:30Z</time>
      </trkpt>
      <trkpt lat="49.26471" lon="-0.23549">
        <ele>4</ele>
        <time>2022-05-31T16:00:31Z</time>
      </trkpt>
      <trkpt lat="49.26471" lon="-0.23549">
        <ele>4</ele>
        <time>2022-05-31T16:00:32Z</time>
      </trkpt>
      <trkpt lat="49.26471" lon="-0.23549">
        <ele>4</ele>
        <time>2022-05-31T16:00:33Z</time>
      </trkpt>
      <trkpt lat="49.26471" lon="-0.23549">
        <ele>4</ele>
        <time>2022-05-31T16:00:34Z</time>
      </trkpt>
      <trkpt lat="49.26471" lon="-0.23549">
        <ele>4</ele>
        <time>2022-05-31T16:00:35Z</time>
      </trkpt>
      <trkpt lat="49.26471" lon="-0.23549">
        <ele>4</ele>
        <time>2022-05-31T16:00:36Z</time>
      </trkpt>
      <trkpt lat="49.26471" lon="-0.23549">
        <ele>4</ele>
        <time>2022-05-31T16:00:37Z</time>
      </trkpt>
      <trkpt lat="49.26471" lon="-0.23549">
        <ele>4</ele>
        <time>2022-05-31T16:00:38Z</time>
      </trkpt>
      <trkpt lat="49.26471" lon="-0.23549">
        <ele>4</ele>
        <time>2022-05-31T16:00:39Z</time>
      </trkpt>
      <trkpt lat="49.26471" lon="-0.23549">
        <ele>4</ele>
        <time>2022-05-31T16:00:40Z</time>
      </trkpt>
      <trkpt lat="49.26471" lon="-0.23549">
        <ele>4</ele>
        <time>2022-05-31T16:00:41Z</time>
      </trkpt>
      <trkpt lat="49.26471" lon="-0.23549">
        <ele>4</ele>
        <time>2022-05-31T16:00:42Z</time>
      </trkpt>
      <trkpt lat="49.26471" lon="-0.23549">
        <ele>4</ele>
        <time>2022-05-31T16:00:43Z</time>
      </trkpt>
      <trkpt lat="49.26471" lon="-0.23549">
        <ele>4</ele>
        <time>2022-05-31T16:00:44Z</time>
      </trkpt>
      <trkpt lat="49.26471" lon="-0.23549">
        <ele>4</ele>
        <time>2022-05-31T16:00:45Z</time>
      </trkpt>
      <trkpt lat="49.26471" lon="-0.23549">
        <ele>4</ele>
        <time>2022-05-31T16:00:46Z</time>
      </trkpt>
      <trkpt lat="49.26471" lon="-0.23549">
        <ele>4</ele>
        <time>2022-05-31T16:00:47Z</time>
      </trkpt>
      <trkpt lat="49.26471" lon="-0.23549">
        <ele>4</ele>
        <time>2022-05-31T16:00:48Z</time>
      </trkpt>
      <trkpt lat="49.26471" lon="-0.23549">
        <ele>4</ele>
        <time>2022-05-31T16:00:49Z</time>
      </trkpt>
      <trkpt lat="49.26471" lon="-0.23549">
        <ele>4</ele>
        <time>2022-05-31T16:00:50Z</time>
      </trkpt>
      <trkpt lat="49.26471" lon="-0.23549">
        <ele>4</ele>
        <time>2022-05-31T16:00:51Z</time>
      </trkpt>
      <trkpt lat="49.26471" lon="-0.23547">
        <ele>4</ele>
        <time>2022-05-31T16:00:52Z</time>
      </trkpt>
      <trkpt lat="49.26471" lon="-0.23545">
        <ele>4</ele>
        <time>2022-05-31T16:00:53Z</time>
      </trkpt>
      <trkpt lat="49.26471" lon="-0.23542">
        <ele>3.9</ele>
        <time>2022-05-31T16:00:54Z</time>
      </trkpt>
      <trkpt lat="49.2647" lon="-0.23541">
        <ele>3.9</ele>
        <time>2022-05-31T16:00:55Z</time>
      </trkpt>
      <trkpt lat="49.2647" lon="-0.23539">
        <ele>3.9</ele>
        <time>2022-05-31T16:00:56Z</time>
      </trkpt>
      <trkpt lat="49.2647" lon="-0.23537">
        <ele>3.9</ele>
        <time>2022-05-31T16:00:57Z</time>
      </trkpt>
      <trkpt lat="49.2647" lon="-0.23534">
        <ele>3.9</ele>
        <time>2022-05-31T16:00:59Z</time>
      </trkpt>
      <trkpt lat="49.2647" lon="-0.23531">
        <ele>3.9</ele>
        <time>2022-05-31T16:01:00Z</time>
      </trkpt>
      <trkpt lat="49.2647" lon="-0.23529">
        <ele>3.9</ele>
        <time>2022-05-31T16:01:01Z</time>
      </trkpt>
      <trkpt lat="49.2647" lon="-0.23528">
        <ele>3.9</ele>
        <time>2022-05-31T16:01:02Z</time>
      </trkpt>
      <trkpt lat="49.2647" lon="-0.23526">
        <ele>3.9</ele>
        <time>2022-05-31T16:01:03Z</time>
      </trkpt>
      <trkpt lat="49.2647" lon="-0.23524">
        <ele>3.9</ele>
        <time>2022-05-31T16:01:04Z</time>
      </trkpt>
      <trkpt lat="49.2647" lon="-0.23522">
        <ele>3.9</ele>
        <time>2022-05-31T16:01:05Z</time>
      </trkpt>
      <trkpt lat="49.2647" lon="-0.23521">
        <ele>3.9</ele>
        <time>2022-05-31T16:01:06Z</time>
      </trkpt>
      <trkpt lat="49.2647" lon="-0.23519">
        <ele>3.9</ele>
        <time>2022-05-31T16:01:07Z</time>
      </trkpt>
      <trkpt lat="49.2647" lon="-0.23517">
        <ele>3.9</ele>
        <time>2022-05-31T16:01:08Z</time>
      </trkpt>
      <trkpt lat="49.2647" lon="-0.23515">
        <ele>3.9</ele>
        <time>2022-05-31T16:01:10Z</time>
      </trkpt>
      <trkpt lat="49.2647" lon="-0.23514">
        <ele>3.9</ele>
        <time>2022-05-31T16:01:11Z</time>
      </trkpt>
      <trkpt lat="49.2647" lon="-0.23511">
        <ele>3.9</ele>
        <time>2022-05-31T16:01:12Z</time>
      </trkpt>
      <trkpt lat="49.2647" lon="-0.23509">
        <ele>3.9</ele>
        <time>2022-05-31T16:01:13Z</time>
      </trkpt>
      <trkpt lat="49.2647" lon="-0.23508">
        <ele>3.9</ele>
        <time>2022-05-31T16:01:15Z</time>
      </trkpt>
      <trkpt lat="49.2647" lon="-0.23506">
        <ele>3.8</ele>
        <time>2022-05-31T16:01:16Z</time>
      </trkpt>
      <trkpt lat="49.2647" lon="-0.23504">
        <ele>3.8</ele>
        <time>2022-05-31T16:01:17Z</time>
      </trkpt>
      <trkpt lat="49.26469" lon="-0.23501">
        <ele>3.8</ele>
        <time>2022-05-31T16:01:18Z</time>
      </trkpt>
      <trkpt lat="49.26469" lon="-0.235">
        <ele>3.8</ele>
        <time>2022-05-31T16:01:19Z</time>
      </trkpt>
      <trkpt lat="49.26469" lon="-0.23499">
        <ele>3.8</ele>
        <time>2022-05-31T16:01:20Z</time>
      </trkpt>
      <trkpt lat="49.26469" lon="-0.23496">
        <ele>3.8</ele>
        <time>2022-05-31T16:01:21Z</time>
      </trkpt>
      <trkpt lat="49.26469" lon="-0.23494">
        <ele>3.8</ele>
        <time>2022-05-31T16:01:22Z</time>
      </trkpt>
      <trkpt lat="49.26468" lon="-0.23493">
        <ele>3.8</ele>
        <time>2022-05-31T16:01:23Z</time>
      </trkpt>
      <trkpt lat="49.26468" lon="-0.23491">
        <ele>3.8</ele>
        <time>2022-05-31T16:01:24Z</time>
      </trkpt>
      <trkpt lat="49.26467" lon="-0.23488">
        <ele>3.8</ele>
        <time>2022-05-31T16:01:25Z</time>
      </trkpt>
      <trkpt lat="49.26467" lon="-0.23486">
        <ele>3.8</ele>
        <time>2022-05-31T16:01:27Z</time>
      </trkpt>
      <trkpt lat="49.26466" lon="-0.23484">
        <ele>3.8</ele>
        <time>2022-05-31T16:01:28Z</time>
      </trkpt>
      <trkpt lat="49.26466" lon="-0.23481">
        <ele>3.8</ele>
        <time>2022-05-31T16:01:29Z</time>
      </trkpt>
      <trkpt lat="49.26465" lon="-0.2348">
        <ele>3.8</ele>
        <time>2022-05-31T16:01:30Z</time>
      </trkpt>
      <trkpt lat="49.26465" lon="-0.23478">
        <ele>3.8</ele>
        <time>2022-05-31T16:01:31Z</time>
      </trkpt>
      <trkpt lat="49.26465" lon="-0.23475">
        <ele>3.8</ele>
        <time>2022-05-31T16:01:32Z</time>
      </trkpt>
      <trkpt lat="49.26464" lon="-0.23472">
        <ele>3.8</ele>
        <time>2022-05-31T16:01:34Z</time>
      </trkpt>
      <trkpt lat="49.26464" lon="-0.23469">
        <ele>3.8</ele>
        <time>2022-05-31T16:01:35Z</time>
      </trkpt>
      <trkpt lat="49.26463" lon="-0.23468">
        <ele>3.8</ele>
        <time>2022-05-31T16:01:36Z</time>
      </trkpt>
      <trkpt lat="49.26463" lon="-0.23466">
        <ele>3.8</ele>
        <time>2022-05-31T16:01:37Z</time>
      </trkpt>
      <trkpt lat="49.26463" lon="-0.23464">
        <ele>3.8</ele>
        <time>2022-05-31T16:01:38Z</time>
      </trkpt>
      <trkpt lat="49.26462" lon="-0.23461">
        <ele>3.8</ele>
        <time>2022-05-31T16:01:39Z</time>
      </trkpt>
      <trkpt lat="49.26462" lon="-0.2346">
        <ele>3.8</ele>
        <time>2022-05-31T16:01:40Z</time>
      </trkpt>
      <trkpt lat="49.26462" lon="-0.23458">
        <ele>3.8</ele>
        <time>2022-05-31T16:01:41Z</time>
      </trkpt>
      <trkpt lat="49.26462" lon="-0.23456">
        <ele>3.8</ele>
        <time>2022-05-31T16:01:42Z</time>
      </trkpt>
      <trkpt lat="49.26462" lon="-0.23453">
        <ele>3.8</ele>
        <time>2022-05-31T16:01:44Z</time>
      </trkpt>
      <trkpt lat="49.26462" lon="-0.23451">
        <ele>3.8</ele>
        <time>2022-05-31T16:01:45Z</time>
      </trkpt>
      <trkpt lat="49.26462" lon="-0.23448">
        <ele>3.8</ele>
        <time>2022-05-31T16:01:46Z</time>
      </trkpt>
      <trkpt lat="49.26462" lon="-0.23447">
        <ele>3.8</ele>
        <time>2022-05-31T16:01:47Z</time>
      </trkpt>
      <trkpt lat="49.26462" lon="-0.23445">
        <ele>3.8</ele>
        <time>2022-05-31T16:01:48Z</time>
      </trkpt>
      <trkpt lat="49.26461" lon="-0.23443">
        <ele>3.8</ele>
        <time>2022-05-31T16:01:49Z</time>
      </trkpt>
      <trkpt lat="49.26461" lon="-0.2344">
        <ele>3.8</ele>
        <time>2022-05-31T16:01:50Z</time>
      </trkpt>
      <trkpt lat="49.2646" lon="-0.23437">
        <ele>3.8</ele>
        <time>2022-05-31T16:01:51Z</time>
      </trkpt>
      <trkpt lat="49.2646" lon="-0.23436">
        <ele>3.8</ele>
        <time>2022-05-31T16:01:53Z</time>
      </trkpt>
      <trkpt lat="49.2646" lon="-0.23435">
        <ele>3.8</ele>
        <time>2022-05-31T16:01:54Z</time>
      </trkpt>
      <trkpt lat="49.26459" lon="-0.23432">
        <ele>3.8</ele>
        <time>2022-05-31T16:01:55Z</time>
      </trkpt>
      <trkpt lat="49.26459" lon="-0.2343">
        <ele>3.8</ele>
        <time>2022-05-31T16:01:56Z</time>
      </trkpt>
      <trkpt lat="49.26459" lon="-0.23429">
        <ele>3.8</ele>
        <time>2022-05-31T16:01:57Z</time>
      </trkpt>
      <trkpt lat="49.26459" lon="-0.23427">
        <ele>3.8</ele>
        <time>2022-05-31T16:01:58Z</time>
      </trkpt>
      <trkpt lat="49.26458" lon="-0.23425">
        <ele>3.9</ele>
        <time>2022-05-31T16:01:59Z</time>
      </trkpt>
      <trkpt lat="49.26458" lon="-0.23422">
        <ele>3.9</ele>
        <time>2022-05-31T16:02:01Z</time>
      </trkpt>
      <trkpt lat="49.26458" lon="-0.23421">
        <ele>3.9</ele>
        <time>2022-05-31T16:02:02Z</time>
      </trkpt>
      <trkpt lat="49.26458" lon="-0.23419">
        <ele>3.9</ele>
        <time>2022-05-31T16:02:03Z</time>
      </trkpt>
      <trkpt lat="49.26457" lon="-0.23417">
        <ele>3.9</ele>
        <time>2022-05-31T16:02:04Z</time>
      </trkpt>
      <trkpt lat="49.26457" lon="-0.23415">
        <ele>3.9</ele>
        <time>2022-05-31T16:02:05Z</time>
      </trkpt>
      <trkpt lat="49.26457" lon="-0.23413">
        <ele>3.9</ele>
        <time>2022-05-31T16:02:06Z</time>
      </trkpt>
      <trkpt lat="49.26457" lon="-0.23412">
        <ele>3.9</ele>
        <time>2022-05-31T16:02:07Z</time>
      </trkpt>
      <trkpt lat="49.26457" lon="-0.2341">
        <ele>3.9</ele>
        <time>2022-05-31T16:02:08Z</time>
      </trkpt>
      <trkpt lat="49.26456" lon="-0.23406">
        <ele>3.9</ele>
        <time>2022-05-31T16:02:10Z</time>
      </trkpt>
      <trkpt lat="49.26456" lon="-0.23405">
        <ele>3.9</ele>
        <time>2022-05-31T16:02:11Z</time>
      </trkpt>
      <trkpt lat="49.26456" lon="-0.23404">
        <ele>3.9</ele>
        <time>2022-05-31T16:02:12Z</time>
      </trkpt>
      <trkpt lat="49.26455" lon="-0.23401">
        <ele>3.9</ele>
        <time>2022-05-31T16:02:13Z</time>
      </trkpt>
      <trkpt lat="49.26455" lon="-0.234">
        <ele>3.9</ele>
        <time>2022-05-31T16:02:14Z</time>
      </trkpt>
      <trkpt lat="49.26455" lon="-0.23398">
        <ele>3.9</ele>
        <time>2022-05-31T16:02:15Z</time>
      </trkpt>
      <trkpt lat="49.26455" lon="-0.23397">
        <ele>3.9</ele>
        <time>2022-05-31T16:02:16Z</time>
      </trkpt>
      <trkpt lat="49.26455" lon="-0.23395">
        <ele>4</ele>
        <time>2022-05-31T16:02:18Z</time>
      </trkpt>
      <trkpt lat="49.26454" lon="-0.23393">
        <ele>4</ele>
        <time>2022-05-31T16:02:19Z</time>
      </trkpt>
      <trkpt lat="49.26454" lon="-0.23392">
        <ele>4</ele>
        <time>2022-05-31T16:02:20Z</time>
      </trkpt>
      <trkpt lat="49.26453" lon="-0.23391">
        <ele>4</ele>
        <time>2022-05-31T16:02:21Z</time>
      </trkpt>
      <trkpt lat="49.26453" lon="-0.23389">
        <ele>4</ele>
        <time>2022-05-31T16:02:22Z</time>
      </trkpt>
      <trkpt lat="49.26453" lon="-0.23387">
        <ele>4</ele>
        <time>2022-05-31T16:02:23Z</time>
      </trkpt>
      <trkpt lat="49.26453" lon="-0.23385">
        <ele>4</ele>
        <time>2022-05-31T16:02:24Z</time>
      </trkpt>
      <trkpt lat="49.26453" lon="-0.23384">
        <ele>4</ele>
        <time>2022-05-31T16:02:25Z</time>
      </trkpt>
      <trkpt lat="49.26453" lon="-0.23382">
        <ele>4</ele>
        <time>2022-05-31T16:02:26Z</time>
      </trkpt>
      <trkpt lat="49.26454" lon="-0.2338">
        <ele>4</ele>
        <time>2022-05-31T16:02:28Z</time>
      </trkpt>
      <trkpt lat="49.26454" lon="-0.23379">
        <ele>4</ele>
        <time>2022-05-31T16:02:29Z</time>
      </trkpt>
      <trkpt lat="49.26454" lon="-0.23377">
        <ele>4</ele>
        <time>2022-05-31T16:02:30Z</time>
      </trkpt>
      <trkpt lat="49.26454" lon="-0.23376">
        <ele>4</ele>
        <time>2022-05-31T16:02:31Z</time>
      </trkpt>
      <trkpt lat="49.26454" lon="-0.23374">
        <ele>4</ele>
        <time>2022-05-31T16:02:32Z</time>
      </trkpt>
      <trkpt lat="49.26453" lon="-0.23372">
        <ele>4</ele>
        <time>2022-05-31T16:02:33Z</time>
      </trkpt>
      <trkpt lat="49.26453" lon="-0.2337">
        <ele>4</ele>
        <time>2022-05-31T16:02:34Z</time>
      </trkpt>
      <trkpt lat="49.26453" lon="-0.23369">
        <ele>4</ele>
        <time>2022-05-31T16:02:36Z</time>
      </trkpt>
      <trkpt lat="49.26452" lon="-0.23367">
        <ele>4</ele>
        <time>2022-05-31T16:02:37Z</time>
      </trkpt>
      <trkpt lat="49.26452" lon="-0.23366">
        <ele>4</ele>
        <time>2022-05-31T16:02:38Z</time>
      </trkpt>
      <trkpt lat="49.26452" lon="-0.23364">
        <ele>4</ele>
        <time>2022-05-31T16:02:39Z</time>
      </trkpt>
      <trkpt lat="49.26451" lon="-0.23361">
        <ele>4</ele>
        <time>2022-05-31T16:02:40Z</time>
      </trkpt>
      <trkpt lat="49.26451" lon="-0.2336">
        <ele>4</ele>
        <time>2022-05-31T16:02:41Z</time>
      </trkpt>
      <trkpt lat="49.2645" lon="-0.23358">
        <ele>4</ele>
        <time>2022-05-31T16:02:42Z</time>
      </trkpt>
      <trkpt lat="49.2645" lon="-0.23357">
        <ele>4</ele>
        <time>2022-05-31T16:02:43Z</time>
      </trkpt>
      <trkpt lat="49.26449" lon="-0.23355">
        <ele>4</ele>
        <time>2022-05-31T16:02:44Z</time>
      </trkpt>
      <trkpt lat="49.26449" lon="-0.23354">
        <ele>4</ele>
        <time>2022-05-31T16:02:45Z</time>
      </trkpt>
      <trkpt lat="49.26448" lon="-0.23352">
        <ele>4</ele>
        <time>2022-05-31T16:02:46Z</time>
      </trkpt>
      <trkpt lat="49.26447" lon="-0.23351">
        <ele>4</ele>
        <time>2022-05-31T16:02:48Z</time>
      </trkpt>
      <trkpt lat="49.26447" lon="-0.2335">
        <ele>4</ele>
        <time>2022-05-31T16:02:49Z</time>
      </trkpt>
      <trkpt lat="49.26447" lon="-0.23348">
        <ele>4.1</ele>
        <time>2022-05-31T16:02:50Z</time>
      </trkpt>
      <trkpt lat="49.26447" lon="-0.23346">
        <ele>4.1</ele>
        <time>2022-05-31T16:02:51Z</time>
      </trkpt>
      <trkpt lat="49.26447" lon="-0.23344">
        <ele>4.1</ele>
        <time>2022-05-31T16:02:52Z</time>
      </trkpt>
      <trkpt lat="49.26447" lon="-0.23341">
        <ele>4.1</ele>
        <time>2022-05-31T16:02:53Z</time>
      </trkpt>
      <trkpt lat="49.26447" lon="-0.2334">
        <ele>4.1</ele>
        <time>2022-05-31T16:02:54Z</time>
      </trkpt>
      <trkpt lat="49.26447" lon="-0.23339">
        <ele>4.1</ele>
        <time>2022-05-31T16:02:55Z</time>
      </trkpt>
      <trkpt lat="49.26447" lon="-0.23337">
        <ele>4.1</ele>
        <time>2022-05-31T16:02:56Z</time>
      </trkpt>
      <trkpt lat="49.26446" lon="-0.23335">
        <ele>4.1</ele>
        <time>2022-05-31T16:02:57Z</time>
      </trkpt>
      <trkpt lat="49.26446" lon="-0.23333">
        <ele>4.1</ele>
        <time>2022-05-31T16:02:58Z</time>
      </trkpt>
      <trkpt lat="49.26446" lon="-0.2333">
        <ele>4.1</ele>
        <time>2022-05-31T16:02:59Z</time>
      </trkpt>
      <trkpt lat="49.26446" lon="-0.23328">
        <ele>4.1</ele>
        <time>2022-05-31T16:03:00Z</time>
      </trkpt>
      <trkpt lat="49.26446" lon="-0.23327">
        <ele>4.1</ele>
        <time>2022-05-31T16:03:02Z</time>
      </trkpt>
      <trkpt lat="49.26446" lon="-0.23325">
        <ele>4.1</ele>
        <time>2022-05-31T16:03:03Z</time>
      </trkpt>
      <trkpt lat="49.26446" lon="-0.23324">
        <ele>4.1</ele>
        <time>2022-05-31T16:03:04Z</time>
      </trkpt>
      <trkpt lat="49.26446" lon="-0.23322">
        <ele>4.1</ele>
        <time>2022-05-31T16:03:05Z</time>
      </trkpt>
      <trkpt lat="49.26446" lon="-0.2332">
        <ele>4.1</ele>
        <time>2022-05-31T16:03:06Z</time>
      </trkpt>
      <trkpt lat="49.26446" lon="-0.23318">
        <ele>4.1</ele>
        <time>2022-05-31T16:03:07Z</time>
      </trkpt>
      <trkpt lat="49.26446" lon="-0.23316">
        <ele>4.1</ele>
        <time>2022-05-31T16:03:09Z</time>
      </trkpt>
      <trkpt lat="49.26447" lon="-0.23311">
        <ele>4.1</ele>
        <time>2022-05-31T16:03:10Z</time>
      </trkpt>
      <trkpt lat="49.26447" lon="-0.2331">
        <ele>4.1</ele>
        <time>2022-05-31T16:03:11Z</time>
      </trkpt>
      <trkpt lat="49.26447" lon="-0.23308">
        <ele>4.1</ele>
        <time>2022-05-31T16:03:12Z</time>
      </trkpt>
      <trkpt lat="49.26447" lon="-0.23306">
        <ele>4.2</ele>
        <time>2022-05-31T16:03:13Z</time>
      </trkpt>
      <trkpt lat="49.26447" lon="-0.23303">
        <ele>4.2</ele>
        <time>2022-05-31T16:03:14Z</time>
      </trkpt>
      <trkpt lat="49.26447" lon="-0.23301">
        <ele>4.2</ele>
        <time>2022-05-31T16:03:15Z</time>
      </trkpt>
      <trkpt lat="49.26447" lon="-0.23299">
        <ele>4.2</ele>
        <time>2022-05-31T16:03:17Z</time>
      </trkpt>
      <trkpt lat="49.26447" lon="-0.23297">
        <ele>4.2</ele>
        <time>2022-05-31T16:03:18Z</time>
      </trkpt>
      <trkpt lat="49.26447" lon="-0.23296">
        <ele>4.2</ele>
        <time>2022-05-31T16:03:19Z</time>
      </trkpt>
      <trkpt lat="49.26447" lon="-0.23294">
        <ele>4.2</ele>
        <time>2022-05-31T16:03:20Z</time>
      </trkpt>
      <trkpt lat="49.26447" lon="-0.23291">
        <ele>4.2</ele>
        <time>2022-05-31T16:03:21Z</time>
      </trkpt>
      <trkpt lat="49.26447" lon="-0.23288">
        <ele>4.2</ele>
        <time>2022-05-31T16:03:22Z</time>
      </trkpt>
      <trkpt lat="49.26447" lon="-0.23286">
        <ele>4.2</ele>
        <time>2022-05-31T16:03:24Z</time>
      </trkpt>
      <trkpt lat="49.26448" lon="-0.23285">
        <ele>4.2</ele>
        <time>2022-05-31T16:03:25Z</time>
      </trkpt>
      <trkpt lat="49.26448" lon="-0.23281">
        <ele>4.3</ele>
        <time>2022-05-31T16:03:26Z</time>
      </trkpt>
      <trkpt lat="49.26448" lon="-0.2328">
        <ele>4.3</ele>
        <time>2022-05-31T16:03:27Z</time>
      </trkpt>
      <trkpt lat="49.26448" lon="-0.23279">
        <ele>4.3</ele>
        <time>2022-05-31T16:03:28Z</time>
      </trkpt>
      <trkpt lat="49.26448" lon="-0.23275">
        <ele>4.3</ele>
        <time>2022-05-31T16:03:30Z</time>
      </trkpt>
      <trkpt lat="49.26447" lon="-0.23274">
        <ele>4.3</ele>
        <time>2022-05-31T16:03:31Z</time>
      </trkpt>
      <trkpt lat="49.26447" lon="-0.23273">
        <ele>4.3</ele>
        <time>2022-05-31T16:03:32Z</time>
      </trkpt>
      <trkpt lat="49.26447" lon="-0.23271">
        <ele>4.3</ele>
        <time>2022-05-31T16:03:33Z</time>
      </trkpt>
      <trkpt lat="49.26447" lon="-0.23269">
        <ele>4.3</ele>
        <time>2022-05-31T16:03:34Z</time>
      </trkpt>
      <trkpt lat="49.26448" lon="-0.23265">
        <ele>4.3</ele>
        <time>2022-05-31T16:03:35Z</time>
      </trkpt>
      <trkpt lat="49.26449" lon="-0.23263">
        <ele>4.3</ele>
        <time>2022-05-31T16:03:36Z</time>
      </trkpt>
      <trkpt lat="49.2645" lon="-0.2326">
        <ele>4.4</ele>
        <time>2022-05-31T16:03:37Z</time>
      </trkpt>
      <trkpt lat="49.2645" lon="-0.23259">
        <ele>4.4</ele>
        <time>2022-05-31T16:03:38Z</time>
      </trkpt>
      <trkpt lat="49.2645" lon="-0.23258">
        <ele>4.4</ele>
        <time>2022-05-31T16:03:39Z</time>
      </trkpt>
      <trkpt lat="49.2645" lon="-0.23257">
        <ele>4.4</ele>
        <time>2022-05-31T16:03:40Z</time>
      </trkpt>
      <trkpt lat="49.2645" lon="-0.23256">
        <ele>4.4</ele>
        <time>2022-05-31T16:03:41Z</time>
      </trkpt>
      <trkpt lat="49.26451" lon="-0.23254">
        <ele>4.4</ele>
        <time>2022-05-31T16:03:42Z</time>
      </trkpt>
      <trkpt lat="49.26451" lon="-0.23252">
        <ele>4.4</ele>
        <time>2022-05-31T16:03:44Z</time>
      </trkpt>
      <trkpt lat="49.26451" lon="-0.2325">
        <ele>4.4</ele>
        <time>2022-05-31T16:03:45Z</time>
      </trkpt>
      <trkpt lat="49.26452" lon="-0.23249">
        <ele>4.4</ele>
        <time>2022-05-31T16:03:46Z</time>
      </trkpt>
      <trkpt lat="49.26452" lon="-0.23247">
        <ele>4.4</ele>
        <time>2022-05-31T16:03:47Z</time>
      </trkpt>
      <trkpt lat="49.26453" lon="-0.23245">
        <ele>4.5</ele>
        <time>2022-05-31T16:03:48Z</time>
      </trkpt>
      <trkpt lat="49.26453" lon="-0.23242">
        <ele>4.5</ele>
        <time>2022-05-31T16:03:49Z</time>
      </trkpt>
      <trkpt lat="49.26453" lon="-0.2324">
        <ele>4.5</ele>
        <time>2022-05-31T16:03:50Z</time>
      </trkpt>
      <trkpt lat="49.26453" lon="-0.23238">
        <ele>4.5</ele>
        <time>2022-05-31T16:03:51Z</time>
      </trkpt>
      <trkpt lat="49.26454" lon="-0.23235">
        <ele>4.5</ele>
        <time>2022-05-31T16:03:52Z</time>
      </trkpt>
      <trkpt lat="49.26454" lon="-0.23233">
        <ele>4.5</ele>
        <time>2022-05-31T16:03:53Z</time>
      </trkpt>
      <trkpt lat="49.26454" lon="-0.23232">
        <ele>4.5</ele>
        <time>2022-05-31T16:03:54Z</time>
      </trkpt>
      <trkpt lat="49.26454" lon="-0.2323">
        <ele>4.5</ele>
        <time>2022-05-31T16:03:55Z</time>
      </trkpt>
      <trkpt lat="49.26454" lon="-0.23227">
        <ele>4.5</ele>
        <time>2022-05-31T16:03:57Z</time>
      </trkpt>
      <trkpt lat="49.26454" lon="-0.23226">
        <ele>4.6</ele>
        <time>2022-05-31T16:03:58Z</time>
      </trkpt>
      <trkpt lat="49.26455" lon="-0.23223">
        <ele>4.6</ele>
        <time>2022-05-31T16:03:59Z</time>
      </trkpt>
      <trkpt lat="49.26455" lon="-0.23222">
        <ele>4.6</ele>
        <time>2022-05-31T16:04:00Z</time>
      </trkpt>
      <trkpt lat="49.26455" lon="-0.23221">
        <ele>4.6</ele>
        <time>2022-05-31T16:04:01Z</time>
      </trkpt>
      <trkpt lat="49.26455" lon="-0.23219">
        <ele>4.6</ele>
        <time>2022-05-31T16:04:02Z</time>
      </trkpt>
      <trkpt lat="49.26455" lon="-0.23214">
        <ele>4.6</ele>
        <time>2022-05-31T16:04:04Z</time>
      </trkpt>
      <trkpt lat="49.26455" lon="-0.23213">
        <ele>4.5</ele>
        <time>2022-05-31T16:04:05Z</time>
      </trkpt>
      <trkpt lat="49.26455" lon="-0.23212">
        <ele>4.5</ele>
        <time>2022-05-31T16:04:06Z</time>
      </trkpt>
      <trkpt lat="49.26455" lon="-0.2321">
        <ele>4.5</ele>
        <time>2022-05-31T16:04:07Z</time>
      </trkpt>
      <trkpt lat="49.26455" lon="-0.23207">
        <ele>4.5</ele>
        <time>2022-05-31T16:04:08Z</time>
      </trkpt>
      <trkpt lat="49.26456" lon="-0.23206">
        <ele>4.6</ele>
        <time>2022-05-31T16:04:10Z</time>
      </trkpt>
      <trkpt lat="49.26457" lon="-0.23207">
        <ele>4.6</ele>
        <time>2022-05-31T16:04:11Z</time>
      </trkpt>
      <trkpt lat="49.26458" lon="-0.23207">
        <ele>4.6</ele>
        <time>2022-05-31T16:04:12Z</time>
      </trkpt>
      <trkpt lat="49.26458" lon="-0.23205">
        <ele>4.6</ele>
        <time>2022-05-31T16:04:13Z</time>
      </trkpt>
      <trkpt lat="49.26458" lon="-0.23203">
        <ele>4.6</ele>
        <time>2022-05-31T16:04:14Z</time>
      </trkpt>
      <trkpt lat="49.26458" lon="-0.23202">
        <ele>4.6</ele>
        <time>2022-05-31T16:04:15Z</time>
      </trkpt>
      <trkpt lat="49.26459" lon="-0.232">
        <ele>4.6</ele>
        <time>2022-05-31T16:04:16Z</time>
      </trkpt>
      <trkpt lat="49.26459" lon="-0.23198">
        <ele>4.6</ele>
        <time>2022-05-31T16:04:17Z</time>
      </trkpt>
      <trkpt lat="49.26459" lon="-0.23196">
        <ele>4.6</ele>
        <time>2022-05-31T16:04:18Z</time>
      </trkpt>
      <trkpt lat="49.26459" lon="-0.23194">
        <ele>4.6</ele>
        <time>2022-05-31T16:04:20Z</time>
      </trkpt>
      <trkpt lat="49.26459" lon="-0.23193">
        <ele>4.6</ele>
        <time>2022-05-31T16:04:21Z</time>
      </trkpt>
      <trkpt lat="49.26459" lon="-0.23191">
        <ele>4.6</ele>
        <time>2022-05-31T16:04:22Z</time>
      </trkpt>
      <trkpt lat="49.26459" lon="-0.23189">
        <ele>4.6</ele>
        <time>2022-05-31T16:04:23Z</time>
      </trkpt>
      <trkpt lat="49.26459" lon="-0.23188">
        <ele>4.6</ele>
        <time>2022-05-31T16:04:24Z</time>
      </trkpt>
      <trkpt lat="49.26459" lon="-0.23187">
        <ele>4.6</ele>
        <time>2022-05-31T16:04:25Z</time>
      </trkpt>
      <trkpt lat="49.26459" lon="-0.23185">
        <ele>4.6</ele>
        <time>2022-05-31T16:04:26Z</time>
      </trkpt>
      <trkpt lat="49.26459" lon="-0.23183">
        <ele>4.6</ele>
        <time>2022-05-31T16:04:27Z</time>
      </trkpt>
      <trkpt lat="49.2646" lon="-0.2318">
        <ele>4.6</ele>
        <time>2022-05-31T16:04:28Z</time>
      </trkpt>
      <trkpt lat="49.2646" lon="-0.23179">
        <ele>4.6</ele>
        <time>2022-05-31T16:04:29Z</time>
      </trkpt>
      <trkpt lat="49.2646" lon="-0.23177">
        <ele>4.6</ele>
        <time>2022-05-31T16:04:31Z</time>
      </trkpt>
      <trkpt lat="49.2646" lon="-0.23176">
        <ele>4.6</ele>
        <time>2022-05-31T16:04:32Z</time>
      </trkpt>
      <trkpt lat="49.2646" lon="-0.23174">
        <ele>4.6</ele>
        <time>2022-05-31T16:04:33Z</time>
      </trkpt>
      <trkpt lat="49.26461" lon="-0.23171">
        <ele>4.6</ele>
        <time>2022-05-31T16:04:34Z</time>
      </trkpt>
      <trkpt lat="49.26461" lon="-0.2317">
        <ele>4.6</ele>
        <time>2022-05-31T16:04:35Z</time>
      </trkpt>
      <trkpt lat="49.26461" lon="-0.23169">
        <ele>4.6</ele>
        <time>2022-05-31T16:04:36Z</time>
      </trkpt>
      <trkpt lat="49.26461" lon="-0.23166">
        <ele>4.6</ele>
        <time>2022-05-31T16:04:38Z</time>
      </trkpt>
      <trkpt lat="49.26461" lon="-0.23165">
        <ele>4.6</ele>
        <time>2022-05-31T16:04:39Z</time>
      </trkpt>
      <trkpt lat="49.26461" lon="-0.23163">
        <ele>4.6</ele>
        <time>2022-05-31T16:04:40Z</time>
      </trkpt>
      <trkpt lat="49.26461" lon="-0.23161">
        <ele>4.6</ele>
        <time>2022-05-31T16:04:41Z</time>
      </trkpt>
      <trkpt lat="49.26461" lon="-0.23158">
        <ele>4.6</ele>
        <time>2022-05-31T16:04:42Z</time>
      </trkpt>
      <trkpt lat="49.2646" lon="-0.23157">
        <ele>4.6</ele>
        <time>2022-05-31T16:04:43Z</time>
      </trkpt>
      <trkpt lat="49.2646" lon="-0.23156">
        <ele>4.6</ele>
        <time>2022-05-31T16:04:44Z</time>
      </trkpt>
      <trkpt lat="49.26459" lon="-0.23154">
        <ele>4.6</ele>
        <time>2022-05-31T16:04:45Z</time>
      </trkpt>
      <trkpt lat="49.26459" lon="-0.23152">
        <ele>4.6</ele>
        <time>2022-05-31T16:04:46Z</time>
      </trkpt>
      <trkpt lat="49.26459" lon="-0.23151">
        <ele>4.6</ele>
        <time>2022-05-31T16:04:48Z</time>
      </trkpt>
      <trkpt lat="49.26458" lon="-0.23149">
        <ele>4.6</ele>
        <time>2022-05-31T16:04:49Z</time>
      </trkpt>
      <trkpt lat="49.26458" lon="-0.23148">
        <ele>4.6</ele>
        <time>2022-05-31T16:04:50Z</time>
      </trkpt>
      <trkpt lat="49.26457" lon="-0.23146">
        <ele>4.6</ele>
        <time>2022-05-31T16:04:51Z</time>
      </trkpt>
      <trkpt lat="49.26457" lon="-0.23143">
        <ele>4.6</ele>
        <time>2022-05-31T16:04:52Z</time>
      </trkpt>
      <trkpt lat="49.26457" lon="-0.23142">
        <ele>4.6</ele>
        <time>2022-05-31T16:04:53Z</time>
      </trkpt>
      <trkpt lat="49.26457" lon="-0.2314">
        <ele>4.6</ele>
        <time>2022-05-31T16:04:54Z</time>
      </trkpt>
      <trkpt lat="49.26458" lon="-0.23137">
        <ele>4.6</ele>
        <time>2022-05-31T16:04:56Z</time>
      </trkpt>
      <trkpt lat="49.26458" lon="-0.23135">
        <ele>4.6</ele>
        <time>2022-05-31T16:04:57Z</time>
      </trkpt>
      <trkpt lat="49.26458" lon="-0.23134">
        <ele>4.6</ele>
        <time>2022-05-31T16:04:58Z</time>
      </trkpt>
      <trkpt lat="49.26459" lon="-0.2313">
        <ele>4.6</ele>
        <time>2022-05-31T16:04:59Z</time>
      </trkpt>
      <trkpt lat="49.2646" lon="-0.23129">
        <ele>4.6</ele>
        <time>2022-05-31T16:05:01Z</time>
      </trkpt>
      <trkpt lat="49.2646" lon="-0.23127">
        <ele>4.6</ele>
        <time>2022-05-31T16:05:02Z</time>
      </trkpt>
      <trkpt lat="49.2646" lon="-0.23126">
        <ele>4.6</ele>
        <time>2022-05-31T16:05:03Z</time>
      </trkpt>
      <trkpt lat="49.26461" lon="-0.23125">
        <ele>4.5</ele>
        <time>2022-05-31T16:05:04Z</time>
      </trkpt>
      <trkpt lat="49.26463" lon="-0.23123">
        <ele>4.5</ele>
        <time>2022-05-31T16:05:05Z</time>
      </trkpt>
      <trkpt lat="49.26463" lon="-0.23122">
        <ele>4.5</ele>
        <time>2022-05-31T16:05:06Z</time>
      </trkpt>
      <trkpt lat="49.26464" lon="-0.23122">
        <ele>4.5</ele>
        <time>2022-05-31T16:05:07Z</time>
      </trkpt>
      <trkpt lat="49.26465" lon="-0.23121">
        <ele>4.5</ele>
        <time>2022-05-31T16:05:08Z</time>
      </trkpt>
      <trkpt lat="49.26467" lon="-0.23121">
        <ele>4.5</ele>
        <time>2022-05-31T16:05:10Z</time>
      </trkpt>
      <trkpt lat="49.26468" lon="-0.23121">
        <ele>4.5</ele>
        <time>2022-05-31T16:05:11Z</time>
      </trkpt>
      <trkpt lat="49.26469" lon="-0.2312">
        <ele>4.5</ele>
        <time>2022-05-31T16:05:12Z</time>
      </trkpt>
      <trkpt lat="49.26471" lon="-0.23119">
        <ele>4.5</ele>
        <time>2022-05-31T16:05:13Z</time>
      </trkpt>
      <trkpt lat="49.26472" lon="-0.23118">
        <ele>4.5</ele>
        <time>2022-05-31T16:05:14Z</time>
      </trkpt>
      <trkpt lat="49.26473" lon="-0.23116">
        <ele>4.5</ele>
        <time>2022-05-31T16:05:15Z</time>
      </trkpt>
      <trkpt lat="49.26474" lon="-0.23115">
        <ele>4.5</ele>
        <time>2022-05-31T16:05:16Z</time>
      </trkpt>
      <trkpt lat="49.26477" lon="-0.23113">
        <ele>4.5</ele>
        <time>2022-05-31T16:05:17Z</time>
      </trkpt>
      <trkpt lat="49.26478" lon="-0.23111">
        <ele>4.5</ele>
        <time>2022-05-31T16:05:18Z</time>
      </trkpt>
      <trkpt lat="49.26479" lon="-0.2311">
        <ele>4.5</ele>
        <time>2022-05-31T16:05:19Z</time>
      </trkpt>
      <trkpt lat="49.26479" lon="-0.23109">
        <ele>4.5</ele>
        <time>2022-05-31T16:05:21Z</time>
      </trkpt>
      <trkpt lat="49.2648" lon="-0.2311">
        <ele>4.5</ele>
        <time>2022-05-31T16:05:22Z</time>
      </trkpt>
      <trkpt lat="49.2648" lon="-0.23109">
        <ele>4.5</ele>
        <time>2022-05-31T16:05:23Z</time>
      </trkpt>
      <trkpt lat="49.26481" lon="-0.23108">
        <ele>4.5</ele>
        <time>2022-05-31T16:05:24Z</time>
      </trkpt>
      <trkpt lat="49.26481" lon="-0.23107">
        <ele>4.5</ele>
        <time>2022-05-31T16:05:25Z</time>
      </trkpt>
      <trkpt lat="49.26482" lon="-0.23104">
        <ele>4.5</ele>
        <time>2022-05-31T16:05:26Z</time>
      </trkpt>
      <trkpt lat="49.26482" lon="-0.23102">
        <ele>4.5</ele>
        <time>2022-05-31T16:05:27Z</time>
      </trkpt>
      <trkpt lat="49.26482" lon="-0.23101">
        <ele>4.5</ele>
        <time>2022-05-31T16:05:28Z</time>
      </trkpt>
      <trkpt lat="49.26482" lon="-0.23099">
        <ele>4.5</ele>
        <time>2022-05-31T16:05:30Z</time>
      </trkpt>
      <trkpt lat="49.26482" lon="-0.23097">
        <ele>4.5</ele>
        <time>2022-05-31T16:05:31Z</time>
      </trkpt>
      <trkpt lat="49.26481" lon="-0.23094">
        <ele>4.5</ele>
        <time>2022-05-31T16:05:33Z</time>
      </trkpt>
      <trkpt lat="49.26481" lon="-0.23093">
        <ele>4.3</ele>
        <time>2022-05-31T16:05:34Z</time>
      </trkpt>
      <trkpt lat="49.2648" lon="-0.23092">
        <ele>4.3</ele>
        <time>2022-05-31T16:05:35Z</time>
      </trkpt>
      <trkpt lat="49.2648" lon="-0.23091">
        <ele>4.3</ele>
        <time>2022-05-31T16:05:36Z</time>
      </trkpt>
      <trkpt lat="49.26479" lon="-0.23091">
        <ele>4.3</ele>
        <time>2022-05-31T16:05:37Z</time>
      </trkpt>
      <trkpt lat="49.26479" lon="-0.23091">
        <ele>4.3</ele>
        <time>2022-05-31T16:05:39Z</time>
      </trkpt>
      <trkpt lat="49.26478" lon="-0.23091">
        <ele>4.3</ele>
        <time>2022-05-31T16:05:40Z</time>
      </trkpt>
      <trkpt lat="49.26478" lon="-0.23091">
        <ele>4.2</ele>
        <time>2022-05-31T16:05:41Z</time>
      </trkpt>
      <trkpt lat="49.26478" lon="-0.23091">
        <ele>4.2</ele>
        <time>2022-05-31T16:05:42Z</time>
      </trkpt>
      <trkpt lat="49.26478" lon="-0.23092">
        <ele>4.2</ele>
        <time>2022-05-31T16:05:43Z</time>
      </trkpt>
      <trkpt lat="49.26478" lon="-0.23092">
        <ele>4.2</ele>
        <time>2022-05-31T16:05:44Z</time>
      </trkpt>
      <trkpt lat="49.26479" lon="-0.23093">
        <ele>4.2</ele>
        <time>2022-05-31T16:05:45Z</time>
      </trkpt>
      <trkpt lat="49.26479" lon="-0.23093">
        <ele>4.2</ele>
        <time>2022-05-31T16:05:46Z</time>
      </trkpt>
      <trkpt lat="49.26479" lon="-0.23094">
        <ele>4.2</ele>
        <time>2022-05-31T16:05:47Z</time>
      </trkpt>
      <trkpt lat="49.26479" lon="-0.23094">
        <ele>4.2</ele>
        <time>2022-05-31T16:05:48Z</time>
      </trkpt>
      <trkpt lat="49.2648" lon="-0.23094">
        <ele>4.2</ele>
        <time>2022-05-31T16:05:49Z</time>
      </trkpt>
      <trkpt lat="49.2648" lon="-0.23094">
        <ele>4.2</ele>
        <time>2022-05-31T16:05:50Z</time>
      </trkpt>
      <trkpt lat="49.2648" lon="-0.23094">
        <ele>4.2</ele>
        <time>2022-05-31T16:05:51Z</time>
      </trkpt>
      <trkpt lat="49.2648" lon="-0.23094">
        <ele>4.2</ele>
        <time>2022-05-31T16:05:52Z</time>
      </trkpt>
      <trkpt lat="49.2648" lon="-0.23094">
        <ele>4.2</ele>
        <time>2022-05-31T16:05:53Z</time>
      </trkpt>
      <trkpt lat="49.2648" lon="-0.23095">
        <ele>4.2</ele>
        <time>2022-05-31T16:05:54Z</time>
      </trkpt>
      <trkpt lat="49.26481" lon="-0.23096">
        <ele>4.2</ele>
        <time>2022-05-31T16:05:55Z</time>
      </trkpt>
      <trkpt lat="49.26479" lon="-0.23092">
        <ele>4.2</ele>
        <time>2022-05-31T16:05:57Z</time>
      </trkpt>
      <trkpt lat="49.26479" lon="-0.2309">
        <ele>4.1</ele>
        <time>2022-05-31T16:05:58Z</time>
      </trkpt>
      <trkpt lat="49.26479" lon="-0.23089">
        <ele>4.1</ele>
        <time>2022-05-31T16:05:59Z</time>
      </trkpt>
      <trkpt lat="49.26479" lon="-0.23089">
        <ele>4.1</ele>
        <time>2022-05-31T16:06:00Z</time>
      </trkpt>
      <trkpt lat="49.2648" lon="-0.2309">
        <ele>4.1</ele>
        <time>2022-05-31T16:06:01Z</time>
      </trkpt>
      <trkpt lat="49.2648" lon="-0.23089">
        <ele>4.1</ele>
        <time>2022-05-31T16:06:03Z</time>
      </trkpt>
      <trkpt lat="49.2648" lon="-0.23088">
        <ele>4.1</ele>
        <time>2022-05-31T16:06:04Z</time>
      </trkpt>
      <trkpt lat="49.2648" lon="-0.23088">
        <ele>4.1</ele>
        <time>2022-05-31T16:06:05Z</time>
      </trkpt>
      <trkpt lat="49.26481" lon="-0.23088">
        <ele>4.1</ele>
        <time>2022-05-31T16:06:07Z</time>
      </trkpt>
      <trkpt lat="49.26482" lon="-0.23087">
        <ele>4.1</ele>
        <time>2022-05-31T16:06:08Z</time>
      </trkpt>
      <trkpt lat="49.26483" lon="-0.23087">
        <ele>4.1</ele>
        <time>2022-05-31T16:06:10Z</time>
      </trkpt>
      <trkpt lat="49.26484" lon="-0.23086">
        <ele>4.1</ele>
        <time>2022-05-31T16:06:11Z</time>
      </trkpt>
      <trkpt lat="49.26485" lon="-0.23086">
        <ele>4.1</ele>
        <time>2022-05-31T16:06:12Z</time>
      </trkpt>
      <trkpt lat="49.26486" lon="-0.23086">
        <ele>4.1</ele>
        <time>2022-05-31T16:06:13Z</time>
      </trkpt>
      <trkpt lat="49.26489" lon="-0.23087">
        <ele>4</ele>
        <time>2022-05-31T16:06:15Z</time>
      </trkpt>
      <trkpt lat="49.2649" lon="-0.23088">
        <ele>4</ele>
        <time>2022-05-31T16:06:16Z</time>
      </trkpt>
      <trkpt lat="49.26491" lon="-0.23088">
        <ele>4</ele>
        <time>2022-05-31T16:06:17Z</time>
      </trkpt>
      <trkpt lat="49.26492" lon="-0.23088">
        <ele>4</ele>
        <time>2022-05-31T16:06:18Z</time>
      </trkpt>
      <trkpt lat="49.26493" lon="-0.23087">
        <ele>4</ele>
        <time>2022-05-31T16:06:20Z</time>
      </trkpt>
      <trkpt lat="49.26494" lon="-0.23086">
        <ele>4</ele>
        <time>2022-05-31T16:06:21Z</time>
      </trkpt>
      <trkpt lat="49.26495" lon="-0.23086">
        <ele>4</ele>
        <time>2022-05-31T16:06:22Z</time>
      </trkpt>
      <trkpt lat="49.26496" lon="-0.23086">
        <ele>4</ele>
        <time>2022-05-31T16:06:23Z</time>
      </trkpt>
      <trkpt lat="49.26496" lon="-0.23086">
        <ele>4</ele>
        <time>2022-05-31T16:06:24Z</time>
      </trkpt>
      <trkpt lat="49.26497" lon="-0.23086">
        <ele>4</ele>
        <time>2022-05-31T16:06:25Z</time>
      </trkpt>
      <trkpt lat="49.26499" lon="-0.23086">
        <ele>4</ele>
        <time>2022-05-31T16:06:26Z</time>
      </trkpt>
      <trkpt lat="49.265" lon="-0.23085">
        <ele>4</ele>
        <time>2022-05-31T16:06:27Z</time>
      </trkpt>
      <trkpt lat="49.26501" lon="-0.23086">
        <ele>4</ele>
        <time>2022-05-31T16:06:29Z</time>
      </trkpt>
      <trkpt lat="49.26502" lon="-0.23086">
        <ele>3.9</ele>
        <time>2022-05-31T16:06:30Z</time>
      </trkpt>
      <trkpt lat="49.26503" lon="-0.23085">
        <ele>3.9</ele>
        <time>2022-05-31T16:06:31Z</time>
      </trkpt>
      <trkpt lat="49.26504" lon="-0.23085">
        <ele>3.9</ele>
        <time>2022-05-31T16:06:32Z</time>
      </trkpt>
      <trkpt lat="49.26505" lon="-0.23085">
        <ele>3.9</ele>
        <time>2022-05-31T16:06:33Z</time>
      </trkpt>
      <trkpt lat="49.26506" lon="-0.23085">
        <ele>3.9</ele>
        <time>2022-05-31T16:06:34Z</time>
      </trkpt>
      <trkpt lat="49.26507" lon="-0.23085">
        <ele>3.9</ele>
        <time>2022-05-31T16:06:35Z</time>
      </trkpt>
      <trkpt lat="49.26509" lon="-0.23085">
        <ele>3.9</ele>
        <time>2022-05-31T16:06:36Z</time>
      </trkpt>
      <trkpt lat="49.2651" lon="-0.23085">
        <ele>3.9</ele>
        <time>2022-05-31T16:06:37Z</time>
      </trkpt>
      <trkpt lat="49.26511" lon="-0.23085">
        <ele>3.9</ele>
        <time>2022-05-31T16:06:38Z</time>
      </trkpt>
      <trkpt lat="49.26512" lon="-0.23085">
        <ele>3.9</ele>
        <time>2022-05-31T16:06:39Z</time>
      </trkpt>
      <trkpt lat="49.26513" lon="-0.23085">
        <ele>3.9</ele>
        <time>2022-05-31T16:06:40Z</time>
      </trkpt>
      <trkpt lat="49.26515" lon="-0.23085">
        <ele>3.9</ele>
        <time>2022-05-31T16:06:42Z</time>
      </trkpt>
      <trkpt lat="49.26517" lon="-0.23085">
        <ele>3.9</ele>
        <time>2022-05-31T16:06:43Z</time>
      </trkpt>
      <trkpt lat="49.26518" lon="-0.23085">
        <ele>3.9</ele>
        <time>2022-05-31T16:06:44Z</time>
      </trkpt>
      <trkpt lat="49.2652" lon="-0.23084">
        <ele>3.9</ele>
        <time>2022-05-31T16:06:45Z</time>
      </trkpt>
      <trkpt lat="49.26521" lon="-0.23083">
        <ele>3.9</ele>
        <time>2022-05-31T16:06:46Z</time>
      </trkpt>
      <trkpt lat="49.26523" lon="-0.23083">
        <ele>3.9</ele>
        <time>2022-05-31T16:06:47Z</time>
      </trkpt>
      <trkpt lat="49.26524" lon="-0.23081">
        <ele>3.9</ele>
        <time>2022-05-31T16:06:48Z</time>
      </trkpt>
      <trkpt lat="49.26525" lon="-0.2308">
        <ele>3.9</ele>
        <time>2022-05-31T16:06:49Z</time>
      </trkpt>
      <trkpt lat="49.26527" lon="-0.23079">
        <ele>3.9</ele>
        <time>2022-05-31T16:06:50Z</time>
      </trkpt>
      <trkpt lat="49.26528" lon="-0.23079">
        <ele>3.8</ele>
        <time>2022-05-31T16:06:51Z</time>
      </trkpt>
      <trkpt lat="49.2653" lon="-0.23078">
        <ele>3.8</ele>
        <time>2022-05-31T16:06:52Z</time>
      </trkpt>
      <trkpt lat="49.26532" lon="-0.23077">
        <ele>3.8</ele>
        <time>2022-05-31T16:06:54Z</time>
      </trkpt>
      <trkpt lat="49.26532" lon="-0.23076">
        <ele>3.8</ele>
        <time>2022-05-31T16:06:55Z</time>
      </trkpt>
      <trkpt lat="49.26533" lon="-0.23076">
        <ele>3.8</ele>
        <time>2022-05-31T16:06:56Z</time>
      </trkpt>
      <trkpt lat="49.26536" lon="-0.23074">
        <ele>3.8</ele>
        <time>2022-05-31T16:06:57Z</time>
      </trkpt>
      <trkpt lat="49.26537" lon="-0.23073">
        <ele>3.8</ele>
        <time>2022-05-31T16:06:58Z</time>
      </trkpt>
      <trkpt lat="49.26538" lon="-0.23072">
        <ele>3.8</ele>
        <time>2022-05-31T16:06:59Z</time>
      </trkpt>
      <trkpt lat="49.26539" lon="-0.23071">
        <ele>3.8</ele>
        <time>2022-05-31T16:07:01Z</time>
      </trkpt>
      <trkpt lat="49.2654" lon="-0.2307">
        <ele>3.8</ele>
        <time>2022-05-31T16:07:02Z</time>
      </trkpt>
      <trkpt lat="49.26541" lon="-0.23069">
        <ele>3.8</ele>
        <time>2022-05-31T16:07:03Z</time>
      </trkpt>
      <trkpt lat="49.26542" lon="-0.23068">
        <ele>3.8</ele>
        <time>2022-05-31T16:07:04Z</time>
      </trkpt>
      <trkpt lat="49.26543" lon="-0.23066">
        <ele>3.8</ele>
        <time>2022-05-31T16:07:05Z</time>
      </trkpt>
      <trkpt lat="49.26544" lon="-0.23065">
        <ele>3.8</ele>
        <time>2022-05-31T16:07:06Z</time>
      </trkpt>
      <trkpt lat="49.26546" lon="-0.23063">
        <ele>3.8</ele>
        <time>2022-05-31T16:07:07Z</time>
      </trkpt>
      <trkpt lat="49.26547" lon="-0.23063">
        <ele>3.8</ele>
        <time>2022-05-31T16:07:08Z</time>
      </trkpt>
      <trkpt lat="49.26548" lon="-0.23061">
        <ele>3.8</ele>
        <time>2022-05-31T16:07:09Z</time>
      </trkpt>
      <trkpt lat="49.26549" lon="-0.2306">
        <ele>3.8</ele>
        <time>2022-05-31T16:07:10Z</time>
      </trkpt>
      <trkpt lat="49.2655" lon="-0.23058">
        <ele>3.8</ele>
        <time>2022-05-31T16:07:12Z</time>
      </trkpt>
      <trkpt lat="49.2655" lon="-0.23057">
        <ele>3.8</ele>
        <time>2022-05-31T16:07:13Z</time>
      </trkpt>
      <trkpt lat="49.26551" lon="-0.23056">
        <ele>3.8</ele>
        <time>2022-05-31T16:07:14Z</time>
      </trkpt>
      <trkpt lat="49.26552" lon="-0.23054">
        <ele>3.8</ele>
        <time>2022-05-31T16:07:15Z</time>
      </trkpt>
      <trkpt lat="49.26553" lon="-0.23052">
        <ele>3.8</ele>
        <time>2022-05-31T16:07:16Z</time>
      </trkpt>
      <trkpt lat="49.26555" lon="-0.23048">
        <ele>3.8</ele>
        <time>2022-05-31T16:07:18Z</time>
      </trkpt>
      <trkpt lat="49.26556" lon="-0.23046">
        <ele>3.8</ele>
        <time>2022-05-31T16:07:19Z</time>
      </trkpt>
      <trkpt lat="49.26557" lon="-0.23045">
        <ele>3.8</ele>
        <time>2022-05-31T16:07:20Z</time>
      </trkpt>
      <trkpt lat="49.26558" lon="-0.23044">
        <ele>3.8</ele>
        <time>2022-05-31T16:07:21Z</time>
      </trkpt>
      <trkpt lat="49.26559" lon="-0.23042">
        <ele>3.8</ele>
        <time>2022-05-31T16:07:22Z</time>
      </trkpt>
      <trkpt lat="49.2656" lon="-0.23041">
        <ele>3.8</ele>
        <time>2022-05-31T16:07:23Z</time>
      </trkpt>
      <trkpt lat="49.26562" lon="-0.2304">
        <ele>3.8</ele>
        <time>2022-05-31T16:07:24Z</time>
      </trkpt>
      <trkpt lat="49.26563" lon="-0.23039">
        <ele>3.8</ele>
        <time>2022-05-31T16:07:26Z</time>
      </trkpt>
      <trkpt lat="49.26564" lon="-0.23039">
        <ele>3.8</ele>
        <time>2022-05-31T16:07:27Z</time>
      </trkpt>
      <trkpt lat="49.26565" lon="-0.23038">
        <ele>3.8</ele>
        <time>2022-05-31T16:07:28Z</time>
      </trkpt>
      <trkpt lat="49.26566" lon="-0.23037">
        <ele>3.8</ele>
        <time>2022-05-31T16:07:29Z</time>
      </trkpt>
      <trkpt lat="49.26567" lon="-0.23036">
        <ele>3.8</ele>
        <time>2022-05-31T16:07:30Z</time>
      </trkpt>
      <trkpt lat="49.26569" lon="-0.23034">
        <ele>3.8</ele>
        <time>2022-05-31T16:07:31Z</time>
      </trkpt>
      <trkpt lat="49.2657" lon="-0.23034">
        <ele>3.8</ele>
        <time>2022-05-31T16:07:32Z</time>
      </trkpt>
      <trkpt lat="49.26572" lon="-0.23032">
        <ele>3.8</ele>
        <time>2022-05-31T16:07:33Z</time>
      </trkpt>
      <trkpt lat="49.26573" lon="-0.23032">
        <ele>3.8</ele>
        <time>2022-05-31T16:07:34Z</time>
      </trkpt>
      <trkpt lat="49.26574" lon="-0.23031">
        <ele>3.8</ele>
        <time>2022-05-31T16:07:36Z</time>
      </trkpt>
      <trkpt lat="49.26575" lon="-0.2303">
        <ele>3.8</ele>
        <time>2022-05-31T16:07:37Z</time>
      </trkpt>
      <trkpt lat="49.26576" lon="-0.23029">
        <ele>3.8</ele>
        <time>2022-05-31T16:07:38Z</time>
      </trkpt>
      <trkpt lat="49.26577" lon="-0.23028">
        <ele>3.7</ele>
        <time>2022-05-31T16:07:39Z</time>
      </trkpt>
      <trkpt lat="49.26578" lon="-0.23026">
        <ele>3.7</ele>
        <time>2022-05-31T16:07:40Z</time>
      </trkpt>
      <trkpt lat="49.26579" lon="-0.23025">
        <ele>3.7</ele>
        <time>2022-05-31T16:07:42Z</time>
      </trkpt>
      <trkpt lat="49.26579" lon="-0.23024">
        <ele>3.7</ele>
        <time>2022-05-31T16:07:43Z</time>
      </trkpt>
      <trkpt lat="49.2658" lon="-0.23023">
        <ele>3.7</ele>
        <time>2022-05-31T16:07:44Z</time>
      </trkpt>
      <trkpt lat="49.26581" lon="-0.23022">
        <ele>3.7</ele>
        <time>2022-05-31T16:07:45Z</time>
      </trkpt>
      <trkpt lat="49.26582" lon="-0.2302">
        <ele>3.7</ele>
        <time>2022-05-31T16:07:46Z</time>
      </trkpt>
      <trkpt lat="49.26583" lon="-0.23019">
        <ele>3.7</ele>
        <time>2022-05-31T16:07:47Z</time>
      </trkpt>
      <trkpt lat="49.26583" lon="-0.23018">
        <ele>3.7</ele>
        <time>2022-05-31T16:07:48Z</time>
      </trkpt>
      <trkpt lat="49.26584" lon="-0.23017">
        <ele>3.7</ele>
        <time>2022-05-31T16:07:49Z</time>
      </trkpt>
      <trkpt lat="49.26585" lon="-0.23015">
        <ele>3.7</ele>
        <time>2022-05-31T16:07:50Z</time>
      </trkpt>
      <trkpt lat="49.26586" lon="-0.23014">
        <ele>3.7</ele>
        <time>2022-05-31T16:07:51Z</time>
      </trkpt>
      <trkpt lat="49.26586" lon="-0.23013">
        <ele>3.7</ele>
        <time>2022-05-31T16:07:53Z</time>
      </trkpt>
      <trkpt lat="49.26587" lon="-0.23011">
        <ele>3.7</ele>
        <time>2022-05-31T16:07:54Z</time>
      </trkpt>
      <trkpt lat="49.26589" lon="-0.23009">
        <ele>3.7</ele>
        <time>2022-05-31T16:07:55Z</time>
      </trkpt>
      <trkpt lat="49.2659" lon="-0.23007">
        <ele>3.8</ele>
        <time>2022-05-31T16:07:56Z</time>
      </trkpt>
      <trkpt lat="49.26591" lon="-0.23006">
        <ele>3.8</ele>
        <time>2022-05-31T16:07:57Z</time>
      </trkpt>
      <trkpt lat="49.26591" lon="-0.23005">
        <ele>3.8</ele>
        <time>2022-05-31T16:07:58Z</time>
      </trkpt>
      <trkpt lat="49.26592" lon="-0.23002">
        <ele>3.8</ele>
        <time>2022-05-31T16:07:59Z</time>
      </trkpt>
      <trkpt lat="49.26593" lon="-0.23001">
        <ele>3.8</ele>
        <time>2022-05-31T16:08:00Z</time>
      </trkpt>
      <trkpt lat="49.26594" lon="-0.23">
        <ele>3.8</ele>
        <time>2022-05-31T16:08:02Z</time>
      </trkpt>
      <trkpt lat="49.26595" lon="-0.22999">
        <ele>3.8</ele>
        <time>2022-05-31T16:08:03Z</time>
      </trkpt>
      <trkpt lat="49.26595" lon="-0.22997">
        <ele>3.8</ele>
        <time>2022-05-31T16:08:04Z</time>
      </trkpt>
      <trkpt lat="49.26596" lon="-0.22996">
        <ele>3.8</ele>
        <time>2022-05-31T16:08:05Z</time>
      </trkpt>
      <trkpt lat="49.26597" lon="-0.22995">
        <ele>3.8</ele>
        <time>2022-05-31T16:08:06Z</time>
      </trkpt>
      <trkpt lat="49.26597" lon="-0.22993">
        <ele>3.8</ele>
        <time>2022-05-31T16:08:07Z</time>
      </trkpt>
      <trkpt lat="49.26598" lon="-0.22992">
        <ele>3.8</ele>
        <time>2022-05-31T16:08:09Z</time>
      </trkpt>
      <trkpt lat="49.26598" lon="-0.2299">
        <ele>3.8</ele>
        <time>2022-05-31T16:08:10Z</time>
      </trkpt>
      <trkpt lat="49.26599" lon="-0.22988">
        <ele>3.9</ele>
        <time>2022-05-31T16:08:11Z</time>
      </trkpt>
      <trkpt lat="49.266" lon="-0.22987">
        <ele>3.9</ele>
        <time>2022-05-31T16:08:12Z</time>
      </trkpt>
      <trkpt lat="49.26601" lon="-0.22985">
        <ele>3.9</ele>
        <time>2022-05-31T16:08:13Z</time>
      </trkpt>
      <trkpt lat="49.26601" lon="-0.22984">
        <ele>3.9</ele>
        <time>2022-05-31T16:08:14Z</time>
      </trkpt>
      <trkpt lat="49.26602" lon="-0.22982">
        <ele>3.9</ele>
        <time>2022-05-31T16:08:16Z</time>
      </trkpt>
      <trkpt lat="49.26603" lon="-0.22981">
        <ele>3.9</ele>
        <time>2022-05-31T16:08:17Z</time>
      </trkpt>
      <trkpt lat="49.26603" lon="-0.2298">
        <ele>3.9</ele>
        <time>2022-05-31T16:08:18Z</time>
      </trkpt>
      <trkpt lat="49.26603" lon="-0.22978">
        <ele>3.9</ele>
        <time>2022-05-31T16:08:19Z</time>
      </trkpt>
      <trkpt lat="49.26604" lon="-0.22977">
        <ele>3.9</ele>
        <time>2022-05-31T16:08:20Z</time>
      </trkpt>
      <trkpt lat="49.26604" lon="-0.22976">
        <ele>3.9</ele>
        <time>2022-05-31T16:08:21Z</time>
      </trkpt>
      <trkpt lat="49.26605" lon="-0.22973">
        <ele>3.9</ele>
        <time>2022-05-31T16:08:23Z</time>
      </trkpt>
      <trkpt lat="49.26606" lon="-0.22972">
        <ele>3.9</ele>
        <time>2022-05-31T16:08:24Z</time>
      </trkpt>
      <trkpt lat="49.26607" lon="-0.2297">
        <ele>3.9</ele>
        <time>2022-05-31T16:08:25Z</time>
      </trkpt>
      <trkpt lat="49.26607" lon="-0.22969">
        <ele>3.9</ele>
        <time>2022-05-31T16:08:27Z</time>
      </trkpt>
      <trkpt lat="49.26608" lon="-0.22968">
        <ele>3.9</ele>
        <time>2022-05-31T16:08:28Z</time>
      </trkpt>
      <trkpt lat="49.26608" lon="-0.22966">
        <ele>3.9</ele>
        <time>2022-05-31T16:08:29Z</time>
      </trkpt>
      <trkpt lat="49.26609" lon="-0.22964">
        <ele>3.9</ele>
        <time>2022-05-31T16:08:30Z</time>
      </trkpt>
      <trkpt lat="49.26609" lon="-0.22963">
        <ele>3.9</ele>
        <time>2022-05-31T16:08:31Z</time>
      </trkpt>
      <trkpt lat="49.26609" lon="-0.22961">
        <ele>3.9</ele>
        <time>2022-05-31T16:08:32Z</time>
      </trkpt>
      <trkpt lat="49.2661" lon="-0.22959">
        <ele>3.9</ele>
        <time>2022-05-31T16:08:34Z</time>
      </trkpt>
      <trkpt lat="49.26611" lon="-0.22958">
        <ele>3.9</ele>
        <time>2022-05-31T16:08:35Z</time>
      </trkpt>
      <trkpt lat="49.26611" lon="-0.22957">
        <ele>3.9</ele>
        <time>2022-05-31T16:08:36Z</time>
      </trkpt>
      <trkpt lat="49.26612" lon="-0.22956">
        <ele>3.9</ele>
        <time>2022-05-31T16:08:37Z</time>
      </trkpt>
      <trkpt lat="49.26613" lon="-0.22954">
        <ele>3.9</ele>
        <time>2022-05-31T16:08:38Z</time>
      </trkpt>
      <trkpt lat="49.26614" lon="-0.22953">
        <ele>3.9</ele>
        <time>2022-05-31T16:08:39Z</time>
      </trkpt>
      <trkpt lat="49.26615" lon="-0.22951">
        <ele>3.9</ele>
        <time>2022-05-31T16:08:40Z</time>
      </trkpt>
      <trkpt lat="49.26616" lon="-0.22951">
        <ele>3.9</ele>
        <time>2022-05-31T16:08:41Z</time>
      </trkpt>
      <trkpt lat="49.26617" lon="-0.2295">
        <ele>3.9</ele>
        <time>2022-05-31T16:08:43Z</time>
      </trkpt>
      <trkpt lat="49.26618" lon="-0.22949">
        <ele>3.9</ele>
        <time>2022-05-31T16:08:44Z</time>
      </trkpt>
      <trkpt lat="49.26619" lon="-0.22949">
        <ele>3.9</ele>
        <time>2022-05-31T16:08:46Z</time>
      </trkpt>
      <trkpt lat="49.2662" lon="-0.2295">
        <ele>3.9</ele>
        <time>2022-05-31T16:08:47Z</time>
      </trkpt>
      <trkpt lat="49.26621" lon="-0.2295">
        <ele>3.9</ele>
        <time>2022-05-31T16:08:48Z</time>
      </trkpt>
      <trkpt lat="49.26621" lon="-0.22949">
        <ele>3.9</ele>
        <time>2022-05-31T16:08:49Z</time>
      </trkpt>
      <trkpt lat="49.26622" lon="-0.22947">
        <ele>3.8</ele>
        <time>2022-05-31T16:08:51Z</time>
      </trkpt>
      <trkpt lat="49.26622" lon="-0.22946">
        <ele>3.8</ele>
        <time>2022-05-31T16:08:52Z</time>
      </trkpt>
      <trkpt lat="49.26622" lon="-0.22944">
        <ele>3.8</ele>
        <time>2022-05-31T16:08:53Z</time>
      </trkpt>
      <trkpt lat="49.26623" lon="-0.22943">
        <ele>3.8</ele>
        <time>2022-05-31T16:08:54Z</time>
      </trkpt>
      <trkpt lat="49.26623" lon="-0.22941">
        <ele>3.8</ele>
        <time>2022-05-31T16:08:55Z</time>
      </trkpt>
      <trkpt lat="49.26624" lon="-0.2294">
        <ele>3.8</ele>
        <time>2022-05-31T16:08:56Z</time>
      </trkpt>
      <trkpt lat="49.26624" lon="-0.22939">
        <ele>3.8</ele>
        <time>2022-05-31T16:08:58Z</time>
      </trkpt>
      <trkpt lat="49.26625" lon="-0.22937">
        <ele>3.8</ele>
        <time>2022-05-31T16:08:59Z</time>
      </trkpt>
      <trkpt lat="49.26625" lon="-0.22936">
        <ele>3.8</ele>
        <time>2022-05-31T16:09:00Z</time>
      </trkpt>
      <trkpt lat="49.26626" lon="-0.22935">
        <ele>3.8</ele>
        <time>2022-05-31T16:09:01Z</time>
      </trkpt>
      <trkpt lat="49.26626" lon="-0.22934">
        <ele>3.7</ele>
        <time>2022-05-31T16:09:02Z</time>
      </trkpt>
      <trkpt lat="49.26627" lon="-0.22933">
        <ele>3.7</ele>
        <time>2022-05-31T16:09:03Z</time>
      </trkpt>
      <trkpt lat="49.26628" lon="-0.22932">
        <ele>3.7</ele>
        <time>2022-05-31T16:09:04Z</time>
      </trkpt>
      <trkpt lat="49.26629" lon="-0.22931">
        <ele>3.7</ele>
        <time>2022-05-31T16:09:06Z</time>
      </trkpt>
      <trkpt lat="49.2663" lon="-0.2293">
        <ele>3.7</ele>
        <time>2022-05-31T16:09:07Z</time>
      </trkpt>
      <trkpt lat="49.26631" lon="-0.2293">
        <ele>3.7</ele>
        <time>2022-05-31T16:09:08Z</time>
      </trkpt>
      <trkpt lat="49.26632" lon="-0.22929">
        <ele>3.7</ele>
        <time>2022-05-31T16:09:09Z</time>
      </trkpt>
      <trkpt lat="49.26633" lon="-0.22928">
        <ele>3.7</ele>
        <time>2022-05-31T16:09:10Z</time>
      </trkpt>
      <trkpt lat="49.26635" lon="-0.22927">
        <ele>3.6</ele>
        <time>2022-05-31T16:09:12Z</time>
      </trkpt>
      <trkpt lat="49.26636" lon="-0.22927">
        <ele>3.6</ele>
        <time>2022-05-31T16:09:13Z</time>
      </trkpt>
      <trkpt lat="49.26637" lon="-0.22926">
        <ele>3.6</ele>
        <time>2022-05-31T16:09:14Z</time>
      </trkpt>
      <trkpt lat="49.26638" lon="-0.22927">
        <ele>3.6</ele>
        <time>2022-05-31T16:09:15Z</time>
      </trkpt>
      <trkpt lat="49.2664" lon="-0.22928">
        <ele>3.6</ele>
        <time>2022-05-31T16:09:16Z</time>
      </trkpt>
      <trkpt lat="49.26641" lon="-0.22928">
        <ele>3.6</ele>
        <time>2022-05-31T16:09:17Z</time>
      </trkpt>
      <trkpt lat="49.26643" lon="-0.22929">
        <ele>3.5</ele>
        <time>2022-05-31T16:09:19Z</time>
      </trkpt>
      <trkpt lat="49.26643" lon="-0.22929">
        <ele>3.5</ele>
        <time>2022-05-31T16:09:20Z</time>
      </trkpt>
      <trkpt lat="49.26644" lon="-0.22929">
        <ele>3.5</ele>
        <time>2022-05-31T16:09:21Z</time>
      </trkpt>
      <trkpt lat="49.26645" lon="-0.22926">
        <ele>3.5</ele>
        <time>2022-05-31T16:09:22Z</time>
      </trkpt>
      <trkpt lat="49.26644" lon="-0.22924">
        <ele>3.5</ele>
        <time>2022-05-31T16:09:23Z</time>
      </trkpt>
      <trkpt lat="49.26644" lon="-0.22923">
        <ele>3.5</ele>
        <time>2022-05-31T16:09:24Z</time>
      </trkpt>
      <trkpt lat="49.26644" lon="-0.22919">
        <ele>3.5</ele>
        <time>2022-05-31T16:09:25Z</time>
      </trkpt>
      <trkpt lat="49.26644" lon="-0.22917">
        <ele>3.5</ele>
        <time>2022-05-31T16:09:27Z</time>
      </trkpt>
      <trkpt lat="49.26644" lon="-0.22916">
        <ele>3.4</ele>
        <time>2022-05-31T16:09:28Z</time>
      </trkpt>
      <trkpt lat="49.26644" lon="-0.22914">
        <ele>3.4</ele>
        <time>2022-05-31T16:09:30Z</time>
      </trkpt>
      <trkpt lat="49.26644" lon="-0.22912">
        <ele>3.4</ele>
        <time>2022-05-31T16:09:31Z</time>
      </trkpt>
      <trkpt lat="49.26646" lon="-0.22909">
        <ele>3.4</ele>
        <time>2022-05-31T16:09:32Z</time>
      </trkpt>
      <trkpt lat="49.26647" lon="-0.22909">
        <ele>3.4</ele>
        <time>2022-05-31T16:09:34Z</time>
      </trkpt>
      <trkpt lat="49.26648" lon="-0.22909">
        <ele>3.4</ele>
        <time>2022-05-31T16:09:35Z</time>
      </trkpt>
      <trkpt lat="49.2665" lon="-0.22908">
        <ele>3.3</ele>
        <time>2022-05-31T16:09:38Z</time>
      </trkpt>
      <trkpt lat="49.26651" lon="-0.22908">
        <ele>3.3</ele>
        <time>2022-05-31T16:09:39Z</time>
      </trkpt>
      <trkpt lat="49.26652" lon="-0.22907">
        <ele>3.3</ele>
        <time>2022-05-31T16:09:40Z</time>
      </trkpt>
      <trkpt lat="49.26654" lon="-0.22906">
        <ele>3.3</ele>
        <time>2022-05-31T16:09:42Z</time>
      </trkpt>
      <trkpt lat="49.26655" lon="-0.22905">
        <ele>3.3</ele>
        <time>2022-05-31T16:09:43Z</time>
      </trkpt>
      <trkpt lat="49.26655" lon="-0.22905">
        <ele>3.3</ele>
        <time>2022-05-31T16:09:45Z</time>
      </trkpt>
      <trkpt lat="49.26655" lon="-0.22904">
        <ele>3.3</ele>
        <time>2022-05-31T16:09:46Z</time>
      </trkpt>
      <trkpt lat="49.26655" lon="-0.22903">
        <ele>3.3</ele>
        <time>2022-05-31T16:09:47Z</time>
      </trkpt>
      <trkpt lat="49.26655" lon="-0.22903">
        <ele>3.3</ele>
        <time>2022-05-31T16:09:48Z</time>
      </trkpt>
      <trkpt lat="49.26655" lon="-0.22904">
        <ele>3.3</ele>
        <time>2022-05-31T16:09:49Z</time>
      </trkpt>
      <trkpt lat="49.26655" lon="-0.22904">
        <ele>3.3</ele>
        <time>2022-05-31T16:09:50Z</time>
      </trkpt>
      <trkpt lat="49.26655" lon="-0.22904">
        <ele>3.3</ele>
        <time>2022-05-31T16:09:51Z</time>
      </trkpt>
      <trkpt lat="49.26655" lon="-0.22903">
        <ele>3.3</ele>
        <time>2022-05-31T16:09:52Z</time>
      </trkpt>
      <trkpt lat="49.26656" lon="-0.22903">
        <ele>3.3</ele>
        <time>2022-05-31T16:09:54Z</time>
      </trkpt>
      <trkpt lat="49.26656" lon="-0.22902">
        <ele>3.2</ele>
        <time>2022-05-31T16:09:55Z</time>
      </trkpt>
      <trkpt lat="49.26657" lon="-0.22902">
        <ele>3.2</ele>
        <time>2022-05-31T16:09:56Z</time>
      </trkpt>
      <trkpt lat="49.26658" lon="-0.22902">
        <ele>3.2</ele>
        <time>2022-05-31T16:09:57Z</time>
      </trkpt>
      <trkpt lat="49.26659" lon="-0.22902">
        <ele>3.2</ele>
        <time>2022-05-31T16:09:58Z</time>
      </trkpt>
      <trkpt lat="49.2666" lon="-0.22901">
        <ele>3.2</ele>
        <time>2022-05-31T16:09:59Z</time>
      </trkpt>
      <trkpt lat="49.26661" lon="-0.22901">
        <ele>3.2</ele>
        <time>2022-05-31T16:10:00Z</time>
      </trkpt>
      <trkpt lat="49.26662" lon="-0.22901">
        <ele>3.2</ele>
        <time>2022-05-31T16:10:01Z</time>
      </trkpt>
      <trkpt lat="49.26663" lon="-0.229">
        <ele>3.2</ele>
        <time>2022-05-31T16:10:02Z</time>
      </trkpt>
      <trkpt lat="49.26664" lon="-0.22899">
        <ele>3.2</ele>
        <time>2022-05-31T16:10:03Z</time>
      </trkpt>
      <trkpt lat="49.26665" lon="-0.22899">
        <ele>3.2</ele>
        <time>2022-05-31T16:10:04Z</time>
      </trkpt>
      <trkpt lat="49.26666" lon="-0.22898">
        <ele>3.2</ele>
        <time>2022-05-31T16:10:05Z</time>
      </trkpt>
      <trkpt lat="49.26667" lon="-0.22897">
        <ele>3.2</ele>
        <time>2022-05-31T16:10:06Z</time>
      </trkpt>
      <trkpt lat="49.26668" lon="-0.22895">
        <ele>3.2</ele>
        <time>2022-05-31T16:10:07Z</time>
      </trkpt>
      <trkpt lat="49.26669" lon="-0.22895">
        <ele>3.2</ele>
        <time>2022-05-31T16:10:08Z</time>
      </trkpt>
      <trkpt lat="49.26669" lon="-0.22894">
        <ele>3.2</ele>
        <time>2022-05-31T16:10:09Z</time>
      </trkpt>
      <trkpt lat="49.2667" lon="-0.22893">
        <ele>3.2</ele>
        <time>2022-05-31T16:10:10Z</time>
      </trkpt>
      <trkpt lat="49.26671" lon="-0.22893">
        <ele>3.2</ele>
        <time>2022-05-31T16:10:12Z</time>
      </trkpt>
      <trkpt lat="49.26671" lon="-0.22893">
        <ele>3.2</ele>
        <time>2022-05-31T16:10:13Z</time>
      </trkpt>
      <trkpt lat="49.26672" lon="-0.22892">
        <ele>3.2</ele>
        <time>2022-05-31T16:10:14Z</time>
      </trkpt>
      <trkpt lat="49.26673" lon="-0.22891">
        <ele>3.2</ele>
        <time>2022-05-31T16:10:15Z</time>
      </trkpt>
      <trkpt lat="49.26674" lon="-0.2289">
        <ele>3.1</ele>
        <time>2022-05-31T16:10:16Z</time>
      </trkpt>
      <trkpt lat="49.26676" lon="-0.22895">
        <ele>3.1</ele>
        <time>2022-05-31T16:10:17Z</time>
      </trkpt>
      <trkpt lat="49.26676" lon="-0.22895">
        <ele>3.1</ele>
        <time>2022-05-31T16:10:18Z</time>
      </trkpt>
      <trkpt lat="49.26677" lon="-0.22893">
        <ele>3.1</ele>
        <time>2022-05-31T16:10:20Z</time>
      </trkpt>
      <trkpt lat="49.26678" lon="-0.22892">
        <ele>3.1</ele>
        <time>2022-05-31T16:10:21Z</time>
      </trkpt>
      <trkpt lat="49.26679" lon="-0.2289">
        <ele>3.1</ele>
        <time>2022-05-31T16:10:22Z</time>
      </trkpt>
      <trkpt lat="49.2668" lon="-0.22889">
        <ele>3.1</ele>
        <time>2022-05-31T16:10:23Z</time>
      </trkpt>
      <trkpt lat="49.26681" lon="-0.22888">
        <ele>3.1</ele>
        <time>2022-05-31T16:10:24Z</time>
      </trkpt>
      <trkpt lat="49.26681" lon="-0.22888">
        <ele>3.1</ele>
        <time>2022-05-31T16:10:25Z</time>
      </trkpt>
      <trkpt lat="49.26682" lon="-0.22887">
        <ele>3.1</ele>
        <time>2022-05-31T16:10:26Z</time>
      </trkpt>
      <trkpt lat="49.26682" lon="-0.22886">
        <ele>3.1</ele>
        <time>2022-05-31T16:10:28Z</time>
      </trkpt>
      <trkpt lat="49.26683" lon="-0.22885">
        <ele>3.1</ele>
        <time>2022-05-31T16:10:29Z</time>
      </trkpt>
      <trkpt lat="49.26684" lon="-0.22883">
        <ele>3.1</ele>
        <time>2022-05-31T16:10:30Z</time>
      </trkpt>
      <trkpt lat="49.26685" lon="-0.22881">
        <ele>3.1</ele>
        <time>2022-05-31T16:10:31Z</time>
      </trkpt>
      <trkpt lat="49.26686" lon="-0.22879">
        <ele>3.1</ele>
        <time>2022-05-31T16:10:32Z</time>
      </trkpt>
      <trkpt lat="49.26687" lon="-0.22879">
        <ele>3.1</ele>
        <time>2022-05-31T16:10:33Z</time>
      </trkpt>
      <trkpt lat="49.26688" lon="-0.22879">
        <ele>3.1</ele>
        <time>2022-05-31T16:10:34Z</time>
      </trkpt>
      <trkpt lat="49.26689" lon="-0.22877">
        <ele>3.1</ele>
        <time>2022-05-31T16:10:35Z</time>
      </trkpt>
      <trkpt lat="49.2669" lon="-0.22876">
        <ele>3</ele>
        <time>2022-05-31T16:10:36Z</time>
      </trkpt>
      <trkpt lat="49.26691" lon="-0.22874">
        <ele>3</ele>
        <time>2022-05-31T16:10:38Z</time>
      </trkpt>
      <trkpt lat="49.26692" lon="-0.22873">
        <ele>3</ele>
        <time>2022-05-31T16:10:39Z</time>
      </trkpt>
      <trkpt lat="49.26693" lon="-0.22871">
        <ele>3</ele>
        <time>2022-05-31T16:10:40Z</time>
      </trkpt>
      <trkpt lat="49.26694" lon="-0.2287">
        <ele>3</ele>
        <time>2022-05-31T16:10:41Z</time>
      </trkpt>
      <trkpt lat="49.26695" lon="-0.22869">
        <ele>3</ele>
        <time>2022-05-31T16:10:42Z</time>
      </trkpt>
      <trkpt lat="49.26694" lon="-0.22868">
        <ele>3</ele>
        <time>2022-05-31T16:10:43Z</time>
      </trkpt>
      <trkpt lat="49.26695" lon="-0.22867">
        <ele>3</ele>
        <time>2022-05-31T16:10:44Z</time>
      </trkpt>
      <trkpt lat="49.26695" lon="-0.22866">
        <ele>3</ele>
        <time>2022-05-31T16:10:45Z</time>
      </trkpt>
      <trkpt lat="49.26697" lon="-0.22864">
        <ele>3</ele>
        <time>2022-05-31T16:10:47Z</time>
      </trkpt>
      <trkpt lat="49.26697" lon="-0.22863">
        <ele>3</ele>
        <time>2022-05-31T16:10:48Z</time>
      </trkpt>
      <trkpt lat="49.26698" lon="-0.22861">
        <ele>3</ele>
        <time>2022-05-31T16:10:49Z</time>
      </trkpt>
      <trkpt lat="49.26699" lon="-0.2286">
        <ele>3</ele>
        <time>2022-05-31T16:10:50Z</time>
      </trkpt>
      <trkpt lat="49.26699" lon="-0.22859">
        <ele>3</ele>
        <time>2022-05-31T16:10:51Z</time>
      </trkpt>
      <trkpt lat="49.26699" lon="-0.22858">
        <ele>3</ele>
        <time>2022-05-31T16:10:52Z</time>
      </trkpt>
      <trkpt lat="49.267" lon="-0.22857">
        <ele>2.9</ele>
        <time>2022-05-31T16:10:53Z</time>
      </trkpt>
      <trkpt lat="49.26701" lon="-0.22856">
        <ele>2.9</ele>
        <time>2022-05-31T16:10:55Z</time>
      </trkpt>
      <trkpt lat="49.26702" lon="-0.22854">
        <ele>2.9</ele>
        <time>2022-05-31T16:10:56Z</time>
      </trkpt>
      <trkpt lat="49.26703" lon="-0.22852">
        <ele>2.9</ele>
        <time>2022-05-31T16:10:57Z</time>
      </trkpt>
      <trkpt lat="49.26704" lon="-0.2285">
        <ele>2.9</ele>
        <time>2022-05-31T16:10:58Z</time>
      </trkpt>
      <trkpt lat="49.26705" lon="-0.22847">
        <ele>2.9</ele>
        <time>2022-05-31T16:10:59Z</time>
      </trkpt>
      <trkpt lat="49.26705" lon="-0.22846">
        <ele>2.9</ele>
        <time>2022-05-31T16:11:00Z</time>
      </trkpt>
      <trkpt lat="49.26706" lon="-0.22845">
        <ele>2.9</ele>
        <time>2022-05-31T16:11:01Z</time>
      </trkpt>
      <trkpt lat="49.26707" lon="-0.22842">
        <ele>2.9</ele>
        <time>2022-05-31T16:11:03Z</time>
      </trkpt>
      <trkpt lat="49.26707" lon="-0.22841">
        <ele>2.9</ele>
        <time>2022-05-31T16:11:04Z</time>
      </trkpt>
      <trkpt lat="49.26708" lon="-0.2284">
        <ele>2.9</ele>
        <time>2022-05-31T16:11:05Z</time>
      </trkpt>
      <trkpt lat="49.26709" lon="-0.22838">
        <ele>2.9</ele>
        <time>2022-05-31T16:11:06Z</time>
      </trkpt>
      <trkpt lat="49.26709" lon="-0.22836">
        <ele>2.9</ele>
        <time>2022-05-31T16:11:07Z</time>
      </trkpt>
      <trkpt lat="49.26709" lon="-0.22835">
        <ele>2.9</ele>
        <time>2022-05-31T16:11:08Z</time>
      </trkpt>
      <trkpt lat="49.26709" lon="-0.22835">
        <ele>2.9</ele>
        <time>2022-05-31T16:11:09Z</time>
      </trkpt>
      <trkpt lat="49.2671" lon="-0.22833">
        <ele>2.9</ele>
        <time>2022-05-31T16:11:10Z</time>
      </trkpt>
      <trkpt lat="49.26711" lon="-0.22831">
        <ele>2.9</ele>
        <time>2022-05-31T16:11:12Z</time>
      </trkpt>
      <trkpt lat="49.26711" lon="-0.22829">
        <ele>2.9</ele>
        <time>2022-05-31T16:11:13Z</time>
      </trkpt>
      <trkpt lat="49.26712" lon="-0.22827">
        <ele>2.9</ele>
        <time>2022-05-31T16:11:14Z</time>
      </trkpt>
      <trkpt lat="49.26713" lon="-0.22825">
        <ele>2.9</ele>
        <time>2022-05-31T16:11:15Z</time>
      </trkpt>
      <trkpt lat="49.26714" lon="-0.22823">
        <ele>2.9</ele>
        <time>2022-05-31T16:11:16Z</time>
      </trkpt>
      <trkpt lat="49.26715" lon="-0.22821">
        <ele>2.9</ele>
        <time>2022-05-31T16:11:17Z</time>
      </trkpt>
      <trkpt lat="49.26715" lon="-0.22819">
        <ele>2.9</ele>
        <time>2022-05-31T16:11:18Z</time>
      </trkpt>
      <trkpt lat="49.26716" lon="-0.22817">
        <ele>2.9</ele>
        <time>2022-05-31T16:11:20Z</time>
      </trkpt>
      <trkpt lat="49.26717" lon="-0.22815">
        <ele>2.9</ele>
        <time>2022-05-31T16:11:21Z</time>
      </trkpt>
      <trkpt lat="49.26717" lon="-0.22813">
        <ele>2.9</ele>
        <time>2022-05-31T16:11:22Z</time>
      </trkpt>
      <trkpt lat="49.26718" lon="-0.2281">
        <ele>2.9</ele>
        <time>2022-05-31T16:11:23Z</time>
      </trkpt>
      <trkpt lat="49.26719" lon="-0.22808">
        <ele>2.9</ele>
        <time>2022-05-31T16:11:24Z</time>
      </trkpt>
      <trkpt lat="49.26719" lon="-0.22807">
        <ele>2.9</ele>
        <time>2022-05-31T16:11:25Z</time>
      </trkpt>
      <trkpt lat="49.2672" lon="-0.22805">
        <ele>2.9</ele>
        <time>2022-05-31T16:11:26Z</time>
      </trkpt>
      <trkpt lat="49.26721" lon="-0.22804">
        <ele>2.9</ele>
        <time>2022-05-31T16:11:27Z</time>
      </trkpt>
      <trkpt lat="49.26721" lon="-0.22801">
        <ele>2.9</ele>
        <time>2022-05-31T16:11:29Z</time>
      </trkpt>
      <trkpt lat="49.26722" lon="-0.228">
        <ele>2.9</ele>
        <time>2022-05-31T16:11:30Z</time>
      </trkpt>
      <trkpt lat="49.26723" lon="-0.22798">
        <ele>2.9</ele>
        <time>2022-05-31T16:11:31Z</time>
      </trkpt>
      <trkpt lat="49.26723" lon="-0.22796">
        <ele>2.9</ele>
        <time>2022-05-31T16:11:32Z</time>
      </trkpt>
      <trkpt lat="49.26724" lon="-0.22795">
        <ele>2.9</ele>
        <time>2022-05-31T16:11:33Z</time>
      </trkpt>
      <trkpt lat="49.26725" lon="-0.22792">
        <ele>2.9</ele>
        <time>2022-05-31T16:11:34Z</time>
      </trkpt>
      <trkpt lat="49.26725" lon="-0.22791">
        <ele>2.9</ele>
        <time>2022-05-31T16:11:35Z</time>
      </trkpt>
      <trkpt lat="49.26726" lon="-0.2279">
        <ele>2.9</ele>
        <time>2022-05-31T16:11:36Z</time>
      </trkpt>
      <trkpt lat="49.26726" lon="-0.22788">
        <ele>2.9</ele>
        <time>2022-05-31T16:11:38Z</time>
      </trkpt>
      <trkpt lat="49.26727" lon="-0.22786">
        <ele>2.9</ele>
        <time>2022-05-31T16:11:39Z</time>
      </trkpt>
      <trkpt lat="49.26727" lon="-0.22784">
        <ele>2.9</ele>
        <time>2022-05-31T16:11:40Z</time>
      </trkpt>
      <trkpt lat="49.26728" lon="-0.22782">
        <ele>2.9</ele>
        <time>2022-05-31T16:11:41Z</time>
      </trkpt>
      <trkpt lat="49.26728" lon="-0.22781">
        <ele>2.9</ele>
        <time>2022-05-31T16:11:42Z</time>
      </trkpt>
      <trkpt lat="49.26729" lon="-0.22779">
        <ele>2.9</ele>
        <time>2022-05-31T16:11:43Z</time>
      </trkpt>
      <trkpt lat="49.2673" lon="-0.22776">
        <ele>2.9</ele>
        <time>2022-05-31T16:11:44Z</time>
      </trkpt>
      <trkpt lat="49.2673" lon="-0.22775">
        <ele>3</ele>
        <time>2022-05-31T16:11:46Z</time>
      </trkpt>
      <trkpt lat="49.26731" lon="-0.22774">
        <ele>3</ele>
        <time>2022-05-31T16:11:47Z</time>
      </trkpt>
      <trkpt lat="49.26732" lon="-0.22772">
        <ele>3</ele>
        <time>2022-05-31T16:11:48Z</time>
      </trkpt>
      <trkpt lat="49.26732" lon="-0.22771">
        <ele>3</ele>
        <time>2022-05-31T16:11:49Z</time>
      </trkpt>
      <trkpt lat="49.26733" lon="-0.22769">
        <ele>3</ele>
        <time>2022-05-31T16:11:50Z</time>
      </trkpt>
      <trkpt lat="49.26733" lon="-0.22768">
        <ele>3</ele>
        <time>2022-05-31T16:11:51Z</time>
      </trkpt>
      <trkpt lat="49.26734" lon="-0.22767">
        <ele>3</ele>
        <time>2022-05-31T16:11:52Z</time>
      </trkpt>
      <trkpt lat="49.26735" lon="-0.22765">
        <ele>3</ele>
        <time>2022-05-31T16:11:54Z</time>
      </trkpt>
      <trkpt lat="49.26736" lon="-0.22763">
        <ele>3</ele>
        <time>2022-05-31T16:11:55Z</time>
      </trkpt>
      <trkpt lat="49.26736" lon="-0.22762">
        <ele>3</ele>
        <time>2022-05-31T16:11:56Z</time>
      </trkpt>
      <trkpt lat="49.26737" lon="-0.22761">
        <ele>3</ele>
        <time>2022-05-31T16:11:57Z</time>
      </trkpt>
      <trkpt lat="49.26738" lon="-0.22758">
        <ele>3</ele>
        <time>2022-05-31T16:11:58Z</time>
      </trkpt>
      <trkpt lat="49.26738" lon="-0.22757">
        <ele>3</ele>
        <time>2022-05-31T16:11:59Z</time>
      </trkpt>
      <trkpt lat="49.26739" lon="-0.22756">
        <ele>3</ele>
        <time>2022-05-31T16:12:00Z</time>
      </trkpt>
      <trkpt lat="49.26739" lon="-0.22755">
        <ele>3</ele>
        <time>2022-05-31T16:12:01Z</time>
      </trkpt>
      <trkpt lat="49.26739" lon="-0.22753">
        <ele>3</ele>
        <time>2022-05-31T16:12:03Z</time>
      </trkpt>
      <trkpt lat="49.2674" lon="-0.22752">
        <ele>3</ele>
        <time>2022-05-31T16:12:04Z</time>
      </trkpt>
      <trkpt lat="49.26741" lon="-0.22749">
        <ele>3</ele>
        <time>2022-05-31T16:12:05Z</time>
      </trkpt>
      <trkpt lat="49.26741" lon="-0.22748">
        <ele>3</ele>
        <time>2022-05-31T16:12:06Z</time>
      </trkpt>
      <trkpt lat="49.26741" lon="-0.22747">
        <ele>3</ele>
        <time>2022-05-31T16:12:07Z</time>
      </trkpt>
      <trkpt lat="49.26742" lon="-0.22745">
        <ele>3</ele>
        <time>2022-05-31T16:12:08Z</time>
      </trkpt>
      <trkpt lat="49.26743" lon="-0.22743">
        <ele>3</ele>
        <time>2022-05-31T16:12:10Z</time>
      </trkpt>
      <trkpt lat="49.26743" lon="-0.22742">
        <ele>3</ele>
        <time>2022-05-31T16:12:11Z</time>
      </trkpt>
      <trkpt lat="49.26744" lon="-0.2274">
        <ele>3</ele>
        <time>2022-05-31T16:12:12Z</time>
      </trkpt>
      <trkpt lat="49.26744" lon="-0.22739">
        <ele>3</ele>
        <time>2022-05-31T16:12:13Z</time>
      </trkpt>
      <trkpt lat="49.26745" lon="-0.22737">
        <ele>3</ele>
        <time>2022-05-31T16:12:14Z</time>
      </trkpt>
      <trkpt lat="49.26746" lon="-0.22735">
        <ele>3</ele>
        <time>2022-05-31T16:12:15Z</time>
      </trkpt>
      <trkpt lat="49.26746" lon="-0.22734">
        <ele>3</ele>
        <time>2022-05-31T16:12:16Z</time>
      </trkpt>
      <trkpt lat="49.26747" lon="-0.22733">
        <ele>3</ele>
        <time>2022-05-31T16:12:18Z</time>
      </trkpt>
      <trkpt lat="49.26747" lon="-0.22731">
        <ele>3</ele>
        <time>2022-05-31T16:12:19Z</time>
      </trkpt>
      <trkpt lat="49.26747" lon="-0.22729">
        <ele>3</ele>
        <time>2022-05-31T16:12:20Z</time>
      </trkpt>
      <trkpt lat="49.26748" lon="-0.22728">
        <ele>3</ele>
        <time>2022-05-31T16:12:21Z</time>
      </trkpt>
      <trkpt lat="49.26748" lon="-0.22726">
        <ele>3</ele>
        <time>2022-05-31T16:12:22Z</time>
      </trkpt>
      <trkpt lat="49.26749" lon="-0.22725">
        <ele>3</ele>
        <time>2022-05-31T16:12:23Z</time>
      </trkpt>
      <trkpt lat="49.26749" lon="-0.22723">
        <ele>3</ele>
        <time>2022-05-31T16:12:24Z</time>
      </trkpt>
      <trkpt lat="49.26749" lon="-0.2272">
        <ele>3</ele>
        <time>2022-05-31T16:12:26Z</time>
      </trkpt>
      <trkpt lat="49.2675" lon="-0.22719">
        <ele>3</ele>
        <time>2022-05-31T16:12:27Z</time>
      </trkpt>
      <trkpt lat="49.2675" lon="-0.22717">
        <ele>3</ele>
        <time>2022-05-31T16:12:28Z</time>
      </trkpt>
      <trkpt lat="49.2675" lon="-0.22716">
        <ele>3</ele>
        <time>2022-05-31T16:12:29Z</time>
      </trkpt>
      <trkpt lat="49.26751" lon="-0.22713">
        <ele>3</ele>
        <time>2022-05-31T16:12:30Z</time>
      </trkpt>
      <trkpt lat="49.26751" lon="-0.22712">
        <ele>3</ele>
        <time>2022-05-31T16:12:31Z</time>
      </trkpt>
      <trkpt lat="49.26751" lon="-0.22711">
        <ele>3</ele>
        <time>2022-05-31T16:12:32Z</time>
      </trkpt>
      <trkpt lat="49.26751" lon="-0.22709">
        <ele>3</ele>
        <time>2022-05-31T16:12:33Z</time>
      </trkpt>
      <trkpt lat="49.26751" lon="-0.22707">
        <ele>3</ele>
        <time>2022-05-31T16:12:35Z</time>
      </trkpt>
      <trkpt lat="49.26751" lon="-0.22706">
        <ele>3</ele>
        <time>2022-05-31T16:12:36Z</time>
      </trkpt>
      <trkpt lat="49.26752" lon="-0.22704">
        <ele>3</ele>
        <time>2022-05-31T16:12:37Z</time>
      </trkpt>
      <trkpt lat="49.26752" lon="-0.22702">
        <ele>3</ele>
        <time>2022-05-31T16:12:38Z</time>
      </trkpt>
      <trkpt lat="49.26752" lon="-0.227">
        <ele>3</ele>
        <time>2022-05-31T16:12:39Z</time>
      </trkpt>
      <trkpt lat="49.26753" lon="-0.22698">
        <ele>3</ele>
        <time>2022-05-31T16:12:40Z</time>
      </trkpt>
      <trkpt lat="49.26753" lon="-0.22699">
        <ele>3</ele>
        <time>2022-05-31T16:12:41Z</time>
      </trkpt>
      <trkpt lat="49.26754" lon="-0.22699">
        <ele>3</ele>
        <time>2022-05-31T16:12:43Z</time>
      </trkpt>
      <trkpt lat="49.26754" lon="-0.227">
        <ele>3</ele>
        <time>2022-05-31T16:12:44Z</time>
      </trkpt>
      <trkpt lat="49.26754" lon="-0.22699">
        <ele>3</ele>
        <time>2022-05-31T16:12:45Z</time>
      </trkpt>
      <trkpt lat="49.26755" lon="-0.22698">
        <ele>3</ele>
        <time>2022-05-31T16:12:46Z</time>
      </trkpt>
      <trkpt lat="49.26756" lon="-0.22697">
        <ele>3</ele>
        <time>2022-05-31T16:12:47Z</time>
      </trkpt>
      <trkpt lat="49.26756" lon="-0.22695">
        <ele>3</ele>
        <time>2022-05-31T16:12:48Z</time>
      </trkpt>
      <trkpt lat="49.26757" lon="-0.22694">
        <ele>3</ele>
        <time>2022-05-31T16:12:49Z</time>
      </trkpt>
      <trkpt lat="49.26758" lon="-0.22693">
        <ele>3</ele>
        <time>2022-05-31T16:12:51Z</time>
      </trkpt>
      <trkpt lat="49.26758" lon="-0.22691">
        <ele>3</ele>
        <time>2022-05-31T16:12:52Z</time>
      </trkpt>
      <trkpt lat="49.26757" lon="-0.22688">
        <ele>3</ele>
        <time>2022-05-31T16:12:53Z</time>
      </trkpt>
      <trkpt lat="49.26757" lon="-0.22686">
        <ele>3</ele>
        <time>2022-05-31T16:12:54Z</time>
      </trkpt>
      <trkpt lat="49.26757" lon="-0.22684">
        <ele>3</ele>
        <time>2022-05-31T16:12:55Z</time>
      </trkpt>
      <trkpt lat="49.26757" lon="-0.22682">
        <ele>3</ele>
        <time>2022-05-31T16:12:56Z</time>
      </trkpt>
      <trkpt lat="49.26757" lon="-0.2268">
        <ele>3</ele>
        <time>2022-05-31T16:12:57Z</time>
      </trkpt>
      <trkpt lat="49.26756" lon="-0.22678">
        <ele>3</ele>
        <time>2022-05-31T16:12:59Z</time>
      </trkpt>
      <trkpt lat="49.26756" lon="-0.22676">
        <ele>3</ele>
        <time>2022-05-31T16:13:00Z</time>
      </trkpt>
      <trkpt lat="49.26756" lon="-0.22674">
        <ele>3</ele>
        <time>2022-05-31T16:13:01Z</time>
      </trkpt>
      <trkpt lat="49.26756" lon="-0.22671">
        <ele>3</ele>
        <time>2022-05-31T16:13:02Z</time>
      </trkpt>
      <trkpt lat="49.26756" lon="-0.2267">
        <ele>3</ele>
        <time>2022-05-31T16:13:03Z</time>
      </trkpt>
      <trkpt lat="49.26756" lon="-0.22669">
        <ele>3</ele>
        <time>2022-05-31T16:13:04Z</time>
      </trkpt>
      <trkpt lat="49.26755" lon="-0.22668">
        <ele>3</ele>
        <time>2022-05-31T16:13:05Z</time>
      </trkpt>
      <trkpt lat="49.26756" lon="-0.22667">
        <ele>3</ele>
        <time>2022-05-31T16:13:07Z</time>
      </trkpt>
      <trkpt lat="49.26756" lon="-0.22665">
        <ele>3</ele>
        <time>2022-05-31T16:13:08Z</time>
      </trkpt>
      <trkpt lat="49.26756" lon="-0.22664">
        <ele>3</ele>
        <time>2022-05-31T16:13:09Z</time>
      </trkpt>
      <trkpt lat="49.26756" lon="-0.22662">
        <ele>3</ele>
        <time>2022-05-31T16:13:10Z</time>
      </trkpt>
      <trkpt lat="49.26757" lon="-0.2266">
        <ele>3</ele>
        <time>2022-05-31T16:13:11Z</time>
      </trkpt>
      <trkpt lat="49.26757" lon="-0.2266">
        <ele>3</ele>
        <time>2022-05-31T16:13:12Z</time>
      </trkpt>
      <trkpt lat="49.26758" lon="-0.22656">
        <ele>3</ele>
        <time>2022-05-31T16:13:14Z</time>
      </trkpt>
      <trkpt lat="49.26758" lon="-0.22655">
        <ele>3</ele>
        <time>2022-05-31T16:13:15Z</time>
      </trkpt>
      <trkpt lat="49.26759" lon="-0.22654">
        <ele>3</ele>
        <time>2022-05-31T16:13:16Z</time>
      </trkpt>
      <trkpt lat="49.26759" lon="-0.22651">
        <ele>3</ele>
        <time>2022-05-31T16:13:17Z</time>
      </trkpt>
      <trkpt lat="49.26759" lon="-0.22649">
        <ele>3</ele>
        <time>2022-05-31T16:13:18Z</time>
      </trkpt>
      <trkpt lat="49.2676" lon="-0.22645">
        <ele>3</ele>
        <time>2022-05-31T16:13:19Z</time>
      </trkpt>
      <trkpt lat="49.26761" lon="-0.22643">
        <ele>3</ele>
        <time>2022-05-31T16:13:20Z</time>
      </trkpt>
      <trkpt lat="49.26761" lon="-0.22641">
        <ele>3</ele>
        <time>2022-05-31T16:13:21Z</time>
      </trkpt>
      <trkpt lat="49.26762" lon="-0.22638">
        <ele>3</ele>
        <time>2022-05-31T16:13:23Z</time>
      </trkpt>
      <trkpt lat="49.26762" lon="-0.22636">
        <ele>3</ele>
        <time>2022-05-31T16:13:24Z</time>
      </trkpt>
      <trkpt lat="49.26763" lon="-0.22634">
        <ele>3</ele>
        <time>2022-05-31T16:13:25Z</time>
      </trkpt>
      <trkpt lat="49.26763" lon="-0.22632">
        <ele>3</ele>
        <time>2022-05-31T16:13:26Z</time>
      </trkpt>
      <trkpt lat="49.26763" lon="-0.2263">
        <ele>3</ele>
        <time>2022-05-31T16:13:27Z</time>
      </trkpt>
      <trkpt lat="49.26763" lon="-0.22628">
        <ele>3</ele>
        <time>2022-05-31T16:13:28Z</time>
      </trkpt>
      <trkpt lat="49.26764" lon="-0.22626">
        <ele>3</ele>
        <time>2022-05-31T16:13:29Z</time>
      </trkpt>
      <trkpt lat="49.26764" lon="-0.22624">
        <ele>3</ele>
        <time>2022-05-31T16:13:30Z</time>
      </trkpt>
      <trkpt lat="49.26764" lon="-0.22621">
        <ele>3</ele>
        <time>2022-05-31T16:13:32Z</time>
      </trkpt>
      <trkpt lat="49.26764" lon="-0.2262">
        <ele>3</ele>
        <time>2022-05-31T16:13:33Z</time>
      </trkpt>
      <trkpt lat="49.26763" lon="-0.22616">
        <ele>3</ele>
        <time>2022-05-31T16:13:34Z</time>
      </trkpt>
      <trkpt lat="49.26763" lon="-0.22615">
        <ele>3</ele>
        <time>2022-05-31T16:13:35Z</time>
      </trkpt>
      <trkpt lat="49.26762" lon="-0.22613">
        <ele>3</ele>
        <time>2022-05-31T16:13:36Z</time>
      </trkpt>
      <trkpt lat="49.26763" lon="-0.22611">
        <ele>3</ele>
        <time>2022-05-31T16:13:37Z</time>
      </trkpt>
      <trkpt lat="49.26763" lon="-0.22609">
        <ele>3</ele>
        <time>2022-05-31T16:13:38Z</time>
      </trkpt>
      <trkpt lat="49.26764" lon="-0.22608">
        <ele>3</ele>
        <time>2022-05-31T16:13:40Z</time>
      </trkpt>
      <trkpt lat="49.26764" lon="-0.22606">
        <ele>3</ele>
        <time>2022-05-31T16:13:41Z</time>
      </trkpt>
      <trkpt lat="49.26765" lon="-0.22604">
        <ele>3</ele>
        <time>2022-05-31T16:13:43Z</time>
      </trkpt>
      <trkpt lat="49.26765" lon="-0.22603">
        <ele>3</ele>
        <time>2022-05-31T16:13:44Z</time>
      </trkpt>
      <trkpt lat="49.26766" lon="-0.22601">
        <ele>3</ele>
        <time>2022-05-31T16:13:45Z</time>
      </trkpt>
      <trkpt lat="49.26766" lon="-0.226">
        <ele>3</ele>
        <time>2022-05-31T16:13:46Z</time>
      </trkpt>
      <trkpt lat="49.26767" lon="-0.22598">
        <ele>3</ele>
        <time>2022-05-31T16:13:47Z</time>
      </trkpt>
      <trkpt lat="49.26767" lon="-0.22597">
        <ele>3</ele>
        <time>2022-05-31T16:13:48Z</time>
      </trkpt>
      <trkpt lat="49.26768" lon="-0.22595">
        <ele>3</ele>
        <time>2022-05-31T16:13:49Z</time>
      </trkpt>
      <trkpt lat="49.26769" lon="-0.22594">
        <ele>3</ele>
        <time>2022-05-31T16:13:51Z</time>
      </trkpt>
      <trkpt lat="49.2677" lon="-0.22592">
        <ele>3</ele>
        <time>2022-05-31T16:13:52Z</time>
      </trkpt>
      <trkpt lat="49.2677" lon="-0.22591">
        <ele>3</ele>
        <time>2022-05-31T16:13:53Z</time>
      </trkpt>
      <trkpt lat="49.26771" lon="-0.22589">
        <ele>3</ele>
        <time>2022-05-31T16:13:54Z</time>
      </trkpt>
      <trkpt lat="49.26771" lon="-0.22588">
        <ele>3</ele>
        <time>2022-05-31T16:13:55Z</time>
      </trkpt>
      <trkpt lat="49.26772" lon="-0.22584">
        <ele>3</ele>
        <time>2022-05-31T16:13:56Z</time>
      </trkpt>
      <trkpt lat="49.26772" lon="-0.22583">
        <ele>3</ele>
        <time>2022-05-31T16:13:57Z</time>
      </trkpt>
      <trkpt lat="49.26772" lon="-0.22582">
        <ele>3</ele>
        <time>2022-05-31T16:13:58Z</time>
      </trkpt>
      <trkpt lat="49.26773" lon="-0.22581">
        <ele>3</ele>
        <time>2022-05-31T16:14:00Z</time>
      </trkpt>
      <trkpt lat="49.26773" lon="-0.22579">
        <ele>3</ele>
        <time>2022-05-31T16:14:01Z</time>
      </trkpt>
      <trkpt lat="49.26773" lon="-0.22578">
        <ele>3</ele>
        <time>2022-05-31T16:14:02Z</time>
      </trkpt>
      <trkpt lat="49.26774" lon="-0.22576">
        <ele>3</ele>
        <time>2022-05-31T16:14:03Z</time>
      </trkpt>
      <trkpt lat="49.26775" lon="-0.22573">
        <ele>3</ele>
        <time>2022-05-31T16:14:04Z</time>
      </trkpt>
      <trkpt lat="49.26775" lon="-0.22572">
        <ele>3</ele>
        <time>2022-05-31T16:14:05Z</time>
      </trkpt>
      <trkpt lat="49.26775" lon="-0.2257">
        <ele>3</ele>
        <time>2022-05-31T16:14:06Z</time>
      </trkpt>
      <trkpt lat="49.26776" lon="-0.22569">
        <ele>3</ele>
        <time>2022-05-31T16:14:07Z</time>
      </trkpt>
      <trkpt lat="49.26776" lon="-0.22567">
        <ele>3</ele>
        <time>2022-05-31T16:14:09Z</time>
      </trkpt>
      <trkpt lat="49.26776" lon="-0.22565">
        <ele>3</ele>
        <time>2022-05-31T16:14:10Z</time>
      </trkpt>
      <trkpt lat="49.26776" lon="-0.22564">
        <ele>3</ele>
        <time>2022-05-31T16:14:11Z</time>
      </trkpt>
      <trkpt lat="49.26777" lon="-0.22561">
        <ele>3</ele>
        <time>2022-05-31T16:14:12Z</time>
      </trkpt>
      <trkpt lat="49.26777" lon="-0.2256">
        <ele>3</ele>
        <time>2022-05-31T16:14:13Z</time>
      </trkpt>
      <trkpt lat="49.26778" lon="-0.22558">
        <ele>3</ele>
        <time>2022-05-31T16:14:14Z</time>
      </trkpt>
      <trkpt lat="49.26778" lon="-0.22557">
        <ele>3</ele>
        <time>2022-05-31T16:14:15Z</time>
      </trkpt>
      <trkpt lat="49.26778" lon="-0.22555">
        <ele>3</ele>
        <time>2022-05-31T16:14:17Z</time>
      </trkpt>
      <trkpt lat="49.26779" lon="-0.22554">
        <ele>3.1</ele>
        <time>2022-05-31T16:14:18Z</time>
      </trkpt>
      <trkpt lat="49.26779" lon="-0.22551">
        <ele>3.1</ele>
        <time>2022-05-31T16:14:19Z</time>
      </trkpt>
      <trkpt lat="49.2678" lon="-0.2255">
        <ele>3.1</ele>
        <time>2022-05-31T16:14:20Z</time>
      </trkpt>
      <trkpt lat="49.2678" lon="-0.22549">
        <ele>3.1</ele>
        <time>2022-05-31T16:14:21Z</time>
      </trkpt>
      <trkpt lat="49.2678" lon="-0.22547">
        <ele>3.1</ele>
        <time>2022-05-31T16:14:22Z</time>
      </trkpt>
      <trkpt lat="49.26781" lon="-0.22545">
        <ele>3.1</ele>
        <time>2022-05-31T16:14:23Z</time>
      </trkpt>
      <trkpt lat="49.26781" lon="-0.22543">
        <ele>3.1</ele>
        <time>2022-05-31T16:14:25Z</time>
      </trkpt>
      <trkpt lat="49.26782" lon="-0.22541">
        <ele>3.1</ele>
        <time>2022-05-31T16:14:26Z</time>
      </trkpt>
      <trkpt lat="49.26782" lon="-0.2254">
        <ele>3.1</ele>
        <time>2022-05-31T16:14:27Z</time>
      </trkpt>
      <trkpt lat="49.26782" lon="-0.22538">
        <ele>3.1</ele>
        <time>2022-05-31T16:14:28Z</time>
      </trkpt>
      <trkpt lat="49.26783" lon="-0.22537">
        <ele>3.1</ele>
        <time>2022-05-31T16:14:29Z</time>
      </trkpt>
      <trkpt lat="49.26783" lon="-0.22536">
        <ele>3.1</ele>
        <time>2022-05-31T16:14:30Z</time>
      </trkpt>
      <trkpt lat="49.26784" lon="-0.22534">
        <ele>3.1</ele>
        <time>2022-05-31T16:14:32Z</time>
      </trkpt>
      <trkpt lat="49.26784" lon="-0.22533">
        <ele>3.1</ele>
        <time>2022-05-31T16:14:33Z</time>
      </trkpt>
      <trkpt lat="49.26785" lon="-0.22532">
        <ele>3.1</ele>
        <time>2022-05-31T16:14:34Z</time>
      </trkpt>
      <trkpt lat="49.26785" lon="-0.2253">
        <ele>3.1</ele>
        <time>2022-05-31T16:14:35Z</time>
      </trkpt>
      <trkpt lat="49.26786" lon="-0.22529">
        <ele>3.1</ele>
        <time>2022-05-31T16:14:36Z</time>
      </trkpt>
      <trkpt lat="49.26787" lon="-0.22526">
        <ele>3.1</ele>
        <time>2022-05-31T16:14:37Z</time>
      </trkpt>
      <trkpt lat="49.26787" lon="-0.22524">
        <ele>3.1</ele>
        <time>2022-05-31T16:14:38Z</time>
      </trkpt>
      <trkpt lat="49.26787" lon="-0.22523">
        <ele>3.1</ele>
        <time>2022-05-31T16:14:39Z</time>
      </trkpt>
      <trkpt lat="49.26788" lon="-0.22521">
        <ele>3.1</ele>
        <time>2022-05-31T16:14:41Z</time>
      </trkpt>
      <trkpt lat="49.26788" lon="-0.2252">
        <ele>3.1</ele>
        <time>2022-05-31T16:14:42Z</time>
      </trkpt>
      <trkpt lat="49.26789" lon="-0.22519">
        <ele>3.1</ele>
        <time>2022-05-31T16:14:43Z</time>
      </trkpt>
      <trkpt lat="49.26789" lon="-0.22518">
        <ele>3.1</ele>
        <time>2022-05-31T16:14:44Z</time>
      </trkpt>
      <trkpt lat="49.2679" lon="-0.22515">
        <ele>3.1</ele>
        <time>2022-05-31T16:14:45Z</time>
      </trkpt>
      <trkpt lat="49.2679" lon="-0.22514">
        <ele>3.1</ele>
        <time>2022-05-31T16:14:46Z</time>
      </trkpt>
      <trkpt lat="49.2679" lon="-0.22512">
        <ele>3.1</ele>
        <time>2022-05-31T16:14:47Z</time>
      </trkpt>
      <trkpt lat="49.26791" lon="-0.22511">
        <ele>3.1</ele>
        <time>2022-05-31T16:14:49Z</time>
      </trkpt>
      <trkpt lat="49.26792" lon="-0.22508">
        <ele>3.1</ele>
        <time>2022-05-31T16:14:50Z</time>
      </trkpt>
      <trkpt lat="49.26792" lon="-0.22508">
        <ele>3.1</ele>
        <time>2022-05-31T16:14:51Z</time>
      </trkpt>
      <trkpt lat="49.26792" lon="-0.22506">
        <ele>3.1</ele>
        <time>2022-05-31T16:14:52Z</time>
      </trkpt>
      <trkpt lat="49.26793" lon="-0.22505">
        <ele>3.1</ele>
        <time>2022-05-31T16:14:53Z</time>
      </trkpt>
      <trkpt lat="49.26794" lon="-0.22502">
        <ele>3.1</ele>
        <time>2022-05-31T16:14:54Z</time>
      </trkpt>
      <trkpt lat="49.26794" lon="-0.22501">
        <ele>3.1</ele>
        <time>2022-05-31T16:14:55Z</time>
      </trkpt>
      <trkpt lat="49.26795" lon="-0.225">
        <ele>3.1</ele>
        <time>2022-05-31T16:14:57Z</time>
      </trkpt>
      <trkpt lat="49.26795" lon="-0.22498">
        <ele>3.1</ele>
        <time>2022-05-31T16:14:58Z</time>
      </trkpt>
      <trkpt lat="49.26795" lon="-0.22497">
        <ele>3.1</ele>
        <time>2022-05-31T16:14:59Z</time>
      </trkpt>
      <trkpt lat="49.26796" lon="-0.22495">
        <ele>3.1</ele>
        <time>2022-05-31T16:15:00Z</time>
      </trkpt>
      <trkpt lat="49.26796" lon="-0.22492">
        <ele>3.1</ele>
        <time>2022-05-31T16:15:01Z</time>
      </trkpt>
      <trkpt lat="49.26797" lon="-0.22491">
        <ele>3.1</ele>
        <time>2022-05-31T16:15:02Z</time>
      </trkpt>
      <trkpt lat="49.26797" lon="-0.2249">
        <ele>3.1</ele>
        <time>2022-05-31T16:15:03Z</time>
      </trkpt>
      <trkpt lat="49.26797" lon="-0.22487">
        <ele>3.1</ele>
        <time>2022-05-31T16:15:05Z</time>
      </trkpt>
      <trkpt lat="49.26797" lon="-0.22486">
        <ele>3.1</ele>
        <time>2022-05-31T16:15:06Z</time>
      </trkpt>
      <trkpt lat="49.26797" lon="-0.22485">
        <ele>3.1</ele>
        <time>2022-05-31T16:15:07Z</time>
      </trkpt>
      <trkpt lat="49.26798" lon="-0.22482">
        <ele>3.1</ele>
        <time>2022-05-31T16:15:08Z</time>
      </trkpt>
      <trkpt lat="49.26798" lon="-0.2248">
        <ele>3.2</ele>
        <time>2022-05-31T16:15:10Z</time>
      </trkpt>
      <trkpt lat="49.26799" lon="-0.22478">
        <ele>3.2</ele>
        <time>2022-05-31T16:15:11Z</time>
      </trkpt>
      <trkpt lat="49.26799" lon="-0.22477">
        <ele>3.2</ele>
        <time>2022-05-31T16:15:12Z</time>
      </trkpt>
      <trkpt lat="49.268" lon="-0.22475">
        <ele>3.2</ele>
        <time>2022-05-31T16:15:13Z</time>
      </trkpt>
      <trkpt lat="49.26801" lon="-0.22474">
        <ele>3.2</ele>
        <time>2022-05-31T16:15:15Z</time>
      </trkpt>
      <trkpt lat="49.26802" lon="-0.22473">
        <ele>3.2</ele>
        <time>2022-05-31T16:15:16Z</time>
      </trkpt>
      <trkpt lat="49.26802" lon="-0.22471">
        <ele>3.2</ele>
        <time>2022-05-31T16:15:17Z</time>
      </trkpt>
      <trkpt lat="49.26802" lon="-0.2247">
        <ele>3.2</ele>
        <time>2022-05-31T16:15:18Z</time>
      </trkpt>
      <trkpt lat="49.26803" lon="-0.22467">
        <ele>3.2</ele>
        <time>2022-05-31T16:15:20Z</time>
      </trkpt>
      <trkpt lat="49.26803" lon="-0.22466">
        <ele>3.2</ele>
        <time>2022-05-31T16:15:21Z</time>
      </trkpt>
      <trkpt lat="49.26803" lon="-0.22464">
        <ele>3.2</ele>
        <time>2022-05-31T16:15:22Z</time>
      </trkpt>
      <trkpt lat="49.26803" lon="-0.22462">
        <ele>3.2</ele>
        <time>2022-05-31T16:15:23Z</time>
      </trkpt>
      <trkpt lat="49.26804" lon="-0.22459">
        <ele>3.2</ele>
        <time>2022-05-31T16:15:25Z</time>
      </trkpt>
      <trkpt lat="49.26804" lon="-0.22458">
        <ele>3.2</ele>
        <time>2022-05-31T16:15:26Z</time>
      </trkpt>
      <trkpt lat="49.26804" lon="-0.22457">
        <ele>3.2</ele>
        <time>2022-05-31T16:15:27Z</time>
      </trkpt>
      <trkpt lat="49.26805" lon="-0.22454">
        <ele>3.2</ele>
        <time>2022-05-31T16:15:28Z</time>
      </trkpt>
      <trkpt lat="49.26805" lon="-0.22453">
        <ele>3.2</ele>
        <time>2022-05-31T16:15:29Z</time>
      </trkpt>
      <trkpt lat="49.26806" lon="-0.22451">
        <ele>3.2</ele>
        <time>2022-05-31T16:15:30Z</time>
      </trkpt>
      <trkpt lat="49.26806" lon="-0.22449">
        <ele>3.2</ele>
        <time>2022-05-31T16:15:31Z</time>
      </trkpt>
      <trkpt lat="49.26807" lon="-0.22447">
        <ele>3.2</ele>
        <time>2022-05-31T16:15:32Z</time>
      </trkpt>
      <trkpt lat="49.26807" lon="-0.22446">
        <ele>3.2</ele>
        <time>2022-05-31T16:15:34Z</time>
      </trkpt>
      <trkpt lat="49.26807" lon="-0.22444">
        <ele>3.2</ele>
        <time>2022-05-31T16:15:35Z</time>
      </trkpt>
      <trkpt lat="49.26808" lon="-0.22443">
        <ele>3.2</ele>
        <time>2022-05-31T16:15:36Z</time>
      </trkpt>
      <trkpt lat="49.26808" lon="-0.22441">
        <ele>3.2</ele>
        <time>2022-05-31T16:15:37Z</time>
      </trkpt>
      <trkpt lat="49.26808" lon="-0.2244">
        <ele>3.2</ele>
        <time>2022-05-31T16:15:38Z</time>
      </trkpt>
      <trkpt lat="49.26809" lon="-0.22438">
        <ele>3.2</ele>
        <time>2022-05-31T16:15:39Z</time>
      </trkpt>
      <trkpt lat="49.26809" lon="-0.22437">
        <ele>3.2</ele>
        <time>2022-05-31T16:15:40Z</time>
      </trkpt>
      <trkpt lat="49.26809" lon="-0.22435">
        <ele>3.2</ele>
        <time>2022-05-31T16:15:42Z</time>
      </trkpt>
      <trkpt lat="49.26809" lon="-0.22433">
        <ele>3.2</ele>
        <time>2022-05-31T16:15:43Z</time>
      </trkpt>
      <trkpt lat="49.26809" lon="-0.22431">
        <ele>3.2</ele>
        <time>2022-05-31T16:15:44Z</time>
      </trkpt>
      <trkpt lat="49.2681" lon="-0.22428">
        <ele>3.2</ele>
        <time>2022-05-31T16:15:45Z</time>
      </trkpt>
      <trkpt lat="49.2681" lon="-0.22427">
        <ele>3.2</ele>
        <time>2022-05-31T16:15:46Z</time>
      </trkpt>
      <trkpt lat="49.2681" lon="-0.22425">
        <ele>3.2</ele>
        <time>2022-05-31T16:15:47Z</time>
      </trkpt>
      <trkpt lat="49.2681" lon="-0.22424">
        <ele>3.2</ele>
        <time>2022-05-31T16:15:48Z</time>
      </trkpt>
      <trkpt lat="49.26809" lon="-0.22422">
        <ele>3.2</ele>
        <time>2022-05-31T16:15:49Z</time>
      </trkpt>
      <trkpt lat="49.26809" lon="-0.2242">
        <ele>3.2</ele>
        <time>2022-05-31T16:15:51Z</time>
      </trkpt>
      <trkpt lat="49.26809" lon="-0.22418">
        <ele>3.2</ele>
        <time>2022-05-31T16:15:52Z</time>
      </trkpt>
      <trkpt lat="49.26809" lon="-0.22416">
        <ele>3.2</ele>
        <time>2022-05-31T16:15:53Z</time>
      </trkpt>
      <trkpt lat="49.26809" lon="-0.22414">
        <ele>3.2</ele>
        <time>2022-05-31T16:15:54Z</time>
      </trkpt>
      <trkpt lat="49.26809" lon="-0.22411">
        <ele>3.2</ele>
        <time>2022-05-31T16:15:55Z</time>
      </trkpt>
      <trkpt lat="49.26809" lon="-0.2241">
        <ele>3.2</ele>
        <time>2022-05-31T16:15:56Z</time>
      </trkpt>
      <trkpt lat="49.2681" lon="-0.22409">
        <ele>3.2</ele>
        <time>2022-05-31T16:15:57Z</time>
      </trkpt>
      <trkpt lat="49.2681" lon="-0.22407">
        <ele>3.2</ele>
        <time>2022-05-31T16:15:58Z</time>
      </trkpt>
      <trkpt lat="49.2681" lon="-0.22405">
        <ele>3.2</ele>
        <time>2022-05-31T16:16:00Z</time>
      </trkpt>
      <trkpt lat="49.2681" lon="-0.22403">
        <ele>3.2</ele>
        <time>2022-05-31T16:16:01Z</time>
      </trkpt>
      <trkpt lat="49.26811" lon="-0.22401">
        <ele>3.2</ele>
        <time>2022-05-31T16:16:02Z</time>
      </trkpt>
      <trkpt lat="49.26811" lon="-0.22399">
        <ele>3.3</ele>
        <time>2022-05-31T16:16:03Z</time>
      </trkpt>
      <trkpt lat="49.26811" lon="-0.22397">
        <ele>3.3</ele>
        <time>2022-05-31T16:16:04Z</time>
      </trkpt>
      <trkpt lat="49.26811" lon="-0.22395">
        <ele>3.3</ele>
        <time>2022-05-31T16:16:05Z</time>
      </trkpt>
      <trkpt lat="49.26811" lon="-0.22394">
        <ele>3.3</ele>
        <time>2022-05-31T16:16:06Z</time>
      </trkpt>
      <trkpt lat="49.26812" lon="-0.22392">
        <ele>3.3</ele>
        <time>2022-05-31T16:16:08Z</time>
      </trkpt>
      <trkpt lat="49.26812" lon="-0.2239">
        <ele>3.3</ele>
        <time>2022-05-31T16:16:09Z</time>
      </trkpt>
      <trkpt lat="49.26812" lon="-0.22388">
        <ele>3.3</ele>
        <time>2022-05-31T16:16:10Z</time>
      </trkpt>
      <trkpt lat="49.26813" lon="-0.22387">
        <ele>3.3</ele>
        <time>2022-05-31T16:16:11Z</time>
      </trkpt>
      <trkpt lat="49.26813" lon="-0.22385">
        <ele>3.3</ele>
        <time>2022-05-31T16:16:12Z</time>
      </trkpt>
      <trkpt lat="49.26814" lon="-0.22382">
        <ele>3.3</ele>
        <time>2022-05-31T16:16:13Z</time>
      </trkpt>
      <trkpt lat="49.26814" lon="-0.22381">
        <ele>3.3</ele>
        <time>2022-05-31T16:16:15Z</time>
      </trkpt>
      <trkpt lat="49.26814" lon="-0.22379">
        <ele>3.3</ele>
        <time>2022-05-31T16:16:16Z</time>
      </trkpt>
      <trkpt lat="49.26814" lon="-0.22378">
        <ele>3.3</ele>
        <time>2022-05-31T16:16:17Z</time>
      </trkpt>
      <trkpt lat="49.26815" lon="-0.22376">
        <ele>3.3</ele>
        <time>2022-05-31T16:16:18Z</time>
      </trkpt>
      <trkpt lat="49.26815" lon="-0.22375">
        <ele>3.3</ele>
        <time>2022-05-31T16:16:19Z</time>
      </trkpt>
      <trkpt lat="49.26815" lon="-0.22372">
        <ele>3.3</ele>
        <time>2022-05-31T16:16:21Z</time>
      </trkpt>
      <trkpt lat="49.26816" lon="-0.22371">
        <ele>3.3</ele>
        <time>2022-05-31T16:16:22Z</time>
      </trkpt>
      <trkpt lat="49.26816" lon="-0.22367">
        <ele>3.3</ele>
        <time>2022-05-31T16:16:23Z</time>
      </trkpt>
      <trkpt lat="49.26816" lon="-0.22366">
        <ele>3.3</ele>
        <time>2022-05-31T16:16:24Z</time>
      </trkpt>
      <trkpt lat="49.26816" lon="-0.22365">
        <ele>3.3</ele>
        <time>2022-05-31T16:16:25Z</time>
      </trkpt>
      <trkpt lat="49.26816" lon="-0.22363">
        <ele>3.3</ele>
        <time>2022-05-31T16:16:27Z</time>
      </trkpt>
      <trkpt lat="49.26816" lon="-0.22362">
        <ele>3.3</ele>
        <time>2022-05-31T16:16:28Z</time>
      </trkpt>
      <trkpt lat="49.26816" lon="-0.2236">
        <ele>3.3</ele>
        <time>2022-05-31T16:16:29Z</time>
      </trkpt>
      <trkpt lat="49.26816" lon="-0.22357">
        <ele>3.3</ele>
        <time>2022-05-31T16:16:30Z</time>
      </trkpt>
      <trkpt lat="49.26816" lon="-0.22356">
        <ele>3.3</ele>
        <time>2022-05-31T16:16:31Z</time>
      </trkpt>
      <trkpt lat="49.26816" lon="-0.22355">
        <ele>3.3</ele>
        <time>2022-05-31T16:16:32Z</time>
      </trkpt>
      <trkpt lat="49.26817" lon="-0.22352">
        <ele>3.3</ele>
        <time>2022-05-31T16:16:34Z</time>
      </trkpt>
      <trkpt lat="49.26817" lon="-0.2235">
        <ele>3.2</ele>
        <time>2022-05-31T16:16:35Z</time>
      </trkpt>
      <trkpt lat="49.26817" lon="-0.22349">
        <ele>3.2</ele>
        <time>2022-05-31T16:16:36Z</time>
      </trkpt>
      <trkpt lat="49.26817" lon="-0.22348">
        <ele>3.2</ele>
        <time>2022-05-31T16:16:37Z</time>
      </trkpt>
      <trkpt lat="49.26817" lon="-0.22346">
        <ele>3.2</ele>
        <time>2022-05-31T16:16:38Z</time>
      </trkpt>
      <trkpt lat="49.26818" lon="-0.22344">
        <ele>3.2</ele>
        <time>2022-05-31T16:16:39Z</time>
      </trkpt>
      <trkpt lat="49.26818" lon="-0.22341">
        <ele>3.2</ele>
        <time>2022-05-31T16:16:41Z</time>
      </trkpt>
      <trkpt lat="49.26818" lon="-0.2234">
        <ele>3.2</ele>
        <time>2022-05-31T16:16:42Z</time>
      </trkpt>
      <trkpt lat="49.26818" lon="-0.22338">
        <ele>3.2</ele>
        <time>2022-05-31T16:16:43Z</time>
      </trkpt>
      <trkpt lat="49.26818" lon="-0.22337">
        <ele>3.2</ele>
        <time>2022-05-31T16:16:44Z</time>
      </trkpt>
      <trkpt lat="49.26818" lon="-0.22334">
        <ele>3.2</ele>
        <time>2022-05-31T16:16:46Z</time>
      </trkpt>
      <trkpt lat="49.26818" lon="-0.22332">
        <ele>3.2</ele>
        <time>2022-05-31T16:16:47Z</time>
      </trkpt>
      <trkpt lat="49.26819" lon="-0.2233">
        <ele>3.2</ele>
        <time>2022-05-31T16:16:48Z</time>
      </trkpt>
      <trkpt lat="49.26819" lon="-0.22329">
        <ele>3.2</ele>
        <time>2022-05-31T16:16:50Z</time>
      </trkpt>
      <trkpt lat="49.2682" lon="-0.22326">
        <ele>3.2</ele>
        <time>2022-05-31T16:16:51Z</time>
      </trkpt>
      <trkpt lat="49.2682" lon="-0.22326">
        <ele>3.2</ele>
        <time>2022-05-31T16:16:52Z</time>
      </trkpt>
      <trkpt lat="49.26821" lon="-0.22324">
        <ele>3.2</ele>
        <time>2022-05-31T16:16:53Z</time>
      </trkpt>
      <trkpt lat="49.26821" lon="-0.22322">
        <ele>3.2</ele>
        <time>2022-05-31T16:16:54Z</time>
      </trkpt>
      <trkpt lat="49.26822" lon="-0.2232">
        <ele>3.2</ele>
        <time>2022-05-31T16:16:56Z</time>
      </trkpt>
      <trkpt lat="49.26822" lon="-0.2232">
        <ele>3.2</ele>
        <time>2022-05-31T16:16:57Z</time>
      </trkpt>
      <trkpt lat="49.26822" lon="-0.22319">
        <ele>3.2</ele>
        <time>2022-05-31T16:16:58Z</time>
      </trkpt>
      <trkpt lat="49.26822" lon="-0.22318">
        <ele>3.2</ele>
        <time>2022-05-31T16:16:59Z</time>
      </trkpt>
      <trkpt lat="49.26822" lon="-0.22316">
        <ele>3.2</ele>
        <time>2022-05-31T16:17:00Z</time>
      </trkpt>
      <trkpt lat="49.26822" lon="-0.22315">
        <ele>3.2</ele>
        <time>2022-05-31T16:17:01Z</time>
      </trkpt>
      <trkpt lat="49.26822" lon="-0.22314">
        <ele>3.2</ele>
        <time>2022-05-31T16:17:03Z</time>
      </trkpt>
      <trkpt lat="49.26823" lon="-0.22314">
        <ele>3.2</ele>
        <time>2022-05-31T16:17:04Z</time>
      </trkpt>
      <trkpt lat="49.26823" lon="-0.22315">
        <ele>3.2</ele>
        <time>2022-05-31T16:17:05Z</time>
      </trkpt>
      <trkpt lat="49.26824" lon="-0.22316">
        <ele>3.2</ele>
        <time>2022-05-31T16:17:07Z</time>
      </trkpt>
      <trkpt lat="49.26824" lon="-0.22316">
        <ele>3.2</ele>
        <time>2022-05-31T16:17:08Z</time>
      </trkpt>
      <trkpt lat="49.26824" lon="-0.22316">
        <ele>3.2</ele>
        <time>2022-05-31T16:17:09Z</time>
      </trkpt>
      <trkpt lat="49.26824" lon="-0.22316">
        <ele>3.2</ele>
        <time>2022-05-31T16:17:10Z</time>
      </trkpt>
      <trkpt lat="49.26824" lon="-0.22316">
        <ele>3.2</ele>
        <time>2022-05-31T16:17:11Z</time>
      </trkpt>
      <trkpt lat="49.26824" lon="-0.22316">
        <ele>3.2</ele>
        <time>2022-05-31T16:17:12Z</time>
      </trkpt>
      <trkpt lat="49.26824" lon="-0.22316">
        <ele>3.2</ele>
        <time>2022-05-31T16:17:13Z</time>
      </trkpt>
      <trkpt lat="49.26824" lon="-0.22316">
        <ele>3.2</ele>
        <time>2022-05-31T16:17:14Z</time>
      </trkpt>
      <trkpt lat="49.26824" lon="-0.22315">
        <ele>3.2</ele>
        <time>2022-05-31T16:17:15Z</time>
      </trkpt>
      <trkpt lat="49.26824" lon="-0.22315">
        <ele>3.2</ele>
        <time>2022-05-31T16:17:17Z</time>
      </trkpt>
      <trkpt lat="49.26824" lon="-0.22315">
        <ele>3.2</ele>
        <time>2022-05-31T16:17:18Z</time>
      </trkpt>
      <trkpt lat="49.26824" lon="-0.22315">
        <ele>3.2</ele>
        <time>2022-05-31T16:17:19Z</time>
      </trkpt>
      <trkpt lat="49.26823" lon="-0.22315">
        <ele>3.2</ele>
        <time>2022-05-31T16:17:20Z</time>
      </trkpt>
      <trkpt lat="49.26823" lon="-0.22315">
        <ele>3.2</ele>
        <time>2022-05-31T16:17:21Z</time>
      </trkpt>
      <trkpt lat="49.26823" lon="-0.22315">
        <ele>3.2</ele>
        <time>2022-05-31T16:17:22Z</time>
      </trkpt>
      <trkpt lat="49.26823" lon="-0.22315">
        <ele>3.2</ele>
        <time>2022-05-31T16:17:23Z</time>
      </trkpt>
      <trkpt lat="49.26823" lon="-0.22315">
        <ele>3.2</ele>
        <time>2022-05-31T16:17:24Z</time>
      </trkpt>
      <trkpt lat="49.26823" lon="-0.22315">
        <ele>3.2</ele>
        <time>2022-05-31T16:17:25Z</time>
      </trkpt>
      <trkpt lat="49.26823" lon="-0.22315">
        <ele>3.2</ele>
        <time>2022-05-31T16:17:26Z</time>
      </trkpt>
      <trkpt lat="49.26823" lon="-0.22315">
        <ele>3.2</ele>
        <time>2022-05-31T16:17:27Z</time>
      </trkpt>
      <trkpt lat="49.26823" lon="-0.22315">
        <ele>3.2</ele>
        <time>2022-05-31T16:17:28Z</time>
      </trkpt>
      <trkpt lat="49.26823" lon="-0.22315">
        <ele>3.2</ele>
        <time>2022-05-31T16:17:29Z</time>
      </trkpt>
      <trkpt lat="49.26823" lon="-0.22315">
        <ele>3.2</ele>
        <time>2022-05-31T16:17:30Z</time>
      </trkpt>
      <trkpt lat="49.26823" lon="-0.22315">
        <ele>3.2</ele>
        <time>2022-05-31T16:17:31Z</time>
      </trkpt>
      <trkpt lat="49.26823" lon="-0.22315">
        <ele>3.2</ele>
        <time>2022-05-31T16:17:32Z</time>
      </trkpt>
      <trkpt lat="49.26823" lon="-0.22315">
        <ele>3.2</ele>
        <time>2022-05-31T16:17:33Z</time>
      </trkpt>
      <trkpt lat="49.26823" lon="-0.22315">
        <ele>3.2</ele>
        <time>2022-05-31T16:17:34Z</time>
      </trkpt>
      <trkpt lat="49.26823" lon="-0.22315">
        <ele>3.2</ele>
        <time>2022-05-31T16:17:35Z</time>
      </trkpt>
      <trkpt lat="49.26823" lon="-0.22315">
        <ele>3.2</ele>
        <time>2022-05-31T16:17:36Z</time>
      </trkpt>
      <trkpt lat="49.26823" lon="-0.22315">
        <ele>3.2</ele>
        <time>2022-05-31T16:17:37Z</time>
      </trkpt>
      <trkpt lat="49.26823" lon="-0.22315">
        <ele>3.2</ele>
        <time>2022-05-31T16:17:38Z</time>
      </trkpt>
      <trkpt lat="49.26823" lon="-0.22315">
        <ele>3.2</ele>
        <time>2022-05-31T16:17:39Z</time>
      </trkpt>
      <trkpt lat="49.26822" lon="-0.22318">
        <ele>3.2</ele>
        <time>2022-05-31T16:17:40Z</time>
      </trkpt>
      <trkpt lat="49.26821" lon="-0.2232">
        <ele>3.2</ele>
        <time>2022-05-31T16:17:41Z</time>
      </trkpt>
      <trkpt lat="49.26821" lon="-0.2232">
        <ele>3.2</ele>
        <time>2022-05-31T16:17:42Z</time>
      </trkpt>
      <trkpt lat="49.26821" lon="-0.2232">
        <ele>3.2</ele>
        <time>2022-05-31T16:17:43Z</time>
      </trkpt>
      <trkpt lat="49.26822" lon="-0.22317">
        <ele>3.2</ele>
        <time>2022-05-31T16:17:44Z</time>
      </trkpt>
      <trkpt lat="49.26822" lon="-0.22317">
        <ele>3.2</ele>
        <time>2022-05-31T16:17:46Z</time>
      </trkpt>
      <trkpt lat="49.26822" lon="-0.22316">
        <ele>3.2</ele>
        <time>2022-05-31T16:17:47Z</time>
      </trkpt>
      <trkpt lat="49.26823" lon="-0.22316">
        <ele>3.2</ele>
        <time>2022-05-31T16:17:49Z</time>
      </trkpt>
      <trkpt lat="49.26823" lon="-0.22316">
        <ele>3.2</ele>
        <time>2022-05-31T16:17:50Z</time>
      </trkpt>
      <trkpt lat="49.26823" lon="-0.22317">
        <ele>3.2</ele>
        <time>2022-05-31T16:17:51Z</time>
      </trkpt>
      <trkpt lat="49.26823" lon="-0.22318">
        <ele>3.2</ele>
        <time>2022-05-31T16:17:52Z</time>
      </trkpt>
      <trkpt lat="49.26822" lon="-0.22318">
        <ele>3.2</ele>
        <time>2022-05-31T16:17:53Z</time>
      </trkpt>
      <trkpt lat="49.26822" lon="-0.22318">
        <ele>3.2</ele>
        <time>2022-05-31T16:17:54Z</time>
      </trkpt>
      <trkpt lat="49.26822" lon="-0.22318">
        <ele>3.2</ele>
        <time>2022-05-31T16:17:55Z</time>
      </trkpt>
      <trkpt lat="49.26822" lon="-0.22317">
        <ele>3.2</ele>
        <time>2022-05-31T16:17:56Z</time>
      </trkpt>
      <trkpt lat="49.26822" lon="-0.22317">
        <ele>3.2</ele>
        <time>2022-05-31T16:17:57Z</time>
      </trkpt>
      <trkpt lat="49.26822" lon="-0.22317">
        <ele>3.2</ele>
        <time>2022-05-31T16:17:58Z</time>
      </trkpt>
      <trkpt lat="49.26822" lon="-0.22317">
        <ele>3.2</ele>
        <time>2022-05-31T16:17:59Z</time>
      </trkpt>
      <trkpt lat="49.26822" lon="-0.22317">
        <ele>3.2</ele>
        <time>2022-05-31T16:18:00Z</time>
      </trkpt>
      <trkpt lat="49.26822" lon="-0.22317">
        <ele>3.2</ele>
        <time>2022-05-31T16:18:01Z</time>
      </trkpt>
      <trkpt lat="49.26822" lon="-0.22317">
        <ele>3.2</ele>
        <time>2022-05-31T16:18:02Z</time>
      </trkpt>
      <trkpt lat="49.26822" lon="-0.22317">
        <ele>3.2</ele>
        <time>2022-05-31T16:18:03Z</time>
      </trkpt>
      <trkpt lat="49.26822" lon="-0.22317">
        <ele>3.2</ele>
        <time>2022-05-31T16:18:04Z</time>
      </trkpt>
      <trkpt lat="49.26821" lon="-0.22317">
        <ele>3.2</ele>
        <time>2022-05-31T16:18:05Z</time>
      </trkpt>
      <trkpt lat="49.26821" lon="-0.22317">
        <ele>3.2</ele>
        <time>2022-05-31T16:18:06Z</time>
      </trkpt>
      <trkpt lat="49.26821" lon="-0.22317">
        <ele>3.2</ele>
        <time>2022-05-31T16:18:07Z</time>
      </trkpt>
      <trkpt lat="49.26821" lon="-0.22316">
        <ele>3.2</ele>
        <time>2022-05-31T16:18:08Z</time>
      </trkpt>
      <trkpt lat="49.26822" lon="-0.22316">
        <ele>3.2</ele>
        <time>2022-05-31T16:18:09Z</time>
      </trkpt>
      <trkpt lat="49.26822" lon="-0.22316">
        <ele>3.2</ele>
        <time>2022-05-31T16:18:10Z</time>
      </trkpt>
      <trkpt lat="49.26822" lon="-0.22316">
        <ele>3.2</ele>
        <time>2022-05-31T16:18:11Z</time>
      </trkpt>
      <trkpt lat="49.26822" lon="-0.22315">
        <ele>3.2</ele>
        <time>2022-05-31T16:18:12Z</time>
      </trkpt>
      <trkpt lat="49.26822" lon="-0.22315">
        <ele>3.2</ele>
        <time>2022-05-31T16:18:13Z</time>
      </trkpt>
      <trkpt lat="49.26822" lon="-0.22315">
        <ele>3.2</ele>
        <time>2022-05-31T16:18:14Z</time>
      </trkpt>
      <trkpt lat="49.26822" lon="-0.22315">
        <ele>3.2</ele>
        <time>2022-05-31T16:18:15Z</time>
      </trkpt>
      <trkpt lat="49.26822" lon="-0.22315">
        <ele>3.2</ele>
        <time>2022-05-31T16:18:16Z</time>
      </trkpt>
      <trkpt lat="49.26821" lon="-0.22314">
        <ele>3.2</ele>
        <time>2022-05-31T16:18:17Z</time>
      </trkpt>
      <trkpt lat="49.26821" lon="-0.22314">
        <ele>3.2</ele>
        <time>2022-05-31T16:18:18Z</time>
      </trkpt>
      <trkpt lat="49.26821" lon="-0.22314">
        <ele>3.2</ele>
        <time>2022-05-31T16:18:19Z</time>
      </trkpt>
      <trkpt lat="49.26821" lon="-0.22314">
        <ele>3.2</ele>
        <time>2022-05-31T16:18:20Z</time>
      </trkpt>
      <trkpt lat="49.26821" lon="-0.22314">
        <ele>3.2</ele>
        <time>2022-05-31T16:18:21Z</time>
      </trkpt>
      <trkpt lat="49.2682" lon="-0.22314">
        <ele>3.2</ele>
        <time>2022-05-31T16:18:22Z</time>
      </trkpt>
      <trkpt lat="49.26819" lon="-0.22314">
        <ele>3.2</ele>
        <time>2022-05-31T16:18:24Z</time>
      </trkpt>
      <trkpt lat="49.26819" lon="-0.22313">
        <ele>3.2</ele>
        <time>2022-05-31T16:18:25Z</time>
      </trkpt>
      <trkpt lat="49.26817" lon="-0.22312">
        <ele>3.2</ele>
        <time>2022-05-31T16:18:26Z</time>
      </trkpt>
      <trkpt lat="49.26816" lon="-0.22311">
        <ele>3.2</ele>
        <time>2022-05-31T16:18:27Z</time>
      </trkpt>
      <trkpt lat="49.26814" lon="-0.2231">
        <ele>3.2</ele>
        <time>2022-05-31T16:18:28Z</time>
      </trkpt>
      <trkpt lat="49.26813" lon="-0.22309">
        <ele>3.2</ele>
        <time>2022-05-31T16:18:29Z</time>
      </trkpt>
      <trkpt lat="49.26812" lon="-0.22309">
        <ele>3.2</ele>
        <time>2022-05-31T16:18:30Z</time>
      </trkpt>
      <trkpt lat="49.2681" lon="-0.22308">
        <ele>3.2</ele>
        <time>2022-05-31T16:18:32Z</time>
      </trkpt>
      <trkpt lat="49.26809" lon="-0.22308">
        <ele>3.2</ele>
        <time>2022-05-31T16:18:33Z</time>
      </trkpt>
      <trkpt lat="49.26808" lon="-0.22309">
        <ele>3.2</ele>
        <time>2022-05-31T16:18:34Z</time>
      </trkpt>
      <trkpt lat="49.26807" lon="-0.22308">
        <ele>3.2</ele>
        <time>2022-05-31T16:18:36Z</time>
      </trkpt>
      <trkpt lat="49.26806" lon="-0.22307">
        <ele>3.2</ele>
        <time>2022-05-31T16:18:37Z</time>
      </trkpt>
      <trkpt lat="49.26806" lon="-0.22307">
        <ele>3.2</ele>
        <time>2022-05-31T16:18:38Z</time>
      </trkpt>
      <trkpt lat="49.26806" lon="-0.22306">
        <ele>3.2</ele>
        <time>2022-05-31T16:18:39Z</time>
      </trkpt>
      <trkpt lat="49.26807" lon="-0.22306">
        <ele>3.2</ele>
        <time>2022-05-31T16:18:40Z</time>
      </trkpt>
      <trkpt lat="49.26808" lon="-0.22307">
        <ele>3.2</ele>
        <time>2022-05-31T16:18:41Z</time>
      </trkpt>
      <trkpt lat="49.26808" lon="-0.22308">
        <ele>3.2</ele>
        <time>2022-05-31T16:18:42Z</time>
      </trkpt>
      <trkpt lat="49.26808" lon="-0.22308">
        <ele>3.2</ele>
        <time>2022-05-31T16:18:43Z</time>
      </trkpt>
      <trkpt lat="49.26808" lon="-0.22308">
        <ele>3.2</ele>
        <time>2022-05-31T16:18:44Z</time>
      </trkpt>
      <trkpt lat="49.26808" lon="-0.22308">
        <ele>3.2</ele>
        <time>2022-05-31T16:18:45Z</time>
      </trkpt>
      <trkpt lat="49.26808" lon="-0.22308">
        <ele>3.2</ele>
        <time>2022-05-31T16:18:46Z</time>
      </trkpt>
      <trkpt lat="49.26808" lon="-0.22308">
        <ele>3.2</ele>
        <time>2022-05-31T16:18:47Z</time>
      </trkpt>
      <trkpt lat="49.26808" lon="-0.22308">
        <ele>3.2</ele>
        <time>2022-05-31T16:18:48Z</time>
      </trkpt>
      <trkpt lat="49.26808" lon="-0.22308">
        <ele>3.2</ele>
        <time>2022-05-31T16:18:49Z</time>
      </trkpt>
      <trkpt lat="49.26808" lon="-0.22309">
        <ele>3.2</ele>
        <time>2022-05-31T16:18:51Z</time>
      </trkpt>
      <trkpt lat="49.26807" lon="-0.22309">
        <ele>3.2</ele>
        <time>2022-05-31T16:18:52Z</time>
      </trkpt>
      <trkpt lat="49.26807" lon="-0.22309">
        <ele>3.2</ele>
        <time>2022-05-31T16:18:53Z</time>
      </trkpt>
      <trkpt lat="49.26807" lon="-0.22309">
        <ele>3.2</ele>
        <time>2022-05-31T16:18:54Z</time>
      </trkpt>
      <trkpt lat="49.26807" lon="-0.22309">
        <ele>3.2</ele>
        <time>2022-05-31T16:18:55Z</time>
      </trkpt>
      <trkpt lat="49.26807" lon="-0.22309">
        <ele>3.2</ele>
        <time>2022-05-31T16:18:56Z</time>
      </trkpt>
      <trkpt lat="49.26807" lon="-0.22309">
        <ele>3.2</ele>
        <time>2022-05-31T16:18:57Z</time>
      </trkpt>
      <trkpt lat="49.26807" lon="-0.22309">
        <ele>3.2</ele>
        <time>2022-05-31T16:18:58Z</time>
      </trkpt>
      <trkpt lat="49.26807" lon="-0.22309">
        <ele>3.2</ele>
        <time>2022-05-31T16:18:59Z</time>
      </trkpt>
      <trkpt lat="49.26807" lon="-0.22309">
        <ele>3.2</ele>
        <time>2022-05-31T16:19:00Z</time>
      </trkpt>
      <trkpt lat="49.26807" lon="-0.22309">
        <ele>3.2</ele>
        <time>2022-05-31T16:19:01Z</time>
      </trkpt>
      <trkpt lat="49.26807" lon="-0.22309">
        <ele>3.2</ele>
        <time>2022-05-31T16:19:02Z</time>
      </trkpt>
      <trkpt lat="49.26807" lon="-0.22309">
        <ele>3.2</ele>
        <time>2022-05-31T16:19:03Z</time>
      </trkpt>
      <trkpt lat="49.26807" lon="-0.22308">
        <ele>3.2</ele>
        <time>2022-05-31T16:19:04Z</time>
      </trkpt>
      <trkpt lat="49.26807" lon="-0.22308">
        <ele>3.2</ele>
        <time>2022-05-31T16:19:05Z</time>
      </trkpt>
      <trkpt lat="49.26807" lon="-0.22308">
        <ele>3.2</ele>
        <time>2022-05-31T16:19:06Z</time>
      </trkpt>
      <trkpt lat="49.26806" lon="-0.22308">
        <ele>3.2</ele>
        <time>2022-05-31T16:19:07Z</time>
      </trkpt>
      <trkpt lat="49.26806" lon="-0.22308">
        <ele>3.2</ele>
        <time>2022-05-31T16:19:08Z</time>
      </trkpt>
      <trkpt lat="49.26806" lon="-0.22308">
        <ele>3.2</ele>
        <time>2022-05-31T16:19:09Z</time>
      </trkpt>
      <trkpt lat="49.26806" lon="-0.22308">
        <ele>3.2</ele>
        <time>2022-05-31T16:19:10Z</time>
      </trkpt>
      <trkpt lat="49.26807" lon="-0.22308">
        <ele>3.2</ele>
        <time>2022-05-31T16:19:11Z</time>
      </trkpt>
      <trkpt lat="49.26807" lon="-0.22308">
        <ele>3.2</ele>
        <time>2022-05-31T16:19:12Z</time>
      </trkpt>
      <trkpt lat="49.26807" lon="-0.22308">
        <ele>3.2</ele>
        <time>2022-05-31T16:19:13Z</time>
      </trkpt>
      <trkpt lat="49.26807" lon="-0.22308">
        <ele>3.2</ele>
        <time>2022-05-31T16:19:14Z</time>
      </trkpt>
      <trkpt lat="49.26807" lon="-0.22307">
        <ele>3.2</ele>
        <time>2022-05-31T16:19:15Z</time>
      </trkpt>
      <trkpt lat="49.26807" lon="-0.22307">
        <ele>3.2</ele>
        <time>2022-05-31T16:19:16Z</time>
      </trkpt>
      <trkpt lat="49.26807" lon="-0.22307">
        <ele>3.2</ele>
        <time>2022-05-31T16:19:17Z</time>
      </trkpt>
      <trkpt lat="49.26807" lon="-0.22307">
        <ele>3.2</ele>
        <time>2022-05-31T16:19:18Z</time>
      </trkpt>
      <trkpt lat="49.26807" lon="-0.22307">
        <ele>3.2</ele>
        <time>2022-05-31T16:19:19Z</time>
      </trkpt>
      <trkpt lat="49.26807" lon="-0.22307">
        <ele>3.2</ele>
        <time>2022-05-31T16:19:20Z</time>
      </trkpt>
      <trkpt lat="49.26807" lon="-0.22307">
        <ele>3.2</ele>
        <time>2022-05-31T16:19:21Z</time>
      </trkpt>
      <trkpt lat="49.26807" lon="-0.22307">
        <ele>3.2</ele>
        <time>2022-05-31T16:19:22Z</time>
      </trkpt>
      <trkpt lat="49.26807" lon="-0.22307">
        <ele>3.2</ele>
        <time>2022-05-31T16:19:23Z</time>
      </trkpt>
      <trkpt lat="49.26807" lon="-0.22307">
        <ele>3.2</ele>
        <time>2022-05-31T16:19:24Z</time>
      </trkpt>
      <trkpt lat="49.26807" lon="-0.22307">
        <ele>3.2</ele>
        <time>2022-05-31T16:19:25Z</time>
      </trkpt>
      <trkpt lat="49.26807" lon="-0.22307">
        <ele>3.2</ele>
        <time>2022-05-31T16:19:26Z</time>
      </trkpt>
      <trkpt lat="49.26807" lon="-0.22307">
        <ele>3.2</ele>
        <time>2022-05-31T16:19:27Z</time>
      </trkpt>
      <trkpt lat="49.26807" lon="-0.22307">
        <ele>3.2</ele>
        <time>2022-05-31T16:19:28Z</time>
      </trkpt>
      <trkpt lat="49.26807" lon="-0.22307">
        <ele>3.2</ele>
        <time>2022-05-31T16:19:29Z</time>
      </trkpt>
      <trkpt lat="49.26807" lon="-0.22307">
        <ele>3.2</ele>
        <time>2022-05-31T16:19:30Z</time>
      </trkpt>
      <trkpt lat="49.26807" lon="-0.22307">
        <ele>3.2</ele>
        <time>2022-05-31T16:19:31Z</time>
      </trkpt>
      <trkpt lat="49.26807" lon="-0.22307">
        <ele>3.2</ele>
        <time>2022-05-31T16:19:32Z</time>
      </trkpt>
      <trkpt lat="49.26807" lon="-0.22307">
        <ele>3.2</ele>
        <time>2022-05-31T16:19:33Z</time>
      </trkpt>
      <trkpt lat="49.26807" lon="-0.22307">
        <ele>3.2</ele>
        <time>2022-05-31T16:19:34Z</time>
      </trkpt>
      <trkpt lat="49.26807" lon="-0.22307">
        <ele>3.2</ele>
        <time>2022-05-31T16:19:35Z</time>
      </trkpt>
      <trkpt lat="49.26807" lon="-0.22307">
        <ele>3.2</ele>
        <time>2022-05-31T16:19:36Z</time>
      </trkpt>
      <trkpt lat="49.26807" lon="-0.22307">
        <ele>3.2</ele>
        <time>2022-05-31T16:19:37Z</time>
      </trkpt>
      <trkpt lat="49.26807" lon="-0.22307">
        <ele>3.2</ele>
        <time>2022-05-31T16:19:38Z</time>
      </trkpt>
      <trkpt lat="49.26807" lon="-0.22307">
        <ele>3.2</ele>
        <time>2022-05-31T16:19:39Z</time>
      </trkpt>
      <trkpt lat="49.26807" lon="-0.22307">
        <ele>3.2</ele>
        <time>2022-05-31T16:19:40Z</time>
      </trkpt>
      <trkpt lat="49.26807" lon="-0.22307">
        <ele>3.2</ele>
        <time>2022-05-31T16:19:41Z</time>
      </trkpt>
      <trkpt lat="49.26807" lon="-0.22307">
        <ele>3.2</ele>
        <time>2022-05-31T16:19:42Z</time>
      </trkpt>
      <trkpt lat="49.26807" lon="-0.22307">
        <ele>3.2</ele>
        <time>2022-05-31T16:19:43Z</time>
      </trkpt>
      <trkpt lat="49.26807" lon="-0.22307">
        <ele>3.2</ele>
        <time>2022-05-31T16:19:44Z</time>
      </trkpt>
      <trkpt lat="49.26808" lon="-0.22307">
        <ele>3.2</ele>
        <time>2022-05-31T16:19:45Z</time>
      </trkpt>
      <trkpt lat="49.26808" lon="-0.22306">
        <ele>3.2</ele>
        <time>2022-05-31T16:19:46Z</time>
      </trkpt>
      <trkpt lat="49.26809" lon="-0.22306">
        <ele>3.2</ele>
        <time>2022-05-31T16:19:47Z</time>
      </trkpt>
      <trkpt lat="49.26809" lon="-0.22306">
        <ele>3.2</ele>
        <time>2022-05-31T16:19:48Z</time>
      </trkpt>
      <trkpt lat="49.26809" lon="-0.22306">
        <ele>3.2</ele>
        <time>2022-05-31T16:19:49Z</time>
      </trkpt>
      <trkpt lat="49.2681" lon="-0.22306">
        <ele>3.2</ele>
        <time>2022-05-31T16:19:50Z</time>
      </trkpt>
      <trkpt lat="49.26811" lon="-0.22306">
        <ele>3.1</ele>
        <time>2022-05-31T16:19:52Z</time>
      </trkpt>
      <trkpt lat="49.26812" lon="-0.22306">
        <ele>3.1</ele>
        <time>2022-05-31T16:19:53Z</time>
      </trkpt>
      <trkpt lat="49.26812" lon="-0.22306">
        <ele>3.1</ele>
        <time>2022-05-31T16:19:54Z</time>
      </trkpt>
      <trkpt lat="49.26812" lon="-0.22306">
        <ele>3.1</ele>
        <time>2022-05-31T16:19:55Z</time>
      </trkpt>
      <trkpt lat="49.26813" lon="-0.22306">
        <ele>3.1</ele>
        <time>2022-05-31T16:19:56Z</time>
      </trkpt>
      <trkpt lat="49.26813" lon="-0.22306">
        <ele>3.1</ele>
        <time>2022-05-31T16:19:57Z</time>
      </trkpt>
      <trkpt lat="49.26813" lon="-0.22305">
        <ele>3.1</ele>
        <time>2022-05-31T16:19:58Z</time>
      </trkpt>
      <trkpt lat="49.26813" lon="-0.22305">
        <ele>3.1</ele>
        <time>2022-05-31T16:19:59Z</time>
      </trkpt>
      <trkpt lat="49.26813" lon="-0.22305">
        <ele>3.1</ele>
        <time>2022-05-31T16:20:00Z</time>
      </trkpt>
      <trkpt lat="49.26813" lon="-0.22305">
        <ele>3.1</ele>
        <time>2022-05-31T16:20:01Z</time>
      </trkpt>
      <trkpt lat="49.26813" lon="-0.22305">
        <ele>3.1</ele>
        <time>2022-05-31T16:20:02Z</time>
      </trkpt>
      <trkpt lat="49.26813" lon="-0.22305">
        <ele>3.1</ele>
        <time>2022-05-31T16:20:03Z</time>
      </trkpt>
      <trkpt lat="49.26813" lon="-0.22305">
        <ele>3.1</ele>
        <time>2022-05-31T16:20:04Z</time>
      </trkpt>
      <trkpt lat="49.26813" lon="-0.22305">
        <ele>3.1</ele>
        <time>2022-05-31T16:20:05Z</time>
      </trkpt>
      <trkpt lat="49.26813" lon="-0.22305">
        <ele>3.1</ele>
        <time>2022-05-31T16:20:06Z</time>
      </trkpt>
      <trkpt lat="49.26813" lon="-0.22305">
        <ele>3.1</ele>
        <time>2022-05-31T16:20:07Z</time>
      </trkpt>
      <trkpt lat="49.26814" lon="-0.22305">
        <ele>3.1</ele>
        <time>2022-05-31T16:20:08Z</time>
      </trkpt>
      <trkpt lat="49.26814" lon="-0.22305">
        <ele>3.1</ele>
        <time>2022-05-31T16:20:09Z</time>
      </trkpt>
      <trkpt lat="49.26814" lon="-0.22305">
        <ele>3.1</ele>
        <time>2022-05-31T16:20:11Z</time>
      </trkpt>
      <trkpt lat="49.26814" lon="-0.22305">
        <ele>3.1</ele>
        <time>2022-05-31T16:20:12Z</time>
      </trkpt>
      <trkpt lat="49.26814" lon="-0.22306">
        <ele>3.1</ele>
        <time>2022-05-31T16:20:13Z</time>
      </trkpt>
      <trkpt lat="49.26814" lon="-0.22307">
        <ele>3.1</ele>
        <time>2022-05-31T16:20:14Z</time>
      </trkpt>
      <trkpt lat="49.26814" lon="-0.22307">
        <ele>3.1</ele>
        <time>2022-05-31T16:20:15Z</time>
      </trkpt>
      <trkpt lat="49.26814" lon="-0.22307">
        <ele>3.1</ele>
        <time>2022-05-31T16:20:16Z</time>
      </trkpt>
      <trkpt lat="49.26814" lon="-0.22307">
        <ele>3.1</ele>
        <time>2022-05-31T16:20:17Z</time>
      </trkpt>
      <trkpt lat="49.26814" lon="-0.22307">
        <ele>3.1</ele>
        <time>2022-05-31T16:20:18Z</time>
      </trkpt>
      <trkpt lat="49.26814" lon="-0.22307">
        <ele>3.1</ele>
        <time>2022-05-31T16:20:19Z</time>
      </trkpt>
      <trkpt lat="49.26814" lon="-0.22307">
        <ele>3.1</ele>
        <time>2022-05-31T16:20:20Z</time>
      </trkpt>
      <trkpt lat="49.26814" lon="-0.22307">
        <ele>3.1</ele>
        <time>2022-05-31T16:20:21Z</time>
      </trkpt>
      <trkpt lat="49.26814" lon="-0.22307">
        <ele>3.1</ele>
        <time>2022-05-31T16:20:22Z</time>
      </trkpt>
      <trkpt lat="49.26814" lon="-0.22307">
        <ele>3.1</ele>
        <time>2022-05-31T16:20:23Z</time>
      </trkpt>
      <trkpt lat="49.26814" lon="-0.22307">
        <ele>3.1</ele>
        <time>2022-05-31T16:20:24Z</time>
      </trkpt>
      <trkpt lat="49.26814" lon="-0.22307">
        <ele>3.1</ele>
        <time>2022-05-31T16:20:25Z</time>
      </trkpt>
      <trkpt lat="49.26814" lon="-0.22307">
        <ele>3.1</ele>
        <time>2022-05-31T16:20:26Z</time>
      </trkpt>
      <trkpt lat="49.26814" lon="-0.22307">
        <ele>3.1</ele>
        <time>2022-05-31T16:20:27Z</time>
      </trkpt>
      <trkpt lat="49.26814" lon="-0.22307">
        <ele>3.1</ele>
        <time>2022-05-31T16:20:28Z</time>
      </trkpt>
      <trkpt lat="49.26815" lon="-0.22307">
        <ele>3.1</ele>
        <time>2022-05-31T16:20:29Z</time>
      </trkpt>
      <trkpt lat="49.26815" lon="-0.22307">
        <ele>3.1</ele>
        <time>2022-05-31T16:20:30Z</time>
      </trkpt>
      <trkpt lat="49.26815" lon="-0.22307">
        <ele>3.1</ele>
        <time>2022-05-31T16:20:31Z</time>
      </trkpt>
      <trkpt lat="49.26815" lon="-0.22307">
        <ele>3.1</ele>
        <time>2022-05-31T16:20:32Z</time>
      </trkpt>
      <trkpt lat="49.26815" lon="-0.22307">
        <ele>3.1</ele>
        <time>2022-05-31T16:20:33Z</time>
      </trkpt>
      <trkpt lat="49.26815" lon="-0.22307">
        <ele>3.1</ele>
        <time>2022-05-31T16:20:34Z</time>
      </trkpt>
      <trkpt lat="49.26815" lon="-0.22307">
        <ele>3.1</ele>
        <time>2022-05-31T16:20:35Z</time>
      </trkpt>
      <trkpt lat="49.26815" lon="-0.22307">
        <ele>3.1</ele>
        <time>2022-05-31T16:20:36Z</time>
      </trkpt>
      <trkpt lat="49.26815" lon="-0.22307">
        <ele>3.1</ele>
        <time>2022-05-31T16:20:37Z</time>
      </trkpt>
      <trkpt lat="49.26815" lon="-0.22307">
        <ele>3.1</ele>
        <time>2022-05-31T16:20:38Z</time>
      </trkpt>
      <trkpt lat="49.26815" lon="-0.22307">
        <ele>3.1</ele>
        <time>2022-05-31T16:20:39Z</time>
      </trkpt>
      <trkpt lat="49.26815" lon="-0.22307">
        <ele>3.1</ele>
        <time>2022-05-31T16:20:40Z</time>
      </trkpt>
      <trkpt lat="49.26815" lon="-0.22307">
        <ele>3.1</ele>
        <time>2022-05-31T16:20:41Z</time>
      </trkpt>
      <trkpt lat="49.26815" lon="-0.22307">
        <ele>3.1</ele>
        <time>2022-05-31T16:20:42Z</time>
      </trkpt>
      <trkpt lat="49.26815" lon="-0.22307">
        <ele>3.1</ele>
        <time>2022-05-31T16:20:43Z</time>
      </trkpt>
      <trkpt lat="49.26815" lon="-0.22307">
        <ele>3.1</ele>
        <time>2022-05-31T16:20:44Z</time>
      </trkpt>
      <trkpt lat="49.26815" lon="-0.22307">
        <ele>3.1</ele>
        <time>2022-05-31T16:20:45Z</time>
      </trkpt>
      <trkpt lat="49.26815" lon="-0.22307">
        <ele>3.1</ele>
        <time>2022-05-31T16:20:46Z</time>
      </trkpt>
      <trkpt lat="49.26815" lon="-0.22307">
        <ele>3.1</ele>
        <time>2022-05-31T16:20:47Z</time>
      </trkpt>
      <trkpt lat="49.26815" lon="-0.22307">
        <ele>3.1</ele>
        <time>2022-05-31T16:20:48Z</time>
      </trkpt>
      <trkpt lat="49.26815" lon="-0.22307">
        <ele>3.1</ele>
        <time>2022-05-31T16:20:49Z</time>
      </trkpt>
      <trkpt lat="49.26815" lon="-0.22307">
        <ele>3.1</ele>
        <time>2022-05-31T16:20:50Z</time>
      </trkpt>
      <trkpt lat="49.26815" lon="-0.22307">
        <ele>3.1</ele>
        <time>2022-05-31T16:20:51Z</time>
      </trkpt>
      <trkpt lat="49.26815" lon="-0.22307">
        <ele>3.1</ele>
        <time>2022-05-31T16:20:52Z</time>
      </trkpt>
      <trkpt lat="49.26815" lon="-0.22307">
        <ele>3.1</ele>
        <time>2022-05-31T16:20:53Z</time>
      </trkpt>
      <trkpt lat="49.26815" lon="-0.22307">
        <ele>3.1</ele>
        <time>2022-05-31T16:20:54Z</time>
      </trkpt>
      <trkpt lat="49.26815" lon="-0.22307">
        <ele>3.1</ele>
        <time>2022-05-31T16:20:55Z</time>
      </trkpt>
      <trkpt lat="49.26815" lon="-0.22307">
        <ele>3.1</ele>
        <time>2022-05-31T16:20:56Z</time>
      </trkpt>
      <trkpt lat="49.26815" lon="-0.22309">
        <ele>3.1</ele>
        <time>2022-05-31T16:20:57Z</time>
      </trkpt>
      <trkpt lat="49.26815" lon="-0.22309">
        <ele>3.1</ele>
        <time>2022-05-31T16:20:58Z</time>
      </trkpt>
      <trkpt lat="49.26815" lon="-0.2231">
        <ele>3.1</ele>
        <time>2022-05-31T16:20:59Z</time>
      </trkpt>
      <trkpt lat="49.26816" lon="-0.2231">
        <ele>3.1</ele>
        <time>2022-05-31T16:21:00Z</time>
      </trkpt>
      <trkpt lat="49.26816" lon="-0.2231">
        <ele>3.1</ele>
        <time>2022-05-31T16:21:02Z</time>
      </trkpt>
      <trkpt lat="49.26816" lon="-0.2231">
        <ele>3.1</ele>
        <time>2022-05-31T16:21:03Z</time>
      </trkpt>
      <trkpt lat="49.26816" lon="-0.2231">
        <ele>3.1</ele>
        <time>2022-05-31T16:21:05Z</time>
      </trkpt>
      <trkpt lat="49.26817" lon="-0.2231">
        <ele>3.1</ele>
        <time>2022-05-31T16:21:06Z</time>
      </trkpt>
      <trkpt lat="49.26817" lon="-0.2231">
        <ele>3.1</ele>
        <time>2022-05-31T16:21:07Z</time>
      </trkpt>
      <trkpt lat="49.26818" lon="-0.22309">
        <ele>3.1</ele>
        <time>2022-05-31T16:21:08Z</time>
      </trkpt>
      <trkpt lat="49.26818" lon="-0.22309">
        <ele>3.1</ele>
        <time>2022-05-31T16:21:09Z</time>
      </trkpt>
      <trkpt lat="49.26818" lon="-0.22309">
        <ele>3.1</ele>
        <time>2022-05-31T16:21:10Z</time>
      </trkpt>
      <trkpt lat="49.26818" lon="-0.2231">
        <ele>3.1</ele>
        <time>2022-05-31T16:21:12Z</time>
      </trkpt>
      <trkpt lat="49.26818" lon="-0.2231">
        <ele>3.1</ele>
        <time>2022-05-31T16:21:13Z</time>
      </trkpt>
      <trkpt lat="49.26818" lon="-0.22311">
        <ele>3.1</ele>
        <time>2022-05-31T16:21:15Z</time>
      </trkpt>
      <trkpt lat="49.26818" lon="-0.22311">
        <ele>3.1</ele>
        <time>2022-05-31T16:21:16Z</time>
      </trkpt>
      <trkpt lat="49.26818" lon="-0.22311">
        <ele>3.1</ele>
        <time>2022-05-31T16:21:17Z</time>
      </trkpt>
      <trkpt lat="49.26819" lon="-0.22311">
        <ele>3.1</ele>
        <time>2022-05-31T16:21:18Z</time>
      </trkpt>
      <trkpt lat="49.26819" lon="-0.2231">
        <ele>3.1</ele>
        <time>2022-05-31T16:21:19Z</time>
      </trkpt>
      <trkpt lat="49.2682" lon="-0.2231">
        <ele>3.1</ele>
        <time>2022-05-31T16:21:20Z</time>
      </trkpt>
      <trkpt lat="49.2682" lon="-0.22309">
        <ele>3.1</ele>
        <time>2022-05-31T16:21:21Z</time>
      </trkpt>
      <trkpt lat="49.2682" lon="-0.22308">
        <ele>3.1</ele>
        <time>2022-05-31T16:21:22Z</time>
      </trkpt>
      <trkpt lat="49.2682" lon="-0.22307">
        <ele>3.1</ele>
        <time>2022-05-31T16:21:23Z</time>
      </trkpt>
      <trkpt lat="49.26821" lon="-0.22305">
        <ele>3.1</ele>
        <time>2022-05-31T16:21:25Z</time>
      </trkpt>
      <trkpt lat="49.26822" lon="-0.22302">
        <ele>3.1</ele>
        <time>2022-05-31T16:21:26Z</time>
      </trkpt>
      <trkpt lat="49.26823" lon="-0.22302">
        <ele>3.1</ele>
        <time>2022-05-31T16:21:28Z</time>
      </trkpt>
      <trkpt lat="49.26823" lon="-0.22301">
        <ele>3.1</ele>
        <time>2022-05-31T16:21:29Z</time>
      </trkpt>
      <trkpt lat="49.26825" lon="-0.22299">
        <ele>3.1</ele>
        <time>2022-05-31T16:21:30Z</time>
      </trkpt>
      <trkpt lat="49.26825" lon="-0.22298">
        <ele>3.1</ele>
        <time>2022-05-31T16:21:31Z</time>
      </trkpt>
      <trkpt lat="49.26826" lon="-0.22297">
        <ele>3.1</ele>
        <time>2022-05-31T16:21:32Z</time>
      </trkpt>
      <trkpt lat="49.26827" lon="-0.22296">
        <ele>3.1</ele>
        <time>2022-05-31T16:21:34Z</time>
      </trkpt>
      <trkpt lat="49.26828" lon="-0.22294">
        <ele>3.1</ele>
        <time>2022-05-31T16:21:35Z</time>
      </trkpt>
      <trkpt lat="49.26829" lon="-0.22293">
        <ele>3.1</ele>
        <time>2022-05-31T16:21:36Z</time>
      </trkpt>
      <trkpt lat="49.2683" lon="-0.22292">
        <ele>3.1</ele>
        <time>2022-05-31T16:21:37Z</time>
      </trkpt>
      <trkpt lat="49.26831" lon="-0.22291">
        <ele>3.1</ele>
        <time>2022-05-31T16:21:39Z</time>
      </trkpt>
      <trkpt lat="49.26832" lon="-0.2229">
        <ele>3.1</ele>
        <time>2022-05-31T16:21:40Z</time>
      </trkpt>
      <trkpt lat="49.26832" lon="-0.22289">
        <ele>3.1</ele>
        <time>2022-05-31T16:21:41Z</time>
      </trkpt>
      <trkpt lat="49.26832" lon="-0.22289">
        <ele>3.1</ele>
        <time>2022-05-31T16:21:42Z</time>
      </trkpt>
      <trkpt lat="49.26833" lon="-0.22288">
        <ele>3.1</ele>
        <time>2022-05-31T16:21:43Z</time>
      </trkpt>
      <trkpt lat="49.26835" lon="-0.22287">
        <ele>3.1</ele>
        <time>2022-05-31T16:21:44Z</time>
      </trkpt>
      <trkpt lat="49.26835" lon="-0.22285">
        <ele>3.1</ele>
        <time>2022-05-31T16:21:46Z</time>
      </trkpt>
      <trkpt lat="49.26836" lon="-0.22285">
        <ele>3.1</ele>
        <time>2022-05-31T16:21:47Z</time>
      </trkpt>
      <trkpt lat="49.26837" lon="-0.22283">
        <ele>3.1</ele>
        <time>2022-05-31T16:21:48Z</time>
      </trkpt>
      <trkpt lat="49.26837" lon="-0.22282">
        <ele>3.1</ele>
        <time>2022-05-31T16:21:49Z</time>
      </trkpt>
      <trkpt lat="49.26838" lon="-0.22281">
        <ele>3.1</ele>
        <time>2022-05-31T16:21:50Z</time>
      </trkpt>
      <trkpt lat="49.26839" lon="-0.2228">
        <ele>3.1</ele>
        <time>2022-05-31T16:21:52Z</time>
      </trkpt>
      <trkpt lat="49.2684" lon="-0.22278">
        <ele>3.1</ele>
        <time>2022-05-31T16:21:53Z</time>
      </trkpt>
      <trkpt lat="49.26839" lon="-0.22277">
        <ele>3.1</ele>
        <time>2022-05-31T16:21:54Z</time>
      </trkpt>
      <trkpt lat="49.2684" lon="-0.22276">
        <ele>3.1</ele>
        <time>2022-05-31T16:21:55Z</time>
      </trkpt>
      <trkpt lat="49.2684" lon="-0.22275">
        <ele>3.1</ele>
        <time>2022-05-31T16:21:56Z</time>
      </trkpt>
      <trkpt lat="49.26841" lon="-0.22274">
        <ele>3.1</ele>
        <time>2022-05-31T16:21:57Z</time>
      </trkpt>
      <trkpt lat="49.26842" lon="-0.22272">
        <ele>3.1</ele>
        <time>2022-05-31T16:21:58Z</time>
      </trkpt>
      <trkpt lat="49.26843" lon="-0.2227">
        <ele>3.1</ele>
        <time>2022-05-31T16:21:59Z</time>
      </trkpt>
      <trkpt lat="49.26843" lon="-0.22269">
        <ele>3.1</ele>
        <time>2022-05-31T16:22:00Z</time>
      </trkpt>
      <trkpt lat="49.26844" lon="-0.22269">
        <ele>3.1</ele>
        <time>2022-05-31T16:22:02Z</time>
      </trkpt>
      <trkpt lat="49.26844" lon="-0.22268">
        <ele>3.1</ele>
        <time>2022-05-31T16:22:03Z</time>
      </trkpt>
      <trkpt lat="49.26845" lon="-0.22265">
        <ele>3.1</ele>
        <time>2022-05-31T16:22:04Z</time>
      </trkpt>
      <trkpt lat="49.26846" lon="-0.22264">
        <ele>3.1</ele>
        <time>2022-05-31T16:22:05Z</time>
      </trkpt>
      <trkpt lat="49.26847" lon="-0.22262">
        <ele>3.1</ele>
        <time>2022-05-31T16:22:06Z</time>
      </trkpt>
      <trkpt lat="49.26848" lon="-0.2226">
        <ele>3.1</ele>
        <time>2022-05-31T16:22:08Z</time>
      </trkpt>
      <trkpt lat="49.26849" lon="-0.22259">
        <ele>3.1</ele>
        <time>2022-05-31T16:22:09Z</time>
      </trkpt>
      <trkpt lat="49.2685" lon="-0.22258">
        <ele>3.1</ele>
        <time>2022-05-31T16:22:10Z</time>
      </trkpt>
      <trkpt lat="49.26851" lon="-0.22256">
        <ele>3.1</ele>
        <time>2022-05-31T16:22:11Z</time>
      </trkpt>
      <trkpt lat="49.26852" lon="-0.22254">
        <ele>3.1</ele>
        <time>2022-05-31T16:22:12Z</time>
      </trkpt>
      <trkpt lat="49.26853" lon="-0.22252">
        <ele>3.1</ele>
        <time>2022-05-31T16:22:13Z</time>
      </trkpt>
      <trkpt lat="49.26854" lon="-0.22251">
        <ele>3.1</ele>
        <time>2022-05-31T16:22:15Z</time>
      </trkpt>
      <trkpt lat="49.26854" lon="-0.2225">
        <ele>3.1</ele>
        <time>2022-05-31T16:22:16Z</time>
      </trkpt>
      <trkpt lat="49.26856" lon="-0.22247">
        <ele>3.1</ele>
        <time>2022-05-31T16:22:17Z</time>
      </trkpt>
      <trkpt lat="49.26856" lon="-0.22246">
        <ele>3.1</ele>
        <time>2022-05-31T16:22:18Z</time>
      </trkpt>
      <trkpt lat="49.26857" lon="-0.22245">
        <ele>3.1</ele>
        <time>2022-05-31T16:22:19Z</time>
      </trkpt>
      <trkpt lat="49.26857" lon="-0.22243">
        <ele>3.1</ele>
        <time>2022-05-31T16:22:20Z</time>
      </trkpt>
      <trkpt lat="49.26859" lon="-0.2224">
        <ele>3.1</ele>
        <time>2022-05-31T16:22:21Z</time>
      </trkpt>
      <trkpt lat="49.26859" lon="-0.22239">
        <ele>3.1</ele>
        <time>2022-05-31T16:22:22Z</time>
      </trkpt>
      <trkpt lat="49.26859" lon="-0.22238">
        <ele>3.1</ele>
        <time>2022-05-31T16:22:24Z</time>
      </trkpt>
      <trkpt lat="49.2686" lon="-0.22236">
        <ele>3.1</ele>
        <time>2022-05-31T16:22:25Z</time>
      </trkpt>
      <trkpt lat="49.26861" lon="-0.22233">
        <ele>3.1</ele>
        <time>2022-05-31T16:22:27Z</time>
      </trkpt>
      <trkpt lat="49.26861" lon="-0.22232">
        <ele>3.1</ele>
        <time>2022-05-31T16:22:28Z</time>
      </trkpt>
      <trkpt lat="49.26862" lon="-0.22229">
        <ele>3.1</ele>
        <time>2022-05-31T16:22:29Z</time>
      </trkpt>
      <trkpt lat="49.26862" lon="-0.22228">
        <ele>3.1</ele>
        <time>2022-05-31T16:22:30Z</time>
      </trkpt>
      <trkpt lat="49.26863" lon="-0.22227">
        <ele>3.2</ele>
        <time>2022-05-31T16:22:31Z</time>
      </trkpt>
      <trkpt lat="49.26863" lon="-0.22226">
        <ele>3.2</ele>
        <time>2022-05-31T16:22:32Z</time>
      </trkpt>
      <trkpt lat="49.26864" lon="-0.22225">
        <ele>3.2</ele>
        <time>2022-05-31T16:22:34Z</time>
      </trkpt>
      <trkpt lat="49.26865" lon="-0.22223">
        <ele>3.2</ele>
        <time>2022-05-31T16:22:35Z</time>
      </trkpt>
      <trkpt lat="49.26866" lon="-0.22223">
        <ele>3.2</ele>
        <time>2022-05-31T16:22:36Z</time>
      </trkpt>
      <trkpt lat="49.26867" lon="-0.22222">
        <ele>3.2</ele>
        <time>2022-05-31T16:22:37Z</time>
      </trkpt>
      <trkpt lat="49.26867" lon="-0.22221">
        <ele>3.2</ele>
        <time>2022-05-31T16:22:38Z</time>
      </trkpt>
      <trkpt lat="49.26868" lon="-0.2222">
        <ele>3.2</ele>
        <time>2022-05-31T16:22:39Z</time>
      </trkpt>
      <trkpt lat="49.26868" lon="-0.22219">
        <ele>3.2</ele>
        <time>2022-05-31T16:22:40Z</time>
      </trkpt>
      <trkpt lat="49.26869" lon="-0.22217">
        <ele>3.2</ele>
        <time>2022-05-31T16:22:41Z</time>
      </trkpt>
      <trkpt lat="49.2687" lon="-0.22217">
        <ele>3.2</ele>
        <time>2022-05-31T16:22:42Z</time>
      </trkpt>
      <trkpt lat="49.2687" lon="-0.22216">
        <ele>3.2</ele>
        <time>2022-05-31T16:22:44Z</time>
      </trkpt>
      <trkpt lat="49.2687" lon="-0.22215">
        <ele>3.2</ele>
        <time>2022-05-31T16:22:45Z</time>
      </trkpt>
      <trkpt lat="49.26871" lon="-0.22213">
        <ele>3.2</ele>
        <time>2022-05-31T16:22:47Z</time>
      </trkpt>
      <trkpt lat="49.26871" lon="-0.22213">
        <ele>3.2</ele>
        <time>2022-05-31T16:22:48Z</time>
      </trkpt>
      <trkpt lat="49.26872" lon="-0.22212">
        <ele>3.2</ele>
        <time>2022-05-31T16:22:49Z</time>
      </trkpt>
      <trkpt lat="49.26872" lon="-0.22211">
        <ele>3.2</ele>
        <time>2022-05-31T16:22:50Z</time>
      </trkpt>
      <trkpt lat="49.26873" lon="-0.2221">
        <ele>3.2</ele>
        <time>2022-05-31T16:22:51Z</time>
      </trkpt>
      <trkpt lat="49.26874" lon="-0.22209">
        <ele>3.2</ele>
        <time>2022-05-31T16:22:53Z</time>
      </trkpt>
      <trkpt lat="49.26875" lon="-0.22209">
        <ele>3.2</ele>
        <time>2022-05-31T16:22:54Z</time>
      </trkpt>
      <trkpt lat="49.26875" lon="-0.22208">
        <ele>3.2</ele>
        <time>2022-05-31T16:22:55Z</time>
      </trkpt>
      <trkpt lat="49.26876" lon="-0.22207">
        <ele>3.2</ele>
        <time>2022-05-31T16:22:56Z</time>
      </trkpt>
      <trkpt lat="49.26877" lon="-0.22206">
        <ele>3.2</ele>
        <time>2022-05-31T16:22:57Z</time>
      </trkpt>
      <trkpt lat="49.26878" lon="-0.22205">
        <ele>3.2</ele>
        <time>2022-05-31T16:22:58Z</time>
      </trkpt>
      <trkpt lat="49.26878" lon="-0.22204">
        <ele>3.2</ele>
        <time>2022-05-31T16:22:59Z</time>
      </trkpt>
      <trkpt lat="49.26879" lon="-0.22203">
        <ele>3.2</ele>
        <time>2022-05-31T16:23:00Z</time>
      </trkpt>
      <trkpt lat="49.2688" lon="-0.22202">
        <ele>3.2</ele>
        <time>2022-05-31T16:23:01Z</time>
      </trkpt>
      <trkpt lat="49.26881" lon="-0.22201">
        <ele>3.2</ele>
        <time>2022-05-31T16:23:02Z</time>
      </trkpt>
      <trkpt lat="49.26882" lon="-0.22201">
        <ele>3.2</ele>
        <time>2022-05-31T16:23:03Z</time>
      </trkpt>
      <trkpt lat="49.26883" lon="-0.22202">
        <ele>3.2</ele>
        <time>2022-05-31T16:23:04Z</time>
      </trkpt>
      <trkpt lat="49.26883" lon="-0.22203">
        <ele>3.2</ele>
        <time>2022-05-31T16:23:06Z</time>
      </trkpt>
      <trkpt lat="49.26884" lon="-0.22203">
        <ele>3.2</ele>
        <time>2022-05-31T16:23:07Z</time>
      </trkpt>
      <trkpt lat="49.26885" lon="-0.22202">
        <ele>3.2</ele>
        <time>2022-05-31T16:23:08Z</time>
      </trkpt>
      <trkpt lat="49.26886" lon="-0.22201">
        <ele>3.2</ele>
        <time>2022-05-31T16:23:09Z</time>
      </trkpt>
      <trkpt lat="49.26886" lon="-0.22199">
        <ele>3.2</ele>
        <time>2022-05-31T16:23:10Z</time>
      </trkpt>
      <trkpt lat="49.26887" lon="-0.22197">
        <ele>3.2</ele>
        <time>2022-05-31T16:23:11Z</time>
      </trkpt>
      <trkpt lat="49.26889" lon="-0.22194">
        <ele>3.2</ele>
        <time>2022-05-31T16:23:12Z</time>
      </trkpt>
      <trkpt lat="49.2689" lon="-0.22193">
        <ele>3.2</ele>
        <time>2022-05-31T16:23:13Z</time>
      </trkpt>
      <trkpt lat="49.26891" lon="-0.22192">
        <ele>3.2</ele>
        <time>2022-05-31T16:23:14Z</time>
      </trkpt>
      <trkpt lat="49.26893" lon="-0.22191">
        <ele>3.2</ele>
        <time>2022-05-31T16:23:15Z</time>
      </trkpt>
      <trkpt lat="49.26893" lon="-0.2219">
        <ele>3.2</ele>
        <time>2022-05-31T16:23:16Z</time>
      </trkpt>
      <trkpt lat="49.26894" lon="-0.22189">
        <ele>3.2</ele>
        <time>2022-05-31T16:23:17Z</time>
      </trkpt>
      <trkpt lat="49.26895" lon="-0.22188">
        <ele>3.2</ele>
        <time>2022-05-31T16:23:18Z</time>
      </trkpt>
      <trkpt lat="49.26896" lon="-0.22187">
        <ele>3.2</ele>
        <time>2022-05-31T16:23:20Z</time>
      </trkpt>
      <trkpt lat="49.26897" lon="-0.22187">
        <ele>3.2</ele>
        <time>2022-05-31T16:23:21Z</time>
      </trkpt>
      <trkpt lat="49.26898" lon="-0.22186">
        <ele>3.2</ele>
        <time>2022-05-31T16:23:22Z</time>
      </trkpt>
      <trkpt lat="49.26899" lon="-0.22186">
        <ele>3.2</ele>
        <time>2022-05-31T16:23:23Z</time>
      </trkpt>
      <trkpt lat="49.269" lon="-0.22185">
        <ele>3.2</ele>
        <time>2022-05-31T16:23:24Z</time>
      </trkpt>
      <trkpt lat="49.26902" lon="-0.22184">
        <ele>3.2</ele>
        <time>2022-05-31T16:23:25Z</time>
      </trkpt>
      <trkpt lat="49.26903" lon="-0.22184">
        <ele>3.2</ele>
        <time>2022-05-31T16:23:27Z</time>
      </trkpt>
      <trkpt lat="49.26903" lon="-0.22183">
        <ele>3.2</ele>
        <time>2022-05-31T16:23:28Z</time>
      </trkpt>
      <trkpt lat="49.26905" lon="-0.22183">
        <ele>3.2</ele>
        <time>2022-05-31T16:23:29Z</time>
      </trkpt>
      <trkpt lat="49.26906" lon="-0.22181">
        <ele>3.2</ele>
        <time>2022-05-31T16:23:30Z</time>
      </trkpt>
      <trkpt lat="49.26909" lon="-0.22179">
        <ele>3.2</ele>
        <time>2022-05-31T16:23:31Z</time>
      </trkpt>
      <trkpt lat="49.2691" lon="-0.22178">
        <ele>3.2</ele>
        <time>2022-05-31T16:23:32Z</time>
      </trkpt>
      <trkpt lat="49.26911" lon="-0.22177">
        <ele>3.2</ele>
        <time>2022-05-31T16:23:33Z</time>
      </trkpt>
      <trkpt lat="49.26912" lon="-0.22176">
        <ele>3.2</ele>
        <time>2022-05-31T16:23:35Z</time>
      </trkpt>
      <trkpt lat="49.26914" lon="-0.22175">
        <ele>3.2</ele>
        <time>2022-05-31T16:23:36Z</time>
      </trkpt>
      <trkpt lat="49.26915" lon="-0.22174">
        <ele>3.2</ele>
        <time>2022-05-31T16:23:37Z</time>
      </trkpt>
      <trkpt lat="49.26917" lon="-0.22173">
        <ele>3.2</ele>
        <time>2022-05-31T16:23:38Z</time>
      </trkpt>
      <trkpt lat="49.26918" lon="-0.22172">
        <ele>3.2</ele>
        <time>2022-05-31T16:23:39Z</time>
      </trkpt>
      <trkpt lat="49.26919" lon="-0.2217">
        <ele>3.2</ele>
        <time>2022-05-31T16:23:40Z</time>
      </trkpt>
      <trkpt lat="49.2692" lon="-0.22169">
        <ele>3.2</ele>
        <time>2022-05-31T16:23:42Z</time>
      </trkpt>
      <trkpt lat="49.26921" lon="-0.22168">
        <ele>3.2</ele>
        <time>2022-05-31T16:23:43Z</time>
      </trkpt>
      <trkpt lat="49.26922" lon="-0.22166">
        <ele>3.2</ele>
        <time>2022-05-31T16:23:44Z</time>
      </trkpt>
      <trkpt lat="49.26923" lon="-0.22165">
        <ele>3.2</ele>
        <time>2022-05-31T16:23:45Z</time>
      </trkpt>
      <trkpt lat="49.26923" lon="-0.22164">
        <ele>3.2</ele>
        <time>2022-05-31T16:23:46Z</time>
      </trkpt>
      <trkpt lat="49.26925" lon="-0.22162">
        <ele>3.2</ele>
        <time>2022-05-31T16:23:48Z</time>
      </trkpt>
      <trkpt lat="49.26926" lon="-0.22161">
        <ele>3.2</ele>
        <time>2022-05-31T16:23:49Z</time>
      </trkpt>
      <trkpt lat="49.26927" lon="-0.2216">
        <ele>3.2</ele>
        <time>2022-05-31T16:23:50Z</time>
      </trkpt>
      <trkpt lat="49.26928" lon="-0.22159">
        <ele>3.2</ele>
        <time>2022-05-31T16:23:52Z</time>
      </trkpt>
      <trkpt lat="49.26928" lon="-0.22158">
        <ele>3.2</ele>
        <time>2022-05-31T16:23:53Z</time>
      </trkpt>
      <trkpt lat="49.26929" lon="-0.22157">
        <ele>3.2</ele>
        <time>2022-05-31T16:23:54Z</time>
      </trkpt>
      <trkpt lat="49.2693" lon="-0.22156">
        <ele>3.2</ele>
        <time>2022-05-31T16:23:55Z</time>
      </trkpt>
      <trkpt lat="49.26931" lon="-0.22155">
        <ele>3.2</ele>
        <time>2022-05-31T16:23:56Z</time>
      </trkpt>
      <trkpt lat="49.26932" lon="-0.22154">
        <ele>3.2</ele>
        <time>2022-05-31T16:23:57Z</time>
      </trkpt>
      <trkpt lat="49.26933" lon="-0.22153">
        <ele>3.2</ele>
        <time>2022-05-31T16:23:59Z</time>
      </trkpt>
      <trkpt lat="49.26934" lon="-0.22153">
        <ele>3.2</ele>
        <time>2022-05-31T16:24:00Z</time>
      </trkpt>
      <trkpt lat="49.26935" lon="-0.22152">
        <ele>3.2</ele>
        <time>2022-05-31T16:24:01Z</time>
      </trkpt>
      <trkpt lat="49.26936" lon="-0.22151">
        <ele>3.2</ele>
        <time>2022-05-31T16:24:02Z</time>
      </trkpt>
      <trkpt lat="49.26938" lon="-0.22149">
        <ele>3.2</ele>
        <time>2022-05-31T16:24:03Z</time>
      </trkpt>
      <trkpt lat="49.26939" lon="-0.22149">
        <ele>3.2</ele>
        <time>2022-05-31T16:24:04Z</time>
      </trkpt>
      <trkpt lat="49.2694" lon="-0.22148">
        <ele>3.2</ele>
        <time>2022-05-31T16:24:06Z</time>
      </trkpt>
      <trkpt lat="49.26941" lon="-0.22147">
        <ele>3.2</ele>
        <time>2022-05-31T16:24:07Z</time>
      </trkpt>
      <trkpt lat="49.26942" lon="-0.22146">
        <ele>3.2</ele>
        <time>2022-05-31T16:24:08Z</time>
      </trkpt>
      <trkpt lat="49.26942" lon="-0.22145">
        <ele>3.2</ele>
        <time>2022-05-31T16:24:09Z</time>
      </trkpt>
      <trkpt lat="49.26942" lon="-0.22145">
        <ele>3.2</ele>
        <time>2022-05-31T16:24:11Z</time>
      </trkpt>
      <trkpt lat="49.26942" lon="-0.22145">
        <ele>3.2</ele>
        <time>2022-05-31T16:24:12Z</time>
      </trkpt>
      <trkpt lat="49.26942" lon="-0.22145">
        <ele>3.2</ele>
        <time>2022-05-31T16:24:13Z</time>
      </trkpt>
      <trkpt lat="49.26942" lon="-0.22144">
        <ele>3.2</ele>
        <time>2022-05-31T16:24:14Z</time>
      </trkpt>
      <trkpt lat="49.26942" lon="-0.22144">
        <ele>3.2</ele>
        <time>2022-05-31T16:24:15Z</time>
      </trkpt>
      <trkpt lat="49.26943" lon="-0.22144">
        <ele>3.2</ele>
        <time>2022-05-31T16:24:16Z</time>
      </trkpt>
      <trkpt lat="49.26943" lon="-0.22144">
        <ele>3.2</ele>
        <time>2022-05-31T16:24:17Z</time>
      </trkpt>
      <trkpt lat="49.26943" lon="-0.22143">
        <ele>3.2</ele>
        <time>2022-05-31T16:24:18Z</time>
      </trkpt>
      <trkpt lat="49.26943" lon="-0.22143">
        <ele>3.2</ele>
        <time>2022-05-31T16:24:19Z</time>
      </trkpt>
      <trkpt lat="49.26943" lon="-0.22143">
        <ele>3.2</ele>
        <time>2022-05-31T16:24:20Z</time>
      </trkpt>
      <trkpt lat="49.26943" lon="-0.22142">
        <ele>3.2</ele>
        <time>2022-05-31T16:24:21Z</time>
      </trkpt>
      <trkpt lat="49.26944" lon="-0.22142">
        <ele>3.2</ele>
        <time>2022-05-31T16:24:22Z</time>
      </trkpt>
      <trkpt lat="49.26944" lon="-0.22142">
        <ele>3.2</ele>
        <time>2022-05-31T16:24:23Z</time>
      </trkpt>
      <trkpt lat="49.26944" lon="-0.22142">
        <ele>3.2</ele>
        <time>2022-05-31T16:24:25Z</time>
      </trkpt>
      <trkpt lat="49.26944" lon="-0.22141">
        <ele>3.2</ele>
        <time>2022-05-31T16:24:26Z</time>
      </trkpt>
      <trkpt lat="49.26944" lon="-0.22141">
        <ele>3.2</ele>
        <time>2022-05-31T16:24:27Z</time>
      </trkpt>
      <trkpt lat="49.26944" lon="-0.22141">
        <ele>3.2</ele>
        <time>2022-05-31T16:24:28Z</time>
      </trkpt>
      <trkpt lat="49.26944" lon="-0.2214">
        <ele>3.2</ele>
        <time>2022-05-31T16:24:29Z</time>
      </trkpt>
      <trkpt lat="49.26945" lon="-0.2214">
        <ele>3.2</ele>
        <time>2022-05-31T16:24:31Z</time>
      </trkpt>
      <trkpt lat="49.26945" lon="-0.2214">
        <ele>3.3</ele>
        <time>2022-05-31T16:24:32Z</time>
      </trkpt>
      <trkpt lat="49.26945" lon="-0.2214">
        <ele>3.3</ele>
        <time>2022-05-31T16:24:33Z</time>
      </trkpt>
      <trkpt lat="49.26945" lon="-0.22139">
        <ele>3.3</ele>
        <time>2022-05-31T16:24:34Z</time>
      </trkpt>
      <trkpt lat="49.26945" lon="-0.22139">
        <ele>3.3</ele>
        <time>2022-05-31T16:24:35Z</time>
      </trkpt>
      <trkpt lat="49.26945" lon="-0.22139">
        <ele>3.3</ele>
        <time>2022-05-31T16:24:36Z</time>
      </trkpt>
      <trkpt lat="49.26945" lon="-0.22139">
        <ele>3.3</ele>
        <time>2022-05-31T16:24:37Z</time>
      </trkpt>
      <trkpt lat="49.26946" lon="-0.22138">
        <ele>3.3</ele>
        <time>2022-05-31T16:24:38Z</time>
      </trkpt>
      <trkpt lat="49.26946" lon="-0.22138">
        <ele>3.3</ele>
        <time>2022-05-31T16:24:39Z</time>
      </trkpt>
      <trkpt lat="49.26946" lon="-0.22138">
        <ele>3.3</ele>
        <time>2022-05-31T16:24:40Z</time>
      </trkpt>
      <trkpt lat="49.26946" lon="-0.22137">
        <ele>3.3</ele>
        <time>2022-05-31T16:24:41Z</time>
      </trkpt>
      <trkpt lat="49.26946" lon="-0.22137">
        <ele>3.3</ele>
        <time>2022-05-31T16:24:42Z</time>
      </trkpt>
      <trkpt lat="49.26946" lon="-0.22137">
        <ele>3.3</ele>
        <time>2022-05-31T16:24:44Z</time>
      </trkpt>
      <trkpt lat="49.26947" lon="-0.22137">
        <ele>3.3</ele>
        <time>2022-05-31T16:24:45Z</time>
      </trkpt>
      <trkpt lat="49.26948" lon="-0.22135">
        <ele>3.3</ele>
        <time>2022-05-31T16:24:46Z</time>
      </trkpt>
      <trkpt lat="49.26949" lon="-0.22133">
        <ele>3.3</ele>
        <time>2022-05-31T16:24:47Z</time>
      </trkpt>
      <trkpt lat="49.26949" lon="-0.22131">
        <ele>3.3</ele>
        <time>2022-05-31T16:24:48Z</time>
      </trkpt>
      <trkpt lat="49.2695" lon="-0.2213">
        <ele>3.3</ele>
        <time>2022-05-31T16:24:50Z</time>
      </trkpt>
      <trkpt lat="49.26951" lon="-0.22129">
        <ele>3.3</ele>
        <time>2022-05-31T16:24:51Z</time>
      </trkpt>
      <trkpt lat="49.26953" lon="-0.22127">
        <ele>3.3</ele>
        <time>2022-05-31T16:24:52Z</time>
      </trkpt>
      <trkpt lat="49.26953" lon="-0.22127">
        <ele>3.3</ele>
        <time>2022-05-31T16:24:53Z</time>
      </trkpt>
      <trkpt lat="49.26954" lon="-0.22126">
        <ele>3.3</ele>
        <time>2022-05-31T16:24:54Z</time>
      </trkpt>
      <trkpt lat="49.26954" lon="-0.22125">
        <ele>3.3</ele>
        <time>2022-05-31T16:24:55Z</time>
      </trkpt>
      <trkpt lat="49.26955" lon="-0.22124">
        <ele>3.3</ele>
        <time>2022-05-31T16:24:56Z</time>
      </trkpt>
      <trkpt lat="49.26957" lon="-0.22122">
        <ele>3.3</ele>
        <time>2022-05-31T16:24:57Z</time>
      </trkpt>
      <trkpt lat="49.26958" lon="-0.2212">
        <ele>3.3</ele>
        <time>2022-05-31T16:24:59Z</time>
      </trkpt>
      <trkpt lat="49.26959" lon="-0.22119">
        <ele>3.3</ele>
        <time>2022-05-31T16:25:00Z</time>
      </trkpt>
      <trkpt lat="49.2696" lon="-0.22119">
        <ele>3.3</ele>
        <time>2022-05-31T16:25:01Z</time>
      </trkpt>
      <trkpt lat="49.2696" lon="-0.22118">
        <ele>3.3</ele>
        <time>2022-05-31T16:25:03Z</time>
      </trkpt>
      <trkpt lat="49.26961" lon="-0.22117">
        <ele>3.3</ele>
        <time>2022-05-31T16:25:04Z</time>
      </trkpt>
      <trkpt lat="49.26962" lon="-0.22116">
        <ele>3.3</ele>
        <time>2022-05-31T16:25:05Z</time>
      </trkpt>
      <trkpt lat="49.26962" lon="-0.22115">
        <ele>3.3</ele>
        <time>2022-05-31T16:25:06Z</time>
      </trkpt>
      <trkpt lat="49.26963" lon="-0.22113">
        <ele>3.3</ele>
        <time>2022-05-31T16:25:08Z</time>
      </trkpt>
      <trkpt lat="49.26964" lon="-0.22112">
        <ele>3.3</ele>
        <time>2022-05-31T16:25:09Z</time>
      </trkpt>
      <trkpt lat="49.26965" lon="-0.22111">
        <ele>3.3</ele>
        <time>2022-05-31T16:25:10Z</time>
      </trkpt>
      <trkpt lat="49.26966" lon="-0.2211">
        <ele>3.3</ele>
        <time>2022-05-31T16:25:11Z</time>
      </trkpt>
      <trkpt lat="49.26966" lon="-0.22108">
        <ele>3.3</ele>
        <time>2022-05-31T16:25:12Z</time>
      </trkpt>
      <trkpt lat="49.26967" lon="-0.22108">
        <ele>3.3</ele>
        <time>2022-05-31T16:25:13Z</time>
      </trkpt>
      <trkpt lat="49.26967" lon="-0.22107">
        <ele>3.3</ele>
        <time>2022-05-31T16:25:15Z</time>
      </trkpt>
      <trkpt lat="49.26968" lon="-0.22106">
        <ele>3.3</ele>
        <time>2022-05-31T16:25:16Z</time>
      </trkpt>
      <trkpt lat="49.26969" lon="-0.22104">
        <ele>3.3</ele>
        <time>2022-05-31T16:25:17Z</time>
      </trkpt>
      <trkpt lat="49.26971" lon="-0.22102">
        <ele>3.3</ele>
        <time>2022-05-31T16:25:18Z</time>
      </trkpt>
      <trkpt lat="49.26972" lon="-0.22102">
        <ele>3.3</ele>
        <time>2022-05-31T16:25:19Z</time>
      </trkpt>
      <trkpt lat="49.26973" lon="-0.22102">
        <ele>3.3</ele>
        <time>2022-05-31T16:25:20Z</time>
      </trkpt>
      <trkpt lat="49.26973" lon="-0.22102">
        <ele>3.3</ele>
        <time>2022-05-31T16:25:21Z</time>
      </trkpt>
      <trkpt lat="49.26974" lon="-0.22102">
        <ele>3.3</ele>
        <time>2022-05-31T16:25:22Z</time>
      </trkpt>
      <trkpt lat="49.26974" lon="-0.22102">
        <ele>3.3</ele>
        <time>2022-05-31T16:25:23Z</time>
      </trkpt>
      <trkpt lat="49.26974" lon="-0.22099">
        <ele>3.3</ele>
        <time>2022-05-31T16:25:25Z</time>
      </trkpt>
      <trkpt lat="49.26974" lon="-0.22098">
        <ele>3.3</ele>
        <time>2022-05-31T16:25:26Z</time>
      </trkpt>
      <trkpt lat="49.26975" lon="-0.22096">
        <ele>3.3</ele>
        <time>2022-05-31T16:25:27Z</time>
      </trkpt>
      <trkpt lat="49.26976" lon="-0.22095">
        <ele>3.3</ele>
        <time>2022-05-31T16:25:28Z</time>
      </trkpt>
      <trkpt lat="49.26977" lon="-0.22094">
        <ele>3.3</ele>
        <time>2022-05-31T16:25:29Z</time>
      </trkpt>
      <trkpt lat="49.26978" lon="-0.22091">
        <ele>3.3</ele>
        <time>2022-05-31T16:25:30Z</time>
      </trkpt>
      <trkpt lat="49.26978" lon="-0.22089">
        <ele>3.3</ele>
        <time>2022-05-31T16:25:32Z</time>
      </trkpt>
      <trkpt lat="49.26978" lon="-0.22088">
        <ele>3.3</ele>
        <time>2022-05-31T16:25:33Z</time>
      </trkpt>
      <trkpt lat="49.26979" lon="-0.22087">
        <ele>3.3</ele>
        <time>2022-05-31T16:25:34Z</time>
      </trkpt>
      <trkpt lat="49.2698" lon="-0.22085">
        <ele>3.3</ele>
        <time>2022-05-31T16:25:35Z</time>
      </trkpt>
      <trkpt lat="49.26981" lon="-0.22084">
        <ele>3.3</ele>
        <time>2022-05-31T16:25:36Z</time>
      </trkpt>
      <trkpt lat="49.26982" lon="-0.22082">
        <ele>3.3</ele>
        <time>2022-05-31T16:25:37Z</time>
      </trkpt>
      <trkpt lat="49.26983" lon="-0.22081">
        <ele>3.3</ele>
        <time>2022-05-31T16:25:39Z</time>
      </trkpt>
      <trkpt lat="49.26984" lon="-0.22079">
        <ele>3.3</ele>
        <time>2022-05-31T16:25:40Z</time>
      </trkpt>
      <trkpt lat="49.26985" lon="-0.22078">
        <ele>3.3</ele>
        <time>2022-05-31T16:25:41Z</time>
      </trkpt>
      <trkpt lat="49.26985" lon="-0.22077">
        <ele>3.3</ele>
        <time>2022-05-31T16:25:42Z</time>
      </trkpt>
      <trkpt lat="49.26986" lon="-0.22075">
        <ele>3.3</ele>
        <time>2022-05-31T16:25:43Z</time>
      </trkpt>
      <trkpt lat="49.26987" lon="-0.22073">
        <ele>3.3</ele>
        <time>2022-05-31T16:25:45Z</time>
      </trkpt>
      <trkpt lat="49.26987" lon="-0.22072">
        <ele>3.3</ele>
        <time>2022-05-31T16:25:46Z</time>
      </trkpt>
      <trkpt lat="49.26988" lon="-0.22071">
        <ele>3.3</ele>
        <time>2022-05-31T16:25:47Z</time>
      </trkpt>
      <trkpt lat="49.26988" lon="-0.2207">
        <ele>3.3</ele>
        <time>2022-05-31T16:25:48Z</time>
      </trkpt>
      <trkpt lat="49.2699" lon="-0.22067">
        <ele>3.3</ele>
        <time>2022-05-31T16:25:50Z</time>
      </trkpt>
      <trkpt lat="49.2699" lon="-0.22065">
        <ele>3.2</ele>
        <time>2022-05-31T16:25:51Z</time>
      </trkpt>
      <trkpt lat="49.26991" lon="-0.22064">
        <ele>3.2</ele>
        <time>2022-05-31T16:25:52Z</time>
      </trkpt>
      <trkpt lat="49.26992" lon="-0.22064">
        <ele>3.2</ele>
        <time>2022-05-31T16:25:53Z</time>
      </trkpt>
      <trkpt lat="49.26992" lon="-0.22063">
        <ele>3.2</ele>
        <time>2022-05-31T16:25:54Z</time>
      </trkpt>
      <trkpt lat="49.26992" lon="-0.22061">
        <ele>3.2</ele>
        <time>2022-05-31T16:25:55Z</time>
      </trkpt>
      <trkpt lat="49.26993" lon="-0.2206">
        <ele>3.2</ele>
        <time>2022-05-31T16:25:57Z</time>
      </trkpt>
      <trkpt lat="49.26993" lon="-0.22058">
        <ele>3.2</ele>
        <time>2022-05-31T16:25:58Z</time>
      </trkpt>
      <trkpt lat="49.26993" lon="-0.22057">
        <ele>3.2</ele>
        <time>2022-05-31T16:25:59Z</time>
      </trkpt>
      <trkpt lat="49.26993" lon="-0.22056">
        <ele>3.2</ele>
        <time>2022-05-31T16:26:00Z</time>
      </trkpt>
      <trkpt lat="49.26994" lon="-0.22055">
        <ele>3.2</ele>
        <time>2022-05-31T16:26:01Z</time>
      </trkpt>
      <trkpt lat="49.26994" lon="-0.22054">
        <ele>3.2</ele>
        <time>2022-05-31T16:26:02Z</time>
      </trkpt>
      <trkpt lat="49.26995" lon="-0.22053">
        <ele>3.2</ele>
        <time>2022-05-31T16:26:03Z</time>
      </trkpt>
      <trkpt lat="49.26996" lon="-0.22052">
        <ele>3.2</ele>
        <time>2022-05-31T16:26:05Z</time>
      </trkpt>
      <trkpt lat="49.26996" lon="-0.22051">
        <ele>3.2</ele>
        <time>2022-05-31T16:26:06Z</time>
      </trkpt>
      <trkpt lat="49.26997" lon="-0.22051">
        <ele>3.2</ele>
        <time>2022-05-31T16:26:07Z</time>
      </trkpt>
      <trkpt lat="49.26998" lon="-0.2205">
        <ele>3.2</ele>
        <time>2022-05-31T16:26:08Z</time>
      </trkpt>
      <trkpt lat="49.26999" lon="-0.22048">
        <ele>3.2</ele>
        <time>2022-05-31T16:26:10Z</time>
      </trkpt>
      <trkpt lat="49.27" lon="-0.22048">
        <ele>3.2</ele>
        <time>2022-05-31T16:26:11Z</time>
      </trkpt>
      <trkpt lat="49.27" lon="-0.22046">
        <ele>3.2</ele>
        <time>2022-05-31T16:26:12Z</time>
      </trkpt>
      <trkpt lat="49.27001" lon="-0.22045">
        <ele>3.2</ele>
        <time>2022-05-31T16:26:14Z</time>
      </trkpt>
      <trkpt lat="49.27001" lon="-0.22043">
        <ele>3.2</ele>
        <time>2022-05-31T16:26:15Z</time>
      </trkpt>
      <trkpt lat="49.27002" lon="-0.22044">
        <ele>3.2</ele>
        <time>2022-05-31T16:26:16Z</time>
      </trkpt>
      <trkpt lat="49.27002" lon="-0.22044">
        <ele>3.2</ele>
        <time>2022-05-31T16:26:18Z</time>
      </trkpt>
      <trkpt lat="49.27003" lon="-0.22044">
        <ele>3.2</ele>
        <time>2022-05-31T16:26:19Z</time>
      </trkpt>
      <trkpt lat="49.27004" lon="-0.22043">
        <ele>3.2</ele>
        <time>2022-05-31T16:26:20Z</time>
      </trkpt>
      <trkpt lat="49.27005" lon="-0.22042">
        <ele>3.2</ele>
        <time>2022-05-31T16:26:21Z</time>
      </trkpt>
      <trkpt lat="49.27007" lon="-0.22041">
        <ele>3.2</ele>
        <time>2022-05-31T16:26:22Z</time>
      </trkpt>
      <trkpt lat="49.27008" lon="-0.2204">
        <ele>3.2</ele>
        <time>2022-05-31T16:26:24Z</time>
      </trkpt>
      <trkpt lat="49.27009" lon="-0.2204">
        <ele>3.2</ele>
        <time>2022-05-31T16:26:25Z</time>
      </trkpt>
      <trkpt lat="49.27009" lon="-0.22039">
        <ele>3.2</ele>
        <time>2022-05-31T16:26:26Z</time>
      </trkpt>
      <trkpt lat="49.27011" lon="-0.22037">
        <ele>3.2</ele>
        <time>2022-05-31T16:26:28Z</time>
      </trkpt>
      <trkpt lat="49.27012" lon="-0.22036">
        <ele>3.2</ele>
        <time>2022-05-31T16:26:29Z</time>
      </trkpt>
      <trkpt lat="49.27013" lon="-0.22034">
        <ele>3.2</ele>
        <time>2022-05-31T16:26:30Z</time>
      </trkpt>
      <trkpt lat="49.27014" lon="-0.22033">
        <ele>3.2</ele>
        <time>2022-05-31T16:26:31Z</time>
      </trkpt>
      <trkpt lat="49.27015" lon="-0.22032">
        <ele>3.2</ele>
        <time>2022-05-31T16:26:32Z</time>
      </trkpt>
      <trkpt lat="49.27016" lon="-0.22031">
        <ele>3.2</ele>
        <time>2022-05-31T16:26:33Z</time>
      </trkpt>
      <trkpt lat="49.27017" lon="-0.2203">
        <ele>3.2</ele>
        <time>2022-05-31T16:26:34Z</time>
      </trkpt>
      <trkpt lat="49.27018" lon="-0.22029">
        <ele>3.2</ele>
        <time>2022-05-31T16:26:36Z</time>
      </trkpt>
      <trkpt lat="49.2702" lon="-0.22028">
        <ele>3.2</ele>
        <time>2022-05-31T16:26:37Z</time>
      </trkpt>
      <trkpt lat="49.27021" lon="-0.22026">
        <ele>3.2</ele>
        <time>2022-05-31T16:26:38Z</time>
      </trkpt>
      <trkpt lat="49.27024" lon="-0.22024">
        <ele>3.2</ele>
        <time>2022-05-31T16:26:39Z</time>
      </trkpt>
      <trkpt lat="49.27024" lon="-0.22023">
        <ele>3.2</ele>
        <time>2022-05-31T16:26:40Z</time>
      </trkpt>
      <trkpt lat="49.27026" lon="-0.22022">
        <ele>3.2</ele>
        <time>2022-05-31T16:26:41Z</time>
      </trkpt>
      <trkpt lat="49.27027" lon="-0.22021">
        <ele>3.2</ele>
        <time>2022-05-31T16:26:42Z</time>
      </trkpt>
      <trkpt lat="49.27028" lon="-0.22019">
        <ele>3.2</ele>
        <time>2022-05-31T16:26:44Z</time>
      </trkpt>
      <trkpt lat="49.27029" lon="-0.22018">
        <ele>3.2</ele>
        <time>2022-05-31T16:26:45Z</time>
      </trkpt>
      <trkpt lat="49.2703" lon="-0.22017">
        <ele>3.2</ele>
        <time>2022-05-31T16:26:46Z</time>
      </trkpt>
      <trkpt lat="49.27031" lon="-0.22015">
        <ele>3.2</ele>
        <time>2022-05-31T16:26:47Z</time>
      </trkpt>
      <trkpt lat="49.27033" lon="-0.22013">
        <ele>3.2</ele>
        <time>2022-05-31T16:26:48Z</time>
      </trkpt>
      <trkpt lat="49.27034" lon="-0.22012">
        <ele>3.2</ele>
        <time>2022-05-31T16:26:49Z</time>
      </trkpt>
      <trkpt lat="49.27035" lon="-0.22011">
        <ele>3.2</ele>
        <time>2022-05-31T16:26:51Z</time>
      </trkpt>
      <trkpt lat="49.27036" lon="-0.2201">
        <ele>3.2</ele>
        <time>2022-05-31T16:26:52Z</time>
      </trkpt>
      <trkpt lat="49.27037" lon="-0.2201">
        <ele>3.2</ele>
        <time>2022-05-31T16:26:53Z</time>
      </trkpt>
      <trkpt lat="49.27037" lon="-0.22009">
        <ele>3.2</ele>
        <time>2022-05-31T16:26:54Z</time>
      </trkpt>
      <trkpt lat="49.27038" lon="-0.22008">
        <ele>3.2</ele>
        <time>2022-05-31T16:26:55Z</time>
      </trkpt>
      <trkpt lat="49.27039" lon="-0.22007">
        <ele>3.2</ele>
        <time>2022-05-31T16:26:56Z</time>
      </trkpt>
      <trkpt lat="49.2704" lon="-0.22006">
        <ele>3.2</ele>
        <time>2022-05-31T16:26:57Z</time>
      </trkpt>
      <trkpt lat="49.27042" lon="-0.22003">
        <ele>3.2</ele>
        <time>2022-05-31T16:26:59Z</time>
      </trkpt>
      <trkpt lat="49.27042" lon="-0.22003">
        <ele>3.2</ele>
        <time>2022-05-31T16:27:00Z</time>
      </trkpt>
      <trkpt lat="49.27042" lon="-0.22002">
        <ele>3.2</ele>
        <time>2022-05-31T16:27:01Z</time>
      </trkpt>
      <trkpt lat="49.27043" lon="-0.22">
        <ele>3.2</ele>
        <time>2022-05-31T16:27:02Z</time>
      </trkpt>
      <trkpt lat="49.27044" lon="-0.21998">
        <ele>3.2</ele>
        <time>2022-05-31T16:27:03Z</time>
      </trkpt>
      <trkpt lat="49.27044" lon="-0.21997">
        <ele>3.2</ele>
        <time>2022-05-31T16:27:04Z</time>
      </trkpt>
      <trkpt lat="49.27044" lon="-0.21995">
        <ele>3.2</ele>
        <time>2022-05-31T16:27:05Z</time>
      </trkpt>
      <trkpt lat="49.27044" lon="-0.21994">
        <ele>3.2</ele>
        <time>2022-05-31T16:27:07Z</time>
      </trkpt>
      <trkpt lat="49.27044" lon="-0.21992">
        <ele>3.2</ele>
        <time>2022-05-31T16:27:08Z</time>
      </trkpt>
      <trkpt lat="49.27046" lon="-0.2199">
        <ele>3.2</ele>
        <time>2022-05-31T16:27:09Z</time>
      </trkpt>
      <trkpt lat="49.27047" lon="-0.21989">
        <ele>3.2</ele>
        <time>2022-05-31T16:27:10Z</time>
      </trkpt>
      <trkpt lat="49.27047" lon="-0.21988">
        <ele>3.2</ele>
        <time>2022-05-31T16:27:11Z</time>
      </trkpt>
      <trkpt lat="49.27048" lon="-0.21987">
        <ele>3.2</ele>
        <time>2022-05-31T16:27:12Z</time>
      </trkpt>
      <trkpt lat="49.27049" lon="-0.21986">
        <ele>3.2</ele>
        <time>2022-05-31T16:27:13Z</time>
      </trkpt>
      <trkpt lat="49.2705" lon="-0.21985">
        <ele>3.2</ele>
        <time>2022-05-31T16:27:15Z</time>
      </trkpt>
      <trkpt lat="49.2705" lon="-0.21984">
        <ele>3.2</ele>
        <time>2022-05-31T16:27:16Z</time>
      </trkpt>
      <trkpt lat="49.27051" lon="-0.21982">
        <ele>3.2</ele>
        <time>2022-05-31T16:27:17Z</time>
      </trkpt>
      <trkpt lat="49.27053" lon="-0.21982">
        <ele>3.2</ele>
        <time>2022-05-31T16:27:18Z</time>
      </trkpt>
      <trkpt lat="49.27054" lon="-0.2198">
        <ele>3.2</ele>
        <time>2022-05-31T16:27:19Z</time>
      </trkpt>
      <trkpt lat="49.27054" lon="-0.21979">
        <ele>3.2</ele>
        <time>2022-05-31T16:27:20Z</time>
      </trkpt>
      <trkpt lat="49.27055" lon="-0.21978">
        <ele>3.2</ele>
        <time>2022-05-31T16:27:22Z</time>
      </trkpt>
      <trkpt lat="49.27055" lon="-0.21978">
        <ele>3.2</ele>
        <time>2022-05-31T16:27:23Z</time>
      </trkpt>
      <trkpt lat="49.27055" lon="-0.21977">
        <ele>3.2</ele>
        <time>2022-05-31T16:27:24Z</time>
      </trkpt>
      <trkpt lat="49.27056" lon="-0.21977">
        <ele>3.2</ele>
        <time>2022-05-31T16:27:25Z</time>
      </trkpt>
      <trkpt lat="49.27057" lon="-0.21977">
        <ele>3.3</ele>
        <time>2022-05-31T16:27:26Z</time>
      </trkpt>
      <trkpt lat="49.27057" lon="-0.21977">
        <ele>3.3</ele>
        <time>2022-05-31T16:27:27Z</time>
      </trkpt>
      <trkpt lat="49.27059" lon="-0.21978">
        <ele>3.3</ele>
        <time>2022-05-31T16:27:29Z</time>
      </trkpt>
      <trkpt lat="49.2706" lon="-0.21978">
        <ele>3.3</ele>
        <time>2022-05-31T16:27:31Z</time>
      </trkpt>
      <trkpt lat="49.2706" lon="-0.21977">
        <ele>3.3</ele>
        <time>2022-05-31T16:27:32Z</time>
      </trkpt>
      <trkpt lat="49.2706" lon="-0.21978">
        <ele>3.3</ele>
        <time>2022-05-31T16:27:33Z</time>
      </trkpt>
      <trkpt lat="49.2706" lon="-0.21978">
        <ele>3.3</ele>
        <time>2022-05-31T16:27:34Z</time>
      </trkpt>
      <trkpt lat="49.2706" lon="-0.21978">
        <ele>3.3</ele>
        <time>2022-05-31T16:27:35Z</time>
      </trkpt>
      <trkpt lat="49.2706" lon="-0.21978">
        <ele>3.3</ele>
        <time>2022-05-31T16:27:36Z</time>
      </trkpt>
      <trkpt lat="49.27059" lon="-0.21978">
        <ele>3.3</ele>
        <time>2022-05-31T16:27:37Z</time>
      </trkpt>
      <trkpt lat="49.27059" lon="-0.21978">
        <ele>3.3</ele>
        <time>2022-05-31T16:27:38Z</time>
      </trkpt>
      <trkpt lat="49.27059" lon="-0.21978">
        <ele>3.3</ele>
        <time>2022-05-31T16:27:39Z</time>
      </trkpt>
      <trkpt lat="49.27058" lon="-0.21978">
        <ele>3.3</ele>
        <time>2022-05-31T16:27:40Z</time>
      </trkpt>
      <trkpt lat="49.27059" lon="-0.21977">
        <ele>3.3</ele>
        <time>2022-05-31T16:27:42Z</time>
      </trkpt>
      <trkpt lat="49.2706" lon="-0.21975">
        <ele>3.3</ele>
        <time>2022-05-31T16:27:43Z</time>
      </trkpt>
      <trkpt lat="49.27061" lon="-0.21973">
        <ele>3.3</ele>
        <time>2022-05-31T16:27:45Z</time>
      </trkpt>
      <trkpt lat="49.27063" lon="-0.21971">
        <ele>3.3</ele>
        <time>2022-05-31T16:27:46Z</time>
      </trkpt>
      <trkpt lat="49.27064" lon="-0.2197">
        <ele>3.3</ele>
        <time>2022-05-31T16:27:47Z</time>
      </trkpt>
      <trkpt lat="49.27066" lon="-0.21968">
        <ele>3.3</ele>
        <time>2022-05-31T16:27:49Z</time>
      </trkpt>
      <trkpt lat="49.27066" lon="-0.21967">
        <ele>3.3</ele>
        <time>2022-05-31T16:27:50Z</time>
      </trkpt>
      <trkpt lat="49.27068" lon="-0.21965">
        <ele>3.3</ele>
        <time>2022-05-31T16:27:51Z</time>
      </trkpt>
      <trkpt lat="49.27069" lon="-0.21964">
        <ele>3.3</ele>
        <time>2022-05-31T16:27:53Z</time>
      </trkpt>
      <trkpt lat="49.2707" lon="-0.21964">
        <ele>3.3</ele>
        <time>2022-05-31T16:27:54Z</time>
      </trkpt>
      <trkpt lat="49.2707" lon="-0.21963">
        <ele>3.3</ele>
        <time>2022-05-31T16:27:55Z</time>
      </trkpt>
      <trkpt lat="49.27071" lon="-0.21963">
        <ele>3.3</ele>
        <time>2022-05-31T16:27:56Z</time>
      </trkpt>
      <trkpt lat="49.27071" lon="-0.21962">
        <ele>3.3</ele>
        <time>2022-05-31T16:27:57Z</time>
      </trkpt>
      <trkpt lat="49.27071" lon="-0.21962">
        <ele>3.3</ele>
        <time>2022-05-31T16:27:58Z</time>
      </trkpt>
      <trkpt lat="49.27071" lon="-0.21962">
        <ele>3.3</ele>
        <time>2022-05-31T16:27:59Z</time>
      </trkpt>
      <trkpt lat="49.27071" lon="-0.21962">
        <ele>3.3</ele>
        <time>2022-05-31T16:28:00Z</time>
      </trkpt>
      <trkpt lat="49.27071" lon="-0.21962">
        <ele>3.3</ele>
        <time>2022-05-31T16:28:01Z</time>
      </trkpt>
      <trkpt lat="49.27071" lon="-0.21962">
        <ele>3.3</ele>
        <time>2022-05-31T16:28:02Z</time>
      </trkpt>
      <trkpt lat="49.27071" lon="-0.21961">
        <ele>3.3</ele>
        <time>2022-05-31T16:28:03Z</time>
      </trkpt>
      <trkpt lat="49.27072" lon="-0.21961">
        <ele>3.3</ele>
        <time>2022-05-31T16:28:05Z</time>
      </trkpt>
      <trkpt lat="49.27072" lon="-0.21961">
        <ele>3.3</ele>
        <time>2022-05-31T16:28:06Z</time>
      </trkpt>
      <trkpt lat="49.27072" lon="-0.21961">
        <ele>3.3</ele>
        <time>2022-05-31T16:28:07Z</time>
      </trkpt>
      <trkpt lat="49.27072" lon="-0.21961">
        <ele>3.3</ele>
        <time>2022-05-31T16:28:08Z</time>
      </trkpt>
      <trkpt lat="49.27072" lon="-0.21961">
        <ele>3.3</ele>
        <time>2022-05-31T16:28:09Z</time>
      </trkpt>
      <trkpt lat="49.27072" lon="-0.2196">
        <ele>3.3</ele>
        <time>2022-05-31T16:28:10Z</time>
      </trkpt>
      <trkpt lat="49.27072" lon="-0.2196">
        <ele>3.3</ele>
        <time>2022-05-31T16:28:11Z</time>
      </trkpt>
      <trkpt lat="49.27072" lon="-0.2196">
        <ele>3.3</ele>
        <time>2022-05-31T16:28:13Z</time>
      </trkpt>
      <trkpt lat="49.27073" lon="-0.2196">
        <ele>3.3</ele>
        <time>2022-05-31T16:28:14Z</time>
      </trkpt>
      <trkpt lat="49.27073" lon="-0.2196">
        <ele>3.3</ele>
        <time>2022-05-31T16:28:15Z</time>
      </trkpt>
      <trkpt lat="49.27073" lon="-0.21959">
        <ele>3.3</ele>
        <time>2022-05-31T16:28:16Z</time>
      </trkpt>
      <trkpt lat="49.27074" lon="-0.21958">
        <ele>3.3</ele>
        <time>2022-05-31T16:28:17Z</time>
      </trkpt>
      <trkpt lat="49.27075" lon="-0.21956">
        <ele>3.3</ele>
        <time>2022-05-31T16:28:19Z</time>
      </trkpt>
      <trkpt lat="49.27076" lon="-0.21955">
        <ele>3.3</ele>
        <time>2022-05-31T16:28:20Z</time>
      </trkpt>
      <trkpt lat="49.27077" lon="-0.21954">
        <ele>3.3</ele>
        <time>2022-05-31T16:28:21Z</time>
      </trkpt>
      <trkpt lat="49.27078" lon="-0.21954">
        <ele>3.3</ele>
        <time>2022-05-31T16:28:22Z</time>
      </trkpt>
      <trkpt lat="49.2708" lon="-0.21953">
        <ele>3.3</ele>
        <time>2022-05-31T16:28:24Z</time>
      </trkpt>
      <trkpt lat="49.27081" lon="-0.21952">
        <ele>3.3</ele>
        <time>2022-05-31T16:28:25Z</time>
      </trkpt>
      <trkpt lat="49.27082" lon="-0.21951">
        <ele>3.3</ele>
        <time>2022-05-31T16:28:26Z</time>
      </trkpt>
      <trkpt lat="49.27083" lon="-0.2195">
        <ele>3.3</ele>
        <time>2022-05-31T16:28:28Z</time>
      </trkpt>
      <trkpt lat="49.27084" lon="-0.21949">
        <ele>3.3</ele>
        <time>2022-05-31T16:28:29Z</time>
      </trkpt>
      <trkpt lat="49.27085" lon="-0.21949">
        <ele>3.3</ele>
        <time>2022-05-31T16:28:31Z</time>
      </trkpt>
      <trkpt lat="49.27086" lon="-0.21948">
        <ele>3.3</ele>
        <time>2022-05-31T16:28:32Z</time>
      </trkpt>
      <trkpt lat="49.27087" lon="-0.21948">
        <ele>3.3</ele>
        <time>2022-05-31T16:28:33Z</time>
      </trkpt>
      <trkpt lat="49.27088" lon="-0.21947">
        <ele>3.3</ele>
        <time>2022-05-31T16:28:34Z</time>
      </trkpt>
      <trkpt lat="49.27088" lon="-0.21946">
        <ele>3.3</ele>
        <time>2022-05-31T16:28:36Z</time>
      </trkpt>
      <trkpt lat="49.27089" lon="-0.21945">
        <ele>3.3</ele>
        <time>2022-05-31T16:28:37Z</time>
      </trkpt>
      <trkpt lat="49.2709" lon="-0.21945">
        <ele>3.3</ele>
        <time>2022-05-31T16:28:38Z</time>
      </trkpt>
      <trkpt lat="49.27091" lon="-0.21944">
        <ele>3.3</ele>
        <time>2022-05-31T16:28:39Z</time>
      </trkpt>
      <trkpt lat="49.27093" lon="-0.21943">
        <ele>3.3</ele>
        <time>2022-05-31T16:28:41Z</time>
      </trkpt>
      <trkpt lat="49.27093" lon="-0.21942">
        <ele>3.3</ele>
        <time>2022-05-31T16:28:42Z</time>
      </trkpt>
      <trkpt lat="49.27094" lon="-0.21941">
        <ele>3.3</ele>
        <time>2022-05-31T16:28:43Z</time>
      </trkpt>
      <trkpt lat="49.27093" lon="-0.21941">
        <ele>3.3</ele>
        <time>2022-05-31T16:28:44Z</time>
      </trkpt>
      <trkpt lat="49.27092" lon="-0.21941">
        <ele>3.3</ele>
        <time>2022-05-31T16:28:46Z</time>
      </trkpt>
      <trkpt lat="49.27091" lon="-0.21941">
        <ele>3.3</ele>
        <time>2022-05-31T16:28:47Z</time>
      </trkpt>
      <trkpt lat="49.27091" lon="-0.2194">
        <ele>3.3</ele>
        <time>2022-05-31T16:28:48Z</time>
      </trkpt>
      <trkpt lat="49.27091" lon="-0.2194">
        <ele>3.3</ele>
        <time>2022-05-31T16:28:49Z</time>
      </trkpt>
      <trkpt lat="49.27091" lon="-0.21939">
        <ele>3.3</ele>
        <time>2022-05-31T16:28:50Z</time>
      </trkpt>
      <trkpt lat="49.2709" lon="-0.21939">
        <ele>3.3</ele>
        <time>2022-05-31T16:28:51Z</time>
      </trkpt>
      <trkpt lat="49.2709" lon="-0.21939">
        <ele>3.3</ele>
        <time>2022-05-31T16:28:52Z</time>
      </trkpt>
      <trkpt lat="49.2709" lon="-0.21939">
        <ele>3.3</ele>
        <time>2022-05-31T16:28:53Z</time>
      </trkpt>
      <trkpt lat="49.2709" lon="-0.21939">
        <ele>3.3</ele>
        <time>2022-05-31T16:28:54Z</time>
      </trkpt>
      <trkpt lat="49.2709" lon="-0.21938">
        <ele>3.3</ele>
        <time>2022-05-31T16:28:56Z</time>
      </trkpt>
      <trkpt lat="49.2709" lon="-0.21938">
        <ele>3.3</ele>
        <time>2022-05-31T16:28:57Z</time>
      </trkpt>
      <trkpt lat="49.2709" lon="-0.21938">
        <ele>3.3</ele>
        <time>2022-05-31T16:28:58Z</time>
      </trkpt>
      <trkpt lat="49.2709" lon="-0.21938">
        <ele>3.3</ele>
        <time>2022-05-31T16:28:59Z</time>
      </trkpt>
      <trkpt lat="49.2709" lon="-0.21938">
        <ele>3.3</ele>
        <time>2022-05-31T16:29:00Z</time>
      </trkpt>
      <trkpt lat="49.2709" lon="-0.21938">
        <ele>3.3</ele>
        <time>2022-05-31T16:29:01Z</time>
      </trkpt>
      <trkpt lat="49.2709" lon="-0.21938">
        <ele>3.3</ele>
        <time>2022-05-31T16:29:02Z</time>
      </trkpt>
      <trkpt lat="49.2709" lon="-0.21938">
        <ele>3.3</ele>
        <time>2022-05-31T16:29:03Z</time>
      </trkpt>
      <trkpt lat="49.2709" lon="-0.21939">
        <ele>3.3</ele>
        <time>2022-05-31T16:29:04Z</time>
      </trkpt>
      <trkpt lat="49.2709" lon="-0.21939">
        <ele>3.3</ele>
        <time>2022-05-31T16:29:05Z</time>
      </trkpt>
      <trkpt lat="49.2709" lon="-0.21939">
        <ele>3.3</ele>
        <time>2022-05-31T16:29:06Z</time>
      </trkpt>
      <trkpt lat="49.2709" lon="-0.21939">
        <ele>3.3</ele>
        <time>2022-05-31T16:29:07Z</time>
      </trkpt>
      <trkpt lat="49.2709" lon="-0.21939">
        <ele>3.3</ele>
        <time>2022-05-31T16:29:08Z</time>
      </trkpt>
      <trkpt lat="49.2709" lon="-0.21939">
        <ele>3.3</ele>
        <time>2022-05-31T16:29:09Z</time>
      </trkpt>
      <trkpt lat="49.2709" lon="-0.21939">
        <ele>3.3</ele>
        <time>2022-05-31T16:29:10Z</time>
      </trkpt>
      <trkpt lat="49.2709" lon="-0.21939">
        <ele>3.3</ele>
        <time>2022-05-31T16:29:11Z</time>
      </trkpt>
      <trkpt lat="49.2709" lon="-0.21939">
        <ele>3.3</ele>
        <time>2022-05-31T16:29:12Z</time>
      </trkpt>
      <trkpt lat="49.2709" lon="-0.21939">
        <ele>3.3</ele>
        <time>2022-05-31T16:29:13Z</time>
      </trkpt>
      <trkpt lat="49.2709" lon="-0.21939">
        <ele>3.3</ele>
        <time>2022-05-31T16:29:14Z</time>
      </trkpt>
      <trkpt lat="49.2709" lon="-0.21939">
        <ele>3.3</ele>
        <time>2022-05-31T16:29:15Z</time>
      </trkpt>
      <trkpt lat="49.2709" lon="-0.21939">
        <ele>3.3</ele>
        <time>2022-05-31T16:29:16Z</time>
      </trkpt>
      <trkpt lat="49.2709" lon="-0.21939">
        <ele>3.3</ele>
        <time>2022-05-31T16:29:17Z</time>
      </trkpt>
      <trkpt lat="49.2709" lon="-0.21939">
        <ele>3.3</ele>
        <time>2022-05-31T16:29:18Z</time>
      </trkpt>
      <trkpt lat="49.2709" lon="-0.21939">
        <ele>3.3</ele>
        <time>2022-05-31T16:29:19Z</time>
      </trkpt>
      <trkpt lat="49.2709" lon="-0.21939">
        <ele>3.3</ele>
        <time>2022-05-31T16:29:20Z</time>
      </trkpt>
      <trkpt lat="49.2709" lon="-0.21939">
        <ele>3.3</ele>
        <time>2022-05-31T16:29:21Z</time>
      </trkpt>
      <trkpt lat="49.2709" lon="-0.21939">
        <ele>3.3</ele>
        <time>2022-05-31T16:29:22Z</time>
      </trkpt>
      <trkpt lat="49.2709" lon="-0.21939">
        <ele>3.3</ele>
        <time>2022-05-31T16:29:23Z</time>
      </trkpt>
      <trkpt lat="49.2709" lon="-0.21939">
        <ele>3.3</ele>
        <time>2022-05-31T16:29:24Z</time>
      </trkpt>
      <trkpt lat="49.2709" lon="-0.21939">
        <ele>3.3</ele>
        <time>2022-05-31T16:29:25Z</time>
      </trkpt>
      <trkpt lat="49.2709" lon="-0.21939">
        <ele>3.3</ele>
        <time>2022-05-31T16:29:26Z</time>
      </trkpt>
      <trkpt lat="49.2709" lon="-0.21939">
        <ele>3.3</ele>
        <time>2022-05-31T16:29:27Z</time>
      </trkpt>
      <trkpt lat="49.2709" lon="-0.21939">
        <ele>3.3</ele>
        <time>2022-05-31T16:29:28Z</time>
      </trkpt>
      <trkpt lat="49.2709" lon="-0.21939">
        <ele>3.3</ele>
        <time>2022-05-31T16:29:29Z</time>
      </trkpt>
      <trkpt lat="49.2709" lon="-0.21939">
        <ele>3.3</ele>
        <time>2022-05-31T16:29:30Z</time>
      </trkpt>
      <trkpt lat="49.2709" lon="-0.21939">
        <ele>3.3</ele>
        <time>2022-05-31T16:29:31Z</time>
      </trkpt>
      <trkpt lat="49.2709" lon="-0.21939">
        <ele>3.3</ele>
        <time>2022-05-31T16:29:32Z</time>
      </trkpt>
      <trkpt lat="49.2709" lon="-0.21939">
        <ele>3.3</ele>
        <time>2022-05-31T16:29:33Z</time>
      </trkpt>
      <trkpt lat="49.2709" lon="-0.21939">
        <ele>3.3</ele>
        <time>2022-05-31T16:29:34Z</time>
      </trkpt>
      <trkpt lat="49.2709" lon="-0.21939">
        <ele>3.3</ele>
        <time>2022-05-31T16:29:35Z</time>
      </trkpt>
      <trkpt lat="49.2709" lon="-0.21939">
        <ele>3.3</ele>
        <time>2022-05-31T16:29:36Z</time>
      </trkpt>
      <trkpt lat="49.2709" lon="-0.21939">
        <ele>3.3</ele>
        <time>2022-05-31T16:29:37Z</time>
      </trkpt>
      <trkpt lat="49.2709" lon="-0.21939">
        <ele>3.3</ele>
        <time>2022-05-31T16:29:38Z</time>
      </trkpt>
      <trkpt lat="49.2709" lon="-0.21939">
        <ele>3.3</ele>
        <time>2022-05-31T16:29:39Z</time>
      </trkpt>
      <trkpt lat="49.2709" lon="-0.21939">
        <ele>3.3</ele>
        <time>2022-05-31T16:29:40Z</time>
      </trkpt>
      <trkpt lat="49.2709" lon="-0.21939">
        <ele>3.3</ele>
        <time>2022-05-31T16:29:41Z</time>
      </trkpt>
      <trkpt lat="49.2709" lon="-0.21939">
        <ele>3.3</ele>
        <time>2022-05-31T16:29:42Z</time>
      </trkpt>
      <trkpt lat="49.2709" lon="-0.21939">
        <ele>3.3</ele>
        <time>2022-05-31T16:29:43Z</time>
      </trkpt>
      <trkpt lat="49.2709" lon="-0.21939">
        <ele>3.3</ele>
        <time>2022-05-31T16:29:44Z</time>
      </trkpt>
      <trkpt lat="49.2709" lon="-0.21939">
        <ele>3.3</ele>
        <time>2022-05-31T16:29:45Z</time>
      </trkpt>
      <trkpt lat="49.2709" lon="-0.21939">
        <ele>3.3</ele>
        <time>2022-05-31T16:29:46Z</time>
      </trkpt>
      <trkpt lat="49.2709" lon="-0.21939">
        <ele>3.3</ele>
        <time>2022-05-31T16:29:47Z</time>
      </trkpt>
      <trkpt lat="49.2709" lon="-0.21939">
        <ele>3.3</ele>
        <time>2022-05-31T16:29:48Z</time>
      </trkpt>
      <trkpt lat="49.2709" lon="-0.21939">
        <ele>3.3</ele>
        <time>2022-05-31T16:29:49Z</time>
      </trkpt>
      <trkpt lat="49.2709" lon="-0.21939">
        <ele>3.3</ele>
        <time>2022-05-31T16:29:50Z</time>
      </trkpt>
      <trkpt lat="49.2709" lon="-0.21939">
        <ele>3.3</ele>
        <time>2022-05-31T16:29:51Z</time>
      </trkpt>
      <trkpt lat="49.2709" lon="-0.21939">
        <ele>3.3</ele>
        <time>2022-05-31T16:29:52Z</time>
      </trkpt>
      <trkpt lat="49.2709" lon="-0.21939">
        <ele>3.3</ele>
        <time>2022-05-31T16:29:53Z</time>
      </trkpt>
      <trkpt lat="49.2709" lon="-0.21939">
        <ele>3.3</ele>
        <time>2022-05-31T16:29:54Z</time>
      </trkpt>
      <trkpt lat="49.2709" lon="-0.21939">
        <ele>3.3</ele>
        <time>2022-05-31T16:29:55Z</time>
      </trkpt>
      <trkpt lat="49.2709" lon="-0.21939">
        <ele>3.3</ele>
        <time>2022-05-31T16:29:56Z</time>
      </trkpt>
      <trkpt lat="49.2709" lon="-0.21939">
        <ele>3.3</ele>
        <time>2022-05-31T16:29:57Z</time>
      </trkpt>
      <trkpt lat="49.2709" lon="-0.21939">
        <ele>3.3</ele>
        <time>2022-05-31T16:29:58Z</time>
      </trkpt>
      <trkpt lat="49.2709" lon="-0.21939">
        <ele>3.3</ele>
        <time>2022-05-31T16:29:59Z</time>
      </trkpt>
      <trkpt lat="49.2709" lon="-0.21939">
        <ele>3.3</ele>
        <time>2022-05-31T16:30:00Z</time>
      </trkpt>
      <trkpt lat="49.2709" lon="-0.21939">
        <ele>3.3</ele>
        <time>2022-05-31T16:30:01Z</time>
      </trkpt>
      <trkpt lat="49.2709" lon="-0.21939">
        <ele>3.3</ele>
        <time>2022-05-31T16:30:02Z</time>
      </trkpt>
      <trkpt lat="49.2709" lon="-0.21939">
        <ele>3.3</ele>
        <time>2022-05-31T16:30:03Z</time>
      </trkpt>
      <trkpt lat="49.2709" lon="-0.21939">
        <ele>3.3</ele>
        <time>2022-05-31T16:30:04Z</time>
      </trkpt>
      <trkpt lat="49.2709" lon="-0.21939">
        <ele>3.3</ele>
        <time>2022-05-31T16:30:05Z</time>
      </trkpt>
      <trkpt lat="49.2709" lon="-0.21939">
        <ele>3.3</ele>
        <time>2022-05-31T16:30:06Z</time>
      </trkpt>
      <trkpt lat="49.2709" lon="-0.21939">
        <ele>3.3</ele>
        <time>2022-05-31T16:30:07Z</time>
      </trkpt>
      <trkpt lat="49.2709" lon="-0.21939">
        <ele>3.3</ele>
        <time>2022-05-31T16:30:08Z</time>
      </trkpt>
      <trkpt lat="49.2709" lon="-0.21939">
        <ele>3.3</ele>
        <time>2022-05-31T16:30:09Z</time>
      </trkpt>
      <trkpt lat="49.2709" lon="-0.21939">
        <ele>3.3</ele>
        <time>2022-05-31T16:30:10Z</time>
      </trkpt>
      <trkpt lat="49.2709" lon="-0.21939">
        <ele>3.3</ele>
        <time>2022-05-31T16:30:11Z</time>
      </trkpt>
      <trkpt lat="49.2709" lon="-0.21939">
        <ele>3.3</ele>
        <time>2022-05-31T16:30:12Z</time>
      </trkpt>
      <trkpt lat="49.2709" lon="-0.21939">
        <ele>3.3</ele>
        <time>2022-05-31T16:30:13Z</time>
      </trkpt>
      <trkpt lat="49.2709" lon="-0.21939">
        <ele>3.3</ele>
        <time>2022-05-31T16:30:14Z</time>
      </trkpt>
      <trkpt lat="49.2709" lon="-0.21939">
        <ele>3.3</ele>
        <time>2022-05-31T16:30:15Z</time>
      </trkpt>
      <trkpt lat="49.2709" lon="-0.21939">
        <ele>3.3</ele>
        <time>2022-05-31T16:30:16Z</time>
      </trkpt>
      <trkpt lat="49.2709" lon="-0.21939">
        <ele>3.3</ele>
        <time>2022-05-31T16:30:17Z</time>
      </trkpt>
      <trkpt lat="49.2709" lon="-0.21939">
        <ele>3.3</ele>
        <time>2022-05-31T16:30:18Z</time>
      </trkpt>
      <trkpt lat="49.2709" lon="-0.21939">
        <ele>3.3</ele>
        <time>2022-05-31T16:30:19Z</time>
      </trkpt>
      <trkpt lat="49.2709" lon="-0.21939">
        <ele>3.3</ele>
        <time>2022-05-31T16:30:20Z</time>
      </trkpt>
      <trkpt lat="49.2709" lon="-0.21939">
        <ele>3.3</ele>
        <time>2022-05-31T16:30:21Z</time>
      </trkpt>
      <trkpt lat="49.27091" lon="-0.2194">
        <ele>3.3</ele>
        <time>2022-05-31T16:30:22Z</time>
      </trkpt>
      <trkpt lat="49.27093" lon="-0.21942">
        <ele>3.3</ele>
        <time>2022-05-31T16:30:23Z</time>
      </trkpt>
      <trkpt lat="49.27093" lon="-0.21943">
        <ele>3.3</ele>
        <time>2022-05-31T16:30:24Z</time>
      </trkpt>
      <trkpt lat="49.27094" lon="-0.21943">
        <ele>3.3</ele>
        <time>2022-05-31T16:30:25Z</time>
      </trkpt>
      <trkpt lat="49.27095" lon="-0.21942">
        <ele>3.3</ele>
        <time>2022-05-31T16:30:27Z</time>
      </trkpt>
      <trkpt lat="49.27095" lon="-0.21942">
        <ele>3.3</ele>
        <time>2022-05-31T16:30:28Z</time>
      </trkpt>
      <trkpt lat="49.27095" lon="-0.21941">
        <ele>3.3</ele>
        <time>2022-05-31T16:30:29Z</time>
      </trkpt>
      <trkpt lat="49.27095" lon="-0.21941">
        <ele>3.3</ele>
        <time>2022-05-31T16:30:30Z</time>
      </trkpt>
      <trkpt lat="49.27095" lon="-0.21941">
        <ele>3.3</ele>
        <time>2022-05-31T16:30:31Z</time>
      </trkpt>
      <trkpt lat="49.27096" lon="-0.21941">
        <ele>3.3</ele>
        <time>2022-05-31T16:30:32Z</time>
      </trkpt>
      <trkpt lat="49.27096" lon="-0.21941">
        <ele>3.3</ele>
        <time>2022-05-31T16:30:33Z</time>
      </trkpt>
      <trkpt lat="49.27096" lon="-0.21941">
        <ele>3.3</ele>
        <time>2022-05-31T16:30:34Z</time>
      </trkpt>
      <trkpt lat="49.27096" lon="-0.21941">
        <ele>3.3</ele>
        <time>2022-05-31T16:30:35Z</time>
      </trkpt>
      <trkpt lat="49.27096" lon="-0.21941">
        <ele>3.3</ele>
        <time>2022-05-31T16:30:36Z</time>
      </trkpt>
      <trkpt lat="49.27096" lon="-0.21941">
        <ele>3.3</ele>
        <time>2022-05-31T16:30:37Z</time>
      </trkpt>
      <trkpt lat="49.27096" lon="-0.21941">
        <ele>3.3</ele>
        <time>2022-05-31T16:30:38Z</time>
      </trkpt>
      <trkpt lat="49.27096" lon="-0.21941">
        <ele>3.3</ele>
        <time>2022-05-31T16:30:39Z</time>
      </trkpt>
      <trkpt lat="49.27096" lon="-0.21941">
        <ele>3.3</ele>
        <time>2022-05-31T16:30:40Z</time>
      </trkpt>
      <trkpt lat="49.27096" lon="-0.21941">
        <ele>3.3</ele>
        <time>2022-05-31T16:30:41Z</time>
      </trkpt>
      <trkpt lat="49.27096" lon="-0.21941">
        <ele>3.3</ele>
        <time>2022-05-31T16:30:42Z</time>
      </trkpt>
      <trkpt lat="49.27096" lon="-0.21941">
        <ele>3.3</ele>
        <time>2022-05-31T16:30:43Z</time>
      </trkpt>
      <trkpt lat="49.27096" lon="-0.21941">
        <ele>3.3</ele>
        <time>2022-05-31T16:30:44Z</time>
      </trkpt>
      <trkpt lat="49.27096" lon="-0.21941">
        <ele>3.3</ele>
        <time>2022-05-31T16:30:45Z</time>
      </trkpt>
      <trkpt lat="49.27096" lon="-0.21941">
        <ele>3.3</ele>
        <time>2022-05-31T16:30:46Z</time>
      </trkpt>
      <trkpt lat="49.27096" lon="-0.21941">
        <ele>3.3</ele>
        <time>2022-05-31T16:30:47Z</time>
      </trkpt>
      <trkpt lat="49.27096" lon="-0.21941">
        <ele>3.3</ele>
        <time>2022-05-31T16:30:48Z</time>
      </trkpt>
      <trkpt lat="49.27096" lon="-0.21941">
        <ele>3.3</ele>
        <time>2022-05-31T16:30:49Z</time>
      </trkpt>
      <trkpt lat="49.27096" lon="-0.21941">
        <ele>3.3</ele>
        <time>2022-05-31T16:30:50Z</time>
      </trkpt>
      <trkpt lat="49.27096" lon="-0.21941">
        <ele>3.3</ele>
        <time>2022-05-31T16:30:51Z</time>
      </trkpt>
      <trkpt lat="49.27096" lon="-0.21941">
        <ele>3.3</ele>
        <time>2022-05-31T16:30:52Z</time>
      </trkpt>
      <trkpt lat="49.27096" lon="-0.21941">
        <ele>3.3</ele>
        <time>2022-05-31T16:30:53Z</time>
      </trkpt>
      <trkpt lat="49.27096" lon="-0.21941">
        <ele>3.3</ele>
        <time>2022-05-31T16:30:54Z</time>
      </trkpt>
      <trkpt lat="49.27097" lon="-0.21941">
        <ele>3.3</ele>
        <time>2022-05-31T16:30:55Z</time>
      </trkpt>
      <trkpt lat="49.27097" lon="-0.21941">
        <ele>3.3</ele>
        <time>2022-05-31T16:30:56Z</time>
      </trkpt>
      <trkpt lat="49.27097" lon="-0.21941">
        <ele>3.3</ele>
        <time>2022-05-31T16:30:57Z</time>
      </trkpt>
      <trkpt lat="49.27097" lon="-0.21941">
        <ele>3.3</ele>
        <time>2022-05-31T16:30:58Z</time>
      </trkpt>
      <trkpt lat="49.27097" lon="-0.21941">
        <ele>3.3</ele>
        <time>2022-05-31T16:30:59Z</time>
      </trkpt>
      <trkpt lat="49.27097" lon="-0.21941">
        <ele>3.3</ele>
        <time>2022-05-31T16:31:00Z</time>
      </trkpt>
      <trkpt lat="49.27097" lon="-0.21941">
        <ele>3.3</ele>
        <time>2022-05-31T16:31:01Z</time>
      </trkpt>
      <trkpt lat="49.27097" lon="-0.21941">
        <ele>3.3</ele>
        <time>2022-05-31T16:31:02Z</time>
      </trkpt>
      <trkpt lat="49.27097" lon="-0.21941">
        <ele>3.3</ele>
        <time>2022-05-31T16:31:03Z</time>
      </trkpt>
      <trkpt lat="49.27097" lon="-0.21941">
        <ele>3.3</ele>
        <time>2022-05-31T16:31:04Z</time>
      </trkpt>
      <trkpt lat="49.27097" lon="-0.21941">
        <ele>3.3</ele>
        <time>2022-05-31T16:31:05Z</time>
      </trkpt>
      <trkpt lat="49.27097" lon="-0.21941">
        <ele>3.3</ele>
        <time>2022-05-31T16:31:06Z</time>
      </trkpt>
      <trkpt lat="49.27097" lon="-0.21941">
        <ele>3.3</ele>
        <time>2022-05-31T16:31:07Z</time>
      </trkpt>
      <trkpt lat="49.27097" lon="-0.21941">
        <ele>3.3</ele>
        <time>2022-05-31T16:31:08Z</time>
      </trkpt>
      <trkpt lat="49.27097" lon="-0.21941">
        <ele>3.3</ele>
        <time>2022-05-31T16:31:09Z</time>
      </trkpt>
      <trkpt lat="49.27097" lon="-0.21941">
        <ele>3.3</ele>
        <time>2022-05-31T16:31:10Z</time>
      </trkpt>
      <trkpt lat="49.27097" lon="-0.21941">
        <ele>3.3</ele>
        <time>2022-05-31T16:31:11Z</time>
      </trkpt>
      <trkpt lat="49.27097" lon="-0.21941">
        <ele>3.3</ele>
        <time>2022-05-31T16:31:12Z</time>
      </trkpt>
      <trkpt lat="49.27097" lon="-0.21941">
        <ele>3.3</ele>
        <time>2022-05-31T16:31:13Z</time>
      </trkpt>
      <trkpt lat="49.27097" lon="-0.21941">
        <ele>3.3</ele>
        <time>2022-05-31T16:31:14Z</time>
      </trkpt>
      <trkpt lat="49.27097" lon="-0.21941">
        <ele>3.3</ele>
        <time>2022-05-31T16:31:15Z</time>
      </trkpt>
      <trkpt lat="49.27097" lon="-0.21941">
        <ele>3.3</ele>
        <time>2022-05-31T16:31:16Z</time>
      </trkpt>
      <trkpt lat="49.27097" lon="-0.21941">
        <ele>3.3</ele>
        <time>2022-05-31T16:31:17Z</time>
      </trkpt>
      <trkpt lat="49.27098" lon="-0.21941">
        <ele>3.3</ele>
        <time>2022-05-31T16:31:18Z</time>
      </trkpt>
      <trkpt lat="49.27098" lon="-0.21941">
        <ele>3.3</ele>
        <time>2022-05-31T16:31:19Z</time>
      </trkpt>
      <trkpt lat="49.27098" lon="-0.21941">
        <ele>3.3</ele>
        <time>2022-05-31T16:31:20Z</time>
      </trkpt>
      <trkpt lat="49.27098" lon="-0.21941">
        <ele>3.3</ele>
        <time>2022-05-31T16:31:21Z</time>
      </trkpt>
      <trkpt lat="49.27098" lon="-0.21941">
        <ele>3.3</ele>
        <time>2022-05-31T16:31:22Z</time>
      </trkpt>
      <trkpt lat="49.27098" lon="-0.21941">
        <ele>3.3</ele>
        <time>2022-05-31T16:31:23Z</time>
      </trkpt>
      <trkpt lat="49.27098" lon="-0.21941">
        <ele>3.3</ele>
        <time>2022-05-31T16:31:24Z</time>
      </trkpt>
      <trkpt lat="49.27098" lon="-0.21941">
        <ele>3.3</ele>
        <time>2022-05-31T16:31:25Z</time>
      </trkpt>
      <trkpt lat="49.27098" lon="-0.21941">
        <ele>3.3</ele>
        <time>2022-05-31T16:31:26Z</time>
      </trkpt>
      <trkpt lat="49.27098" lon="-0.21941">
        <ele>3.3</ele>
        <time>2022-05-31T16:31:27Z</time>
      </trkpt>
      <trkpt lat="49.27098" lon="-0.21941">
        <ele>3.3</ele>
        <time>2022-05-31T16:31:28Z</time>
      </trkpt>
      <trkpt lat="49.27098" lon="-0.21941">
        <ele>3.3</ele>
        <time>2022-05-31T16:31:29Z</time>
      </trkpt>
      <trkpt lat="49.27098" lon="-0.21941">
        <ele>3.3</ele>
        <time>2022-05-31T16:31:30Z</time>
      </trkpt>
      <trkpt lat="49.27098" lon="-0.21941">
        <ele>3.3</ele>
        <time>2022-05-31T16:31:31Z</time>
      </trkpt>
      <trkpt lat="49.27098" lon="-0.21941">
        <ele>3.3</ele>
        <time>2022-05-31T16:31:32Z</time>
      </trkpt>
      <trkpt lat="49.27098" lon="-0.21941">
        <ele>3.3</ele>
        <time>2022-05-31T16:31:33Z</time>
      </trkpt>
      <trkpt lat="49.27098" lon="-0.21941">
        <ele>3.3</ele>
        <time>2022-05-31T16:31:34Z</time>
      </trkpt>
      <trkpt lat="49.27098" lon="-0.21941">
        <ele>3.3</ele>
        <time>2022-05-31T16:31:35Z</time>
      </trkpt>
      <trkpt lat="49.27098" lon="-0.21941">
        <ele>3.3</ele>
        <time>2022-05-31T16:31:36Z</time>
      </trkpt>
      <trkpt lat="49.27098" lon="-0.21941">
        <ele>3.3</ele>
        <time>2022-05-31T16:31:37Z</time>
      </trkpt>
      <trkpt lat="49.27098" lon="-0.21941">
        <ele>3.3</ele>
        <time>2022-05-31T16:31:38Z</time>
      </trkpt>
      <trkpt lat="49.27098" lon="-0.21941">
        <ele>3.3</ele>
        <time>2022-05-31T16:31:39Z</time>
      </trkpt>
      <trkpt lat="49.27098" lon="-0.21941">
        <ele>3.3</ele>
        <time>2022-05-31T16:31:40Z</time>
      </trkpt>
      <trkpt lat="49.27099" lon="-0.21941">
        <ele>3.3</ele>
        <time>2022-05-31T16:31:41Z</time>
      </trkpt>
      <trkpt lat="49.27099" lon="-0.21941">
        <ele>3.3</ele>
        <time>2022-05-31T16:31:42Z</time>
      </trkpt>
      <trkpt lat="49.27099" lon="-0.21941">
        <ele>3.3</ele>
        <time>2022-05-31T16:31:43Z</time>
      </trkpt>
      <trkpt lat="49.27099" lon="-0.21941">
        <ele>3.3</ele>
        <time>2022-05-31T16:31:44Z</time>
      </trkpt>
      <trkpt lat="49.27099" lon="-0.21941">
        <ele>3.3</ele>
        <time>2022-05-31T16:31:45Z</time>
      </trkpt>
      <trkpt lat="49.27099" lon="-0.21941">
        <ele>3.3</ele>
        <time>2022-05-31T16:31:46Z</time>
      </trkpt>
      <trkpt lat="49.27099" lon="-0.21941">
        <ele>3.3</ele>
        <time>2022-05-31T16:31:47Z</time>
      </trkpt>
      <trkpt lat="49.27099" lon="-0.21941">
        <ele>3.3</ele>
        <time>2022-05-31T16:31:48Z</time>
      </trkpt>
      <trkpt lat="49.27099" lon="-0.21941">
        <ele>3.3</ele>
        <time>2022-05-31T16:31:49Z</time>
      </trkpt>
      <trkpt lat="49.27099" lon="-0.21941">
        <ele>3.3</ele>
        <time>2022-05-31T16:31:50Z</time>
      </trkpt>
      <trkpt lat="49.27099" lon="-0.21942">
        <ele>3.3</ele>
        <time>2022-05-31T16:31:51Z</time>
      </trkpt>
      <trkpt lat="49.27099" lon="-0.21942">
        <ele>3.3</ele>
        <time>2022-05-31T16:31:52Z</time>
      </trkpt>
      <trkpt lat="49.27099" lon="-0.21942">
        <ele>3.3</ele>
        <time>2022-05-31T16:31:53Z</time>
      </trkpt>
      <trkpt lat="49.27099" lon="-0.21942">
        <ele>3.3</ele>
        <time>2022-05-31T16:31:54Z</time>
      </trkpt>
      <trkpt lat="49.27099" lon="-0.21942">
        <ele>3.3</ele>
        <time>2022-05-31T16:31:55Z</time>
      </trkpt>
      <trkpt lat="49.27099" lon="-0.21942">
        <ele>3.3</ele>
        <time>2022-05-31T16:31:56Z</time>
      </trkpt>
      <trkpt lat="49.27099" lon="-0.21942">
        <ele>3.3</ele>
        <time>2022-05-31T16:31:57Z</time>
      </trkpt>
      <trkpt lat="49.27099" lon="-0.21942">
        <ele>3.3</ele>
        <time>2022-05-31T16:31:58Z</time>
      </trkpt>
      <trkpt lat="49.27099" lon="-0.21942">
        <ele>3.3</ele>
        <time>2022-05-31T16:31:59Z</time>
      </trkpt>
      <trkpt lat="49.27099" lon="-0.21942">
        <ele>3.3</ele>
        <time>2022-05-31T16:32:00Z</time>
      </trkpt>
      <trkpt lat="49.27099" lon="-0.21942">
        <ele>3.3</ele>
        <time>2022-05-31T16:32:01Z</time>
      </trkpt>
      <trkpt lat="49.27099" lon="-0.21942">
        <ele>3.3</ele>
        <time>2022-05-31T16:32:02Z</time>
      </trkpt>
      <trkpt lat="49.27099" lon="-0.21942">
        <ele>3.3</ele>
        <time>2022-05-31T16:32:03Z</time>
      </trkpt>
      <trkpt lat="49.27101" lon="-0.21941">
        <ele>3.3</ele>
        <time>2022-05-31T16:32:04Z</time>
      </trkpt>
      <trkpt lat="49.27102" lon="-0.2194">
        <ele>3.3</ele>
        <time>2022-05-31T16:32:06Z</time>
      </trkpt>
      <trkpt lat="49.27103" lon="-0.2194">
        <ele>3.3</ele>
        <time>2022-05-31T16:32:07Z</time>
      </trkpt>
      <trkpt lat="49.27104" lon="-0.21939">
        <ele>3.3</ele>
        <time>2022-05-31T16:32:08Z</time>
      </trkpt>
      <trkpt lat="49.27106" lon="-0.21939">
        <ele>3.3</ele>
        <time>2022-05-31T16:32:09Z</time>
      </trkpt>
      <trkpt lat="49.27106" lon="-0.21939">
        <ele>3.3</ele>
        <time>2022-05-31T16:32:10Z</time>
      </trkpt>
      <trkpt lat="49.27107" lon="-0.21939">
        <ele>3.3</ele>
        <time>2022-05-31T16:32:11Z</time>
      </trkpt>
      <trkpt lat="49.27108" lon="-0.21939">
        <ele>3.3</ele>
        <time>2022-05-31T16:32:12Z</time>
      </trkpt>
      <trkpt lat="49.27108" lon="-0.21939">
        <ele>3.3</ele>
        <time>2022-05-31T16:32:13Z</time>
      </trkpt>
      <trkpt lat="49.27109" lon="-0.21938">
        <ele>3.4</ele>
        <time>2022-05-31T16:32:14Z</time>
      </trkpt>
      <trkpt lat="49.27111" lon="-0.21937">
        <ele>3.4</ele>
        <time>2022-05-31T16:32:15Z</time>
      </trkpt>
      <trkpt lat="49.27112" lon="-0.21937">
        <ele>3.4</ele>
        <time>2022-05-31T16:32:16Z</time>
      </trkpt>
      <trkpt lat="49.27113" lon="-0.21936">
        <ele>3.4</ele>
        <time>2022-05-31T16:32:17Z</time>
      </trkpt>
      <trkpt lat="49.27114" lon="-0.21936">
        <ele>3.4</ele>
        <time>2022-05-31T16:32:18Z</time>
      </trkpt>
      <trkpt lat="49.27116" lon="-0.21936">
        <ele>3.4</ele>
        <time>2022-05-31T16:32:19Z</time>
      </trkpt>
      <trkpt lat="49.27117" lon="-0.21936">
        <ele>3.4</ele>
        <time>2022-05-31T16:32:20Z</time>
      </trkpt>
      <trkpt lat="49.27118" lon="-0.21936">
        <ele>3.7</ele>
        <time>2022-05-31T16:32:22Z</time>
      </trkpt>
      <trkpt lat="49.27119" lon="-0.21936">
        <ele>3.7</ele>
        <time>2022-05-31T16:32:23Z</time>
      </trkpt>
      <trkpt lat="49.27121" lon="-0.21936">
        <ele>3.7</ele>
        <time>2022-05-31T16:32:24Z</time>
      </trkpt>
      <trkpt lat="49.27122" lon="-0.21936">
        <ele>3.7</ele>
        <time>2022-05-31T16:32:25Z</time>
      </trkpt>
      <trkpt lat="49.27122" lon="-0.21936">
        <ele>3.7</ele>
        <time>2022-05-31T16:32:26Z</time>
      </trkpt>
      <trkpt lat="49.27123" lon="-0.21936">
        <ele>3.7</ele>
        <time>2022-05-31T16:32:27Z</time>
      </trkpt>
      <trkpt lat="49.27124" lon="-0.21935">
        <ele>3.7</ele>
        <time>2022-05-31T16:32:29Z</time>
      </trkpt>
      <trkpt lat="49.27124" lon="-0.21935">
        <ele>3.7</ele>
        <time>2022-05-31T16:32:30Z</time>
      </trkpt>
      <trkpt lat="49.27125" lon="-0.21934">
        <ele>3.8</ele>
        <time>2022-05-31T16:32:31Z</time>
      </trkpt>
      <trkpt lat="49.27126" lon="-0.21934">
        <ele>3.8</ele>
        <time>2022-05-31T16:32:33Z</time>
      </trkpt>
      <trkpt lat="49.27126" lon="-0.21933">
        <ele>3.8</ele>
        <time>2022-05-31T16:32:34Z</time>
      </trkpt>
      <trkpt lat="49.27125" lon="-0.21932">
        <ele>3.8</ele>
        <time>2022-05-31T16:32:35Z</time>
      </trkpt>
      <trkpt lat="49.27124" lon="-0.2193">
        <ele>3.8</ele>
        <time>2022-05-31T16:32:37Z</time>
      </trkpt>
      <trkpt lat="49.27124" lon="-0.2193">
        <ele>3.8</ele>
        <time>2022-05-31T16:32:38Z</time>
      </trkpt>
      <trkpt lat="49.27124" lon="-0.21928">
        <ele>3.8</ele>
        <time>2022-05-31T16:32:39Z</time>
      </trkpt>
      <trkpt lat="49.27125" lon="-0.21927">
        <ele>3.8</ele>
        <time>2022-05-31T16:32:40Z</time>
      </trkpt>
      <trkpt lat="49.27126" lon="-0.21927">
        <ele>3.8</ele>
        <time>2022-05-31T16:32:41Z</time>
      </trkpt>
      <trkpt lat="49.27128" lon="-0.21928">
        <ele>3.8</ele>
        <time>2022-05-31T16:32:42Z</time>
      </trkpt>
      <trkpt lat="49.27129" lon="-0.21928">
        <ele>3.8</ele>
        <time>2022-05-31T16:32:44Z</time>
      </trkpt>
      <trkpt lat="49.27131" lon="-0.21927">
        <ele>3.8</ele>
        <time>2022-05-31T16:32:45Z</time>
      </trkpt>
      <trkpt lat="49.27131" lon="-0.21927">
        <ele>3.8</ele>
        <time>2022-05-31T16:32:46Z</time>
      </trkpt>
      <trkpt lat="49.27132" lon="-0.21926">
        <ele>3.8</ele>
        <time>2022-05-31T16:32:47Z</time>
      </trkpt>
      <trkpt lat="49.27133" lon="-0.21925">
        <ele>3.8</ele>
        <time>2022-05-31T16:32:48Z</time>
      </trkpt>
      <trkpt lat="49.27133" lon="-0.21925">
        <ele>3.8</ele>
        <time>2022-05-31T16:32:49Z</time>
      </trkpt>
      <trkpt lat="49.27135" lon="-0.21925">
        <ele>3.8</ele>
        <time>2022-05-31T16:32:51Z</time>
      </trkpt>
      <trkpt lat="49.27136" lon="-0.21925">
        <ele>3.8</ele>
        <time>2022-05-31T16:32:52Z</time>
      </trkpt>
      <trkpt lat="49.27137" lon="-0.21924">
        <ele>3.8</ele>
        <time>2022-05-31T16:32:53Z</time>
      </trkpt>
      <trkpt lat="49.27138" lon="-0.21923">
        <ele>3.9</ele>
        <time>2022-05-31T16:32:55Z</time>
      </trkpt>
      <trkpt lat="49.27137" lon="-0.2192">
        <ele>3.9</ele>
        <time>2022-05-31T16:32:56Z</time>
      </trkpt>
      <trkpt lat="49.27137" lon="-0.21919">
        <ele>3.9</ele>
        <time>2022-05-31T16:32:57Z</time>
      </trkpt>
      <trkpt lat="49.27137" lon="-0.21918">
        <ele>3.9</ele>
        <time>2022-05-31T16:32:58Z</time>
      </trkpt>
      <trkpt lat="49.27137" lon="-0.21917">
        <ele>3.9</ele>
        <time>2022-05-31T16:32:59Z</time>
      </trkpt>
      <trkpt lat="49.27137" lon="-0.21917">
        <ele>3.9</ele>
        <time>2022-05-31T16:33:00Z</time>
      </trkpt>
      <trkpt lat="49.27137" lon="-0.21918">
        <ele>3.9</ele>
        <time>2022-05-31T16:33:01Z</time>
      </trkpt>
      <trkpt lat="49.27138" lon="-0.21919">
        <ele>3.9</ele>
        <time>2022-05-31T16:33:03Z</time>
      </trkpt>
      <trkpt lat="49.27139" lon="-0.21919">
        <ele>3.9</ele>
        <time>2022-05-31T16:33:05Z</time>
      </trkpt>
      <trkpt lat="49.27139" lon="-0.21918">
        <ele>3.9</ele>
        <time>2022-05-31T16:33:06Z</time>
      </trkpt>
      <trkpt lat="49.2714" lon="-0.21918">
        <ele>3.9</ele>
        <time>2022-05-31T16:33:07Z</time>
      </trkpt>
      <trkpt lat="49.2714" lon="-0.21919">
        <ele>3.9</ele>
        <time>2022-05-31T16:33:08Z</time>
      </trkpt>
      <trkpt lat="49.2714" lon="-0.21919">
        <ele>3.9</ele>
        <time>2022-05-31T16:33:09Z</time>
      </trkpt>
      <trkpt lat="49.2714" lon="-0.21919">
        <ele>3.9</ele>
        <time>2022-05-31T16:33:10Z</time>
      </trkpt>
      <trkpt lat="49.2714" lon="-0.21919">
        <ele>3.9</ele>
        <time>2022-05-31T16:33:11Z</time>
      </trkpt>
      <trkpt lat="49.2714" lon="-0.21919">
        <ele>3.9</ele>
        <time>2022-05-31T16:33:12Z</time>
      </trkpt>
      <trkpt lat="49.2714" lon="-0.21919">
        <ele>3.9</ele>
        <time>2022-05-31T16:33:13Z</time>
      </trkpt>
      <trkpt lat="49.2714" lon="-0.21919">
        <ele>3.9</ele>
        <time>2022-05-31T16:33:14Z</time>
      </trkpt>
      <trkpt lat="49.2714" lon="-0.2192">
        <ele>3.9</ele>
        <time>2022-05-31T16:33:15Z</time>
      </trkpt>
      <trkpt lat="49.2714" lon="-0.2192">
        <ele>3.9</ele>
        <time>2022-05-31T16:33:16Z</time>
      </trkpt>
      <trkpt lat="49.27139" lon="-0.2192">
        <ele>3.9</ele>
        <time>2022-05-31T16:33:17Z</time>
      </trkpt>
      <trkpt lat="49.27139" lon="-0.2192">
        <ele>3.9</ele>
        <time>2022-05-31T16:33:18Z</time>
      </trkpt>
      <trkpt lat="49.27139" lon="-0.2192">
        <ele>3.9</ele>
        <time>2022-05-31T16:33:19Z</time>
      </trkpt>
      <trkpt lat="49.27139" lon="-0.2192">
        <ele>3.9</ele>
        <time>2022-05-31T16:33:20Z</time>
      </trkpt>
      <trkpt lat="49.2714" lon="-0.2192">
        <ele>3.9</ele>
        <time>2022-05-31T16:33:21Z</time>
      </trkpt>
      <trkpt lat="49.2714" lon="-0.2192">
        <ele>3.9</ele>
        <time>2022-05-31T16:33:22Z</time>
      </trkpt>
      <trkpt lat="49.2714" lon="-0.21921">
        <ele>3.9</ele>
        <time>2022-05-31T16:33:23Z</time>
      </trkpt>
      <trkpt lat="49.2714" lon="-0.21921">
        <ele>3.9</ele>
        <time>2022-05-31T16:33:25Z</time>
      </trkpt>
      <trkpt lat="49.27141" lon="-0.21922">
        <ele>3.9</ele>
        <time>2022-05-31T16:33:26Z</time>
      </trkpt>
      <trkpt lat="49.27142" lon="-0.21922">
        <ele>3.9</ele>
        <time>2022-05-31T16:33:27Z</time>
      </trkpt>
      <trkpt lat="49.27143" lon="-0.21923">
        <ele>3.9</ele>
        <time>2022-05-31T16:33:29Z</time>
      </trkpt>
      <trkpt lat="49.27143" lon="-0.21924">
        <ele>3.9</ele>
        <time>2022-05-31T16:33:30Z</time>
      </trkpt>
      <trkpt lat="49.27144" lon="-0.21924">
        <ele>3.9</ele>
        <time>2022-05-31T16:33:31Z</time>
      </trkpt>
      <trkpt lat="49.27146" lon="-0.21926">
        <ele>3.9</ele>
        <time>2022-05-31T16:33:32Z</time>
      </trkpt>
      <trkpt lat="49.27148" lon="-0.21926">
        <ele>3.9</ele>
        <time>2022-05-31T16:33:34Z</time>
      </trkpt>
      <trkpt lat="49.27149" lon="-0.21927">
        <ele>3.9</ele>
        <time>2022-05-31T16:33:35Z</time>
      </trkpt>
      <trkpt lat="49.2715" lon="-0.21927">
        <ele>3.9</ele>
        <time>2022-05-31T16:33:36Z</time>
      </trkpt>
      <trkpt lat="49.27152" lon="-0.21928">
        <ele>3.9</ele>
        <time>2022-05-31T16:33:37Z</time>
      </trkpt>
      <trkpt lat="49.27153" lon="-0.21929">
        <ele>3.9</ele>
        <time>2022-05-31T16:33:38Z</time>
      </trkpt>
      <trkpt lat="49.27153" lon="-0.21929">
        <ele>3.9</ele>
        <time>2022-05-31T16:33:39Z</time>
      </trkpt>
      <trkpt lat="49.27154" lon="-0.21929">
        <ele>3.9</ele>
        <time>2022-05-31T16:33:40Z</time>
      </trkpt>
      <trkpt lat="49.27156" lon="-0.21928">
        <ele>3.9</ele>
        <time>2022-05-31T16:33:41Z</time>
      </trkpt>
      <trkpt lat="49.27157" lon="-0.21928">
        <ele>3.9</ele>
        <time>2022-05-31T16:33:42Z</time>
      </trkpt>
      <trkpt lat="49.27158" lon="-0.21928">
        <ele>3.9</ele>
        <time>2022-05-31T16:33:44Z</time>
      </trkpt>
      <trkpt lat="49.27159" lon="-0.21928">
        <ele>3.9</ele>
        <time>2022-05-31T16:33:45Z</time>
      </trkpt>
      <trkpt lat="49.2716" lon="-0.21927">
        <ele>3.9</ele>
        <time>2022-05-31T16:33:46Z</time>
      </trkpt>
      <trkpt lat="49.27161" lon="-0.21927">
        <ele>3.9</ele>
        <time>2022-05-31T16:33:47Z</time>
      </trkpt>
      <trkpt lat="49.27162" lon="-0.21926">
        <ele>3.9</ele>
        <time>2022-05-31T16:33:48Z</time>
      </trkpt>
      <trkpt lat="49.27163" lon="-0.21925">
        <ele>3.9</ele>
        <time>2022-05-31T16:33:49Z</time>
      </trkpt>
      <trkpt lat="49.27164" lon="-0.21924">
        <ele>3.9</ele>
        <time>2022-05-31T16:33:50Z</time>
      </trkpt>
      <trkpt lat="49.27166" lon="-0.21923">
        <ele>3.9</ele>
        <time>2022-05-31T16:33:52Z</time>
      </trkpt>
      <trkpt lat="49.27168" lon="-0.21921">
        <ele>3.8</ele>
        <time>2022-05-31T16:33:53Z</time>
      </trkpt>
      <trkpt lat="49.27169" lon="-0.2192">
        <ele>3.8</ele>
        <time>2022-05-31T16:33:54Z</time>
      </trkpt>
      <trkpt lat="49.2717" lon="-0.21919">
        <ele>3.8</ele>
        <time>2022-05-31T16:33:55Z</time>
      </trkpt>
      <trkpt lat="49.27173" lon="-0.21916">
        <ele>3.8</ele>
        <time>2022-05-31T16:33:56Z</time>
      </trkpt>
      <trkpt lat="49.27174" lon="-0.21915">
        <ele>3.8</ele>
        <time>2022-05-31T16:33:57Z</time>
      </trkpt>
      <trkpt lat="49.27176" lon="-0.21912">
        <ele>3.8</ele>
        <time>2022-05-31T16:33:58Z</time>
      </trkpt>
      <trkpt lat="49.27177" lon="-0.21911">
        <ele>3.8</ele>
        <time>2022-05-31T16:33:59Z</time>
      </trkpt>
      <trkpt lat="49.27179" lon="-0.21909">
        <ele>3.8</ele>
        <time>2022-05-31T16:34:01Z</time>
      </trkpt>
      <trkpt lat="49.2718" lon="-0.21908">
        <ele>3.8</ele>
        <time>2022-05-31T16:34:02Z</time>
      </trkpt>
      <trkpt lat="49.27182" lon="-0.21906">
        <ele>3.7</ele>
        <time>2022-05-31T16:34:03Z</time>
      </trkpt>
      <trkpt lat="49.27183" lon="-0.21905">
        <ele>3.7</ele>
        <time>2022-05-31T16:34:04Z</time>
      </trkpt>
      <trkpt lat="49.27184" lon="-0.21904">
        <ele>3.7</ele>
        <time>2022-05-31T16:34:05Z</time>
      </trkpt>
      <trkpt lat="49.27185" lon="-0.21904">
        <ele>3.7</ele>
        <time>2022-05-31T16:34:06Z</time>
      </trkpt>
      <trkpt lat="49.27186" lon="-0.21904">
        <ele>3.7</ele>
        <time>2022-05-31T16:34:08Z</time>
      </trkpt>
      <trkpt lat="49.27187" lon="-0.21905">
        <ele>3.7</ele>
        <time>2022-05-31T16:34:09Z</time>
      </trkpt>
      <trkpt lat="49.27188" lon="-0.21906">
        <ele>3.7</ele>
        <time>2022-05-31T16:34:11Z</time>
      </trkpt>
      <trkpt lat="49.27188" lon="-0.21907">
        <ele>3.7</ele>
        <time>2022-05-31T16:34:12Z</time>
      </trkpt>
      <trkpt lat="49.27188" lon="-0.21908">
        <ele>3.7</ele>
        <time>2022-05-31T16:34:14Z</time>
      </trkpt>
      <trkpt lat="49.27188" lon="-0.21908">
        <ele>3.7</ele>
        <time>2022-05-31T16:34:15Z</time>
      </trkpt>
      <trkpt lat="49.27188" lon="-0.21908">
        <ele>3.7</ele>
        <time>2022-05-31T16:34:16Z</time>
      </trkpt>
      <trkpt lat="49.27188" lon="-0.21908">
        <ele>3.7</ele>
        <time>2022-05-31T16:34:18Z</time>
      </trkpt>
      <trkpt lat="49.27188" lon="-0.21908">
        <ele>3.7</ele>
        <time>2022-05-31T16:34:20Z</time>
      </trkpt>
      <trkpt lat="49.27187" lon="-0.21908">
        <ele>3.7</ele>
        <time>2022-05-31T16:34:21Z</time>
      </trkpt>
      <trkpt lat="49.27187" lon="-0.21908">
        <ele>3.7</ele>
        <time>2022-05-31T16:34:22Z</time>
      </trkpt>
      <trkpt lat="49.27188" lon="-0.21908">
        <ele>3.7</ele>
        <time>2022-05-31T16:34:23Z</time>
      </trkpt>
      <trkpt lat="49.27188" lon="-0.21908">
        <ele>3.7</ele>
        <time>2022-05-31T16:34:25Z</time>
      </trkpt>
      <trkpt lat="49.27188" lon="-0.21908">
        <ele>3.7</ele>
        <time>2022-05-31T16:34:26Z</time>
      </trkpt>
      <trkpt lat="49.27188" lon="-0.21908">
        <ele>3.7</ele>
        <time>2022-05-31T16:34:28Z</time>
      </trkpt>
      <trkpt lat="49.27187" lon="-0.21908">
        <ele>3.7</ele>
        <time>2022-05-31T16:34:29Z</time>
      </trkpt>
      <trkpt lat="49.27187" lon="-0.21908">
        <ele>3.7</ele>
        <time>2022-05-31T16:34:30Z</time>
      </trkpt>
      <trkpt lat="49.27187" lon="-0.21908">
        <ele>3.7</ele>
        <time>2022-05-31T16:34:31Z</time>
      </trkpt>
      <trkpt lat="49.27187" lon="-0.21908">
        <ele>3.7</ele>
        <time>2022-05-31T16:34:32Z</time>
      </trkpt>
      <trkpt lat="49.27186" lon="-0.21908">
        <ele>3.7</ele>
        <time>2022-05-31T16:34:33Z</time>
      </trkpt>
      <trkpt lat="49.27186" lon="-0.21907">
        <ele>3.7</ele>
        <time>2022-05-31T16:34:35Z</time>
      </trkpt>
      <trkpt lat="49.27186" lon="-0.21906">
        <ele>3.7</ele>
        <time>2022-05-31T16:34:36Z</time>
      </trkpt>
      <trkpt lat="49.27187" lon="-0.21906">
        <ele>3.7</ele>
        <time>2022-05-31T16:34:37Z</time>
      </trkpt>
      <trkpt lat="49.27187" lon="-0.21905">
        <ele>3.7</ele>
        <time>2022-05-31T16:34:38Z</time>
      </trkpt>
      <trkpt lat="49.27187" lon="-0.21904">
        <ele>3.7</ele>
        <time>2022-05-31T16:34:39Z</time>
      </trkpt>
      <trkpt lat="49.27186" lon="-0.21903">
        <ele>3.7</ele>
        <time>2022-05-31T16:34:40Z</time>
      </trkpt>
      <trkpt lat="49.27186" lon="-0.21903">
        <ele>3.7</ele>
        <time>2022-05-31T16:34:41Z</time>
      </trkpt>
      <trkpt lat="49.27186" lon="-0.21903">
        <ele>3.7</ele>
        <time>2022-05-31T16:34:42Z</time>
      </trkpt>
      <trkpt lat="49.27186" lon="-0.21903">
        <ele>3.7</ele>
        <time>2022-05-31T16:34:43Z</time>
      </trkpt>
      <trkpt lat="49.27186" lon="-0.21903">
        <ele>3.7</ele>
        <time>2022-05-31T16:34:44Z</time>
      </trkpt>
      <trkpt lat="49.27186" lon="-0.21903">
        <ele>3.7</ele>
        <time>2022-05-31T16:34:45Z</time>
      </trkpt>
      <trkpt lat="49.27186" lon="-0.21903">
        <ele>3.7</ele>
        <time>2022-05-31T16:34:46Z</time>
      </trkpt>
      <trkpt lat="49.27186" lon="-0.21902">
        <ele>3.7</ele>
        <time>2022-05-31T16:34:47Z</time>
      </trkpt>
      <trkpt lat="49.27186" lon="-0.21902">
        <ele>3.7</ele>
        <time>2022-05-31T16:34:48Z</time>
      </trkpt>
      <trkpt lat="49.27186" lon="-0.21902">
        <ele>3.7</ele>
        <time>2022-05-31T16:34:49Z</time>
      </trkpt>
      <trkpt lat="49.27186" lon="-0.21902">
        <ele>3.7</ele>
        <time>2022-05-31T16:34:50Z</time>
      </trkpt>
      <trkpt lat="49.27186" lon="-0.21902">
        <ele>3.7</ele>
        <time>2022-05-31T16:34:51Z</time>
      </trkpt>
      <trkpt lat="49.27186" lon="-0.21902">
        <ele>3.7</ele>
        <time>2022-05-31T16:34:52Z</time>
      </trkpt>
      <trkpt lat="49.27186" lon="-0.21902">
        <ele>3.7</ele>
        <time>2022-05-31T16:34:53Z</time>
      </trkpt>
      <trkpt lat="49.27186" lon="-0.21902">
        <ele>3.7</ele>
        <time>2022-05-31T16:34:54Z</time>
      </trkpt>
      <trkpt lat="49.27186" lon="-0.21902">
        <ele>3.7</ele>
        <time>2022-05-31T16:34:55Z</time>
      </trkpt>
      <trkpt lat="49.27186" lon="-0.21902">
        <ele>3.7</ele>
        <time>2022-05-31T16:34:56Z</time>
      </trkpt>
      <trkpt lat="49.27186" lon="-0.21902">
        <ele>3.7</ele>
        <time>2022-05-31T16:34:57Z</time>
      </trkpt>
      <trkpt lat="49.27186" lon="-0.21902">
        <ele>3.7</ele>
        <time>2022-05-31T16:34:58Z</time>
      </trkpt>
      <trkpt lat="49.27186" lon="-0.21902">
        <ele>3.7</ele>
        <time>2022-05-31T16:34:59Z</time>
      </trkpt>
      <trkpt lat="49.27186" lon="-0.21902">
        <ele>3.7</ele>
        <time>2022-05-31T16:35:00Z</time>
      </trkpt>
      <trkpt lat="49.27186" lon="-0.21902">
        <ele>3.7</ele>
        <time>2022-05-31T16:35:01Z</time>
      </trkpt>
      <trkpt lat="49.27186" lon="-0.21902">
        <ele>3.7</ele>
        <time>2022-05-31T16:35:02Z</time>
      </trkpt>
      <trkpt lat="49.27186" lon="-0.21902">
        <ele>3.7</ele>
        <time>2022-05-31T16:35:03Z</time>
      </trkpt>
      <trkpt lat="49.27186" lon="-0.21902">
        <ele>3.7</ele>
        <time>2022-05-31T16:35:04Z</time>
      </trkpt>
      <trkpt lat="49.27186" lon="-0.21902">
        <ele>3.7</ele>
        <time>2022-05-31T16:35:05Z</time>
      </trkpt>
      <trkpt lat="49.27186" lon="-0.21902">
        <ele>3.7</ele>
        <time>2022-05-31T16:35:06Z</time>
      </trkpt>
      <trkpt lat="49.27186" lon="-0.21902">
        <ele>3.7</ele>
        <time>2022-05-31T16:35:07Z</time>
      </trkpt>
      <trkpt lat="49.27186" lon="-0.21902">
        <ele>3.7</ele>
        <time>2022-05-31T16:35:08Z</time>
      </trkpt>
      <trkpt lat="49.27186" lon="-0.21902">
        <ele>3.7</ele>
        <time>2022-05-31T16:35:09Z</time>
      </trkpt>
      <trkpt lat="49.27186" lon="-0.21902">
        <ele>3.7</ele>
        <time>2022-05-31T16:35:10Z</time>
      </trkpt>
      <trkpt lat="49.27186" lon="-0.21902">
        <ele>3.7</ele>
        <time>2022-05-31T16:35:11Z</time>
      </trkpt>
      <trkpt lat="49.27186" lon="-0.21901">
        <ele>3.7</ele>
        <time>2022-05-31T16:35:12Z</time>
      </trkpt>
      <trkpt lat="49.27188" lon="-0.219">
        <ele>3.7</ele>
        <time>2022-05-31T16:35:13Z</time>
      </trkpt>
      <trkpt lat="49.27189" lon="-0.21899">
        <ele>3.7</ele>
        <time>2022-05-31T16:35:14Z</time>
      </trkpt>
      <trkpt lat="49.27189" lon="-0.21898">
        <ele>3.7</ele>
        <time>2022-05-31T16:35:15Z</time>
      </trkpt>
      <trkpt lat="49.2719" lon="-0.21897">
        <ele>3.7</ele>
        <time>2022-05-31T16:35:16Z</time>
      </trkpt>
      <trkpt lat="49.27191" lon="-0.21896">
        <ele>3.7</ele>
        <time>2022-05-31T16:35:17Z</time>
      </trkpt>
      <trkpt lat="49.27192" lon="-0.21895">
        <ele>3.7</ele>
        <time>2022-05-31T16:35:18Z</time>
      </trkpt>
      <trkpt lat="49.27192" lon="-0.21894">
        <ele>3.7</ele>
        <time>2022-05-31T16:35:19Z</time>
      </trkpt>
      <trkpt lat="49.27194" lon="-0.21892">
        <ele>3.7</ele>
        <time>2022-05-31T16:35:20Z</time>
      </trkpt>
      <trkpt lat="49.27195" lon="-0.2189">
        <ele>3.7</ele>
        <time>2022-05-31T16:35:21Z</time>
      </trkpt>
      <trkpt lat="49.27195" lon="-0.21889">
        <ele>3.7</ele>
        <time>2022-05-31T16:35:22Z</time>
      </trkpt>
      <trkpt lat="49.27197" lon="-0.21889">
        <ele>3.7</ele>
        <time>2022-05-31T16:35:23Z</time>
      </trkpt>
      <trkpt lat="49.27198" lon="-0.21888">
        <ele>3.7</ele>
        <time>2022-05-31T16:35:25Z</time>
      </trkpt>
      <trkpt lat="49.27198" lon="-0.21887">
        <ele>3.7</ele>
        <time>2022-05-31T16:35:26Z</time>
      </trkpt>
      <trkpt lat="49.27199" lon="-0.21886">
        <ele>3.7</ele>
        <time>2022-05-31T16:35:27Z</time>
      </trkpt>
      <trkpt lat="49.272" lon="-0.21884">
        <ele>3.7</ele>
        <time>2022-05-31T16:35:28Z</time>
      </trkpt>
      <trkpt lat="49.27201" lon="-0.21883">
        <ele>3.7</ele>
        <time>2022-05-31T16:35:29Z</time>
      </trkpt>
      <trkpt lat="49.27203" lon="-0.21881">
        <ele>3.7</ele>
        <time>2022-05-31T16:35:30Z</time>
      </trkpt>
      <trkpt lat="49.27205" lon="-0.21878">
        <ele>3.7</ele>
        <time>2022-05-31T16:35:31Z</time>
      </trkpt>
      <trkpt lat="49.27206" lon="-0.21877">
        <ele>3.7</ele>
        <time>2022-05-31T16:35:32Z</time>
      </trkpt>
      <trkpt lat="49.27207" lon="-0.21875">
        <ele>3.7</ele>
        <time>2022-05-31T16:35:34Z</time>
      </trkpt>
      <trkpt lat="49.27208" lon="-0.21873">
        <ele>3.7</ele>
        <time>2022-05-31T16:35:35Z</time>
      </trkpt>
      <trkpt lat="49.27209" lon="-0.21871">
        <ele>3.7</ele>
        <time>2022-05-31T16:35:36Z</time>
      </trkpt>
      <trkpt lat="49.2721" lon="-0.2187">
        <ele>3.7</ele>
        <time>2022-05-31T16:35:37Z</time>
      </trkpt>
      <trkpt lat="49.2721" lon="-0.21869">
        <ele>3.7</ele>
        <time>2022-05-31T16:35:38Z</time>
      </trkpt>
      <trkpt lat="49.27211" lon="-0.21868">
        <ele>3.8</ele>
        <time>2022-05-31T16:35:39Z</time>
      </trkpt>
      <trkpt lat="49.27211" lon="-0.21869">
        <ele>3.8</ele>
        <time>2022-05-31T16:35:40Z</time>
      </trkpt>
      <trkpt lat="49.27211" lon="-0.21868">
        <ele>3.8</ele>
        <time>2022-05-31T16:35:41Z</time>
      </trkpt>
      <trkpt lat="49.27211" lon="-0.21868">
        <ele>3.8</ele>
        <time>2022-05-31T16:35:42Z</time>
      </trkpt>
      <trkpt lat="49.27211" lon="-0.21867">
        <ele>3.8</ele>
        <time>2022-05-31T16:35:44Z</time>
      </trkpt>
      <trkpt lat="49.27211" lon="-0.21866">
        <ele>3.8</ele>
        <time>2022-05-31T16:35:45Z</time>
      </trkpt>
      <trkpt lat="49.27211" lon="-0.21865">
        <ele>3.8</ele>
        <time>2022-05-31T16:35:46Z</time>
      </trkpt>
      <trkpt lat="49.2721" lon="-0.21865">
        <ele>3.8</ele>
        <time>2022-05-31T16:35:48Z</time>
      </trkpt>
      <trkpt lat="49.2721" lon="-0.21865">
        <ele>3.8</ele>
        <time>2022-05-31T16:35:49Z</time>
      </trkpt>
      <trkpt lat="49.2721" lon="-0.21866">
        <ele>3.8</ele>
        <time>2022-05-31T16:35:50Z</time>
      </trkpt>
      <trkpt lat="49.27211" lon="-0.21866">
        <ele>3.8</ele>
        <time>2022-05-31T16:35:51Z</time>
      </trkpt>
      <trkpt lat="49.27211" lon="-0.21866">
        <ele>3.8</ele>
        <time>2022-05-31T16:35:52Z</time>
      </trkpt>
      <trkpt lat="49.27211" lon="-0.21866">
        <ele>3.8</ele>
        <time>2022-05-31T16:35:53Z</time>
      </trkpt>
      <trkpt lat="49.27211" lon="-0.21866">
        <ele>3.8</ele>
        <time>2022-05-31T16:35:54Z</time>
      </trkpt>
      <trkpt lat="49.27211" lon="-0.21866">
        <ele>3.8</ele>
        <time>2022-05-31T16:35:55Z</time>
      </trkpt>
      <trkpt lat="49.27211" lon="-0.21866">
        <ele>3.8</ele>
        <time>2022-05-31T16:35:56Z</time>
      </trkpt>
      <trkpt lat="49.27211" lon="-0.21866">
        <ele>3.8</ele>
        <time>2022-05-31T16:35:57Z</time>
      </trkpt>
      <trkpt lat="49.27211" lon="-0.21866">
        <ele>3.8</ele>
        <time>2022-05-31T16:35:58Z</time>
      </trkpt>
      <trkpt lat="49.27211" lon="-0.21867">
        <ele>3.8</ele>
        <time>2022-05-31T16:35:59Z</time>
      </trkpt>
      <trkpt lat="49.27211" lon="-0.21868">
        <ele>3.8</ele>
        <time>2022-05-31T16:36:00Z</time>
      </trkpt>
      <trkpt lat="49.27211" lon="-0.21869">
        <ele>3.8</ele>
        <time>2022-05-31T16:36:01Z</time>
      </trkpt>
      <trkpt lat="49.27211" lon="-0.2187">
        <ele>3.9</ele>
        <time>2022-05-31T16:36:02Z</time>
      </trkpt>
      <trkpt lat="49.27212" lon="-0.21872">
        <ele>3.9</ele>
        <time>2022-05-31T16:36:03Z</time>
      </trkpt>
      <trkpt lat="49.27212" lon="-0.21874">
        <ele>3.9</ele>
        <time>2022-05-31T16:36:05Z</time>
      </trkpt>
      <trkpt lat="49.27213" lon="-0.21876">
        <ele>3.9</ele>
        <time>2022-05-31T16:36:06Z</time>
      </trkpt>
      <trkpt lat="49.27213" lon="-0.21879">
        <ele>4</ele>
        <time>2022-05-31T16:36:07Z</time>
      </trkpt>
      <trkpt lat="49.27213" lon="-0.21883">
        <ele>4</ele>
        <time>2022-05-31T16:36:09Z</time>
      </trkpt>
      <trkpt lat="49.27214" lon="-0.21887">
        <ele>4</ele>
        <time>2022-05-31T16:36:11Z</time>
      </trkpt>
      <trkpt lat="49.27214" lon="-0.21889">
        <ele>4.1</ele>
        <time>2022-05-31T16:36:12Z</time>
      </trkpt>
      <trkpt lat="49.27215" lon="-0.2189">
        <ele>4.1</ele>
        <time>2022-05-31T16:36:13Z</time>
      </trkpt>
      <trkpt lat="49.27216" lon="-0.21891">
        <ele>4.1</ele>
        <time>2022-05-31T16:36:14Z</time>
      </trkpt>
      <trkpt lat="49.27217" lon="-0.21893">
        <ele>4.1</ele>
        <time>2022-05-31T16:36:15Z</time>
      </trkpt>
      <trkpt lat="49.27217" lon="-0.21893">
        <ele>4.1</ele>
        <time>2022-05-31T16:36:16Z</time>
      </trkpt>
      <trkpt lat="49.27218" lon="-0.21894">
        <ele>4.1</ele>
        <time>2022-05-31T16:36:17Z</time>
      </trkpt>
      <trkpt lat="49.27218" lon="-0.21895">
        <ele>4.1</ele>
        <time>2022-05-31T16:36:18Z</time>
      </trkpt>
      <trkpt lat="49.27219" lon="-0.21896">
        <ele>4.2</ele>
        <time>2022-05-31T16:36:19Z</time>
      </trkpt>
      <trkpt lat="49.27219" lon="-0.21897">
        <ele>4.2</ele>
        <time>2022-05-31T16:36:21Z</time>
      </trkpt>
      <trkpt lat="49.27221" lon="-0.21899">
        <ele>4.2</ele>
        <time>2022-05-31T16:36:22Z</time>
      </trkpt>
      <trkpt lat="49.27221" lon="-0.21901">
        <ele>4.2</ele>
        <time>2022-05-31T16:36:23Z</time>
      </trkpt>
      <trkpt lat="49.27222" lon="-0.21903">
        <ele>4.2</ele>
        <time>2022-05-31T16:36:24Z</time>
      </trkpt>
      <trkpt lat="49.27223" lon="-0.21905">
        <ele>4.3</ele>
        <time>2022-05-31T16:36:25Z</time>
      </trkpt>
      <trkpt lat="49.27224" lon="-0.21907">
        <ele>4.3</ele>
        <time>2022-05-31T16:36:26Z</time>
      </trkpt>
      <trkpt lat="49.27224" lon="-0.21908">
        <ele>4.3</ele>
        <time>2022-05-31T16:36:27Z</time>
      </trkpt>
      <trkpt lat="49.27225" lon="-0.21909">
        <ele>4.3</ele>
        <time>2022-05-31T16:36:28Z</time>
      </trkpt>
      <trkpt lat="49.27225" lon="-0.21911">
        <ele>4.3</ele>
        <time>2022-05-31T16:36:29Z</time>
      </trkpt>
      <trkpt lat="49.27226" lon="-0.21912">
        <ele>4.3</ele>
        <time>2022-05-31T16:36:30Z</time>
      </trkpt>
      <trkpt lat="49.27227" lon="-0.21913">
        <ele>4.3</ele>
        <time>2022-05-31T16:36:32Z</time>
      </trkpt>
      <trkpt lat="49.27227" lon="-0.21915">
        <ele>4.3</ele>
        <time>2022-05-31T16:36:33Z</time>
      </trkpt>
      <trkpt lat="49.27228" lon="-0.21916">
        <ele>4.3</ele>
        <time>2022-05-31T16:36:34Z</time>
      </trkpt>
      <trkpt lat="49.2723" lon="-0.21919">
        <ele>4.4</ele>
        <time>2022-05-31T16:36:36Z</time>
      </trkpt>
      <trkpt lat="49.2723" lon="-0.2192">
        <ele>4.4</ele>
        <time>2022-05-31T16:36:37Z</time>
      </trkpt>
      <trkpt lat="49.27232" lon="-0.21921">
        <ele>4.4</ele>
        <time>2022-05-31T16:36:39Z</time>
      </trkpt>
      <trkpt lat="49.27232" lon="-0.21922">
        <ele>4.4</ele>
        <time>2022-05-31T16:36:40Z</time>
      </trkpt>
      <trkpt lat="49.27232" lon="-0.21922">
        <ele>4.4</ele>
        <time>2022-05-31T16:36:41Z</time>
      </trkpt>
      <trkpt lat="49.27233" lon="-0.21922">
        <ele>4.4</ele>
        <time>2022-05-31T16:36:42Z</time>
      </trkpt>
      <trkpt lat="49.27232" lon="-0.21922">
        <ele>4.4</ele>
        <time>2022-05-31T16:36:43Z</time>
      </trkpt>
      <trkpt lat="49.27232" lon="-0.21922">
        <ele>4.4</ele>
        <time>2022-05-31T16:36:44Z</time>
      </trkpt>
      <trkpt lat="49.27232" lon="-0.21923">
        <ele>4.4</ele>
        <time>2022-05-31T16:36:45Z</time>
      </trkpt>
      <trkpt lat="49.27233" lon="-0.21924">
        <ele>4.4</ele>
        <time>2022-05-31T16:36:47Z</time>
      </trkpt>
      <trkpt lat="49.27233" lon="-0.21925">
        <ele>4.4</ele>
        <time>2022-05-31T16:36:48Z</time>
      </trkpt>
      <trkpt lat="49.27233" lon="-0.21926">
        <ele>4.4</ele>
        <time>2022-05-31T16:36:49Z</time>
      </trkpt>
      <trkpt lat="49.27234" lon="-0.21927">
        <ele>4.4</ele>
        <time>2022-05-31T16:36:50Z</time>
      </trkpt>
      <trkpt lat="49.27234" lon="-0.21928">
        <ele>4.4</ele>
        <time>2022-05-31T16:36:52Z</time>
      </trkpt>
      <trkpt lat="49.27235" lon="-0.2193">
        <ele>4.4</ele>
        <time>2022-05-31T16:36:53Z</time>
      </trkpt>
      <trkpt lat="49.27236" lon="-0.21932">
        <ele>4.4</ele>
        <time>2022-05-31T16:36:54Z</time>
      </trkpt>
      <trkpt lat="49.27236" lon="-0.21934">
        <ele>4.4</ele>
        <time>2022-05-31T16:36:55Z</time>
      </trkpt>
      <trkpt lat="49.27236" lon="-0.21935">
        <ele>4.5</ele>
        <time>2022-05-31T16:36:56Z</time>
      </trkpt>
      <trkpt lat="49.27236" lon="-0.21936">
        <ele>4.5</ele>
        <time>2022-05-31T16:36:57Z</time>
      </trkpt>
      <trkpt lat="49.27236" lon="-0.21937">
        <ele>4.5</ele>
        <time>2022-05-31T16:36:58Z</time>
      </trkpt>
      <trkpt lat="49.27236" lon="-0.21938">
        <ele>4.5</ele>
        <time>2022-05-31T16:36:59Z</time>
      </trkpt>
      <trkpt lat="49.27237" lon="-0.2194">
        <ele>4.5</ele>
        <time>2022-05-31T16:37:00Z</time>
      </trkpt>
      <trkpt lat="49.27237" lon="-0.21942">
        <ele>4.5</ele>
        <time>2022-05-31T16:37:01Z</time>
      </trkpt>
      <trkpt lat="49.27238" lon="-0.21943">
        <ele>4.5</ele>
        <time>2022-05-31T16:37:02Z</time>
      </trkpt>
      <trkpt lat="49.27238" lon="-0.21944">
        <ele>4.5</ele>
        <time>2022-05-31T16:37:04Z</time>
      </trkpt>
      <trkpt lat="49.27239" lon="-0.21946">
        <ele>4.5</ele>
        <time>2022-05-31T16:37:05Z</time>
      </trkpt>
      <trkpt lat="49.2724" lon="-0.21947">
        <ele>4.5</ele>
        <time>2022-05-31T16:37:06Z</time>
      </trkpt>
      <trkpt lat="49.2724" lon="-0.21947">
        <ele>4.5</ele>
        <time>2022-05-31T16:37:07Z</time>
      </trkpt>
      <trkpt lat="49.27241" lon="-0.21948">
        <ele>4.5</ele>
        <time>2022-05-31T16:37:08Z</time>
      </trkpt>
      <trkpt lat="49.27242" lon="-0.2195">
        <ele>4.5</ele>
        <time>2022-05-31T16:37:10Z</time>
      </trkpt>
      <trkpt lat="49.27243" lon="-0.2195">
        <ele>4.5</ele>
        <time>2022-05-31T16:37:11Z</time>
      </trkpt>
      <trkpt lat="49.27243" lon="-0.2195">
        <ele>4.5</ele>
        <time>2022-05-31T16:37:12Z</time>
      </trkpt>
      <trkpt lat="49.27243" lon="-0.2195">
        <ele>4.5</ele>
        <time>2022-05-31T16:37:13Z</time>
      </trkpt>
      <trkpt lat="49.27243" lon="-0.2195">
        <ele>4.5</ele>
        <time>2022-05-31T16:37:14Z</time>
      </trkpt>
      <trkpt lat="49.27242" lon="-0.2195">
        <ele>4.5</ele>
        <time>2022-05-31T16:37:15Z</time>
      </trkpt>
      <trkpt lat="49.27242" lon="-0.2195">
        <ele>4.5</ele>
        <time>2022-05-31T16:37:16Z</time>
      </trkpt>
      <trkpt lat="49.27242" lon="-0.21949">
        <ele>4.5</ele>
        <time>2022-05-31T16:37:17Z</time>
      </trkpt>
      <trkpt lat="49.27242" lon="-0.21949">
        <ele>4.5</ele>
        <time>2022-05-31T16:37:18Z</time>
      </trkpt>
      <trkpt lat="49.27242" lon="-0.21949">
        <ele>4.5</ele>
        <time>2022-05-31T16:37:19Z</time>
      </trkpt>
      <trkpt lat="49.27242" lon="-0.21949">
        <ele>4.5</ele>
        <time>2022-05-31T16:37:20Z</time>
      </trkpt>
      <trkpt lat="49.27242" lon="-0.21948">
        <ele>4.5</ele>
        <time>2022-05-31T16:37:21Z</time>
      </trkpt>
      <trkpt lat="49.27242" lon="-0.21948">
        <ele>4.5</ele>
        <time>2022-05-31T16:37:22Z</time>
      </trkpt>
      <trkpt lat="49.27242" lon="-0.21948">
        <ele>4.5</ele>
        <time>2022-05-31T16:37:23Z</time>
      </trkpt>
      <trkpt lat="49.27241" lon="-0.21947">
        <ele>4.5</ele>
        <time>2022-05-31T16:37:24Z</time>
      </trkpt>
      <trkpt lat="49.2724" lon="-0.21947">
        <ele>4.5</ele>
        <time>2022-05-31T16:37:26Z</time>
      </trkpt>
      <trkpt lat="49.27239" lon="-0.21946">
        <ele>4.5</ele>
        <time>2022-05-31T16:37:27Z</time>
      </trkpt>
      <trkpt lat="49.27239" lon="-0.21944">
        <ele>4.5</ele>
        <time>2022-05-31T16:37:28Z</time>
      </trkpt>
      <trkpt lat="49.27238" lon="-0.21943">
        <ele>4.5</ele>
        <time>2022-05-31T16:37:29Z</time>
      </trkpt>
      <trkpt lat="49.27238" lon="-0.21942">
        <ele>4.5</ele>
        <time>2022-05-31T16:37:30Z</time>
      </trkpt>
      <trkpt lat="49.27237" lon="-0.21941">
        <ele>4.5</ele>
        <time>2022-05-31T16:37:31Z</time>
      </trkpt>
      <trkpt lat="49.27237" lon="-0.2194">
        <ele>4.5</ele>
        <time>2022-05-31T16:37:32Z</time>
      </trkpt>
      <trkpt lat="49.27236" lon="-0.21939">
        <ele>4.5</ele>
        <time>2022-05-31T16:37:33Z</time>
      </trkpt>
      <trkpt lat="49.27236" lon="-0.21937">
        <ele>4.5</ele>
        <time>2022-05-31T16:37:34Z</time>
      </trkpt>
      <trkpt lat="49.27237" lon="-0.21936">
        <ele>4.5</ele>
        <time>2022-05-31T16:37:35Z</time>
      </trkpt>
      <trkpt lat="49.27237" lon="-0.21936">
        <ele>4.5</ele>
        <time>2022-05-31T16:37:36Z</time>
      </trkpt>
      <trkpt lat="49.27236" lon="-0.21935">
        <ele>4.5</ele>
        <time>2022-05-31T16:37:37Z</time>
      </trkpt>
      <trkpt lat="49.27236" lon="-0.21936">
        <ele>4.4</ele>
        <time>2022-05-31T16:37:38Z</time>
      </trkpt>
      <trkpt lat="49.27235" lon="-0.21938">
        <ele>4.4</ele>
        <time>2022-05-31T16:37:39Z</time>
      </trkpt>
      <trkpt lat="49.27235" lon="-0.21939">
        <ele>4.4</ele>
        <time>2022-05-31T16:37:40Z</time>
      </trkpt>
      <trkpt lat="49.27236" lon="-0.21939">
        <ele>4.4</ele>
        <time>2022-05-31T16:37:41Z</time>
      </trkpt>
      <trkpt lat="49.27236" lon="-0.2194">
        <ele>4.4</ele>
        <time>2022-05-31T16:37:42Z</time>
      </trkpt>
      <trkpt lat="49.27236" lon="-0.21939">
        <ele>4.4</ele>
        <time>2022-05-31T16:37:43Z</time>
      </trkpt>
      <trkpt lat="49.27236" lon="-0.21939">
        <ele>4.4</ele>
        <time>2022-05-31T16:37:44Z</time>
      </trkpt>
      <trkpt lat="49.27236" lon="-0.21939">
        <ele>4.4</ele>
        <time>2022-05-31T16:37:45Z</time>
      </trkpt>
      <trkpt lat="49.27237" lon="-0.21939">
        <ele>4.4</ele>
        <time>2022-05-31T16:37:46Z</time>
      </trkpt>
      <trkpt lat="49.27237" lon="-0.21939">
        <ele>4.4</ele>
        <time>2022-05-31T16:37:47Z</time>
      </trkpt>
      <trkpt lat="49.27237" lon="-0.21939">
        <ele>4.4</ele>
        <time>2022-05-31T16:37:48Z</time>
      </trkpt>
      <trkpt lat="49.27237" lon="-0.21939">
        <ele>4.4</ele>
        <time>2022-05-31T16:37:49Z</time>
      </trkpt>
      <trkpt lat="49.27237" lon="-0.21939">
        <ele>4.4</ele>
        <time>2022-05-31T16:37:50Z</time>
      </trkpt>
      <trkpt lat="49.27237" lon="-0.21939">
        <ele>4.4</ele>
        <time>2022-05-31T16:37:51Z</time>
      </trkpt>
      <trkpt lat="49.27237" lon="-0.21939">
        <ele>4.4</ele>
        <time>2022-05-31T16:37:53Z</time>
      </trkpt>
      <trkpt lat="49.27237" lon="-0.21938">
        <ele>4.4</ele>
        <time>2022-05-31T16:37:54Z</time>
      </trkpt>
      <trkpt lat="49.27237" lon="-0.21938">
        <ele>4.4</ele>
        <time>2022-05-31T16:37:55Z</time>
      </trkpt>
      <trkpt lat="49.27237" lon="-0.21937">
        <ele>4.4</ele>
        <time>2022-05-31T16:37:56Z</time>
      </trkpt>
      <trkpt lat="49.27237" lon="-0.21937">
        <ele>4.4</ele>
        <time>2022-05-31T16:37:57Z</time>
      </trkpt>
      <trkpt lat="49.27237" lon="-0.21937">
        <ele>4.4</ele>
        <time>2022-05-31T16:37:58Z</time>
      </trkpt>
      <trkpt lat="49.27237" lon="-0.21937">
        <ele>4.4</ele>
        <time>2022-05-31T16:37:59Z</time>
      </trkpt>
      <trkpt lat="49.27237" lon="-0.21937">
        <ele>4.4</ele>
        <time>2022-05-31T16:38:00Z</time>
      </trkpt>
      <trkpt lat="49.27237" lon="-0.21937">
        <ele>4.4</ele>
        <time>2022-05-31T16:38:01Z</time>
      </trkpt>
      <trkpt lat="49.27237" lon="-0.21937">
        <ele>4.4</ele>
        <time>2022-05-31T16:38:02Z</time>
      </trkpt>
      <trkpt lat="49.27237" lon="-0.21937">
        <ele>4.4</ele>
        <time>2022-05-31T16:38:03Z</time>
      </trkpt>
      <trkpt lat="49.27237" lon="-0.21937">
        <ele>4.4</ele>
        <time>2022-05-31T16:38:04Z</time>
      </trkpt>
      <trkpt lat="49.27237" lon="-0.21937">
        <ele>4.4</ele>
        <time>2022-05-31T16:38:05Z</time>
      </trkpt>
      <trkpt lat="49.27237" lon="-0.21937">
        <ele>4.4</ele>
        <time>2022-05-31T16:38:06Z</time>
      </trkpt>
      <trkpt lat="49.27237" lon="-0.21937">
        <ele>4.4</ele>
        <time>2022-05-31T16:38:07Z</time>
      </trkpt>
      <trkpt lat="49.27237" lon="-0.21937">
        <ele>4.4</ele>
        <time>2022-05-31T16:38:08Z</time>
      </trkpt>
      <trkpt lat="49.27237" lon="-0.21937">
        <ele>4.4</ele>
        <time>2022-05-31T16:38:09Z</time>
      </trkpt>
      <trkpt lat="49.27237" lon="-0.21937">
        <ele>4.4</ele>
        <time>2022-05-31T16:38:10Z</time>
      </trkpt>
      <trkpt lat="49.27237" lon="-0.21937">
        <ele>4.4</ele>
        <time>2022-05-31T16:38:11Z</time>
      </trkpt>
      <trkpt lat="49.27237" lon="-0.21937">
        <ele>4.4</ele>
        <time>2022-05-31T16:38:12Z</time>
      </trkpt>
      <trkpt lat="49.27237" lon="-0.21937">
        <ele>4.4</ele>
        <time>2022-05-31T16:38:13Z</time>
      </trkpt>
      <trkpt lat="49.27237" lon="-0.21937">
        <ele>4.4</ele>
        <time>2022-05-31T16:38:14Z</time>
      </trkpt>
      <trkpt lat="49.27237" lon="-0.21937">
        <ele>4.4</ele>
        <time>2022-05-31T16:38:15Z</time>
      </trkpt>
      <trkpt lat="49.27237" lon="-0.21937">
        <ele>4.4</ele>
        <time>2022-05-31T16:38:16Z</time>
      </trkpt>
      <trkpt lat="49.27237" lon="-0.21937">
        <ele>4.4</ele>
        <time>2022-05-31T16:38:17Z</time>
      </trkpt>
      <trkpt lat="49.27237" lon="-0.21937">
        <ele>4.4</ele>
        <time>2022-05-31T16:38:18Z</time>
      </trkpt>
      <trkpt lat="49.27237" lon="-0.21937">
        <ele>4.4</ele>
        <time>2022-05-31T16:38:19Z</time>
      </trkpt>
      <trkpt lat="49.27237" lon="-0.21937">
        <ele>4.4</ele>
        <time>2022-05-31T16:38:20Z</time>
      </trkpt>
      <trkpt lat="49.27237" lon="-0.21937">
        <ele>4.4</ele>
        <time>2022-05-31T16:38:21Z</time>
      </trkpt>
      <trkpt lat="49.27237" lon="-0.21937">
        <ele>4.4</ele>
        <time>2022-05-31T16:38:22Z</time>
      </trkpt>
      <trkpt lat="49.27237" lon="-0.21937">
        <ele>4.4</ele>
        <time>2022-05-31T16:38:23Z</time>
      </trkpt>
      <trkpt lat="49.27237" lon="-0.21937">
        <ele>4.4</ele>
        <time>2022-05-31T16:38:24Z</time>
      </trkpt>
      <trkpt lat="49.27237" lon="-0.21937">
        <ele>4.4</ele>
        <time>2022-05-31T16:38:25Z</time>
      </trkpt>
      <trkpt lat="49.27237" lon="-0.21937">
        <ele>4.4</ele>
        <time>2022-05-31T16:38:26Z</time>
      </trkpt>
      <trkpt lat="49.27237" lon="-0.21937">
        <ele>4.4</ele>
        <time>2022-05-31T16:38:27Z</time>
      </trkpt>
      <trkpt lat="49.27237" lon="-0.21937">
        <ele>4.4</ele>
        <time>2022-05-31T16:38:28Z</time>
      </trkpt>
      <trkpt lat="49.27237" lon="-0.21937">
        <ele>4.4</ele>
        <time>2022-05-31T16:38:29Z</time>
      </trkpt>
      <trkpt lat="49.27237" lon="-0.21937">
        <ele>4.4</ele>
        <time>2022-05-31T16:38:30Z</time>
      </trkpt>
      <trkpt lat="49.27237" lon="-0.21937">
        <ele>4.4</ele>
        <time>2022-05-31T16:38:31Z</time>
      </trkpt>
      <trkpt lat="49.27237" lon="-0.21937">
        <ele>4.4</ele>
        <time>2022-05-31T16:38:32Z</time>
      </trkpt>
      <trkpt lat="49.27237" lon="-0.21937">
        <ele>4.4</ele>
        <time>2022-05-31T16:38:33Z</time>
      </trkpt>
      <trkpt lat="49.27237" lon="-0.21937">
        <ele>4.4</ele>
        <time>2022-05-31T16:38:34Z</time>
      </trkpt>
      <trkpt lat="49.27237" lon="-0.21937">
        <ele>4.4</ele>
        <time>2022-05-31T16:38:35Z</time>
      </trkpt>
      <trkpt lat="49.27237" lon="-0.21937">
        <ele>4.4</ele>
        <time>2022-05-31T16:38:36Z</time>
      </trkpt>
      <trkpt lat="49.27237" lon="-0.21937">
        <ele>4.4</ele>
        <time>2022-05-31T16:38:37Z</time>
      </trkpt>
      <trkpt lat="49.27237" lon="-0.21937">
        <ele>4.4</ele>
        <time>2022-05-31T16:38:38Z</time>
      </trkpt>
      <trkpt lat="49.27237" lon="-0.21937">
        <ele>4.4</ele>
        <time>2022-05-31T16:38:39Z</time>
      </trkpt>
      <trkpt lat="49.27237" lon="-0.21937">
        <ele>4.4</ele>
        <time>2022-05-31T16:38:40Z</time>
      </trkpt>
      <trkpt lat="49.27237" lon="-0.21937">
        <ele>4.4</ele>
        <time>2022-05-31T16:38:41Z</time>
      </trkpt>
      <trkpt lat="49.27237" lon="-0.21937">
        <ele>4.4</ele>
        <time>2022-05-31T16:38:42Z</time>
      </trkpt>
      <trkpt lat="49.27237" lon="-0.21937">
        <ele>4.4</ele>
        <time>2022-05-31T16:38:43Z</time>
      </trkpt>
      <trkpt lat="49.27237" lon="-0.21937">
        <ele>4.4</ele>
        <time>2022-05-31T16:38:44Z</time>
      </trkpt>
      <trkpt lat="49.27237" lon="-0.21937">
        <ele>4.4</ele>
        <time>2022-05-31T16:38:45Z</time>
      </trkpt>
      <trkpt lat="49.27237" lon="-0.21937">
        <ele>4.4</ele>
        <time>2022-05-31T16:38:46Z</time>
      </trkpt>
      <trkpt lat="49.27237" lon="-0.21937">
        <ele>4.4</ele>
        <time>2022-05-31T16:38:47Z</time>
      </trkpt>
      <trkpt lat="49.27237" lon="-0.21937">
        <ele>4.4</ele>
        <time>2022-05-31T16:38:48Z</time>
      </trkpt>
      <trkpt lat="49.27237" lon="-0.21937">
        <ele>4.4</ele>
        <time>2022-05-31T16:38:49Z</time>
      </trkpt>
      <trkpt lat="49.27237" lon="-0.21937">
        <ele>4.4</ele>
        <time>2022-05-31T16:38:50Z</time>
      </trkpt>
      <trkpt lat="49.27237" lon="-0.21937">
        <ele>4.4</ele>
        <time>2022-05-31T16:38:51Z</time>
      </trkpt>
      <trkpt lat="49.27237" lon="-0.21937">
        <ele>4.4</ele>
        <time>2022-05-31T16:38:52Z</time>
      </trkpt>
      <trkpt lat="49.27236" lon="-0.21935">
        <ele>4.4</ele>
        <time>2022-05-31T16:38:53Z</time>
      </trkpt>
      <trkpt lat="49.27236" lon="-0.21934">
        <ele>4.4</ele>
        <time>2022-05-31T16:38:54Z</time>
      </trkpt>
      <trkpt lat="49.27236" lon="-0.21933">
        <ele>4.4</ele>
        <time>2022-05-31T16:38:55Z</time>
      </trkpt>
      <trkpt lat="49.27236" lon="-0.21933">
        <ele>4.4</ele>
        <time>2022-05-31T16:38:56Z</time>
      </trkpt>
      <trkpt lat="49.27235" lon="-0.21932">
        <ele>4.4</ele>
        <time>2022-05-31T16:38:57Z</time>
      </trkpt>
      <trkpt lat="49.27235" lon="-0.21931">
        <ele>4.4</ele>
        <time>2022-05-31T16:38:58Z</time>
      </trkpt>
      <trkpt lat="49.27235" lon="-0.2193">
        <ele>4.4</ele>
        <time>2022-05-31T16:38:59Z</time>
      </trkpt>
      <trkpt lat="49.27235" lon="-0.21929">
        <ele>4.4</ele>
        <time>2022-05-31T16:39:00Z</time>
      </trkpt>
      <trkpt lat="49.27235" lon="-0.21928">
        <ele>4.5</ele>
        <time>2022-05-31T16:39:01Z</time>
      </trkpt>
      <trkpt lat="49.27234" lon="-0.21927">
        <ele>4.5</ele>
        <time>2022-05-31T16:39:02Z</time>
      </trkpt>
      <trkpt lat="49.27234" lon="-0.21925">
        <ele>4.5</ele>
        <time>2022-05-31T16:39:03Z</time>
      </trkpt>
      <trkpt lat="49.27232" lon="-0.21923">
        <ele>4.5</ele>
        <time>2022-05-31T16:39:05Z</time>
      </trkpt>
      <trkpt lat="49.2723" lon="-0.2192">
        <ele>4.5</ele>
        <time>2022-05-31T16:39:06Z</time>
      </trkpt>
      <trkpt lat="49.27229" lon="-0.21918">
        <ele>4.5</ele>
        <time>2022-05-31T16:39:08Z</time>
      </trkpt>
      <trkpt lat="49.27228" lon="-0.21916">
        <ele>4.5</ele>
        <time>2022-05-31T16:39:09Z</time>
      </trkpt>
      <trkpt lat="49.27227" lon="-0.21914">
        <ele>4.5</ele>
        <time>2022-05-31T16:39:10Z</time>
      </trkpt>
      <trkpt lat="49.27226" lon="-0.21912">
        <ele>4.4</ele>
        <time>2022-05-31T16:39:11Z</time>
      </trkpt>
      <trkpt lat="49.27225" lon="-0.2191">
        <ele>4.4</ele>
        <time>2022-05-31T16:39:13Z</time>
      </trkpt>
      <trkpt lat="49.27224" lon="-0.21909">
        <ele>4.4</ele>
        <time>2022-05-31T16:39:14Z</time>
      </trkpt>
      <trkpt lat="49.27224" lon="-0.21909">
        <ele>4.4</ele>
        <time>2022-05-31T16:39:15Z</time>
      </trkpt>
      <trkpt lat="49.27223" lon="-0.21907">
        <ele>4.4</ele>
        <time>2022-05-31T16:39:16Z</time>
      </trkpt>
      <trkpt lat="49.27223" lon="-0.21906">
        <ele>4.4</ele>
        <time>2022-05-31T16:39:17Z</time>
      </trkpt>
      <trkpt lat="49.27221" lon="-0.21902">
        <ele>4.3</ele>
        <time>2022-05-31T16:39:18Z</time>
      </trkpt>
      <trkpt lat="49.2722" lon="-0.21901">
        <ele>4.3</ele>
        <time>2022-05-31T16:39:19Z</time>
      </trkpt>
      <trkpt lat="49.27219" lon="-0.21897">
        <ele>4.3</ele>
        <time>2022-05-31T16:39:20Z</time>
      </trkpt>
      <trkpt lat="49.27218" lon="-0.21896">
        <ele>4.2</ele>
        <time>2022-05-31T16:39:21Z</time>
      </trkpt>
      <trkpt lat="49.27217" lon="-0.21892">
        <ele>4.2</ele>
        <time>2022-05-31T16:39:22Z</time>
      </trkpt>
      <trkpt lat="49.27216" lon="-0.21891">
        <ele>4.1</ele>
        <time>2022-05-31T16:39:23Z</time>
      </trkpt>
      <trkpt lat="49.27216" lon="-0.21888">
        <ele>4.1</ele>
        <time>2022-05-31T16:39:24Z</time>
      </trkpt>
      <trkpt lat="49.27215" lon="-0.21886">
        <ele>4.1</ele>
        <time>2022-05-31T16:39:26Z</time>
      </trkpt>
      <trkpt lat="49.27214" lon="-0.21885">
        <ele>4</ele>
        <time>2022-05-31T16:39:27Z</time>
      </trkpt>
      <trkpt lat="49.27213" lon="-0.21884">
        <ele>4</ele>
        <time>2022-05-31T16:39:28Z</time>
      </trkpt>
      <trkpt lat="49.27212" lon="-0.21882">
        <ele>3.9</ele>
        <time>2022-05-31T16:39:29Z</time>
      </trkpt>
      <trkpt lat="49.27211" lon="-0.21881">
        <ele>3.9</ele>
        <time>2022-05-31T16:39:30Z</time>
      </trkpt>
      <trkpt lat="49.27211" lon="-0.2188">
        <ele>3.9</ele>
        <time>2022-05-31T16:39:31Z</time>
      </trkpt>
      <trkpt lat="49.2721" lon="-0.21878">
        <ele>3.8</ele>
        <time>2022-05-31T16:39:32Z</time>
      </trkpt>
      <trkpt lat="49.27209" lon="-0.21877">
        <ele>3.8</ele>
        <time>2022-05-31T16:39:33Z</time>
      </trkpt>
      <trkpt lat="49.27209" lon="-0.21875">
        <ele>3.8</ele>
        <time>2022-05-31T16:39:34Z</time>
      </trkpt>
      <trkpt lat="49.27208" lon="-0.21873">
        <ele>3.7</ele>
        <time>2022-05-31T16:39:35Z</time>
      </trkpt>
      <trkpt lat="49.27208" lon="-0.21872">
        <ele>3.5</ele>
        <time>2022-05-31T16:39:37Z</time>
      </trkpt>
      <trkpt lat="49.27208" lon="-0.2187">
        <ele>3.5</ele>
        <time>2022-05-31T16:39:38Z</time>
      </trkpt>
      <trkpt lat="49.27209" lon="-0.21867">
        <ele>3.4</ele>
        <time>2022-05-31T16:39:39Z</time>
      </trkpt>
      <trkpt lat="49.27209" lon="-0.21866">
        <ele>3.4</ele>
        <time>2022-05-31T16:39:40Z</time>
      </trkpt>
      <trkpt lat="49.2721" lon="-0.21865">
        <ele>3.3</ele>
        <time>2022-05-31T16:39:41Z</time>
      </trkpt>
      <trkpt lat="49.2721" lon="-0.21863">
        <ele>3.3</ele>
        <time>2022-05-31T16:39:42Z</time>
      </trkpt>
      <trkpt lat="49.27211" lon="-0.21862">
        <ele>3.3</ele>
        <time>2022-05-31T16:39:44Z</time>
      </trkpt>
      <trkpt lat="49.27211" lon="-0.2186">
        <ele>3.2</ele>
        <time>2022-05-31T16:39:45Z</time>
      </trkpt>
      <trkpt lat="49.27212" lon="-0.21857">
        <ele>3.2</ele>
        <time>2022-05-31T16:39:46Z</time>
      </trkpt>
      <trkpt lat="49.27212" lon="-0.21856">
        <ele>3.1</ele>
        <time>2022-05-31T16:39:47Z</time>
      </trkpt>
      <trkpt lat="49.27212" lon="-0.21855">
        <ele>3.1</ele>
        <time>2022-05-31T16:39:48Z</time>
      </trkpt>
      <trkpt lat="49.27213" lon="-0.21852">
        <ele>3</ele>
        <time>2022-05-31T16:39:49Z</time>
      </trkpt>
      <trkpt lat="49.27213" lon="-0.21851">
        <ele>3</ele>
        <time>2022-05-31T16:39:50Z</time>
      </trkpt>
      <trkpt lat="49.27213" lon="-0.21849">
        <ele>3</ele>
        <time>2022-05-31T16:39:51Z</time>
      </trkpt>
      <trkpt lat="49.27213" lon="-0.21847">
        <ele>3</ele>
        <time>2022-05-31T16:39:52Z</time>
      </trkpt>
      <trkpt lat="49.27213" lon="-0.21845">
        <ele>2.9</ele>
        <time>2022-05-31T16:39:54Z</time>
      </trkpt>
      <trkpt lat="49.27212" lon="-0.21844">
        <ele>2.9</ele>
        <time>2022-05-31T16:39:55Z</time>
      </trkpt>
      <trkpt lat="49.27211" lon="-0.21843">
        <ele>2.9</ele>
        <time>2022-05-31T16:39:56Z</time>
      </trkpt>
      <trkpt lat="49.27212" lon="-0.21841">
        <ele>2.9</ele>
        <time>2022-05-31T16:39:57Z</time>
      </trkpt>
      <trkpt lat="49.27212" lon="-0.21839">
        <ele>2.9</ele>
        <time>2022-05-31T16:39:58Z</time>
      </trkpt>
      <trkpt lat="49.27212" lon="-0.21838">
        <ele>2.9</ele>
        <time>2022-05-31T16:39:59Z</time>
      </trkpt>
      <trkpt lat="49.27212" lon="-0.21836">
        <ele>2.8</ele>
        <time>2022-05-31T16:40:00Z</time>
      </trkpt>
      <trkpt lat="49.27213" lon="-0.21835">
        <ele>2.8</ele>
        <time>2022-05-31T16:40:01Z</time>
      </trkpt>
      <trkpt lat="49.27213" lon="-0.21833">
        <ele>2.8</ele>
        <time>2022-05-31T16:40:02Z</time>
      </trkpt>
      <trkpt lat="49.27213" lon="-0.21832">
        <ele>2.8</ele>
        <time>2022-05-31T16:40:03Z</time>
      </trkpt>
      <trkpt lat="49.27213" lon="-0.2183">
        <ele>2.8</ele>
        <time>2022-05-31T16:40:05Z</time>
      </trkpt>
      <trkpt lat="49.27214" lon="-0.21829">
        <ele>2.8</ele>
        <time>2022-05-31T16:40:06Z</time>
      </trkpt>
      <trkpt lat="49.27214" lon="-0.21828">
        <ele>2.8</ele>
        <time>2022-05-31T16:40:07Z</time>
      </trkpt>
      <trkpt lat="49.27214" lon="-0.21826">
        <ele>2.8</ele>
        <time>2022-05-31T16:40:08Z</time>
      </trkpt>
      <trkpt lat="49.27214" lon="-0.21824">
        <ele>2.8</ele>
        <time>2022-05-31T16:40:09Z</time>
      </trkpt>
      <trkpt lat="49.27214" lon="-0.21823">
        <ele>2.8</ele>
        <time>2022-05-31T16:40:10Z</time>
      </trkpt>
      <trkpt lat="49.27214" lon="-0.21821">
        <ele>2.8</ele>
        <time>2022-05-31T16:40:11Z</time>
      </trkpt>
      <trkpt lat="49.27215" lon="-0.2182">
        <ele>2.8</ele>
        <time>2022-05-31T16:40:12Z</time>
      </trkpt>
      <trkpt lat="49.27215" lon="-0.21817">
        <ele>2.8</ele>
        <time>2022-05-31T16:40:13Z</time>
      </trkpt>
      <trkpt lat="49.27215" lon="-0.21816">
        <ele>2.8</ele>
        <time>2022-05-31T16:40:14Z</time>
      </trkpt>
      <trkpt lat="49.27216" lon="-0.21815">
        <ele>2.8</ele>
        <time>2022-05-31T16:40:15Z</time>
      </trkpt>
      <trkpt lat="49.27216" lon="-0.21813">
        <ele>2.9</ele>
        <time>2022-05-31T16:40:16Z</time>
      </trkpt>
      <trkpt lat="49.27216" lon="-0.21811">
        <ele>2.9</ele>
        <time>2022-05-31T16:40:18Z</time>
      </trkpt>
      <trkpt lat="49.27216" lon="-0.2181">
        <ele>2.9</ele>
        <time>2022-05-31T16:40:19Z</time>
      </trkpt>
      <trkpt lat="49.27217" lon="-0.21809">
        <ele>2.9</ele>
        <time>2022-05-31T16:40:20Z</time>
      </trkpt>
      <trkpt lat="49.27217" lon="-0.21807">
        <ele>2.9</ele>
        <time>2022-05-31T16:40:21Z</time>
      </trkpt>
      <trkpt lat="49.27217" lon="-0.21806">
        <ele>2.9</ele>
        <time>2022-05-31T16:40:22Z</time>
      </trkpt>
      <trkpt lat="49.27218" lon="-0.21804">
        <ele>2.9</ele>
        <time>2022-05-31T16:40:23Z</time>
      </trkpt>
      <trkpt lat="49.27218" lon="-0.21802">
        <ele>2.9</ele>
        <time>2022-05-31T16:40:24Z</time>
      </trkpt>
      <trkpt lat="49.27219" lon="-0.21799">
        <ele>2.9</ele>
        <time>2022-05-31T16:40:26Z</time>
      </trkpt>
      <trkpt lat="49.27221" lon="-0.21797">
        <ele>2.9</ele>
        <time>2022-05-31T16:40:27Z</time>
      </trkpt>
      <trkpt lat="49.27222" lon="-0.21796">
        <ele>2.9</ele>
        <time>2022-05-31T16:40:28Z</time>
      </trkpt>
      <trkpt lat="49.27222" lon="-0.21796">
        <ele>2.9</ele>
        <time>2022-05-31T16:40:29Z</time>
      </trkpt>
      <trkpt lat="49.27223" lon="-0.21794">
        <ele>2.8</ele>
        <time>2022-05-31T16:40:30Z</time>
      </trkpt>
      <trkpt lat="49.27224" lon="-0.21794">
        <ele>2.8</ele>
        <time>2022-05-31T16:40:31Z</time>
      </trkpt>
      <trkpt lat="49.27225" lon="-0.21793">
        <ele>2.8</ele>
        <time>2022-05-31T16:40:32Z</time>
      </trkpt>
      <trkpt lat="49.27227" lon="-0.21792">
        <ele>2.8</ele>
        <time>2022-05-31T16:40:33Z</time>
      </trkpt>
      <trkpt lat="49.27228" lon="-0.21791">
        <ele>2.8</ele>
        <time>2022-05-31T16:40:34Z</time>
      </trkpt>
      <trkpt lat="49.27228" lon="-0.2179">
        <ele>2.8</ele>
        <time>2022-05-31T16:40:35Z</time>
      </trkpt>
      <trkpt lat="49.27229" lon="-0.21789">
        <ele>2.8</ele>
        <time>2022-05-31T16:40:37Z</time>
      </trkpt>
      <trkpt lat="49.2723" lon="-0.21788">
        <ele>2.8</ele>
        <time>2022-05-31T16:40:38Z</time>
      </trkpt>
      <trkpt lat="49.27231" lon="-0.21787">
        <ele>2.7</ele>
        <time>2022-05-31T16:40:39Z</time>
      </trkpt>
      <trkpt lat="49.27232" lon="-0.21786">
        <ele>2.7</ele>
        <time>2022-05-31T16:40:40Z</time>
      </trkpt>
      <trkpt lat="49.27233" lon="-0.21784">
        <ele>2.7</ele>
        <time>2022-05-31T16:40:41Z</time>
      </trkpt>
      <trkpt lat="49.27234" lon="-0.21783">
        <ele>2.7</ele>
        <time>2022-05-31T16:40:43Z</time>
      </trkpt>
      <trkpt lat="49.27235" lon="-0.21782">
        <ele>2.7</ele>
        <time>2022-05-31T16:40:44Z</time>
      </trkpt>
      <trkpt lat="49.27236" lon="-0.21781">
        <ele>2.6</ele>
        <time>2022-05-31T16:40:45Z</time>
      </trkpt>
      <trkpt lat="49.27237" lon="-0.2178">
        <ele>2.6</ele>
        <time>2022-05-31T16:40:46Z</time>
      </trkpt>
      <trkpt lat="49.27238" lon="-0.21779">
        <ele>2.6</ele>
        <time>2022-05-31T16:40:47Z</time>
      </trkpt>
      <trkpt lat="49.27238" lon="-0.21778">
        <ele>2.6</ele>
        <time>2022-05-31T16:40:48Z</time>
      </trkpt>
      <trkpt lat="49.2724" lon="-0.21776">
        <ele>2.5</ele>
        <time>2022-05-31T16:40:50Z</time>
      </trkpt>
      <trkpt lat="49.27241" lon="-0.21775">
        <ele>2.5</ele>
        <time>2022-05-31T16:40:51Z</time>
      </trkpt>
      <trkpt lat="49.27241" lon="-0.21774">
        <ele>2.5</ele>
        <time>2022-05-31T16:40:52Z</time>
      </trkpt>
      <trkpt lat="49.27242" lon="-0.21774">
        <ele>2.5</ele>
        <time>2022-05-31T16:40:53Z</time>
      </trkpt>
      <trkpt lat="49.27243" lon="-0.21772">
        <ele>2.5</ele>
        <time>2022-05-31T16:40:54Z</time>
      </trkpt>
      <trkpt lat="49.27244" lon="-0.21772">
        <ele>2.5</ele>
        <time>2022-05-31T16:40:55Z</time>
      </trkpt>
      <trkpt lat="49.27246" lon="-0.2177">
        <ele>2.4</ele>
        <time>2022-05-31T16:40:56Z</time>
      </trkpt>
      <trkpt lat="49.27246" lon="-0.2177">
        <ele>2.4</ele>
        <time>2022-05-31T16:40:57Z</time>
      </trkpt>
      <trkpt lat="49.27247" lon="-0.21769">
        <ele>2.4</ele>
        <time>2022-05-31T16:40:58Z</time>
      </trkpt>
      <trkpt lat="49.27248" lon="-0.21767">
        <ele>2.4</ele>
        <time>2022-05-31T16:40:59Z</time>
      </trkpt>
      <trkpt lat="49.27248" lon="-0.21766">
        <ele>2.4</ele>
        <time>2022-05-31T16:41:00Z</time>
      </trkpt>
      <trkpt lat="49.27249" lon="-0.21765">
        <ele>2.4</ele>
        <time>2022-05-31T16:41:01Z</time>
      </trkpt>
      <trkpt lat="49.2725" lon="-0.21763">
        <ele>2.3</ele>
        <time>2022-05-31T16:41:03Z</time>
      </trkpt>
      <trkpt lat="49.27251" lon="-0.21762">
        <ele>2.3</ele>
        <time>2022-05-31T16:41:04Z</time>
      </trkpt>
      <trkpt lat="49.27252" lon="-0.21761">
        <ele>2.3</ele>
        <time>2022-05-31T16:41:05Z</time>
      </trkpt>
      <trkpt lat="49.27253" lon="-0.2176">
        <ele>2.3</ele>
        <time>2022-05-31T16:41:06Z</time>
      </trkpt>
      <trkpt lat="49.27254" lon="-0.21759">
        <ele>2.3</ele>
        <time>2022-05-31T16:41:07Z</time>
      </trkpt>
      <trkpt lat="49.27255" lon="-0.21757">
        <ele>2.3</ele>
        <time>2022-05-31T16:41:08Z</time>
      </trkpt>
      <trkpt lat="49.27256" lon="-0.21756">
        <ele>2.3</ele>
        <time>2022-05-31T16:41:10Z</time>
      </trkpt>
      <trkpt lat="49.27256" lon="-0.21756">
        <ele>2.2</ele>
        <time>2022-05-31T16:41:11Z</time>
      </trkpt>
      <trkpt lat="49.27257" lon="-0.21755">
        <ele>2.2</ele>
        <time>2022-05-31T16:41:12Z</time>
      </trkpt>
      <trkpt lat="49.27258" lon="-0.21754">
        <ele>2.2</ele>
        <time>2022-05-31T16:41:13Z</time>
      </trkpt>
      <trkpt lat="49.2726" lon="-0.21753">
        <ele>2.2</ele>
        <time>2022-05-31T16:41:14Z</time>
      </trkpt>
      <trkpt lat="49.27262" lon="-0.21752">
        <ele>2.2</ele>
        <time>2022-05-31T16:41:15Z</time>
      </trkpt>
      <trkpt lat="49.27262" lon="-0.21751">
        <ele>2.2</ele>
        <time>2022-05-31T16:41:16Z</time>
      </trkpt>
      <trkpt lat="49.27263" lon="-0.21751">
        <ele>2.2</ele>
        <time>2022-05-31T16:41:17Z</time>
      </trkpt>
      <trkpt lat="49.27265" lon="-0.21751">
        <ele>2.2</ele>
        <time>2022-05-31T16:41:18Z</time>
      </trkpt>
      <trkpt lat="49.27266" lon="-0.2175">
        <ele>2.2</ele>
        <time>2022-05-31T16:41:19Z</time>
      </trkpt>
      <trkpt lat="49.27268" lon="-0.2175">
        <ele>2.2</ele>
        <time>2022-05-31T16:41:21Z</time>
      </trkpt>
      <trkpt lat="49.27269" lon="-0.2175">
        <ele>2.2</ele>
        <time>2022-05-31T16:41:22Z</time>
      </trkpt>
      <trkpt lat="49.2727" lon="-0.21749">
        <ele>2.2</ele>
        <time>2022-05-31T16:41:23Z</time>
      </trkpt>
      <trkpt lat="49.27272" lon="-0.21748">
        <ele>2.2</ele>
        <time>2022-05-31T16:41:24Z</time>
      </trkpt>
      <trkpt lat="49.27273" lon="-0.21747">
        <ele>2.2</ele>
        <time>2022-05-31T16:41:25Z</time>
      </trkpt>
      <trkpt lat="49.27274" lon="-0.21747">
        <ele>2.2</ele>
        <time>2022-05-31T16:41:26Z</time>
      </trkpt>
      <trkpt lat="49.27276" lon="-0.21744">
        <ele>2.1</ele>
        <time>2022-05-31T16:41:27Z</time>
      </trkpt>
      <trkpt lat="49.27276" lon="-0.21744">
        <ele>2.1</ele>
        <time>2022-05-31T16:41:29Z</time>
      </trkpt>
      <trkpt lat="49.27277" lon="-0.21743">
        <ele>2.1</ele>
        <time>2022-05-31T16:41:30Z</time>
      </trkpt>
      <trkpt lat="49.27278" lon="-0.21742">
        <ele>2.1</ele>
        <time>2022-05-31T16:41:31Z</time>
      </trkpt>
      <trkpt lat="49.27279" lon="-0.21741">
        <ele>2.1</ele>
        <time>2022-05-31T16:41:32Z</time>
      </trkpt>
      <trkpt lat="49.2728" lon="-0.2174">
        <ele>2.1</ele>
        <time>2022-05-31T16:41:33Z</time>
      </trkpt>
      <trkpt lat="49.27282" lon="-0.21739">
        <ele>2.1</ele>
        <time>2022-05-31T16:41:34Z</time>
      </trkpt>
      <trkpt lat="49.27284" lon="-0.21737">
        <ele>2.1</ele>
        <time>2022-05-31T16:41:35Z</time>
      </trkpt>
      <trkpt lat="49.27285" lon="-0.21737">
        <ele>2.1</ele>
        <time>2022-05-31T16:41:36Z</time>
      </trkpt>
      <trkpt lat="49.27286" lon="-0.21736">
        <ele>2.1</ele>
        <time>2022-05-31T16:41:37Z</time>
      </trkpt>
      <trkpt lat="49.27286" lon="-0.21735">
        <ele>2.1</ele>
        <time>2022-05-31T16:41:38Z</time>
      </trkpt>
      <trkpt lat="49.27287" lon="-0.21734">
        <ele>2</ele>
        <time>2022-05-31T16:41:39Z</time>
      </trkpt>
      <trkpt lat="49.27289" lon="-0.21733">
        <ele>2</ele>
        <time>2022-05-31T16:41:40Z</time>
      </trkpt>
      <trkpt lat="49.27289" lon="-0.21732">
        <ele>2</ele>
        <time>2022-05-31T16:41:41Z</time>
      </trkpt>
      <trkpt lat="49.2729" lon="-0.21731">
        <ele>2</ele>
        <time>2022-05-31T16:41:42Z</time>
      </trkpt>
      <trkpt lat="49.27292" lon="-0.21729">
        <ele>2</ele>
        <time>2022-05-31T16:41:44Z</time>
      </trkpt>
      <trkpt lat="49.27293" lon="-0.21728">
        <ele>2</ele>
        <time>2022-05-31T16:41:45Z</time>
      </trkpt>
      <trkpt lat="49.27293" lon="-0.21727">
        <ele>2</ele>
        <time>2022-05-31T16:41:46Z</time>
      </trkpt>
      <trkpt lat="49.27295" lon="-0.21725">
        <ele>2</ele>
        <time>2022-05-31T16:41:47Z</time>
      </trkpt>
      <trkpt lat="49.27295" lon="-0.21724">
        <ele>2</ele>
        <time>2022-05-31T16:41:48Z</time>
      </trkpt>
      <trkpt lat="49.27296" lon="-0.21723">
        <ele>2</ele>
        <time>2022-05-31T16:41:49Z</time>
      </trkpt>
      <trkpt lat="49.27297" lon="-0.21722">
        <ele>2</ele>
        <time>2022-05-31T16:41:50Z</time>
      </trkpt>
      <trkpt lat="49.27298" lon="-0.21721">
        <ele>2</ele>
        <time>2022-05-31T16:41:51Z</time>
      </trkpt>
      <trkpt lat="49.27299" lon="-0.2172">
        <ele>2</ele>
        <time>2022-05-31T16:41:52Z</time>
      </trkpt>
      <trkpt lat="49.273" lon="-0.21717">
        <ele>2</ele>
        <time>2022-05-31T16:41:53Z</time>
      </trkpt>
      <trkpt lat="49.27301" lon="-0.21716">
        <ele>2</ele>
        <time>2022-05-31T16:41:54Z</time>
      </trkpt>
      <trkpt lat="49.27302" lon="-0.21715">
        <ele>2</ele>
        <time>2022-05-31T16:41:55Z</time>
      </trkpt>
      <trkpt lat="49.27303" lon="-0.21714">
        <ele>2</ele>
        <time>2022-05-31T16:41:56Z</time>
      </trkpt>
      <trkpt lat="49.27304" lon="-0.21713">
        <ele>2</ele>
        <time>2022-05-31T16:41:58Z</time>
      </trkpt>
      <trkpt lat="49.27305" lon="-0.21712">
        <ele>2</ele>
        <time>2022-05-31T16:41:59Z</time>
      </trkpt>
      <trkpt lat="49.27306" lon="-0.21711">
        <ele>2.1</ele>
        <time>2022-05-31T16:42:00Z</time>
      </trkpt>
      <trkpt lat="49.27307" lon="-0.21709">
        <ele>2.1</ele>
        <time>2022-05-31T16:42:01Z</time>
      </trkpt>
      <trkpt lat="49.27308" lon="-0.21708">
        <ele>2.1</ele>
        <time>2022-05-31T16:42:02Z</time>
      </trkpt>
      <trkpt lat="49.27309" lon="-0.21707">
        <ele>2.1</ele>
        <time>2022-05-31T16:42:03Z</time>
      </trkpt>
      <trkpt lat="49.2731" lon="-0.21706">
        <ele>2.1</ele>
        <time>2022-05-31T16:42:05Z</time>
      </trkpt>
      <trkpt lat="49.27311" lon="-0.21705">
        <ele>2.1</ele>
        <time>2022-05-31T16:42:06Z</time>
      </trkpt>
      <trkpt lat="49.27311" lon="-0.21704">
        <ele>2.1</ele>
        <time>2022-05-31T16:42:07Z</time>
      </trkpt>
      <trkpt lat="49.27312" lon="-0.21702">
        <ele>2.1</ele>
        <time>2022-05-31T16:42:08Z</time>
      </trkpt>
      <trkpt lat="49.27312" lon="-0.217">
        <ele>2.2</ele>
        <time>2022-05-31T16:42:09Z</time>
      </trkpt>
      <trkpt lat="49.27313" lon="-0.21699">
        <ele>2.2</ele>
        <time>2022-05-31T16:42:11Z</time>
      </trkpt>
      <trkpt lat="49.27313" lon="-0.21697">
        <ele>2.2</ele>
        <time>2022-05-31T16:42:12Z</time>
      </trkpt>
      <trkpt lat="49.27314" lon="-0.21695">
        <ele>2.2</ele>
        <time>2022-05-31T16:42:13Z</time>
      </trkpt>
      <trkpt lat="49.27314" lon="-0.21694">
        <ele>2.2</ele>
        <time>2022-05-31T16:42:14Z</time>
      </trkpt>
      <trkpt lat="49.27315" lon="-0.21693">
        <ele>2.2</ele>
        <time>2022-05-31T16:42:15Z</time>
      </trkpt>
      <trkpt lat="49.27315" lon="-0.21692">
        <ele>2.3</ele>
        <time>2022-05-31T16:42:16Z</time>
      </trkpt>
      <trkpt lat="49.27315" lon="-0.21691">
        <ele>2.3</ele>
        <time>2022-05-31T16:42:17Z</time>
      </trkpt>
      <trkpt lat="49.27316" lon="-0.21689">
        <ele>2.3</ele>
        <time>2022-05-31T16:42:18Z</time>
      </trkpt>
      <trkpt lat="49.27316" lon="-0.21689">
        <ele>2.3</ele>
        <time>2022-05-31T16:42:19Z</time>
      </trkpt>
      <trkpt lat="49.27317" lon="-0.21688">
        <ele>2.3</ele>
        <time>2022-05-31T16:42:20Z</time>
      </trkpt>
      <trkpt lat="49.27317" lon="-0.21687">
        <ele>2.3</ele>
        <time>2022-05-31T16:42:21Z</time>
      </trkpt>
      <trkpt lat="49.27318" lon="-0.21685">
        <ele>2.3</ele>
        <time>2022-05-31T16:42:22Z</time>
      </trkpt>
      <trkpt lat="49.27318" lon="-0.21684">
        <ele>2.3</ele>
        <time>2022-05-31T16:42:24Z</time>
      </trkpt>
      <trkpt lat="49.27319" lon="-0.21683">
        <ele>2.4</ele>
        <time>2022-05-31T16:42:25Z</time>
      </trkpt>
      <trkpt lat="49.27319" lon="-0.21682">
        <ele>2.4</ele>
        <time>2022-05-31T16:42:26Z</time>
      </trkpt>
      <trkpt lat="49.2732" lon="-0.21681">
        <ele>2.4</ele>
        <time>2022-05-31T16:42:27Z</time>
      </trkpt>
      <trkpt lat="49.27321" lon="-0.21679">
        <ele>2.4</ele>
        <time>2022-05-31T16:42:28Z</time>
      </trkpt>
      <trkpt lat="49.27322" lon="-0.21678">
        <ele>2.4</ele>
        <time>2022-05-31T16:42:29Z</time>
      </trkpt>
      <trkpt lat="49.27323" lon="-0.21677">
        <ele>2.4</ele>
        <time>2022-05-31T16:42:30Z</time>
      </trkpt>
      <trkpt lat="49.27324" lon="-0.21676">
        <ele>2.5</ele>
        <time>2022-05-31T16:42:31Z</time>
      </trkpt>
      <trkpt lat="49.27325" lon="-0.21675">
        <ele>2.5</ele>
        <time>2022-05-31T16:42:32Z</time>
      </trkpt>
      <trkpt lat="49.27326" lon="-0.21674">
        <ele>2.5</ele>
        <time>2022-05-31T16:42:33Z</time>
      </trkpt>
      <trkpt lat="49.27327" lon="-0.21673">
        <ele>2.5</ele>
        <time>2022-05-31T16:42:34Z</time>
      </trkpt>
      <trkpt lat="49.27328" lon="-0.21672">
        <ele>2.5</ele>
        <time>2022-05-31T16:42:35Z</time>
      </trkpt>
      <trkpt lat="49.27329" lon="-0.21671">
        <ele>2.5</ele>
        <time>2022-05-31T16:42:37Z</time>
      </trkpt>
      <trkpt lat="49.27331" lon="-0.2167">
        <ele>2.5</ele>
        <time>2022-05-31T16:42:38Z</time>
      </trkpt>
      <trkpt lat="49.27332" lon="-0.21669">
        <ele>2.5</ele>
        <time>2022-05-31T16:42:39Z</time>
      </trkpt>
      <trkpt lat="49.27333" lon="-0.21667">
        <ele>2.6</ele>
        <time>2022-05-31T16:42:40Z</time>
      </trkpt>
      <trkpt lat="49.27335" lon="-0.21666">
        <ele>2.6</ele>
        <time>2022-05-31T16:42:41Z</time>
      </trkpt>
      <trkpt lat="49.27336" lon="-0.21665">
        <ele>2.6</ele>
        <time>2022-05-31T16:42:42Z</time>
      </trkpt>
      <trkpt lat="49.27338" lon="-0.21663">
        <ele>2.6</ele>
        <time>2022-05-31T16:42:43Z</time>
      </trkpt>
      <trkpt lat="49.27338" lon="-0.21662">
        <ele>2.6</ele>
        <time>2022-05-31T16:42:44Z</time>
      </trkpt>
      <trkpt lat="49.27339" lon="-0.21662">
        <ele>2.6</ele>
        <time>2022-05-31T16:42:45Z</time>
      </trkpt>
      <trkpt lat="49.27341" lon="-0.21659">
        <ele>2.6</ele>
        <time>2022-05-31T16:42:46Z</time>
      </trkpt>
      <trkpt lat="49.27341" lon="-0.21658">
        <ele>2.6</ele>
        <time>2022-05-31T16:42:47Z</time>
      </trkpt>
      <trkpt lat="49.27342" lon="-0.21658">
        <ele>2.6</ele>
        <time>2022-05-31T16:42:48Z</time>
      </trkpt>
      <trkpt lat="49.27343" lon="-0.21655">
        <ele>2.7</ele>
        <time>2022-05-31T16:42:50Z</time>
      </trkpt>
      <trkpt lat="49.27343" lon="-0.21653">
        <ele>2.7</ele>
        <time>2022-05-31T16:42:51Z</time>
      </trkpt>
      <trkpt lat="49.27343" lon="-0.21652">
        <ele>2.8</ele>
        <time>2022-05-31T16:42:52Z</time>
      </trkpt>
      <trkpt lat="49.27344" lon="-0.21649">
        <ele>2.8</ele>
        <time>2022-05-31T16:42:53Z</time>
      </trkpt>
      <trkpt lat="49.27345" lon="-0.21647">
        <ele>2.9</ele>
        <time>2022-05-31T16:42:54Z</time>
      </trkpt>
      <trkpt lat="49.27345" lon="-0.21645">
        <ele>3</ele>
        <time>2022-05-31T16:42:55Z</time>
      </trkpt>
      <trkpt lat="49.27346" lon="-0.21644">
        <ele>3</ele>
        <time>2022-05-31T16:42:57Z</time>
      </trkpt>
      <trkpt lat="49.27347" lon="-0.21642">
        <ele>3.1</ele>
        <time>2022-05-31T16:42:58Z</time>
      </trkpt>
      <trkpt lat="49.27347" lon="-0.2164">
        <ele>3.1</ele>
        <time>2022-05-31T16:42:59Z</time>
      </trkpt>
      <trkpt lat="49.27347" lon="-0.21638">
        <ele>3.1</ele>
        <time>2022-05-31T16:43:00Z</time>
      </trkpt>
      <trkpt lat="49.27346" lon="-0.21636">
        <ele>3.2</ele>
        <time>2022-05-31T16:43:02Z</time>
      </trkpt>
      <trkpt lat="49.27345" lon="-0.21635">
        <ele>3.2</ele>
        <time>2022-05-31T16:43:03Z</time>
      </trkpt>
      <trkpt lat="49.27342" lon="-0.21633">
        <ele>3.3</ele>
        <time>2022-05-31T16:43:05Z</time>
      </trkpt>
      <trkpt lat="49.27342" lon="-0.21632">
        <ele>3.3</ele>
        <time>2022-05-31T16:43:06Z</time>
      </trkpt>
      <trkpt lat="49.27341" lon="-0.21631">
        <ele>3.3</ele>
        <time>2022-05-31T16:43:07Z</time>
      </trkpt>
      <trkpt lat="49.27341" lon="-0.2163">
        <ele>3.4</ele>
        <time>2022-05-31T16:43:08Z</time>
      </trkpt>
      <trkpt lat="49.2734" lon="-0.21628">
        <ele>3.4</ele>
        <time>2022-05-31T16:43:09Z</time>
      </trkpt>
      <trkpt lat="49.27339" lon="-0.21626">
        <ele>3.4</ele>
        <time>2022-05-31T16:43:10Z</time>
      </trkpt>
      <trkpt lat="49.27338" lon="-0.21624">
        <ele>3.4</ele>
        <time>2022-05-31T16:43:12Z</time>
      </trkpt>
      <trkpt lat="49.27338" lon="-0.21624">
        <ele>3.4</ele>
        <time>2022-05-31T16:43:13Z</time>
      </trkpt>
      <trkpt lat="49.27337" lon="-0.21623">
        <ele>3.4</ele>
        <time>2022-05-31T16:43:14Z</time>
      </trkpt>
      <trkpt lat="49.27338" lon="-0.21622">
        <ele>3.4</ele>
        <time>2022-05-31T16:43:15Z</time>
      </trkpt>
      <trkpt lat="49.27337" lon="-0.21621">
        <ele>3.4</ele>
        <time>2022-05-31T16:43:17Z</time>
      </trkpt>
      <trkpt lat="49.27337" lon="-0.2162">
        <ele>3.4</ele>
        <time>2022-05-31T16:43:18Z</time>
      </trkpt>
      <trkpt lat="49.27338" lon="-0.21619">
        <ele>3.4</ele>
        <time>2022-05-31T16:43:19Z</time>
      </trkpt>
      <trkpt lat="49.27338" lon="-0.21618">
        <ele>3.4</ele>
        <time>2022-05-31T16:43:20Z</time>
      </trkpt>
      <trkpt lat="49.2734" lon="-0.21618">
        <ele>3.4</ele>
        <time>2022-05-31T16:43:21Z</time>
      </trkpt>
      <trkpt lat="49.27342" lon="-0.21618">
        <ele>3.4</ele>
        <time>2022-05-31T16:43:22Z</time>
      </trkpt>
      <trkpt lat="49.27343" lon="-0.21618">
        <ele>3.4</ele>
        <time>2022-05-31T16:43:23Z</time>
      </trkpt>
      <trkpt lat="49.27345" lon="-0.21619">
        <ele>3.4</ele>
        <time>2022-05-31T16:43:24Z</time>
      </trkpt>
      <trkpt lat="49.27348" lon="-0.21618">
        <ele>3.4</ele>
        <time>2022-05-31T16:43:26Z</time>
      </trkpt>
      <trkpt lat="49.2735" lon="-0.21617">
        <ele>3.4</ele>
        <time>2022-05-31T16:43:27Z</time>
      </trkpt>
      <trkpt lat="49.27351" lon="-0.21616">
        <ele>3.4</ele>
        <time>2022-05-31T16:43:28Z</time>
      </trkpt>
      <trkpt lat="49.27352" lon="-0.21615">
        <ele>3.4</ele>
        <time>2022-05-31T16:43:29Z</time>
      </trkpt>
      <trkpt lat="49.27353" lon="-0.21613">
        <ele>3.4</ele>
        <time>2022-05-31T16:43:30Z</time>
      </trkpt>
      <trkpt lat="49.27353" lon="-0.21612">
        <ele>3.4</ele>
        <time>2022-05-31T16:43:31Z</time>
      </trkpt>
      <trkpt lat="49.27354" lon="-0.21609">
        <ele>3.5</ele>
        <time>2022-05-31T16:43:32Z</time>
      </trkpt>
      <trkpt lat="49.27354" lon="-0.21607">
        <ele>3.5</ele>
        <time>2022-05-31T16:43:33Z</time>
      </trkpt>
      <trkpt lat="49.27354" lon="-0.21606">
        <ele>3.5</ele>
        <time>2022-05-31T16:43:34Z</time>
      </trkpt>
      <trkpt lat="49.27355" lon="-0.21603">
        <ele>3.5</ele>
        <time>2022-05-31T16:43:35Z</time>
      </trkpt>
      <trkpt lat="49.27355" lon="-0.21601">
        <ele>3.5</ele>
        <time>2022-05-31T16:43:36Z</time>
      </trkpt>
      <trkpt lat="49.27355" lon="-0.21599">
        <ele>3.5</ele>
        <time>2022-05-31T16:43:38Z</time>
      </trkpt>
      <trkpt lat="49.27356" lon="-0.21597">
        <ele>3.5</ele>
        <time>2022-05-31T16:43:39Z</time>
      </trkpt>
      <trkpt lat="49.27356" lon="-0.21595">
        <ele>3.5</ele>
        <time>2022-05-31T16:43:40Z</time>
      </trkpt>
      <trkpt lat="49.27357" lon="-0.21592">
        <ele>3.6</ele>
        <time>2022-05-31T16:43:41Z</time>
      </trkpt>
      <trkpt lat="49.27357" lon="-0.2159">
        <ele>3.6</ele>
        <time>2022-05-31T16:43:42Z</time>
      </trkpt>
      <trkpt lat="49.27357" lon="-0.21588">
        <ele>3.6</ele>
        <time>2022-05-31T16:43:44Z</time>
      </trkpt>
      <trkpt lat="49.27357" lon="-0.21587">
        <ele>3.6</ele>
        <time>2022-05-31T16:43:45Z</time>
      </trkpt>
      <trkpt lat="49.27358" lon="-0.21585">
        <ele>3.6</ele>
        <time>2022-05-31T16:43:46Z</time>
      </trkpt>
      <trkpt lat="49.27358" lon="-0.21583">
        <ele>3.6</ele>
        <time>2022-05-31T16:43:47Z</time>
      </trkpt>
      <trkpt lat="49.2736" lon="-0.21581">
        <ele>3.6</ele>
        <time>2022-05-31T16:43:48Z</time>
      </trkpt>
      <trkpt lat="49.27361" lon="-0.21581">
        <ele>3.7</ele>
        <time>2022-05-31T16:43:49Z</time>
      </trkpt>
      <trkpt lat="49.27362" lon="-0.2158">
        <ele>3.7</ele>
        <time>2022-05-31T16:43:50Z</time>
      </trkpt>
      <trkpt lat="49.27363" lon="-0.21581">
        <ele>3.7</ele>
        <time>2022-05-31T16:43:51Z</time>
      </trkpt>
      <trkpt lat="49.27364" lon="-0.21581">
        <ele>3.7</ele>
        <time>2022-05-31T16:43:52Z</time>
      </trkpt>
      <trkpt lat="49.27365" lon="-0.21581">
        <ele>3.7</ele>
        <time>2022-05-31T16:43:54Z</time>
      </trkpt>
      <trkpt lat="49.27366" lon="-0.21582">
        <ele>3.7</ele>
        <time>2022-05-31T16:43:55Z</time>
      </trkpt>
      <trkpt lat="49.27367" lon="-0.21582">
        <ele>3.7</ele>
        <time>2022-05-31T16:43:56Z</time>
      </trkpt>
      <trkpt lat="49.27368" lon="-0.21582">
        <ele>3.7</ele>
        <time>2022-05-31T16:43:57Z</time>
      </trkpt>
      <trkpt lat="49.2737" lon="-0.2158">
        <ele>3.7</ele>
        <time>2022-05-31T16:43:58Z</time>
      </trkpt>
      <trkpt lat="49.27371" lon="-0.2158">
        <ele>3.8</ele>
        <time>2022-05-31T16:43:59Z</time>
      </trkpt>
      <trkpt lat="49.27371" lon="-0.21579">
        <ele>3.8</ele>
        <time>2022-05-31T16:44:00Z</time>
      </trkpt>
      <trkpt lat="49.27372" lon="-0.21578">
        <ele>3.8</ele>
        <time>2022-05-31T16:44:01Z</time>
      </trkpt>
      <trkpt lat="49.27373" lon="-0.21577">
        <ele>3.8</ele>
        <time>2022-05-31T16:44:02Z</time>
      </trkpt>
      <trkpt lat="49.27374" lon="-0.21576">
        <ele>3.8</ele>
        <time>2022-05-31T16:44:03Z</time>
      </trkpt>
      <trkpt lat="49.27376" lon="-0.21575">
        <ele>3.8</ele>
        <time>2022-05-31T16:44:04Z</time>
      </trkpt>
      <trkpt lat="49.27377" lon="-0.21574">
        <ele>3.8</ele>
        <time>2022-05-31T16:44:06Z</time>
      </trkpt>
      <trkpt lat="49.27377" lon="-0.21573">
        <ele>3.8</ele>
        <time>2022-05-31T16:44:07Z</time>
      </trkpt>
      <trkpt lat="49.27378" lon="-0.21573">
        <ele>3.8</ele>
        <time>2022-05-31T16:44:08Z</time>
      </trkpt>
      <trkpt lat="49.27378" lon="-0.21572">
        <ele>3.9</ele>
        <time>2022-05-31T16:44:09Z</time>
      </trkpt>
      <trkpt lat="49.27379" lon="-0.21571">
        <ele>3.9</ele>
        <time>2022-05-31T16:44:10Z</time>
      </trkpt>
      <trkpt lat="49.27379" lon="-0.2157">
        <ele>3.9</ele>
        <time>2022-05-31T16:44:11Z</time>
      </trkpt>
      <trkpt lat="49.27379" lon="-0.21569">
        <ele>3.9</ele>
        <time>2022-05-31T16:44:12Z</time>
      </trkpt>
      <trkpt lat="49.2738" lon="-0.21568">
        <ele>3.9</ele>
        <time>2022-05-31T16:44:13Z</time>
      </trkpt>
      <trkpt lat="49.2738" lon="-0.21567">
        <ele>3.9</ele>
        <time>2022-05-31T16:44:15Z</time>
      </trkpt>
      <trkpt lat="49.27381" lon="-0.21566">
        <ele>3.9</ele>
        <time>2022-05-31T16:44:16Z</time>
      </trkpt>
      <trkpt lat="49.27382" lon="-0.21565">
        <ele>4</ele>
        <time>2022-05-31T16:44:17Z</time>
      </trkpt>
      <trkpt lat="49.27383" lon="-0.21564">
        <ele>4</ele>
        <time>2022-05-31T16:44:18Z</time>
      </trkpt>
      <trkpt lat="49.27384" lon="-0.21562">
        <ele>4</ele>
        <time>2022-05-31T16:44:20Z</time>
      </trkpt>
      <trkpt lat="49.27385" lon="-0.21561">
        <ele>4</ele>
        <time>2022-05-31T16:44:21Z</time>
      </trkpt>
      <trkpt lat="49.27386" lon="-0.21561">
        <ele>4</ele>
        <time>2022-05-31T16:44:22Z</time>
      </trkpt>
      <trkpt lat="49.27387" lon="-0.2156">
        <ele>4</ele>
        <time>2022-05-31T16:44:23Z</time>
      </trkpt>
      <trkpt lat="49.27388" lon="-0.21559">
        <ele>4</ele>
        <time>2022-05-31T16:44:24Z</time>
      </trkpt>
      <trkpt lat="49.27389" lon="-0.21558">
        <ele>4</ele>
        <time>2022-05-31T16:44:25Z</time>
      </trkpt>
      <trkpt lat="49.2739" lon="-0.21558">
        <ele>4</ele>
        <time>2022-05-31T16:44:26Z</time>
      </trkpt>
      <trkpt lat="49.27391" lon="-0.21557">
        <ele>4</ele>
        <time>2022-05-31T16:44:27Z</time>
      </trkpt>
      <trkpt lat="49.27392" lon="-0.21556">
        <ele>4</ele>
        <time>2022-05-31T16:44:29Z</time>
      </trkpt>
      <trkpt lat="49.27393" lon="-0.21555">
        <ele>4</ele>
        <time>2022-05-31T16:44:30Z</time>
      </trkpt>
      <trkpt lat="49.27394" lon="-0.21555">
        <ele>4</ele>
        <time>2022-05-31T16:44:31Z</time>
      </trkpt>
      <trkpt lat="49.27395" lon="-0.21554">
        <ele>4</ele>
        <time>2022-05-31T16:44:32Z</time>
      </trkpt>
      <trkpt lat="49.27396" lon="-0.21554">
        <ele>4</ele>
        <time>2022-05-31T16:44:33Z</time>
      </trkpt>
      <trkpt lat="49.27397" lon="-0.21553">
        <ele>4.1</ele>
        <time>2022-05-31T16:44:34Z</time>
      </trkpt>
      <trkpt lat="49.27398" lon="-0.21553">
        <ele>4.1</ele>
        <time>2022-05-31T16:44:35Z</time>
      </trkpt>
      <trkpt lat="49.27399" lon="-0.21552">
        <ele>4.1</ele>
        <time>2022-05-31T16:44:36Z</time>
      </trkpt>
      <trkpt lat="49.274" lon="-0.21552">
        <ele>4.1</ele>
        <time>2022-05-31T16:44:38Z</time>
      </trkpt>
      <trkpt lat="49.27401" lon="-0.21551">
        <ele>4.1</ele>
        <time>2022-05-31T16:44:39Z</time>
      </trkpt>
      <trkpt lat="49.27402" lon="-0.2155">
        <ele>4.1</ele>
        <time>2022-05-31T16:44:40Z</time>
      </trkpt>
      <trkpt lat="49.27402" lon="-0.21549">
        <ele>4.1</ele>
        <time>2022-05-31T16:44:41Z</time>
      </trkpt>
      <trkpt lat="49.27403" lon="-0.21548">
        <ele>4.1</ele>
        <time>2022-05-31T16:44:42Z</time>
      </trkpt>
      <trkpt lat="49.27403" lon="-0.21547">
        <ele>4.1</ele>
        <time>2022-05-31T16:44:43Z</time>
      </trkpt>
      <trkpt lat="49.27404" lon="-0.21547">
        <ele>4.1</ele>
        <time>2022-05-31T16:44:44Z</time>
      </trkpt>
      <trkpt lat="49.27405" lon="-0.21546">
        <ele>4.1</ele>
        <time>2022-05-31T16:44:46Z</time>
      </trkpt>
      <trkpt lat="49.27406" lon="-0.21546">
        <ele>4.2</ele>
        <time>2022-05-31T16:44:47Z</time>
      </trkpt>
      <trkpt lat="49.27408" lon="-0.21546">
        <ele>4.2</ele>
        <time>2022-05-31T16:44:48Z</time>
      </trkpt>
      <trkpt lat="49.27408" lon="-0.21545">
        <ele>4.2</ele>
        <time>2022-05-31T16:44:49Z</time>
      </trkpt>
      <trkpt lat="49.27409" lon="-0.21544">
        <ele>4.2</ele>
        <time>2022-05-31T16:44:50Z</time>
      </trkpt>
      <trkpt lat="49.2741" lon="-0.21543">
        <ele>4.2</ele>
        <time>2022-05-31T16:44:51Z</time>
      </trkpt>
      <trkpt lat="49.2741" lon="-0.21543">
        <ele>4.2</ele>
        <time>2022-05-31T16:44:52Z</time>
      </trkpt>
      <trkpt lat="49.2741" lon="-0.21543">
        <ele>4.2</ele>
        <time>2022-05-31T16:44:54Z</time>
      </trkpt>
      <trkpt lat="49.2741" lon="-0.21543">
        <ele>4.2</ele>
        <time>2022-05-31T16:44:55Z</time>
      </trkpt>
      <trkpt lat="49.2741" lon="-0.21543">
        <ele>4.2</ele>
        <time>2022-05-31T16:44:56Z</time>
      </trkpt>
      <trkpt lat="49.2741" lon="-0.21543">
        <ele>4.2</ele>
        <time>2022-05-31T16:44:57Z</time>
      </trkpt>
      <trkpt lat="49.27411" lon="-0.21543">
        <ele>4.2</ele>
        <time>2022-05-31T16:44:58Z</time>
      </trkpt>
      <trkpt lat="49.27411" lon="-0.21543">
        <ele>4.2</ele>
        <time>2022-05-31T16:44:59Z</time>
      </trkpt>
      <trkpt lat="49.27411" lon="-0.21543">
        <ele>4.2</ele>
        <time>2022-05-31T16:45:00Z</time>
      </trkpt>
      <trkpt lat="49.27411" lon="-0.21543">
        <ele>4.2</ele>
        <time>2022-05-31T16:45:01Z</time>
      </trkpt>
      <trkpt lat="49.27411" lon="-0.21543">
        <ele>4.2</ele>
        <time>2022-05-31T16:45:02Z</time>
      </trkpt>
      <trkpt lat="49.27411" lon="-0.21543">
        <ele>4.2</ele>
        <time>2022-05-31T16:45:03Z</time>
      </trkpt>
      <trkpt lat="49.27411" lon="-0.21543">
        <ele>4.2</ele>
        <time>2022-05-31T16:45:04Z</time>
      </trkpt>
      <trkpt lat="49.27411" lon="-0.21544">
        <ele>4.2</ele>
        <time>2022-05-31T16:45:05Z</time>
      </trkpt>
      <trkpt lat="49.27411" lon="-0.21544">
        <ele>4.2</ele>
        <time>2022-05-31T16:45:06Z</time>
      </trkpt>
      <trkpt lat="49.27411" lon="-0.21544">
        <ele>4.2</ele>
        <time>2022-05-31T16:45:07Z</time>
      </trkpt>
      <trkpt lat="49.27411" lon="-0.21544">
        <ele>4.2</ele>
        <time>2022-05-31T16:45:08Z</time>
      </trkpt>
      <trkpt lat="49.27411" lon="-0.21544">
        <ele>4.2</ele>
        <time>2022-05-31T16:45:09Z</time>
      </trkpt>
      <trkpt lat="49.27411" lon="-0.21544">
        <ele>4.2</ele>
        <time>2022-05-31T16:45:10Z</time>
      </trkpt>
      <trkpt lat="49.27411" lon="-0.21544">
        <ele>4.2</ele>
        <time>2022-05-31T16:45:11Z</time>
      </trkpt>
      <trkpt lat="49.27411" lon="-0.21544">
        <ele>4.2</ele>
        <time>2022-05-31T16:45:12Z</time>
      </trkpt>
      <trkpt lat="49.27412" lon="-0.21544">
        <ele>4.2</ele>
        <time>2022-05-31T16:45:13Z</time>
      </trkpt>
      <trkpt lat="49.27412" lon="-0.21544">
        <ele>4.2</ele>
        <time>2022-05-31T16:45:14Z</time>
      </trkpt>
      <trkpt lat="49.27412" lon="-0.21544">
        <ele>4.2</ele>
        <time>2022-05-31T16:45:15Z</time>
      </trkpt>
      <trkpt lat="49.27412" lon="-0.21544">
        <ele>4.2</ele>
        <time>2022-05-31T16:45:16Z</time>
      </trkpt>
      <trkpt lat="49.27412" lon="-0.21544">
        <ele>4.2</ele>
        <time>2022-05-31T16:45:17Z</time>
      </trkpt>
      <trkpt lat="49.27412" lon="-0.21544">
        <ele>4.2</ele>
        <time>2022-05-31T16:45:18Z</time>
      </trkpt>
      <trkpt lat="49.27412" lon="-0.21544">
        <ele>4.2</ele>
        <time>2022-05-31T16:45:19Z</time>
      </trkpt>
      <trkpt lat="49.27412" lon="-0.21544">
        <ele>4.2</ele>
        <time>2022-05-31T16:45:20Z</time>
      </trkpt>
      <trkpt lat="49.27412" lon="-0.21544">
        <ele>4.2</ele>
        <time>2022-05-31T16:45:21Z</time>
      </trkpt>
      <trkpt lat="49.27412" lon="-0.21544">
        <ele>4.2</ele>
        <time>2022-05-31T16:45:22Z</time>
      </trkpt>
      <trkpt lat="49.27412" lon="-0.21544">
        <ele>4.2</ele>
        <time>2022-05-31T16:45:23Z</time>
      </trkpt>
      <trkpt lat="49.27412" lon="-0.21544">
        <ele>4.2</ele>
        <time>2022-05-31T16:45:24Z</time>
      </trkpt>
      <trkpt lat="49.27412" lon="-0.21544">
        <ele>4.2</ele>
        <time>2022-05-31T16:45:25Z</time>
      </trkpt>
      <trkpt lat="49.27412" lon="-0.21544">
        <ele>4.2</ele>
        <time>2022-05-31T16:45:26Z</time>
      </trkpt>
      <trkpt lat="49.27413" lon="-0.21544">
        <ele>4.2</ele>
        <time>2022-05-31T16:45:27Z</time>
      </trkpt>
      <trkpt lat="49.27413" lon="-0.21545">
        <ele>4.2</ele>
        <time>2022-05-31T16:45:28Z</time>
      </trkpt>
      <trkpt lat="49.27413" lon="-0.21545">
        <ele>4.2</ele>
        <time>2022-05-31T16:45:29Z</time>
      </trkpt>
      <trkpt lat="49.27413" lon="-0.21545">
        <ele>4.2</ele>
        <time>2022-05-31T16:45:30Z</time>
      </trkpt>
      <trkpt lat="49.27413" lon="-0.21545">
        <ele>4.2</ele>
        <time>2022-05-31T16:45:31Z</time>
      </trkpt>
      <trkpt lat="49.27413" lon="-0.21545">
        <ele>4.2</ele>
        <time>2022-05-31T16:45:32Z</time>
      </trkpt>
      <trkpt lat="49.27413" lon="-0.21545">
        <ele>4.2</ele>
        <time>2022-05-31T16:45:33Z</time>
      </trkpt>
      <trkpt lat="49.27413" lon="-0.21545">
        <ele>4.2</ele>
        <time>2022-05-31T16:45:34Z</time>
      </trkpt>
      <trkpt lat="49.27413" lon="-0.21545">
        <ele>4.2</ele>
        <time>2022-05-31T16:45:35Z</time>
      </trkpt>
      <trkpt lat="49.27413" lon="-0.21545">
        <ele>4.2</ele>
        <time>2022-05-31T16:45:36Z</time>
      </trkpt>
      <trkpt lat="49.27413" lon="-0.21545">
        <ele>4.2</ele>
        <time>2022-05-31T16:45:37Z</time>
      </trkpt>
      <trkpt lat="49.27413" lon="-0.21545">
        <ele>4.2</ele>
        <time>2022-05-31T16:45:38Z</time>
      </trkpt>
      <trkpt lat="49.27413" lon="-0.21545">
        <ele>4.2</ele>
        <time>2022-05-31T16:45:39Z</time>
      </trkpt>
      <trkpt lat="49.27413" lon="-0.21545">
        <ele>4.2</ele>
        <time>2022-05-31T16:45:40Z</time>
      </trkpt>
      <trkpt lat="49.27414" lon="-0.21545">
        <ele>4.2</ele>
        <time>2022-05-31T16:45:41Z</time>
      </trkpt>
      <trkpt lat="49.27414" lon="-0.21545">
        <ele>4.2</ele>
        <time>2022-05-31T16:45:42Z</time>
      </trkpt>
      <trkpt lat="49.27414" lon="-0.21545">
        <ele>4.2</ele>
        <time>2022-05-31T16:45:43Z</time>
      </trkpt>
      <trkpt lat="49.27414" lon="-0.21545">
        <ele>4.2</ele>
        <time>2022-05-31T16:45:44Z</time>
      </trkpt>
      <trkpt lat="49.27414" lon="-0.21545">
        <ele>4.2</ele>
        <time>2022-05-31T16:45:45Z</time>
      </trkpt>
      <trkpt lat="49.27414" lon="-0.21545">
        <ele>4.2</ele>
        <time>2022-05-31T16:45:46Z</time>
      </trkpt>
      <trkpt lat="49.27414" lon="-0.21545">
        <ele>4.2</ele>
        <time>2022-05-31T16:45:47Z</time>
      </trkpt>
      <trkpt lat="49.27414" lon="-0.21545">
        <ele>4.2</ele>
        <time>2022-05-31T16:45:48Z</time>
      </trkpt>
      <trkpt lat="49.27414" lon="-0.21546">
        <ele>4.2</ele>
        <time>2022-05-31T16:45:49Z</time>
      </trkpt>
      <trkpt lat="49.27414" lon="-0.21546">
        <ele>4.2</ele>
        <time>2022-05-31T16:45:50Z</time>
      </trkpt>
      <trkpt lat="49.27415" lon="-0.21546">
        <ele>4.2</ele>
        <time>2022-05-31T16:45:51Z</time>
      </trkpt>
      <trkpt lat="49.27416" lon="-0.21546">
        <ele>4.2</ele>
        <time>2022-05-31T16:45:52Z</time>
      </trkpt>
      <trkpt lat="49.27417" lon="-0.21545">
        <ele>4.2</ele>
        <time>2022-05-31T16:45:53Z</time>
      </trkpt>
      <trkpt lat="49.27419" lon="-0.21545">
        <ele>4.2</ele>
        <time>2022-05-31T16:45:54Z</time>
      </trkpt>
      <trkpt lat="49.2742" lon="-0.21546">
        <ele>4.2</ele>
        <time>2022-05-31T16:45:55Z</time>
      </trkpt>
      <trkpt lat="49.2742" lon="-0.21546">
        <ele>4.2</ele>
        <time>2022-05-31T16:45:56Z</time>
      </trkpt>
      <trkpt lat="49.27423" lon="-0.21546">
        <ele>4.3</ele>
        <time>2022-05-31T16:45:57Z</time>
      </trkpt>
      <trkpt lat="49.27424" lon="-0.21546">
        <ele>4.3</ele>
        <time>2022-05-31T16:45:59Z</time>
      </trkpt>
      <trkpt lat="49.27425" lon="-0.21546">
        <ele>4.3</ele>
        <time>2022-05-31T16:46:00Z</time>
      </trkpt>
      <trkpt lat="49.27427" lon="-0.21546">
        <ele>4.3</ele>
        <time>2022-05-31T16:46:01Z</time>
      </trkpt>
      <trkpt lat="49.27429" lon="-0.21548">
        <ele>4.3</ele>
        <time>2022-05-31T16:46:03Z</time>
      </trkpt>
      <trkpt lat="49.27429" lon="-0.21548">
        <ele>4.3</ele>
        <time>2022-05-31T16:46:04Z</time>
      </trkpt>
      <trkpt lat="49.2743" lon="-0.21549">
        <ele>4.3</ele>
        <time>2022-05-31T16:46:05Z</time>
      </trkpt>
      <trkpt lat="49.27432" lon="-0.2155">
        <ele>4.3</ele>
        <time>2022-05-31T16:46:06Z</time>
      </trkpt>
      <trkpt lat="49.27433" lon="-0.2155">
        <ele>4.3</ele>
        <time>2022-05-31T16:46:07Z</time>
      </trkpt>
      <trkpt lat="49.27433" lon="-0.2155">
        <ele>4.3</ele>
        <time>2022-05-31T16:46:08Z</time>
      </trkpt>
      <trkpt lat="49.27434" lon="-0.21551">
        <ele>4.3</ele>
        <time>2022-05-31T16:46:09Z</time>
      </trkpt>
      <trkpt lat="49.27435" lon="-0.21551">
        <ele>4.3</ele>
        <time>2022-05-31T16:46:11Z</time>
      </trkpt>
      <trkpt lat="49.27436" lon="-0.21551">
        <ele>4.3</ele>
        <time>2022-05-31T16:46:12Z</time>
      </trkpt>
      <trkpt lat="49.27437" lon="-0.21551">
        <ele>4.3</ele>
        <time>2022-05-31T16:46:13Z</time>
      </trkpt>
      <trkpt lat="49.27437" lon="-0.21551">
        <ele>4.3</ele>
        <time>2022-05-31T16:46:14Z</time>
      </trkpt>
      <trkpt lat="49.27439" lon="-0.21552">
        <ele>4.3</ele>
        <time>2022-05-31T16:46:16Z</time>
      </trkpt>
      <trkpt lat="49.2744" lon="-0.21552">
        <ele>4.3</ele>
        <time>2022-05-31T16:46:17Z</time>
      </trkpt>
      <trkpt lat="49.2744" lon="-0.21552">
        <ele>4.3</ele>
        <time>2022-05-31T16:46:18Z</time>
      </trkpt>
      <trkpt lat="49.27441" lon="-0.21552">
        <ele>4.3</ele>
        <time>2022-05-31T16:46:19Z</time>
      </trkpt>
      <trkpt lat="49.27441" lon="-0.21552">
        <ele>4.3</ele>
        <time>2022-05-31T16:46:20Z</time>
      </trkpt>
      <trkpt lat="49.27441" lon="-0.21552">
        <ele>4.3</ele>
        <time>2022-05-31T16:46:21Z</time>
      </trkpt>
      <trkpt lat="49.27441" lon="-0.21552">
        <ele>4.3</ele>
        <time>2022-05-31T16:46:22Z</time>
      </trkpt>
      <trkpt lat="49.27441" lon="-0.21552">
        <ele>4.3</ele>
        <time>2022-05-31T16:46:23Z</time>
      </trkpt>
      <trkpt lat="49.27441" lon="-0.21552">
        <ele>4.3</ele>
        <time>2022-05-31T16:46:24Z</time>
      </trkpt>
      <trkpt lat="49.27441" lon="-0.21553">
        <ele>4.3</ele>
        <time>2022-05-31T16:46:25Z</time>
      </trkpt>
      <trkpt lat="49.27441" lon="-0.21553">
        <ele>4.3</ele>
        <time>2022-05-31T16:46:26Z</time>
      </trkpt>
      <trkpt lat="49.27441" lon="-0.21553">
        <ele>4.3</ele>
        <time>2022-05-31T16:46:27Z</time>
      </trkpt>
      <trkpt lat="49.27441" lon="-0.21553">
        <ele>4.3</ele>
        <time>2022-05-31T16:46:28Z</time>
      </trkpt>
      <trkpt lat="49.27442" lon="-0.21553">
        <ele>4.3</ele>
        <time>2022-05-31T16:46:29Z</time>
      </trkpt>
      <trkpt lat="49.27442" lon="-0.21553">
        <ele>4.3</ele>
        <time>2022-05-31T16:46:30Z</time>
      </trkpt>
      <trkpt lat="49.27442" lon="-0.21553">
        <ele>4.3</ele>
        <time>2022-05-31T16:46:31Z</time>
      </trkpt>
      <trkpt lat="49.27442" lon="-0.21554">
        <ele>4.3</ele>
        <time>2022-05-31T16:46:32Z</time>
      </trkpt>
      <trkpt lat="49.27442" lon="-0.21554">
        <ele>4.3</ele>
        <time>2022-05-31T16:46:33Z</time>
      </trkpt>
      <trkpt lat="49.27442" lon="-0.21554">
        <ele>4.3</ele>
        <time>2022-05-31T16:46:34Z</time>
      </trkpt>
      <trkpt lat="49.27442" lon="-0.21554">
        <ele>4.3</ele>
        <time>2022-05-31T16:46:35Z</time>
      </trkpt>
      <trkpt lat="49.27442" lon="-0.21554">
        <ele>4.3</ele>
        <time>2022-05-31T16:46:36Z</time>
      </trkpt>
      <trkpt lat="49.27442" lon="-0.21554">
        <ele>4.3</ele>
        <time>2022-05-31T16:46:37Z</time>
      </trkpt>
      <trkpt lat="49.27442" lon="-0.21554">
        <ele>4.3</ele>
        <time>2022-05-31T16:46:38Z</time>
      </trkpt>
      <trkpt lat="49.27442" lon="-0.21554">
        <ele>4.3</ele>
        <time>2022-05-31T16:46:39Z</time>
      </trkpt>
      <trkpt lat="49.27442" lon="-0.21555">
        <ele>4.3</ele>
        <time>2022-05-31T16:46:40Z</time>
      </trkpt>
      <trkpt lat="49.27442" lon="-0.21555">
        <ele>4.3</ele>
        <time>2022-05-31T16:46:41Z</time>
      </trkpt>
      <trkpt lat="49.27442" lon="-0.21555">
        <ele>4.3</ele>
        <time>2022-05-31T16:46:42Z</time>
      </trkpt>
      <trkpt lat="49.27443" lon="-0.21555">
        <ele>4.3</ele>
        <time>2022-05-31T16:46:43Z</time>
      </trkpt>
      <trkpt lat="49.27443" lon="-0.21555">
        <ele>4.3</ele>
        <time>2022-05-31T16:46:44Z</time>
      </trkpt>
      <trkpt lat="49.27443" lon="-0.21555">
        <ele>4.3</ele>
        <time>2022-05-31T16:46:45Z</time>
      </trkpt>
      <trkpt lat="49.27443" lon="-0.21555">
        <ele>4.3</ele>
        <time>2022-05-31T16:46:46Z</time>
      </trkpt>
      <trkpt lat="49.27443" lon="-0.21555">
        <ele>4.3</ele>
        <time>2022-05-31T16:46:47Z</time>
      </trkpt>
      <trkpt lat="49.27443" lon="-0.21556">
        <ele>4.3</ele>
        <time>2022-05-31T16:46:48Z</time>
      </trkpt>
      <trkpt lat="49.27444" lon="-0.21557">
        <ele>4.3</ele>
        <time>2022-05-31T16:46:49Z</time>
      </trkpt>
      <trkpt lat="49.27446" lon="-0.21558">
        <ele>4.3</ele>
        <time>2022-05-31T16:46:50Z</time>
      </trkpt>
      <trkpt lat="49.27448" lon="-0.21562">
        <ele>4.3</ele>
        <time>2022-05-31T16:46:52Z</time>
      </trkpt>
      <trkpt lat="49.27448" lon="-0.21562">
        <ele>4.3</ele>
        <time>2022-05-31T16:46:53Z</time>
      </trkpt>
      <trkpt lat="49.2745" lon="-0.21564">
        <ele>4.3</ele>
        <time>2022-05-31T16:46:55Z</time>
      </trkpt>
      <trkpt lat="49.2745" lon="-0.21564">
        <ele>4.3</ele>
        <time>2022-05-31T16:46:56Z</time>
      </trkpt>
      <trkpt lat="49.27451" lon="-0.21565">
        <ele>4.3</ele>
        <time>2022-05-31T16:46:57Z</time>
      </trkpt>
      <trkpt lat="49.27452" lon="-0.21566">
        <ele>4.3</ele>
        <time>2022-05-31T16:46:58Z</time>
      </trkpt>
      <trkpt lat="49.27452" lon="-0.21566">
        <ele>4.3</ele>
        <time>2022-05-31T16:46:59Z</time>
      </trkpt>
      <trkpt lat="49.27453" lon="-0.21566">
        <ele>4.3</ele>
        <time>2022-05-31T16:47:01Z</time>
      </trkpt>
      <trkpt lat="49.27453" lon="-0.21567">
        <ele>4.3</ele>
        <time>2022-05-31T16:47:02Z</time>
      </trkpt>
      <trkpt lat="49.27454" lon="-0.21567">
        <ele>4.3</ele>
        <time>2022-05-31T16:47:03Z</time>
      </trkpt>
      <trkpt lat="49.27455" lon="-0.2157">
        <ele>4.2</ele>
        <time>2022-05-31T16:47:05Z</time>
      </trkpt>
      <trkpt lat="49.27456" lon="-0.21572">
        <ele>4.2</ele>
        <time>2022-05-31T16:47:06Z</time>
      </trkpt>
      <trkpt lat="49.27457" lon="-0.21573">
        <ele>4.2</ele>
        <time>2022-05-31T16:47:07Z</time>
      </trkpt>
      <trkpt lat="49.27459" lon="-0.21575">
        <ele>4.2</ele>
        <time>2022-05-31T16:47:08Z</time>
      </trkpt>
      <trkpt lat="49.27459" lon="-0.21576">
        <ele>4.2</ele>
        <time>2022-05-31T16:47:09Z</time>
      </trkpt>
      <trkpt lat="49.2746" lon="-0.21576">
        <ele>4.2</ele>
        <time>2022-05-31T16:47:10Z</time>
      </trkpt>
      <trkpt lat="49.27462" lon="-0.21578">
        <ele>4.1</ele>
        <time>2022-05-31T16:47:11Z</time>
      </trkpt>
      <trkpt lat="49.27463" lon="-0.21578">
        <ele>4.1</ele>
        <time>2022-05-31T16:47:13Z</time>
      </trkpt>
      <trkpt lat="49.27464" lon="-0.21578">
        <ele>4.1</ele>
        <time>2022-05-31T16:47:14Z</time>
      </trkpt>
      <trkpt lat="49.27465" lon="-0.21579">
        <ele>4.1</ele>
        <time>2022-05-31T16:47:15Z</time>
      </trkpt>
      <trkpt lat="49.27466" lon="-0.21579">
        <ele>4.1</ele>
        <time>2022-05-31T16:47:16Z</time>
      </trkpt>
      <trkpt lat="49.27467" lon="-0.2158">
        <ele>4.1</ele>
        <time>2022-05-31T16:47:17Z</time>
      </trkpt>
      <trkpt lat="49.27468" lon="-0.2158">
        <ele>4.1</ele>
        <time>2022-05-31T16:47:18Z</time>
      </trkpt>
      <trkpt lat="49.27469" lon="-0.2158">
        <ele>4.1</ele>
        <time>2022-05-31T16:47:20Z</time>
      </trkpt>
      <trkpt lat="49.2747" lon="-0.21579">
        <ele>4.1</ele>
        <time>2022-05-31T16:47:21Z</time>
      </trkpt>
      <trkpt lat="49.2747" lon="-0.21578">
        <ele>4</ele>
        <time>2022-05-31T16:47:22Z</time>
      </trkpt>
      <trkpt lat="49.27471" lon="-0.21578">
        <ele>4</ele>
        <time>2022-05-31T16:47:23Z</time>
      </trkpt>
      <trkpt lat="49.27472" lon="-0.21577">
        <ele>4</ele>
        <time>2022-05-31T16:47:24Z</time>
      </trkpt>
      <trkpt lat="49.27472" lon="-0.21576">
        <ele>4</ele>
        <time>2022-05-31T16:47:26Z</time>
      </trkpt>
      <trkpt lat="49.27473" lon="-0.21575">
        <ele>4</ele>
        <time>2022-05-31T16:47:27Z</time>
      </trkpt>
      <trkpt lat="49.27473" lon="-0.21574">
        <ele>4</ele>
        <time>2022-05-31T16:47:28Z</time>
      </trkpt>
      <trkpt lat="49.27474" lon="-0.21573">
        <ele>4</ele>
        <time>2022-05-31T16:47:29Z</time>
      </trkpt>
      <trkpt lat="49.27475" lon="-0.21573">
        <ele>4</ele>
        <time>2022-05-31T16:47:30Z</time>
      </trkpt>
      <trkpt lat="49.27475" lon="-0.21574">
        <ele>4</ele>
        <time>2022-05-31T16:47:32Z</time>
      </trkpt>
      <trkpt lat="49.27476" lon="-0.21574">
        <ele>4</ele>
        <time>2022-05-31T16:47:33Z</time>
      </trkpt>
      <trkpt lat="49.27476" lon="-0.21575">
        <ele>4</ele>
        <time>2022-05-31T16:47:34Z</time>
      </trkpt>
      <trkpt lat="49.27476" lon="-0.21575">
        <ele>4</ele>
        <time>2022-05-31T16:47:35Z</time>
      </trkpt>
      <trkpt lat="49.27476" lon="-0.21575">
        <ele>4</ele>
        <time>2022-05-31T16:47:36Z</time>
      </trkpt>
      <trkpt lat="49.27475" lon="-0.21575">
        <ele>4</ele>
        <time>2022-05-31T16:47:37Z</time>
      </trkpt>
      <trkpt lat="49.27475" lon="-0.21575">
        <ele>4</ele>
        <time>2022-05-31T16:47:38Z</time>
      </trkpt>
      <trkpt lat="49.27475" lon="-0.21575">
        <ele>4</ele>
        <time>2022-05-31T16:47:39Z</time>
      </trkpt>
      <trkpt lat="49.27475" lon="-0.21575">
        <ele>4</ele>
        <time>2022-05-31T16:47:40Z</time>
      </trkpt>
      <trkpt lat="49.27474" lon="-0.21575">
        <ele>4</ele>
        <time>2022-05-31T16:47:41Z</time>
      </trkpt>
      <trkpt lat="49.27474" lon="-0.21575">
        <ele>4</ele>
        <time>2022-05-31T16:47:42Z</time>
      </trkpt>
      <trkpt lat="49.27474" lon="-0.21575">
        <ele>4</ele>
        <time>2022-05-31T16:47:43Z</time>
      </trkpt>
      <trkpt lat="49.27474" lon="-0.21575">
        <ele>4</ele>
        <time>2022-05-31T16:47:44Z</time>
      </trkpt>
      <trkpt lat="49.27474" lon="-0.21575">
        <ele>4</ele>
        <time>2022-05-31T16:47:45Z</time>
      </trkpt>
      <trkpt lat="49.27474" lon="-0.21575">
        <ele>4</ele>
        <time>2022-05-31T16:47:46Z</time>
      </trkpt>
      <trkpt lat="49.27474" lon="-0.21575">
        <ele>4</ele>
        <time>2022-05-31T16:47:47Z</time>
      </trkpt>
      <trkpt lat="49.27474" lon="-0.21575">
        <ele>4</ele>
        <time>2022-05-31T16:47:48Z</time>
      </trkpt>
      <trkpt lat="49.27474" lon="-0.21575">
        <ele>4</ele>
        <time>2022-05-31T16:47:49Z</time>
      </trkpt>
      <trkpt lat="49.27474" lon="-0.21575">
        <ele>4</ele>
        <time>2022-05-31T16:47:50Z</time>
      </trkpt>
      <trkpt lat="49.27474" lon="-0.21575">
        <ele>4</ele>
        <time>2022-05-31T16:47:51Z</time>
      </trkpt>
      <trkpt lat="49.27474" lon="-0.21575">
        <ele>4</ele>
        <time>2022-05-31T16:47:52Z</time>
      </trkpt>
      <trkpt lat="49.27474" lon="-0.21575">
        <ele>4</ele>
        <time>2022-05-31T16:47:53Z</time>
      </trkpt>
      <trkpt lat="49.27474" lon="-0.21575">
        <ele>4</ele>
        <time>2022-05-31T16:47:54Z</time>
      </trkpt>
      <trkpt lat="49.27474" lon="-0.21575">
        <ele>4</ele>
        <time>2022-05-31T16:47:55Z</time>
      </trkpt>
      <trkpt lat="49.27474" lon="-0.21575">
        <ele>4</ele>
        <time>2022-05-31T16:47:56Z</time>
      </trkpt>
      <trkpt lat="49.27474" lon="-0.21575">
        <ele>4</ele>
        <time>2022-05-31T16:47:57Z</time>
      </trkpt>
      <trkpt lat="49.27474" lon="-0.21575">
        <ele>4</ele>
        <time>2022-05-31T16:47:58Z</time>
      </trkpt>
      <trkpt lat="49.27474" lon="-0.21575">
        <ele>4</ele>
        <time>2022-05-31T16:47:59Z</time>
      </trkpt>
      <trkpt lat="49.27474" lon="-0.21575">
        <ele>4</ele>
        <time>2022-05-31T16:48:00Z</time>
      </trkpt>
      <trkpt lat="49.27474" lon="-0.21575">
        <ele>4</ele>
        <time>2022-05-31T16:48:01Z</time>
      </trkpt>
      <trkpt lat="49.27474" lon="-0.21575">
        <ele>4</ele>
        <time>2022-05-31T16:48:02Z</time>
      </trkpt>
      <trkpt lat="49.27474" lon="-0.21575">
        <ele>4</ele>
        <time>2022-05-31T16:48:03Z</time>
      </trkpt>
      <trkpt lat="49.27474" lon="-0.21575">
        <ele>4</ele>
        <time>2022-05-31T16:48:04Z</time>
      </trkpt>
      <trkpt lat="49.27474" lon="-0.21575">
        <ele>4</ele>
        <time>2022-05-31T16:48:05Z</time>
      </trkpt>
      <trkpt lat="49.27474" lon="-0.21575">
        <ele>4</ele>
        <time>2022-05-31T16:48:06Z</time>
      </trkpt>
      <trkpt lat="49.27474" lon="-0.21575">
        <ele>4</ele>
        <time>2022-05-31T16:48:07Z</time>
      </trkpt>
      <trkpt lat="49.27474" lon="-0.21575">
        <ele>4</ele>
        <time>2022-05-31T16:48:08Z</time>
      </trkpt>
      <trkpt lat="49.27474" lon="-0.21575">
        <ele>4</ele>
        <time>2022-05-31T16:48:09Z</time>
      </trkpt>
      <trkpt lat="49.27474" lon="-0.21575">
        <ele>4</ele>
        <time>2022-05-31T16:48:10Z</time>
      </trkpt>
      <trkpt lat="49.27474" lon="-0.21575">
        <ele>4</ele>
        <time>2022-05-31T16:48:11Z</time>
      </trkpt>
      <trkpt lat="49.27474" lon="-0.21575">
        <ele>4</ele>
        <time>2022-05-31T16:48:12Z</time>
      </trkpt>
      <trkpt lat="49.27475" lon="-0.21574">
        <ele>4</ele>
        <time>2022-05-31T16:48:13Z</time>
      </trkpt>
      <trkpt lat="49.27476" lon="-0.21573">
        <ele>4</ele>
        <time>2022-05-31T16:48:14Z</time>
      </trkpt>
      <trkpt lat="49.27476" lon="-0.21573">
        <ele>3.9</ele>
        <time>2022-05-31T16:48:15Z</time>
      </trkpt>
      <trkpt lat="49.27476" lon="-0.21573">
        <ele>3.9</ele>
        <time>2022-05-31T16:48:16Z</time>
      </trkpt>
      <trkpt lat="49.27476" lon="-0.21573">
        <ele>3.9</ele>
        <time>2022-05-31T16:48:17Z</time>
      </trkpt>
      <trkpt lat="49.27476" lon="-0.21573">
        <ele>3.9</ele>
        <time>2022-05-31T16:48:18Z</time>
      </trkpt>
      <trkpt lat="49.27476" lon="-0.21573">
        <ele>3.9</ele>
        <time>2022-05-31T16:48:19Z</time>
      </trkpt>
      <trkpt lat="49.27476" lon="-0.21573">
        <ele>3.9</ele>
        <time>2022-05-31T16:48:20Z</time>
      </trkpt>
      <trkpt lat="49.27477" lon="-0.21573">
        <ele>3.9</ele>
        <time>2022-05-31T16:48:21Z</time>
      </trkpt>
      <trkpt lat="49.27478" lon="-0.21573">
        <ele>3.9</ele>
        <time>2022-05-31T16:48:22Z</time>
      </trkpt>
      <trkpt lat="49.27479" lon="-0.21573">
        <ele>3.9</ele>
        <time>2022-05-31T16:48:23Z</time>
      </trkpt>
      <trkpt lat="49.2748" lon="-0.21572">
        <ele>3.9</ele>
        <time>2022-05-31T16:48:24Z</time>
      </trkpt>
      <trkpt lat="49.27482" lon="-0.21572">
        <ele>3.9</ele>
        <time>2022-05-31T16:48:25Z</time>
      </trkpt>
      <trkpt lat="49.27484" lon="-0.2157">
        <ele>3.9</ele>
        <time>2022-05-31T16:48:26Z</time>
      </trkpt>
      <trkpt lat="49.27485" lon="-0.2157">
        <ele>3.9</ele>
        <time>2022-05-31T16:48:27Z</time>
      </trkpt>
      <trkpt lat="49.27487" lon="-0.21569">
        <ele>3.9</ele>
        <time>2022-05-31T16:48:28Z</time>
      </trkpt>
      <trkpt lat="49.27489" lon="-0.21569">
        <ele>3.9</ele>
        <time>2022-05-31T16:48:29Z</time>
      </trkpt>
      <trkpt lat="49.2749" lon="-0.21568">
        <ele>3.9</ele>
        <time>2022-05-31T16:48:30Z</time>
      </trkpt>
      <trkpt lat="49.27491" lon="-0.21567">
        <ele>3.9</ele>
        <time>2022-05-31T16:48:31Z</time>
      </trkpt>
      <trkpt lat="49.27493" lon="-0.21567">
        <ele>3.9</ele>
        <time>2022-05-31T16:48:32Z</time>
      </trkpt>
      <trkpt lat="49.27493" lon="-0.21566">
        <ele>3.9</ele>
        <time>2022-05-31T16:48:33Z</time>
      </trkpt>
      <trkpt lat="49.27495" lon="-0.21565">
        <ele>3.9</ele>
        <time>2022-05-31T16:48:34Z</time>
      </trkpt>
      <trkpt lat="49.27495" lon="-0.21565">
        <ele>3.9</ele>
        <time>2022-05-31T16:48:36Z</time>
      </trkpt>
      <trkpt lat="49.27496" lon="-0.21564">
        <ele>3.9</ele>
        <time>2022-05-31T16:48:37Z</time>
      </trkpt>
      <trkpt lat="49.27497" lon="-0.21564">
        <ele>3.9</ele>
        <time>2022-05-31T16:48:38Z</time>
      </trkpt>
      <trkpt lat="49.27499" lon="-0.21562">
        <ele>3.9</ele>
        <time>2022-05-31T16:48:39Z</time>
      </trkpt>
      <trkpt lat="49.275" lon="-0.21562">
        <ele>3.9</ele>
        <time>2022-05-31T16:48:40Z</time>
      </trkpt>
      <trkpt lat="49.27502" lon="-0.21561">
        <ele>3.9</ele>
        <time>2022-05-31T16:48:41Z</time>
      </trkpt>
      <trkpt lat="49.27503" lon="-0.21561">
        <ele>3.9</ele>
        <time>2022-05-31T16:48:42Z</time>
      </trkpt>
      <trkpt lat="49.27506" lon="-0.2156">
        <ele>3.9</ele>
        <time>2022-05-31T16:48:44Z</time>
      </trkpt>
      <trkpt lat="49.27506" lon="-0.2156">
        <ele>3.9</ele>
        <time>2022-05-31T16:48:45Z</time>
      </trkpt>
      <trkpt lat="49.27507" lon="-0.2156">
        <ele>3.9</ele>
        <time>2022-05-31T16:48:46Z</time>
      </trkpt>
      <trkpt lat="49.27508" lon="-0.2156">
        <ele>3.9</ele>
        <time>2022-05-31T16:48:47Z</time>
      </trkpt>
      <trkpt lat="49.2751" lon="-0.2156">
        <ele>3.9</ele>
        <time>2022-05-31T16:48:48Z</time>
      </trkpt>
      <trkpt lat="49.27511" lon="-0.2156">
        <ele>4</ele>
        <time>2022-05-31T16:48:49Z</time>
      </trkpt>
      <trkpt lat="49.27512" lon="-0.21559">
        <ele>4</ele>
        <time>2022-05-31T16:48:50Z</time>
      </trkpt>
      <trkpt lat="49.27514" lon="-0.21559">
        <ele>4</ele>
        <time>2022-05-31T16:48:51Z</time>
      </trkpt>
      <trkpt lat="49.27515" lon="-0.21559">
        <ele>4</ele>
        <time>2022-05-31T16:48:52Z</time>
      </trkpt>
      <trkpt lat="49.27516" lon="-0.21559">
        <ele>4</ele>
        <time>2022-05-31T16:48:53Z</time>
      </trkpt>
      <trkpt lat="49.27517" lon="-0.21559">
        <ele>4</ele>
        <time>2022-05-31T16:48:54Z</time>
      </trkpt>
      <trkpt lat="49.27519" lon="-0.21558">
        <ele>4</ele>
        <time>2022-05-31T16:48:55Z</time>
      </trkpt>
      <trkpt lat="49.2752" lon="-0.21557">
        <ele>4</ele>
        <time>2022-05-31T16:48:56Z</time>
      </trkpt>
      <trkpt lat="49.27522" lon="-0.21556">
        <ele>4</ele>
        <time>2022-05-31T16:48:57Z</time>
      </trkpt>
      <trkpt lat="49.27523" lon="-0.21556">
        <ele>4</ele>
        <time>2022-05-31T16:48:59Z</time>
      </trkpt>
      <trkpt lat="49.27524" lon="-0.21555">
        <ele>4</ele>
        <time>2022-05-31T16:49:00Z</time>
      </trkpt>
      <trkpt lat="49.27525" lon="-0.21554">
        <ele>4</ele>
        <time>2022-05-31T16:49:01Z</time>
      </trkpt>
      <trkpt lat="49.27527" lon="-0.21553">
        <ele>4</ele>
        <time>2022-05-31T16:49:02Z</time>
      </trkpt>
      <trkpt lat="49.27528" lon="-0.21551">
        <ele>4</ele>
        <time>2022-05-31T16:49:03Z</time>
      </trkpt>
      <trkpt lat="49.27529" lon="-0.2155">
        <ele>4</ele>
        <time>2022-05-31T16:49:04Z</time>
      </trkpt>
      <trkpt lat="49.2753" lon="-0.21549">
        <ele>4</ele>
        <time>2022-05-31T16:49:05Z</time>
      </trkpt>
      <trkpt lat="49.27531" lon="-0.21549">
        <ele>4</ele>
        <time>2022-05-31T16:49:06Z</time>
      </trkpt>
      <trkpt lat="49.27533" lon="-0.21548">
        <ele>4</ele>
        <time>2022-05-31T16:49:07Z</time>
      </trkpt>
      <trkpt lat="49.27534" lon="-0.21548">
        <ele>4</ele>
        <time>2022-05-31T16:49:08Z</time>
      </trkpt>
      <trkpt lat="49.27536" lon="-0.21547">
        <ele>4</ele>
        <time>2022-05-31T16:49:09Z</time>
      </trkpt>
      <trkpt lat="49.27537" lon="-0.21546">
        <ele>4</ele>
        <time>2022-05-31T16:49:11Z</time>
      </trkpt>
      <trkpt lat="49.27538" lon="-0.21545">
        <ele>4</ele>
        <time>2022-05-31T16:49:12Z</time>
      </trkpt>
      <trkpt lat="49.2754" lon="-0.21544">
        <ele>3.9</ele>
        <time>2022-05-31T16:49:13Z</time>
      </trkpt>
      <trkpt lat="49.27541" lon="-0.21543">
        <ele>3.9</ele>
        <time>2022-05-31T16:49:14Z</time>
      </trkpt>
      <trkpt lat="49.27543" lon="-0.21543">
        <ele>3.9</ele>
        <time>2022-05-31T16:49:15Z</time>
      </trkpt>
      <trkpt lat="49.27545" lon="-0.21542">
        <ele>3.9</ele>
        <time>2022-05-31T16:49:17Z</time>
      </trkpt>
      <trkpt lat="49.27546" lon="-0.21542">
        <ele>3.9</ele>
        <time>2022-05-31T16:49:18Z</time>
      </trkpt>
      <trkpt lat="49.27547" lon="-0.21542">
        <ele>3.9</ele>
        <time>2022-05-31T16:49:19Z</time>
      </trkpt>
      <trkpt lat="49.27548" lon="-0.21542">
        <ele>3.9</ele>
        <time>2022-05-31T16:49:20Z</time>
      </trkpt>
      <trkpt lat="49.2755" lon="-0.21542">
        <ele>3.8</ele>
        <time>2022-05-31T16:49:21Z</time>
      </trkpt>
      <trkpt lat="49.27551" lon="-0.21541">
        <ele>3.8</ele>
        <time>2022-05-31T16:49:22Z</time>
      </trkpt>
      <trkpt lat="49.27552" lon="-0.21541">
        <ele>3.8</ele>
        <time>2022-05-31T16:49:23Z</time>
      </trkpt>
      <trkpt lat="49.27554" lon="-0.2154">
        <ele>3.8</ele>
        <time>2022-05-31T16:49:24Z</time>
      </trkpt>
      <trkpt lat="49.27555" lon="-0.2154">
        <ele>3.8</ele>
        <time>2022-05-31T16:49:25Z</time>
      </trkpt>
      <trkpt lat="49.27556" lon="-0.2154">
        <ele>3.8</ele>
        <time>2022-05-31T16:49:26Z</time>
      </trkpt>
      <trkpt lat="49.27558" lon="-0.2154">
        <ele>3.8</ele>
        <time>2022-05-31T16:49:27Z</time>
      </trkpt>
      <trkpt lat="49.27559" lon="-0.2154">
        <ele>3.8</ele>
        <time>2022-05-31T16:49:28Z</time>
      </trkpt>
      <trkpt lat="49.2756" lon="-0.2154">
        <ele>3.8</ele>
        <time>2022-05-31T16:49:29Z</time>
      </trkpt>
      <trkpt lat="49.27562" lon="-0.21539">
        <ele>3.8</ele>
        <time>2022-05-31T16:49:30Z</time>
      </trkpt>
      <trkpt lat="49.27563" lon="-0.21539">
        <ele>3.8</ele>
        <time>2022-05-31T16:49:31Z</time>
      </trkpt>
      <trkpt lat="49.27563" lon="-0.21539">
        <ele>3.8</ele>
        <time>2022-05-31T16:49:32Z</time>
      </trkpt>
      <trkpt lat="49.27565" lon="-0.21538">
        <ele>3.8</ele>
        <time>2022-05-31T16:49:34Z</time>
      </trkpt>
      <trkpt lat="49.27566" lon="-0.21538">
        <ele>3.8</ele>
        <time>2022-05-31T16:49:35Z</time>
      </trkpt>
      <trkpt lat="49.27566" lon="-0.21538">
        <ele>3.8</ele>
        <time>2022-05-31T16:49:36Z</time>
      </trkpt>
      <trkpt lat="49.27568" lon="-0.21537">
        <ele>3.8</ele>
        <time>2022-05-31T16:49:37Z</time>
      </trkpt>
      <trkpt lat="49.27569" lon="-0.21536">
        <ele>3.8</ele>
        <time>2022-05-31T16:49:38Z</time>
      </trkpt>
      <trkpt lat="49.2757" lon="-0.21536">
        <ele>3.8</ele>
        <time>2022-05-31T16:49:39Z</time>
      </trkpt>
      <trkpt lat="49.27571" lon="-0.21535">
        <ele>3.7</ele>
        <time>2022-05-31T16:49:40Z</time>
      </trkpt>
      <trkpt lat="49.27572" lon="-0.21534">
        <ele>3.7</ele>
        <time>2022-05-31T16:49:42Z</time>
      </trkpt>
      <trkpt lat="49.27573" lon="-0.21533">
        <ele>3.7</ele>
        <time>2022-05-31T16:49:43Z</time>
      </trkpt>
      <trkpt lat="49.27574" lon="-0.21533">
        <ele>3.7</ele>
        <time>2022-05-31T16:49:44Z</time>
      </trkpt>
      <trkpt lat="49.27575" lon="-0.21532">
        <ele>3.7</ele>
        <time>2022-05-31T16:49:45Z</time>
      </trkpt>
      <trkpt lat="49.27577" lon="-0.21531">
        <ele>3.7</ele>
        <time>2022-05-31T16:49:46Z</time>
      </trkpt>
      <trkpt lat="49.27578" lon="-0.21531">
        <ele>3.7</ele>
        <time>2022-05-31T16:49:47Z</time>
      </trkpt>
      <trkpt lat="49.27579" lon="-0.2153">
        <ele>3.7</ele>
        <time>2022-05-31T16:49:48Z</time>
      </trkpt>
      <trkpt lat="49.2758" lon="-0.2153">
        <ele>3.7</ele>
        <time>2022-05-31T16:49:49Z</time>
      </trkpt>
      <trkpt lat="49.27581" lon="-0.21529">
        <ele>3.7</ele>
        <time>2022-05-31T16:49:50Z</time>
      </trkpt>
      <trkpt lat="49.27582" lon="-0.21529">
        <ele>3.7</ele>
        <time>2022-05-31T16:49:51Z</time>
      </trkpt>
      <trkpt lat="49.27583" lon="-0.21529">
        <ele>3.7</ele>
        <time>2022-05-31T16:49:52Z</time>
      </trkpt>
      <trkpt lat="49.27585" lon="-0.21529">
        <ele>3.7</ele>
        <time>2022-05-31T16:49:53Z</time>
      </trkpt>
      <trkpt lat="49.27586" lon="-0.2153">
        <ele>3.7</ele>
        <time>2022-05-31T16:49:54Z</time>
      </trkpt>
      <trkpt lat="49.27588" lon="-0.2153">
        <ele>3.7</ele>
        <time>2022-05-31T16:49:55Z</time>
      </trkpt>
      <trkpt lat="49.27588" lon="-0.2153">
        <ele>3.7</ele>
        <time>2022-05-31T16:49:57Z</time>
      </trkpt>
      <trkpt lat="49.27589" lon="-0.21531">
        <ele>3.7</ele>
        <time>2022-05-31T16:49:58Z</time>
      </trkpt>
      <trkpt lat="49.2759" lon="-0.21531">
        <ele>3.7</ele>
        <time>2022-05-31T16:49:59Z</time>
      </trkpt>
      <trkpt lat="49.27591" lon="-0.21531">
        <ele>3.7</ele>
        <time>2022-05-31T16:50:00Z</time>
      </trkpt>
      <trkpt lat="49.27593" lon="-0.21531">
        <ele>3.7</ele>
        <time>2022-05-31T16:50:01Z</time>
      </trkpt>
      <trkpt lat="49.27595" lon="-0.21532">
        <ele>3.7</ele>
        <time>2022-05-31T16:50:02Z</time>
      </trkpt>
      <trkpt lat="49.27596" lon="-0.21532">
        <ele>3.7</ele>
        <time>2022-05-31T16:50:03Z</time>
      </trkpt>
      <trkpt lat="49.27596" lon="-0.21532">
        <ele>3.7</ele>
        <time>2022-05-31T16:50:04Z</time>
      </trkpt>
      <trkpt lat="49.27598" lon="-0.21533">
        <ele>3.7</ele>
        <time>2022-05-31T16:50:05Z</time>
      </trkpt>
      <trkpt lat="49.27599" lon="-0.21533">
        <ele>3.7</ele>
        <time>2022-05-31T16:50:07Z</time>
      </trkpt>
      <trkpt lat="49.276" lon="-0.21534">
        <ele>3.7</ele>
        <time>2022-05-31T16:50:08Z</time>
      </trkpt>
      <trkpt lat="49.27602" lon="-0.21534">
        <ele>3.7</ele>
        <time>2022-05-31T16:50:09Z</time>
      </trkpt>
      <trkpt lat="49.27604" lon="-0.21534">
        <ele>3.7</ele>
        <time>2022-05-31T16:50:10Z</time>
      </trkpt>
      <trkpt lat="49.27605" lon="-0.21534">
        <ele>3.7</ele>
        <time>2022-05-31T16:50:11Z</time>
      </trkpt>
      <trkpt lat="49.27606" lon="-0.21534">
        <ele>3.7</ele>
        <time>2022-05-31T16:50:12Z</time>
      </trkpt>
      <trkpt lat="49.27608" lon="-0.21534">
        <ele>3.7</ele>
        <time>2022-05-31T16:50:13Z</time>
      </trkpt>
      <trkpt lat="49.2761" lon="-0.21534">
        <ele>3.7</ele>
        <time>2022-05-31T16:50:15Z</time>
      </trkpt>
      <trkpt lat="49.27611" lon="-0.21534">
        <ele>3.7</ele>
        <time>2022-05-31T16:50:16Z</time>
      </trkpt>
      <trkpt lat="49.27612" lon="-0.21534">
        <ele>3.6</ele>
        <time>2022-05-31T16:50:17Z</time>
      </trkpt>
      <trkpt lat="49.27613" lon="-0.21533">
        <ele>3.6</ele>
        <time>2022-05-31T16:50:18Z</time>
      </trkpt>
      <trkpt lat="49.27616" lon="-0.21533">
        <ele>3.6</ele>
        <time>2022-05-31T16:50:19Z</time>
      </trkpt>
      <trkpt lat="49.27616" lon="-0.21533">
        <ele>3.6</ele>
        <time>2022-05-31T16:50:20Z</time>
      </trkpt>
      <trkpt lat="49.27617" lon="-0.21532">
        <ele>3.6</ele>
        <time>2022-05-31T16:50:21Z</time>
      </trkpt>
      <trkpt lat="49.27618" lon="-0.21532">
        <ele>3.6</ele>
        <time>2022-05-31T16:50:22Z</time>
      </trkpt>
      <trkpt lat="49.2762" lon="-0.21532">
        <ele>3.6</ele>
        <time>2022-05-31T16:50:24Z</time>
      </trkpt>
      <trkpt lat="49.2762" lon="-0.21532">
        <ele>3.6</ele>
        <time>2022-05-31T16:50:25Z</time>
      </trkpt>
      <trkpt lat="49.27621" lon="-0.21532">
        <ele>3.6</ele>
        <time>2022-05-31T16:50:26Z</time>
      </trkpt>
      <trkpt lat="49.27622" lon="-0.21532">
        <ele>3.6</ele>
        <time>2022-05-31T16:50:27Z</time>
      </trkpt>
      <trkpt lat="49.27623" lon="-0.21533">
        <ele>3.6</ele>
        <time>2022-05-31T16:50:28Z</time>
      </trkpt>
      <trkpt lat="49.27624" lon="-0.21533">
        <ele>3.6</ele>
        <time>2022-05-31T16:50:30Z</time>
      </trkpt>
      <trkpt lat="49.27624" lon="-0.21533">
        <ele>3.6</ele>
        <time>2022-05-31T16:50:31Z</time>
      </trkpt>
      <trkpt lat="49.27625" lon="-0.21533">
        <ele>3.6</ele>
        <time>2022-05-31T16:50:32Z</time>
      </trkpt>
      <trkpt lat="49.27626" lon="-0.21533">
        <ele>3.6</ele>
        <time>2022-05-31T16:50:33Z</time>
      </trkpt>
      <trkpt lat="49.27627" lon="-0.21533">
        <ele>3.6</ele>
        <time>2022-05-31T16:50:34Z</time>
      </trkpt>
      <trkpt lat="49.27628" lon="-0.21533">
        <ele>3.6</ele>
        <time>2022-05-31T16:50:35Z</time>
      </trkpt>
      <trkpt lat="49.27625" lon="-0.21534">
        <ele>3.6</ele>
        <time>2022-05-31T16:50:36Z</time>
      </trkpt>
      <trkpt lat="49.27625" lon="-0.21534">
        <ele>3.6</ele>
        <time>2022-05-31T16:50:37Z</time>
      </trkpt>
      <trkpt lat="49.27625" lon="-0.21534">
        <ele>3.6</ele>
        <time>2022-05-31T16:50:38Z</time>
      </trkpt>
      <trkpt lat="49.27625" lon="-0.21535">
        <ele>3.6</ele>
        <time>2022-05-31T16:50:39Z</time>
      </trkpt>
      <trkpt lat="49.27625" lon="-0.21535">
        <ele>3.6</ele>
        <time>2022-05-31T16:50:40Z</time>
      </trkpt>
      <trkpt lat="49.27625" lon="-0.21536">
        <ele>3.6</ele>
        <time>2022-05-31T16:50:41Z</time>
      </trkpt>
      <trkpt lat="49.27626" lon="-0.21536">
        <ele>3.6</ele>
        <time>2022-05-31T16:50:42Z</time>
      </trkpt>
      <trkpt lat="49.27626" lon="-0.21537">
        <ele>3.6</ele>
        <time>2022-05-31T16:50:43Z</time>
      </trkpt>
      <trkpt lat="49.27626" lon="-0.21536">
        <ele>3.6</ele>
        <time>2022-05-31T16:50:44Z</time>
      </trkpt>
      <trkpt lat="49.27626" lon="-0.21536">
        <ele>3.6</ele>
        <time>2022-05-31T16:50:45Z</time>
      </trkpt>
      <trkpt lat="49.27626" lon="-0.21536">
        <ele>3.6</ele>
        <time>2022-05-31T16:50:46Z</time>
      </trkpt>
      <trkpt lat="49.27626" lon="-0.21536">
        <ele>3.6</ele>
        <time>2022-05-31T16:50:47Z</time>
      </trkpt>
      <trkpt lat="49.27626" lon="-0.21535">
        <ele>3.6</ele>
        <time>2022-05-31T16:50:48Z</time>
      </trkpt>
      <trkpt lat="49.27626" lon="-0.21535">
        <ele>3.6</ele>
        <time>2022-05-31T16:50:49Z</time>
      </trkpt>
      <trkpt lat="49.27626" lon="-0.21535">
        <ele>3.6</ele>
        <time>2022-05-31T16:50:50Z</time>
      </trkpt>
      <trkpt lat="49.27626" lon="-0.21535">
        <ele>3.6</ele>
        <time>2022-05-31T16:50:51Z</time>
      </trkpt>
      <trkpt lat="49.27626" lon="-0.21534">
        <ele>3.6</ele>
        <time>2022-05-31T16:50:52Z</time>
      </trkpt>
      <trkpt lat="49.27625" lon="-0.21534">
        <ele>3.6</ele>
        <time>2022-05-31T16:50:53Z</time>
      </trkpt>
      <trkpt lat="49.27625" lon="-0.21534">
        <ele>3.6</ele>
        <time>2022-05-31T16:50:54Z</time>
      </trkpt>
      <trkpt lat="49.27625" lon="-0.21534">
        <ele>3.6</ele>
        <time>2022-05-31T16:50:55Z</time>
      </trkpt>
      <trkpt lat="49.27625" lon="-0.21533">
        <ele>3.6</ele>
        <time>2022-05-31T16:50:57Z</time>
      </trkpt>
      <trkpt lat="49.27626" lon="-0.21533">
        <ele>3.6</ele>
        <time>2022-05-31T16:50:58Z</time>
      </trkpt>
      <trkpt lat="49.27626" lon="-0.21533">
        <ele>3.6</ele>
        <time>2022-05-31T16:50:59Z</time>
      </trkpt>
      <trkpt lat="49.27626" lon="-0.21533">
        <ele>3.6</ele>
        <time>2022-05-31T16:51:00Z</time>
      </trkpt>
      <trkpt lat="49.27626" lon="-0.21533">
        <ele>3.6</ele>
        <time>2022-05-31T16:51:01Z</time>
      </trkpt>
      <trkpt lat="49.27626" lon="-0.21533">
        <ele>3.6</ele>
        <time>2022-05-31T16:51:02Z</time>
      </trkpt>
      <trkpt lat="49.27626" lon="-0.21533">
        <ele>3.6</ele>
        <time>2022-05-31T16:51:03Z</time>
      </trkpt>
      <trkpt lat="49.27626" lon="-0.21533">
        <ele>3.6</ele>
        <time>2022-05-31T16:51:04Z</time>
      </trkpt>
      <trkpt lat="49.27626" lon="-0.21533">
        <ele>3.6</ele>
        <time>2022-05-31T16:51:05Z</time>
      </trkpt>
      <trkpt lat="49.27626" lon="-0.21533">
        <ele>3.6</ele>
        <time>2022-05-31T16:51:06Z</time>
      </trkpt>
      <trkpt lat="49.27626" lon="-0.21533">
        <ele>3.6</ele>
        <time>2022-05-31T16:51:07Z</time>
      </trkpt>
      <trkpt lat="49.27626" lon="-0.21533">
        <ele>3.6</ele>
        <time>2022-05-31T16:51:08Z</time>
      </trkpt>
      <trkpt lat="49.27626" lon="-0.21533">
        <ele>3.6</ele>
        <time>2022-05-31T16:51:09Z</time>
      </trkpt>
      <trkpt lat="49.27626" lon="-0.21533">
        <ele>3.6</ele>
        <time>2022-05-31T16:51:10Z</time>
      </trkpt>
      <trkpt lat="49.27626" lon="-0.21533">
        <ele>3.6</ele>
        <time>2022-05-31T16:51:11Z</time>
      </trkpt>
      <trkpt lat="49.27626" lon="-0.21533">
        <ele>3.6</ele>
        <time>2022-05-31T16:51:12Z</time>
      </trkpt>
      <trkpt lat="49.27626" lon="-0.21533">
        <ele>3.6</ele>
        <time>2022-05-31T16:51:13Z</time>
      </trkpt>
      <trkpt lat="49.27626" lon="-0.21533">
        <ele>3.6</ele>
        <time>2022-05-31T16:51:14Z</time>
      </trkpt>
      <trkpt lat="49.27626" lon="-0.21533">
        <ele>3.6</ele>
        <time>2022-05-31T16:51:15Z</time>
      </trkpt>
      <trkpt lat="49.27626" lon="-0.21533">
        <ele>3.6</ele>
        <time>2022-05-31T16:51:16Z</time>
      </trkpt>
      <trkpt lat="49.27626" lon="-0.21533">
        <ele>3.6</ele>
        <time>2022-05-31T16:51:17Z</time>
      </trkpt>
      <trkpt lat="49.27626" lon="-0.21533">
        <ele>3.6</ele>
        <time>2022-05-31T16:51:18Z</time>
      </trkpt>
      <trkpt lat="49.27626" lon="-0.21533">
        <ele>3.6</ele>
        <time>2022-05-31T16:51:19Z</time>
      </trkpt>
      <trkpt lat="49.27626" lon="-0.21533">
        <ele>3.6</ele>
        <time>2022-05-31T16:51:20Z</time>
      </trkpt>
      <trkpt lat="49.27626" lon="-0.21533">
        <ele>3.6</ele>
        <time>2022-05-31T16:51:21Z</time>
      </trkpt>
      <trkpt lat="49.27626" lon="-0.21533">
        <ele>3.6</ele>
        <time>2022-05-31T16:51:22Z</time>
      </trkpt>
      <trkpt lat="49.27626" lon="-0.21533">
        <ele>3.6</ele>
        <time>2022-05-31T16:51:23Z</time>
      </trkpt>
      <trkpt lat="49.27626" lon="-0.21533">
        <ele>3.6</ele>
        <time>2022-05-31T16:51:24Z</time>
      </trkpt>
      <trkpt lat="49.27626" lon="-0.21533">
        <ele>3.6</ele>
        <time>2022-05-31T16:51:25Z</time>
      </trkpt>
      <trkpt lat="49.27626" lon="-0.21533">
        <ele>3.6</ele>
        <time>2022-05-31T16:51:26Z</time>
      </trkpt>
      <trkpt lat="49.27626" lon="-0.21533">
        <ele>3.6</ele>
        <time>2022-05-31T16:51:27Z</time>
      </trkpt>
      <trkpt lat="49.27626" lon="-0.21533">
        <ele>3.6</ele>
        <time>2022-05-31T16:51:28Z</time>
      </trkpt>
      <trkpt lat="49.27626" lon="-0.21533">
        <ele>3.6</ele>
        <time>2022-05-31T16:51:29Z</time>
      </trkpt>
      <trkpt lat="49.27626" lon="-0.21533">
        <ele>3.6</ele>
        <time>2022-05-31T16:51:30Z</time>
      </trkpt>
      <trkpt lat="49.27626" lon="-0.21533">
        <ele>3.6</ele>
        <time>2022-05-31T16:51:31Z</time>
      </trkpt>
      <trkpt lat="49.27626" lon="-0.21533">
        <ele>3.6</ele>
        <time>2022-05-31T16:51:32Z</time>
      </trkpt>
      <trkpt lat="49.27626" lon="-0.21533">
        <ele>3.6</ele>
        <time>2022-05-31T16:51:33Z</time>
      </trkpt>
      <trkpt lat="49.27626" lon="-0.21533">
        <ele>3.6</ele>
        <time>2022-05-31T16:51:34Z</time>
      </trkpt>
      <trkpt lat="49.27626" lon="-0.21533">
        <ele>3.6</ele>
        <time>2022-05-31T16:51:35Z</time>
      </trkpt>
      <trkpt lat="49.27626" lon="-0.21533">
        <ele>3.6</ele>
        <time>2022-05-31T16:51:36Z</time>
      </trkpt>
      <trkpt lat="49.27626" lon="-0.21533">
        <ele>3.6</ele>
        <time>2022-05-31T16:51:37Z</time>
      </trkpt>
      <trkpt lat="49.27626" lon="-0.21533">
        <ele>3.6</ele>
        <time>2022-05-31T16:51:38Z</time>
      </trkpt>
      <trkpt lat="49.27626" lon="-0.21533">
        <ele>3.6</ele>
        <time>2022-05-31T16:51:39Z</time>
      </trkpt>
      <trkpt lat="49.27626" lon="-0.21533">
        <ele>3.6</ele>
        <time>2022-05-31T16:51:40Z</time>
      </trkpt>
      <trkpt lat="49.27626" lon="-0.21533">
        <ele>3.6</ele>
        <time>2022-05-31T16:51:41Z</time>
      </trkpt>
      <trkpt lat="49.27626" lon="-0.21533">
        <ele>3.6</ele>
        <time>2022-05-31T16:51:42Z</time>
      </trkpt>
      <trkpt lat="49.27626" lon="-0.21533">
        <ele>3.6</ele>
        <time>2022-05-31T16:51:43Z</time>
      </trkpt>
      <trkpt lat="49.27626" lon="-0.21533">
        <ele>3.6</ele>
        <time>2022-05-31T16:51:44Z</time>
      </trkpt>
      <trkpt lat="49.27627" lon="-0.21532">
        <ele>3.6</ele>
        <time>2022-05-31T16:51:45Z</time>
      </trkpt>
      <trkpt lat="49.27629" lon="-0.21531">
        <ele>3.6</ele>
        <time>2022-05-31T16:51:46Z</time>
      </trkpt>
      <trkpt lat="49.27629" lon="-0.21531">
        <ele>3.6</ele>
        <time>2022-05-31T16:51:47Z</time>
      </trkpt>
      <trkpt lat="49.27629" lon="-0.21531">
        <ele>3.6</ele>
        <time>2022-05-31T16:51:48Z</time>
      </trkpt>
      <trkpt lat="49.2763" lon="-0.21531">
        <ele>3.6</ele>
        <time>2022-05-31T16:51:49Z</time>
      </trkpt>
      <trkpt lat="49.2763" lon="-0.21531">
        <ele>3.6</ele>
        <time>2022-05-31T16:51:50Z</time>
      </trkpt>
      <trkpt lat="49.2763" lon="-0.21531">
        <ele>3.6</ele>
        <time>2022-05-31T16:51:51Z</time>
      </trkpt>
      <trkpt lat="49.27631" lon="-0.21531">
        <ele>3.6</ele>
        <time>2022-05-31T16:51:52Z</time>
      </trkpt>
      <trkpt lat="49.27632" lon="-0.21531">
        <ele>3.6</ele>
        <time>2022-05-31T16:51:53Z</time>
      </trkpt>
      <trkpt lat="49.27633" lon="-0.21532">
        <ele>3.6</ele>
        <time>2022-05-31T16:51:55Z</time>
      </trkpt>
      <trkpt lat="49.27634" lon="-0.21533">
        <ele>3.6</ele>
        <time>2022-05-31T16:51:56Z</time>
      </trkpt>
      <trkpt lat="49.27636" lon="-0.21535">
        <ele>3.6</ele>
        <time>2022-05-31T16:51:57Z</time>
      </trkpt>
      <trkpt lat="49.27637" lon="-0.21535">
        <ele>3.6</ele>
        <time>2022-05-31T16:51:58Z</time>
      </trkpt>
      <trkpt lat="49.27638" lon="-0.21536">
        <ele>3.6</ele>
        <time>2022-05-31T16:51:59Z</time>
      </trkpt>
      <trkpt lat="49.27639" lon="-0.21536">
        <ele>3.6</ele>
        <time>2022-05-31T16:52:01Z</time>
      </trkpt>
      <trkpt lat="49.2764" lon="-0.21537">
        <ele>3.6</ele>
        <time>2022-05-31T16:52:02Z</time>
      </trkpt>
      <trkpt lat="49.2764" lon="-0.21537">
        <ele>3.6</ele>
        <time>2022-05-31T16:52:03Z</time>
      </trkpt>
      <trkpt lat="49.27641" lon="-0.21536">
        <ele>3.6</ele>
        <time>2022-05-31T16:52:04Z</time>
      </trkpt>
      <trkpt lat="49.27642" lon="-0.21535">
        <ele>3.6</ele>
        <time>2022-05-31T16:52:05Z</time>
      </trkpt>
      <trkpt lat="49.27643" lon="-0.21534">
        <ele>3.6</ele>
        <time>2022-05-31T16:52:06Z</time>
      </trkpt>
      <trkpt lat="49.27644" lon="-0.21534">
        <ele>3.6</ele>
        <time>2022-05-31T16:52:07Z</time>
      </trkpt>
      <trkpt lat="49.27646" lon="-0.21533">
        <ele>3.6</ele>
        <time>2022-05-31T16:52:08Z</time>
      </trkpt>
      <trkpt lat="49.27647" lon="-0.21531">
        <ele>3.5</ele>
        <time>2022-05-31T16:52:09Z</time>
      </trkpt>
      <trkpt lat="49.27648" lon="-0.2153">
        <ele>3.5</ele>
        <time>2022-05-31T16:52:10Z</time>
      </trkpt>
      <trkpt lat="49.27649" lon="-0.21529">
        <ele>3.5</ele>
        <time>2022-05-31T16:52:11Z</time>
      </trkpt>
      <trkpt lat="49.27649" lon="-0.21529">
        <ele>3.5</ele>
        <time>2022-05-31T16:52:12Z</time>
      </trkpt>
      <trkpt lat="49.27649" lon="-0.21529">
        <ele>3.5</ele>
        <time>2022-05-31T16:52:13Z</time>
      </trkpt>
      <trkpt lat="49.27649" lon="-0.21529">
        <ele>3.5</ele>
        <time>2022-05-31T16:52:14Z</time>
      </trkpt>
      <trkpt lat="49.27649" lon="-0.21529">
        <ele>3.5</ele>
        <time>2022-05-31T16:52:16Z</time>
      </trkpt>
      <trkpt lat="49.27649" lon="-0.21529">
        <ele>3.5</ele>
        <time>2022-05-31T16:52:17Z</time>
      </trkpt>
      <trkpt lat="49.27649" lon="-0.21529">
        <ele>3.5</ele>
        <time>2022-05-31T16:52:18Z</time>
      </trkpt>
      <trkpt lat="49.27649" lon="-0.21529">
        <ele>3.5</ele>
        <time>2022-05-31T16:52:19Z</time>
      </trkpt>
      <trkpt lat="49.27649" lon="-0.21529">
        <ele>3.5</ele>
        <time>2022-05-31T16:52:20Z</time>
      </trkpt>
      <trkpt lat="49.27648" lon="-0.21529">
        <ele>3.5</ele>
        <time>2022-05-31T16:52:21Z</time>
      </trkpt>
      <trkpt lat="49.27649" lon="-0.21529">
        <ele>3.5</ele>
        <time>2022-05-31T16:52:22Z</time>
      </trkpt>
      <trkpt lat="49.2765" lon="-0.21529">
        <ele>3.5</ele>
        <time>2022-05-31T16:52:23Z</time>
      </trkpt>
      <trkpt lat="49.2765" lon="-0.21529">
        <ele>3.5</ele>
        <time>2022-05-31T16:52:24Z</time>
      </trkpt>
      <trkpt lat="49.27652" lon="-0.21528">
        <ele>3.5</ele>
        <time>2022-05-31T16:52:25Z</time>
      </trkpt>
      <trkpt lat="49.27654" lon="-0.21528">
        <ele>3.5</ele>
        <time>2022-05-31T16:52:26Z</time>
      </trkpt>
      <trkpt lat="49.27657" lon="-0.21528">
        <ele>3.5</ele>
        <time>2022-05-31T16:52:27Z</time>
      </trkpt>
      <trkpt lat="49.27658" lon="-0.21527">
        <ele>3.5</ele>
        <time>2022-05-31T16:52:28Z</time>
      </trkpt>
      <trkpt lat="49.2766" lon="-0.21528">
        <ele>3.5</ele>
        <time>2022-05-31T16:52:30Z</time>
      </trkpt>
      <trkpt lat="49.27661" lon="-0.21529">
        <ele>3.5</ele>
        <time>2022-05-31T16:52:31Z</time>
      </trkpt>
      <trkpt lat="49.27661" lon="-0.2153">
        <ele>3.5</ele>
        <time>2022-05-31T16:52:32Z</time>
      </trkpt>
      <trkpt lat="49.27662" lon="-0.2153">
        <ele>3.5</ele>
        <time>2022-05-31T16:52:33Z</time>
      </trkpt>
      <trkpt lat="49.27664" lon="-0.21529">
        <ele>3.5</ele>
        <time>2022-05-31T16:52:34Z</time>
      </trkpt>
      <trkpt lat="49.27666" lon="-0.21529">
        <ele>3.5</ele>
        <time>2022-05-31T16:52:36Z</time>
      </trkpt>
      <trkpt lat="49.27667" lon="-0.21529">
        <ele>3.5</ele>
        <time>2022-05-31T16:52:37Z</time>
      </trkpt>
      <trkpt lat="49.27668" lon="-0.21529">
        <ele>3.5</ele>
        <time>2022-05-31T16:52:38Z</time>
      </trkpt>
      <trkpt lat="49.27669" lon="-0.21529">
        <ele>3.5</ele>
        <time>2022-05-31T16:52:39Z</time>
      </trkpt>
      <trkpt lat="49.27671" lon="-0.21529">
        <ele>3.5</ele>
        <time>2022-05-31T16:52:40Z</time>
      </trkpt>
      <trkpt lat="49.27672" lon="-0.21529">
        <ele>3.5</ele>
        <time>2022-05-31T16:52:42Z</time>
      </trkpt>
      <trkpt lat="49.27674" lon="-0.21529">
        <ele>3.5</ele>
        <time>2022-05-31T16:52:43Z</time>
      </trkpt>
      <trkpt lat="49.27675" lon="-0.21529">
        <ele>3.5</ele>
        <time>2022-05-31T16:52:44Z</time>
      </trkpt>
      <trkpt lat="49.27677" lon="-0.21529">
        <ele>3.5</ele>
        <time>2022-05-31T16:52:45Z</time>
      </trkpt>
      <trkpt lat="49.27679" lon="-0.21529">
        <ele>3.5</ele>
        <time>2022-05-31T16:52:46Z</time>
      </trkpt>
      <trkpt lat="49.2768" lon="-0.21529">
        <ele>3.5</ele>
        <time>2022-05-31T16:52:47Z</time>
      </trkpt>
      <trkpt lat="49.27682" lon="-0.21529">
        <ele>3.5</ele>
        <time>2022-05-31T16:52:48Z</time>
      </trkpt>
      <trkpt lat="49.27683" lon="-0.2153">
        <ele>3.5</ele>
        <time>2022-05-31T16:52:49Z</time>
      </trkpt>
      <trkpt lat="49.27685" lon="-0.2153">
        <ele>3.5</ele>
        <time>2022-05-31T16:52:50Z</time>
      </trkpt>
      <trkpt lat="49.27686" lon="-0.2153">
        <ele>3.5</ele>
        <time>2022-05-31T16:52:51Z</time>
      </trkpt>
      <trkpt lat="49.27687" lon="-0.2153">
        <ele>3.5</ele>
        <time>2022-05-31T16:52:52Z</time>
      </trkpt>
      <trkpt lat="49.27688" lon="-0.21531">
        <ele>3.5</ele>
        <time>2022-05-31T16:52:53Z</time>
      </trkpt>
      <trkpt lat="49.27689" lon="-0.21532">
        <ele>3.5</ele>
        <time>2022-05-31T16:52:54Z</time>
      </trkpt>
      <trkpt lat="49.2769" lon="-0.21533">
        <ele>3.5</ele>
        <time>2022-05-31T16:52:55Z</time>
      </trkpt>
      <trkpt lat="49.27692" lon="-0.21534">
        <ele>3.5</ele>
        <time>2022-05-31T16:52:57Z</time>
      </trkpt>
      <trkpt lat="49.27693" lon="-0.21534">
        <ele>3.5</ele>
        <time>2022-05-31T16:52:58Z</time>
      </trkpt>
      <trkpt lat="49.27694" lon="-0.21534">
        <ele>3.5</ele>
        <time>2022-05-31T16:52:59Z</time>
      </trkpt>
      <trkpt lat="49.27696" lon="-0.21535">
        <ele>3.5</ele>
        <time>2022-05-31T16:53:00Z</time>
      </trkpt>
      <trkpt lat="49.27697" lon="-0.21536">
        <ele>3.5</ele>
        <time>2022-05-31T16:53:01Z</time>
      </trkpt>
      <trkpt lat="49.27697" lon="-0.21536">
        <ele>3.5</ele>
        <time>2022-05-31T16:53:02Z</time>
      </trkpt>
      <trkpt lat="49.27699" lon="-0.21537">
        <ele>3.5</ele>
        <time>2022-05-31T16:53:03Z</time>
      </trkpt>
      <trkpt lat="49.277" lon="-0.21538">
        <ele>3.5</ele>
        <time>2022-05-31T16:53:04Z</time>
      </trkpt>
      <trkpt lat="49.27701" lon="-0.21539">
        <ele>3.5</ele>
        <time>2022-05-31T16:53:05Z</time>
      </trkpt>
      <trkpt lat="49.27702" lon="-0.2154">
        <ele>3.5</ele>
        <time>2022-05-31T16:53:06Z</time>
      </trkpt>
      <trkpt lat="49.27703" lon="-0.21541">
        <ele>3.5</ele>
        <time>2022-05-31T16:53:07Z</time>
      </trkpt>
      <trkpt lat="49.27704" lon="-0.21541">
        <ele>3.5</ele>
        <time>2022-05-31T16:53:08Z</time>
      </trkpt>
      <trkpt lat="49.27705" lon="-0.21542">
        <ele>3.5</ele>
        <time>2022-05-31T16:53:09Z</time>
      </trkpt>
      <trkpt lat="49.27706" lon="-0.21543">
        <ele>3.5</ele>
        <time>2022-05-31T16:53:10Z</time>
      </trkpt>
      <trkpt lat="49.27707" lon="-0.21544">
        <ele>3.5</ele>
        <time>2022-05-31T16:53:12Z</time>
      </trkpt>
      <trkpt lat="49.27708" lon="-0.21544">
        <ele>3.5</ele>
        <time>2022-05-31T16:53:13Z</time>
      </trkpt>
      <trkpt lat="49.27709" lon="-0.21545">
        <ele>3.5</ele>
        <time>2022-05-31T16:53:14Z</time>
      </trkpt>
      <trkpt lat="49.2771" lon="-0.21545">
        <ele>3.5</ele>
        <time>2022-05-31T16:53:15Z</time>
      </trkpt>
      <trkpt lat="49.27711" lon="-0.21545">
        <ele>3.5</ele>
        <time>2022-05-31T16:53:16Z</time>
      </trkpt>
      <trkpt lat="49.27712" lon="-0.21545">
        <ele>3.5</ele>
        <time>2022-05-31T16:53:17Z</time>
      </trkpt>
      <trkpt lat="49.27713" lon="-0.21545">
        <ele>3.5</ele>
        <time>2022-05-31T16:53:18Z</time>
      </trkpt>
      <trkpt lat="49.27714" lon="-0.21545">
        <ele>3.5</ele>
        <time>2022-05-31T16:53:19Z</time>
      </trkpt>
      <trkpt lat="49.27715" lon="-0.21545">
        <ele>3.5</ele>
        <time>2022-05-31T16:53:21Z</time>
      </trkpt>
      <trkpt lat="49.27717" lon="-0.21546">
        <ele>3.5</ele>
        <time>2022-05-31T16:53:22Z</time>
      </trkpt>
      <trkpt lat="49.27718" lon="-0.21546">
        <ele>3.5</ele>
        <time>2022-05-31T16:53:23Z</time>
      </trkpt>
      <trkpt lat="49.27719" lon="-0.21546">
        <ele>3.5</ele>
        <time>2022-05-31T16:53:24Z</time>
      </trkpt>
      <trkpt lat="49.2772" lon="-0.21546">
        <ele>3.5</ele>
        <time>2022-05-31T16:53:25Z</time>
      </trkpt>
      <trkpt lat="49.27723" lon="-0.21546">
        <ele>3.5</ele>
        <time>2022-05-31T16:53:27Z</time>
      </trkpt>
      <trkpt lat="49.27723" lon="-0.21547">
        <ele>3.5</ele>
        <time>2022-05-31T16:53:28Z</time>
      </trkpt>
      <trkpt lat="49.27724" lon="-0.21547">
        <ele>3.5</ele>
        <time>2022-05-31T16:53:29Z</time>
      </trkpt>
      <trkpt lat="49.27725" lon="-0.21547">
        <ele>3.5</ele>
        <time>2022-05-31T16:53:30Z</time>
      </trkpt>
      <trkpt lat="49.27727" lon="-0.21548">
        <ele>3.5</ele>
        <time>2022-05-31T16:53:32Z</time>
      </trkpt>
      <trkpt lat="49.27728" lon="-0.21549">
        <ele>3.5</ele>
        <time>2022-05-31T16:53:33Z</time>
      </trkpt>
      <trkpt lat="49.27728" lon="-0.2155">
        <ele>3.5</ele>
        <time>2022-05-31T16:53:34Z</time>
      </trkpt>
      <trkpt lat="49.2773" lon="-0.21551">
        <ele>3.5</ele>
        <time>2022-05-31T16:53:35Z</time>
      </trkpt>
      <trkpt lat="49.27731" lon="-0.21551">
        <ele>3.5</ele>
        <time>2022-05-31T16:53:36Z</time>
      </trkpt>
      <trkpt lat="49.27733" lon="-0.21552">
        <ele>3.5</ele>
        <time>2022-05-31T16:53:37Z</time>
      </trkpt>
      <trkpt lat="49.27734" lon="-0.21552">
        <ele>3.5</ele>
        <time>2022-05-31T16:53:38Z</time>
      </trkpt>
      <trkpt lat="49.27734" lon="-0.21553">
        <ele>3.5</ele>
        <time>2022-05-31T16:53:39Z</time>
      </trkpt>
      <trkpt lat="49.27735" lon="-0.21553">
        <ele>3.5</ele>
        <time>2022-05-31T16:53:40Z</time>
      </trkpt>
      <trkpt lat="49.27737" lon="-0.21554">
        <ele>3.5</ele>
        <time>2022-05-31T16:53:41Z</time>
      </trkpt>
      <trkpt lat="49.27738" lon="-0.21554">
        <ele>3.5</ele>
        <time>2022-05-31T16:53:42Z</time>
      </trkpt>
      <trkpt lat="49.27739" lon="-0.21554">
        <ele>3.5</ele>
        <time>2022-05-31T16:53:43Z</time>
      </trkpt>
      <trkpt lat="49.27741" lon="-0.21555">
        <ele>3.4</ele>
        <time>2022-05-31T16:53:44Z</time>
      </trkpt>
      <trkpt lat="49.27742" lon="-0.21555">
        <ele>3.4</ele>
        <time>2022-05-31T16:53:45Z</time>
      </trkpt>
      <trkpt lat="49.27742" lon="-0.21555">
        <ele>3.4</ele>
        <time>2022-05-31T16:53:47Z</time>
      </trkpt>
      <trkpt lat="49.27743" lon="-0.21556">
        <ele>3.4</ele>
        <time>2022-05-31T16:53:48Z</time>
      </trkpt>
      <trkpt lat="49.27744" lon="-0.21556">
        <ele>3.4</ele>
        <time>2022-05-31T16:53:49Z</time>
      </trkpt>
      <trkpt lat="49.27745" lon="-0.21556">
        <ele>3.4</ele>
        <time>2022-05-31T16:53:50Z</time>
      </trkpt>
      <trkpt lat="49.27745" lon="-0.21557">
        <ele>3.4</ele>
        <time>2022-05-31T16:53:51Z</time>
      </trkpt>
      <trkpt lat="49.27746" lon="-0.21557">
        <ele>3.4</ele>
        <time>2022-05-31T16:53:52Z</time>
      </trkpt>
      <trkpt lat="49.27748" lon="-0.21558">
        <ele>3.4</ele>
        <time>2022-05-31T16:53:53Z</time>
      </trkpt>
      <trkpt lat="49.2775" lon="-0.21559">
        <ele>3.4</ele>
        <time>2022-05-31T16:53:54Z</time>
      </trkpt>
      <trkpt lat="49.27751" lon="-0.2156">
        <ele>3.4</ele>
        <time>2022-05-31T16:53:55Z</time>
      </trkpt>
      <trkpt lat="49.27752" lon="-0.21561">
        <ele>3.4</ele>
        <time>2022-05-31T16:53:56Z</time>
      </trkpt>
      <trkpt lat="49.27753" lon="-0.21561">
        <ele>3.4</ele>
        <time>2022-05-31T16:53:57Z</time>
      </trkpt>
      <trkpt lat="49.27755" lon="-0.21563">
        <ele>3.4</ele>
        <time>2022-05-31T16:53:58Z</time>
      </trkpt>
      <trkpt lat="49.27756" lon="-0.21563">
        <ele>3.4</ele>
        <time>2022-05-31T16:54:00Z</time>
      </trkpt>
      <trkpt lat="49.27756" lon="-0.21563">
        <ele>3.4</ele>
        <time>2022-05-31T16:54:01Z</time>
      </trkpt>
      <trkpt lat="49.27758" lon="-0.21564">
        <ele>3.4</ele>
        <time>2022-05-31T16:54:02Z</time>
      </trkpt>
      <trkpt lat="49.27759" lon="-0.21565">
        <ele>3.4</ele>
        <time>2022-05-31T16:54:03Z</time>
      </trkpt>
      <trkpt lat="49.27761" lon="-0.21566">
        <ele>3.4</ele>
        <time>2022-05-31T16:54:04Z</time>
      </trkpt>
      <trkpt lat="49.27761" lon="-0.21567">
        <ele>3.4</ele>
        <time>2022-05-31T16:54:05Z</time>
      </trkpt>
      <trkpt lat="49.27763" lon="-0.21568">
        <ele>3.4</ele>
        <time>2022-05-31T16:54:06Z</time>
      </trkpt>
      <trkpt lat="49.27764" lon="-0.21569">
        <ele>3.4</ele>
        <time>2022-05-31T16:54:07Z</time>
      </trkpt>
      <trkpt lat="49.27765" lon="-0.2157">
        <ele>3.4</ele>
        <time>2022-05-31T16:54:08Z</time>
      </trkpt>
      <trkpt lat="49.27766" lon="-0.2157">
        <ele>3.4</ele>
        <time>2022-05-31T16:54:09Z</time>
      </trkpt>
      <trkpt lat="49.27766" lon="-0.21571">
        <ele>3.4</ele>
        <time>2022-05-31T16:54:11Z</time>
      </trkpt>
      <trkpt lat="49.27767" lon="-0.21571">
        <ele>3.4</ele>
        <time>2022-05-31T16:54:12Z</time>
      </trkpt>
      <trkpt lat="49.27768" lon="-0.21572">
        <ele>3.4</ele>
        <time>2022-05-31T16:54:13Z</time>
      </trkpt>
      <trkpt lat="49.27769" lon="-0.21572">
        <ele>3.4</ele>
        <time>2022-05-31T16:54:14Z</time>
      </trkpt>
      <trkpt lat="49.27769" lon="-0.21573">
        <ele>3.4</ele>
        <time>2022-05-31T16:54:15Z</time>
      </trkpt>
      <trkpt lat="49.2777" lon="-0.21573">
        <ele>3.4</ele>
        <time>2022-05-31T16:54:16Z</time>
      </trkpt>
      <trkpt lat="49.2777" lon="-0.21574">
        <ele>3.4</ele>
        <time>2022-05-31T16:54:17Z</time>
      </trkpt>
      <trkpt lat="49.27771" lon="-0.21576">
        <ele>3.4</ele>
        <time>2022-05-31T16:54:18Z</time>
      </trkpt>
      <trkpt lat="49.27773" lon="-0.21578">
        <ele>3.4</ele>
        <time>2022-05-31T16:54:19Z</time>
      </trkpt>
      <trkpt lat="49.27774" lon="-0.21579">
        <ele>3.4</ele>
        <time>2022-05-31T16:54:20Z</time>
      </trkpt>
      <trkpt lat="49.27774" lon="-0.21579">
        <ele>3.4</ele>
        <time>2022-05-31T16:54:21Z</time>
      </trkpt>
      <trkpt lat="49.27775" lon="-0.2158">
        <ele>3.4</ele>
        <time>2022-05-31T16:54:22Z</time>
      </trkpt>
      <trkpt lat="49.27777" lon="-0.21581">
        <ele>3.4</ele>
        <time>2022-05-31T16:54:23Z</time>
      </trkpt>
      <trkpt lat="49.27778" lon="-0.21582">
        <ele>3.4</ele>
        <time>2022-05-31T16:54:24Z</time>
      </trkpt>
      <trkpt lat="49.27779" lon="-0.21583">
        <ele>3.4</ele>
        <time>2022-05-31T16:54:25Z</time>
      </trkpt>
      <trkpt lat="49.2778" lon="-0.21583">
        <ele>3.4</ele>
        <time>2022-05-31T16:54:27Z</time>
      </trkpt>
      <trkpt lat="49.27781" lon="-0.21584">
        <ele>3.4</ele>
        <time>2022-05-31T16:54:28Z</time>
      </trkpt>
      <trkpt lat="49.27783" lon="-0.21585">
        <ele>3.4</ele>
        <time>2022-05-31T16:54:29Z</time>
      </trkpt>
      <trkpt lat="49.27785" lon="-0.21586">
        <ele>3.4</ele>
        <time>2022-05-31T16:54:30Z</time>
      </trkpt>
      <trkpt lat="49.27786" lon="-0.21587">
        <ele>3.4</ele>
        <time>2022-05-31T16:54:31Z</time>
      </trkpt>
      <trkpt lat="49.27787" lon="-0.21587">
        <ele>3.4</ele>
        <time>2022-05-31T16:54:32Z</time>
      </trkpt>
      <trkpt lat="49.27788" lon="-0.21588">
        <ele>3.4</ele>
        <time>2022-05-31T16:54:33Z</time>
      </trkpt>
      <trkpt lat="49.27789" lon="-0.21589">
        <ele>3.4</ele>
        <time>2022-05-31T16:54:34Z</time>
      </trkpt>
      <trkpt lat="49.27791" lon="-0.21591">
        <ele>3.4</ele>
        <time>2022-05-31T16:54:35Z</time>
      </trkpt>
      <trkpt lat="49.27792" lon="-0.21592">
        <ele>3.4</ele>
        <time>2022-05-31T16:54:36Z</time>
      </trkpt>
      <trkpt lat="49.27793" lon="-0.21592">
        <ele>3.4</ele>
        <time>2022-05-31T16:54:37Z</time>
      </trkpt>
      <trkpt lat="49.27795" lon="-0.21593">
        <ele>3.4</ele>
        <time>2022-05-31T16:54:38Z</time>
      </trkpt>
      <trkpt lat="49.27796" lon="-0.21594">
        <ele>3.4</ele>
        <time>2022-05-31T16:54:39Z</time>
      </trkpt>
      <trkpt lat="49.27797" lon="-0.21595">
        <ele>3.4</ele>
        <time>2022-05-31T16:54:40Z</time>
      </trkpt>
      <trkpt lat="49.27798" lon="-0.21596">
        <ele>3.4</ele>
        <time>2022-05-31T16:54:42Z</time>
      </trkpt>
      <trkpt lat="49.278" lon="-0.21597">
        <ele>3.4</ele>
        <time>2022-05-31T16:54:43Z</time>
      </trkpt>
      <trkpt lat="49.27801" lon="-0.21598">
        <ele>3.4</ele>
        <time>2022-05-31T16:54:44Z</time>
      </trkpt>
      <trkpt lat="49.27803" lon="-0.21599">
        <ele>3.4</ele>
        <time>2022-05-31T16:54:45Z</time>
      </trkpt>
      <trkpt lat="49.27804" lon="-0.21599">
        <ele>3.4</ele>
        <time>2022-05-31T16:54:46Z</time>
      </trkpt>
      <trkpt lat="49.27804" lon="-0.216">
        <ele>3.4</ele>
        <time>2022-05-31T16:54:47Z</time>
      </trkpt>
      <trkpt lat="49.27806" lon="-0.21601">
        <ele>3.4</ele>
        <time>2022-05-31T16:54:48Z</time>
      </trkpt>
      <trkpt lat="49.27808" lon="-0.21602">
        <ele>3.4</ele>
        <time>2022-05-31T16:54:49Z</time>
      </trkpt>
      <trkpt lat="49.27809" lon="-0.21603">
        <ele>3.4</ele>
        <time>2022-05-31T16:54:50Z</time>
      </trkpt>
      <trkpt lat="49.2781" lon="-0.21604">
        <ele>3.4</ele>
        <time>2022-05-31T16:54:51Z</time>
      </trkpt>
      <trkpt lat="49.27812" lon="-0.21605">
        <ele>3.4</ele>
        <time>2022-05-31T16:54:52Z</time>
      </trkpt>
      <trkpt lat="49.27813" lon="-0.21606">
        <ele>3.4</ele>
        <time>2022-05-31T16:54:53Z</time>
      </trkpt>
      <trkpt lat="49.27814" lon="-0.21606">
        <ele>3.4</ele>
        <time>2022-05-31T16:54:54Z</time>
      </trkpt>
      <trkpt lat="49.27815" lon="-0.21607">
        <ele>3.4</ele>
        <time>2022-05-31T16:54:55Z</time>
      </trkpt>
      <trkpt lat="49.27816" lon="-0.21607">
        <ele>3.5</ele>
        <time>2022-05-31T16:54:57Z</time>
      </trkpt>
      <trkpt lat="49.27817" lon="-0.21608">
        <ele>3.5</ele>
        <time>2022-05-31T16:54:58Z</time>
      </trkpt>
      <trkpt lat="49.27819" lon="-0.21609">
        <ele>3.5</ele>
        <time>2022-05-31T16:54:59Z</time>
      </trkpt>
      <trkpt lat="49.27821" lon="-0.2161">
        <ele>3.5</ele>
        <time>2022-05-31T16:55:00Z</time>
      </trkpt>
      <trkpt lat="49.27822" lon="-0.21611">
        <ele>3.5</ele>
        <time>2022-05-31T16:55:01Z</time>
      </trkpt>
      <trkpt lat="49.27823" lon="-0.21611">
        <ele>3.5</ele>
        <time>2022-05-31T16:55:02Z</time>
      </trkpt>
      <trkpt lat="49.27823" lon="-0.21612">
        <ele>3.5</ele>
        <time>2022-05-31T16:55:04Z</time>
      </trkpt>
      <trkpt lat="49.27824" lon="-0.21612">
        <ele>3.5</ele>
        <time>2022-05-31T16:55:05Z</time>
      </trkpt>
      <trkpt lat="49.27825" lon="-0.21613">
        <ele>3.5</ele>
        <time>2022-05-31T16:55:06Z</time>
      </trkpt>
      <trkpt lat="49.27827" lon="-0.21614">
        <ele>3.5</ele>
        <time>2022-05-31T16:55:07Z</time>
      </trkpt>
      <trkpt lat="49.27828" lon="-0.21615">
        <ele>3.5</ele>
        <time>2022-05-31T16:55:08Z</time>
      </trkpt>
      <trkpt lat="49.27829" lon="-0.21616">
        <ele>3.5</ele>
        <time>2022-05-31T16:55:09Z</time>
      </trkpt>
      <trkpt lat="49.27829" lon="-0.21617">
        <ele>3.5</ele>
        <time>2022-05-31T16:55:10Z</time>
      </trkpt>
      <trkpt lat="49.2783" lon="-0.21618">
        <ele>3.5</ele>
        <time>2022-05-31T16:55:12Z</time>
      </trkpt>
      <trkpt lat="49.27831" lon="-0.21619">
        <ele>3.5</ele>
        <time>2022-05-31T16:55:13Z</time>
      </trkpt>
      <trkpt lat="49.27832" lon="-0.2162">
        <ele>3.5</ele>
        <time>2022-05-31T16:55:14Z</time>
      </trkpt>
      <trkpt lat="49.27833" lon="-0.2162">
        <ele>3.5</ele>
        <time>2022-05-31T16:55:15Z</time>
      </trkpt>
      <trkpt lat="49.27835" lon="-0.21622">
        <ele>3.5</ele>
        <time>2022-05-31T16:55:16Z</time>
      </trkpt>
      <trkpt lat="49.27836" lon="-0.21623">
        <ele>3.5</ele>
        <time>2022-05-31T16:55:17Z</time>
      </trkpt>
      <trkpt lat="49.27837" lon="-0.21624">
        <ele>3.5</ele>
        <time>2022-05-31T16:55:18Z</time>
      </trkpt>
      <trkpt lat="49.27838" lon="-0.21625">
        <ele>3.5</ele>
        <time>2022-05-31T16:55:19Z</time>
      </trkpt>
      <trkpt lat="49.27839" lon="-0.21626">
        <ele>3.5</ele>
        <time>2022-05-31T16:55:20Z</time>
      </trkpt>
      <trkpt lat="49.2784" lon="-0.21627">
        <ele>3.5</ele>
        <time>2022-05-31T16:55:21Z</time>
      </trkpt>
      <trkpt lat="49.27842" lon="-0.21629">
        <ele>3.5</ele>
        <time>2022-05-31T16:55:22Z</time>
      </trkpt>
      <trkpt lat="49.27843" lon="-0.2163">
        <ele>3.5</ele>
        <time>2022-05-31T16:55:23Z</time>
      </trkpt>
      <trkpt lat="49.27844" lon="-0.2163">
        <ele>3.5</ele>
        <time>2022-05-31T16:55:24Z</time>
      </trkpt>
      <trkpt lat="49.27845" lon="-0.21631">
        <ele>3.5</ele>
        <time>2022-05-31T16:55:25Z</time>
      </trkpt>
      <trkpt lat="49.27847" lon="-0.21633">
        <ele>3.5</ele>
        <time>2022-05-31T16:55:27Z</time>
      </trkpt>
      <trkpt lat="49.27848" lon="-0.21634">
        <ele>3.5</ele>
        <time>2022-05-31T16:55:28Z</time>
      </trkpt>
      <trkpt lat="49.27848" lon="-0.21635">
        <ele>3.5</ele>
        <time>2022-05-31T16:55:29Z</time>
      </trkpt>
      <trkpt lat="49.27849" lon="-0.21636">
        <ele>3.5</ele>
        <time>2022-05-31T16:55:30Z</time>
      </trkpt>
      <trkpt lat="49.27851" lon="-0.21637">
        <ele>3.5</ele>
        <time>2022-05-31T16:55:31Z</time>
      </trkpt>
      <trkpt lat="49.27852" lon="-0.21638">
        <ele>3.5</ele>
        <time>2022-05-31T16:55:32Z</time>
      </trkpt>
      <trkpt lat="49.27854" lon="-0.2164">
        <ele>3.5</ele>
        <time>2022-05-31T16:55:33Z</time>
      </trkpt>
      <trkpt lat="49.27855" lon="-0.21642">
        <ele>3.5</ele>
        <time>2022-05-31T16:55:34Z</time>
      </trkpt>
      <trkpt lat="49.27856" lon="-0.21642">
        <ele>3.5</ele>
        <time>2022-05-31T16:55:35Z</time>
      </trkpt>
      <trkpt lat="49.27857" lon="-0.21643">
        <ele>3.5</ele>
        <time>2022-05-31T16:55:36Z</time>
      </trkpt>
      <trkpt lat="49.27858" lon="-0.21644">
        <ele>3.5</ele>
        <time>2022-05-31T16:55:38Z</time>
      </trkpt>
      <trkpt lat="49.2786" lon="-0.21645">
        <ele>3.5</ele>
        <time>2022-05-31T16:55:39Z</time>
      </trkpt>
      <trkpt lat="49.27861" lon="-0.21646">
        <ele>3.5</ele>
        <time>2022-05-31T16:55:40Z</time>
      </trkpt>
      <trkpt lat="49.27862" lon="-0.21648">
        <ele>3.5</ele>
        <time>2022-05-31T16:55:41Z</time>
      </trkpt>
      <trkpt lat="49.27864" lon="-0.21649">
        <ele>3.5</ele>
        <time>2022-05-31T16:55:42Z</time>
      </trkpt>
      <trkpt lat="49.27865" lon="-0.2165">
        <ele>3.5</ele>
        <time>2022-05-31T16:55:43Z</time>
      </trkpt>
      <trkpt lat="49.27866" lon="-0.21651">
        <ele>3.5</ele>
        <time>2022-05-31T16:55:44Z</time>
      </trkpt>
      <trkpt lat="49.27867" lon="-0.21652">
        <ele>3.5</ele>
        <time>2022-05-31T16:55:46Z</time>
      </trkpt>
      <trkpt lat="49.27868" lon="-0.21652">
        <ele>3.5</ele>
        <time>2022-05-31T16:55:47Z</time>
      </trkpt>
      <trkpt lat="49.27869" lon="-0.21653">
        <ele>3.5</ele>
        <time>2022-05-31T16:55:48Z</time>
      </trkpt>
      <trkpt lat="49.2787" lon="-0.21653">
        <ele>3.5</ele>
        <time>2022-05-31T16:55:49Z</time>
      </trkpt>
      <trkpt lat="49.27871" lon="-0.21654">
        <ele>3.5</ele>
        <time>2022-05-31T16:55:50Z</time>
      </trkpt>
      <trkpt lat="49.27872" lon="-0.21654">
        <ele>3.5</ele>
        <time>2022-05-31T16:55:51Z</time>
      </trkpt>
      <trkpt lat="49.27873" lon="-0.21655">
        <ele>3.5</ele>
        <time>2022-05-31T16:55:52Z</time>
      </trkpt>
      <trkpt lat="49.27874" lon="-0.21655">
        <ele>3.5</ele>
        <time>2022-05-31T16:55:53Z</time>
      </trkpt>
      <trkpt lat="49.27876" lon="-0.21656">
        <ele>3.5</ele>
        <time>2022-05-31T16:55:54Z</time>
      </trkpt>
      <trkpt lat="49.27877" lon="-0.21657">
        <ele>3.5</ele>
        <time>2022-05-31T16:55:55Z</time>
      </trkpt>
      <trkpt lat="49.27879" lon="-0.21658">
        <ele>3.5</ele>
        <time>2022-05-31T16:55:56Z</time>
      </trkpt>
      <trkpt lat="49.2788" lon="-0.21659">
        <ele>3.5</ele>
        <time>2022-05-31T16:55:57Z</time>
      </trkpt>
      <trkpt lat="49.27881" lon="-0.21659">
        <ele>3.5</ele>
        <time>2022-05-31T16:55:58Z</time>
      </trkpt>
      <trkpt lat="49.27883" lon="-0.21661">
        <ele>3.5</ele>
        <time>2022-05-31T16:56:00Z</time>
      </trkpt>
      <trkpt lat="49.27884" lon="-0.21662">
        <ele>3.5</ele>
        <time>2022-05-31T16:56:02Z</time>
      </trkpt>
      <trkpt lat="49.27885" lon="-0.21663">
        <ele>3.5</ele>
        <time>2022-05-31T16:56:03Z</time>
      </trkpt>
      <trkpt lat="49.27886" lon="-0.21664">
        <ele>3.5</ele>
        <time>2022-05-31T16:56:04Z</time>
      </trkpt>
      <trkpt lat="49.27887" lon="-0.21665">
        <ele>3.5</ele>
        <time>2022-05-31T16:56:05Z</time>
      </trkpt>
      <trkpt lat="49.27888" lon="-0.21665">
        <ele>3.5</ele>
        <time>2022-05-31T16:56:06Z</time>
      </trkpt>
      <trkpt lat="49.27889" lon="-0.21667">
        <ele>3.5</ele>
        <time>2022-05-31T16:56:07Z</time>
      </trkpt>
      <trkpt lat="49.2789" lon="-0.21668">
        <ele>3.5</ele>
        <time>2022-05-31T16:56:08Z</time>
      </trkpt>
      <trkpt lat="49.27892" lon="-0.21669">
        <ele>3.5</ele>
        <time>2022-05-31T16:56:09Z</time>
      </trkpt>
      <trkpt lat="49.27893" lon="-0.2167">
        <ele>3.5</ele>
        <time>2022-05-31T16:56:10Z</time>
      </trkpt>
      <trkpt lat="49.27894" lon="-0.21671">
        <ele>3.5</ele>
        <time>2022-05-31T16:56:11Z</time>
      </trkpt>
      <trkpt lat="49.27895" lon="-0.21672">
        <ele>3.5</ele>
        <time>2022-05-31T16:56:12Z</time>
      </trkpt>
      <trkpt lat="49.27896" lon="-0.21673">
        <ele>3.5</ele>
        <time>2022-05-31T16:56:13Z</time>
      </trkpt>
      <trkpt lat="49.27897" lon="-0.21674">
        <ele>3.5</ele>
        <time>2022-05-31T16:56:15Z</time>
      </trkpt>
      <trkpt lat="49.27898" lon="-0.21675">
        <ele>3.4</ele>
        <time>2022-05-31T16:56:16Z</time>
      </trkpt>
      <trkpt lat="49.27899" lon="-0.21676">
        <ele>3.4</ele>
        <time>2022-05-31T16:56:17Z</time>
      </trkpt>
      <trkpt lat="49.279" lon="-0.21677">
        <ele>3.4</ele>
        <time>2022-05-31T16:56:18Z</time>
      </trkpt>
      <trkpt lat="49.27901" lon="-0.21678">
        <ele>3.4</ele>
        <time>2022-05-31T16:56:19Z</time>
      </trkpt>
      <trkpt lat="49.27902" lon="-0.21679">
        <ele>3.4</ele>
        <time>2022-05-31T16:56:20Z</time>
      </trkpt>
      <trkpt lat="49.27903" lon="-0.2168">
        <ele>3.4</ele>
        <time>2022-05-31T16:56:21Z</time>
      </trkpt>
      <trkpt lat="49.27904" lon="-0.21681">
        <ele>3.4</ele>
        <time>2022-05-31T16:56:22Z</time>
      </trkpt>
      <trkpt lat="49.27906" lon="-0.21682">
        <ele>3.4</ele>
        <time>2022-05-31T16:56:24Z</time>
      </trkpt>
      <trkpt lat="49.27907" lon="-0.21683">
        <ele>3.4</ele>
        <time>2022-05-31T16:56:25Z</time>
      </trkpt>
      <trkpt lat="49.27908" lon="-0.21684">
        <ele>3.4</ele>
        <time>2022-05-31T16:56:26Z</time>
      </trkpt>
      <trkpt lat="49.27909" lon="-0.21685">
        <ele>3.4</ele>
        <time>2022-05-31T16:56:27Z</time>
      </trkpt>
      <trkpt lat="49.2791" lon="-0.21685">
        <ele>3.4</ele>
        <time>2022-05-31T16:56:28Z</time>
      </trkpt>
      <trkpt lat="49.27912" lon="-0.21686">
        <ele>3.4</ele>
        <time>2022-05-31T16:56:29Z</time>
      </trkpt>
      <trkpt lat="49.27914" lon="-0.21687">
        <ele>3.4</ele>
        <time>2022-05-31T16:56:30Z</time>
      </trkpt>
      <trkpt lat="49.27915" lon="-0.21687">
        <ele>3.4</ele>
        <time>2022-05-31T16:56:32Z</time>
      </trkpt>
      <trkpt lat="49.27915" lon="-0.21687">
        <ele>3.4</ele>
        <time>2022-05-31T16:56:33Z</time>
      </trkpt>
      <trkpt lat="49.27917" lon="-0.21688">
        <ele>3.4</ele>
        <time>2022-05-31T16:56:34Z</time>
      </trkpt>
      <trkpt lat="49.27918" lon="-0.21688">
        <ele>3.4</ele>
        <time>2022-05-31T16:56:35Z</time>
      </trkpt>
      <trkpt lat="49.2792" lon="-0.21688">
        <ele>3.4</ele>
        <time>2022-05-31T16:56:36Z</time>
      </trkpt>
      <trkpt lat="49.27921" lon="-0.21688">
        <ele>3.4</ele>
        <time>2022-05-31T16:56:37Z</time>
      </trkpt>
      <trkpt lat="49.27922" lon="-0.21688">
        <ele>3.4</ele>
        <time>2022-05-31T16:56:38Z</time>
      </trkpt>
      <trkpt lat="49.27923" lon="-0.21687">
        <ele>3.4</ele>
        <time>2022-05-31T16:56:39Z</time>
      </trkpt>
      <trkpt lat="49.27924" lon="-0.21687">
        <ele>3.4</ele>
        <time>2022-05-31T16:56:41Z</time>
      </trkpt>
      <trkpt lat="49.27925" lon="-0.21687">
        <ele>3.4</ele>
        <time>2022-05-31T16:56:42Z</time>
      </trkpt>
      <trkpt lat="49.27926" lon="-0.21687">
        <ele>3.4</ele>
        <time>2022-05-31T16:56:43Z</time>
      </trkpt>
      <trkpt lat="49.27928" lon="-0.21686">
        <ele>3.4</ele>
        <time>2022-05-31T16:56:44Z</time>
      </trkpt>
      <trkpt lat="49.27928" lon="-0.21686">
        <ele>3.4</ele>
        <time>2022-05-31T16:56:45Z</time>
      </trkpt>
      <trkpt lat="49.27929" lon="-0.21686">
        <ele>3.4</ele>
        <time>2022-05-31T16:56:46Z</time>
      </trkpt>
      <trkpt lat="49.27931" lon="-0.21686">
        <ele>3.4</ele>
        <time>2022-05-31T16:56:47Z</time>
      </trkpt>
      <trkpt lat="49.27932" lon="-0.21687">
        <ele>3.4</ele>
        <time>2022-05-31T16:56:48Z</time>
      </trkpt>
      <trkpt lat="49.27934" lon="-0.21687">
        <ele>3.4</ele>
        <time>2022-05-31T16:56:49Z</time>
      </trkpt>
      <trkpt lat="49.27935" lon="-0.21687">
        <ele>3.4</ele>
        <time>2022-05-31T16:56:50Z</time>
      </trkpt>
      <trkpt lat="49.27937" lon="-0.21687">
        <ele>3.4</ele>
        <time>2022-05-31T16:56:51Z</time>
      </trkpt>
      <trkpt lat="49.27938" lon="-0.21687">
        <ele>3.4</ele>
        <time>2022-05-31T16:56:52Z</time>
      </trkpt>
      <trkpt lat="49.27939" lon="-0.21688">
        <ele>3.4</ele>
        <time>2022-05-31T16:56:53Z</time>
      </trkpt>
      <trkpt lat="49.27941" lon="-0.21689">
        <ele>3.4</ele>
        <time>2022-05-31T16:56:54Z</time>
      </trkpt>
      <trkpt lat="49.27942" lon="-0.21689">
        <ele>3.4</ele>
        <time>2022-05-31T16:56:55Z</time>
      </trkpt>
      <trkpt lat="49.27942" lon="-0.21689">
        <ele>3.4</ele>
        <time>2022-05-31T16:56:56Z</time>
      </trkpt>
      <trkpt lat="49.27944" lon="-0.21691">
        <ele>3.4</ele>
        <time>2022-05-31T16:56:57Z</time>
      </trkpt>
      <trkpt lat="49.27945" lon="-0.21691">
        <ele>3.4</ele>
        <time>2022-05-31T16:56:58Z</time>
      </trkpt>
      <trkpt lat="49.27946" lon="-0.21691">
        <ele>3.4</ele>
        <time>2022-05-31T16:56:59Z</time>
      </trkpt>
      <trkpt lat="49.27947" lon="-0.21692">
        <ele>3.4</ele>
        <time>2022-05-31T16:57:00Z</time>
      </trkpt>
      <trkpt lat="49.27948" lon="-0.21692">
        <ele>3.4</ele>
        <time>2022-05-31T16:57:01Z</time>
      </trkpt>
      <trkpt lat="49.27949" lon="-0.21693">
        <ele>3.4</ele>
        <time>2022-05-31T16:57:03Z</time>
      </trkpt>
      <trkpt lat="49.2795" lon="-0.21693">
        <ele>3.4</ele>
        <time>2022-05-31T16:57:04Z</time>
      </trkpt>
      <trkpt lat="49.27951" lon="-0.21694">
        <ele>3.4</ele>
        <time>2022-05-31T16:57:05Z</time>
      </trkpt>
      <trkpt lat="49.27951" lon="-0.21694">
        <ele>3.4</ele>
        <time>2022-05-31T16:57:06Z</time>
      </trkpt>
      <trkpt lat="49.27953" lon="-0.21695">
        <ele>3.4</ele>
        <time>2022-05-31T16:57:07Z</time>
      </trkpt>
      <trkpt lat="49.27954" lon="-0.21696">
        <ele>3.4</ele>
        <time>2022-05-31T16:57:08Z</time>
      </trkpt>
      <trkpt lat="49.27955" lon="-0.21697">
        <ele>3.4</ele>
        <time>2022-05-31T16:57:09Z</time>
      </trkpt>
      <trkpt lat="49.27956" lon="-0.21697">
        <ele>3.4</ele>
        <time>2022-05-31T16:57:10Z</time>
      </trkpt>
      <trkpt lat="49.27957" lon="-0.21697">
        <ele>3.4</ele>
        <time>2022-05-31T16:57:11Z</time>
      </trkpt>
      <trkpt lat="49.27959" lon="-0.21698">
        <ele>3.4</ele>
        <time>2022-05-31T16:57:12Z</time>
      </trkpt>
      <trkpt lat="49.2796" lon="-0.21698">
        <ele>3.4</ele>
        <time>2022-05-31T16:57:14Z</time>
      </trkpt>
      <trkpt lat="49.27961" lon="-0.21699">
        <ele>3.4</ele>
        <time>2022-05-31T16:57:15Z</time>
      </trkpt>
      <trkpt lat="49.27962" lon="-0.217">
        <ele>3.4</ele>
        <time>2022-05-31T16:57:16Z</time>
      </trkpt>
      <trkpt lat="49.27964" lon="-0.21701">
        <ele>3.4</ele>
        <time>2022-05-31T16:57:17Z</time>
      </trkpt>
      <trkpt lat="49.27965" lon="-0.21702">
        <ele>3.4</ele>
        <time>2022-05-31T16:57:18Z</time>
      </trkpt>
      <trkpt lat="49.27966" lon="-0.21703">
        <ele>3.4</ele>
        <time>2022-05-31T16:57:19Z</time>
      </trkpt>
      <trkpt lat="49.27968" lon="-0.21704">
        <ele>3.4</ele>
        <time>2022-05-31T16:57:20Z</time>
      </trkpt>
      <trkpt lat="49.27969" lon="-0.21705">
        <ele>3.4</ele>
        <time>2022-05-31T16:57:21Z</time>
      </trkpt>
      <trkpt lat="49.27969" lon="-0.21706">
        <ele>3.4</ele>
        <time>2022-05-31T16:57:22Z</time>
      </trkpt>
      <trkpt lat="49.27971" lon="-0.21707">
        <ele>3.4</ele>
        <time>2022-05-31T16:57:23Z</time>
      </trkpt>
      <trkpt lat="49.27972" lon="-0.21708">
        <ele>3.4</ele>
        <time>2022-05-31T16:57:24Z</time>
      </trkpt>
      <trkpt lat="49.27972" lon="-0.21709">
        <ele>3.4</ele>
        <time>2022-05-31T16:57:26Z</time>
      </trkpt>
      <trkpt lat="49.27973" lon="-0.2171">
        <ele>3.4</ele>
        <time>2022-05-31T16:57:27Z</time>
      </trkpt>
      <trkpt lat="49.27974" lon="-0.21711">
        <ele>3.4</ele>
        <time>2022-05-31T16:57:28Z</time>
      </trkpt>
      <trkpt lat="49.27975" lon="-0.21713">
        <ele>3.4</ele>
        <time>2022-05-31T16:57:29Z</time>
      </trkpt>
      <trkpt lat="49.27976" lon="-0.21714">
        <ele>3.4</ele>
        <time>2022-05-31T16:57:30Z</time>
      </trkpt>
      <trkpt lat="49.27978" lon="-0.21716">
        <ele>3.4</ele>
        <time>2022-05-31T16:57:32Z</time>
      </trkpt>
      <trkpt lat="49.27979" lon="-0.21717">
        <ele>3.4</ele>
        <time>2022-05-31T16:57:33Z</time>
      </trkpt>
      <trkpt lat="49.2798" lon="-0.21718">
        <ele>3.4</ele>
        <time>2022-05-31T16:57:34Z</time>
      </trkpt>
      <trkpt lat="49.27981" lon="-0.21719">
        <ele>3.4</ele>
        <time>2022-05-31T16:57:35Z</time>
      </trkpt>
      <trkpt lat="49.27982" lon="-0.2172">
        <ele>3.4</ele>
        <time>2022-05-31T16:57:36Z</time>
      </trkpt>
      <trkpt lat="49.27983" lon="-0.2172">
        <ele>3.4</ele>
        <time>2022-05-31T16:57:37Z</time>
      </trkpt>
      <trkpt lat="49.27984" lon="-0.21721">
        <ele>3.4</ele>
        <time>2022-05-31T16:57:38Z</time>
      </trkpt>
      <trkpt lat="49.27985" lon="-0.21722">
        <ele>3.4</ele>
        <time>2022-05-31T16:57:39Z</time>
      </trkpt>
      <trkpt lat="49.27986" lon="-0.21723">
        <ele>3.4</ele>
        <time>2022-05-31T16:57:41Z</time>
      </trkpt>
      <trkpt lat="49.27987" lon="-0.21724">
        <ele>3.4</ele>
        <time>2022-05-31T16:57:42Z</time>
      </trkpt>
      <trkpt lat="49.27988" lon="-0.21725">
        <ele>3.4</ele>
        <time>2022-05-31T16:57:43Z</time>
      </trkpt>
      <trkpt lat="49.2799" lon="-0.21726">
        <ele>3.4</ele>
        <time>2022-05-31T16:57:44Z</time>
      </trkpt>
      <trkpt lat="49.27991" lon="-0.21727">
        <ele>3.4</ele>
        <time>2022-05-31T16:57:45Z</time>
      </trkpt>
      <trkpt lat="49.27993" lon="-0.21728">
        <ele>3.4</ele>
        <time>2022-05-31T16:57:46Z</time>
      </trkpt>
      <trkpt lat="49.27994" lon="-0.21729">
        <ele>3.4</ele>
        <time>2022-05-31T16:57:47Z</time>
      </trkpt>
      <trkpt lat="49.27994" lon="-0.21729">
        <ele>3.4</ele>
        <time>2022-05-31T16:57:48Z</time>
      </trkpt>
      <trkpt lat="49.27996" lon="-0.2173">
        <ele>3.4</ele>
        <time>2022-05-31T16:57:49Z</time>
      </trkpt>
      <trkpt lat="49.27997" lon="-0.21731">
        <ele>3.4</ele>
        <time>2022-05-31T16:57:50Z</time>
      </trkpt>
      <trkpt lat="49.27998" lon="-0.21732">
        <ele>3.4</ele>
        <time>2022-05-31T16:57:51Z</time>
      </trkpt>
      <trkpt lat="49.27999" lon="-0.21733">
        <ele>3.4</ele>
        <time>2022-05-31T16:57:52Z</time>
      </trkpt>
      <trkpt lat="49.28" lon="-0.21733">
        <ele>3.4</ele>
        <time>2022-05-31T16:57:54Z</time>
      </trkpt>
      <trkpt lat="49.28001" lon="-0.21734">
        <ele>3.4</ele>
        <time>2022-05-31T16:57:55Z</time>
      </trkpt>
      <trkpt lat="49.28002" lon="-0.21735">
        <ele>3.4</ele>
        <time>2022-05-31T16:57:56Z</time>
      </trkpt>
      <trkpt lat="49.28003" lon="-0.21736">
        <ele>3.4</ele>
        <time>2022-05-31T16:57:57Z</time>
      </trkpt>
      <trkpt lat="49.28004" lon="-0.21737">
        <ele>3.4</ele>
        <time>2022-05-31T16:57:58Z</time>
      </trkpt>
      <trkpt lat="49.28005" lon="-0.21737">
        <ele>3.4</ele>
        <time>2022-05-31T16:57:59Z</time>
      </trkpt>
      <trkpt lat="49.28006" lon="-0.21738">
        <ele>3.4</ele>
        <time>2022-05-31T16:58:00Z</time>
      </trkpt>
      <trkpt lat="49.28008" lon="-0.2174">
        <ele>3.4</ele>
        <time>2022-05-31T16:58:01Z</time>
      </trkpt>
      <trkpt lat="49.28009" lon="-0.21741">
        <ele>3.4</ele>
        <time>2022-05-31T16:58:02Z</time>
      </trkpt>
      <trkpt lat="49.28009" lon="-0.21741">
        <ele>3.4</ele>
        <time>2022-05-31T16:58:03Z</time>
      </trkpt>
      <trkpt lat="49.28011" lon="-0.21743">
        <ele>3.4</ele>
        <time>2022-05-31T16:58:04Z</time>
      </trkpt>
      <trkpt lat="49.28012" lon="-0.21744">
        <ele>3.4</ele>
        <time>2022-05-31T16:58:05Z</time>
      </trkpt>
      <trkpt lat="49.28013" lon="-0.21745">
        <ele>3.4</ele>
        <time>2022-05-31T16:58:06Z</time>
      </trkpt>
      <trkpt lat="49.28014" lon="-0.21747">
        <ele>3.4</ele>
        <time>2022-05-31T16:58:08Z</time>
      </trkpt>
      <trkpt lat="49.28015" lon="-0.21748">
        <ele>3.4</ele>
        <time>2022-05-31T16:58:09Z</time>
      </trkpt>
      <trkpt lat="49.28017" lon="-0.2175">
        <ele>3.4</ele>
        <time>2022-05-31T16:58:10Z</time>
      </trkpt>
      <trkpt lat="49.28018" lon="-0.21751">
        <ele>3.4</ele>
        <time>2022-05-31T16:58:11Z</time>
      </trkpt>
      <trkpt lat="49.28019" lon="-0.21753">
        <ele>3.4</ele>
        <time>2022-05-31T16:58:12Z</time>
      </trkpt>
      <trkpt lat="49.28021" lon="-0.21754">
        <ele>3.4</ele>
        <time>2022-05-31T16:58:13Z</time>
      </trkpt>
      <trkpt lat="49.28022" lon="-0.21755">
        <ele>3.4</ele>
        <time>2022-05-31T16:58:14Z</time>
      </trkpt>
      <trkpt lat="49.28023" lon="-0.21755">
        <ele>3.4</ele>
        <time>2022-05-31T16:58:15Z</time>
      </trkpt>
      <trkpt lat="49.28024" lon="-0.21756">
        <ele>3.4</ele>
        <time>2022-05-31T16:58:17Z</time>
      </trkpt>
      <trkpt lat="49.28025" lon="-0.21757">
        <ele>3.4</ele>
        <time>2022-05-31T16:58:18Z</time>
      </trkpt>
      <trkpt lat="49.28026" lon="-0.21758">
        <ele>3.4</ele>
        <time>2022-05-31T16:58:19Z</time>
      </trkpt>
      <trkpt lat="49.28027" lon="-0.21759">
        <ele>3.4</ele>
        <time>2022-05-31T16:58:20Z</time>
      </trkpt>
      <trkpt lat="49.28028" lon="-0.21759">
        <ele>3.4</ele>
        <time>2022-05-31T16:58:21Z</time>
      </trkpt>
      <trkpt lat="49.28029" lon="-0.2176">
        <ele>3.4</ele>
        <time>2022-05-31T16:58:22Z</time>
      </trkpt>
      <trkpt lat="49.2803" lon="-0.21761">
        <ele>3.4</ele>
        <time>2022-05-31T16:58:23Z</time>
      </trkpt>
      <trkpt lat="49.28031" lon="-0.21762">
        <ele>3.4</ele>
        <time>2022-05-31T16:58:24Z</time>
      </trkpt>
      <trkpt lat="49.28032" lon="-0.21763">
        <ele>3.4</ele>
        <time>2022-05-31T16:58:25Z</time>
      </trkpt>
      <trkpt lat="49.28034" lon="-0.21764">
        <ele>3.4</ele>
        <time>2022-05-31T16:58:26Z</time>
      </trkpt>
      <trkpt lat="49.28035" lon="-0.21765">
        <ele>3.4</ele>
        <time>2022-05-31T16:58:27Z</time>
      </trkpt>
      <trkpt lat="49.28036" lon="-0.21765">
        <ele>3.4</ele>
        <time>2022-05-31T16:58:28Z</time>
      </trkpt>
      <trkpt lat="49.28038" lon="-0.21767">
        <ele>3.4</ele>
        <time>2022-05-31T16:58:29Z</time>
      </trkpt>
      <trkpt lat="49.28039" lon="-0.21768">
        <ele>3.4</ele>
        <time>2022-05-31T16:58:31Z</time>
      </trkpt>
      <trkpt lat="49.2804" lon="-0.21769">
        <ele>3.4</ele>
        <time>2022-05-31T16:58:32Z</time>
      </trkpt>
      <trkpt lat="49.28041" lon="-0.21769">
        <ele>3.4</ele>
        <time>2022-05-31T16:58:33Z</time>
      </trkpt>
      <trkpt lat="49.28041" lon="-0.2177">
        <ele>3.4</ele>
        <time>2022-05-31T16:58:34Z</time>
      </trkpt>
      <trkpt lat="49.28043" lon="-0.21772">
        <ele>3.4</ele>
        <time>2022-05-31T16:58:35Z</time>
      </trkpt>
      <trkpt lat="49.28044" lon="-0.21773">
        <ele>3.4</ele>
        <time>2022-05-31T16:58:36Z</time>
      </trkpt>
      <trkpt lat="49.28046" lon="-0.21775">
        <ele>3.4</ele>
        <time>2022-05-31T16:58:37Z</time>
      </trkpt>
      <trkpt lat="49.28047" lon="-0.21776">
        <ele>3.4</ele>
        <time>2022-05-31T16:58:38Z</time>
      </trkpt>
      <trkpt lat="49.28048" lon="-0.21777">
        <ele>3.4</ele>
        <time>2022-05-31T16:58:39Z</time>
      </trkpt>
      <trkpt lat="49.28049" lon="-0.21779">
        <ele>3.4</ele>
        <time>2022-05-31T16:58:40Z</time>
      </trkpt>
      <trkpt lat="49.2805" lon="-0.2178">
        <ele>3.4</ele>
        <time>2022-05-31T16:58:41Z</time>
      </trkpt>
      <trkpt lat="49.2805" lon="-0.21781">
        <ele>3.4</ele>
        <time>2022-05-31T16:58:43Z</time>
      </trkpt>
      <trkpt lat="49.28051" lon="-0.21782">
        <ele>3.4</ele>
        <time>2022-05-31T16:58:44Z</time>
      </trkpt>
      <trkpt lat="49.28053" lon="-0.21782">
        <ele>3.4</ele>
        <time>2022-05-31T16:58:45Z</time>
      </trkpt>
      <trkpt lat="49.28054" lon="-0.21783">
        <ele>3.4</ele>
        <time>2022-05-31T16:58:46Z</time>
      </trkpt>
      <trkpt lat="49.28055" lon="-0.21784">
        <ele>3.4</ele>
        <time>2022-05-31T16:58:47Z</time>
      </trkpt>
      <trkpt lat="49.28055" lon="-0.21785">
        <ele>3.4</ele>
        <time>2022-05-31T16:58:48Z</time>
      </trkpt>
      <trkpt lat="49.28057" lon="-0.21786">
        <ele>3.4</ele>
        <time>2022-05-31T16:58:49Z</time>
      </trkpt>
      <trkpt lat="49.28058" lon="-0.21787">
        <ele>3.4</ele>
        <time>2022-05-31T16:58:50Z</time>
      </trkpt>
      <trkpt lat="49.28059" lon="-0.21787">
        <ele>3.4</ele>
        <time>2022-05-31T16:58:51Z</time>
      </trkpt>
      <trkpt lat="49.2806" lon="-0.21788">
        <ele>3.4</ele>
        <time>2022-05-31T16:58:52Z</time>
      </trkpt>
      <trkpt lat="49.28062" lon="-0.21789">
        <ele>3.4</ele>
        <time>2022-05-31T16:58:53Z</time>
      </trkpt>
      <trkpt lat="49.28063" lon="-0.2179">
        <ele>3.4</ele>
        <time>2022-05-31T16:58:54Z</time>
      </trkpt>
      <trkpt lat="49.28064" lon="-0.2179">
        <ele>3.4</ele>
        <time>2022-05-31T16:58:55Z</time>
      </trkpt>
      <trkpt lat="49.28065" lon="-0.21792">
        <ele>3.4</ele>
        <time>2022-05-31T16:58:57Z</time>
      </trkpt>
      <trkpt lat="49.28067" lon="-0.21793">
        <ele>3.4</ele>
        <time>2022-05-31T16:58:58Z</time>
      </trkpt>
      <trkpt lat="49.28067" lon="-0.21794">
        <ele>3.4</ele>
        <time>2022-05-31T16:58:59Z</time>
      </trkpt>
      <trkpt lat="49.28068" lon="-0.21795">
        <ele>3.4</ele>
        <time>2022-05-31T16:59:00Z</time>
      </trkpt>
      <trkpt lat="49.28069" lon="-0.21796">
        <ele>3.4</ele>
        <time>2022-05-31T16:59:01Z</time>
      </trkpt>
      <trkpt lat="49.2807" lon="-0.21798">
        <ele>3.4</ele>
        <time>2022-05-31T16:59:02Z</time>
      </trkpt>
      <trkpt lat="49.28071" lon="-0.21799">
        <ele>3.4</ele>
        <time>2022-05-31T16:59:03Z</time>
      </trkpt>
      <trkpt lat="49.28072" lon="-0.21801">
        <ele>3.4</ele>
        <time>2022-05-31T16:59:04Z</time>
      </trkpt>
      <trkpt lat="49.28073" lon="-0.21802">
        <ele>3.4</ele>
        <time>2022-05-31T16:59:06Z</time>
      </trkpt>
      <trkpt lat="49.28073" lon="-0.21803">
        <ele>3.4</ele>
        <time>2022-05-31T16:59:07Z</time>
      </trkpt>
      <trkpt lat="49.28074" lon="-0.21805">
        <ele>3.4</ele>
        <time>2022-05-31T16:59:08Z</time>
      </trkpt>
      <trkpt lat="49.28076" lon="-0.21807">
        <ele>3.5</ele>
        <time>2022-05-31T16:59:09Z</time>
      </trkpt>
      <trkpt lat="49.28077" lon="-0.21809">
        <ele>3.5</ele>
        <time>2022-05-31T16:59:11Z</time>
      </trkpt>
      <trkpt lat="49.28077" lon="-0.2181">
        <ele>3.5</ele>
        <time>2022-05-31T16:59:12Z</time>
      </trkpt>
      <trkpt lat="49.28078" lon="-0.21811">
        <ele>3.5</ele>
        <time>2022-05-31T16:59:13Z</time>
      </trkpt>
      <trkpt lat="49.28079" lon="-0.21813">
        <ele>3.5</ele>
        <time>2022-05-31T16:59:14Z</time>
      </trkpt>
      <trkpt lat="49.28079" lon="-0.21815">
        <ele>3.5</ele>
        <time>2022-05-31T16:59:15Z</time>
      </trkpt>
      <trkpt lat="49.2808" lon="-0.21817">
        <ele>3.5</ele>
        <time>2022-05-31T16:59:16Z</time>
      </trkpt>
      <trkpt lat="49.2808" lon="-0.21818">
        <ele>3.5</ele>
        <time>2022-05-31T16:59:17Z</time>
      </trkpt>
      <trkpt lat="49.28081" lon="-0.2182">
        <ele>3.5</ele>
        <time>2022-05-31T16:59:18Z</time>
      </trkpt>
      <trkpt lat="49.28082" lon="-0.21821">
        <ele>3.5</ele>
        <time>2022-05-31T16:59:20Z</time>
      </trkpt>
      <trkpt lat="49.28082" lon="-0.21823">
        <ele>3.5</ele>
        <time>2022-05-31T16:59:21Z</time>
      </trkpt>
      <trkpt lat="49.28082" lon="-0.21824">
        <ele>3.5</ele>
        <time>2022-05-31T16:59:22Z</time>
      </trkpt>
      <trkpt lat="49.28083" lon="-0.21827">
        <ele>3.5</ele>
        <time>2022-05-31T16:59:23Z</time>
      </trkpt>
      <trkpt lat="49.28084" lon="-0.21828">
        <ele>3.5</ele>
        <time>2022-05-31T16:59:24Z</time>
      </trkpt>
      <trkpt lat="49.28085" lon="-0.21829">
        <ele>3.5</ele>
        <time>2022-05-31T16:59:25Z</time>
      </trkpt>
      <trkpt lat="49.28086" lon="-0.2183">
        <ele>3.5</ele>
        <time>2022-05-31T16:59:26Z</time>
      </trkpt>
      <trkpt lat="49.28087" lon="-0.21833">
        <ele>3.5</ele>
        <time>2022-05-31T16:59:27Z</time>
      </trkpt>
      <trkpt lat="49.28088" lon="-0.21835">
        <ele>3.5</ele>
        <time>2022-05-31T16:59:29Z</time>
      </trkpt>
      <trkpt lat="49.28089" lon="-0.21836">
        <ele>3.5</ele>
        <time>2022-05-31T16:59:30Z</time>
      </trkpt>
      <trkpt lat="49.28089" lon="-0.21839">
        <ele>3.5</ele>
        <time>2022-05-31T16:59:31Z</time>
      </trkpt>
      <trkpt lat="49.2809" lon="-0.2184">
        <ele>3.5</ele>
        <time>2022-05-31T16:59:32Z</time>
      </trkpt>
      <trkpt lat="49.2809" lon="-0.21841">
        <ele>3.5</ele>
        <time>2022-05-31T16:59:33Z</time>
      </trkpt>
      <trkpt lat="49.28091" lon="-0.21843">
        <ele>3.6</ele>
        <time>2022-05-31T16:59:34Z</time>
      </trkpt>
      <trkpt lat="49.28092" lon="-0.21846">
        <ele>3.6</ele>
        <time>2022-05-31T16:59:35Z</time>
      </trkpt>
      <trkpt lat="49.28093" lon="-0.21846">
        <ele>3.6</ele>
        <time>2022-05-31T16:59:36Z</time>
      </trkpt>
      <trkpt lat="49.28094" lon="-0.21847">
        <ele>3.6</ele>
        <time>2022-05-31T16:59:37Z</time>
      </trkpt>
      <trkpt lat="49.28095" lon="-0.21848">
        <ele>3.6</ele>
        <time>2022-05-31T16:59:38Z</time>
      </trkpt>
      <trkpt lat="49.28097" lon="-0.2185">
        <ele>3.6</ele>
        <time>2022-05-31T16:59:40Z</time>
      </trkpt>
      <trkpt lat="49.28097" lon="-0.2185">
        <ele>3.6</ele>
        <time>2022-05-31T16:59:41Z</time>
      </trkpt>
      <trkpt lat="49.28098" lon="-0.21851">
        <ele>3.6</ele>
        <time>2022-05-31T16:59:42Z</time>
      </trkpt>
      <trkpt lat="49.281" lon="-0.21852">
        <ele>3.6</ele>
        <time>2022-05-31T16:59:43Z</time>
      </trkpt>
      <trkpt lat="49.281" lon="-0.21853">
        <ele>3.6</ele>
        <time>2022-05-31T16:59:44Z</time>
      </trkpt>
      <trkpt lat="49.28101" lon="-0.21854">
        <ele>3.6</ele>
        <time>2022-05-31T16:59:45Z</time>
      </trkpt>
      <trkpt lat="49.28102" lon="-0.21855">
        <ele>3.6</ele>
        <time>2022-05-31T16:59:46Z</time>
      </trkpt>
      <trkpt lat="49.28104" lon="-0.21857">
        <ele>3.6</ele>
        <time>2022-05-31T16:59:48Z</time>
      </trkpt>
      <trkpt lat="49.28105" lon="-0.21858">
        <ele>3.6</ele>
        <time>2022-05-31T16:59:49Z</time>
      </trkpt>
      <trkpt lat="49.28106" lon="-0.21859">
        <ele>3.6</ele>
        <time>2022-05-31T16:59:50Z</time>
      </trkpt>
      <trkpt lat="49.28107" lon="-0.21861">
        <ele>3.6</ele>
        <time>2022-05-31T16:59:51Z</time>
      </trkpt>
      <trkpt lat="49.28108" lon="-0.21862">
        <ele>3.6</ele>
        <time>2022-05-31T16:59:52Z</time>
      </trkpt>
      <trkpt lat="49.28108" lon="-0.21864">
        <ele>3.6</ele>
        <time>2022-05-31T16:59:53Z</time>
      </trkpt>
      <trkpt lat="49.28108" lon="-0.21866">
        <ele>3.6</ele>
        <time>2022-05-31T16:59:54Z</time>
      </trkpt>
      <trkpt lat="49.28109" lon="-0.21868">
        <ele>3.6</ele>
        <time>2022-05-31T16:59:56Z</time>
      </trkpt>
      <trkpt lat="49.28109" lon="-0.21868">
        <ele>3.6</ele>
        <time>2022-05-31T16:59:57Z</time>
      </trkpt>
      <trkpt lat="49.28109" lon="-0.21869">
        <ele>3.6</ele>
        <time>2022-05-31T16:59:58Z</time>
      </trkpt>
      <trkpt lat="49.2811" lon="-0.21871">
        <ele>3.6</ele>
        <time>2022-05-31T16:59:59Z</time>
      </trkpt>
      <trkpt lat="49.2811" lon="-0.21872">
        <ele>3.6</ele>
        <time>2022-05-31T17:00:00Z</time>
      </trkpt>
      <trkpt lat="49.28112" lon="-0.21875">
        <ele>3.6</ele>
        <time>2022-05-31T17:00:01Z</time>
      </trkpt>
      <trkpt lat="49.28112" lon="-0.21876">
        <ele>3.6</ele>
        <time>2022-05-31T17:00:02Z</time>
      </trkpt>
      <trkpt lat="49.28113" lon="-0.21877">
        <ele>3.6</ele>
        <time>2022-05-31T17:00:03Z</time>
      </trkpt>
      <trkpt lat="49.28114" lon="-0.21879">
        <ele>3.6</ele>
        <time>2022-05-31T17:00:04Z</time>
      </trkpt>
      <trkpt lat="49.28115" lon="-0.2188">
        <ele>3.6</ele>
        <time>2022-05-31T17:00:06Z</time>
      </trkpt>
      <trkpt lat="49.28116" lon="-0.21882">
        <ele>3.6</ele>
        <time>2022-05-31T17:00:07Z</time>
      </trkpt>
      <trkpt lat="49.28117" lon="-0.21883">
        <ele>3.6</ele>
        <time>2022-05-31T17:00:08Z</time>
      </trkpt>
      <trkpt lat="49.28118" lon="-0.21885">
        <ele>3.6</ele>
        <time>2022-05-31T17:00:09Z</time>
      </trkpt>
      <trkpt lat="49.28119" lon="-0.21887">
        <ele>3.6</ele>
        <time>2022-05-31T17:00:10Z</time>
      </trkpt>
      <trkpt lat="49.2812" lon="-0.21888">
        <ele>3.6</ele>
        <time>2022-05-31T17:00:11Z</time>
      </trkpt>
      <trkpt lat="49.28121" lon="-0.2189">
        <ele>3.6</ele>
        <time>2022-05-31T17:00:12Z</time>
      </trkpt>
      <trkpt lat="49.28122" lon="-0.21891">
        <ele>3.6</ele>
        <time>2022-05-31T17:00:13Z</time>
      </trkpt>
      <trkpt lat="49.28123" lon="-0.21892">
        <ele>3.6</ele>
        <time>2022-05-31T17:00:14Z</time>
      </trkpt>
      <trkpt lat="49.28123" lon="-0.21894">
        <ele>3.6</ele>
        <time>2022-05-31T17:00:15Z</time>
      </trkpt>
      <trkpt lat="49.28124" lon="-0.21896">
        <ele>3.6</ele>
        <time>2022-05-31T17:00:16Z</time>
      </trkpt>
      <trkpt lat="49.28125" lon="-0.21897">
        <ele>3.6</ele>
        <time>2022-05-31T17:00:18Z</time>
      </trkpt>
      <trkpt lat="49.28125" lon="-0.21898">
        <ele>3.6</ele>
        <time>2022-05-31T17:00:19Z</time>
      </trkpt>
      <trkpt lat="49.28126" lon="-0.219">
        <ele>3.6</ele>
        <time>2022-05-31T17:00:20Z</time>
      </trkpt>
      <trkpt lat="49.28127" lon="-0.21902">
        <ele>3.6</ele>
        <time>2022-05-31T17:00:21Z</time>
      </trkpt>
      <trkpt lat="49.28128" lon="-0.21903">
        <ele>3.6</ele>
        <time>2022-05-31T17:00:22Z</time>
      </trkpt>
      <trkpt lat="49.28129" lon="-0.21905">
        <ele>3.6</ele>
        <time>2022-05-31T17:00:23Z</time>
      </trkpt>
      <trkpt lat="49.2813" lon="-0.21907">
        <ele>3.6</ele>
        <time>2022-05-31T17:00:24Z</time>
      </trkpt>
      <trkpt lat="49.2813" lon="-0.21909">
        <ele>3.6</ele>
        <time>2022-05-31T17:00:25Z</time>
      </trkpt>
      <trkpt lat="49.28131" lon="-0.21911">
        <ele>3.6</ele>
        <time>2022-05-31T17:00:26Z</time>
      </trkpt>
      <trkpt lat="49.28132" lon="-0.21912">
        <ele>3.6</ele>
        <time>2022-05-31T17:00:27Z</time>
      </trkpt>
      <trkpt lat="49.28132" lon="-0.21913">
        <ele>3.5</ele>
        <time>2022-05-31T17:00:29Z</time>
      </trkpt>
      <trkpt lat="49.28132" lon="-0.21915">
        <ele>3.5</ele>
        <time>2022-05-31T17:00:30Z</time>
      </trkpt>
      <trkpt lat="49.28133" lon="-0.21917">
        <ele>3.5</ele>
        <time>2022-05-31T17:00:31Z</time>
      </trkpt>
      <trkpt lat="49.28133" lon="-0.21918">
        <ele>3.5</ele>
        <time>2022-05-31T17:00:32Z</time>
      </trkpt>
      <trkpt lat="49.28134" lon="-0.21921">
        <ele>3.5</ele>
        <time>2022-05-31T17:00:33Z</time>
      </trkpt>
      <trkpt lat="49.28135" lon="-0.21922">
        <ele>3.5</ele>
        <time>2022-05-31T17:00:34Z</time>
      </trkpt>
      <trkpt lat="49.28135" lon="-0.21923">
        <ele>3.5</ele>
        <time>2022-05-31T17:00:35Z</time>
      </trkpt>
      <trkpt lat="49.28136" lon="-0.21925">
        <ele>3.5</ele>
        <time>2022-05-31T17:00:36Z</time>
      </trkpt>
      <trkpt lat="49.28136" lon="-0.21927">
        <ele>3.5</ele>
        <time>2022-05-31T17:00:37Z</time>
      </trkpt>
      <trkpt lat="49.28136" lon="-0.21929">
        <ele>3.5</ele>
        <time>2022-05-31T17:00:38Z</time>
      </trkpt>
      <trkpt lat="49.28136" lon="-0.21931">
        <ele>3.5</ele>
        <time>2022-05-31T17:00:39Z</time>
      </trkpt>
      <trkpt lat="49.28136" lon="-0.21933">
        <ele>3.5</ele>
        <time>2022-05-31T17:00:41Z</time>
      </trkpt>
      <trkpt lat="49.28136" lon="-0.21936">
        <ele>3.5</ele>
        <time>2022-05-31T17:00:42Z</time>
      </trkpt>
      <trkpt lat="49.28136" lon="-0.21937">
        <ele>3.5</ele>
        <time>2022-05-31T17:00:43Z</time>
      </trkpt>
      <trkpt lat="49.28136" lon="-0.21938">
        <ele>3.4</ele>
        <time>2022-05-31T17:00:44Z</time>
      </trkpt>
      <trkpt lat="49.28135" lon="-0.21941">
        <ele>3.4</ele>
        <time>2022-05-31T17:00:45Z</time>
      </trkpt>
      <trkpt lat="49.28135" lon="-0.21943">
        <ele>3.4</ele>
        <time>2022-05-31T17:00:46Z</time>
      </trkpt>
      <trkpt lat="49.28135" lon="-0.21945">
        <ele>3.4</ele>
        <time>2022-05-31T17:00:47Z</time>
      </trkpt>
      <trkpt lat="49.28134" lon="-0.21946">
        <ele>3.4</ele>
        <time>2022-05-31T17:00:49Z</time>
      </trkpt>
      <trkpt lat="49.28134" lon="-0.21947">
        <ele>3.4</ele>
        <time>2022-05-31T17:00:50Z</time>
      </trkpt>
      <trkpt lat="49.28134" lon="-0.21949">
        <ele>3.4</ele>
        <time>2022-05-31T17:00:51Z</time>
      </trkpt>
      <trkpt lat="49.28133" lon="-0.2195">
        <ele>3.4</ele>
        <time>2022-05-31T17:00:52Z</time>
      </trkpt>
      <trkpt lat="49.28133" lon="-0.21952">
        <ele>3.4</ele>
        <time>2022-05-31T17:00:53Z</time>
      </trkpt>
      <trkpt lat="49.28133" lon="-0.21955">
        <ele>3.4</ele>
        <time>2022-05-31T17:00:54Z</time>
      </trkpt>
      <trkpt lat="49.28133" lon="-0.21956">
        <ele>3.4</ele>
        <time>2022-05-31T17:00:55Z</time>
      </trkpt>
      <trkpt lat="49.28132" lon="-0.21957">
        <ele>3.4</ele>
        <time>2022-05-31T17:00:56Z</time>
      </trkpt>
      <trkpt lat="49.28132" lon="-0.21961">
        <ele>3.4</ele>
        <time>2022-05-31T17:00:57Z</time>
      </trkpt>
      <trkpt lat="49.28131" lon="-0.21963">
        <ele>3.4</ele>
        <time>2022-05-31T17:00:58Z</time>
      </trkpt>
      <trkpt lat="49.28131" lon="-0.21964">
        <ele>3.4</ele>
        <time>2022-05-31T17:00:59Z</time>
      </trkpt>
      <trkpt lat="49.2813" lon="-0.21966">
        <ele>3.4</ele>
        <time>2022-05-31T17:01:00Z</time>
      </trkpt>
      <trkpt lat="49.2813" lon="-0.21967">
        <ele>3.4</ele>
        <time>2022-05-31T17:01:01Z</time>
      </trkpt>
      <trkpt lat="49.28129" lon="-0.21969">
        <ele>3.4</ele>
        <time>2022-05-31T17:01:02Z</time>
      </trkpt>
      <trkpt lat="49.28129" lon="-0.21971">
        <ele>3.4</ele>
        <time>2022-05-31T17:01:03Z</time>
      </trkpt>
      <trkpt lat="49.28128" lon="-0.21972">
        <ele>3.4</ele>
        <time>2022-05-31T17:01:05Z</time>
      </trkpt>
      <trkpt lat="49.28128" lon="-0.21974">
        <ele>3.4</ele>
        <time>2022-05-31T17:01:06Z</time>
      </trkpt>
      <trkpt lat="49.28128" lon="-0.21976">
        <ele>3.4</ele>
        <time>2022-05-31T17:01:07Z</time>
      </trkpt>
      <trkpt lat="49.28128" lon="-0.21979">
        <ele>3.4</ele>
        <time>2022-05-31T17:01:08Z</time>
      </trkpt>
      <trkpt lat="49.28128" lon="-0.21981">
        <ele>3.4</ele>
        <time>2022-05-31T17:01:09Z</time>
      </trkpt>
      <trkpt lat="49.28127" lon="-0.21982">
        <ele>3.4</ele>
        <time>2022-05-31T17:01:10Z</time>
      </trkpt>
      <trkpt lat="49.28127" lon="-0.21984">
        <ele>3.4</ele>
        <time>2022-05-31T17:01:11Z</time>
      </trkpt>
      <trkpt lat="49.28127" lon="-0.21986">
        <ele>3.4</ele>
        <time>2022-05-31T17:01:12Z</time>
      </trkpt>
      <trkpt lat="49.28127" lon="-0.21988">
        <ele>3.4</ele>
        <time>2022-05-31T17:01:13Z</time>
      </trkpt>
      <trkpt lat="49.28127" lon="-0.2199">
        <ele>3.4</ele>
        <time>2022-05-31T17:01:14Z</time>
      </trkpt>
      <trkpt lat="49.28127" lon="-0.21992">
        <ele>3.4</ele>
        <time>2022-05-31T17:01:16Z</time>
      </trkpt>
      <trkpt lat="49.28127" lon="-0.21993">
        <ele>3.5</ele>
        <time>2022-05-31T17:01:17Z</time>
      </trkpt>
      <trkpt lat="49.28128" lon="-0.21995">
        <ele>3.5</ele>
        <time>2022-05-31T17:01:18Z</time>
      </trkpt>
      <trkpt lat="49.28128" lon="-0.21997">
        <ele>3.5</ele>
        <time>2022-05-31T17:01:20Z</time>
      </trkpt>
      <trkpt lat="49.28128" lon="-0.21997">
        <ele>3.5</ele>
        <time>2022-05-31T17:01:21Z</time>
      </trkpt>
      <trkpt lat="49.28128" lon="-0.21996">
        <ele>3.5</ele>
        <time>2022-05-31T17:01:22Z</time>
      </trkpt>
      <trkpt lat="49.28128" lon="-0.21994">
        <ele>3.5</ele>
        <time>2022-05-31T17:01:24Z</time>
      </trkpt>
      <trkpt lat="49.28127" lon="-0.21994">
        <ele>3.5</ele>
        <time>2022-05-31T17:01:25Z</time>
      </trkpt>
      <trkpt lat="49.28127" lon="-0.21994">
        <ele>3.5</ele>
        <time>2022-05-31T17:01:26Z</time>
      </trkpt>
      <trkpt lat="49.28126" lon="-0.21993">
        <ele>3.5</ele>
        <time>2022-05-31T17:01:27Z</time>
      </trkpt>
      <trkpt lat="49.28126" lon="-0.21993">
        <ele>3.5</ele>
        <time>2022-05-31T17:01:28Z</time>
      </trkpt>
      <trkpt lat="49.28126" lon="-0.21994">
        <ele>3.5</ele>
        <time>2022-05-31T17:01:30Z</time>
      </trkpt>
      <trkpt lat="49.28126" lon="-0.21993">
        <ele>3.5</ele>
        <time>2022-05-31T17:01:31Z</time>
      </trkpt>
      <trkpt lat="49.28126" lon="-0.21993">
        <ele>3.5</ele>
        <time>2022-05-31T17:01:32Z</time>
      </trkpt>
      <trkpt lat="49.28126" lon="-0.21993">
        <ele>3.5</ele>
        <time>2022-05-31T17:01:33Z</time>
      </trkpt>
      <trkpt lat="49.28126" lon="-0.21993">
        <ele>3.5</ele>
        <time>2022-05-31T17:01:34Z</time>
      </trkpt>
      <trkpt lat="49.28126" lon="-0.21993">
        <ele>3.5</ele>
        <time>2022-05-31T17:01:35Z</time>
      </trkpt>
      <trkpt lat="49.28126" lon="-0.21993">
        <ele>3.5</ele>
        <time>2022-05-31T17:01:36Z</time>
      </trkpt>
      <trkpt lat="49.28126" lon="-0.21993">
        <ele>3.5</ele>
        <time>2022-05-31T17:01:37Z</time>
      </trkpt>
      <trkpt lat="49.28126" lon="-0.21993">
        <ele>3.6</ele>
        <time>2022-05-31T17:01:38Z</time>
      </trkpt>
      <trkpt lat="49.28125" lon="-0.21993">
        <ele>3.6</ele>
        <time>2022-05-31T17:01:39Z</time>
      </trkpt>
      <trkpt lat="49.28125" lon="-0.21993">
        <ele>3.6</ele>
        <time>2022-05-31T17:01:40Z</time>
      </trkpt>
      <trkpt lat="49.28125" lon="-0.21992">
        <ele>3.6</ele>
        <time>2022-05-31T17:01:41Z</time>
      </trkpt>
      <trkpt lat="49.28125" lon="-0.21992">
        <ele>3.6</ele>
        <time>2022-05-31T17:01:42Z</time>
      </trkpt>
      <trkpt lat="49.28125" lon="-0.21992">
        <ele>3.6</ele>
        <time>2022-05-31T17:01:43Z</time>
      </trkpt>
      <trkpt lat="49.28125" lon="-0.21992">
        <ele>3.6</ele>
        <time>2022-05-31T17:01:44Z</time>
      </trkpt>
      <trkpt lat="49.28125" lon="-0.21992">
        <ele>3.6</ele>
        <time>2022-05-31T17:01:45Z</time>
      </trkpt>
      <trkpt lat="49.28125" lon="-0.21992">
        <ele>3.6</ele>
        <time>2022-05-31T17:01:46Z</time>
      </trkpt>
      <trkpt lat="49.28125" lon="-0.21992">
        <ele>3.6</ele>
        <time>2022-05-31T17:01:47Z</time>
      </trkpt>
      <trkpt lat="49.28125" lon="-0.21992">
        <ele>3.6</ele>
        <time>2022-05-31T17:01:48Z</time>
      </trkpt>
      <trkpt lat="49.28124" lon="-0.21992">
        <ele>3.6</ele>
        <time>2022-05-31T17:01:49Z</time>
      </trkpt>
      <trkpt lat="49.28124" lon="-0.21992">
        <ele>3.6</ele>
        <time>2022-05-31T17:01:50Z</time>
      </trkpt>
      <trkpt lat="49.28124" lon="-0.21992">
        <ele>3.6</ele>
        <time>2022-05-31T17:01:51Z</time>
      </trkpt>
      <trkpt lat="49.28124" lon="-0.21992">
        <ele>3.6</ele>
        <time>2022-05-31T17:01:52Z</time>
      </trkpt>
      <trkpt lat="49.28124" lon="-0.21992">
        <ele>3.6</ele>
        <time>2022-05-31T17:01:53Z</time>
      </trkpt>
      <trkpt lat="49.28124" lon="-0.21992">
        <ele>3.6</ele>
        <time>2022-05-31T17:01:54Z</time>
      </trkpt>
      <trkpt lat="49.28124" lon="-0.21992">
        <ele>3.6</ele>
        <time>2022-05-31T17:01:55Z</time>
      </trkpt>
      <trkpt lat="49.28125" lon="-0.21992">
        <ele>3.6</ele>
        <time>2022-05-31T17:01:56Z</time>
      </trkpt>
      <trkpt lat="49.28125" lon="-0.21992">
        <ele>3.6</ele>
        <time>2022-05-31T17:01:57Z</time>
      </trkpt>
      <trkpt lat="49.28125" lon="-0.21992">
        <ele>3.6</ele>
        <time>2022-05-31T17:01:58Z</time>
      </trkpt>
      <trkpt lat="49.28125" lon="-0.21992">
        <ele>3.6</ele>
        <time>2022-05-31T17:01:59Z</time>
      </trkpt>
      <trkpt lat="49.28125" lon="-0.21992">
        <ele>3.6</ele>
        <time>2022-05-31T17:02:00Z</time>
      </trkpt>
      <trkpt lat="49.28125" lon="-0.21992">
        <ele>3.6</ele>
        <time>2022-05-31T17:02:01Z</time>
      </trkpt>
      <trkpt lat="49.28125" lon="-0.21992">
        <ele>3.6</ele>
        <time>2022-05-31T17:02:02Z</time>
      </trkpt>
      <trkpt lat="49.28125" lon="-0.21992">
        <ele>3.6</ele>
        <time>2022-05-31T17:02:03Z</time>
      </trkpt>
      <trkpt lat="49.28125" lon="-0.21992">
        <ele>3.6</ele>
        <time>2022-05-31T17:02:04Z</time>
      </trkpt>
      <trkpt lat="49.28125" lon="-0.21992">
        <ele>3.6</ele>
        <time>2022-05-31T17:02:05Z</time>
      </trkpt>
      <trkpt lat="49.28125" lon="-0.21992">
        <ele>3.6</ele>
        <time>2022-05-31T17:02:06Z</time>
      </trkpt>
      <trkpt lat="49.28125" lon="-0.21992">
        <ele>3.6</ele>
        <time>2022-05-31T17:02:07Z</time>
      </trkpt>
      <trkpt lat="49.28125" lon="-0.21992">
        <ele>3.6</ele>
        <time>2022-05-31T17:02:08Z</time>
      </trkpt>
      <trkpt lat="49.28125" lon="-0.21992">
        <ele>3.6</ele>
        <time>2022-05-31T17:02:09Z</time>
      </trkpt>
      <trkpt lat="49.28125" lon="-0.21992">
        <ele>3.6</ele>
        <time>2022-05-31T17:02:10Z</time>
      </trkpt>
      <trkpt lat="49.28126" lon="-0.21992">
        <ele>3.6</ele>
        <time>2022-05-31T17:02:11Z</time>
      </trkpt>
      <trkpt lat="49.28126" lon="-0.21992">
        <ele>3.6</ele>
        <time>2022-05-31T17:02:12Z</time>
      </trkpt>
      <trkpt lat="49.28126" lon="-0.21992">
        <ele>3.6</ele>
        <time>2022-05-31T17:02:13Z</time>
      </trkpt>
      <trkpt lat="49.28126" lon="-0.21992">
        <ele>3.6</ele>
        <time>2022-05-31T17:02:14Z</time>
      </trkpt>
      <trkpt lat="49.28126" lon="-0.21992">
        <ele>3.6</ele>
        <time>2022-05-31T17:02:15Z</time>
      </trkpt>
      <trkpt lat="49.28126" lon="-0.21992">
        <ele>3.6</ele>
        <time>2022-05-31T17:02:16Z</time>
      </trkpt>
      <trkpt lat="49.28126" lon="-0.21992">
        <ele>3.6</ele>
        <time>2022-05-31T17:02:17Z</time>
      </trkpt>
      <trkpt lat="49.28126" lon="-0.21992">
        <ele>3.6</ele>
        <time>2022-05-31T17:02:18Z</time>
      </trkpt>
      <trkpt lat="49.28126" lon="-0.21992">
        <ele>3.6</ele>
        <time>2022-05-31T17:02:19Z</time>
      </trkpt>
      <trkpt lat="49.28126" lon="-0.21992">
        <ele>3.6</ele>
        <time>2022-05-31T17:02:20Z</time>
      </trkpt>
      <trkpt lat="49.28126" lon="-0.21992">
        <ele>3.6</ele>
        <time>2022-05-31T17:02:21Z</time>
      </trkpt>
      <trkpt lat="49.28126" lon="-0.21992">
        <ele>3.6</ele>
        <time>2022-05-31T17:02:22Z</time>
      </trkpt>
      <trkpt lat="49.28126" lon="-0.21992">
        <ele>3.6</ele>
        <time>2022-05-31T17:02:23Z</time>
      </trkpt>
      <trkpt lat="49.28126" lon="-0.21992">
        <ele>3.6</ele>
        <time>2022-05-31T17:02:24Z</time>
      </trkpt>
      <trkpt lat="49.28126" lon="-0.21992">
        <ele>3.6</ele>
        <time>2022-05-31T17:02:25Z</time>
      </trkpt>
      <trkpt lat="49.28127" lon="-0.21992">
        <ele>3.6</ele>
        <time>2022-05-31T17:02:26Z</time>
      </trkpt>
      <trkpt lat="49.28127" lon="-0.21992">
        <ele>3.6</ele>
        <time>2022-05-31T17:02:27Z</time>
      </trkpt>
      <trkpt lat="49.28127" lon="-0.21992">
        <ele>3.6</ele>
        <time>2022-05-31T17:02:28Z</time>
      </trkpt>
      <trkpt lat="49.28127" lon="-0.21992">
        <ele>3.6</ele>
        <time>2022-05-31T17:02:29Z</time>
      </trkpt>
      <trkpt lat="49.28127" lon="-0.21992">
        <ele>3.6</ele>
        <time>2022-05-31T17:02:30Z</time>
      </trkpt>
      <trkpt lat="49.28127" lon="-0.21992">
        <ele>3.6</ele>
        <time>2022-05-31T17:02:31Z</time>
      </trkpt>
      <trkpt lat="49.28127" lon="-0.21992">
        <ele>3.6</ele>
        <time>2022-05-31T17:02:32Z</time>
      </trkpt>
      <trkpt lat="49.28127" lon="-0.21992">
        <ele>3.6</ele>
        <time>2022-05-31T17:02:33Z</time>
      </trkpt>
      <trkpt lat="49.28127" lon="-0.21992">
        <ele>3.6</ele>
        <time>2022-05-31T17:02:34Z</time>
      </trkpt>
      <trkpt lat="49.28127" lon="-0.21992">
        <ele>3.6</ele>
        <time>2022-05-31T17:02:35Z</time>
      </trkpt>
      <trkpt lat="49.28127" lon="-0.21992">
        <ele>3.6</ele>
        <time>2022-05-31T17:02:36Z</time>
      </trkpt>
      <trkpt lat="49.28127" lon="-0.21992">
        <ele>3.6</ele>
        <time>2022-05-31T17:02:37Z</time>
      </trkpt>
      <trkpt lat="49.28127" lon="-0.21992">
        <ele>3.6</ele>
        <time>2022-05-31T17:02:38Z</time>
      </trkpt>
      <trkpt lat="49.28127" lon="-0.21992">
        <ele>3.6</ele>
        <time>2022-05-31T17:02:39Z</time>
      </trkpt>
      <trkpt lat="49.28127" lon="-0.21992">
        <ele>3.6</ele>
        <time>2022-05-31T17:02:40Z</time>
      </trkpt>
      <trkpt lat="49.28128" lon="-0.21992">
        <ele>3.6</ele>
        <time>2022-05-31T17:02:41Z</time>
      </trkpt>
      <trkpt lat="49.28128" lon="-0.21992">
        <ele>3.6</ele>
        <time>2022-05-31T17:02:42Z</time>
      </trkpt>
      <trkpt lat="49.28128" lon="-0.21992">
        <ele>3.6</ele>
        <time>2022-05-31T17:02:43Z</time>
      </trkpt>
      <trkpt lat="49.28128" lon="-0.21992">
        <ele>3.6</ele>
        <time>2022-05-31T17:02:45Z</time>
      </trkpt>
      <trkpt lat="49.28128" lon="-0.21992">
        <ele>3.6</ele>
        <time>2022-05-31T17:02:46Z</time>
      </trkpt>
      <trkpt lat="49.28128" lon="-0.21992">
        <ele>3.6</ele>
        <time>2022-05-31T17:02:47Z</time>
      </trkpt>
      <trkpt lat="49.28128" lon="-0.21992">
        <ele>3.6</ele>
        <time>2022-05-31T17:02:48Z</time>
      </trkpt>
      <trkpt lat="49.28128" lon="-0.21992">
        <ele>3.6</ele>
        <time>2022-05-31T17:02:49Z</time>
      </trkpt>
      <trkpt lat="49.28129" lon="-0.21992">
        <ele>3.6</ele>
        <time>2022-05-31T17:02:50Z</time>
      </trkpt>
      <trkpt lat="49.28131" lon="-0.21993">
        <ele>3.6</ele>
        <time>2022-05-31T17:02:51Z</time>
      </trkpt>
      <trkpt lat="49.28132" lon="-0.21993">
        <ele>3.7</ele>
        <time>2022-05-31T17:02:53Z</time>
      </trkpt>
      <trkpt lat="49.28134" lon="-0.21993">
        <ele>3.7</ele>
        <time>2022-05-31T17:02:54Z</time>
      </trkpt>
      <trkpt lat="49.28135" lon="-0.21993">
        <ele>3.7</ele>
        <time>2022-05-31T17:02:55Z</time>
      </trkpt>
      <trkpt lat="49.28136" lon="-0.21993">
        <ele>3.7</ele>
        <time>2022-05-31T17:02:56Z</time>
      </trkpt>
      <trkpt lat="49.28137" lon="-0.21992">
        <ele>3.7</ele>
        <time>2022-05-31T17:02:57Z</time>
      </trkpt>
      <trkpt lat="49.28137" lon="-0.21992">
        <ele>3.7</ele>
        <time>2022-05-31T17:02:58Z</time>
      </trkpt>
      <trkpt lat="49.28137" lon="-0.21991">
        <ele>3.7</ele>
        <time>2022-05-31T17:02:59Z</time>
      </trkpt>
      <trkpt lat="49.28138" lon="-0.21991">
        <ele>3.7</ele>
        <time>2022-05-31T17:03:00Z</time>
      </trkpt>
      <trkpt lat="49.28139" lon="-0.2199">
        <ele>3.7</ele>
        <time>2022-05-31T17:03:02Z</time>
      </trkpt>
      <trkpt lat="49.2814" lon="-0.21989">
        <ele>3.7</ele>
        <time>2022-05-31T17:03:03Z</time>
      </trkpt>
      <trkpt lat="49.28141" lon="-0.21988">
        <ele>3.7</ele>
        <time>2022-05-31T17:03:04Z</time>
      </trkpt>
      <trkpt lat="49.28143" lon="-0.21986">
        <ele>3.6</ele>
        <time>2022-05-31T17:03:05Z</time>
      </trkpt>
      <trkpt lat="49.28144" lon="-0.21985">
        <ele>3.6</ele>
        <time>2022-05-31T17:03:06Z</time>
      </trkpt>
      <trkpt lat="49.28145" lon="-0.21983">
        <ele>3.6</ele>
        <time>2022-05-31T17:03:07Z</time>
      </trkpt>
      <trkpt lat="49.28146" lon="-0.21981">
        <ele>3.6</ele>
        <time>2022-05-31T17:03:08Z</time>
      </trkpt>
      <trkpt lat="49.28147" lon="-0.2198">
        <ele>3.6</ele>
        <time>2022-05-31T17:03:09Z</time>
      </trkpt>
      <trkpt lat="49.28148" lon="-0.21978">
        <ele>3.6</ele>
        <time>2022-05-31T17:03:10Z</time>
      </trkpt>
      <trkpt lat="49.28149" lon="-0.21976">
        <ele>3.6</ele>
        <time>2022-05-31T17:03:12Z</time>
      </trkpt>
      <trkpt lat="49.2815" lon="-0.21974">
        <ele>3.6</ele>
        <time>2022-05-31T17:03:13Z</time>
      </trkpt>
      <trkpt lat="49.28151" lon="-0.21972">
        <ele>3.6</ele>
        <time>2022-05-31T17:03:14Z</time>
      </trkpt>
      <trkpt lat="49.28153" lon="-0.2197">
        <ele>3.6</ele>
        <time>2022-05-31T17:03:15Z</time>
      </trkpt>
      <trkpt lat="49.28153" lon="-0.21969">
        <ele>3.6</ele>
        <time>2022-05-31T17:03:16Z</time>
      </trkpt>
      <trkpt lat="49.28154" lon="-0.21969">
        <ele>3.6</ele>
        <time>2022-05-31T17:03:17Z</time>
      </trkpt>
      <trkpt lat="49.28155" lon="-0.21967">
        <ele>3.6</ele>
        <time>2022-05-31T17:03:18Z</time>
      </trkpt>
      <trkpt lat="49.28156" lon="-0.21967">
        <ele>3.6</ele>
        <time>2022-05-31T17:03:19Z</time>
      </trkpt>
      <trkpt lat="49.28157" lon="-0.21966">
        <ele>3.6</ele>
        <time>2022-05-31T17:03:20Z</time>
      </trkpt>
      <trkpt lat="49.28158" lon="-0.21965">
        <ele>3.7</ele>
        <time>2022-05-31T17:03:22Z</time>
      </trkpt>
      <trkpt lat="49.28158" lon="-0.21964">
        <ele>3.7</ele>
        <time>2022-05-31T17:03:23Z</time>
      </trkpt>
      <trkpt lat="49.28159" lon="-0.21963">
        <ele>3.7</ele>
        <time>2022-05-31T17:03:24Z</time>
      </trkpt>
      <trkpt lat="49.2816" lon="-0.21962">
        <ele>3.7</ele>
        <time>2022-05-31T17:03:25Z</time>
      </trkpt>
      <trkpt lat="49.28161" lon="-0.21961">
        <ele>3.7</ele>
        <time>2022-05-31T17:03:26Z</time>
      </trkpt>
      <trkpt lat="49.28162" lon="-0.2196">
        <ele>3.7</ele>
        <time>2022-05-31T17:03:27Z</time>
      </trkpt>
      <trkpt lat="49.28163" lon="-0.21959">
        <ele>3.7</ele>
        <time>2022-05-31T17:03:28Z</time>
      </trkpt>
      <trkpt lat="49.28163" lon="-0.21959">
        <ele>3.7</ele>
        <time>2022-05-31T17:03:29Z</time>
      </trkpt>
      <trkpt lat="49.28164" lon="-0.21958">
        <ele>3.7</ele>
        <time>2022-05-31T17:03:31Z</time>
      </trkpt>
      <trkpt lat="49.28165" lon="-0.21958">
        <ele>3.7</ele>
        <time>2022-05-31T17:03:32Z</time>
      </trkpt>
      <trkpt lat="49.28166" lon="-0.21958">
        <ele>3.7</ele>
        <time>2022-05-31T17:03:33Z</time>
      </trkpt>
      <trkpt lat="49.28168" lon="-0.21957">
        <ele>3.7</ele>
        <time>2022-05-31T17:03:34Z</time>
      </trkpt>
      <trkpt lat="49.28169" lon="-0.21957">
        <ele>3.7</ele>
        <time>2022-05-31T17:03:35Z</time>
      </trkpt>
      <trkpt lat="49.2817" lon="-0.21957">
        <ele>3.7</ele>
        <time>2022-05-31T17:03:36Z</time>
      </trkpt>
      <trkpt lat="49.2817" lon="-0.21958">
        <ele>3.8</ele>
        <time>2022-05-31T17:03:38Z</time>
      </trkpt>
      <trkpt lat="49.28171" lon="-0.2196">
        <ele>3.8</ele>
        <time>2022-05-31T17:03:39Z</time>
      </trkpt>
      <trkpt lat="49.28171" lon="-0.21962">
        <ele>3.8</ele>
        <time>2022-05-31T17:03:40Z</time>
      </trkpt>
      <trkpt lat="49.28171" lon="-0.21964">
        <ele>3.8</ele>
        <time>2022-05-31T17:03:41Z</time>
      </trkpt>
      <trkpt lat="49.28171" lon="-0.21967">
        <ele>3.8</ele>
        <time>2022-05-31T17:03:42Z</time>
      </trkpt>
      <trkpt lat="49.28171" lon="-0.21968">
        <ele>3.8</ele>
        <time>2022-05-31T17:03:43Z</time>
      </trkpt>
      <trkpt lat="49.28171" lon="-0.2197">
        <ele>3.8</ele>
        <time>2022-05-31T17:03:44Z</time>
      </trkpt>
      <trkpt lat="49.28172" lon="-0.21971">
        <ele>3.8</ele>
        <time>2022-05-31T17:03:45Z</time>
      </trkpt>
      <trkpt lat="49.28172" lon="-0.21973">
        <ele>3.8</ele>
        <time>2022-05-31T17:03:46Z</time>
      </trkpt>
      <trkpt lat="49.28172" lon="-0.21975">
        <ele>3.9</ele>
        <time>2022-05-31T17:03:47Z</time>
      </trkpt>
      <trkpt lat="49.28173" lon="-0.21977">
        <ele>3.9</ele>
        <time>2022-05-31T17:03:48Z</time>
      </trkpt>
      <trkpt lat="49.28173" lon="-0.2198">
        <ele>3.9</ele>
        <time>2022-05-31T17:03:49Z</time>
      </trkpt>
      <trkpt lat="49.28173" lon="-0.21982">
        <ele>3.9</ele>
        <time>2022-05-31T17:03:50Z</time>
      </trkpt>
      <trkpt lat="49.28174" lon="-0.21985">
        <ele>3.9</ele>
        <time>2022-05-31T17:03:51Z</time>
      </trkpt>
      <trkpt lat="49.28174" lon="-0.21988">
        <ele>4</ele>
        <time>2022-05-31T17:03:52Z</time>
      </trkpt>
      <trkpt lat="49.28174" lon="-0.2199">
        <ele>4</ele>
        <time>2022-05-31T17:03:54Z</time>
      </trkpt>
      <trkpt lat="49.28175" lon="-0.21992">
        <ele>4</ele>
        <time>2022-05-31T17:03:55Z</time>
      </trkpt>
      <trkpt lat="49.28175" lon="-0.21993">
        <ele>4</ele>
        <time>2022-05-31T17:03:56Z</time>
      </trkpt>
      <trkpt lat="49.28175" lon="-0.21995">
        <ele>4.1</ele>
        <time>2022-05-31T17:03:57Z</time>
      </trkpt>
      <trkpt lat="49.28177" lon="-0.21997">
        <ele>4.1</ele>
        <time>2022-05-31T17:03:58Z</time>
      </trkpt>
      <trkpt lat="49.28178" lon="-0.21997">
        <ele>4.1</ele>
        <time>2022-05-31T17:04:00Z</time>
      </trkpt>
      <trkpt lat="49.28179" lon="-0.21996">
        <ele>4.1</ele>
        <time>2022-05-31T17:04:01Z</time>
      </trkpt>
      <trkpt lat="49.2818" lon="-0.21995">
        <ele>4.2</ele>
        <time>2022-05-31T17:04:02Z</time>
      </trkpt>
      <trkpt lat="49.2818" lon="-0.21994">
        <ele>4.2</ele>
        <time>2022-05-31T17:04:03Z</time>
      </trkpt>
      <trkpt lat="49.28181" lon="-0.21994">
        <ele>4.2</ele>
        <time>2022-05-31T17:04:04Z</time>
      </trkpt>
      <trkpt lat="49.28182" lon="-0.21994">
        <ele>4.2</ele>
        <time>2022-05-31T17:04:05Z</time>
      </trkpt>
      <trkpt lat="49.28183" lon="-0.21995">
        <ele>4.2</ele>
        <time>2022-05-31T17:04:06Z</time>
      </trkpt>
      <trkpt lat="49.28184" lon="-0.21994">
        <ele>4.3</ele>
        <time>2022-05-31T17:04:07Z</time>
      </trkpt>
      <trkpt lat="49.28185" lon="-0.21993">
        <ele>4.2</ele>
        <time>2022-05-31T17:04:08Z</time>
      </trkpt>
      <trkpt lat="49.28186" lon="-0.21992">
        <ele>4.2</ele>
        <time>2022-05-31T17:04:09Z</time>
      </trkpt>
      <trkpt lat="49.28187" lon="-0.21991">
        <ele>4.2</ele>
        <time>2022-05-31T17:04:10Z</time>
      </trkpt>
      <trkpt lat="49.28187" lon="-0.21989">
        <ele>4.2</ele>
        <time>2022-05-31T17:04:12Z</time>
      </trkpt>
      <trkpt lat="49.28188" lon="-0.21988">
        <ele>4.2</ele>
        <time>2022-05-31T17:04:13Z</time>
      </trkpt>
      <trkpt lat="49.28188" lon="-0.21987">
        <ele>4.2</ele>
        <time>2022-05-31T17:04:14Z</time>
      </trkpt>
      <trkpt lat="49.28188" lon="-0.21986">
        <ele>4.2</ele>
        <time>2022-05-31T17:04:15Z</time>
      </trkpt>
      <trkpt lat="49.28188" lon="-0.21985">
        <ele>4.2</ele>
        <time>2022-05-31T17:04:16Z</time>
      </trkpt>
      <trkpt lat="49.28188" lon="-0.21985">
        <ele>4.2</ele>
        <time>2022-05-31T17:04:17Z</time>
      </trkpt>
      <trkpt lat="49.28188" lon="-0.21985">
        <ele>4.2</ele>
        <time>2022-05-31T17:04:18Z</time>
      </trkpt>
      <trkpt lat="49.28188" lon="-0.21985">
        <ele>4.2</ele>
        <time>2022-05-31T17:04:19Z</time>
      </trkpt>
      <trkpt lat="49.28189" lon="-0.21985">
        <ele>4.2</ele>
        <time>2022-05-31T17:04:20Z</time>
      </trkpt>
      <trkpt lat="49.28189" lon="-0.21985">
        <ele>4.2</ele>
        <time>2022-05-31T17:04:21Z</time>
      </trkpt>
      <trkpt lat="49.28189" lon="-0.21986">
        <ele>4.2</ele>
        <time>2022-05-31T17:04:22Z</time>
      </trkpt>
      <trkpt lat="49.2819" lon="-0.21986">
        <ele>4.1</ele>
        <time>2022-05-31T17:04:23Z</time>
      </trkpt>
      <trkpt lat="49.28191" lon="-0.21986">
        <ele>4.1</ele>
        <time>2022-05-31T17:04:24Z</time>
      </trkpt>
      <trkpt lat="49.28191" lon="-0.21985">
        <ele>4.1</ele>
        <time>2022-05-31T17:04:25Z</time>
      </trkpt>
      <trkpt lat="49.28192" lon="-0.21984">
        <ele>4.1</ele>
        <time>2022-05-31T17:04:26Z</time>
      </trkpt>
      <trkpt lat="49.28191" lon="-0.21983">
        <ele>4.1</ele>
        <time>2022-05-31T17:04:27Z</time>
      </trkpt>
      <trkpt lat="49.2819" lon="-0.21981">
        <ele>4.1</ele>
        <time>2022-05-31T17:04:29Z</time>
      </trkpt>
      <trkpt lat="49.28189" lon="-0.21981">
        <ele>4.1</ele>
        <time>2022-05-31T17:04:30Z</time>
      </trkpt>
      <trkpt lat="49.28188" lon="-0.21981">
        <ele>4.1</ele>
        <time>2022-05-31T17:04:31Z</time>
      </trkpt>
      <trkpt lat="49.28188" lon="-0.21981">
        <ele>4.1</ele>
        <time>2022-05-31T17:04:32Z</time>
      </trkpt>
      <trkpt lat="49.28187" lon="-0.21982">
        <ele>4.1</ele>
        <time>2022-05-31T17:04:33Z</time>
      </trkpt>
      <trkpt lat="49.28187" lon="-0.21982">
        <ele>4.1</ele>
        <time>2022-05-31T17:04:34Z</time>
      </trkpt>
      <trkpt lat="49.28187" lon="-0.21982">
        <ele>4.1</ele>
        <time>2022-05-31T17:04:35Z</time>
      </trkpt>
      <trkpt lat="49.28187" lon="-0.21983">
        <ele>4.1</ele>
        <time>2022-05-31T17:04:36Z</time>
      </trkpt>
      <trkpt lat="49.28187" lon="-0.21983">
        <ele>4.1</ele>
        <time>2022-05-31T17:04:37Z</time>
      </trkpt>
      <trkpt lat="49.28186" lon="-0.21983">
        <ele>4.1</ele>
        <time>2022-05-31T17:04:38Z</time>
      </trkpt>
      <trkpt lat="49.28186" lon="-0.21984">
        <ele>4.1</ele>
        <time>2022-05-31T17:04:40Z</time>
      </trkpt>
      <trkpt lat="49.28186" lon="-0.21984">
        <ele>4.1</ele>
        <time>2022-05-31T17:04:41Z</time>
      </trkpt>
      <trkpt lat="49.28186" lon="-0.21984">
        <ele>4.1</ele>
        <time>2022-05-31T17:04:42Z</time>
      </trkpt>
      <trkpt lat="49.28186" lon="-0.21984">
        <ele>4.1</ele>
        <time>2022-05-31T17:04:43Z</time>
      </trkpt>
      <trkpt lat="49.28185" lon="-0.21985">
        <ele>4.1</ele>
        <time>2022-05-31T17:04:45Z</time>
      </trkpt>
      <trkpt lat="49.28185" lon="-0.21985">
        <ele>4.1</ele>
        <time>2022-05-31T17:04:46Z</time>
      </trkpt>
      <trkpt lat="49.28185" lon="-0.21985">
        <ele>4.1</ele>
        <time>2022-05-31T17:04:47Z</time>
      </trkpt>
      <trkpt lat="49.28186" lon="-0.21985">
        <ele>4.1</ele>
        <time>2022-05-31T17:04:48Z</time>
      </trkpt>
      <trkpt lat="49.28186" lon="-0.21985">
        <ele>4.1</ele>
        <time>2022-05-31T17:04:49Z</time>
      </trkpt>
      <trkpt lat="49.28186" lon="-0.21985">
        <ele>4.1</ele>
        <time>2022-05-31T17:04:50Z</time>
      </trkpt>
      <trkpt lat="49.28186" lon="-0.21985">
        <ele>4.1</ele>
        <time>2022-05-31T17:04:51Z</time>
      </trkpt>
      <trkpt lat="49.28186" lon="-0.21985">
        <ele>4.1</ele>
        <time>2022-05-31T17:04:52Z</time>
      </trkpt>
      <trkpt lat="49.28186" lon="-0.21985">
        <ele>4.1</ele>
        <time>2022-05-31T17:04:53Z</time>
      </trkpt>
      <trkpt lat="49.28186" lon="-0.21985">
        <ele>4.1</ele>
        <time>2022-05-31T17:04:54Z</time>
      </trkpt>
      <trkpt lat="49.28186" lon="-0.21986">
        <ele>4.1</ele>
        <time>2022-05-31T17:04:55Z</time>
      </trkpt>
      <trkpt lat="49.28186" lon="-0.21986">
        <ele>4.1</ele>
        <time>2022-05-31T17:04:56Z</time>
      </trkpt>
      <trkpt lat="49.28186" lon="-0.21986">
        <ele>4.1</ele>
        <time>2022-05-31T17:04:57Z</time>
      </trkpt>
      <trkpt lat="49.28185" lon="-0.21986">
        <ele>4.1</ele>
        <time>2022-05-31T17:04:58Z</time>
      </trkpt>
      <trkpt lat="49.28185" lon="-0.21985">
        <ele>4.1</ele>
        <time>2022-05-31T17:04:59Z</time>
      </trkpt>
      <trkpt lat="49.28185" lon="-0.21985">
        <ele>4.1</ele>
        <time>2022-05-31T17:05:00Z</time>
      </trkpt>
      <trkpt lat="49.28185" lon="-0.21984">
        <ele>4.1</ele>
        <time>2022-05-31T17:05:01Z</time>
      </trkpt>
      <trkpt lat="49.28185" lon="-0.21984">
        <ele>4.1</ele>
        <time>2022-05-31T17:05:02Z</time>
      </trkpt>
      <trkpt lat="49.28185" lon="-0.21984">
        <ele>4</ele>
        <time>2022-05-31T17:05:03Z</time>
      </trkpt>
      <trkpt lat="49.28185" lon="-0.21983">
        <ele>4</ele>
        <time>2022-05-31T17:05:04Z</time>
      </trkpt>
      <trkpt lat="49.28184" lon="-0.21983">
        <ele>4</ele>
        <time>2022-05-31T17:05:05Z</time>
      </trkpt>
      <trkpt lat="49.28184" lon="-0.21983">
        <ele>4</ele>
        <time>2022-05-31T17:05:06Z</time>
      </trkpt>
      <trkpt lat="49.28184" lon="-0.21982">
        <ele>4</ele>
        <time>2022-05-31T17:05:07Z</time>
      </trkpt>
      <trkpt lat="49.28184" lon="-0.21982">
        <ele>4</ele>
        <time>2022-05-31T17:05:08Z</time>
      </trkpt>
      <trkpt lat="49.28184" lon="-0.21981">
        <ele>4</ele>
        <time>2022-05-31T17:05:09Z</time>
      </trkpt>
      <trkpt lat="49.28184" lon="-0.21981">
        <ele>4</ele>
        <time>2022-05-31T17:05:10Z</time>
      </trkpt>
      <trkpt lat="49.28183" lon="-0.21981">
        <ele>4</ele>
        <time>2022-05-31T17:05:11Z</time>
      </trkpt>
      <trkpt lat="49.28183" lon="-0.2198">
        <ele>4</ele>
        <time>2022-05-31T17:05:12Z</time>
      </trkpt>
      <trkpt lat="49.28183" lon="-0.2198">
        <ele>4</ele>
        <time>2022-05-31T17:05:13Z</time>
      </trkpt>
      <trkpt lat="49.28183" lon="-0.2198">
        <ele>4</ele>
        <time>2022-05-31T17:05:14Z</time>
      </trkpt>
      <trkpt lat="49.28183" lon="-0.21979">
        <ele>4</ele>
        <time>2022-05-31T17:05:15Z</time>
      </trkpt>
      <trkpt lat="49.28183" lon="-0.21979">
        <ele>4</ele>
        <time>2022-05-31T17:05:16Z</time>
      </trkpt>
      <trkpt lat="49.28183" lon="-0.21978">
        <ele>4</ele>
        <time>2022-05-31T17:05:17Z</time>
      </trkpt>
      <trkpt lat="49.28182" lon="-0.21978">
        <ele>4</ele>
        <time>2022-05-31T17:05:18Z</time>
      </trkpt>
      <trkpt lat="49.28182" lon="-0.21978">
        <ele>4</ele>
        <time>2022-05-31T17:05:19Z</time>
      </trkpt>
      <trkpt lat="49.28182" lon="-0.21977">
        <ele>4</ele>
        <time>2022-05-31T17:05:20Z</time>
      </trkpt>
      <trkpt lat="49.28182" lon="-0.21977">
        <ele>4</ele>
        <time>2022-05-31T17:05:21Z</time>
      </trkpt>
      <trkpt lat="49.28182" lon="-0.21977">
        <ele>4</ele>
        <time>2022-05-31T17:05:22Z</time>
      </trkpt>
      <trkpt lat="49.28182" lon="-0.21976">
        <ele>4</ele>
        <time>2022-05-31T17:05:23Z</time>
      </trkpt>
      <trkpt lat="49.28182" lon="-0.21976">
        <ele>4</ele>
        <time>2022-05-31T17:05:24Z</time>
      </trkpt>
      <trkpt lat="49.28181" lon="-0.21975">
        <ele>4</ele>
        <time>2022-05-31T17:05:25Z</time>
      </trkpt>
      <trkpt lat="49.28181" lon="-0.21975">
        <ele>4</ele>
        <time>2022-05-31T17:05:26Z</time>
      </trkpt>
      <trkpt lat="49.28181" lon="-0.21975">
        <ele>4</ele>
        <time>2022-05-31T17:05:27Z</time>
      </trkpt>
      <trkpt lat="49.28181" lon="-0.21974">
        <ele>4</ele>
        <time>2022-05-31T17:05:28Z</time>
      </trkpt>
      <trkpt lat="49.28181" lon="-0.21974">
        <ele>4</ele>
        <time>2022-05-31T17:05:29Z</time>
      </trkpt>
      <trkpt lat="49.28181" lon="-0.21974">
        <ele>4</ele>
        <time>2022-05-31T17:05:30Z</time>
      </trkpt>
      <trkpt lat="49.2818" lon="-0.21973">
        <ele>4</ele>
        <time>2022-05-31T17:05:31Z</time>
      </trkpt>
      <trkpt lat="49.2818" lon="-0.21973">
        <ele>4</ele>
        <time>2022-05-31T17:05:32Z</time>
      </trkpt>
      <trkpt lat="49.2818" lon="-0.21973">
        <ele>4</ele>
        <time>2022-05-31T17:05:33Z</time>
      </trkpt>
      <trkpt lat="49.2818" lon="-0.21972">
        <ele>4</ele>
        <time>2022-05-31T17:05:34Z</time>
      </trkpt>
      <trkpt lat="49.2818" lon="-0.21972">
        <ele>4</ele>
        <time>2022-05-31T17:05:35Z</time>
      </trkpt>
      <trkpt lat="49.2818" lon="-0.21971">
        <ele>4</ele>
        <time>2022-05-31T17:05:36Z</time>
      </trkpt>
      <trkpt lat="49.2818" lon="-0.21971">
        <ele>4</ele>
        <time>2022-05-31T17:05:37Z</time>
      </trkpt>
      <trkpt lat="49.28179" lon="-0.21971">
        <ele>4</ele>
        <time>2022-05-31T17:05:38Z</time>
      </trkpt>
      <trkpt lat="49.28179" lon="-0.2197">
        <ele>4</ele>
        <time>2022-05-31T17:05:39Z</time>
      </trkpt>
      <trkpt lat="49.28179" lon="-0.2197">
        <ele>4</ele>
        <time>2022-05-31T17:05:40Z</time>
      </trkpt>
      <trkpt lat="49.28179" lon="-0.2197">
        <ele>4</ele>
        <time>2022-05-31T17:05:41Z</time>
      </trkpt>
      <trkpt lat="49.28179" lon="-0.21969">
        <ele>4</ele>
        <time>2022-05-31T17:05:42Z</time>
      </trkpt>
      <trkpt lat="49.28179" lon="-0.21969">
        <ele>4</ele>
        <time>2022-05-31T17:05:43Z</time>
      </trkpt>
      <trkpt lat="49.28179" lon="-0.21968">
        <ele>4</ele>
        <time>2022-05-31T17:05:44Z</time>
      </trkpt>
      <trkpt lat="49.28178" lon="-0.21968">
        <ele>4</ele>
        <time>2022-05-31T17:05:45Z</time>
      </trkpt>
      <trkpt lat="49.28178" lon="-0.21968">
        <ele>4</ele>
        <time>2022-05-31T17:05:46Z</time>
      </trkpt>
      <trkpt lat="49.28178" lon="-0.21967">
        <ele>4</ele>
        <time>2022-05-31T17:05:47Z</time>
      </trkpt>
      <trkpt lat="49.28178" lon="-0.21967">
        <ele>4</ele>
        <time>2022-05-31T17:05:48Z</time>
      </trkpt>
      <trkpt lat="49.28178" lon="-0.21967">
        <ele>4</ele>
        <time>2022-05-31T17:05:49Z</time>
      </trkpt>
      <trkpt lat="49.28178" lon="-0.21966">
        <ele>4</ele>
        <time>2022-05-31T17:05:50Z</time>
      </trkpt>
      <trkpt lat="49.28177" lon="-0.21966">
        <ele>4</ele>
        <time>2022-05-31T17:05:51Z</time>
      </trkpt>
      <trkpt lat="49.28177" lon="-0.21965">
        <ele>4</ele>
        <time>2022-05-31T17:05:52Z</time>
      </trkpt>
      <trkpt lat="49.28177" lon="-0.21965">
        <ele>4</ele>
        <time>2022-05-31T17:05:53Z</time>
      </trkpt>
      <trkpt lat="49.28177" lon="-0.21965">
        <ele>4</ele>
        <time>2022-05-31T17:05:54Z</time>
      </trkpt>
      <trkpt lat="49.28177" lon="-0.21964">
        <ele>4</ele>
        <time>2022-05-31T17:05:55Z</time>
      </trkpt>
      <trkpt lat="49.28177" lon="-0.21964">
        <ele>4</ele>
        <time>2022-05-31T17:05:56Z</time>
      </trkpt>
      <trkpt lat="49.28177" lon="-0.21964">
        <ele>4</ele>
        <time>2022-05-31T17:05:57Z</time>
      </trkpt>
      <trkpt lat="49.28176" lon="-0.21963">
        <ele>4</ele>
        <time>2022-05-31T17:05:58Z</time>
      </trkpt>
      <trkpt lat="49.28176" lon="-0.21963">
        <ele>4</ele>
        <time>2022-05-31T17:05:59Z</time>
      </trkpt>
      <trkpt lat="49.28176" lon="-0.21962">
        <ele>4</ele>
        <time>2022-05-31T17:06:00Z</time>
      </trkpt>
      <trkpt lat="49.28176" lon="-0.21962">
        <ele>4</ele>
        <time>2022-05-31T17:06:01Z</time>
      </trkpt>
      <trkpt lat="49.28176" lon="-0.21962">
        <ele>4</ele>
        <time>2022-05-31T17:06:02Z</time>
      </trkpt>
      <trkpt lat="49.28176" lon="-0.21961">
        <ele>4</ele>
        <time>2022-05-31T17:06:03Z</time>
      </trkpt>
      <trkpt lat="49.28176" lon="-0.21961">
        <ele>4</ele>
        <time>2022-05-31T17:06:04Z</time>
      </trkpt>
      <trkpt lat="49.28175" lon="-0.21961">
        <ele>4</ele>
        <time>2022-05-31T17:06:05Z</time>
      </trkpt>
      <trkpt lat="49.28175" lon="-0.2196">
        <ele>4</ele>
        <time>2022-05-31T17:06:06Z</time>
      </trkpt>
      <trkpt lat="49.28175" lon="-0.2196">
        <ele>4</ele>
        <time>2022-05-31T17:06:07Z</time>
      </trkpt>
      <trkpt lat="49.28175" lon="-0.21959">
        <ele>4</ele>
        <time>2022-05-31T17:06:08Z</time>
      </trkpt>
      <trkpt lat="49.28175" lon="-0.21959">
        <ele>4</ele>
        <time>2022-05-31T17:06:09Z</time>
      </trkpt>
      <trkpt lat="49.28175" lon="-0.21959">
        <ele>4</ele>
        <time>2022-05-31T17:06:10Z</time>
      </trkpt>
      <trkpt lat="49.28174" lon="-0.21958">
        <ele>4</ele>
        <time>2022-05-31T17:06:11Z</time>
      </trkpt>
      <trkpt lat="49.28174" lon="-0.21958">
        <ele>4</ele>
        <time>2022-05-31T17:06:12Z</time>
      </trkpt>
      <trkpt lat="49.28169" lon="-0.21947">
        <ele>4</ele>
        <time>2022-05-31T17:06:13Z</time>
      </trkpt>
      <trkpt lat="49.28165" lon="-0.21939">
        <ele>3.9</ele>
        <time>2022-05-31T17:06:14Z</time>
      </trkpt>
      <trkpt lat="49.28161" lon="-0.2193">
        <ele>3.9</ele>
        <time>2022-05-31T17:06:15Z</time>
      </trkpt>
      <trkpt lat="49.28158" lon="-0.21922">
        <ele>3.9</ele>
        <time>2022-05-31T17:06:16Z</time>
      </trkpt>
      <trkpt lat="49.28154" lon="-0.21915">
        <ele>3.9</ele>
        <time>2022-05-31T17:06:17Z</time>
      </trkpt>
      <trkpt lat="49.28151" lon="-0.21908">
        <ele>3.9</ele>
        <time>2022-05-31T17:06:18Z</time>
      </trkpt>
      <trkpt lat="49.28147" lon="-0.21901">
        <ele>3.9</ele>
        <time>2022-05-31T17:06:19Z</time>
      </trkpt>
      <trkpt lat="49.28144" lon="-0.21896">
        <ele>3.9</ele>
        <time>2022-05-31T17:06:20Z</time>
      </trkpt>
      <trkpt lat="49.28141" lon="-0.21891">
        <ele>4</ele>
        <time>2022-05-31T17:06:21Z</time>
      </trkpt>
      <trkpt lat="49.2814" lon="-0.21888">
        <ele>4</ele>
        <time>2022-05-31T17:06:22Z</time>
      </trkpt>
      <trkpt lat="49.28137" lon="-0.21883">
        <ele>4</ele>
        <time>2022-05-31T17:06:23Z</time>
      </trkpt>
      <trkpt lat="49.28134" lon="-0.21877">
        <ele>4</ele>
        <time>2022-05-31T17:06:24Z</time>
      </trkpt>
      <trkpt lat="49.2813" lon="-0.2187">
        <ele>4</ele>
        <time>2022-05-31T17:06:25Z</time>
      </trkpt>
      <trkpt lat="49.28126" lon="-0.21862">
        <ele>4</ele>
        <time>2022-05-31T17:06:26Z</time>
      </trkpt>
      <trkpt lat="49.28122" lon="-0.21854">
        <ele>4</ele>
        <time>2022-05-31T17:06:27Z</time>
      </trkpt>
      <trkpt lat="49.28117" lon="-0.21844">
        <ele>4.1</ele>
        <time>2022-05-31T17:06:28Z</time>
      </trkpt>
      <trkpt lat="49.28112" lon="-0.21835">
        <ele>4.1</ele>
        <time>2022-05-31T17:06:29Z</time>
      </trkpt>
      <trkpt lat="49.28106" lon="-0.21826">
        <ele>4.1</ele>
        <time>2022-05-31T17:06:30Z</time>
      </trkpt>
      <trkpt lat="49.281" lon="-0.21817">
        <ele>4</ele>
        <time>2022-05-31T17:06:31Z</time>
      </trkpt>
      <trkpt lat="49.28092" lon="-0.21808">
        <ele>4</ele>
        <time>2022-05-31T17:06:32Z</time>
      </trkpt>
      <trkpt lat="49.28085" lon="-0.218">
        <ele>4</ele>
        <time>2022-05-31T17:06:33Z</time>
      </trkpt>
      <trkpt lat="49.28077" lon="-0.2179">
        <ele>3.9</ele>
        <time>2022-05-31T17:06:34Z</time>
      </trkpt>
      <trkpt lat="49.28068" lon="-0.21781">
        <ele>3.9</ele>
        <time>2022-05-31T17:06:35Z</time>
      </trkpt>
      <trkpt lat="49.2806" lon="-0.21771">
        <ele>3.8</ele>
        <time>2022-05-31T17:06:36Z</time>
      </trkpt>
      <trkpt lat="49.28051" lon="-0.21762">
        <ele>3.8</ele>
        <time>2022-05-31T17:06:37Z</time>
      </trkpt>
      <trkpt lat="49.28043" lon="-0.21752">
        <ele>3.7</ele>
        <time>2022-05-31T17:06:38Z</time>
      </trkpt>
      <trkpt lat="49.28034" lon="-0.21743">
        <ele>3.7</ele>
        <time>2022-05-31T17:06:39Z</time>
      </trkpt>
      <trkpt lat="49.28024" lon="-0.21734">
        <ele>3.7</ele>
        <time>2022-05-31T17:06:40Z</time>
      </trkpt>
      <trkpt lat="49.28014" lon="-0.21725">
        <ele>3.7</ele>
        <time>2022-05-31T17:06:41Z</time>
      </trkpt>
      <trkpt lat="49.28004" lon="-0.21717">
        <ele>3.7</ele>
        <time>2022-05-31T17:06:42Z</time>
      </trkpt>
      <trkpt lat="49.27993" lon="-0.21709">
        <ele>3.6</ele>
        <time>2022-05-31T17:06:43Z</time>
      </trkpt>
      <trkpt lat="49.27982" lon="-0.21702">
        <ele>3.6</ele>
        <time>2022-05-31T17:06:44Z</time>
      </trkpt>
      <trkpt lat="49.2797" lon="-0.21696">
        <ele>3.5</ele>
        <time>2022-05-31T17:06:45Z</time>
      </trkpt>
      <trkpt lat="49.27958" lon="-0.21689">
        <ele>3.5</ele>
        <time>2022-05-31T17:06:46Z</time>
      </trkpt>
      <trkpt lat="49.27946" lon="-0.21683">
        <ele>3.5</ele>
        <time>2022-05-31T17:06:47Z</time>
      </trkpt>
      <trkpt lat="49.27934" lon="-0.21676">
        <ele>3.5</ele>
        <time>2022-05-31T17:06:48Z</time>
      </trkpt>
      <trkpt lat="49.27922" lon="-0.2167">
        <ele>3.5</ele>
        <time>2022-05-31T17:06:49Z</time>
      </trkpt>
      <trkpt lat="49.2791" lon="-0.21664">
        <ele>3.6</ele>
        <time>2022-05-31T17:06:50Z</time>
      </trkpt>
      <trkpt lat="49.27898" lon="-0.21658">
        <ele>3.5</ele>
        <time>2022-05-31T17:06:51Z</time>
      </trkpt>
      <trkpt lat="49.27887" lon="-0.21651">
        <ele>3.5</ele>
        <time>2022-05-31T17:06:52Z</time>
      </trkpt>
      <trkpt lat="49.27875" lon="-0.21643">
        <ele>3.5</ele>
        <time>2022-05-31T17:06:53Z</time>
      </trkpt>
      <trkpt lat="49.27864" lon="-0.21635">
        <ele>3.4</ele>
        <time>2022-05-31T17:06:54Z</time>
      </trkpt>
      <trkpt lat="49.27854" lon="-0.21627">
        <ele>3.4</ele>
        <time>2022-05-31T17:06:55Z</time>
      </trkpt>
      <trkpt lat="49.27843" lon="-0.21618">
        <ele>3.4</ele>
        <time>2022-05-31T17:06:56Z</time>
      </trkpt>
      <trkpt lat="49.27832" lon="-0.21609">
        <ele>3.4</ele>
        <time>2022-05-31T17:06:57Z</time>
      </trkpt>
      <trkpt lat="49.27822" lon="-0.21601">
        <ele>3.4</ele>
        <time>2022-05-31T17:06:58Z</time>
      </trkpt>
      <trkpt lat="49.27811" lon="-0.21592">
        <ele>3.4</ele>
        <time>2022-05-31T17:06:59Z</time>
      </trkpt>
      <trkpt lat="49.278" lon="-0.21583">
        <ele>3.3</ele>
        <time>2022-05-31T17:07:00Z</time>
      </trkpt>
      <trkpt lat="49.27788" lon="-0.21575">
        <ele>3.3</ele>
        <time>2022-05-31T17:07:01Z</time>
      </trkpt>
      <trkpt lat="49.27777" lon="-0.21566">
        <ele>3.2</ele>
        <time>2022-05-31T17:07:02Z</time>
      </trkpt>
      <trkpt lat="49.27766" lon="-0.21558">
        <ele>3.2</ele>
        <time>2022-05-31T17:07:03Z</time>
      </trkpt>
      <trkpt lat="49.27754" lon="-0.21551">
        <ele>3.2</ele>
        <time>2022-05-31T17:07:04Z</time>
      </trkpt>
      <trkpt lat="49.27743" lon="-0.21546">
        <ele>3.3</ele>
        <time>2022-05-31T17:07:05Z</time>
      </trkpt>
      <trkpt lat="49.27731" lon="-0.21541">
        <ele>3.3</ele>
        <time>2022-05-31T17:07:06Z</time>
      </trkpt>
      <trkpt lat="49.27719" lon="-0.21535">
        <ele>3.3</ele>
        <time>2022-05-31T17:07:07Z</time>
      </trkpt>
      <trkpt lat="49.27707" lon="-0.2153">
        <ele>3.3</ele>
        <time>2022-05-31T17:07:08Z</time>
      </trkpt>
      <trkpt lat="49.27694" lon="-0.21526">
        <ele>3.3</ele>
        <time>2022-05-31T17:07:09Z</time>
      </trkpt>
      <trkpt lat="49.27681" lon="-0.21523">
        <ele>3.2</ele>
        <time>2022-05-31T17:07:10Z</time>
      </trkpt>
      <trkpt lat="49.27669" lon="-0.21521">
        <ele>3.2</ele>
        <time>2022-05-31T17:07:11Z</time>
      </trkpt>
      <trkpt lat="49.27655" lon="-0.2152">
        <ele>3.1</ele>
        <time>2022-05-31T17:07:12Z</time>
      </trkpt>
      <trkpt lat="49.27642" lon="-0.2152">
        <ele>3.1</ele>
        <time>2022-05-31T17:07:13Z</time>
      </trkpt>
      <trkpt lat="49.27629" lon="-0.21522">
        <ele>3.1</ele>
        <time>2022-05-31T17:07:14Z</time>
      </trkpt>
      <trkpt lat="49.27617" lon="-0.21525">
        <ele>3.1</ele>
        <time>2022-05-31T17:07:15Z</time>
      </trkpt>
      <trkpt lat="49.27605" lon="-0.21527">
        <ele>3.2</ele>
        <time>2022-05-31T17:07:16Z</time>
      </trkpt>
      <trkpt lat="49.27594" lon="-0.2153">
        <ele>3.2</ele>
        <time>2022-05-31T17:07:17Z</time>
      </trkpt>
      <trkpt lat="49.27584" lon="-0.21531">
        <ele>3.3</ele>
        <time>2022-05-31T17:07:18Z</time>
      </trkpt>
      <trkpt lat="49.27576" lon="-0.21533">
        <ele>3.3</ele>
        <time>2022-05-31T17:07:19Z</time>
      </trkpt>
      <trkpt lat="49.2757" lon="-0.21534">
        <ele>3.3</ele>
        <time>2022-05-31T17:07:20Z</time>
      </trkpt>
      <trkpt lat="49.27566" lon="-0.21536">
        <ele>3.4</ele>
        <time>2022-05-31T17:07:21Z</time>
      </trkpt>
      <trkpt lat="49.27562" lon="-0.21538">
        <ele>3.4</ele>
        <time>2022-05-31T17:07:22Z</time>
      </trkpt>
      <trkpt lat="49.27559" lon="-0.21539">
        <ele>3.5</ele>
        <time>2022-05-31T17:07:23Z</time>
      </trkpt>
      <trkpt lat="49.27557" lon="-0.21539">
        <ele>3.5</ele>
        <time>2022-05-31T17:07:24Z</time>
      </trkpt>
      <trkpt lat="49.27554" lon="-0.2154">
        <ele>3.5</ele>
        <time>2022-05-31T17:07:25Z</time>
      </trkpt>
      <trkpt lat="49.2755" lon="-0.21542">
        <ele>3.6</ele>
        <time>2022-05-31T17:07:26Z</time>
      </trkpt>
      <trkpt lat="49.27546" lon="-0.21544">
        <ele>3.6</ele>
        <time>2022-05-31T17:07:27Z</time>
      </trkpt>
      <trkpt lat="49.2754" lon="-0.21545">
        <ele>3.7</ele>
        <time>2022-05-31T17:07:28Z</time>
      </trkpt>
      <trkpt lat="49.27534" lon="-0.21544">
        <ele>3.8</ele>
        <time>2022-05-31T17:07:29Z</time>
      </trkpt>
      <trkpt lat="49.27528" lon="-0.2154">
        <ele>3.9</ele>
        <time>2022-05-31T17:07:30Z</time>
      </trkpt>
      <trkpt lat="49.27523" lon="-0.21534">
        <ele>4.1</ele>
        <time>2022-05-31T17:07:31Z</time>
      </trkpt>
      <trkpt lat="49.27517" lon="-0.21526">
        <ele>4.3</ele>
        <time>2022-05-31T17:07:32Z</time>
      </trkpt>
      <trkpt lat="49.27512" lon="-0.21517">
        <ele>4.5</ele>
        <time>2022-05-31T17:07:33Z</time>
      </trkpt>
      <trkpt lat="49.27506" lon="-0.21508">
        <ele>4.7</ele>
        <time>2022-05-31T17:07:34Z</time>
      </trkpt>
      <trkpt lat="49.27501" lon="-0.215">
        <ele>4.9</ele>
        <time>2022-05-31T17:07:35Z</time>
      </trkpt>
      <trkpt lat="49.27496" lon="-0.21491">
        <ele>5.1</ele>
        <time>2022-05-31T17:07:36Z</time>
      </trkpt>
      <trkpt lat="49.2749" lon="-0.21484">
        <ele>5.2</ele>
        <time>2022-05-31T17:07:37Z</time>
      </trkpt>
      <trkpt lat="49.27484" lon="-0.21476">
        <ele>5.2</ele>
        <time>2022-05-31T17:07:38Z</time>
      </trkpt>
      <trkpt lat="49.27478" lon="-0.21468">
        <ele>5.3</ele>
        <time>2022-05-31T17:07:39Z</time>
      </trkpt>
      <trkpt lat="49.27473" lon="-0.2146">
        <ele>5.3</ele>
        <time>2022-05-31T17:07:40Z</time>
      </trkpt>
      <trkpt lat="49.27467" lon="-0.21453">
        <ele>5.3</ele>
        <time>2022-05-31T17:07:41Z</time>
      </trkpt>
      <trkpt lat="49.27462" lon="-0.21446">
        <ele>5.2</ele>
        <time>2022-05-31T17:07:42Z</time>
      </trkpt>
      <trkpt lat="49.27457" lon="-0.21439">
        <ele>5.1</ele>
        <time>2022-05-31T17:07:43Z</time>
      </trkpt>
      <trkpt lat="49.27452" lon="-0.21432">
        <ele>4.9</ele>
        <time>2022-05-31T17:07:44Z</time>
      </trkpt>
      <trkpt lat="49.27448" lon="-0.21426">
        <ele>4.8</ele>
        <time>2022-05-31T17:07:45Z</time>
      </trkpt>
      <trkpt lat="49.27443" lon="-0.2142">
        <ele>4.6</ele>
        <time>2022-05-31T17:07:46Z</time>
      </trkpt>
      <trkpt lat="49.27439" lon="-0.21413">
        <ele>4.5</ele>
        <time>2022-05-31T17:07:47Z</time>
      </trkpt>
      <trkpt lat="49.27434" lon="-0.21406">
        <ele>4.4</ele>
        <time>2022-05-31T17:07:48Z</time>
      </trkpt>
      <trkpt lat="49.27431" lon="-0.214">
        <ele>4.4</ele>
        <time>2022-05-31T17:07:49Z</time>
      </trkpt>
      <trkpt lat="49.27427" lon="-0.21395">
        <ele>4.5</ele>
        <time>2022-05-31T17:07:50Z</time>
      </trkpt>
      <trkpt lat="49.27425" lon="-0.21391">
        <ele>4.5</ele>
        <time>2022-05-31T17:07:51Z</time>
      </trkpt>
      <trkpt lat="49.27423" lon="-0.21388">
        <ele>4.5</ele>
        <time>2022-05-31T17:07:52Z</time>
      </trkpt>
      <trkpt lat="49.27423" lon="-0.21387">
        <ele>4.5</ele>
        <time>2022-05-31T17:07:53Z</time>
      </trkpt>
      <trkpt lat="49.27423" lon="-0.21386">
        <ele>4.6</ele>
        <time>2022-05-31T17:07:54Z</time>
      </trkpt>
      <trkpt lat="49.27423" lon="-0.21385">
        <ele>4.6</ele>
        <time>2022-05-31T17:07:55Z</time>
      </trkpt>
      <trkpt lat="49.27422" lon="-0.21384">
        <ele>4.6</ele>
        <time>2022-05-31T17:07:56Z</time>
      </trkpt>
      <trkpt lat="49.27422" lon="-0.21384">
        <ele>4.6</ele>
        <time>2022-05-31T17:07:57Z</time>
      </trkpt>
      <trkpt lat="49.27422" lon="-0.21383">
        <ele>4.6</ele>
        <time>2022-05-31T17:07:58Z</time>
      </trkpt>
      <trkpt lat="49.27422" lon="-0.21382">
        <ele>4.6</ele>
        <time>2022-05-31T17:07:59Z</time>
      </trkpt>
      <trkpt lat="49.27421" lon="-0.21381">
        <ele>4.6</ele>
        <time>2022-05-31T17:08:00Z</time>
      </trkpt>
      <trkpt lat="49.27421" lon="-0.2138">
        <ele>4.6</ele>
        <time>2022-05-31T17:08:01Z</time>
      </trkpt>
      <trkpt lat="49.27421" lon="-0.21374">
        <ele>4.6</ele>
        <time>2022-05-31T17:08:02Z</time>
      </trkpt>
      <trkpt lat="49.27423" lon="-0.21367">
        <ele>4.6</ele>
        <time>2022-05-31T17:08:03Z</time>
      </trkpt>
      <trkpt lat="49.27426" lon="-0.21359">
        <ele>4.6</ele>
        <time>2022-05-31T17:08:04Z</time>
      </trkpt>
      <trkpt lat="49.2743" lon="-0.2135">
        <ele>4.6</ele>
        <time>2022-05-31T17:08:05Z</time>
      </trkpt>
      <trkpt lat="49.27434" lon="-0.2134">
        <ele>4.6</ele>
        <time>2022-05-31T17:08:06Z</time>
      </trkpt>
      <trkpt lat="49.27437" lon="-0.2133">
        <ele>4.6</ele>
        <time>2022-05-31T17:08:07Z</time>
      </trkpt>
      <trkpt lat="49.27441" lon="-0.21317">
        <ele>4.6</ele>
        <time>2022-05-31T17:08:08Z</time>
      </trkpt>
      <trkpt lat="49.27445" lon="-0.21305">
        <ele>4.6</ele>
        <time>2022-05-31T17:08:09Z</time>
      </trkpt>
      <trkpt lat="49.27449" lon="-0.21292">
        <ele>4.7</ele>
        <time>2022-05-31T17:08:10Z</time>
      </trkpt>
      <trkpt lat="49.27453" lon="-0.21278">
        <ele>4.7</ele>
        <time>2022-05-31T17:08:11Z</time>
      </trkpt>
      <trkpt lat="49.27457" lon="-0.21265">
        <ele>4.6</ele>
        <time>2022-05-31T17:08:12Z</time>
      </trkpt>
      <trkpt lat="49.27462" lon="-0.21251">
        <ele>4.6</ele>
        <time>2022-05-31T17:08:13Z</time>
      </trkpt>
      <trkpt lat="49.27466" lon="-0.21237">
        <ele>4.6</ele>
        <time>2022-05-31T17:08:14Z</time>
      </trkpt>
      <trkpt lat="49.2747" lon="-0.21223">
        <ele>4.6</ele>
        <time>2022-05-31T17:08:15Z</time>
      </trkpt>
      <trkpt lat="49.27474" lon="-0.21209">
        <ele>4.6</ele>
        <time>2022-05-31T17:08:16Z</time>
      </trkpt>
      <trkpt lat="49.27478" lon="-0.21194">
        <ele>4.6</ele>
        <time>2022-05-31T17:08:17Z</time>
      </trkpt>
      <trkpt lat="49.27482" lon="-0.2118">
        <ele>4.6</ele>
        <time>2022-05-31T17:08:18Z</time>
      </trkpt>
      <trkpt lat="49.27486" lon="-0.21166">
        <ele>4.6</ele>
        <time>2022-05-31T17:08:19Z</time>
      </trkpt>
      <trkpt lat="49.2749" lon="-0.21152">
        <ele>4.5</ele>
        <time>2022-05-31T17:08:20Z</time>
      </trkpt>
      <trkpt lat="49.27495" lon="-0.21138">
        <ele>4.5</ele>
        <time>2022-05-31T17:08:21Z</time>
      </trkpt>
      <trkpt lat="49.27499" lon="-0.21124">
        <ele>4.6</ele>
        <time>2022-05-31T17:08:22Z</time>
      </trkpt>
      <trkpt lat="49.27504" lon="-0.21109">
        <ele>4.6</ele>
        <time>2022-05-31T17:08:23Z</time>
      </trkpt>
      <trkpt lat="49.27508" lon="-0.21095">
        <ele>4.6</ele>
        <time>2022-05-31T17:08:24Z</time>
      </trkpt>
      <trkpt lat="49.27513" lon="-0.2108">
        <ele>4.6</ele>
        <time>2022-05-31T17:08:25Z</time>
      </trkpt>
      <trkpt lat="49.27517" lon="-0.21066">
        <ele>4.6</ele>
        <time>2022-05-31T17:08:26Z</time>
      </trkpt>
      <trkpt lat="49.27521" lon="-0.21051">
        <ele>4.6</ele>
        <time>2022-05-31T17:08:27Z</time>
      </trkpt>
      <trkpt lat="49.27526" lon="-0.21037">
        <ele>4.6</ele>
        <time>2022-05-31T17:08:28Z</time>
      </trkpt>
      <trkpt lat="49.2753" lon="-0.21023">
        <ele>4.6</ele>
        <time>2022-05-31T17:08:29Z</time>
      </trkpt>
      <trkpt lat="49.27535" lon="-0.21009">
        <ele>4.6</ele>
        <time>2022-05-31T17:08:30Z</time>
      </trkpt>
      <trkpt lat="49.2754" lon="-0.20996">
        <ele>4.6</ele>
        <time>2022-05-31T17:08:31Z</time>
      </trkpt>
      <trkpt lat="49.27545" lon="-0.20982">
        <ele>4.6</ele>
        <time>2022-05-31T17:08:32Z</time>
      </trkpt>
      <trkpt lat="49.27549" lon="-0.20968">
        <ele>4.6</ele>
        <time>2022-05-31T17:08:33Z</time>
      </trkpt>
      <trkpt lat="49.27554" lon="-0.20954">
        <ele>4.6</ele>
        <time>2022-05-31T17:08:34Z</time>
      </trkpt>
      <trkpt lat="49.27558" lon="-0.2094">
        <ele>4.6</ele>
        <time>2022-05-31T17:08:35Z</time>
      </trkpt>
      <trkpt lat="49.27563" lon="-0.20927">
        <ele>4.6</ele>
        <time>2022-05-31T17:08:36Z</time>
      </trkpt>
      <trkpt lat="49.27567" lon="-0.20914">
        <ele>4.7</ele>
        <time>2022-05-31T17:08:37Z</time>
      </trkpt>
      <trkpt lat="49.27572" lon="-0.20902">
        <ele>4.7</ele>
        <time>2022-05-31T17:08:38Z</time>
      </trkpt>
      <trkpt lat="49.27576" lon="-0.2089">
        <ele>4.7</ele>
        <time>2022-05-31T17:08:39Z</time>
      </trkpt>
      <trkpt lat="49.27581" lon="-0.20878">
        <ele>4.7</ele>
        <time>2022-05-31T17:08:40Z</time>
      </trkpt>
      <trkpt lat="49.27587" lon="-0.20866">
        <ele>4.8</ele>
        <time>2022-05-31T17:08:41Z</time>
      </trkpt>
      <trkpt lat="49.27592" lon="-0.20854">
        <ele>4.8</ele>
        <time>2022-05-31T17:08:42Z</time>
      </trkpt>
      <trkpt lat="49.27597" lon="-0.20842">
        <ele>4.8</ele>
        <time>2022-05-31T17:08:43Z</time>
      </trkpt>
      <trkpt lat="49.27603" lon="-0.20829">
        <ele>4.8</ele>
        <time>2022-05-31T17:08:44Z</time>
      </trkpt>
      <trkpt lat="49.27609" lon="-0.20816">
        <ele>4.9</ele>
        <time>2022-05-31T17:08:45Z</time>
      </trkpt>
      <trkpt lat="49.27615" lon="-0.20803">
        <ele>4.9</ele>
        <time>2022-05-31T17:08:46Z</time>
      </trkpt>
      <trkpt lat="49.27621" lon="-0.20792">
        <ele>4.9</ele>
        <time>2022-05-31T17:08:47Z</time>
      </trkpt>
      <trkpt lat="49.27627" lon="-0.2078">
        <ele>5</ele>
        <time>2022-05-31T17:08:48Z</time>
      </trkpt>
      <trkpt lat="49.27633" lon="-0.20769">
        <ele>5</ele>
        <time>2022-05-31T17:08:49Z</time>
      </trkpt>
      <trkpt lat="49.27639" lon="-0.20758">
        <ele>5.1</ele>
        <time>2022-05-31T17:08:50Z</time>
      </trkpt>
      <trkpt lat="49.27645" lon="-0.20747">
        <ele>5.1</ele>
        <time>2022-05-31T17:08:51Z</time>
      </trkpt>
      <trkpt lat="49.27652" lon="-0.20735">
        <ele>5.1</ele>
        <time>2022-05-31T17:08:52Z</time>
      </trkpt>
      <trkpt lat="49.27659" lon="-0.20724">
        <ele>5.2</ele>
        <time>2022-05-31T17:08:53Z</time>
      </trkpt>
      <trkpt lat="49.27666" lon="-0.20712">
        <ele>5.2</ele>
        <time>2022-05-31T17:08:54Z</time>
      </trkpt>
      <trkpt lat="49.27672" lon="-0.207">
        <ele>5.2</ele>
        <time>2022-05-31T17:08:55Z</time>
      </trkpt>
      <trkpt lat="49.27679" lon="-0.20688">
        <ele>5.1</ele>
        <time>2022-05-31T17:08:56Z</time>
      </trkpt>
      <trkpt lat="49.27687" lon="-0.20676">
        <ele>5.1</ele>
        <time>2022-05-31T17:08:57Z</time>
      </trkpt>
      <trkpt lat="49.27694" lon="-0.20665">
        <ele>5.1</ele>
        <time>2022-05-31T17:08:58Z</time>
      </trkpt>
      <trkpt lat="49.27702" lon="-0.20653">
        <ele>5.1</ele>
        <time>2022-05-31T17:08:59Z</time>
      </trkpt>
      <trkpt lat="49.2771" lon="-0.20641">
        <ele>5.1</ele>
        <time>2022-05-31T17:09:00Z</time>
      </trkpt>
      <trkpt lat="49.27718" lon="-0.2063">
        <ele>5.1</ele>
        <time>2022-05-31T17:09:01Z</time>
      </trkpt>
      <trkpt lat="49.27726" lon="-0.20618">
        <ele>5.1</ele>
        <time>2022-05-31T17:09:02Z</time>
      </trkpt>
      <trkpt lat="49.27734" lon="-0.20607">
        <ele>5.1</ele>
        <time>2022-05-31T17:09:03Z</time>
      </trkpt>
      <trkpt lat="49.27743" lon="-0.20597">
        <ele>5.1</ele>
        <time>2022-05-31T17:09:04Z</time>
      </trkpt>
      <trkpt lat="49.27751" lon="-0.20586">
        <ele>5.1</ele>
        <time>2022-05-31T17:09:05Z</time>
      </trkpt>
      <trkpt lat="49.2776" lon="-0.20576">
        <ele>5.1</ele>
        <time>2022-05-31T17:09:06Z</time>
      </trkpt>
      <trkpt lat="49.27768" lon="-0.20565">
        <ele>5.1</ele>
        <time>2022-05-31T17:09:07Z</time>
      </trkpt>
      <trkpt lat="49.27776" lon="-0.20554">
        <ele>5.1</ele>
        <time>2022-05-31T17:09:08Z</time>
      </trkpt>
      <trkpt lat="49.27784" lon="-0.20543">
        <ele>5.1</ele>
        <time>2022-05-31T17:09:09Z</time>
      </trkpt>
      <trkpt lat="49.27792" lon="-0.20533">
        <ele>5.1</ele>
        <time>2022-05-31T17:09:10Z</time>
      </trkpt>
      <trkpt lat="49.278" lon="-0.20522">
        <ele>5.1</ele>
        <time>2022-05-31T17:09:11Z</time>
      </trkpt>
      <trkpt lat="49.27807" lon="-0.20511">
        <ele>5</ele>
        <time>2022-05-31T17:09:12Z</time>
      </trkpt>
      <trkpt lat="49.27814" lon="-0.205">
        <ele>5</ele>
        <time>2022-05-31T17:09:13Z</time>
      </trkpt>
      <trkpt lat="49.27821" lon="-0.20488">
        <ele>4.9</ele>
        <time>2022-05-31T17:09:14Z</time>
      </trkpt>
      <trkpt lat="49.27827" lon="-0.20477">
        <ele>4.9</ele>
        <time>2022-05-31T17:09:15Z</time>
      </trkpt>
      <trkpt lat="49.27833" lon="-0.20466">
        <ele>4.9</ele>
        <time>2022-05-31T17:09:16Z</time>
      </trkpt>
      <trkpt lat="49.27839" lon="-0.20455">
        <ele>4.9</ele>
        <time>2022-05-31T17:09:17Z</time>
      </trkpt>
      <trkpt lat="49.27844" lon="-0.20445">
        <ele>4.9</ele>
        <time>2022-05-31T17:09:18Z</time>
      </trkpt>
      <trkpt lat="49.27848" lon="-0.20435">
        <ele>4.9</ele>
        <time>2022-05-31T17:09:19Z</time>
      </trkpt>
      <trkpt lat="49.27853" lon="-0.20425">
        <ele>5</ele>
        <time>2022-05-31T17:09:20Z</time>
      </trkpt>
      <trkpt lat="49.27857" lon="-0.20417">
        <ele>5</ele>
        <time>2022-05-31T17:09:21Z</time>
      </trkpt>
      <trkpt lat="49.2786" lon="-0.20409">
        <ele>5.1</ele>
        <time>2022-05-31T17:09:22Z</time>
      </trkpt>
      <trkpt lat="49.27863" lon="-0.20403">
        <ele>5.1</ele>
        <time>2022-05-31T17:09:23Z</time>
      </trkpt>
      <trkpt lat="49.27865" lon="-0.20397">
        <ele>5.2</ele>
        <time>2022-05-31T17:09:24Z</time>
      </trkpt>
      <trkpt lat="49.27866" lon="-0.20393">
        <ele>5.2</ele>
        <time>2022-05-31T17:09:25Z</time>
      </trkpt>
      <trkpt lat="49.27868" lon="-0.20389">
        <ele>5.3</ele>
        <time>2022-05-31T17:09:26Z</time>
      </trkpt>
      <trkpt lat="49.2787" lon="-0.20383">
        <ele>5.3</ele>
        <time>2022-05-31T17:09:27Z</time>
      </trkpt>
      <trkpt lat="49.27871" lon="-0.2038">
        <ele>5.3</ele>
        <time>2022-05-31T17:09:28Z</time>
      </trkpt>
      <trkpt lat="49.27872" lon="-0.20376">
        <ele>5.3</ele>
        <time>2022-05-31T17:09:29Z</time>
      </trkpt>
      <trkpt lat="49.27872" lon="-0.20371">
        <ele>5.2</ele>
        <time>2022-05-31T17:09:30Z</time>
      </trkpt>
      <trkpt lat="49.27872" lon="-0.20365">
        <ele>5.2</ele>
        <time>2022-05-31T17:09:31Z</time>
      </trkpt>
      <trkpt lat="49.27872" lon="-0.20359">
        <ele>5.2</ele>
        <time>2022-05-31T17:09:32Z</time>
      </trkpt>
      <trkpt lat="49.27875" lon="-0.20353">
        <ele>5.3</ele>
        <time>2022-05-31T17:09:33Z</time>
      </trkpt>
      <trkpt lat="49.2788" lon="-0.20351">
        <ele>5.3</ele>
        <time>2022-05-31T17:09:34Z</time>
      </trkpt>
      <trkpt lat="49.27885" lon="-0.20352">
        <ele>5.3</ele>
        <time>2022-05-31T17:09:35Z</time>
      </trkpt>
      <trkpt lat="49.27889" lon="-0.20356">
        <ele>5.3</ele>
        <time>2022-05-31T17:09:36Z</time>
      </trkpt>
      <trkpt lat="49.27894" lon="-0.2036">
        <ele>5.4</ele>
        <time>2022-05-31T17:09:37Z</time>
      </trkpt>
      <trkpt lat="49.27899" lon="-0.20362">
        <ele>5.6</ele>
        <time>2022-05-31T17:09:38Z</time>
      </trkpt>
      <trkpt lat="49.27904" lon="-0.20364">
        <ele>5.7</ele>
        <time>2022-05-31T17:09:39Z</time>
      </trkpt>
      <trkpt lat="49.27909" lon="-0.20364">
        <ele>5.8</ele>
        <time>2022-05-31T17:09:40Z</time>
      </trkpt>
      <trkpt lat="49.27915" lon="-0.20364">
        <ele>6</ele>
        <time>2022-05-31T17:09:41Z</time>
      </trkpt>
      <trkpt lat="49.2792" lon="-0.20363">
        <ele>6.1</ele>
        <time>2022-05-31T17:09:42Z</time>
      </trkpt>
      <trkpt lat="49.27926" lon="-0.20363">
        <ele>6.3</ele>
        <time>2022-05-31T17:09:43Z</time>
      </trkpt>
      <trkpt lat="49.27932" lon="-0.20363">
        <ele>6.5</ele>
        <time>2022-05-31T17:09:44Z</time>
      </trkpt>
      <trkpt lat="49.27938" lon="-0.20362">
        <ele>6.6</ele>
        <time>2022-05-31T17:09:45Z</time>
      </trkpt>
      <trkpt lat="49.27944" lon="-0.20362">
        <ele>6.7</ele>
        <time>2022-05-31T17:09:46Z</time>
      </trkpt>
      <trkpt lat="49.2795" lon="-0.20362">
        <ele>6.9</ele>
        <time>2022-05-31T17:09:47Z</time>
      </trkpt>
      <trkpt lat="49.27956" lon="-0.20361">
        <ele>6.9</ele>
        <time>2022-05-31T17:09:48Z</time>
      </trkpt>
      <trkpt lat="49.27963" lon="-0.20361">
        <ele>7</ele>
        <time>2022-05-31T17:09:49Z</time>
      </trkpt>
      <trkpt lat="49.27969" lon="-0.2036">
        <ele>7</ele>
        <time>2022-05-31T17:09:50Z</time>
      </trkpt>
      <trkpt lat="49.27976" lon="-0.2036">
        <ele>7.1</ele>
        <time>2022-05-31T17:09:51Z</time>
      </trkpt>
      <trkpt lat="49.27984" lon="-0.2036">
        <ele>7.1</ele>
        <time>2022-05-31T17:09:52Z</time>
      </trkpt>
      <trkpt lat="49.27991" lon="-0.2036">
        <ele>7.1</ele>
        <time>2022-05-31T17:09:53Z</time>
      </trkpt>
      <trkpt lat="49.27998" lon="-0.2036">
        <ele>7</ele>
        <time>2022-05-31T17:09:54Z</time>
      </trkpt>
      <trkpt lat="49.28005" lon="-0.20359">
        <ele>7</ele>
        <time>2022-05-31T17:09:55Z</time>
      </trkpt>
      <trkpt lat="49.28013" lon="-0.20359">
        <ele>7</ele>
        <time>2022-05-31T17:09:56Z</time>
      </trkpt>
      <trkpt lat="49.2802" lon="-0.20358">
        <ele>7</ele>
        <time>2022-05-31T17:09:57Z</time>
      </trkpt>
      <trkpt lat="49.28026" lon="-0.20357">
        <ele>7</ele>
        <time>2022-05-31T17:09:58Z</time>
      </trkpt>
      <trkpt lat="49.28033" lon="-0.20356">
        <ele>7</ele>
        <time>2022-05-31T17:09:59Z</time>
      </trkpt>
      <trkpt lat="49.28039" lon="-0.20355">
        <ele>7</ele>
        <time>2022-05-31T17:10:00Z</time>
      </trkpt>
      <trkpt lat="49.28045" lon="-0.20354">
        <ele>7</ele>
        <time>2022-05-31T17:10:01Z</time>
      </trkpt>
      <trkpt lat="49.2805" lon="-0.20353">
        <ele>6.9</ele>
        <time>2022-05-31T17:10:02Z</time>
      </trkpt>
      <trkpt lat="49.28056" lon="-0.20352">
        <ele>6.9</ele>
        <time>2022-05-31T17:10:03Z</time>
      </trkpt>
      <trkpt lat="49.28062" lon="-0.2035">
        <ele>6.9</ele>
        <time>2022-05-31T17:10:04Z</time>
      </trkpt>
      <trkpt lat="49.28068" lon="-0.20348">
        <ele>7</ele>
        <time>2022-05-31T17:10:05Z</time>
      </trkpt>
      <trkpt lat="49.28075" lon="-0.20346">
        <ele>7</ele>
        <time>2022-05-31T17:10:06Z</time>
      </trkpt>
      <trkpt lat="49.28082" lon="-0.20343">
        <ele>7</ele>
        <time>2022-05-31T17:10:07Z</time>
      </trkpt>
      <trkpt lat="49.2809" lon="-0.20341">
        <ele>6.9</ele>
        <time>2022-05-31T17:10:08Z</time>
      </trkpt>
      <trkpt lat="49.28097" lon="-0.20338">
        <ele>6.9</ele>
        <time>2022-05-31T17:10:09Z</time>
      </trkpt>
      <trkpt lat="49.28104" lon="-0.20336">
        <ele>6.9</ele>
        <time>2022-05-31T17:10:10Z</time>
      </trkpt>
      <trkpt lat="49.28111" lon="-0.20334">
        <ele>6.8</ele>
        <time>2022-05-31T17:10:11Z</time>
      </trkpt>
      <trkpt lat="49.28117" lon="-0.20331">
        <ele>6.7</ele>
        <time>2022-05-31T17:10:12Z</time>
      </trkpt>
      <trkpt lat="49.28123" lon="-0.20329">
        <ele>6.7</ele>
        <time>2022-05-31T17:10:13Z</time>
      </trkpt>
      <trkpt lat="49.28127" lon="-0.20327">
        <ele>6.6</ele>
        <time>2022-05-31T17:10:14Z</time>
      </trkpt>
      <trkpt lat="49.28131" lon="-0.20326">
        <ele>6.6</ele>
        <time>2022-05-31T17:10:15Z</time>
      </trkpt>
      <trkpt lat="49.28134" lon="-0.20326">
        <ele>6.6</ele>
        <time>2022-05-31T17:10:16Z</time>
      </trkpt>
      <trkpt lat="49.28136" lon="-0.20326">
        <ele>6.6</ele>
        <time>2022-05-31T17:10:17Z</time>
      </trkpt>
      <trkpt lat="49.28139" lon="-0.20325">
        <ele>6.6</ele>
        <time>2022-05-31T17:10:18Z</time>
      </trkpt>
      <trkpt lat="49.28142" lon="-0.20325">
        <ele>6.5</ele>
        <time>2022-05-31T17:10:19Z</time>
      </trkpt>
      <trkpt lat="49.28146" lon="-0.20324">
        <ele>6.5</ele>
        <time>2022-05-31T17:10:20Z</time>
      </trkpt>
      <trkpt lat="49.28151" lon="-0.20322">
        <ele>6.5</ele>
        <time>2022-05-31T17:10:21Z</time>
      </trkpt>
      <trkpt lat="49.28155" lon="-0.2032">
        <ele>6.4</ele>
        <time>2022-05-31T17:10:22Z</time>
      </trkpt>
      <trkpt lat="49.2816" lon="-0.20318">
        <ele>6.4</ele>
        <time>2022-05-31T17:10:23Z</time>
      </trkpt>
      <trkpt lat="49.28166" lon="-0.20316">
        <ele>6.3</ele>
        <time>2022-05-31T17:10:24Z</time>
      </trkpt>
      <trkpt lat="49.28172" lon="-0.20313">
        <ele>6.3</ele>
        <time>2022-05-31T17:10:25Z</time>
      </trkpt>
      <trkpt lat="49.28178" lon="-0.20311">
        <ele>6.2</ele>
        <time>2022-05-31T17:10:26Z</time>
      </trkpt>
      <trkpt lat="49.28184" lon="-0.20308">
        <ele>6.2</ele>
        <time>2022-05-31T17:10:27Z</time>
      </trkpt>
      <trkpt lat="49.2819" lon="-0.20307">
        <ele>6.2</ele>
        <time>2022-05-31T17:10:28Z</time>
      </trkpt>
      <trkpt lat="49.28196" lon="-0.20306">
        <ele>6.1</ele>
        <time>2022-05-31T17:10:29Z</time>
      </trkpt>
      <trkpt lat="49.28203" lon="-0.20304">
        <ele>6.1</ele>
        <time>2022-05-31T17:10:30Z</time>
      </trkpt>
      <trkpt lat="49.2821" lon="-0.20303">
        <ele>6.1</ele>
        <time>2022-05-31T17:10:31Z</time>
      </trkpt>
      <trkpt lat="49.28216" lon="-0.20302">
        <ele>6.1</ele>
        <time>2022-05-31T17:10:32Z</time>
      </trkpt>
      <trkpt lat="49.28223" lon="-0.203">
        <ele>6.1</ele>
        <time>2022-05-31T17:10:33Z</time>
      </trkpt>
      <trkpt lat="49.28229" lon="-0.20298">
        <ele>6.2</ele>
        <time>2022-05-31T17:10:34Z</time>
      </trkpt>
      <trkpt lat="49.28235" lon="-0.20296">
        <ele>6.2</ele>
        <time>2022-05-31T17:10:35Z</time>
      </trkpt>
      <trkpt lat="49.28241" lon="-0.20293">
        <ele>6.2</ele>
        <time>2022-05-31T17:10:36Z</time>
      </trkpt>
      <trkpt lat="49.28247" lon="-0.20292">
        <ele>6.2</ele>
        <time>2022-05-31T17:10:37Z</time>
      </trkpt>
      <trkpt lat="49.28253" lon="-0.2029">
        <ele>6.2</ele>
        <time>2022-05-31T17:10:38Z</time>
      </trkpt>
      <trkpt lat="49.28258" lon="-0.20288">
        <ele>6.2</ele>
        <time>2022-05-31T17:10:39Z</time>
      </trkpt>
      <trkpt lat="49.28264" lon="-0.20286">
        <ele>6.2</ele>
        <time>2022-05-31T17:10:40Z</time>
      </trkpt>
      <trkpt lat="49.2827" lon="-0.20286">
        <ele>6.2</ele>
        <time>2022-05-31T17:10:41Z</time>
      </trkpt>
      <trkpt lat="49.28275" lon="-0.20284">
        <ele>6.1</ele>
        <time>2022-05-31T17:10:42Z</time>
      </trkpt>
      <trkpt lat="49.28281" lon="-0.20282">
        <ele>6.1</ele>
        <time>2022-05-31T17:10:43Z</time>
      </trkpt>
      <trkpt lat="49.28287" lon="-0.2028">
        <ele>6.1</ele>
        <time>2022-05-31T17:10:44Z</time>
      </trkpt>
      <trkpt lat="49.28293" lon="-0.20278">
        <ele>6.1</ele>
        <time>2022-05-31T17:10:45Z</time>
      </trkpt>
      <trkpt lat="49.28298" lon="-0.20276">
        <ele>6.1</ele>
        <time>2022-05-31T17:10:46Z</time>
      </trkpt>
      <trkpt lat="49.28303" lon="-0.20274">
        <ele>6</ele>
        <time>2022-05-31T17:10:47Z</time>
      </trkpt>
      <trkpt lat="49.28307" lon="-0.20272">
        <ele>6</ele>
        <time>2022-05-31T17:10:48Z</time>
      </trkpt>
      <trkpt lat="49.28312" lon="-0.20271">
        <ele>6</ele>
        <time>2022-05-31T17:10:49Z</time>
      </trkpt>
      <trkpt lat="49.28316" lon="-0.20269">
        <ele>5.9</ele>
        <time>2022-05-31T17:10:50Z</time>
      </trkpt>
      <trkpt lat="49.2832" lon="-0.20268">
        <ele>5.9</ele>
        <time>2022-05-31T17:10:51Z</time>
      </trkpt>
      <trkpt lat="49.28324" lon="-0.20266">
        <ele>5.9</ele>
        <time>2022-05-31T17:10:52Z</time>
      </trkpt>
      <trkpt lat="49.28327" lon="-0.20265">
        <ele>5.9</ele>
        <time>2022-05-31T17:10:53Z</time>
      </trkpt>
      <trkpt lat="49.2833" lon="-0.20263">
        <ele>5.9</ele>
        <time>2022-05-31T17:10:54Z</time>
      </trkpt>
      <trkpt lat="49.28334" lon="-0.20262">
        <ele>5.9</ele>
        <time>2022-05-31T17:10:55Z</time>
      </trkpt>
      <trkpt lat="49.28338" lon="-0.2026">
        <ele>5.9</ele>
        <time>2022-05-31T17:10:56Z</time>
      </trkpt>
      <trkpt lat="49.28343" lon="-0.20258">
        <ele>5.9</ele>
        <time>2022-05-31T17:10:57Z</time>
      </trkpt>
      <trkpt lat="49.28349" lon="-0.20257">
        <ele>5.9</ele>
        <time>2022-05-31T17:10:58Z</time>
      </trkpt>
      <trkpt lat="49.28355" lon="-0.20255">
        <ele>5.9</ele>
        <time>2022-05-31T17:10:59Z</time>
      </trkpt>
      <trkpt lat="49.28361" lon="-0.20254">
        <ele>5.9</ele>
        <time>2022-05-31T17:11:00Z</time>
      </trkpt>
      <trkpt lat="49.28367" lon="-0.20253">
        <ele>5.9</ele>
        <time>2022-05-31T17:11:01Z</time>
      </trkpt>
      <trkpt lat="49.28372" lon="-0.20252">
        <ele>5.9</ele>
        <time>2022-05-31T17:11:02Z</time>
      </trkpt>
      <trkpt lat="49.28377" lon="-0.20251">
        <ele>5.9</ele>
        <time>2022-05-31T17:11:03Z</time>
      </trkpt>
      <trkpt lat="49.28381" lon="-0.2025">
        <ele>6</ele>
        <time>2022-05-31T17:11:04Z</time>
      </trkpt>
      <trkpt lat="49.28385" lon="-0.2025">
        <ele>6</ele>
        <time>2022-05-31T17:11:05Z</time>
      </trkpt>
      <trkpt lat="49.28389" lon="-0.20248">
        <ele>6</ele>
        <time>2022-05-31T17:11:06Z</time>
      </trkpt>
      <trkpt lat="49.28393" lon="-0.20247">
        <ele>6</ele>
        <time>2022-05-31T17:11:07Z</time>
      </trkpt>
      <trkpt lat="49.28396" lon="-0.20246">
        <ele>6</ele>
        <time>2022-05-31T17:11:08Z</time>
      </trkpt>
      <trkpt lat="49.284" lon="-0.20245">
        <ele>6</ele>
        <time>2022-05-31T17:11:09Z</time>
      </trkpt>
      <trkpt lat="49.28404" lon="-0.20245">
        <ele>6</ele>
        <time>2022-05-31T17:11:10Z</time>
      </trkpt>
      <trkpt lat="49.28409" lon="-0.20244">
        <ele>6.1</ele>
        <time>2022-05-31T17:11:11Z</time>
      </trkpt>
      <trkpt lat="49.28414" lon="-0.20243">
        <ele>6.1</ele>
        <time>2022-05-31T17:11:12Z</time>
      </trkpt>
      <trkpt lat="49.28419" lon="-0.20242">
        <ele>6.1</ele>
        <time>2022-05-31T17:11:13Z</time>
      </trkpt>
      <trkpt lat="49.28424" lon="-0.20241">
        <ele>6.1</ele>
        <time>2022-05-31T17:11:14Z</time>
      </trkpt>
      <trkpt lat="49.28427" lon="-0.2024">
        <ele>6.2</ele>
        <time>2022-05-31T17:11:15Z</time>
      </trkpt>
      <trkpt lat="49.28431" lon="-0.20239">
        <ele>6.2</ele>
        <time>2022-05-31T17:11:16Z</time>
      </trkpt>
      <trkpt lat="49.28433" lon="-0.20238">
        <ele>6.2</ele>
        <time>2022-05-31T17:11:17Z</time>
      </trkpt>
      <trkpt lat="49.28435" lon="-0.20237">
        <ele>6.2</ele>
        <time>2022-05-31T17:11:18Z</time>
      </trkpt>
      <trkpt lat="49.28436" lon="-0.20237">
        <ele>6.2</ele>
        <time>2022-05-31T17:11:19Z</time>
      </trkpt>
      <trkpt lat="49.28436" lon="-0.20237">
        <ele>6.2</ele>
        <time>2022-05-31T17:11:20Z</time>
      </trkpt>
      <trkpt lat="49.28436" lon="-0.20237">
        <ele>6.2</ele>
        <time>2022-05-31T17:11:21Z</time>
      </trkpt>
      <trkpt lat="49.28435" lon="-0.20237">
        <ele>6.2</ele>
        <time>2022-05-31T17:11:22Z</time>
      </trkpt>
      <trkpt lat="49.28435" lon="-0.20237">
        <ele>6.2</ele>
        <time>2022-05-31T17:11:23Z</time>
      </trkpt>
      <trkpt lat="49.28435" lon="-0.20237">
        <ele>6.2</ele>
        <time>2022-05-31T17:11:24Z</time>
      </trkpt>
      <trkpt lat="49.28435" lon="-0.20237">
        <ele>6.2</ele>
        <time>2022-05-31T17:11:25Z</time>
      </trkpt>
      <trkpt lat="49.28435" lon="-0.20237">
        <ele>6.2</ele>
        <time>2022-05-31T17:11:26Z</time>
      </trkpt>
      <trkpt lat="49.28435" lon="-0.20237">
        <ele>6.2</ele>
        <time>2022-05-31T17:11:27Z</time>
      </trkpt>
      <trkpt lat="49.28435" lon="-0.20237">
        <ele>6.2</ele>
        <time>2022-05-31T17:11:28Z</time>
      </trkpt>
      <trkpt lat="49.28436" lon="-0.20237">
        <ele>6.2</ele>
        <time>2022-05-31T17:11:29Z</time>
      </trkpt>
      <trkpt lat="49.28438" lon="-0.20234">
        <ele>6.2</ele>
        <time>2022-05-31T17:11:30Z</time>
      </trkpt>
      <trkpt lat="49.28439" lon="-0.20232">
        <ele>6.2</ele>
        <time>2022-05-31T17:11:31Z</time>
      </trkpt>
      <trkpt lat="49.2844" lon="-0.20227">
        <ele>6.2</ele>
        <time>2022-05-31T17:11:32Z</time>
      </trkpt>
      <trkpt lat="49.2844" lon="-0.20222">
        <ele>6.2</ele>
        <time>2022-05-31T17:11:33Z</time>
      </trkpt>
      <trkpt lat="49.28441" lon="-0.20215">
        <ele>6.2</ele>
        <time>2022-05-31T17:11:34Z</time>
      </trkpt>
      <trkpt lat="49.28441" lon="-0.20207">
        <ele>6.2</ele>
        <time>2022-05-31T17:11:35Z</time>
      </trkpt>
      <trkpt lat="49.28441" lon="-0.20199">
        <ele>6.2</ele>
        <time>2022-05-31T17:11:36Z</time>
      </trkpt>
      <trkpt lat="49.28441" lon="-0.2019">
        <ele>6.2</ele>
        <time>2022-05-31T17:11:37Z</time>
      </trkpt>
      <trkpt lat="49.28442" lon="-0.20182">
        <ele>6.2</ele>
        <time>2022-05-31T17:11:38Z</time>
      </trkpt>
      <trkpt lat="49.28442" lon="-0.20174">
        <ele>6.2</ele>
        <time>2022-05-31T17:11:39Z</time>
      </trkpt>
      <trkpt lat="49.28442" lon="-0.20168">
        <ele>6.2</ele>
        <time>2022-05-31T17:11:40Z</time>
      </trkpt>
      <trkpt lat="49.28442" lon="-0.20162">
        <ele>6.2</ele>
        <time>2022-05-31T17:11:41Z</time>
      </trkpt>
      <trkpt lat="49.28443" lon="-0.20161">
        <ele>6.2</ele>
        <time>2022-05-31T17:11:42Z</time>
      </trkpt>
      <trkpt lat="49.28443" lon="-0.2016">
        <ele>6.2</ele>
        <time>2022-05-31T17:11:43Z</time>
      </trkpt>
      <trkpt lat="49.28444" lon="-0.2016">
        <ele>6.2</ele>
        <time>2022-05-31T17:11:44Z</time>
      </trkpt>
      <trkpt lat="49.28444" lon="-0.2016">
        <ele>6.2</ele>
        <time>2022-05-31T17:11:45Z</time>
      </trkpt>
      <trkpt lat="49.28445" lon="-0.2016">
        <ele>6.2</ele>
        <time>2022-05-31T17:11:46Z</time>
      </trkpt>
      <trkpt lat="49.28445" lon="-0.20159">
        <ele>6.2</ele>
        <time>2022-05-31T17:11:47Z</time>
      </trkpt>
      <trkpt lat="49.28446" lon="-0.20159">
        <ele>6.2</ele>
        <time>2022-05-31T17:11:48Z</time>
      </trkpt>
      <trkpt lat="49.28446" lon="-0.20159">
        <ele>6.2</ele>
        <time>2022-05-31T17:11:49Z</time>
      </trkpt>
      <trkpt lat="49.28448" lon="-0.20159">
        <ele>6.3</ele>
        <time>2022-05-31T17:11:50Z</time>
      </trkpt>
      <trkpt lat="49.2845" lon="-0.2016">
        <ele>6.4</ele>
        <time>2022-05-31T17:11:51Z</time>
      </trkpt>
      <trkpt lat="49.28451" lon="-0.2016">
        <ele>6.4</ele>
        <time>2022-05-31T17:11:52Z</time>
      </trkpt>
      <trkpt lat="49.28451" lon="-0.20161">
        <ele>6.4</ele>
        <time>2022-05-31T17:11:53Z</time>
      </trkpt>
      <trkpt lat="49.28451" lon="-0.20161">
        <ele>6.4</ele>
        <time>2022-05-31T17:11:54Z</time>
      </trkpt>
      <trkpt lat="49.28451" lon="-0.20161">
        <ele>6.4</ele>
        <time>2022-05-31T17:11:55Z</time>
      </trkpt>
      <trkpt lat="49.28451" lon="-0.20161">
        <ele>6.4</ele>
        <time>2022-05-31T17:11:56Z</time>
      </trkpt>
      <trkpt lat="49.28451" lon="-0.20161">
        <ele>6.4</ele>
        <time>2022-05-31T17:11:57Z</time>
      </trkpt>
      <trkpt lat="49.28451" lon="-0.20161">
        <ele>6.4</ele>
        <time>2022-05-31T17:11:58Z</time>
      </trkpt>
      <trkpt lat="49.28451" lon="-0.20161">
        <ele>6.4</ele>
        <time>2022-05-31T17:11:59Z</time>
      </trkpt>
      <trkpt lat="49.28451" lon="-0.20161">
        <ele>6.4</ele>
        <time>2022-05-31T17:12:00Z</time>
      </trkpt>
      <trkpt lat="49.28451" lon="-0.20161">
        <ele>6.4</ele>
        <time>2022-05-31T17:12:01Z</time>
      </trkpt>
      <trkpt lat="49.28451" lon="-0.20161">
        <ele>6.4</ele>
        <time>2022-05-31T17:12:02Z</time>
      </trkpt>
      <trkpt lat="49.28451" lon="-0.20161">
        <ele>6.4</ele>
        <time>2022-05-31T17:12:03Z</time>
      </trkpt>
      <trkpt lat="49.28451" lon="-0.20161">
        <ele>6.4</ele>
        <time>2022-05-31T17:12:04Z</time>
      </trkpt>
      <trkpt lat="49.28451" lon="-0.20161">
        <ele>6.4</ele>
        <time>2022-05-31T17:12:05Z</time>
      </trkpt>
      <trkpt lat="49.28451" lon="-0.20161">
        <ele>6.4</ele>
        <time>2022-05-31T17:12:06Z</time>
      </trkpt>
      <trkpt lat="49.28451" lon="-0.20161">
        <ele>6.4</ele>
        <time>2022-05-31T17:12:07Z</time>
      </trkpt>
      <trkpt lat="49.28451" lon="-0.20161">
        <ele>6.4</ele>
        <time>2022-05-31T17:12:08Z</time>
      </trkpt>
      <trkpt lat="49.28451" lon="-0.20161">
        <ele>6.4</ele>
        <time>2022-05-31T17:12:09Z</time>
      </trkpt>
      <trkpt lat="49.28451" lon="-0.2016">
        <ele>6.4</ele>
        <time>2022-05-31T17:12:10Z</time>
      </trkpt>
      <trkpt lat="49.2845" lon="-0.2016">
        <ele>6.4</ele>
        <time>2022-05-31T17:12:11Z</time>
      </trkpt>
      <trkpt lat="49.2845" lon="-0.2016">
        <ele>6.4</ele>
        <time>2022-05-31T17:12:12Z</time>
      </trkpt>
      <trkpt lat="49.2845" lon="-0.2016">
        <ele>6.4</ele>
        <time>2022-05-31T17:12:13Z</time>
      </trkpt>
      <trkpt lat="49.2845" lon="-0.2016">
        <ele>6.4</ele>
        <time>2022-05-31T17:12:14Z</time>
      </trkpt>
      <trkpt lat="49.2845" lon="-0.2016">
        <ele>6.4</ele>
        <time>2022-05-31T17:12:15Z</time>
      </trkpt>
      <trkpt lat="49.2845" lon="-0.2016">
        <ele>6.4</ele>
        <time>2022-05-31T17:12:16Z</time>
      </trkpt>
      <trkpt lat="49.2845" lon="-0.2016">
        <ele>6.4</ele>
        <time>2022-05-31T17:12:17Z</time>
      </trkpt>
      <trkpt lat="49.2845" lon="-0.2016">
        <ele>6.4</ele>
        <time>2022-05-31T17:12:18Z</time>
      </trkpt>
      <trkpt lat="49.2845" lon="-0.2016">
        <ele>6.4</ele>
        <time>2022-05-31T17:12:19Z</time>
      </trkpt>
      <trkpt lat="49.2845" lon="-0.2016">
        <ele>6.4</ele>
        <time>2022-05-31T17:12:20Z</time>
      </trkpt>
      <trkpt lat="49.2845" lon="-0.2016">
        <ele>6.4</ele>
        <time>2022-05-31T17:12:21Z</time>
      </trkpt>
      <trkpt lat="49.28451" lon="-0.20161">
        <ele>6.4</ele>
        <time>2022-05-31T17:12:22Z</time>
      </trkpt>
      <trkpt lat="49.28451" lon="-0.20161">
        <ele>6.4</ele>
        <time>2022-05-31T17:12:23Z</time>
      </trkpt>
      <trkpt lat="49.28451" lon="-0.20162">
        <ele>6.4</ele>
        <time>2022-05-31T17:12:24Z</time>
      </trkpt>
      <trkpt lat="49.28451" lon="-0.20162">
        <ele>6.4</ele>
        <time>2022-05-31T17:12:25Z</time>
      </trkpt>
      <trkpt lat="49.28451" lon="-0.20162">
        <ele>6.4</ele>
        <time>2022-05-31T17:12:26Z</time>
      </trkpt>
      <trkpt lat="49.28451" lon="-0.20162">
        <ele>6.4</ele>
        <time>2022-05-31T17:12:27Z</time>
      </trkpt>
      <trkpt lat="49.28451" lon="-0.20162">
        <ele>6.4</ele>
        <time>2022-05-31T17:12:28Z</time>
      </trkpt>
      <trkpt lat="49.28451" lon="-0.20162">
        <ele>6.4</ele>
        <time>2022-05-31T17:12:29Z</time>
      </trkpt>
      <trkpt lat="49.28451" lon="-0.20162">
        <ele>6.4</ele>
        <time>2022-05-31T17:12:30Z</time>
      </trkpt>
      <trkpt lat="49.28451" lon="-0.20162">
        <ele>6.4</ele>
        <time>2022-05-31T17:12:31Z</time>
      </trkpt>
      <trkpt lat="49.28451" lon="-0.20162">
        <ele>6.4</ele>
        <time>2022-05-31T17:12:32Z</time>
      </trkpt>
      <trkpt lat="49.28451" lon="-0.20162">
        <ele>6.4</ele>
        <time>2022-05-31T17:12:33Z</time>
      </trkpt>
      <trkpt lat="49.28451" lon="-0.20162">
        <ele>6.4</ele>
        <time>2022-05-31T17:12:34Z</time>
      </trkpt>
      <trkpt lat="49.28451" lon="-0.20162">
        <ele>6.4</ele>
        <time>2022-05-31T17:12:35Z</time>
      </trkpt>
      <trkpt lat="49.28451" lon="-0.20162">
        <ele>6.4</ele>
        <time>2022-05-31T17:12:36Z</time>
      </trkpt>
      <trkpt lat="49.28451" lon="-0.20162">
        <ele>6.4</ele>
        <time>2022-05-31T17:12:37Z</time>
      </trkpt>
      <trkpt lat="49.28451" lon="-0.20162">
        <ele>6.4</ele>
        <time>2022-05-31T17:12:38Z</time>
      </trkpt>
      <trkpt lat="49.28451" lon="-0.20162">
        <ele>6.4</ele>
        <time>2022-05-31T17:12:39Z</time>
      </trkpt>
      <trkpt lat="49.28451" lon="-0.20162">
        <ele>6.4</ele>
        <time>2022-05-31T17:12:40Z</time>
      </trkpt>
      <trkpt lat="49.28451" lon="-0.20162">
        <ele>6.4</ele>
        <time>2022-05-31T17:12:41Z</time>
      </trkpt>
      <trkpt lat="49.28451" lon="-0.20162">
        <ele>6.4</ele>
        <time>2022-05-31T17:12:42Z</time>
      </trkpt>
      <trkpt lat="49.28451" lon="-0.20162">
        <ele>6.4</ele>
        <time>2022-05-31T17:12:43Z</time>
      </trkpt>
      <trkpt lat="49.28451" lon="-0.20162">
        <ele>6.4</ele>
        <time>2022-05-31T17:12:44Z</time>
      </trkpt>
      <trkpt lat="49.28451" lon="-0.20162">
        <ele>6.4</ele>
        <time>2022-05-31T17:12:45Z</time>
      </trkpt>
      <trkpt lat="49.28451" lon="-0.20162">
        <ele>6.4</ele>
        <time>2022-05-31T17:12:46Z</time>
      </trkpt>
      <trkpt lat="49.28451" lon="-0.20162">
        <ele>6.4</ele>
        <time>2022-05-31T17:12:47Z</time>
      </trkpt>
      <trkpt lat="49.28451" lon="-0.20162">
        <ele>6.4</ele>
        <time>2022-05-31T17:12:48Z</time>
      </trkpt>
      <trkpt lat="49.28451" lon="-0.20162">
        <ele>6.4</ele>
        <time>2022-05-31T17:12:49Z</time>
      </trkpt>
      <trkpt lat="49.28451" lon="-0.20162">
        <ele>6.4</ele>
        <time>2022-05-31T17:12:50Z</time>
      </trkpt>
      <trkpt lat="49.28451" lon="-0.20162">
        <ele>6.4</ele>
        <time>2022-05-31T17:12:51Z</time>
      </trkpt>
      <trkpt lat="49.28451" lon="-0.20162">
        <ele>6.4</ele>
        <time>2022-05-31T17:12:52Z</time>
      </trkpt>
      <trkpt lat="49.28451" lon="-0.20162">
        <ele>6.4</ele>
        <time>2022-05-31T17:12:53Z</time>
      </trkpt>
      <trkpt lat="49.28451" lon="-0.20162">
        <ele>6.4</ele>
        <time>2022-05-31T17:12:54Z</time>
      </trkpt>
      <trkpt lat="49.28451" lon="-0.20162">
        <ele>6.4</ele>
        <time>2022-05-31T17:12:55Z</time>
      </trkpt>
      <trkpt lat="49.28451" lon="-0.20162">
        <ele>6.4</ele>
        <time>2022-05-31T17:12:56Z</time>
      </trkpt>
      <trkpt lat="49.28451" lon="-0.20162">
        <ele>6.4</ele>
        <time>2022-05-31T17:12:57Z</time>
      </trkpt>
      <trkpt lat="49.28451" lon="-0.20162">
        <ele>6.4</ele>
        <time>2022-05-31T17:12:58Z</time>
      </trkpt>
      <trkpt lat="49.28451" lon="-0.20162">
        <ele>6.4</ele>
        <time>2022-05-31T17:12:59Z</time>
      </trkpt>
      <trkpt lat="49.28451" lon="-0.20162">
        <ele>6.4</ele>
        <time>2022-05-31T17:13:00Z</time>
      </trkpt>
      <trkpt lat="49.28451" lon="-0.20162">
        <ele>6.4</ele>
        <time>2022-05-31T17:13:01Z</time>
      </trkpt>
      <trkpt lat="49.28451" lon="-0.20162">
        <ele>6.4</ele>
        <time>2022-05-31T17:13:02Z</time>
      </trkpt>
      <trkpt lat="49.28451" lon="-0.20162">
        <ele>6.4</ele>
        <time>2022-05-31T17:13:03Z</time>
      </trkpt>
      <trkpt lat="49.28451" lon="-0.20162">
        <ele>6.4</ele>
        <time>2022-05-31T17:13:04Z</time>
      </trkpt>
      <trkpt lat="49.28451" lon="-0.20162">
        <ele>6.4</ele>
        <time>2022-05-31T17:13:05Z</time>
      </trkpt>
      <trkpt lat="49.28451" lon="-0.20162">
        <ele>6.4</ele>
        <time>2022-05-31T17:13:06Z</time>
      </trkpt>
      <trkpt lat="49.28451" lon="-0.20162">
        <ele>6.4</ele>
        <time>2022-05-31T17:13:07Z</time>
      </trkpt>
      <trkpt lat="49.28451" lon="-0.20162">
        <ele>6.4</ele>
        <time>2022-05-31T17:13:08Z</time>
      </trkpt>
      <trkpt lat="49.28451" lon="-0.20162">
        <ele>6.4</ele>
        <time>2022-05-31T17:13:09Z</time>
      </trkpt>
      <trkpt lat="49.28451" lon="-0.20162">
        <ele>6.4</ele>
        <time>2022-05-31T17:13:10Z</time>
      </trkpt>
      <trkpt lat="49.28451" lon="-0.20162">
        <ele>6.4</ele>
        <time>2022-05-31T17:13:11Z</time>
      </trkpt>
      <trkpt lat="49.28451" lon="-0.20162">
        <ele>6.4</ele>
        <time>2022-05-31T17:13:12Z</time>
      </trkpt>
      <trkpt lat="49.28451" lon="-0.20162">
        <ele>6.4</ele>
        <time>2022-05-31T17:13:13Z</time>
      </trkpt>
      <trkpt lat="49.28451" lon="-0.20162">
        <ele>6.4</ele>
        <time>2022-05-31T17:13:14Z</time>
      </trkpt>
      <trkpt lat="49.28451" lon="-0.20162">
        <ele>6.4</ele>
        <time>2022-05-31T17:13:15Z</time>
      </trkpt>
      <trkpt lat="49.28451" lon="-0.20162">
        <ele>6.4</ele>
        <time>2022-05-31T17:13:16Z</time>
      </trkpt>
      <trkpt lat="49.28451" lon="-0.20162">
        <ele>6.4</ele>
        <time>2022-05-31T17:13:17Z</time>
      </trkpt>
      <trkpt lat="49.28451" lon="-0.20162">
        <ele>6.4</ele>
        <time>2022-05-31T17:13:18Z</time>
      </trkpt>
      <trkpt lat="49.28451" lon="-0.20162">
        <ele>6.4</ele>
        <time>2022-05-31T17:13:19Z</time>
      </trkpt>
      <trkpt lat="49.28451" lon="-0.20162">
        <ele>6.4</ele>
        <time>2022-05-31T17:13:20Z</time>
      </trkpt>
      <trkpt lat="49.28451" lon="-0.20162">
        <ele>6.4</ele>
        <time>2022-05-31T17:13:21Z</time>
      </trkpt>
      <trkpt lat="49.28451" lon="-0.20162">
        <ele>6.4</ele>
        <time>2022-05-31T17:13:22Z</time>
      </trkpt>
      <trkpt lat="49.28451" lon="-0.20162">
        <ele>6.4</ele>
        <time>2022-05-31T17:13:23Z</time>
      </trkpt>
      <trkpt lat="49.28451" lon="-0.20162">
        <ele>6.4</ele>
        <time>2022-05-31T17:13:24Z</time>
      </trkpt>
      <trkpt lat="49.28451" lon="-0.20162">
        <ele>6.4</ele>
        <time>2022-05-31T17:13:25Z</time>
      </trkpt>
      <trkpt lat="49.28451" lon="-0.20162">
        <ele>6.4</ele>
        <time>2022-05-31T17:13:26Z</time>
      </trkpt>
      <trkpt lat="49.28451" lon="-0.20162">
        <ele>6.4</ele>
        <time>2022-05-31T17:13:27Z</time>
      </trkpt>
      <trkpt lat="49.28451" lon="-0.20162">
        <ele>6.4</ele>
        <time>2022-05-31T17:13:28Z</time>
      </trkpt>
      <trkpt lat="49.28451" lon="-0.20162">
        <ele>6.4</ele>
        <time>2022-05-31T17:13:29Z</time>
      </trkpt>
      <trkpt lat="49.28451" lon="-0.20162">
        <ele>6.4</ele>
        <time>2022-05-31T17:13:30Z</time>
      </trkpt>
      <trkpt lat="49.28451" lon="-0.20162">
        <ele>6.4</ele>
        <time>2022-05-31T17:13:31Z</time>
      </trkpt>
      <trkpt lat="49.28451" lon="-0.20162">
        <ele>6.4</ele>
        <time>2022-05-31T17:13:32Z</time>
      </trkpt>
      <trkpt lat="49.28451" lon="-0.20162">
        <ele>6.4</ele>
        <time>2022-05-31T17:13:33Z</time>
      </trkpt>
      <trkpt lat="49.28451" lon="-0.20162">
        <ele>6.4</ele>
        <time>2022-05-31T17:13:34Z</time>
      </trkpt>
      <trkpt lat="49.28451" lon="-0.20162">
        <ele>6.4</ele>
        <time>2022-05-31T17:13:35Z</time>
      </trkpt>
      <trkpt lat="49.28451" lon="-0.20162">
        <ele>6.4</ele>
        <time>2022-05-31T17:13:36Z</time>
      </trkpt>
      <trkpt lat="49.28451" lon="-0.20162">
        <ele>6.4</ele>
        <time>2022-05-31T17:13:37Z</time>
      </trkpt>
      <trkpt lat="49.28451" lon="-0.20162">
        <ele>6.4</ele>
        <time>2022-05-31T17:13:38Z</time>
      </trkpt>
      <trkpt lat="49.28451" lon="-0.20162">
        <ele>6.4</ele>
        <time>2022-05-31T17:13:39Z</time>
      </trkpt>
      <trkpt lat="49.28451" lon="-0.20162">
        <ele>6.4</ele>
        <time>2022-05-31T17:13:40Z</time>
      </trkpt>
      <trkpt lat="49.28451" lon="-0.20162">
        <ele>6.4</ele>
        <time>2022-05-31T17:13:41Z</time>
      </trkpt>
      <trkpt lat="49.28451" lon="-0.20162">
        <ele>6.4</ele>
        <time>2022-05-31T17:13:42Z</time>
      </trkpt>
      <trkpt lat="49.28451" lon="-0.20162">
        <ele>6.4</ele>
        <time>2022-05-31T17:13:43Z</time>
      </trkpt>
      <trkpt lat="49.28451" lon="-0.20162">
        <ele>6.4</ele>
        <time>2022-05-31T17:13:44Z</time>
      </trkpt>
      <trkpt lat="49.28451" lon="-0.20162">
        <ele>6.4</ele>
        <time>2022-05-31T17:13:45Z</time>
      </trkpt>
      <trkpt lat="49.28451" lon="-0.20162">
        <ele>6.4</ele>
        <time>2022-05-31T17:13:46Z</time>
      </trkpt>
      <trkpt lat="49.28451" lon="-0.20162">
        <ele>6.4</ele>
        <time>2022-05-31T17:13:47Z</time>
      </trkpt>
      <trkpt lat="49.28451" lon="-0.20162">
        <ele>6.4</ele>
        <time>2022-05-31T17:13:48Z</time>
      </trkpt>
      <trkpt lat="49.28451" lon="-0.20162">
        <ele>6.4</ele>
        <time>2022-05-31T17:13:49Z</time>
      </trkpt>
      <trkpt lat="49.28451" lon="-0.20162">
        <ele>6.4</ele>
        <time>2022-05-31T17:13:50Z</time>
      </trkpt>
      <trkpt lat="49.28451" lon="-0.20162">
        <ele>6.4</ele>
        <time>2022-05-31T17:13:51Z</time>
      </trkpt>
      <trkpt lat="49.28451" lon="-0.20162">
        <ele>6.4</ele>
        <time>2022-05-31T17:13:52Z</time>
      </trkpt>
      <trkpt lat="49.28451" lon="-0.20162">
        <ele>6.4</ele>
        <time>2022-05-31T17:13:53Z</time>
      </trkpt>
      <trkpt lat="49.28451" lon="-0.20162">
        <ele>6.4</ele>
        <time>2022-05-31T17:13:54Z</time>
      </trkpt>
      <trkpt lat="49.28451" lon="-0.20162">
        <ele>6.4</ele>
        <time>2022-05-31T17:13:55Z</time>
      </trkpt>
      <trkpt lat="49.28451" lon="-0.20162">
        <ele>6.4</ele>
        <time>2022-05-31T17:13:56Z</time>
      </trkpt>
      <trkpt lat="49.28451" lon="-0.20162">
        <ele>6.4</ele>
        <time>2022-05-31T17:13:57Z</time>
      </trkpt>
      <trkpt lat="49.28451" lon="-0.20162">
        <ele>6.4</ele>
        <time>2022-05-31T17:13:58Z</time>
      </trkpt>
      <trkpt lat="49.28451" lon="-0.20162">
        <ele>6.4</ele>
        <time>2022-05-31T17:13:59Z</time>
      </trkpt>
      <trkpt lat="49.28451" lon="-0.20162">
        <ele>6.4</ele>
        <time>2022-05-31T17:14:00Z</time>
      </trkpt>
      <trkpt lat="49.28451" lon="-0.20162">
        <ele>6.4</ele>
        <time>2022-05-31T17:14:01Z</time>
      </trkpt>
      <trkpt lat="49.28451" lon="-0.20162">
        <ele>6.4</ele>
        <time>2022-05-31T17:14:02Z</time>
      </trkpt>
      <trkpt lat="49.28451" lon="-0.20162">
        <ele>6.4</ele>
        <time>2022-05-31T17:14:03Z</time>
      </trkpt>
      <trkpt lat="49.28451" lon="-0.20162">
        <ele>6.4</ele>
        <time>2022-05-31T17:14:04Z</time>
      </trkpt>
      <trkpt lat="49.28451" lon="-0.20162">
        <ele>6.4</ele>
        <time>2022-05-31T17:14:05Z</time>
      </trkpt>
      <trkpt lat="49.28451" lon="-0.20162">
        <ele>6.4</ele>
        <time>2022-05-31T17:14:06Z</time>
      </trkpt>
      <trkpt lat="49.28451" lon="-0.20162">
        <ele>6.4</ele>
        <time>2022-05-31T17:14:07Z</time>
      </trkpt>
      <trkpt lat="49.28451" lon="-0.20162">
        <ele>6.4</ele>
        <time>2022-05-31T17:14:08Z</time>
      </trkpt>
      <trkpt lat="49.28451" lon="-0.20162">
        <ele>6.4</ele>
        <time>2022-05-31T17:14:09Z</time>
      </trkpt>
      <trkpt lat="49.28451" lon="-0.20162">
        <ele>6.4</ele>
        <time>2022-05-31T17:14:10Z</time>
      </trkpt>
      <trkpt lat="49.28451" lon="-0.20162">
        <ele>6.4</ele>
        <time>2022-05-31T17:14:11Z</time>
      </trkpt>
      <trkpt lat="49.28451" lon="-0.20162">
        <ele>6.4</ele>
        <time>2022-05-31T17:14:12Z</time>
      </trkpt>
      <trkpt lat="49.28451" lon="-0.20162">
        <ele>6.4</ele>
        <time>2022-05-31T17:14:13Z</time>
      </trkpt>
      <trkpt lat="49.28451" lon="-0.20162">
        <ele>6.4</ele>
        <time>2022-05-31T17:14:14Z</time>
      </trkpt>
      <trkpt lat="49.28451" lon="-0.20162">
        <ele>6.4</ele>
        <time>2022-05-31T17:14:15Z</time>
      </trkpt>
      <trkpt lat="49.28451" lon="-0.20162">
        <ele>6.4</ele>
        <time>2022-05-31T17:14:16Z</time>
      </trkpt>
      <trkpt lat="49.28451" lon="-0.20162">
        <ele>6.4</ele>
        <time>2022-05-31T17:14:17Z</time>
      </trkpt>
      <trkpt lat="49.28451" lon="-0.20162">
        <ele>6.4</ele>
        <time>2022-05-31T17:14:18Z</time>
      </trkpt>
      <trkpt lat="49.28451" lon="-0.20162">
        <ele>6.4</ele>
        <time>2022-05-31T17:14:19Z</time>
      </trkpt>
      <trkpt lat="49.28451" lon="-0.20162">
        <ele>6.4</ele>
        <time>2022-05-31T17:14:20Z</time>
      </trkpt>
      <trkpt lat="49.28451" lon="-0.20162">
        <ele>6.4</ele>
        <time>2022-05-31T17:14:21Z</time>
      </trkpt>
      <trkpt lat="49.28451" lon="-0.20162">
        <ele>6.4</ele>
        <time>2022-05-31T17:14:22Z</time>
      </trkpt>
      <trkpt lat="49.28451" lon="-0.20162">
        <ele>6.4</ele>
        <time>2022-05-31T17:14:23Z</time>
      </trkpt>
      <trkpt lat="49.28451" lon="-0.20162">
        <ele>6.4</ele>
        <time>2022-05-31T17:14:24Z</time>
      </trkpt>
      <trkpt lat="49.28451" lon="-0.20162">
        <ele>6.4</ele>
        <time>2022-05-31T17:14:25Z</time>
      </trkpt>
      <trkpt lat="49.28451" lon="-0.20162">
        <ele>6.4</ele>
        <time>2022-05-31T17:14:26Z</time>
      </trkpt>
      <trkpt lat="49.28451" lon="-0.20162">
        <ele>6.4</ele>
        <time>2022-05-31T17:14:27Z</time>
      </trkpt>
      <trkpt lat="49.28451" lon="-0.20162">
        <ele>6.4</ele>
        <time>2022-05-31T17:14:28Z</time>
      </trkpt>
      <trkpt lat="49.28451" lon="-0.20162">
        <ele>6.4</ele>
        <time>2022-05-31T17:14:29Z</time>
      </trkpt>
      <trkpt lat="49.28451" lon="-0.20162">
        <ele>6.4</ele>
        <time>2022-05-31T17:14:30Z</time>
      </trkpt>
      <trkpt lat="49.28451" lon="-0.20162">
        <ele>6.4</ele>
        <time>2022-05-31T17:14:31Z</time>
      </trkpt>
      <trkpt lat="49.28452" lon="-0.20162">
        <ele>6.4</ele>
        <time>2022-05-31T17:14:32Z</time>
      </trkpt>
      <trkpt lat="49.28454" lon="-0.20162">
        <ele>6.4</ele>
        <time>2022-05-31T17:14:33Z</time>
      </trkpt>
      <trkpt lat="49.28455" lon="-0.20163">
        <ele>6.4</ele>
        <time>2022-05-31T17:14:34Z</time>
      </trkpt>
      <trkpt lat="49.28455" lon="-0.20163">
        <ele>6.4</ele>
        <time>2022-05-31T17:14:35Z</time>
      </trkpt>
      <trkpt lat="49.28455" lon="-0.20163">
        <ele>6.4</ele>
        <time>2022-05-31T17:14:36Z</time>
      </trkpt>
      <trkpt lat="49.28455" lon="-0.20164">
        <ele>6.4</ele>
        <time>2022-05-31T17:14:37Z</time>
      </trkpt>
      <trkpt lat="49.28455" lon="-0.20164">
        <ele>6.4</ele>
        <time>2022-05-31T17:14:38Z</time>
      </trkpt>
      <trkpt lat="49.28456" lon="-0.20167">
        <ele>6.4</ele>
        <time>2022-05-31T17:14:39Z</time>
      </trkpt>
      <trkpt lat="49.28456" lon="-0.2017">
        <ele>6.4</ele>
        <time>2022-05-31T17:14:40Z</time>
      </trkpt>
      <trkpt lat="49.28456" lon="-0.20171">
        <ele>6.4</ele>
        <time>2022-05-31T17:14:42Z</time>
      </trkpt>
      <trkpt lat="49.28456" lon="-0.20172">
        <ele>6.4</ele>
        <time>2022-05-31T17:14:43Z</time>
      </trkpt>
      <trkpt lat="49.28455" lon="-0.20173">
        <ele>6.4</ele>
        <time>2022-05-31T17:14:44Z</time>
      </trkpt>
      <trkpt lat="49.28455" lon="-0.20176">
        <ele>6.4</ele>
        <time>2022-05-31T17:14:45Z</time>
      </trkpt>
      <trkpt lat="49.28454" lon="-0.20177">
        <ele>6.4</ele>
        <time>2022-05-31T17:14:46Z</time>
      </trkpt>
      <trkpt lat="49.28453" lon="-0.2018">
        <ele>6.4</ele>
        <time>2022-05-31T17:14:47Z</time>
      </trkpt>
      <trkpt lat="49.28453" lon="-0.20182">
        <ele>6.4</ele>
        <time>2022-05-31T17:14:49Z</time>
      </trkpt>
      <trkpt lat="49.28453" lon="-0.20183">
        <ele>6.4</ele>
        <time>2022-05-31T17:14:50Z</time>
      </trkpt>
      <trkpt lat="49.28453" lon="-0.20185">
        <ele>6.4</ele>
        <time>2022-05-31T17:14:51Z</time>
      </trkpt>
      <trkpt lat="49.28454" lon="-0.20187">
        <ele>6.4</ele>
        <time>2022-05-31T17:14:53Z</time>
      </trkpt>
      <trkpt lat="49.28454" lon="-0.20189">
        <ele>6.4</ele>
        <time>2022-05-31T17:14:54Z</time>
      </trkpt>
      <trkpt lat="49.28454" lon="-0.2019">
        <ele>6.4</ele>
        <time>2022-05-31T17:14:55Z</time>
      </trkpt>
      <trkpt lat="49.28454" lon="-0.20191">
        <ele>6.4</ele>
        <time>2022-05-31T17:14:56Z</time>
      </trkpt>
      <trkpt lat="49.28454" lon="-0.20191">
        <ele>6.4</ele>
        <time>2022-05-31T17:14:57Z</time>
      </trkpt>
      <trkpt lat="49.28454" lon="-0.2019">
        <ele>6.4</ele>
        <time>2022-05-31T17:14:58Z</time>
      </trkpt>
      <trkpt lat="49.28455" lon="-0.20192">
        <ele>6.4</ele>
        <time>2022-05-31T17:14:59Z</time>
      </trkpt>
      <trkpt lat="49.28456" lon="-0.20194">
        <ele>6.4</ele>
        <time>2022-05-31T17:15:01Z</time>
      </trkpt>
      <trkpt lat="49.28457" lon="-0.20195">
        <ele>6.4</ele>
        <time>2022-05-31T17:15:02Z</time>
      </trkpt>
      <trkpt lat="49.28458" lon="-0.20196">
        <ele>6.4</ele>
        <time>2022-05-31T17:15:03Z</time>
      </trkpt>
      <trkpt lat="49.28459" lon="-0.20198">
        <ele>6.4</ele>
        <time>2022-05-31T17:15:05Z</time>
      </trkpt>
      <trkpt lat="49.28459" lon="-0.20197">
        <ele>6.4</ele>
        <time>2022-05-31T17:15:06Z</time>
      </trkpt>
      <trkpt lat="49.28459" lon="-0.20197">
        <ele>6.4</ele>
        <time>2022-05-31T17:15:07Z</time>
      </trkpt>
      <trkpt lat="49.28459" lon="-0.20197">
        <ele>6.4</ele>
        <time>2022-05-31T17:15:08Z</time>
      </trkpt>
      <trkpt lat="49.28459" lon="-0.20197">
        <ele>6.4</ele>
        <time>2022-05-31T17:15:09Z</time>
      </trkpt>
      <trkpt lat="49.2846" lon="-0.20197">
        <ele>6.4</ele>
        <time>2022-05-31T17:15:11Z</time>
      </trkpt>
      <trkpt lat="49.28459" lon="-0.20197">
        <ele>6.4</ele>
        <time>2022-05-31T17:15:12Z</time>
      </trkpt>
      <trkpt lat="49.2846" lon="-0.20197">
        <ele>6.4</ele>
        <time>2022-05-31T17:15:13Z</time>
      </trkpt>
      <trkpt lat="49.2846" lon="-0.20198">
        <ele>6.4</ele>
        <time>2022-05-31T17:15:14Z</time>
      </trkpt>
      <trkpt lat="49.28461" lon="-0.20198">
        <ele>6.4</ele>
        <time>2022-05-31T17:15:15Z</time>
      </trkpt>
      <trkpt lat="49.28462" lon="-0.20199">
        <ele>6.4</ele>
        <time>2022-05-31T17:15:16Z</time>
      </trkpt>
      <trkpt lat="49.28463" lon="-0.202">
        <ele>6.4</ele>
        <time>2022-05-31T17:15:18Z</time>
      </trkpt>
      <trkpt lat="49.28467" lon="-0.20203">
        <ele>6.4</ele>
        <time>2022-05-31T17:15:19Z</time>
      </trkpt>
      <trkpt lat="49.28468" lon="-0.20203">
        <ele>6.4</ele>
        <time>2022-05-31T17:15:20Z</time>
      </trkpt>
      <trkpt lat="49.28471" lon="-0.20205">
        <ele>6.4</ele>
        <time>2022-05-31T17:15:21Z</time>
      </trkpt>
      <trkpt lat="49.28472" lon="-0.20206">
        <ele>6.4</ele>
        <time>2022-05-31T17:15:22Z</time>
      </trkpt>
      <trkpt lat="49.28475" lon="-0.20207">
        <ele>6.4</ele>
        <time>2022-05-31T17:15:23Z</time>
      </trkpt>
      <trkpt lat="49.28476" lon="-0.20207">
        <ele>6.4</ele>
        <time>2022-05-31T17:15:24Z</time>
      </trkpt>
      <trkpt lat="49.28478" lon="-0.20208">
        <ele>6.3</ele>
        <time>2022-05-31T17:15:26Z</time>
      </trkpt>
      <trkpt lat="49.28479" lon="-0.20208">
        <ele>6.3</ele>
        <time>2022-05-31T17:15:27Z</time>
      </trkpt>
      <trkpt lat="49.28481" lon="-0.20209">
        <ele>6.4</ele>
        <time>2022-05-31T17:15:28Z</time>
      </trkpt>
      <trkpt lat="49.28482" lon="-0.2021">
        <ele>6.4</ele>
        <time>2022-05-31T17:15:29Z</time>
      </trkpt>
      <trkpt lat="49.28483" lon="-0.20211">
        <ele>6.4</ele>
        <time>2022-05-31T17:15:30Z</time>
      </trkpt>
      <trkpt lat="49.28484" lon="-0.20212">
        <ele>6.4</ele>
        <time>2022-05-31T17:15:31Z</time>
      </trkpt>
      <trkpt lat="49.28486" lon="-0.20214">
        <ele>6.4</ele>
        <time>2022-05-31T17:15:33Z</time>
      </trkpt>
      <trkpt lat="49.28487" lon="-0.20215">
        <ele>6.4</ele>
        <time>2022-05-31T17:15:34Z</time>
      </trkpt>
      <trkpt lat="49.28488" lon="-0.20216">
        <ele>6.4</ele>
        <time>2022-05-31T17:15:35Z</time>
      </trkpt>
      <trkpt lat="49.28489" lon="-0.20218">
        <ele>6.5</ele>
        <time>2022-05-31T17:15:36Z</time>
      </trkpt>
      <trkpt lat="49.2849" lon="-0.20219">
        <ele>6.5</ele>
        <time>2022-05-31T17:15:37Z</time>
      </trkpt>
      <trkpt lat="49.28491" lon="-0.20221">
        <ele>6.5</ele>
        <time>2022-05-31T17:15:38Z</time>
      </trkpt>
      <trkpt lat="49.28492" lon="-0.20222">
        <ele>6.5</ele>
        <time>2022-05-31T17:15:40Z</time>
      </trkpt>
      <trkpt lat="49.28493" lon="-0.20224">
        <ele>6.5</ele>
        <time>2022-05-31T17:15:41Z</time>
      </trkpt>
      <trkpt lat="49.28495" lon="-0.20225">
        <ele>6.5</ele>
        <time>2022-05-31T17:15:42Z</time>
      </trkpt>
      <trkpt lat="49.28496" lon="-0.20226">
        <ele>6.5</ele>
        <time>2022-05-31T17:15:43Z</time>
      </trkpt>
      <trkpt lat="49.28498" lon="-0.20227">
        <ele>6.5</ele>
        <time>2022-05-31T17:15:44Z</time>
      </trkpt>
      <trkpt lat="49.28499" lon="-0.20227">
        <ele>6.5</ele>
        <time>2022-05-31T17:15:45Z</time>
      </trkpt>
      <trkpt lat="49.285" lon="-0.20228">
        <ele>6.4</ele>
        <time>2022-05-31T17:15:47Z</time>
      </trkpt>
      <trkpt lat="49.285" lon="-0.20229">
        <ele>6.4</ele>
        <time>2022-05-31T17:15:48Z</time>
      </trkpt>
      <trkpt lat="49.285" lon="-0.20229">
        <ele>6.4</ele>
        <time>2022-05-31T17:15:49Z</time>
      </trkpt>
      <trkpt lat="49.28501" lon="-0.2023">
        <ele>6.5</ele>
        <time>2022-05-31T17:15:50Z</time>
      </trkpt>
      <trkpt lat="49.28503" lon="-0.20232">
        <ele>6.4</ele>
        <time>2022-05-31T17:15:51Z</time>
      </trkpt>
      <trkpt lat="49.28504" lon="-0.20233">
        <ele>6.4</ele>
        <time>2022-05-31T17:15:52Z</time>
      </trkpt>
      <trkpt lat="49.28505" lon="-0.20233">
        <ele>6.4</ele>
        <time>2022-05-31T17:15:54Z</time>
      </trkpt>
      <trkpt lat="49.28506" lon="-0.20234">
        <ele>6.3</ele>
        <time>2022-05-31T17:15:55Z</time>
      </trkpt>
      <trkpt lat="49.28507" lon="-0.20235">
        <ele>6.4</ele>
        <time>2022-05-31T17:15:57Z</time>
      </trkpt>
      <trkpt lat="49.28507" lon="-0.20236">
        <ele>6.4</ele>
        <time>2022-05-31T17:15:58Z</time>
      </trkpt>
      <trkpt lat="49.28507" lon="-0.20237">
        <ele>6.4</ele>
        <time>2022-05-31T17:15:59Z</time>
      </trkpt>
      <trkpt lat="49.28507" lon="-0.20238">
        <ele>6.4</ele>
        <time>2022-05-31T17:16:00Z</time>
      </trkpt>
      <trkpt lat="49.28507" lon="-0.2024">
        <ele>6.5</ele>
        <time>2022-05-31T17:16:01Z</time>
      </trkpt>
      <trkpt lat="49.28508" lon="-0.20242">
        <ele>6.5</ele>
        <time>2022-05-31T17:16:02Z</time>
      </trkpt>
      <trkpt lat="49.28508" lon="-0.20244">
        <ele>6.5</ele>
        <time>2022-05-31T17:16:03Z</time>
      </trkpt>
      <trkpt lat="49.28509" lon="-0.20245">
        <ele>6.5</ele>
        <time>2022-05-31T17:16:05Z</time>
      </trkpt>
      <trkpt lat="49.28511" lon="-0.20246">
        <ele>6.5</ele>
        <time>2022-05-31T17:16:06Z</time>
      </trkpt>
      <trkpt lat="49.28512" lon="-0.20247">
        <ele>6.5</ele>
        <time>2022-05-31T17:16:07Z</time>
      </trkpt>
      <trkpt lat="49.28513" lon="-0.20247">
        <ele>6.5</ele>
        <time>2022-05-31T17:16:08Z</time>
      </trkpt>
      <trkpt lat="49.28514" lon="-0.20248">
        <ele>6.5</ele>
        <time>2022-05-31T17:16:09Z</time>
      </trkpt>
      <trkpt lat="49.28515" lon="-0.20248">
        <ele>6.5</ele>
        <time>2022-05-31T17:16:10Z</time>
      </trkpt>
      <trkpt lat="49.28516" lon="-0.20249">
        <ele>6.5</ele>
        <time>2022-05-31T17:16:12Z</time>
      </trkpt>
      <trkpt lat="49.28517" lon="-0.2025">
        <ele>6.5</ele>
        <time>2022-05-31T17:16:13Z</time>
      </trkpt>
      <trkpt lat="49.28518" lon="-0.20251">
        <ele>6.5</ele>
        <time>2022-05-31T17:16:14Z</time>
      </trkpt>
      <trkpt lat="49.28519" lon="-0.20252">
        <ele>6.4</ele>
        <time>2022-05-31T17:16:15Z</time>
      </trkpt>
      <trkpt lat="49.2852" lon="-0.20252">
        <ele>6.4</ele>
        <time>2022-05-31T17:16:16Z</time>
      </trkpt>
      <trkpt lat="49.28521" lon="-0.20252">
        <ele>6.5</ele>
        <time>2022-05-31T17:16:18Z</time>
      </trkpt>
      <trkpt lat="49.28522" lon="-0.20253">
        <ele>6.4</ele>
        <time>2022-05-31T17:16:19Z</time>
      </trkpt>
      <trkpt lat="49.28523" lon="-0.20254">
        <ele>6.4</ele>
        <time>2022-05-31T17:16:20Z</time>
      </trkpt>
      <trkpt lat="49.28524" lon="-0.20255">
        <ele>6.4</ele>
        <time>2022-05-31T17:16:22Z</time>
      </trkpt>
      <trkpt lat="49.28525" lon="-0.20256">
        <ele>6.3</ele>
        <time>2022-05-31T17:16:23Z</time>
      </trkpt>
      <trkpt lat="49.28526" lon="-0.20257">
        <ele>6.3</ele>
        <time>2022-05-31T17:16:24Z</time>
      </trkpt>
      <trkpt lat="49.28526" lon="-0.20258">
        <ele>6.3</ele>
        <time>2022-05-31T17:16:25Z</time>
      </trkpt>
      <trkpt lat="49.28527" lon="-0.20258">
        <ele>6.3</ele>
        <time>2022-05-31T17:16:27Z</time>
      </trkpt>
      <trkpt lat="49.28528" lon="-0.20257">
        <ele>6.1</ele>
        <time>2022-05-31T17:16:28Z</time>
      </trkpt>
      <trkpt lat="49.28528" lon="-0.20257">
        <ele>6.1</ele>
        <time>2022-05-31T17:16:29Z</time>
      </trkpt>
      <trkpt lat="49.28528" lon="-0.20257">
        <ele>6.1</ele>
        <time>2022-05-31T17:16:30Z</time>
      </trkpt>
      <trkpt lat="49.28529" lon="-0.20258">
        <ele>6.1</ele>
        <time>2022-05-31T17:16:31Z</time>
      </trkpt>
      <trkpt lat="49.28529" lon="-0.20258">
        <ele>6.1</ele>
        <time>2022-05-31T17:16:32Z</time>
      </trkpt>
      <trkpt lat="49.28529" lon="-0.20261">
        <ele>6.2</ele>
        <time>2022-05-31T17:16:34Z</time>
      </trkpt>
      <trkpt lat="49.28529" lon="-0.20262">
        <ele>6.2</ele>
        <time>2022-05-31T17:16:35Z</time>
      </trkpt>
      <trkpt lat="49.28529" lon="-0.20262">
        <ele>6.2</ele>
        <time>2022-05-31T17:16:36Z</time>
      </trkpt>
      <trkpt lat="49.28529" lon="-0.20263">
        <ele>6.2</ele>
        <time>2022-05-31T17:16:37Z</time>
      </trkpt>
      <trkpt lat="49.28528" lon="-0.20265">
        <ele>6.4</ele>
        <time>2022-05-31T17:16:39Z</time>
      </trkpt>
      <trkpt lat="49.28528" lon="-0.20265">
        <ele>6.2</ele>
        <time>2022-05-31T17:16:40Z</time>
      </trkpt>
      <trkpt lat="49.28528" lon="-0.20266">
        <ele>6.4</ele>
        <time>2022-05-31T17:16:41Z</time>
      </trkpt>
      <trkpt lat="49.28528" lon="-0.20266">
        <ele>6.4</ele>
        <time>2022-05-31T17:16:42Z</time>
      </trkpt>
      <trkpt lat="49.28527" lon="-0.20265">
        <ele>6.4</ele>
        <time>2022-05-31T17:16:43Z</time>
      </trkpt>
      <trkpt lat="49.28527" lon="-0.20265">
        <ele>6.4</ele>
        <time>2022-05-31T17:16:44Z</time>
      </trkpt>
      <trkpt lat="49.28527" lon="-0.20264">
        <ele>6.4</ele>
        <time>2022-05-31T17:16:45Z</time>
      </trkpt>
      <trkpt lat="49.28527" lon="-0.20264">
        <ele>6.4</ele>
        <time>2022-05-31T17:16:46Z</time>
      </trkpt>
      <trkpt lat="49.28527" lon="-0.20264">
        <ele>6.4</ele>
        <time>2022-05-31T17:16:47Z</time>
      </trkpt>
      <trkpt lat="49.28526" lon="-0.20262">
        <ele>6.4</ele>
        <time>2022-05-31T17:16:48Z</time>
      </trkpt>
      <trkpt lat="49.28525" lon="-0.20263">
        <ele>6.4</ele>
        <time>2022-05-31T17:16:49Z</time>
      </trkpt>
      <trkpt lat="49.28525" lon="-0.20263">
        <ele>6.4</ele>
        <time>2022-05-31T17:16:50Z</time>
      </trkpt>
      <trkpt lat="49.28525" lon="-0.20263">
        <ele>6.6</ele>
        <time>2022-05-31T17:16:52Z</time>
      </trkpt>
      <trkpt lat="49.28524" lon="-0.20263">
        <ele>6.6</ele>
        <time>2022-05-31T17:16:53Z</time>
      </trkpt>
      <trkpt lat="49.28523" lon="-0.20263">
        <ele>6.6</ele>
        <time>2022-05-31T17:16:54Z</time>
      </trkpt>
      <trkpt lat="49.28523" lon="-0.20263">
        <ele>6.6</ele>
        <time>2022-05-31T17:16:55Z</time>
      </trkpt>
      <trkpt lat="49.28521" lon="-0.20263">
        <ele>6.7</ele>
        <time>2022-05-31T17:16:56Z</time>
      </trkpt>
      <trkpt lat="49.2852" lon="-0.20263">
        <ele>6.7</ele>
        <time>2022-05-31T17:16:57Z</time>
      </trkpt>
      <trkpt lat="49.28519" lon="-0.20263">
        <ele>6.7</ele>
        <time>2022-05-31T17:16:59Z</time>
      </trkpt>
      <trkpt lat="49.28519" lon="-0.20263">
        <ele>6.8</ele>
        <time>2022-05-31T17:17:00Z</time>
      </trkpt>
      <trkpt lat="49.28518" lon="-0.20262">
        <ele>6.8</ele>
        <time>2022-05-31T17:17:01Z</time>
      </trkpt>
      <trkpt lat="49.28518" lon="-0.20261">
        <ele>6.8</ele>
        <time>2022-05-31T17:17:02Z</time>
      </trkpt>
      <trkpt lat="49.2852" lon="-0.20259">
        <ele>6.6</ele>
        <time>2022-05-31T17:17:04Z</time>
      </trkpt>
      <trkpt lat="49.2852" lon="-0.20259">
        <ele>6.6</ele>
        <time>2022-05-31T17:17:05Z</time>
      </trkpt>
      <trkpt lat="49.2852" lon="-0.20258">
        <ele>6.6</ele>
        <time>2022-05-31T17:17:06Z</time>
      </trkpt>
      <trkpt lat="49.28521" lon="-0.20257">
        <ele>6.6</ele>
        <time>2022-05-31T17:17:07Z</time>
      </trkpt>
      <trkpt lat="49.28521" lon="-0.20257">
        <ele>6.6</ele>
        <time>2022-05-31T17:17:08Z</time>
      </trkpt>
      <trkpt lat="49.28521" lon="-0.20256">
        <ele>6.5</ele>
        <time>2022-05-31T17:17:09Z</time>
      </trkpt>
      <trkpt lat="49.28522" lon="-0.20255">
        <ele>6.5</ele>
        <time>2022-05-31T17:17:10Z</time>
      </trkpt>
      <trkpt lat="49.28522" lon="-0.20254">
        <ele>6.5</ele>
        <time>2022-05-31T17:17:11Z</time>
      </trkpt>
      <trkpt lat="49.28522" lon="-0.20254">
        <ele>6.4</ele>
        <time>2022-05-31T17:17:12Z</time>
      </trkpt>
      <trkpt lat="49.28523" lon="-0.20253">
        <ele>6.4</ele>
        <time>2022-05-31T17:17:13Z</time>
      </trkpt>
      <trkpt lat="49.28523" lon="-0.20252">
        <ele>6.4</ele>
        <time>2022-05-31T17:17:14Z</time>
      </trkpt>
      <trkpt lat="49.28523" lon="-0.20252">
        <ele>6.3</ele>
        <time>2022-05-31T17:17:15Z</time>
      </trkpt>
      <trkpt lat="49.28523" lon="-0.20251">
        <ele>6.3</ele>
        <time>2022-05-31T17:17:16Z</time>
      </trkpt>
      <trkpt lat="49.28524" lon="-0.2025">
        <ele>6.3</ele>
        <time>2022-05-31T17:17:17Z</time>
      </trkpt>
      <trkpt lat="49.28524" lon="-0.2025">
        <ele>6.3</ele>
        <time>2022-05-31T17:17:18Z</time>
      </trkpt>
      <trkpt lat="49.28524" lon="-0.20249">
        <ele>6.3</ele>
        <time>2022-05-31T17:17:19Z</time>
      </trkpt>
      <trkpt lat="49.28524" lon="-0.20249">
        <ele>6.3</ele>
        <time>2022-05-31T17:17:20Z</time>
      </trkpt>
      <trkpt lat="49.28524" lon="-0.20249">
        <ele>6.3</ele>
        <time>2022-05-31T17:17:21Z</time>
      </trkpt>
      <trkpt lat="49.28524" lon="-0.20249">
        <ele>6.3</ele>
        <time>2022-05-31T17:17:22Z</time>
      </trkpt>
      <trkpt lat="49.28524" lon="-0.20249">
        <ele>6.3</ele>
        <time>2022-05-31T17:17:23Z</time>
      </trkpt>
      <trkpt lat="49.28524" lon="-0.20249">
        <ele>6.3</ele>
        <time>2022-05-31T17:17:24Z</time>
      </trkpt>
      <trkpt lat="49.28524" lon="-0.20249">
        <ele>6.3</ele>
        <time>2022-05-31T17:17:25Z</time>
      </trkpt>
      <trkpt lat="49.28524" lon="-0.20249">
        <ele>6.3</ele>
        <time>2022-05-31T17:17:26Z</time>
      </trkpt>
      <trkpt lat="49.28524" lon="-0.20249">
        <ele>6.3</ele>
        <time>2022-05-31T17:17:27Z</time>
      </trkpt>
      <trkpt lat="49.28524" lon="-0.20249">
        <ele>6.3</ele>
        <time>2022-05-31T17:17:28Z</time>
      </trkpt>
      <trkpt lat="49.28524" lon="-0.20249">
        <ele>6.3</ele>
        <time>2022-05-31T17:17:29Z</time>
      </trkpt>
      <trkpt lat="49.28524" lon="-0.20249">
        <ele>6.3</ele>
        <time>2022-05-31T17:17:30Z</time>
      </trkpt>
      <trkpt lat="49.28524" lon="-0.20252">
        <ele>6.3</ele>
        <time>2022-05-31T17:17:31Z</time>
      </trkpt>
      <trkpt lat="49.28525" lon="-0.20252">
        <ele>6.1</ele>
        <time>2022-05-31T17:17:32Z</time>
      </trkpt>
      <trkpt lat="49.28526" lon="-0.20251">
        <ele>6.1</ele>
        <time>2022-05-31T17:17:34Z</time>
      </trkpt>
      <trkpt lat="49.28527" lon="-0.20252">
        <ele>6.1</ele>
        <time>2022-05-31T17:17:35Z</time>
      </trkpt>
      <trkpt lat="49.28528" lon="-0.20252">
        <ele>6</ele>
        <time>2022-05-31T17:17:36Z</time>
      </trkpt>
      <trkpt lat="49.28529" lon="-0.20252">
        <ele>6</ele>
        <time>2022-05-31T17:17:37Z</time>
      </trkpt>
      <trkpt lat="49.2853" lon="-0.20256">
        <ele>5.8</ele>
        <time>2022-05-31T17:17:38Z</time>
      </trkpt>
      <trkpt lat="49.28531" lon="-0.20256">
        <ele>5.9</ele>
        <time>2022-05-31T17:17:40Z</time>
      </trkpt>
      <trkpt lat="49.28532" lon="-0.20257">
        <ele>5.9</ele>
        <time>2022-05-31T17:17:41Z</time>
      </trkpt>
      <trkpt lat="49.28533" lon="-0.20258">
        <ele>5.9</ele>
        <time>2022-05-31T17:17:42Z</time>
      </trkpt>
      <trkpt lat="49.28533" lon="-0.20258">
        <ele>5.6</ele>
        <time>2022-05-31T17:17:43Z</time>
      </trkpt>
      <trkpt lat="49.28533" lon="-0.20259">
        <ele>5.9</ele>
        <time>2022-05-31T17:17:44Z</time>
      </trkpt>
      <trkpt lat="49.28534" lon="-0.2026">
        <ele>5.6</ele>
        <time>2022-05-31T17:17:45Z</time>
      </trkpt>
      <trkpt lat="49.28534" lon="-0.2026">
        <ele>5.6</ele>
        <time>2022-05-31T17:17:46Z</time>
      </trkpt>
      <trkpt lat="49.28535" lon="-0.20261">
        <ele>5.6</ele>
        <time>2022-05-31T17:17:47Z</time>
      </trkpt>
      <trkpt lat="49.28536" lon="-0.20262">
        <ele>5.6</ele>
        <time>2022-05-31T17:17:48Z</time>
      </trkpt>
      <trkpt lat="49.28537" lon="-0.2026">
        <ele>5.3</ele>
        <time>2022-05-31T17:17:49Z</time>
      </trkpt>
      <trkpt lat="49.28538" lon="-0.2026">
        <ele>5.3</ele>
        <time>2022-05-31T17:17:50Z</time>
      </trkpt>
      <trkpt lat="49.28539" lon="-0.20261">
        <ele>5</ele>
        <time>2022-05-31T17:17:51Z</time>
      </trkpt>
      <trkpt lat="49.2854" lon="-0.20262">
        <ele>5</ele>
        <time>2022-05-31T17:17:52Z</time>
      </trkpt>
      <trkpt lat="49.2854" lon="-0.20268">
        <ele>5</ele>
        <time>2022-05-31T17:17:53Z</time>
      </trkpt>
      <trkpt lat="49.2854" lon="-0.20269">
        <ele>5.1</ele>
        <time>2022-05-31T17:17:55Z</time>
      </trkpt>
      <trkpt lat="49.2854" lon="-0.20269">
        <ele>5</ele>
        <time>2022-05-31T17:17:56Z</time>
      </trkpt>
      <trkpt lat="49.2854" lon="-0.20268">
        <ele>5</ele>
        <time>2022-05-31T17:17:57Z</time>
      </trkpt>
      <trkpt lat="49.28539" lon="-0.20268">
        <ele>5</ele>
        <time>2022-05-31T17:17:58Z</time>
      </trkpt>
      <trkpt lat="49.28539" lon="-0.20268">
        <ele>5</ele>
        <time>2022-05-31T17:17:59Z</time>
      </trkpt>
      <trkpt lat="49.28539" lon="-0.20267">
        <ele>5</ele>
        <time>2022-05-31T17:18:00Z</time>
      </trkpt>
      <trkpt lat="49.28539" lon="-0.20267">
        <ele>5</ele>
        <time>2022-05-31T17:18:01Z</time>
      </trkpt>
      <trkpt lat="49.28539" lon="-0.20267">
        <ele>5.4</ele>
        <time>2022-05-31T17:18:02Z</time>
      </trkpt>
      <trkpt lat="49.28539" lon="-0.20267">
        <ele>5.4</ele>
        <time>2022-05-31T17:18:03Z</time>
      </trkpt>
      <trkpt lat="49.28538" lon="-0.20266">
        <ele>5.4</ele>
        <time>2022-05-31T17:18:04Z</time>
      </trkpt>
      <trkpt lat="49.28538" lon="-0.20266">
        <ele>5.4</ele>
        <time>2022-05-31T17:18:05Z</time>
      </trkpt>
      <trkpt lat="49.28538" lon="-0.20266">
        <ele>5.4</ele>
        <time>2022-05-31T17:18:06Z</time>
      </trkpt>
      <trkpt lat="49.28538" lon="-0.20265">
        <ele>5.4</ele>
        <time>2022-05-31T17:18:07Z</time>
      </trkpt>
      <trkpt lat="49.28538" lon="-0.20265">
        <ele>5.4</ele>
        <time>2022-05-31T17:18:08Z</time>
      </trkpt>
      <trkpt lat="49.28538" lon="-0.20265">
        <ele>5.3</ele>
        <time>2022-05-31T17:18:09Z</time>
      </trkpt>
      <trkpt lat="49.28537" lon="-0.20264">
        <ele>5.3</ele>
        <time>2022-05-31T17:18:10Z</time>
      </trkpt>
      <trkpt lat="49.28537" lon="-0.20264">
        <ele>5.3</ele>
        <time>2022-05-31T17:18:11Z</time>
      </trkpt>
      <trkpt lat="49.28537" lon="-0.20264">
        <ele>5.3</ele>
        <time>2022-05-31T17:18:12Z</time>
      </trkpt>
      <trkpt lat="49.28537" lon="-0.20263">
        <ele>5.3</ele>
        <time>2022-05-31T17:18:13Z</time>
      </trkpt>
      <trkpt lat="49.28537" lon="-0.20263">
        <ele>5.3</ele>
        <time>2022-05-31T17:18:14Z</time>
      </trkpt>
      <trkpt lat="49.28537" lon="-0.20264">
        <ele>5.3</ele>
        <time>2022-05-31T17:18:15Z</time>
      </trkpt>
      <trkpt lat="49.28537" lon="-0.20264">
        <ele>5.3</ele>
        <time>2022-05-31T17:18:16Z</time>
      </trkpt>
      <trkpt lat="49.28538" lon="-0.20265">
        <ele>5.4</ele>
        <time>2022-05-31T17:18:17Z</time>
      </trkpt>
      <trkpt lat="49.28538" lon="-0.20266">
        <ele>5.4</ele>
        <time>2022-05-31T17:18:18Z</time>
      </trkpt>
      <trkpt lat="49.28538" lon="-0.20267">
        <ele>5.4</ele>
        <time>2022-05-31T17:18:19Z</time>
      </trkpt>
      <trkpt lat="49.28539" lon="-0.20267">
        <ele>5.4</ele>
        <time>2022-05-31T17:18:20Z</time>
      </trkpt>
      <trkpt lat="49.28539" lon="-0.20268">
        <ele>5</ele>
        <time>2022-05-31T17:18:21Z</time>
      </trkpt>
      <trkpt lat="49.28539" lon="-0.20269">
        <ele>5</ele>
        <time>2022-05-31T17:18:22Z</time>
      </trkpt>
      <trkpt lat="49.28539" lon="-0.2027">
        <ele>5.1</ele>
        <time>2022-05-31T17:18:23Z</time>
      </trkpt>
      <trkpt lat="49.2854" lon="-0.2027">
        <ele>5.1</ele>
        <time>2022-05-31T17:18:24Z</time>
      </trkpt>
      <trkpt lat="49.2854" lon="-0.20271">
        <ele>5.1</ele>
        <time>2022-05-31T17:18:25Z</time>
      </trkpt>
      <trkpt lat="49.28541" lon="-0.20272">
        <ele>5.1</ele>
        <time>2022-05-31T17:18:26Z</time>
      </trkpt>
      <trkpt lat="49.28542" lon="-0.20272">
        <ele>4.7</ele>
        <time>2022-05-31T17:18:27Z</time>
      </trkpt>
      <trkpt lat="49.28543" lon="-0.20272">
        <ele>4.7</ele>
        <time>2022-05-31T17:18:28Z</time>
      </trkpt>
      <trkpt lat="49.28543" lon="-0.20274">
        <ele>4.7</ele>
        <time>2022-05-31T17:18:29Z</time>
      </trkpt>
      <trkpt lat="49.28543" lon="-0.20275">
        <ele>4.7</ele>
        <time>2022-05-31T17:18:31Z</time>
      </trkpt>
      <trkpt lat="49.28543" lon="-0.20276">
        <ele>4.7</ele>
        <time>2022-05-31T17:18:32Z</time>
      </trkpt>
      <trkpt lat="49.28543" lon="-0.20277">
        <ele>4.7</ele>
        <time>2022-05-31T17:18:33Z</time>
      </trkpt>
      <trkpt lat="49.28542" lon="-0.2028">
        <ele>4.8</ele>
        <time>2022-05-31T17:18:34Z</time>
      </trkpt>
      <trkpt lat="49.28542" lon="-0.20281">
        <ele>4.8</ele>
        <time>2022-05-31T17:18:35Z</time>
      </trkpt>
      <trkpt lat="49.28542" lon="-0.20284">
        <ele>4.8</ele>
        <time>2022-05-31T17:18:36Z</time>
      </trkpt>
      <trkpt lat="49.28541" lon="-0.20285">
        <ele>5.1</ele>
        <time>2022-05-31T17:18:38Z</time>
      </trkpt>
      <trkpt lat="49.28541" lon="-0.20287">
        <ele>5.2</ele>
        <time>2022-05-31T17:18:39Z</time>
      </trkpt>
      <trkpt lat="49.28541" lon="-0.20288">
        <ele>5.2</ele>
        <time>2022-05-31T17:18:40Z</time>
      </trkpt>
      <trkpt lat="49.28541" lon="-0.2029">
        <ele>5.2</ele>
        <time>2022-05-31T17:18:41Z</time>
      </trkpt>
      <trkpt lat="49.28541" lon="-0.20292">
        <ele>5.2</ele>
        <time>2022-05-31T17:18:42Z</time>
      </trkpt>
      <trkpt lat="49.28541" lon="-0.20297">
        <ele>5.2</ele>
        <time>2022-05-31T17:18:43Z</time>
      </trkpt>
      <trkpt lat="49.28541" lon="-0.20298">
        <ele>5.2</ele>
        <time>2022-05-31T17:18:45Z</time>
      </trkpt>
      <trkpt lat="49.28541" lon="-0.20299">
        <ele>5.3</ele>
        <time>2022-05-31T17:18:46Z</time>
      </trkpt>
      <trkpt lat="49.2854" lon="-0.20301">
        <ele>5.3</ele>
        <time>2022-05-31T17:18:47Z</time>
      </trkpt>
      <trkpt lat="49.2854" lon="-0.20302">
        <ele>5.3</ele>
        <time>2022-05-31T17:18:48Z</time>
      </trkpt>
      <trkpt lat="49.28539" lon="-0.20306">
        <ele>5.3</ele>
        <time>2022-05-31T17:18:49Z</time>
      </trkpt>
      <trkpt lat="49.28538" lon="-0.20308">
        <ele>5.6</ele>
        <time>2022-05-31T17:18:51Z</time>
      </trkpt>
      <trkpt lat="49.28538" lon="-0.20309">
        <ele>5.6</ele>
        <time>2022-05-31T17:18:52Z</time>
      </trkpt>
      <trkpt lat="49.28537" lon="-0.2031">
        <ele>5.6</ele>
        <time>2022-05-31T17:18:53Z</time>
      </trkpt>
      <trkpt lat="49.28537" lon="-0.20311">
        <ele>5.6</ele>
        <time>2022-05-31T17:18:54Z</time>
      </trkpt>
      <trkpt lat="49.28537" lon="-0.20312">
        <ele>5.6</ele>
        <time>2022-05-31T17:18:55Z</time>
      </trkpt>
      <trkpt lat="49.28537" lon="-0.20313">
        <ele>5.7</ele>
        <time>2022-05-31T17:18:56Z</time>
      </trkpt>
      <trkpt lat="49.28536" lon="-0.20313">
        <ele>5.7</ele>
        <time>2022-05-31T17:18:57Z</time>
      </trkpt>
      <trkpt lat="49.28536" lon="-0.20315">
        <ele>5.7</ele>
        <time>2022-05-31T17:18:58Z</time>
      </trkpt>
      <trkpt lat="49.28537" lon="-0.20319">
        <ele>5.7</ele>
        <time>2022-05-31T17:18:59Z</time>
      </trkpt>
      <trkpt lat="49.28537" lon="-0.2032">
        <ele>5.7</ele>
        <time>2022-05-31T17:19:00Z</time>
      </trkpt>
      <trkpt lat="49.28537" lon="-0.20323">
        <ele>5.7</ele>
        <time>2022-05-31T17:19:01Z</time>
      </trkpt>
      <trkpt lat="49.28538" lon="-0.20324">
        <ele>5.7</ele>
        <time>2022-05-31T17:19:03Z</time>
      </trkpt>
      <trkpt lat="49.28538" lon="-0.20325">
        <ele>5.7</ele>
        <time>2022-05-31T17:19:04Z</time>
      </trkpt>
      <trkpt lat="49.28538" lon="-0.20325">
        <ele>5.7</ele>
        <time>2022-05-31T17:19:05Z</time>
      </trkpt>
      <trkpt lat="49.28538" lon="-0.20324">
        <ele>5.7</ele>
        <time>2022-05-31T17:19:06Z</time>
      </trkpt>
      <trkpt lat="49.28538" lon="-0.20324">
        <ele>5.7</ele>
        <time>2022-05-31T17:19:08Z</time>
      </trkpt>
      <trkpt lat="49.28539" lon="-0.20323">
        <ele>5.7</ele>
        <time>2022-05-31T17:19:09Z</time>
      </trkpt>
      <trkpt lat="49.28539" lon="-0.20322">
        <ele>5.7</ele>
        <time>2022-05-31T17:19:10Z</time>
      </trkpt>
      <trkpt lat="49.28539" lon="-0.20322">
        <ele>5.4</ele>
        <time>2022-05-31T17:19:11Z</time>
      </trkpt>
      <trkpt lat="49.28539" lon="-0.20321">
        <ele>5.4</ele>
        <time>2022-05-31T17:19:12Z</time>
      </trkpt>
      <trkpt lat="49.28539" lon="-0.2032">
        <ele>5.4</ele>
        <time>2022-05-31T17:19:13Z</time>
      </trkpt>
      <trkpt lat="49.28539" lon="-0.2032">
        <ele>5.4</ele>
        <time>2022-05-31T17:19:14Z</time>
      </trkpt>
      <trkpt lat="49.2854" lon="-0.20318">
        <ele>5.4</ele>
        <time>2022-05-31T17:19:15Z</time>
      </trkpt>
      <trkpt lat="49.2854" lon="-0.20317">
        <ele>5.4</ele>
        <time>2022-05-31T17:19:16Z</time>
      </trkpt>
      <trkpt lat="49.28541" lon="-0.20315">
        <ele>5.3</ele>
        <time>2022-05-31T17:19:18Z</time>
      </trkpt>
      <trkpt lat="49.28542" lon="-0.20314">
        <ele>5</ele>
        <time>2022-05-31T17:19:19Z</time>
      </trkpt>
      <trkpt lat="49.28542" lon="-0.20313">
        <ele>5</ele>
        <time>2022-05-31T17:19:20Z</time>
      </trkpt>
      <trkpt lat="49.28543" lon="-0.20312">
        <ele>5</ele>
        <time>2022-05-31T17:19:21Z</time>
      </trkpt>
      <trkpt lat="49.28544" lon="-0.2031">
        <ele>5</ele>
        <time>2022-05-31T17:19:23Z</time>
      </trkpt>
      <trkpt lat="49.28545" lon="-0.20307">
        <ele>4.5</ele>
        <time>2022-05-31T17:19:24Z</time>
      </trkpt>
      <trkpt lat="49.28546" lon="-0.20307">
        <ele>4.5</ele>
        <time>2022-05-31T17:19:25Z</time>
      </trkpt>
      <trkpt lat="49.28547" lon="-0.20306">
        <ele>4.5</ele>
        <time>2022-05-31T17:19:26Z</time>
      </trkpt>
      <trkpt lat="49.28548" lon="-0.20305">
        <ele>4.1</ele>
        <time>2022-05-31T17:19:28Z</time>
      </trkpt>
      <trkpt lat="49.28549" lon="-0.20304">
        <ele>4.1</ele>
        <time>2022-05-31T17:19:29Z</time>
      </trkpt>
      <trkpt lat="49.28549" lon="-0.20304">
        <ele>4.1</ele>
        <time>2022-05-31T17:19:30Z</time>
      </trkpt>
      <trkpt lat="49.2855" lon="-0.20304">
        <ele>3.7</ele>
        <time>2022-05-31T17:19:31Z</time>
      </trkpt>
      <trkpt lat="49.28551" lon="-0.20304">
        <ele>3.7</ele>
        <time>2022-05-31T17:19:32Z</time>
      </trkpt>
      <trkpt lat="49.28552" lon="-0.20304">
        <ele>3.7</ele>
        <time>2022-05-31T17:19:33Z</time>
      </trkpt>
      <trkpt lat="49.28553" lon="-0.20304">
        <ele>3.3</ele>
        <time>2022-05-31T17:19:34Z</time>
      </trkpt>
      <trkpt lat="49.28555" lon="-0.20305">
        <ele>3.3</ele>
        <time>2022-05-31T17:19:35Z</time>
      </trkpt>
      <trkpt lat="49.28557" lon="-0.20305">
        <ele>2.9</ele>
        <time>2022-05-31T17:19:36Z</time>
      </trkpt>
      <trkpt lat="49.28558" lon="-0.20306">
        <ele>2.9</ele>
        <time>2022-05-31T17:19:37Z</time>
      </trkpt>
      <trkpt lat="49.28558" lon="-0.20306">
        <ele>2.9</ele>
        <time>2022-05-31T17:19:38Z</time>
      </trkpt>
      <trkpt lat="49.2856" lon="-0.20307">
        <ele>2.4</ele>
        <time>2022-05-31T17:19:40Z</time>
      </trkpt>
      <trkpt lat="49.28561" lon="-0.20308">
        <ele>2.4</ele>
        <time>2022-05-31T17:19:41Z</time>
      </trkpt>
      <trkpt lat="49.28562" lon="-0.20308">
        <ele>2</ele>
        <time>2022-05-31T17:19:42Z</time>
      </trkpt>
      <trkpt lat="49.28564" lon="-0.20308">
        <ele>2</ele>
        <time>2022-05-31T17:19:43Z</time>
      </trkpt>
      <trkpt lat="49.28565" lon="-0.20309">
        <ele>1.6</ele>
        <time>2022-05-31T17:19:44Z</time>
      </trkpt>
      <trkpt lat="49.28566" lon="-0.2031">
        <ele>1.6</ele>
        <time>2022-05-31T17:19:45Z</time>
      </trkpt>
      <trkpt lat="49.28567" lon="-0.20311">
        <ele>1.2</ele>
        <time>2022-05-31T17:19:47Z</time>
      </trkpt>
      <trkpt lat="49.28569" lon="-0.20312">
        <ele>1.2</ele>
        <time>2022-05-31T17:19:48Z</time>
      </trkpt>
      <trkpt lat="49.28571" lon="-0.20313">
        <ele>0.9</ele>
        <time>2022-05-31T17:19:49Z</time>
      </trkpt>
      <trkpt lat="49.28573" lon="-0.20313">
        <ele>0.6</ele>
        <time>2022-05-31T17:19:50Z</time>
      </trkpt>
      <trkpt lat="49.28575" lon="-0.20314">
        <ele>0.3</ele>
        <time>2022-05-31T17:19:51Z</time>
      </trkpt>
      <trkpt lat="49.28576" lon="-0.20315">
        <ele>0.3</ele>
        <time>2022-05-31T17:19:52Z</time>
      </trkpt>
      <trkpt lat="49.28579" lon="-0.20316">
        <ele>7.5</ele>
        <time>2022-05-31T17:19:54Z</time>
      </trkpt>
      <trkpt lat="49.2858" lon="-0.20316">
        <ele>7.5</ele>
        <time>2022-05-31T17:19:55Z</time>
      </trkpt>
      <trkpt lat="49.28583" lon="-0.20317">
        <ele>-0.3</ele>
        <time>2022-05-31T17:19:56Z</time>
      </trkpt>
      <trkpt lat="49.28584" lon="-0.20317">
        <ele>-0.5</ele>
        <time>2022-05-31T17:19:57Z</time>
      </trkpt>
      <trkpt lat="49.28585" lon="-0.20317">
        <ele>-0.5</ele>
        <time>2022-05-31T17:19:58Z</time>
      </trkpt>
      <trkpt lat="49.28587" lon="-0.20317">
        <ele>-0.7</ele>
        <time>2022-05-31T17:19:59Z</time>
      </trkpt>
      <trkpt lat="49.28589" lon="-0.20317">
        <ele>-0.9</ele>
        <time>2022-05-31T17:20:00Z</time>
      </trkpt>
      <trkpt lat="49.2859" lon="-0.20317">
        <ele>-0.9</ele>
        <time>2022-05-31T17:20:02Z</time>
      </trkpt>
      <trkpt lat="49.28591" lon="-0.20317">
        <ele>-0.9</ele>
        <time>2022-05-31T17:20:03Z</time>
      </trkpt>
      <trkpt lat="49.28593" lon="-0.20317">
        <ele>-1</ele>
        <time>2022-05-31T17:20:04Z</time>
      </trkpt>
      <trkpt lat="49.28594" lon="-0.20317">
        <ele>-1</ele>
        <time>2022-05-31T17:20:05Z</time>
      </trkpt>
      <trkpt lat="49.28597" lon="-0.20316">
        <ele>-1</ele>
        <time>2022-05-31T17:20:06Z</time>
      </trkpt>
      <trkpt lat="49.28598" lon="-0.20316">
        <ele>-1.1</ele>
        <time>2022-05-31T17:20:08Z</time>
      </trkpt>
      <trkpt lat="49.28599" lon="-0.20316">
        <ele>-1.1</ele>
        <time>2022-05-31T17:20:09Z</time>
      </trkpt>
      <trkpt lat="49.286" lon="-0.20315">
        <ele>-1.1</ele>
        <time>2022-05-31T17:20:10Z</time>
      </trkpt>
      <trkpt lat="49.28601" lon="-0.20315">
        <ele>-1.2</ele>
        <time>2022-05-31T17:20:11Z</time>
      </trkpt>
      <trkpt lat="49.28602" lon="-0.20315">
        <ele>-1.2</ele>
        <time>2022-05-31T17:20:12Z</time>
      </trkpt>
      <trkpt lat="49.28603" lon="-0.20315">
        <ele>-1.2</ele>
        <time>2022-05-31T17:20:13Z</time>
      </trkpt>
      <trkpt lat="49.28604" lon="-0.20315">
        <ele>-1.2</ele>
        <time>2022-05-31T17:20:15Z</time>
      </trkpt>
      <trkpt lat="49.28604" lon="-0.20316">
        <ele>-1.2</ele>
        <time>2022-05-31T17:20:16Z</time>
      </trkpt>
      <trkpt lat="49.28604" lon="-0.20316">
        <ele>-1.2</ele>
        <time>2022-05-31T17:20:17Z</time>
      </trkpt>
      <trkpt lat="49.28604" lon="-0.20315">
        <ele>-1.2</ele>
        <time>2022-05-31T17:20:18Z</time>
      </trkpt>
      <trkpt lat="49.28604" lon="-0.20315">
        <ele>-1.2</ele>
        <time>2022-05-31T17:20:19Z</time>
      </trkpt>
      <trkpt lat="49.28605" lon="-0.20314">
        <ele>-1.2</ele>
        <time>2022-05-31T17:20:21Z</time>
      </trkpt>
      <trkpt lat="49.28606" lon="-0.20314">
        <ele>-1.2</ele>
        <time>2022-05-31T17:20:22Z</time>
      </trkpt>
      <trkpt lat="49.28606" lon="-0.20313">
        <ele>-1.2</ele>
        <time>2022-05-31T17:20:23Z</time>
      </trkpt>
      <trkpt lat="49.28607" lon="-0.20313">
        <ele>-1.2</ele>
        <time>2022-05-31T17:20:24Z</time>
      </trkpt>
      <trkpt lat="49.28608" lon="-0.20312">
        <ele>-1.2</ele>
        <time>2022-05-31T17:20:25Z</time>
      </trkpt>
      <trkpt lat="49.28609" lon="-0.20311">
        <ele>-1.2</ele>
        <time>2022-05-31T17:20:27Z</time>
      </trkpt>
      <trkpt lat="49.2861" lon="-0.2031">
        <ele>-1.2</ele>
        <time>2022-05-31T17:20:28Z</time>
      </trkpt>
      <trkpt lat="49.2861" lon="-0.20307">
        <ele>-1.2</ele>
        <time>2022-05-31T17:20:29Z</time>
      </trkpt>
      <trkpt lat="49.2861" lon="-0.20307">
        <ele>-1.2</ele>
        <time>2022-05-31T17:20:30Z</time>
      </trkpt>
      <trkpt lat="49.2861" lon="-0.20307">
        <ele>-1.2</ele>
        <time>2022-05-31T17:20:31Z</time>
      </trkpt>
      <trkpt lat="49.2861" lon="-0.20308">
        <ele>-1.2</ele>
        <time>2022-05-31T17:20:32Z</time>
      </trkpt>
      <trkpt lat="49.2861" lon="-0.20308">
        <ele>-1.2</ele>
        <time>2022-05-31T17:20:33Z</time>
      </trkpt>
      <trkpt lat="49.28609" lon="-0.20308">
        <ele>-1.2</ele>
        <time>2022-05-31T17:20:34Z</time>
      </trkpt>
      <trkpt lat="49.28609" lon="-0.20308">
        <ele>-1.2</ele>
        <time>2022-05-31T17:20:35Z</time>
      </trkpt>
      <trkpt lat="49.28609" lon="-0.20308">
        <ele>-1.2</ele>
        <time>2022-05-31T17:20:36Z</time>
      </trkpt>
      <trkpt lat="49.28609" lon="-0.20308">
        <ele>-1.2</ele>
        <time>2022-05-31T17:20:37Z</time>
      </trkpt>
      <trkpt lat="49.28609" lon="-0.20308">
        <ele>-1.2</ele>
        <time>2022-05-31T17:20:38Z</time>
      </trkpt>
      <trkpt lat="49.28608" lon="-0.20308">
        <ele>-1.2</ele>
        <time>2022-05-31T17:20:39Z</time>
      </trkpt>
      <trkpt lat="49.28608" lon="-0.20308">
        <ele>-1.2</ele>
        <time>2022-05-31T17:20:40Z</time>
      </trkpt>
      <trkpt lat="49.28608" lon="-0.20308">
        <ele>-1.2</ele>
        <time>2022-05-31T17:20:41Z</time>
      </trkpt>
      <trkpt lat="49.28608" lon="-0.20309">
        <ele>-1.2</ele>
        <time>2022-05-31T17:20:42Z</time>
      </trkpt>
      <trkpt lat="49.28607" lon="-0.20309">
        <ele>-1.2</ele>
        <time>2022-05-31T17:20:43Z</time>
      </trkpt>
      <trkpt lat="49.28607" lon="-0.20309">
        <ele>-1.2</ele>
        <time>2022-05-31T17:20:44Z</time>
      </trkpt>
      <trkpt lat="49.28607" lon="-0.20309">
        <ele>-1.2</ele>
        <time>2022-05-31T17:20:45Z</time>
      </trkpt>
      <trkpt lat="49.28607" lon="-0.20309">
        <ele>-1.2</ele>
        <time>2022-05-31T17:20:46Z</time>
      </trkpt>
      <trkpt lat="49.28607" lon="-0.20309">
        <ele>-1.2</ele>
        <time>2022-05-31T17:20:47Z</time>
      </trkpt>
      <trkpt lat="49.28606" lon="-0.20309">
        <ele>-1.2</ele>
        <time>2022-05-31T17:20:48Z</time>
      </trkpt>
      <trkpt lat="49.28606" lon="-0.20309">
        <ele>-1.2</ele>
        <time>2022-05-31T17:20:49Z</time>
      </trkpt>
      <trkpt lat="49.28606" lon="-0.20309">
        <ele>-1.2</ele>
        <time>2022-05-31T17:20:50Z</time>
      </trkpt>
      <trkpt lat="49.28606" lon="-0.20309">
        <ele>-1.2</ele>
        <time>2022-05-31T17:20:51Z</time>
      </trkpt>
      <trkpt lat="49.28604" lon="-0.20309">
        <ele>-1.2</ele>
        <time>2022-05-31T17:20:53Z</time>
      </trkpt>
      <trkpt lat="49.28603" lon="-0.20309">
        <ele>-1.2</ele>
        <time>2022-05-31T17:20:54Z</time>
      </trkpt>
      <trkpt lat="49.28601" lon="-0.20309">
        <ele>-1.2</ele>
        <time>2022-05-31T17:20:55Z</time>
      </trkpt>
      <trkpt lat="49.28599" lon="-0.20309">
        <ele>-1.1</ele>
        <time>2022-05-31T17:20:56Z</time>
      </trkpt>
      <trkpt lat="49.28598" lon="-0.20309">
        <ele>-1</ele>
        <time>2022-05-31T17:20:57Z</time>
      </trkpt>
      <trkpt lat="49.28596" lon="-0.20309">
        <ele>-1</ele>
        <time>2022-05-31T17:20:59Z</time>
      </trkpt>
      <trkpt lat="49.28593" lon="-0.2031">
        <ele>-1</ele>
        <time>2022-05-31T17:21:00Z</time>
      </trkpt>
      <trkpt lat="49.28591" lon="-0.2031">
        <ele>-0.9</ele>
        <time>2022-05-31T17:21:01Z</time>
      </trkpt>
      <trkpt lat="49.2859" lon="-0.2031">
        <ele>-0.9</ele>
        <time>2022-05-31T17:21:02Z</time>
      </trkpt>
      <trkpt lat="49.28587" lon="-0.2031">
        <ele>-0.7</ele>
        <time>2022-05-31T17:21:04Z</time>
      </trkpt>
      <trkpt lat="49.28586" lon="-0.2031">
        <ele>-0.5</ele>
        <time>2022-05-31T17:21:05Z</time>
      </trkpt>
      <trkpt lat="49.28584" lon="-0.20311">
        <ele>-0.5</ele>
        <time>2022-05-31T17:21:06Z</time>
      </trkpt>
      <trkpt lat="49.28583" lon="-0.20311">
        <ele>-0.3</ele>
        <time>2022-05-31T17:21:07Z</time>
      </trkpt>
      <trkpt lat="49.28582" lon="-0.20311">
        <ele>-0.3</ele>
        <time>2022-05-31T17:21:08Z</time>
      </trkpt>
      <trkpt lat="49.28579" lon="-0.20314">
        <ele>7.4</ele>
        <time>2022-05-31T17:21:10Z</time>
      </trkpt>
      <trkpt lat="49.28578" lon="-0.20314">
        <ele>7.4</ele>
        <time>2022-05-31T17:21:11Z</time>
      </trkpt>
      <trkpt lat="49.28577" lon="-0.20315">
        <ele>0.3</ele>
        <time>2022-05-31T17:21:12Z</time>
      </trkpt>
      <trkpt lat="49.28576" lon="-0.20315">
        <ele>0.3</ele>
        <time>2022-05-31T17:21:13Z</time>
      </trkpt>
      <trkpt lat="49.28576" lon="-0.20315">
        <ele>0.3</ele>
        <time>2022-05-31T17:21:14Z</time>
      </trkpt>
      <trkpt lat="49.28574" lon="-0.20316">
        <ele>0.6</ele>
        <time>2022-05-31T17:21:15Z</time>
      </trkpt>
      <trkpt lat="49.28574" lon="-0.20316">
        <ele>0.6</ele>
        <time>2022-05-31T17:21:16Z</time>
      </trkpt>
      <trkpt lat="49.28574" lon="-0.20316">
        <ele>0.6</ele>
        <time>2022-05-31T17:21:17Z</time>
      </trkpt>
      <trkpt lat="49.28574" lon="-0.20316">
        <ele>0.6</ele>
        <time>2022-05-31T17:21:18Z</time>
      </trkpt>
      <trkpt lat="49.28575" lon="-0.20316">
        <ele>0.6</ele>
        <time>2022-05-31T17:21:19Z</time>
      </trkpt>
      <trkpt lat="49.28575" lon="-0.20316">
        <ele>0.3</ele>
        <time>2022-05-31T17:21:20Z</time>
      </trkpt>
      <trkpt lat="49.28575" lon="-0.20316">
        <ele>0.3</ele>
        <time>2022-05-31T17:21:21Z</time>
      </trkpt>
      <trkpt lat="49.28576" lon="-0.20316">
        <ele>0.3</ele>
        <time>2022-05-31T17:21:22Z</time>
      </trkpt>
      <trkpt lat="49.28573" lon="-0.20317">
        <ele>0.6</ele>
        <time>2022-05-31T17:21:23Z</time>
      </trkpt>
      <trkpt lat="49.28573" lon="-0.20317">
        <ele>0.6</ele>
        <time>2022-05-31T17:21:24Z</time>
      </trkpt>
      <trkpt lat="49.28573" lon="-0.20317">
        <ele>0.6</ele>
        <time>2022-05-31T17:21:25Z</time>
      </trkpt>
      <trkpt lat="49.28573" lon="-0.20317">
        <ele>0.6</ele>
        <time>2022-05-31T17:21:26Z</time>
      </trkpt>
      <trkpt lat="49.28574" lon="-0.20317">
        <ele>0.6</ele>
        <time>2022-05-31T17:21:27Z</time>
      </trkpt>
      <trkpt lat="49.28574" lon="-0.20317">
        <ele>0.6</ele>
        <time>2022-05-31T17:21:28Z</time>
      </trkpt>
      <trkpt lat="49.28574" lon="-0.20317">
        <ele>0.6</ele>
        <time>2022-05-31T17:21:29Z</time>
      </trkpt>
      <trkpt lat="49.28574" lon="-0.20317">
        <ele>0.6</ele>
        <time>2022-05-31T17:21:31Z</time>
      </trkpt>
      <trkpt lat="49.28574" lon="-0.20317">
        <ele>0.6</ele>
        <time>2022-05-31T17:21:32Z</time>
      </trkpt>
      <trkpt lat="49.28574" lon="-0.20317">
        <ele>0.6</ele>
        <time>2022-05-31T17:21:33Z</time>
      </trkpt>
      <trkpt lat="49.28574" lon="-0.20317">
        <ele>0.6</ele>
        <time>2022-05-31T17:21:34Z</time>
      </trkpt>
      <trkpt lat="49.28574" lon="-0.20317">
        <ele>0.6</ele>
        <time>2022-05-31T17:21:35Z</time>
      </trkpt>
      <trkpt lat="49.28574" lon="-0.20317">
        <ele>0.6</ele>
        <time>2022-05-31T17:21:36Z</time>
      </trkpt>
      <trkpt lat="49.28573" lon="-0.20317">
        <ele>0.6</ele>
        <time>2022-05-31T17:21:37Z</time>
      </trkpt>
      <trkpt lat="49.28572" lon="-0.20316">
        <ele>0.9</ele>
        <time>2022-05-31T17:21:39Z</time>
      </trkpt>
      <trkpt lat="49.28571" lon="-0.20315">
        <ele>0.9</ele>
        <time>2022-05-31T17:21:40Z</time>
      </trkpt>
      <trkpt lat="49.2857" lon="-0.20315">
        <ele>0.9</ele>
        <time>2022-05-31T17:21:41Z</time>
      </trkpt>
      <trkpt lat="49.28569" lon="-0.20314">
        <ele>1.3</ele>
        <time>2022-05-31T17:21:42Z</time>
      </trkpt>
      <trkpt lat="49.28568" lon="-0.20312">
        <ele>1.3</ele>
        <time>2022-05-31T17:21:43Z</time>
      </trkpt>
      <trkpt lat="49.28567" lon="-0.20309">
        <ele>1.2</ele>
        <time>2022-05-31T17:21:44Z</time>
      </trkpt>
      <trkpt lat="49.28567" lon="-0.20307">
        <ele>1.6</ele>
        <time>2022-05-31T17:21:45Z</time>
      </trkpt>
      <trkpt lat="49.28566" lon="-0.20305">
        <ele>1.6</ele>
        <time>2022-05-31T17:21:46Z</time>
      </trkpt>
      <trkpt lat="49.28566" lon="-0.20305">
        <ele>1.6</ele>
        <time>2022-05-31T17:21:47Z</time>
      </trkpt>
      <trkpt lat="49.28567" lon="-0.203">
        <ele>1.2</ele>
        <time>2022-05-31T17:21:48Z</time>
      </trkpt>
      <trkpt lat="49.28568" lon="-0.20298">
        <ele>1.2</ele>
        <time>2022-05-31T17:21:49Z</time>
      </trkpt>
      <trkpt lat="49.28568" lon="-0.20297">
        <ele>1.2</ele>
        <time>2022-05-31T17:21:51Z</time>
      </trkpt>
      <trkpt lat="49.28567" lon="-0.20297">
        <ele>1.6</ele>
        <time>2022-05-31T17:21:52Z</time>
      </trkpt>
      <trkpt lat="49.28566" lon="-0.20296">
        <ele>1.6</ele>
        <time>2022-05-31T17:21:53Z</time>
      </trkpt>
      <trkpt lat="49.28565" lon="-0.20295">
        <ele>1.5</ele>
        <time>2022-05-31T17:21:54Z</time>
      </trkpt>
      <trkpt lat="49.28565" lon="-0.20294">
        <ele>1.5</ele>
        <time>2022-05-31T17:21:55Z</time>
      </trkpt>
      <trkpt lat="49.28565" lon="-0.20294">
        <ele>1.5</ele>
        <time>2022-05-31T17:21:56Z</time>
      </trkpt>
      <trkpt lat="49.28565" lon="-0.20294">
        <ele>1.5</ele>
        <time>2022-05-31T17:21:57Z</time>
      </trkpt>
      <trkpt lat="49.28565" lon="-0.20293">
        <ele>1.5</ele>
        <time>2022-05-31T17:21:58Z</time>
      </trkpt>
      <trkpt lat="49.28565" lon="-0.20293">
        <ele>1.5</ele>
        <time>2022-05-31T17:21:59Z</time>
      </trkpt>
      <trkpt lat="49.28565" lon="-0.20293">
        <ele>1.5</ele>
        <time>2022-05-31T17:22:00Z</time>
      </trkpt>
      <trkpt lat="49.28564" lon="-0.20293">
        <ele>1.5</ele>
        <time>2022-05-31T17:22:01Z</time>
      </trkpt>
      <trkpt lat="49.28564" lon="-0.20292">
        <ele>1.5</ele>
        <time>2022-05-31T17:22:02Z</time>
      </trkpt>
      <trkpt lat="49.28564" lon="-0.20292">
        <ele>1.5</ele>
        <time>2022-05-31T17:22:03Z</time>
      </trkpt>
      <trkpt lat="49.28564" lon="-0.20292">
        <ele>1.5</ele>
        <time>2022-05-31T17:22:04Z</time>
      </trkpt>
      <trkpt lat="49.28564" lon="-0.20292">
        <ele>1.5</ele>
        <time>2022-05-31T17:22:05Z</time>
      </trkpt>
      <trkpt lat="49.28564" lon="-0.20291">
        <ele>1.9</ele>
        <time>2022-05-31T17:22:07Z</time>
      </trkpt>
      <trkpt lat="49.28564" lon="-0.20291">
        <ele>1.9</ele>
        <time>2022-05-31T17:22:08Z</time>
      </trkpt>
      <trkpt lat="49.28563" lon="-0.20289">
        <ele>1.9</ele>
        <time>2022-05-31T17:22:09Z</time>
      </trkpt>
      <trkpt lat="49.28563" lon="-0.20288">
        <ele>1.9</ele>
        <time>2022-05-31T17:22:10Z</time>
      </trkpt>
      <trkpt lat="49.28562" lon="-0.20286">
        <ele>1.9</ele>
        <time>2022-05-31T17:22:11Z</time>
      </trkpt>
      <trkpt lat="49.28562" lon="-0.20286">
        <ele>1.9</ele>
        <time>2022-05-31T17:22:12Z</time>
      </trkpt>
      <trkpt lat="49.28561" lon="-0.20289">
        <ele>2.3</ele>
        <time>2022-05-31T17:22:14Z</time>
      </trkpt>
      <trkpt lat="49.2856" lon="-0.20288">
        <ele>2.3</ele>
        <time>2022-05-31T17:22:15Z</time>
      </trkpt>
      <trkpt lat="49.2856" lon="-0.20286">
        <ele>2.3</ele>
        <time>2022-05-31T17:22:16Z</time>
      </trkpt>
      <trkpt lat="49.2856" lon="-0.20285">
        <ele>2.3</ele>
        <time>2022-05-31T17:22:17Z</time>
      </trkpt>
      <trkpt lat="49.28561" lon="-0.20283">
        <ele>2.3</ele>
        <time>2022-05-31T17:22:18Z</time>
      </trkpt>
      <trkpt lat="49.2856" lon="-0.20282">
        <ele>2.3</ele>
        <time>2022-05-31T17:22:19Z</time>
      </trkpt>
      <trkpt lat="49.2856" lon="-0.20281">
        <ele>2.3</ele>
        <time>2022-05-31T17:22:20Z</time>
      </trkpt>
      <trkpt lat="49.2856" lon="-0.20279">
        <ele>2.3</ele>
        <time>2022-05-31T17:22:22Z</time>
      </trkpt>
      <trkpt lat="49.2856" lon="-0.20277">
        <ele>2.3</ele>
        <time>2022-05-31T17:22:23Z</time>
      </trkpt>
      <trkpt lat="49.2856" lon="-0.20275">
        <ele>2.3</ele>
        <time>2022-05-31T17:22:24Z</time>
      </trkpt>
      <trkpt lat="49.28559" lon="-0.20273">
        <ele>2.2</ele>
        <time>2022-05-31T17:22:25Z</time>
      </trkpt>
      <trkpt lat="49.28559" lon="-0.20272">
        <ele>2.2</ele>
        <time>2022-05-31T17:22:26Z</time>
      </trkpt>
      <trkpt lat="49.28558" lon="-0.2027">
        <ele>2.7</ele>
        <time>2022-05-31T17:22:27Z</time>
      </trkpt>
      <trkpt lat="49.28556" lon="-0.20267">
        <ele>2.6</ele>
        <time>2022-05-31T17:22:29Z</time>
      </trkpt>
      <trkpt lat="49.28555" lon="-0.20268">
        <ele>3.1</ele>
        <time>2022-05-31T17:22:30Z</time>
      </trkpt>
      <trkpt lat="49.28555" lon="-0.20269">
        <ele>3.1</ele>
        <time>2022-05-31T17:22:31Z</time>
      </trkpt>
      <trkpt lat="49.28554" lon="-0.20269">
        <ele>3.1</ele>
        <time>2022-05-31T17:22:32Z</time>
      </trkpt>
      <trkpt lat="49.28554" lon="-0.2027">
        <ele>3.1</ele>
        <time>2022-05-31T17:22:33Z</time>
      </trkpt>
      <trkpt lat="49.28553" lon="-0.2027">
        <ele>3.1</ele>
        <time>2022-05-31T17:22:34Z</time>
      </trkpt>
      <trkpt lat="49.28552" lon="-0.20271">
        <ele>3.5</ele>
        <time>2022-05-31T17:22:36Z</time>
      </trkpt>
      <trkpt lat="49.28551" lon="-0.2027">
        <ele>3.5</ele>
        <time>2022-05-31T17:22:37Z</time>
      </trkpt>
      <trkpt lat="49.2855" lon="-0.20269">
        <ele>3.9</ele>
        <time>2022-05-31T17:22:38Z</time>
      </trkpt>
      <trkpt lat="49.28549" lon="-0.20268">
        <ele>3.9</ele>
        <time>2022-05-31T17:22:39Z</time>
      </trkpt>
      <trkpt lat="49.28547" lon="-0.20268">
        <ele>3.9</ele>
        <time>2022-05-31T17:22:40Z</time>
      </trkpt>
      <trkpt lat="49.28546" lon="-0.20267">
        <ele>4.3</ele>
        <time>2022-05-31T17:22:41Z</time>
      </trkpt>
      <trkpt lat="49.28545" lon="-0.20266">
        <ele>4.3</ele>
        <time>2022-05-31T17:22:43Z</time>
      </trkpt>
      <trkpt lat="49.28543" lon="-0.20266">
        <ele>4.7</ele>
        <time>2022-05-31T17:22:44Z</time>
      </trkpt>
      <trkpt lat="49.28541" lon="-0.20265">
        <ele>5</ele>
        <time>2022-05-31T17:22:45Z</time>
      </trkpt>
      <trkpt lat="49.28539" lon="-0.20265">
        <ele>5</ele>
        <time>2022-05-31T17:22:46Z</time>
      </trkpt>
      <trkpt lat="49.28538" lon="-0.20265">
        <ele>5.4</ele>
        <time>2022-05-31T17:22:47Z</time>
      </trkpt>
      <trkpt lat="49.28537" lon="-0.20265">
        <ele>5.4</ele>
        <time>2022-05-31T17:22:48Z</time>
      </trkpt>
      <trkpt lat="49.28536" lon="-0.20266">
        <ele>5.4</ele>
        <time>2022-05-31T17:22:50Z</time>
      </trkpt>
      <trkpt lat="49.28535" lon="-0.20266">
        <ele>5.7</ele>
        <time>2022-05-31T17:22:51Z</time>
      </trkpt>
      <trkpt lat="49.28533" lon="-0.20267">
        <ele>6</ele>
        <time>2022-05-31T17:22:52Z</time>
      </trkpt>
      <trkpt lat="49.28532" lon="-0.20267">
        <ele>6</ele>
        <time>2022-05-31T17:22:53Z</time>
      </trkpt>
      <trkpt lat="49.28531" lon="-0.20267">
        <ele>6</ele>
        <time>2022-05-31T17:22:54Z</time>
      </trkpt>
      <trkpt lat="49.2853" lon="-0.20267">
        <ele>6.2</ele>
        <time>2022-05-31T17:22:55Z</time>
      </trkpt>
      <trkpt lat="49.28529" lon="-0.20266">
        <ele>6.2</ele>
        <time>2022-05-31T17:22:57Z</time>
      </trkpt>
      <trkpt lat="49.28528" lon="-0.20266">
        <ele>6.2</ele>
        <time>2022-05-31T17:22:58Z</time>
      </trkpt>
      <trkpt lat="49.28528" lon="-0.20266">
        <ele>6.2</ele>
        <time>2022-05-31T17:22:59Z</time>
      </trkpt>
      <trkpt lat="49.28527" lon="-0.20266">
        <ele>6.4</ele>
        <time>2022-05-31T17:23:00Z</time>
      </trkpt>
      <trkpt lat="49.28526" lon="-0.20265">
        <ele>6.4</ele>
        <time>2022-05-31T17:23:01Z</time>
      </trkpt>
      <trkpt lat="49.28526" lon="-0.20264">
        <ele>6.4</ele>
        <time>2022-05-31T17:23:02Z</time>
      </trkpt>
      <trkpt lat="49.28524" lon="-0.20264">
        <ele>6.6</ele>
        <time>2022-05-31T17:23:03Z</time>
      </trkpt>
      <trkpt lat="49.28524" lon="-0.20264">
        <ele>6.6</ele>
        <time>2022-05-31T17:23:04Z</time>
      </trkpt>
      <trkpt lat="49.28523" lon="-0.20263">
        <ele>6.6</ele>
        <time>2022-05-31T17:23:05Z</time>
      </trkpt>
      <trkpt lat="49.28522" lon="-0.20263">
        <ele>6.6</ele>
        <time>2022-05-31T17:23:06Z</time>
      </trkpt>
      <trkpt lat="49.28521" lon="-0.20263">
        <ele>6.7</ele>
        <time>2022-05-31T17:23:07Z</time>
      </trkpt>
      <trkpt lat="49.2852" lon="-0.20263">
        <ele>6.7</ele>
        <time>2022-05-31T17:23:08Z</time>
      </trkpt>
      <trkpt lat="49.2852" lon="-0.20263">
        <ele>6.7</ele>
        <time>2022-05-31T17:23:10Z</time>
      </trkpt>
      <trkpt lat="49.28519" lon="-0.20265">
        <ele>6.9</ele>
        <time>2022-05-31T17:23:11Z</time>
      </trkpt>
      <trkpt lat="49.28519" lon="-0.20266">
        <ele>6.9</ele>
        <time>2022-05-31T17:23:12Z</time>
      </trkpt>
      <trkpt lat="49.28518" lon="-0.20266">
        <ele>6.9</ele>
        <time>2022-05-31T17:23:13Z</time>
      </trkpt>
      <trkpt lat="49.28517" lon="-0.20267">
        <ele>6.9</ele>
        <time>2022-05-31T17:23:14Z</time>
      </trkpt>
      <trkpt lat="49.28516" lon="-0.20267">
        <ele>7</ele>
        <time>2022-05-31T17:23:15Z</time>
      </trkpt>
      <trkpt lat="49.28516" lon="-0.20269">
        <ele>7</ele>
        <time>2022-05-31T17:23:16Z</time>
      </trkpt>
      <trkpt lat="49.28516" lon="-0.20269">
        <ele>7</ele>
        <time>2022-05-31T17:23:17Z</time>
      </trkpt>
      <trkpt lat="49.28516" lon="-0.20268">
        <ele>7</ele>
        <time>2022-05-31T17:23:18Z</time>
      </trkpt>
      <trkpt lat="49.28516" lon="-0.20268">
        <ele>7</ele>
        <time>2022-05-31T17:23:19Z</time>
      </trkpt>
      <trkpt lat="49.28516" lon="-0.20268">
        <ele>7</ele>
        <time>2022-05-31T17:23:20Z</time>
      </trkpt>
      <trkpt lat="49.28517" lon="-0.20269">
        <ele>6.9</ele>
        <time>2022-05-31T17:23:22Z</time>
      </trkpt>
      <trkpt lat="49.28517" lon="-0.20269">
        <ele>6.9</ele>
        <time>2022-05-31T17:23:23Z</time>
      </trkpt>
      <trkpt lat="49.28517" lon="-0.20269">
        <ele>6.9</ele>
        <time>2022-05-31T17:23:24Z</time>
      </trkpt>
      <trkpt lat="49.28517" lon="-0.20269">
        <ele>6.9</ele>
        <time>2022-05-31T17:23:25Z</time>
      </trkpt>
      <trkpt lat="49.28517" lon="-0.20269">
        <ele>6.9</ele>
        <time>2022-05-31T17:23:26Z</time>
      </trkpt>
      <trkpt lat="49.28517" lon="-0.20269">
        <ele>6.9</ele>
        <time>2022-05-31T17:23:27Z</time>
      </trkpt>
      <trkpt lat="49.28517" lon="-0.20269">
        <ele>6.9</ele>
        <time>2022-05-31T17:23:28Z</time>
      </trkpt>
      <trkpt lat="49.28517" lon="-0.20269">
        <ele>6.9</ele>
        <time>2022-05-31T17:23:29Z</time>
      </trkpt>
      <trkpt lat="49.28517" lon="-0.20269">
        <ele>6.9</ele>
        <time>2022-05-31T17:23:30Z</time>
      </trkpt>
      <trkpt lat="49.28517" lon="-0.20269">
        <ele>6.9</ele>
        <time>2022-05-31T17:23:32Z</time>
      </trkpt>
      <trkpt lat="49.28519" lon="-0.20269">
        <ele>6.8</ele>
        <time>2022-05-31T17:23:33Z</time>
      </trkpt>
      <trkpt lat="49.2852" lon="-0.20269">
        <ele>6.8</ele>
        <time>2022-05-31T17:23:34Z</time>
      </trkpt>
      <trkpt lat="49.2852" lon="-0.20269">
        <ele>6.8</ele>
        <time>2022-05-31T17:23:35Z</time>
      </trkpt>
      <trkpt lat="49.28521" lon="-0.20269">
        <ele>6.8</ele>
        <time>2022-05-31T17:23:36Z</time>
      </trkpt>
      <trkpt lat="49.28521" lon="-0.20269">
        <ele>6.8</ele>
        <time>2022-05-31T17:23:37Z</time>
      </trkpt>
      <trkpt lat="49.28521" lon="-0.20269">
        <ele>6.8</ele>
        <time>2022-05-31T17:23:38Z</time>
      </trkpt>
      <trkpt lat="49.28521" lon="-0.20269">
        <ele>6.8</ele>
        <time>2022-05-31T17:23:39Z</time>
      </trkpt>
      <trkpt lat="49.28521" lon="-0.20269">
        <ele>6.8</ele>
        <time>2022-05-31T17:23:40Z</time>
      </trkpt>
      <trkpt lat="49.28521" lon="-0.20269">
        <ele>6.8</ele>
        <time>2022-05-31T17:23:41Z</time>
      </trkpt>
      <trkpt lat="49.28521" lon="-0.20269">
        <ele>6.8</ele>
        <time>2022-05-31T17:23:42Z</time>
      </trkpt>
      <trkpt lat="49.28521" lon="-0.20269">
        <ele>6.8</ele>
        <time>2022-05-31T17:23:43Z</time>
      </trkpt>
      <trkpt lat="49.28521" lon="-0.20269">
        <ele>6.8</ele>
        <time>2022-05-31T17:23:44Z</time>
      </trkpt>
      <trkpt lat="49.28521" lon="-0.20269">
        <ele>6.8</ele>
        <time>2022-05-31T17:23:45Z</time>
      </trkpt>
      <trkpt lat="49.28521" lon="-0.20269">
        <ele>6.8</ele>
        <time>2022-05-31T17:23:46Z</time>
      </trkpt>
      <trkpt lat="49.28521" lon="-0.20269">
        <ele>6.8</ele>
        <time>2022-05-31T17:23:47Z</time>
      </trkpt>
      <trkpt lat="49.28521" lon="-0.20269">
        <ele>6.8</ele>
        <time>2022-05-31T17:23:48Z</time>
      </trkpt>
      <trkpt lat="49.28521" lon="-0.20269">
        <ele>6.8</ele>
        <time>2022-05-31T17:23:49Z</time>
      </trkpt>
      <trkpt lat="49.28521" lon="-0.20269">
        <ele>6.8</ele>
        <time>2022-05-31T17:23:50Z</time>
      </trkpt>
      <trkpt lat="49.28521" lon="-0.20269">
        <ele>6.8</ele>
        <time>2022-05-31T17:23:51Z</time>
      </trkpt>
      <trkpt lat="49.28521" lon="-0.20269">
        <ele>6.8</ele>
        <time>2022-05-31T17:23:52Z</time>
      </trkpt>
      <trkpt lat="49.28521" lon="-0.20269">
        <ele>6.8</ele>
        <time>2022-05-31T17:23:53Z</time>
      </trkpt>
      <trkpt lat="49.28521" lon="-0.20269">
        <ele>6.8</ele>
        <time>2022-05-31T17:23:54Z</time>
      </trkpt>
      <trkpt lat="49.28521" lon="-0.20269">
        <ele>6.8</ele>
        <time>2022-05-31T17:23:55Z</time>
      </trkpt>
      <trkpt lat="49.28521" lon="-0.20269">
        <ele>6.8</ele>
        <time>2022-05-31T17:23:56Z</time>
      </trkpt>
      <trkpt lat="49.28521" lon="-0.20269">
        <ele>6.8</ele>
        <time>2022-05-31T17:23:57Z</time>
      </trkpt>
      <trkpt lat="49.28521" lon="-0.20269">
        <ele>6.8</ele>
        <time>2022-05-31T17:23:58Z</time>
      </trkpt>
      <trkpt lat="49.28521" lon="-0.20269">
        <ele>6.8</ele>
        <time>2022-05-31T17:23:59Z</time>
      </trkpt>
      <trkpt lat="49.28521" lon="-0.20269">
        <ele>6.8</ele>
        <time>2022-05-31T17:24:00Z</time>
      </trkpt>
      <trkpt lat="49.28521" lon="-0.20269">
        <ele>6.8</ele>
        <time>2022-05-31T17:24:01Z</time>
      </trkpt>
      <trkpt lat="49.28521" lon="-0.20269">
        <ele>6.8</ele>
        <time>2022-05-31T17:24:02Z</time>
      </trkpt>
      <trkpt lat="49.28521" lon="-0.20269">
        <ele>6.8</ele>
        <time>2022-05-31T17:24:03Z</time>
      </trkpt>
      <trkpt lat="49.28521" lon="-0.20269">
        <ele>6.8</ele>
        <time>2022-05-31T17:24:04Z</time>
      </trkpt>
      <trkpt lat="49.28521" lon="-0.20269">
        <ele>6.8</ele>
        <time>2022-05-31T17:24:05Z</time>
      </trkpt>
      <trkpt lat="49.2852" lon="-0.20269">
        <ele>6.8</ele>
        <time>2022-05-31T17:24:06Z</time>
      </trkpt>
      <trkpt lat="49.2852" lon="-0.2027">
        <ele>6.8</ele>
        <time>2022-05-31T17:24:07Z</time>
      </trkpt>
      <trkpt lat="49.2852" lon="-0.20272">
        <ele>6.8</ele>
        <time>2022-05-31T17:24:08Z</time>
      </trkpt>
      <trkpt lat="49.2852" lon="-0.20272">
        <ele>6.8</ele>
        <time>2022-05-31T17:24:09Z</time>
      </trkpt>
      <trkpt lat="49.28521" lon="-0.20273">
        <ele>6.8</ele>
        <time>2022-05-31T17:24:10Z</time>
      </trkpt>
      <trkpt lat="49.28519" lon="-0.20273">
        <ele>6.8</ele>
        <time>2022-05-31T17:24:12Z</time>
      </trkpt>
      <trkpt lat="49.28519" lon="-0.20275">
        <ele>6.9</ele>
        <time>2022-05-31T17:24:13Z</time>
      </trkpt>
      <trkpt lat="49.28519" lon="-0.20277">
        <ele>6.9</ele>
        <time>2022-05-31T17:24:14Z</time>
      </trkpt>
      <trkpt lat="49.28519" lon="-0.20279">
        <ele>6.9</ele>
        <time>2022-05-31T17:24:16Z</time>
      </trkpt>
      <trkpt lat="49.28518" lon="-0.20279">
        <ele>7</ele>
        <time>2022-05-31T17:24:17Z</time>
      </trkpt>
      <trkpt lat="49.28517" lon="-0.20279">
        <ele>7</ele>
        <time>2022-05-31T17:24:18Z</time>
      </trkpt>
      <trkpt lat="49.28517" lon="-0.20279">
        <ele>7</ele>
        <time>2022-05-31T17:24:19Z</time>
      </trkpt>
      <trkpt lat="49.28516" lon="-0.20279">
        <ele>7</ele>
        <time>2022-05-31T17:24:20Z</time>
      </trkpt>
      <trkpt lat="49.28516" lon="-0.20278">
        <ele>7</ele>
        <time>2022-05-31T17:24:21Z</time>
      </trkpt>
      <trkpt lat="49.28516" lon="-0.20278">
        <ele>7</ele>
        <time>2022-05-31T17:24:22Z</time>
      </trkpt>
      <trkpt lat="49.28516" lon="-0.20277">
        <ele>7</ele>
        <time>2022-05-31T17:24:23Z</time>
      </trkpt>
      <trkpt lat="49.28516" lon="-0.20277">
        <ele>7</ele>
        <time>2022-05-31T17:24:25Z</time>
      </trkpt>
      <trkpt lat="49.28516" lon="-0.20276">
        <ele>7</ele>
        <time>2022-05-31T17:24:26Z</time>
      </trkpt>
      <trkpt lat="49.28516" lon="-0.20276">
        <ele>7</ele>
        <time>2022-05-31T17:24:27Z</time>
      </trkpt>
      <trkpt lat="49.28516" lon="-0.20275">
        <ele>7</ele>
        <time>2022-05-31T17:24:29Z</time>
      </trkpt>
      <trkpt lat="49.28516" lon="-0.20275">
        <ele>7</ele>
        <time>2022-05-31T17:24:30Z</time>
      </trkpt>
      <trkpt lat="49.28515" lon="-0.20274">
        <ele>7</ele>
        <time>2022-05-31T17:24:31Z</time>
      </trkpt>
      <trkpt lat="49.28515" lon="-0.20273">
        <ele>7</ele>
        <time>2022-05-31T17:24:32Z</time>
      </trkpt>
      <trkpt lat="49.28516" lon="-0.20271">
        <ele>7</ele>
        <time>2022-05-31T17:24:33Z</time>
      </trkpt>
      <trkpt lat="49.28516" lon="-0.2027">
        <ele>7</ele>
        <time>2022-05-31T17:24:34Z</time>
      </trkpt>
      <trkpt lat="49.28516" lon="-0.20269">
        <ele>7</ele>
        <time>2022-05-31T17:24:35Z</time>
      </trkpt>
      <trkpt lat="49.28515" lon="-0.20268">
        <ele>7</ele>
        <time>2022-05-31T17:24:36Z</time>
      </trkpt>
      <trkpt lat="49.28515" lon="-0.20268">
        <ele>7</ele>
        <time>2022-05-31T17:24:37Z</time>
      </trkpt>
      <trkpt lat="49.28515" lon="-0.20268">
        <ele>7</ele>
        <time>2022-05-31T17:24:38Z</time>
      </trkpt>
      <trkpt lat="49.28514" lon="-0.20268">
        <ele>7</ele>
        <time>2022-05-31T17:24:39Z</time>
      </trkpt>
      <trkpt lat="49.28514" lon="-0.20269">
        <ele>7</ele>
        <time>2022-05-31T17:24:40Z</time>
      </trkpt>
      <trkpt lat="49.28514" lon="-0.2027">
        <ele>7</ele>
        <time>2022-05-31T17:24:42Z</time>
      </trkpt>
      <trkpt lat="49.28513" lon="-0.20269">
        <ele>7</ele>
        <time>2022-05-31T17:24:43Z</time>
      </trkpt>
      <trkpt lat="49.28513" lon="-0.20269">
        <ele>7</ele>
        <time>2022-05-31T17:24:44Z</time>
      </trkpt>
      <trkpt lat="49.28513" lon="-0.20269">
        <ele>7</ele>
        <time>2022-05-31T17:24:45Z</time>
      </trkpt>
      <trkpt lat="49.28513" lon="-0.20269">
        <ele>7</ele>
        <time>2022-05-31T17:24:46Z</time>
      </trkpt>
      <trkpt lat="49.28513" lon="-0.20269">
        <ele>7</ele>
        <time>2022-05-31T17:24:47Z</time>
      </trkpt>
      <trkpt lat="49.28513" lon="-0.20269">
        <ele>7</ele>
        <time>2022-05-31T17:24:48Z</time>
      </trkpt>
      <trkpt lat="49.28513" lon="-0.20269">
        <ele>7</ele>
        <time>2022-05-31T17:24:49Z</time>
      </trkpt>
      <trkpt lat="49.28513" lon="-0.20268">
        <ele>7</ele>
        <time>2022-05-31T17:24:50Z</time>
      </trkpt>
      <trkpt lat="49.28513" lon="-0.20268">
        <ele>7</ele>
        <time>2022-05-31T17:24:51Z</time>
      </trkpt>
      <trkpt lat="49.28513" lon="-0.20268">
        <ele>7</ele>
        <time>2022-05-31T17:24:52Z</time>
      </trkpt>
      <trkpt lat="49.28512" lon="-0.20267">
        <ele>7</ele>
        <time>2022-05-31T17:24:53Z</time>
      </trkpt>
      <trkpt lat="49.28512" lon="-0.20266">
        <ele>7</ele>
        <time>2022-05-31T17:24:54Z</time>
      </trkpt>
      <trkpt lat="49.28511" lon="-0.20264">
        <ele>7</ele>
        <time>2022-05-31T17:24:55Z</time>
      </trkpt>
      <trkpt lat="49.2851" lon="-0.20263">
        <ele>7</ele>
        <time>2022-05-31T17:24:56Z</time>
      </trkpt>
      <trkpt lat="49.2851" lon="-0.2026">
        <ele>7</ele>
        <time>2022-05-31T17:24:57Z</time>
      </trkpt>
      <trkpt lat="49.2851" lon="-0.2026">
        <ele>6.9</ele>
        <time>2022-05-31T17:24:59Z</time>
      </trkpt>
      <trkpt lat="49.28509" lon="-0.20259">
        <ele>6.9</ele>
        <time>2022-05-31T17:25:00Z</time>
      </trkpt>
      <trkpt lat="49.28509" lon="-0.20259">
        <ele>6.9</ele>
        <time>2022-05-31T17:25:01Z</time>
      </trkpt>
      <trkpt lat="49.28509" lon="-0.20259">
        <ele>6.9</ele>
        <time>2022-05-31T17:25:02Z</time>
      </trkpt>
      <trkpt lat="49.28509" lon="-0.20258">
        <ele>6.9</ele>
        <time>2022-05-31T17:25:03Z</time>
      </trkpt>
      <trkpt lat="49.28509" lon="-0.20258">
        <ele>6.9</ele>
        <time>2022-05-31T17:25:04Z</time>
      </trkpt>
      <trkpt lat="49.28509" lon="-0.20258">
        <ele>6.9</ele>
        <time>2022-05-31T17:25:06Z</time>
      </trkpt>
      <trkpt lat="49.28509" lon="-0.20257">
        <ele>6.9</ele>
        <time>2022-05-31T17:25:08Z</time>
      </trkpt>
      <trkpt lat="49.28509" lon="-0.20257">
        <ele>6.9</ele>
        <time>2022-05-31T17:25:09Z</time>
      </trkpt>
      <trkpt lat="49.28509" lon="-0.20257">
        <ele>6.9</ele>
        <time>2022-05-31T17:25:10Z</time>
      </trkpt>
      <trkpt lat="49.28509" lon="-0.20257">
        <ele>6.9</ele>
        <time>2022-05-31T17:25:11Z</time>
      </trkpt>
      <trkpt lat="49.28509" lon="-0.20256">
        <ele>6.9</ele>
        <time>2022-05-31T17:25:12Z</time>
      </trkpt>
      <trkpt lat="49.28509" lon="-0.20256">
        <ele>6.7</ele>
        <time>2022-05-31T17:25:13Z</time>
      </trkpt>
      <trkpt lat="49.2851" lon="-0.20255">
        <ele>6.7</ele>
        <time>2022-05-31T17:25:14Z</time>
      </trkpt>
      <trkpt lat="49.2851" lon="-0.20255">
        <ele>6.7</ele>
        <time>2022-05-31T17:25:15Z</time>
      </trkpt>
      <trkpt lat="49.2851" lon="-0.20256">
        <ele>6.9</ele>
        <time>2022-05-31T17:25:16Z</time>
      </trkpt>
      <trkpt lat="49.2851" lon="-0.20258">
        <ele>6.9</ele>
        <time>2022-05-31T17:25:18Z</time>
      </trkpt>
      <trkpt lat="49.2851" lon="-0.20258">
        <ele>6.9</ele>
        <time>2022-05-31T17:25:19Z</time>
      </trkpt>
      <trkpt lat="49.28509" lon="-0.20259">
        <ele>6.9</ele>
        <time>2022-05-31T17:25:20Z</time>
      </trkpt>
      <trkpt lat="49.28509" lon="-0.20259">
        <ele>6.9</ele>
        <time>2022-05-31T17:25:21Z</time>
      </trkpt>
      <trkpt lat="49.28508" lon="-0.20259">
        <ele>6.9</ele>
        <time>2022-05-31T17:25:22Z</time>
      </trkpt>
      <trkpt lat="49.28508" lon="-0.20259">
        <ele>6.9</ele>
        <time>2022-05-31T17:25:23Z</time>
      </trkpt>
      <trkpt lat="49.28507" lon="-0.20258">
        <ele>6.9</ele>
        <time>2022-05-31T17:25:24Z</time>
      </trkpt>
      <trkpt lat="49.28506" lon="-0.20257">
        <ele>6.9</ele>
        <time>2022-05-31T17:25:26Z</time>
      </trkpt>
      <trkpt lat="49.28505" lon="-0.20255">
        <ele>6.8</ele>
        <time>2022-05-31T17:25:27Z</time>
      </trkpt>
      <trkpt lat="49.28504" lon="-0.20254">
        <ele>6.8</ele>
        <time>2022-05-31T17:25:28Z</time>
      </trkpt>
      <trkpt lat="49.28504" lon="-0.20253">
        <ele>6.8</ele>
        <time>2022-05-31T17:25:29Z</time>
      </trkpt>
      <trkpt lat="49.28504" lon="-0.20249">
        <ele>6.7</ele>
        <time>2022-05-31T17:25:30Z</time>
      </trkpt>
      <trkpt lat="49.28506" lon="-0.20243">
        <ele>6.5</ele>
        <time>2022-05-31T17:25:31Z</time>
      </trkpt>
      <trkpt lat="49.28507" lon="-0.2024">
        <ele>6.5</ele>
        <time>2022-05-31T17:25:32Z</time>
      </trkpt>
      <trkpt lat="49.28507" lon="-0.20237">
        <ele>6.4</ele>
        <time>2022-05-31T17:25:33Z</time>
      </trkpt>
      <trkpt lat="49.28507" lon="-0.20236">
        <ele>6.4</ele>
        <time>2022-05-31T17:25:34Z</time>
      </trkpt>
      <trkpt lat="49.28506" lon="-0.20235">
        <ele>6.4</ele>
        <time>2022-05-31T17:25:35Z</time>
      </trkpt>
      <trkpt lat="49.28506" lon="-0.20235">
        <ele>6.4</ele>
        <time>2022-05-31T17:25:36Z</time>
      </trkpt>
      <trkpt lat="49.28506" lon="-0.20236">
        <ele>6.4</ele>
        <time>2022-05-31T17:25:38Z</time>
      </trkpt>
      <trkpt lat="49.28505" lon="-0.20237">
        <ele>6.4</ele>
        <time>2022-05-31T17:25:39Z</time>
      </trkpt>
      <trkpt lat="49.28506" lon="-0.20238">
        <ele>6.4</ele>
        <time>2022-05-31T17:25:40Z</time>
      </trkpt>
      <trkpt lat="49.28506" lon="-0.20238">
        <ele>6.4</ele>
        <time>2022-05-31T17:25:41Z</time>
      </trkpt>
      <trkpt lat="49.28507" lon="-0.2024">
        <ele>6.5</ele>
        <time>2022-05-31T17:25:42Z</time>
      </trkpt>
      <trkpt lat="49.28507" lon="-0.20241">
        <ele>6.5</ele>
        <time>2022-05-31T17:25:44Z</time>
      </trkpt>
      <trkpt lat="49.28508" lon="-0.20241">
        <ele>6.5</ele>
        <time>2022-05-31T17:25:45Z</time>
      </trkpt>
      <trkpt lat="49.28508" lon="-0.20241">
        <ele>6.4</ele>
        <time>2022-05-31T17:25:46Z</time>
      </trkpt>
      <trkpt lat="49.28509" lon="-0.20242">
        <ele>6.4</ele>
        <time>2022-05-31T17:25:48Z</time>
      </trkpt>
      <trkpt lat="49.28509" lon="-0.20243">
        <ele>6.4</ele>
        <time>2022-05-31T17:25:49Z</time>
      </trkpt>
      <trkpt lat="49.28509" lon="-0.20243">
        <ele>6.5</ele>
        <time>2022-05-31T17:25:50Z</time>
      </trkpt>
      <trkpt lat="49.28509" lon="-0.20244">
        <ele>6.5</ele>
        <time>2022-05-31T17:25:51Z</time>
      </trkpt>
      <trkpt lat="49.28509" lon="-0.20244">
        <ele>6.5</ele>
        <time>2022-05-31T17:25:52Z</time>
      </trkpt>
      <trkpt lat="49.28509" lon="-0.20244">
        <ele>6.5</ele>
        <time>2022-05-31T17:25:53Z</time>
      </trkpt>
      <trkpt lat="49.28509" lon="-0.20244">
        <ele>6.5</ele>
        <time>2022-05-31T17:25:54Z</time>
      </trkpt>
      <trkpt lat="49.28509" lon="-0.20244">
        <ele>6.5</ele>
        <time>2022-05-31T17:25:55Z</time>
      </trkpt>
      <trkpt lat="49.28509" lon="-0.20244">
        <ele>6.5</ele>
        <time>2022-05-31T17:25:56Z</time>
      </trkpt>
      <trkpt lat="49.28509" lon="-0.20244">
        <ele>6.5</ele>
        <time>2022-05-31T17:25:57Z</time>
      </trkpt>
      <trkpt lat="49.28509" lon="-0.20244">
        <ele>6.5</ele>
        <time>2022-05-31T17:25:58Z</time>
      </trkpt>
      <trkpt lat="49.28509" lon="-0.20244">
        <ele>6.5</ele>
        <time>2022-05-31T17:25:59Z</time>
      </trkpt>
      <trkpt lat="49.28509" lon="-0.20244">
        <ele>6.5</ele>
        <time>2022-05-31T17:26:00Z</time>
      </trkpt>
      <trkpt lat="49.28509" lon="-0.20244">
        <ele>6.5</ele>
        <time>2022-05-31T17:26:01Z</time>
      </trkpt>
      <trkpt lat="49.28509" lon="-0.20244">
        <ele>6.5</ele>
        <time>2022-05-31T17:26:02Z</time>
      </trkpt>
      <trkpt lat="49.28509" lon="-0.20244">
        <ele>6.5</ele>
        <time>2022-05-31T17:26:03Z</time>
      </trkpt>
      <trkpt lat="49.28509" lon="-0.20244">
        <ele>6.5</ele>
        <time>2022-05-31T17:26:04Z</time>
      </trkpt>
      <trkpt lat="49.28509" lon="-0.20244">
        <ele>6.5</ele>
        <time>2022-05-31T17:26:05Z</time>
      </trkpt>
      <trkpt lat="49.28509" lon="-0.20246">
        <ele>6.5</ele>
        <time>2022-05-31T17:26:06Z</time>
      </trkpt>
      <trkpt lat="49.2851" lon="-0.20247">
        <ele>6.5</ele>
        <time>2022-05-31T17:26:07Z</time>
      </trkpt>
      <trkpt lat="49.2851" lon="-0.20249">
        <ele>6.6</ele>
        <time>2022-05-31T17:26:12Z</time>
      </trkpt>
      <trkpt lat="49.28514" lon="-0.20268">
        <ele>7</ele>
        <time>2022-05-31T17:26:27Z</time>
      </trkpt>
      <trkpt lat="49.28515" lon="-0.20271">
        <ele>7</ele>
        <time>2022-05-31T17:26:32Z</time>
      </trkpt>
      <trkpt lat="49.28515" lon="-0.2027">
        <ele>7</ele>
        <time>2022-05-31T17:26:42Z</time>
      </trkpt>
      <trkpt lat="49.28514" lon="-0.20268">
        <ele>7</ele>
        <time>2022-05-31T17:26:47Z</time>
      </trkpt>
      <trkpt lat="49.28515" lon="-0.2027">
        <ele>7</ele>
        <time>2022-05-31T17:26:52Z</time>
      </trkpt>
      <trkpt lat="49.28515" lon="-0.2027">
        <ele>7</ele>
        <time>2022-05-31T17:27:02Z</time>
      </trkpt>
      <trkpt lat="49.28516" lon="-0.2027">
        <ele>7</ele>
        <time>2022-05-31T17:27:12Z</time>
      </trkpt>
      <trkpt lat="49.28516" lon="-0.20269">
        <ele>7</ele>
        <time>2022-05-31T17:27:18Z</time>
      </trkpt>
      <trkpt lat="49.28516" lon="-0.20268">
        <ele>7</ele>
        <time>2022-05-31T17:27:20Z</time>
      </trkpt>
      <trkpt lat="49.28515" lon="-0.20268">
        <ele>7</ele>
        <time>2022-05-31T17:27:23Z</time>
      </trkpt>
      <trkpt lat="49.28515" lon="-0.20268">
        <ele>7</ele>
        <time>2022-05-31T17:27:24Z</time>
      </trkpt>
      <trkpt lat="49.28515" lon="-0.20267">
        <ele>7</ele>
        <time>2022-05-31T17:27:32Z</time>
      </trkpt>
      <trkpt lat="49.28515" lon="-0.20267">
        <ele>7</ele>
        <time>2022-05-31T17:27:34Z</time>
      </trkpt>
      <trkpt lat="49.28515" lon="-0.20267">
        <ele>7</ele>
        <time>2022-05-31T17:27:35Z</time>
      </trkpt>
      <trkpt lat="49.28515" lon="-0.20267">
        <ele>7</ele>
        <time>2022-05-31T17:27:37Z</time>
      </trkpt>
      <trkpt lat="49.28515" lon="-0.20266">
        <ele>7</ele>
        <time>2022-05-31T17:27:38Z</time>
      </trkpt>
      <trkpt lat="49.28515" lon="-0.20266">
        <ele>7</ele>
        <time>2022-05-31T17:27:39Z</time>
      </trkpt>
      <trkpt lat="49.28515" lon="-0.20266">
        <ele>7</ele>
        <time>2022-05-31T17:27:42Z</time>
      </trkpt>
      <trkpt lat="49.28515" lon="-0.20265">
        <ele>7</ele>
        <time>2022-05-31T17:27:47Z</time>
      </trkpt>
      <trkpt lat="49.28515" lon="-0.20265">
        <ele>7</ele>
        <time>2022-05-31T17:27:52Z</time>
      </trkpt>
      <trkpt lat="49.28514" lon="-0.20267">
        <ele>7</ele>
        <time>2022-05-31T17:28:03Z</time>
      </trkpt>
      <trkpt lat="49.28514" lon="-0.20265">
        <ele>7</ele>
        <time>2022-05-31T17:28:04Z</time>
      </trkpt>
      <trkpt lat="49.28514" lon="-0.20264">
        <ele>6.9</ele>
        <time>2022-05-31T17:28:05Z</time>
      </trkpt>
      <trkpt lat="49.28514" lon="-0.20264">
        <ele>6.9</ele>
        <time>2022-05-31T17:28:07Z</time>
      </trkpt>
      <trkpt lat="49.28514" lon="-0.20264">
        <ele>6.9</ele>
        <time>2022-05-31T17:28:08Z</time>
      </trkpt>
      <trkpt lat="49.28514" lon="-0.20264">
        <ele>6.9</ele>
        <time>2022-05-31T17:28:09Z</time>
      </trkpt>
      <trkpt lat="49.28514" lon="-0.20264">
        <ele>6.9</ele>
        <time>2022-05-31T17:28:10Z</time>
      </trkpt>
      <trkpt lat="49.28513" lon="-0.20264">
        <ele>6.9</ele>
        <time>2022-05-31T17:28:12Z</time>
      </trkpt>
      <trkpt lat="49.28513" lon="-0.20264">
        <ele>6.9</ele>
        <time>2022-05-31T17:28:13Z</time>
      </trkpt>
      <trkpt lat="49.28513" lon="-0.20264">
        <ele>6.9</ele>
        <time>2022-05-31T17:28:14Z</time>
      </trkpt>
      <trkpt lat="49.28513" lon="-0.20264">
        <ele>6.9</ele>
        <time>2022-05-31T17:28:15Z</time>
      </trkpt>
      <trkpt lat="49.28513" lon="-0.20264">
        <ele>6.9</ele>
        <time>2022-05-31T17:28:17Z</time>
      </trkpt>
      <trkpt lat="49.28513" lon="-0.20264">
        <ele>6.9</ele>
        <time>2022-05-31T17:28:18Z</time>
      </trkpt>
      <trkpt lat="49.28513" lon="-0.20264">
        <ele>6.9</ele>
        <time>2022-05-31T17:28:20Z</time>
      </trkpt>
      <trkpt lat="49.28513" lon="-0.20264">
        <ele>6.9</ele>
        <time>2022-05-31T17:28:21Z</time>
      </trkpt>
      <trkpt lat="49.28513" lon="-0.20265">
        <ele>6.9</ele>
        <time>2022-05-31T17:28:23Z</time>
      </trkpt>
      <trkpt lat="49.28512" lon="-0.20265">
        <ele>6.9</ele>
        <time>2022-05-31T17:28:28Z</time>
      </trkpt>
      <trkpt lat="49.28512" lon="-0.20265">
        <ele>7</ele>
        <time>2022-05-31T17:28:38Z</time>
      </trkpt>
      <trkpt lat="49.28512" lon="-0.20265">
        <ele>7</ele>
        <time>2022-05-31T17:28:43Z</time>
      </trkpt>
      <trkpt lat="49.28512" lon="-0.20265">
        <ele>7</ele>
        <time>2022-05-31T17:28:53Z</time>
      </trkpt>
      <trkpt lat="49.28512" lon="-0.20265">
        <ele>7</ele>
        <time>2022-05-31T17:28:58Z</time>
      </trkpt>
      <trkpt lat="49.28512" lon="-0.20265">
        <ele>7</ele>
        <time>2022-05-31T17:29:08Z</time>
      </trkpt>
      <trkpt lat="49.28512" lon="-0.20265">
        <ele>7</ele>
        <time>2022-05-31T17:29:16Z</time>
      </trkpt>
      <trkpt lat="49.28512" lon="-0.20266">
        <ele>7</ele>
        <time>2022-05-31T17:29:22Z</time>
      </trkpt>
      <trkpt lat="49.28512" lon="-0.20266">
        <ele>7</ele>
        <time>2022-05-31T17:29:27Z</time>
      </trkpt>
      <trkpt lat="49.28512" lon="-0.20266">
        <ele>7</ele>
        <time>2022-05-31T17:29:38Z</time>
      </trkpt>
      <trkpt lat="49.28512" lon="-0.20266">
        <ele>7</ele>
        <time>2022-05-31T17:29:47Z</time>
      </trkpt>
      <trkpt lat="49.28512" lon="-0.20266">
        <ele>7</ele>
        <time>2022-05-31T17:29:53Z</time>
      </trkpt>
      <trkpt lat="49.28511" lon="-0.20266">
        <ele>7</ele>
        <time>2022-05-31T17:29:59Z</time>
      </trkpt>
      <trkpt lat="49.28511" lon="-0.20266">
        <ele>7</ele>
        <time>2022-05-31T17:30:09Z</time>
      </trkpt>
      <trkpt lat="49.28511" lon="-0.20266">
        <ele>7</ele>
        <time>2022-05-31T17:30:14Z</time>
      </trkpt>
      <trkpt lat="49.28511" lon="-0.20266">
        <ele>7</ele>
        <time>2022-05-31T17:30:24Z</time>
      </trkpt>
      <trkpt lat="49.28511" lon="-0.20267">
        <ele>7</ele>
        <time>2022-05-31T17:30:29Z</time>
      </trkpt>
      <trkpt lat="49.28511" lon="-0.20267">
        <ele>7</ele>
        <time>2022-05-31T17:30:34Z</time>
      </trkpt>
      <trkpt lat="49.28511" lon="-0.20267">
        <ele>7</ele>
        <time>2022-05-31T17:30:39Z</time>
      </trkpt>
      <trkpt lat="49.28511" lon="-0.20267">
        <ele>7</ele>
        <time>2022-05-31T17:30:49Z</time>
      </trkpt>
      <trkpt lat="49.28511" lon="-0.20267">
        <ele>7</ele>
        <time>2022-05-31T17:30:54Z</time>
      </trkpt>
      <trkpt lat="49.28511" lon="-0.20267">
        <ele>7</ele>
        <time>2022-05-31T17:31:04Z</time>
      </trkpt>
      <trkpt lat="49.28511" lon="-0.20267">
        <ele>7</ele>
        <time>2022-05-31T17:31:15Z</time>
      </trkpt>
      <trkpt lat="49.28511" lon="-0.20267">
        <ele>7</ele>
        <time>2022-05-31T17:31:24Z</time>
      </trkpt>
      <trkpt lat="49.2851" lon="-0.20268">
        <ele>7</ele>
        <time>2022-05-31T17:32:05Z</time>
      </trkpt>
      <trkpt lat="49.2851" lon="-0.20268">
        <ele>7</ele>
        <time>2022-05-31T17:32:07Z</time>
      </trkpt>
      <trkpt lat="49.2851" lon="-0.20268">
        <ele>7</ele>
        <time>2022-05-31T17:32:08Z</time>
      </trkpt>
      <trkpt lat="49.2851" lon="-0.20268">
        <ele>7</ele>
        <time>2022-05-31T17:32:09Z</time>
      </trkpt>
      <trkpt lat="49.2851" lon="-0.20268">
        <ele>7</ele>
        <time>2022-05-31T17:32:11Z</time>
      </trkpt>
      <trkpt lat="49.2851" lon="-0.20268">
        <ele>7</ele>
        <time>2022-05-31T17:32:12Z</time>
      </trkpt>
      <trkpt lat="49.2851" lon="-0.20268">
        <ele>7</ele>
        <time>2022-05-31T17:32:13Z</time>
      </trkpt>
      <trkpt lat="49.28507" lon="-0.20271">
        <ele>7.1</ele>
        <time>2022-05-31T17:32:14Z</time>
      </trkpt>
      <trkpt lat="49.28503" lon="-0.20274">
        <ele>7.1</ele>
        <time>2022-05-31T17:32:15Z</time>
      </trkpt>
      <trkpt lat="49.28502" lon="-0.20275">
        <ele>7.1</ele>
        <time>2022-05-31T17:32:16Z</time>
      </trkpt>
      <trkpt lat="49.285" lon="-0.2028">
        <ele>7.1</ele>
        <time>2022-05-31T17:32:17Z</time>
      </trkpt>
      <trkpt lat="49.28499" lon="-0.20281">
        <ele>7.1</ele>
        <time>2022-05-31T17:32:18Z</time>
      </trkpt>
      <trkpt lat="49.28492" lon="-0.20296">
        <ele>7.1</ele>
        <time>2022-05-31T17:32:20Z</time>
      </trkpt>
      <trkpt lat="49.28491" lon="-0.20303">
        <ele>7.2</ele>
        <time>2022-05-31T17:32:21Z</time>
      </trkpt>
      <trkpt lat="49.28491" lon="-0.20306">
        <ele>7.2</ele>
        <time>2022-05-31T17:32:22Z</time>
      </trkpt>
      <trkpt lat="49.2849" lon="-0.20313">
        <ele>7.2</ele>
        <time>2022-05-31T17:32:23Z</time>
      </trkpt>
      <trkpt lat="49.2849" lon="-0.20315">
        <ele>7.2</ele>
        <time>2022-05-31T17:32:24Z</time>
      </trkpt>
      <trkpt lat="49.2849" lon="-0.20316">
        <ele>7.2</ele>
        <time>2022-05-31T17:32:25Z</time>
      </trkpt>
      <trkpt lat="49.2849" lon="-0.20316">
        <ele>7.2</ele>
        <time>2022-05-31T17:32:26Z</time>
      </trkpt>
      <trkpt lat="49.2849" lon="-0.20316">
        <ele>7.2</ele>
        <time>2022-05-31T17:32:27Z</time>
      </trkpt>
      <trkpt lat="49.2849" lon="-0.20316">
        <ele>7.2</ele>
        <time>2022-05-31T17:32:28Z</time>
      </trkpt>
      <trkpt lat="49.2849" lon="-0.20316">
        <ele>7.2</ele>
        <time>2022-05-31T17:32:29Z</time>
      </trkpt>
      <trkpt lat="49.2849" lon="-0.20316">
        <ele>7.2</ele>
        <time>2022-05-31T17:32:30Z</time>
      </trkpt>
      <trkpt lat="49.28491" lon="-0.20317">
        <ele>7.2</ele>
        <time>2022-05-31T17:32:31Z</time>
      </trkpt>
      <trkpt lat="49.28491" lon="-0.20319">
        <ele>7.2</ele>
        <time>2022-05-31T17:32:32Z</time>
      </trkpt>
      <trkpt lat="49.28493" lon="-0.20322">
        <ele>7.2</ele>
        <time>2022-05-31T17:32:33Z</time>
      </trkpt>
      <trkpt lat="49.28493" lon="-0.20323">
        <ele>7.2</ele>
        <time>2022-05-31T17:32:34Z</time>
      </trkpt>
      <trkpt lat="49.28495" lon="-0.20328">
        <ele>7.1</ele>
        <time>2022-05-31T17:32:35Z</time>
      </trkpt>
      <trkpt lat="49.28496" lon="-0.2033">
        <ele>7.1</ele>
        <time>2022-05-31T17:32:36Z</time>
      </trkpt>
      <trkpt lat="49.28497" lon="-0.20334">
        <ele>7</ele>
        <time>2022-05-31T17:32:37Z</time>
      </trkpt>
      <trkpt lat="49.28499" lon="-0.20339">
        <ele>6.9</ele>
        <time>2022-05-31T17:32:38Z</time>
      </trkpt>
      <trkpt lat="49.285" lon="-0.20341">
        <ele>6.9</ele>
        <time>2022-05-31T17:32:39Z</time>
      </trkpt>
      <trkpt lat="49.28501" lon="-0.20346">
        <ele>6.8</ele>
        <time>2022-05-31T17:32:40Z</time>
      </trkpt>
      <trkpt lat="49.28502" lon="-0.20348">
        <ele>6.8</ele>
        <time>2022-05-31T17:32:41Z</time>
      </trkpt>
      <trkpt lat="49.28503" lon="-0.20353">
        <ele>6.7</ele>
        <time>2022-05-31T17:32:42Z</time>
      </trkpt>
      <trkpt lat="49.28504" lon="-0.20354">
        <ele>6.7</ele>
        <time>2022-05-31T17:32:43Z</time>
      </trkpt>
      <trkpt lat="49.28504" lon="-0.20356">
        <ele>6.7</ele>
        <time>2022-05-31T17:32:44Z</time>
      </trkpt>
      <trkpt lat="49.28505" lon="-0.20358">
        <ele>6.7</ele>
        <time>2022-05-31T17:32:45Z</time>
      </trkpt>
      <trkpt lat="49.28507" lon="-0.20315">
        <ele>7.3</ele>
        <time>2022-05-31T17:32:46Z</time>
      </trkpt>
      <trkpt lat="49.28508" lon="-0.20312">
        <ele>7.3</ele>
        <time>2022-05-31T17:32:50Z</time>
      </trkpt>
      <trkpt lat="49.28507" lon="-0.20311">
        <ele>7.3</ele>
        <time>2022-05-31T17:32:51Z</time>
      </trkpt>
      <trkpt lat="49.28507" lon="-0.2031">
        <ele>7.3</ele>
        <time>2022-05-31T17:32:52Z</time>
      </trkpt>
      <trkpt lat="49.28507" lon="-0.2031">
        <ele>7.3</ele>
        <time>2022-05-31T17:32:53Z</time>
      </trkpt>
      <trkpt lat="49.28507" lon="-0.2031">
        <ele>7.3</ele>
        <time>2022-05-31T17:32:54Z</time>
      </trkpt>
      <trkpt lat="49.28507" lon="-0.2031">
        <ele>7.3</ele>
        <time>2022-05-31T17:32:55Z</time>
      </trkpt>
      <trkpt lat="49.28506" lon="-0.20309">
        <ele>7.3</ele>
        <time>2022-05-31T17:32:56Z</time>
      </trkpt>
      <trkpt lat="49.28506" lon="-0.20309">
        <ele>7.3</ele>
        <time>2022-05-31T17:32:57Z</time>
      </trkpt>
      <trkpt lat="49.28506" lon="-0.20309">
        <ele>7.3</ele>
        <time>2022-05-31T17:32:58Z</time>
      </trkpt>
      <trkpt lat="49.28506" lon="-0.20309">
        <ele>7.3</ele>
        <time>2022-05-31T17:32:59Z</time>
      </trkpt>
      <trkpt lat="49.28506" lon="-0.20308">
        <ele>7.3</ele>
        <time>2022-05-31T17:33:00Z</time>
      </trkpt>
      <trkpt lat="49.28505" lon="-0.20308">
        <ele>7.3</ele>
        <time>2022-05-31T17:33:01Z</time>
      </trkpt>
      <trkpt lat="49.28505" lon="-0.20308">
        <ele>7.3</ele>
        <time>2022-05-31T17:33:02Z</time>
      </trkpt>
      <trkpt lat="49.28505" lon="-0.20308">
        <ele>7.3</ele>
        <time>2022-05-31T17:33:07Z</time>
      </trkpt>
      <trkpt lat="49.28505" lon="-0.20307">
        <ele>7.3</ele>
        <time>2022-05-31T17:33:08Z</time>
      </trkpt>
      <trkpt lat="49.28512" lon="-0.20265">
        <ele>7</ele>
        <time>2022-05-31T17:34:13Z</time>
      </trkpt>
      <trkpt lat="49.28514" lon="-0.20268">
        <ele>7</ele>
        <time>2022-05-31T17:39:31Z</time>
      </trkpt>
      <trkpt lat="49.28515" lon="-0.20269">
        <ele>7</ele>
        <time>2022-05-31T17:39:37Z</time>
      </trkpt>
      <trkpt lat="49.28514" lon="-0.20268">
        <ele>7</ele>
        <time>2022-05-31T17:39:43Z</time>
      </trkpt>
      <trkpt lat="49.28517" lon="-0.20269">
        <ele>6.9</ele>
        <time>2022-05-31T17:39:54Z</time>
      </trkpt>
      <trkpt lat="49.28515" lon="-0.20268">
        <ele>7</ele>
        <time>2022-05-31T17:40:04Z</time>
      </trkpt>
      <trkpt lat="49.28514" lon="-0.20267">
        <ele>7</ele>
        <time>2022-05-31T17:40:09Z</time>
      </trkpt>
      <trkpt lat="49.28514" lon="-0.20268">
        <ele>7</ele>
        <time>2022-05-31T17:40:14Z</time>
      </trkpt>
      <trkpt lat="49.28514" lon="-0.20268">
        <ele>7</ele>
        <time>2022-05-31T17:40:19Z</time>
      </trkpt>
      <trkpt lat="49.28515" lon="-0.20268">
        <ele>7</ele>
        <time>2022-05-31T17:40:24Z</time>
      </trkpt>
      <trkpt lat="49.28515" lon="-0.20269">
        <ele>7</ele>
        <time>2022-05-31T17:40:35Z</time>
      </trkpt>
      <trkpt lat="49.28516" lon="-0.20267">
        <ele>7</ele>
        <time>2022-05-31T17:40:40Z</time>
      </trkpt>
      <trkpt lat="49.28515" lon="-0.20266">
        <ele>7</ele>
        <time>2022-05-31T17:40:50Z</time>
      </trkpt>
      <trkpt lat="49.28515" lon="-0.20267">
        <ele>7</ele>
        <time>2022-05-31T17:40:55Z</time>
      </trkpt>
      <trkpt lat="49.28515" lon="-0.20268">
        <ele>7</ele>
        <time>2022-05-31T17:41:00Z</time>
      </trkpt>
      <trkpt lat="49.28514" lon="-0.20268">
        <ele>7</ele>
        <time>2022-05-31T17:41:05Z</time>
      </trkpt>
      <trkpt lat="49.28514" lon="-0.20268">
        <ele>7</ele>
        <time>2022-05-31T17:41:10Z</time>
      </trkpt>
      <trkpt lat="49.28512" lon="-0.20264">
        <ele>6.9</ele>
        <time>2022-05-31T17:41:35Z</time>
      </trkpt>
      <trkpt lat="49.28515" lon="-0.20268">
        <ele>7</ele>
        <time>2022-05-31T17:41:41Z</time>
      </trkpt>
      <trkpt lat="49.28515" lon="-0.20268">
        <ele>7</ele>
        <time>2022-05-31T17:41:47Z</time>
      </trkpt>
      <trkpt lat="49.28515" lon="-0.20269">
        <ele>7</ele>
        <time>2022-05-31T17:41:57Z</time>
      </trkpt>
      <trkpt lat="49.28514" lon="-0.20268">
        <ele>7</ele>
        <time>2022-05-31T17:42:02Z</time>
      </trkpt>
      <trkpt lat="49.28514" lon="-0.20268">
        <ele>7</ele>
        <time>2022-05-31T17:42:12Z</time>
      </trkpt>
      <trkpt lat="49.28514" lon="-0.20268">
        <ele>7</ele>
        <time>2022-05-31T17:42:17Z</time>
      </trkpt>
      <trkpt lat="49.28514" lon="-0.20268">
        <ele>7</ele>
        <time>2022-05-31T17:42:22Z</time>
      </trkpt>
      <trkpt lat="49.2851" lon="-0.20262">
        <ele>7</ele>
        <time>2022-05-31T17:42:40Z</time>
      </trkpt>
      <trkpt lat="49.28513" lon="-0.20266">
        <ele>7</ele>
        <time>2022-05-31T17:42:46Z</time>
      </trkpt>
      <trkpt lat="49.28515" lon="-0.20267">
        <ele>7</ele>
        <time>2022-05-31T17:42:52Z</time>
      </trkpt>
      <trkpt lat="49.28515" lon="-0.20269">
        <ele>7</ele>
        <time>2022-05-31T17:42:59Z</time>
      </trkpt>
      <trkpt lat="49.28514" lon="-0.20268">
        <ele>7</ele>
        <time>2022-05-31T17:43:10Z</time>
      </trkpt>
      <trkpt lat="49.28511" lon="-0.20265">
        <ele>6.9</ele>
        <time>2022-05-31T17:43:19Z</time>
      </trkpt>
      <trkpt lat="49.28514" lon="-0.20267">
        <ele>7</ele>
        <time>2022-05-31T17:43:24Z</time>
      </trkpt>
      <trkpt lat="49.28512" lon="-0.20264">
        <ele>6.9</ele>
        <time>2022-05-31T17:43:30Z</time>
      </trkpt>
      <trkpt lat="49.28515" lon="-0.20255">
        <ele>6.7</ele>
        <time>2022-05-31T17:43:35Z</time>
      </trkpt>
      <trkpt lat="49.28511" lon="-0.20259">
        <ele>6.8</ele>
        <time>2022-05-31T17:43:37Z</time>
      </trkpt>
    </trkseg>
  </trk>
</gpx>